<?xml version="1.0" encoding="UTF-8" standalone="no" ?>
<gpx xmlns="http://www.topografix.com/GPX/1/1" xmlns:xsi="http://www.w3.org/2001/XMLSchema-instance" xsi:schemaLocation="http://www.topografix.com/GPX/1/1 http://www.topografix.com/GPX/1/1/gpx.xsd" version="1.1" creator="VisuGPX - https://www.visugpx.com">
  <metadata>
    <name>VTT Rando des Chateaux</name>
    <desc><![CDATA[Randonnée VTT (sans difficulté) Barcares - Salses - St Hippolyte - St Laurent - Le Barcares]]></desc>
  </metadata>
  <trk>
    <name><![CDATA[VTT Rando des Chateaux_1]]></name>
    <trkseg>
      <trkpt lat="42.80085" lon="3.03529">
        <ele>3.2</ele>
        <time>1970-01-01T00:00:00Z</time>
      </trkpt>
      <trkpt lat="42.80082" lon="3.03531">
        <ele>3.2</ele>
        <time>1970-01-01T00:00:01Z</time>
      </trkpt>
      <trkpt lat="42.8008" lon="3.03536">
        <ele>3.2</ele>
        <time>1970-01-01T00:00:02Z</time>
      </trkpt>
      <trkpt lat="42.80079" lon="3.03541">
        <ele>3</ele>
        <time>1970-01-01T00:00:03Z</time>
      </trkpt>
      <trkpt lat="42.80077" lon="3.03546">
        <ele>3</ele>
        <time>1970-01-01T00:00:04Z</time>
      </trkpt>
      <trkpt lat="42.80076" lon="3.0355">
        <ele>3</ele>
        <time>1970-01-01T00:00:05Z</time>
      </trkpt>
      <trkpt lat="42.80072" lon="3.03552">
        <ele>3</ele>
        <time>1970-01-01T00:00:06Z</time>
      </trkpt>
      <trkpt lat="42.80069" lon="3.03553">
        <ele>3</ele>
        <time>1970-01-01T00:00:07Z</time>
      </trkpt>
      <trkpt lat="42.80066" lon="3.0355">
        <ele>3</ele>
        <time>1970-01-01T00:00:08Z</time>
      </trkpt>
      <trkpt lat="42.80062" lon="3.03547">
        <ele>2.8</ele>
        <time>1970-01-01T00:00:09Z</time>
      </trkpt>
      <trkpt lat="42.80059" lon="3.03545">
        <ele>2.8</ele>
        <time>1970-01-01T00:00:10Z</time>
      </trkpt>
      <trkpt lat="42.80055" lon="3.03542">
        <ele>2.6</ele>
        <time>1970-01-01T00:00:11Z</time>
      </trkpt>
      <trkpt lat="42.80052" lon="3.03539">
        <ele>2.6</ele>
        <time>1970-01-01T00:00:12Z</time>
      </trkpt>
      <trkpt lat="42.80049" lon="3.03537">
        <ele>2.4</ele>
        <time>1970-01-01T00:00:13Z</time>
      </trkpt>
      <trkpt lat="42.80045" lon="3.03534">
        <ele>2.4</ele>
        <time>1970-01-01T00:00:14Z</time>
      </trkpt>
      <trkpt lat="42.80042" lon="3.03532">
        <ele>2.4</ele>
        <time>1970-01-01T00:00:15Z</time>
      </trkpt>
      <trkpt lat="42.80039" lon="3.0353">
        <ele>2.2</ele>
        <time>1970-01-01T00:00:16Z</time>
      </trkpt>
      <trkpt lat="42.80036" lon="3.0353">
        <ele>2.2</ele>
        <time>1970-01-01T00:00:17Z</time>
      </trkpt>
      <trkpt lat="42.80035" lon="3.0353">
        <ele>2.2</ele>
        <time>1970-01-01T00:00:18Z</time>
      </trkpt>
      <trkpt lat="42.80031" lon="3.03532">
        <ele>2.2</ele>
        <time>1970-01-01T00:00:19Z</time>
      </trkpt>
      <trkpt lat="42.8003" lon="3.03532">
        <ele>2.2</ele>
        <time>1970-01-01T00:00:20Z</time>
      </trkpt>
      <trkpt lat="42.80027" lon="3.03535">
        <ele>2.2</ele>
        <time>1970-01-01T00:00:21Z</time>
      </trkpt>
      <trkpt lat="42.80024" lon="3.03539">
        <ele>2.2</ele>
        <time>1970-01-01T00:00:22Z</time>
      </trkpt>
      <trkpt lat="42.80022" lon="3.03543">
        <ele>2.2</ele>
        <time>1970-01-01T00:00:23Z</time>
      </trkpt>
      <trkpt lat="42.80019" lon="3.03548">
        <ele>2.2</ele>
        <time>1970-01-01T00:00:24Z</time>
      </trkpt>
      <trkpt lat="42.80017" lon="3.03552">
        <ele>2.2</ele>
        <time>1970-01-01T00:00:25Z</time>
      </trkpt>
      <trkpt lat="42.80015" lon="3.03557">
        <ele>2</ele>
        <time>1970-01-01T00:00:26Z</time>
      </trkpt>
      <trkpt lat="42.80012" lon="3.03562">
        <ele>2</ele>
        <time>1970-01-01T00:00:27Z</time>
      </trkpt>
      <trkpt lat="42.8001" lon="3.03567">
        <ele>2</ele>
        <time>1970-01-01T00:00:28Z</time>
      </trkpt>
      <trkpt lat="42.80007" lon="3.03572">
        <ele>2.2</ele>
        <time>1970-01-01T00:00:29Z</time>
      </trkpt>
      <trkpt lat="42.80005" lon="3.03577">
        <ele>2.2</ele>
        <time>1970-01-01T00:00:30Z</time>
      </trkpt>
      <trkpt lat="42.80002" lon="3.03583">
        <ele>2.2</ele>
        <time>1970-01-01T00:00:31Z</time>
      </trkpt>
      <trkpt lat="42.79999" lon="3.03588">
        <ele>2.2</ele>
        <time>1970-01-01T00:00:32Z</time>
      </trkpt>
      <trkpt lat="42.79996" lon="3.03593">
        <ele>2.2</ele>
        <time>1970-01-01T00:00:33Z</time>
      </trkpt>
      <trkpt lat="42.79994" lon="3.03599">
        <ele>2.2</ele>
        <time>1970-01-01T00:00:34Z</time>
      </trkpt>
      <trkpt lat="42.79991" lon="3.03605">
        <ele>2.2</ele>
        <time>1970-01-01T00:00:35Z</time>
      </trkpt>
      <trkpt lat="42.79989" lon="3.0361">
        <ele>2.4</ele>
        <time>1970-01-01T00:00:36Z</time>
      </trkpt>
      <trkpt lat="42.79986" lon="3.03615">
        <ele>2.4</ele>
        <time>1970-01-01T00:00:37Z</time>
      </trkpt>
      <trkpt lat="42.79985" lon="3.03621">
        <ele>2.6</ele>
        <time>1970-01-01T00:00:38Z</time>
      </trkpt>
      <trkpt lat="42.79984" lon="3.03627">
        <ele>2.6</ele>
        <time>1970-01-01T00:00:39Z</time>
      </trkpt>
      <trkpt lat="42.79985" lon="3.03631">
        <ele>2.8</ele>
        <time>1970-01-01T00:00:40Z</time>
      </trkpt>
      <trkpt lat="42.79987" lon="3.03635">
        <ele>3</ele>
        <time>1970-01-01T00:00:41Z</time>
      </trkpt>
      <trkpt lat="42.79988" lon="3.0364">
        <ele>3</ele>
        <time>1970-01-01T00:00:42Z</time>
      </trkpt>
      <trkpt lat="42.79989" lon="3.03644">
        <ele>3.2</ele>
        <time>1970-01-01T00:00:43Z</time>
      </trkpt>
      <trkpt lat="42.79989" lon="3.03648">
        <ele>3.2</ele>
        <time>1970-01-01T00:00:44Z</time>
      </trkpt>
      <trkpt lat="42.79989" lon="3.03651">
        <ele>3.4</ele>
        <time>1970-01-01T00:00:45Z</time>
      </trkpt>
      <trkpt lat="42.79987" lon="3.03655">
        <ele>3.4</ele>
        <time>1970-01-01T00:00:46Z</time>
      </trkpt>
      <trkpt lat="42.79985" lon="3.0366">
        <ele>3.4</ele>
        <time>1970-01-01T00:00:47Z</time>
      </trkpt>
      <trkpt lat="42.79983" lon="3.03665">
        <ele>3.4</ele>
        <time>1970-01-01T00:00:48Z</time>
      </trkpt>
      <trkpt lat="42.7998" lon="3.03669">
        <ele>3.6</ele>
        <time>1970-01-01T00:00:49Z</time>
      </trkpt>
      <trkpt lat="42.79977" lon="3.03673">
        <ele>3.6</ele>
        <time>1970-01-01T00:00:50Z</time>
      </trkpt>
      <trkpt lat="42.79974" lon="3.03676">
        <ele>3.6</ele>
        <time>1970-01-01T00:00:51Z</time>
      </trkpt>
      <trkpt lat="42.7997" lon="3.03679">
        <ele>3.6</ele>
        <time>1970-01-01T00:00:52Z</time>
      </trkpt>
      <trkpt lat="42.79966" lon="3.03681">
        <ele>3.8</ele>
        <time>1970-01-01T00:00:53Z</time>
      </trkpt>
      <trkpt lat="42.79961" lon="3.03681">
        <ele>3.8</ele>
        <time>1970-01-01T00:00:54Z</time>
      </trkpt>
      <trkpt lat="42.79956" lon="3.03681">
        <ele>3.8</ele>
        <time>1970-01-01T00:00:55Z</time>
      </trkpt>
      <trkpt lat="42.79951" lon="3.0368">
        <ele>4</ele>
        <time>1970-01-01T00:00:56Z</time>
      </trkpt>
      <trkpt lat="42.79946" lon="3.03679">
        <ele>4</ele>
        <time>1970-01-01T00:00:57Z</time>
      </trkpt>
      <trkpt lat="42.79941" lon="3.03679">
        <ele>4</ele>
        <time>1970-01-01T00:00:58Z</time>
      </trkpt>
      <trkpt lat="42.79935" lon="3.03679">
        <ele>4.2</ele>
        <time>1970-01-01T00:00:59Z</time>
      </trkpt>
      <trkpt lat="42.7993" lon="3.03678">
        <ele>4.2</ele>
        <time>1970-01-01T00:01:00Z</time>
      </trkpt>
      <trkpt lat="42.79925" lon="3.03678">
        <ele>4.4</ele>
        <time>1970-01-01T00:01:01Z</time>
      </trkpt>
      <trkpt lat="42.79919" lon="3.03677">
        <ele>4.4</ele>
        <time>1970-01-01T00:01:02Z</time>
      </trkpt>
      <trkpt lat="42.79914" lon="3.03677">
        <ele>4.6</ele>
        <time>1970-01-01T00:01:03Z</time>
      </trkpt>
      <trkpt lat="42.79908" lon="3.03677">
        <ele>4.6</ele>
        <time>1970-01-01T00:01:04Z</time>
      </trkpt>
      <trkpt lat="42.79903" lon="3.03676">
        <ele>4.8</ele>
        <time>1970-01-01T00:01:05Z</time>
      </trkpt>
      <trkpt lat="42.79898" lon="3.03676">
        <ele>4.8</ele>
        <time>1970-01-01T00:01:06Z</time>
      </trkpt>
      <trkpt lat="42.79893" lon="3.03675">
        <ele>5</ele>
        <time>1970-01-01T00:01:07Z</time>
      </trkpt>
      <trkpt lat="42.79888" lon="3.03675">
        <ele>5</ele>
        <time>1970-01-01T00:01:08Z</time>
      </trkpt>
      <trkpt lat="42.79883" lon="3.03674">
        <ele>5.2</ele>
        <time>1970-01-01T00:01:09Z</time>
      </trkpt>
      <trkpt lat="42.79877" lon="3.03674">
        <ele>5.2</ele>
        <time>1970-01-01T00:01:10Z</time>
      </trkpt>
      <trkpt lat="42.79872" lon="3.03674">
        <ele>5.4</ele>
        <time>1970-01-01T00:01:11Z</time>
      </trkpt>
      <trkpt lat="42.79866" lon="3.03674">
        <ele>5.4</ele>
        <time>1970-01-01T00:01:12Z</time>
      </trkpt>
      <trkpt lat="42.7986" lon="3.03673">
        <ele>5.6</ele>
        <time>1970-01-01T00:01:13Z</time>
      </trkpt>
      <trkpt lat="42.79854" lon="3.03672">
        <ele>5.6</ele>
        <time>1970-01-01T00:01:14Z</time>
      </trkpt>
      <trkpt lat="42.79848" lon="3.03672">
        <ele>5.8</ele>
        <time>1970-01-01T00:01:15Z</time>
      </trkpt>
      <trkpt lat="42.79842" lon="3.03671">
        <ele>5.8</ele>
        <time>1970-01-01T00:01:16Z</time>
      </trkpt>
      <trkpt lat="42.79836" lon="3.0367">
        <ele>5.8</ele>
        <time>1970-01-01T00:01:17Z</time>
      </trkpt>
      <trkpt lat="42.7983" lon="3.0367">
        <ele>5.8</ele>
        <time>1970-01-01T00:01:18Z</time>
      </trkpt>
      <trkpt lat="42.79824" lon="3.03669">
        <ele>5.8</ele>
        <time>1970-01-01T00:01:19Z</time>
      </trkpt>
      <trkpt lat="42.79817" lon="3.03669">
        <ele>5.8</ele>
        <time>1970-01-01T00:01:20Z</time>
      </trkpt>
      <trkpt lat="42.79811" lon="3.03668">
        <ele>5.8</ele>
        <time>1970-01-01T00:01:21Z</time>
      </trkpt>
      <trkpt lat="42.79805" lon="3.03668">
        <ele>5.8</ele>
        <time>1970-01-01T00:01:22Z</time>
      </trkpt>
      <trkpt lat="42.798" lon="3.03667">
        <ele>5.8</ele>
        <time>1970-01-01T00:01:23Z</time>
      </trkpt>
      <trkpt lat="42.79794" lon="3.03667">
        <ele>5.8</ele>
        <time>1970-01-01T00:01:24Z</time>
      </trkpt>
      <trkpt lat="42.79788" lon="3.03667">
        <ele>5.8</ele>
        <time>1970-01-01T00:01:25Z</time>
      </trkpt>
      <trkpt lat="42.79782" lon="3.03666">
        <ele>5.8</ele>
        <time>1970-01-01T00:01:26Z</time>
      </trkpt>
      <trkpt lat="42.79776" lon="3.03666">
        <ele>5.6</ele>
        <time>1970-01-01T00:01:27Z</time>
      </trkpt>
      <trkpt lat="42.79771" lon="3.03665">
        <ele>5.6</ele>
        <time>1970-01-01T00:01:28Z</time>
      </trkpt>
      <trkpt lat="42.79765" lon="3.03665">
        <ele>5.6</ele>
        <time>1970-01-01T00:01:29Z</time>
      </trkpt>
      <trkpt lat="42.79759" lon="3.03664">
        <ele>5.4</ele>
        <time>1970-01-01T00:01:30Z</time>
      </trkpt>
      <trkpt lat="42.79754" lon="3.03663">
        <ele>5.4</ele>
        <time>1970-01-01T00:01:31Z</time>
      </trkpt>
      <trkpt lat="42.79748" lon="3.03663">
        <ele>5.2</ele>
        <time>1970-01-01T00:01:32Z</time>
      </trkpt>
      <trkpt lat="42.79742" lon="3.03662">
        <ele>5.2</ele>
        <time>1970-01-01T00:01:33Z</time>
      </trkpt>
      <trkpt lat="42.79736" lon="3.03662">
        <ele>5</ele>
        <time>1970-01-01T00:01:34Z</time>
      </trkpt>
      <trkpt lat="42.79731" lon="3.03661">
        <ele>5</ele>
        <time>1970-01-01T00:01:35Z</time>
      </trkpt>
      <trkpt lat="42.79725" lon="3.03661">
        <ele>4.8</ele>
        <time>1970-01-01T00:01:36Z</time>
      </trkpt>
      <trkpt lat="42.79719" lon="3.0366">
        <ele>4.8</ele>
        <time>1970-01-01T00:01:37Z</time>
      </trkpt>
      <trkpt lat="42.79713" lon="3.0366">
        <ele>4.6</ele>
        <time>1970-01-01T00:01:38Z</time>
      </trkpt>
      <trkpt lat="42.79707" lon="3.03659">
        <ele>4.6</ele>
        <time>1970-01-01T00:01:39Z</time>
      </trkpt>
      <trkpt lat="42.79702" lon="3.03659">
        <ele>4.4</ele>
        <time>1970-01-01T00:01:40Z</time>
      </trkpt>
      <trkpt lat="42.79696" lon="3.03658">
        <ele>4.4</ele>
        <time>1970-01-01T00:01:41Z</time>
      </trkpt>
      <trkpt lat="42.7969" lon="3.03658">
        <ele>4.2</ele>
        <time>1970-01-01T00:01:42Z</time>
      </trkpt>
      <trkpt lat="42.79684" lon="3.03658">
        <ele>4.2</ele>
        <time>1970-01-01T00:01:43Z</time>
      </trkpt>
      <trkpt lat="42.79678" lon="3.03657">
        <ele>4</ele>
        <time>1970-01-01T00:01:44Z</time>
      </trkpt>
      <trkpt lat="42.79672" lon="3.03656">
        <ele>4</ele>
        <time>1970-01-01T00:01:45Z</time>
      </trkpt>
      <trkpt lat="42.79666" lon="3.03656">
        <ele>3.8</ele>
        <time>1970-01-01T00:01:46Z</time>
      </trkpt>
      <trkpt lat="42.7966" lon="3.03656">
        <ele>3.8</ele>
        <time>1970-01-01T00:01:47Z</time>
      </trkpt>
      <trkpt lat="42.79656" lon="3.03656">
        <ele>3.6</ele>
        <time>1970-01-01T00:01:48Z</time>
      </trkpt>
      <trkpt lat="42.79652" lon="3.03655">
        <ele>3.6</ele>
        <time>1970-01-01T00:01:49Z</time>
      </trkpt>
      <trkpt lat="42.79645" lon="3.03649">
        <ele>2</ele>
        <time>1970-01-01T00:01:50Z</time>
      </trkpt>
      <trkpt lat="42.7964" lon="3.03645">
        <ele>2</ele>
        <time>1970-01-01T00:01:51Z</time>
      </trkpt>
      <trkpt lat="42.79637" lon="3.03643">
        <ele>3.4</ele>
        <time>1970-01-01T00:01:52Z</time>
      </trkpt>
      <trkpt lat="42.79634" lon="3.03642">
        <ele>3.4</ele>
        <time>1970-01-01T00:01:53Z</time>
      </trkpt>
      <trkpt lat="42.79631" lon="3.03642">
        <ele>3.4</ele>
        <time>1970-01-01T00:01:54Z</time>
      </trkpt>
      <trkpt lat="42.79628" lon="3.03643">
        <ele>3.4</ele>
        <time>1970-01-01T00:01:55Z</time>
      </trkpt>
      <trkpt lat="42.79625" lon="3.03644">
        <ele>3.2</ele>
        <time>1970-01-01T00:01:56Z</time>
      </trkpt>
      <trkpt lat="42.79622" lon="3.03645">
        <ele>3.2</ele>
        <time>1970-01-01T00:01:57Z</time>
      </trkpt>
      <trkpt lat="42.79619" lon="3.03647">
        <ele>3.2</ele>
        <time>1970-01-01T00:01:58Z</time>
      </trkpt>
      <trkpt lat="42.79615" lon="3.03649">
        <ele>3.2</ele>
        <time>1970-01-01T00:01:59Z</time>
      </trkpt>
      <trkpt lat="42.79612" lon="3.0365">
        <ele>3.2</ele>
        <time>1970-01-01T00:02:00Z</time>
      </trkpt>
      <trkpt lat="42.79608" lon="3.0365">
        <ele>3.2</ele>
        <time>1970-01-01T00:02:01Z</time>
      </trkpt>
      <trkpt lat="42.79604" lon="3.0365">
        <ele>3.2</ele>
        <time>1970-01-01T00:02:02Z</time>
      </trkpt>
      <trkpt lat="42.796" lon="3.03649">
        <ele>3.2</ele>
        <time>1970-01-01T00:02:03Z</time>
      </trkpt>
      <trkpt lat="42.79596" lon="3.03649">
        <ele>3.2</ele>
        <time>1970-01-01T00:02:04Z</time>
      </trkpt>
      <trkpt lat="42.79592" lon="3.03648">
        <ele>3.2</ele>
        <time>1970-01-01T00:02:05Z</time>
      </trkpt>
      <trkpt lat="42.79588" lon="3.03648">
        <ele>3</ele>
        <time>1970-01-01T00:02:06Z</time>
      </trkpt>
      <trkpt lat="42.79584" lon="3.03648">
        <ele>3</ele>
        <time>1970-01-01T00:02:07Z</time>
      </trkpt>
      <trkpt lat="42.7958" lon="3.03648">
        <ele>3</ele>
        <time>1970-01-01T00:02:08Z</time>
      </trkpt>
      <trkpt lat="42.79576" lon="3.03647">
        <ele>3</ele>
        <time>1970-01-01T00:02:09Z</time>
      </trkpt>
      <trkpt lat="42.79571" lon="3.03647">
        <ele>3</ele>
        <time>1970-01-01T00:02:10Z</time>
      </trkpt>
      <trkpt lat="42.79567" lon="3.03646">
        <ele>3</ele>
        <time>1970-01-01T00:02:11Z</time>
      </trkpt>
      <trkpt lat="42.79563" lon="3.03646">
        <ele>3</ele>
        <time>1970-01-01T00:02:12Z</time>
      </trkpt>
      <trkpt lat="42.79559" lon="3.03646">
        <ele>3</ele>
        <time>1970-01-01T00:02:13Z</time>
      </trkpt>
      <trkpt lat="42.79554" lon="3.03646">
        <ele>3</ele>
        <time>1970-01-01T00:02:14Z</time>
      </trkpt>
      <trkpt lat="42.7955" lon="3.03645">
        <ele>3</ele>
        <time>1970-01-01T00:02:15Z</time>
      </trkpt>
      <trkpt lat="42.79546" lon="3.03645">
        <ele>3</ele>
        <time>1970-01-01T00:02:16Z</time>
      </trkpt>
      <trkpt lat="42.79542" lon="3.03645">
        <ele>3</ele>
        <time>1970-01-01T00:02:17Z</time>
      </trkpt>
      <trkpt lat="42.79537" lon="3.03644">
        <ele>3.2</ele>
        <time>1970-01-01T00:02:18Z</time>
      </trkpt>
      <trkpt lat="42.79533" lon="3.03644">
        <ele>3.2</ele>
        <time>1970-01-01T00:02:19Z</time>
      </trkpt>
      <trkpt lat="42.79529" lon="3.03643">
        <ele>3.2</ele>
        <time>1970-01-01T00:02:20Z</time>
      </trkpt>
      <trkpt lat="42.79524" lon="3.03643">
        <ele>3.2</ele>
        <time>1970-01-01T00:02:21Z</time>
      </trkpt>
      <trkpt lat="42.7952" lon="3.03642">
        <ele>3.2</ele>
        <time>1970-01-01T00:02:22Z</time>
      </trkpt>
      <trkpt lat="42.79516" lon="3.0364">
        <ele>3.2</ele>
        <time>1970-01-01T00:02:23Z</time>
      </trkpt>
      <trkpt lat="42.79512" lon="3.03636">
        <ele>3.2</ele>
        <time>1970-01-01T00:02:24Z</time>
      </trkpt>
      <trkpt lat="42.79509" lon="3.03631">
        <ele>3.2</ele>
        <time>1970-01-01T00:02:25Z</time>
      </trkpt>
      <trkpt lat="42.79507" lon="3.03626">
        <ele>3.2</ele>
        <time>1970-01-01T00:02:26Z</time>
      </trkpt>
      <trkpt lat="42.79506" lon="3.03619">
        <ele>3</ele>
        <time>1970-01-01T00:02:27Z</time>
      </trkpt>
      <trkpt lat="42.79506" lon="3.03613">
        <ele>3</ele>
        <time>1970-01-01T00:02:28Z</time>
      </trkpt>
      <trkpt lat="42.79506" lon="3.03607">
        <ele>3</ele>
        <time>1970-01-01T00:02:29Z</time>
      </trkpt>
      <trkpt lat="42.79506" lon="3.036">
        <ele>3</ele>
        <time>1970-01-01T00:02:30Z</time>
      </trkpt>
      <trkpt lat="42.79506" lon="3.03594">
        <ele>3</ele>
        <time>1970-01-01T00:02:31Z</time>
      </trkpt>
      <trkpt lat="42.79506" lon="3.03588">
        <ele>3</ele>
        <time>1970-01-01T00:02:32Z</time>
      </trkpt>
      <trkpt lat="42.79507" lon="3.03581">
        <ele>3</ele>
        <time>1970-01-01T00:02:33Z</time>
      </trkpt>
      <trkpt lat="42.79507" lon="3.03575">
        <ele>3</ele>
        <time>1970-01-01T00:02:34Z</time>
      </trkpt>
      <trkpt lat="42.79507" lon="3.03569">
        <ele>3</ele>
        <time>1970-01-01T00:02:35Z</time>
      </trkpt>
      <trkpt lat="42.79507" lon="3.03563">
        <ele>2.8</ele>
        <time>1970-01-01T00:02:36Z</time>
      </trkpt>
      <trkpt lat="42.79507" lon="3.03556">
        <ele>2.8</ele>
        <time>1970-01-01T00:02:37Z</time>
      </trkpt>
      <trkpt lat="42.79507" lon="3.0355">
        <ele>2.8</ele>
        <time>1970-01-01T00:02:38Z</time>
      </trkpt>
      <trkpt lat="42.79507" lon="3.03544">
        <ele>2.8</ele>
        <time>1970-01-01T00:02:39Z</time>
      </trkpt>
      <trkpt lat="42.79507" lon="3.03539">
        <ele>3</ele>
        <time>1970-01-01T00:02:40Z</time>
      </trkpt>
      <trkpt lat="42.79507" lon="3.03533">
        <ele>3</ele>
        <time>1970-01-01T00:02:41Z</time>
      </trkpt>
      <trkpt lat="42.79507" lon="3.03527">
        <ele>3</ele>
        <time>1970-01-01T00:02:42Z</time>
      </trkpt>
      <trkpt lat="42.79507" lon="3.03522">
        <ele>3</ele>
        <time>1970-01-01T00:02:43Z</time>
      </trkpt>
      <trkpt lat="42.79507" lon="3.03516">
        <ele>3</ele>
        <time>1970-01-01T00:02:44Z</time>
      </trkpt>
      <trkpt lat="42.79507" lon="3.0351">
        <ele>3</ele>
        <time>1970-01-01T00:02:45Z</time>
      </trkpt>
      <trkpt lat="42.79507" lon="3.03505">
        <ele>3</ele>
        <time>1970-01-01T00:02:46Z</time>
      </trkpt>
      <trkpt lat="42.79507" lon="3.03499">
        <ele>2.8</ele>
        <time>1970-01-01T00:02:47Z</time>
      </trkpt>
      <trkpt lat="42.79507" lon="3.03493">
        <ele>2.8</ele>
        <time>1970-01-01T00:02:48Z</time>
      </trkpt>
      <trkpt lat="42.79507" lon="3.03487">
        <ele>2.8</ele>
        <time>1970-01-01T00:02:49Z</time>
      </trkpt>
      <trkpt lat="42.79507" lon="3.03481">
        <ele>2.8</ele>
        <time>1970-01-01T00:02:50Z</time>
      </trkpt>
      <trkpt lat="42.79507" lon="3.03476">
        <ele>2.8</ele>
        <time>1970-01-01T00:02:51Z</time>
      </trkpt>
      <trkpt lat="42.79507" lon="3.0347">
        <ele>2.8</ele>
        <time>1970-01-01T00:02:52Z</time>
      </trkpt>
      <trkpt lat="42.79507" lon="3.03464">
        <ele>2.8</ele>
        <time>1970-01-01T00:02:53Z</time>
      </trkpt>
      <trkpt lat="42.79507" lon="3.03458">
        <ele>2.8</ele>
        <time>1970-01-01T00:02:54Z</time>
      </trkpt>
      <trkpt lat="42.79507" lon="3.03452">
        <ele>2.8</ele>
        <time>1970-01-01T00:02:55Z</time>
      </trkpt>
      <trkpt lat="42.79507" lon="3.03446">
        <ele>2.8</ele>
        <time>1970-01-01T00:02:56Z</time>
      </trkpt>
      <trkpt lat="42.79507" lon="3.0344">
        <ele>2.8</ele>
        <time>1970-01-01T00:02:57Z</time>
      </trkpt>
      <trkpt lat="42.79507" lon="3.03435">
        <ele>2.8</ele>
        <time>1970-01-01T00:02:58Z</time>
      </trkpt>
      <trkpt lat="42.79507" lon="3.03429">
        <ele>2.8</ele>
        <time>1970-01-01T00:02:59Z</time>
      </trkpt>
      <trkpt lat="42.79507" lon="3.03424">
        <ele>2.8</ele>
        <time>1970-01-01T00:03:00Z</time>
      </trkpt>
      <trkpt lat="42.79507" lon="3.03419">
        <ele>2.8</ele>
        <time>1970-01-01T00:03:01Z</time>
      </trkpt>
      <trkpt lat="42.79507" lon="3.03414">
        <ele>2.8</ele>
        <time>1970-01-01T00:03:02Z</time>
      </trkpt>
      <trkpt lat="42.79507" lon="3.03408">
        <ele>2.8</ele>
        <time>1970-01-01T00:03:03Z</time>
      </trkpt>
      <trkpt lat="42.79507" lon="3.03403">
        <ele>2.8</ele>
        <time>1970-01-01T00:03:04Z</time>
      </trkpt>
      <trkpt lat="42.79507" lon="3.03399">
        <ele>2.8</ele>
        <time>1970-01-01T00:03:05Z</time>
      </trkpt>
      <trkpt lat="42.79507" lon="3.03393">
        <ele>2.8</ele>
        <time>1970-01-01T00:03:06Z</time>
      </trkpt>
      <trkpt lat="42.79507" lon="3.03388">
        <ele>2.8</ele>
        <time>1970-01-01T00:03:07Z</time>
      </trkpt>
      <trkpt lat="42.79507" lon="3.03382">
        <ele>2.8</ele>
        <time>1970-01-01T00:03:08Z</time>
      </trkpt>
      <trkpt lat="42.79507" lon="3.03377">
        <ele>2.8</ele>
        <time>1970-01-01T00:03:09Z</time>
      </trkpt>
      <trkpt lat="42.79507" lon="3.03372">
        <ele>2.8</ele>
        <time>1970-01-01T00:03:10Z</time>
      </trkpt>
      <trkpt lat="42.79507" lon="3.03367">
        <ele>2.8</ele>
        <time>1970-01-01T00:03:11Z</time>
      </trkpt>
      <trkpt lat="42.79507" lon="3.03362">
        <ele>2.8</ele>
        <time>1970-01-01T00:03:12Z</time>
      </trkpt>
      <trkpt lat="42.79507" lon="3.03357">
        <ele>2.8</ele>
        <time>1970-01-01T00:03:13Z</time>
      </trkpt>
      <trkpt lat="42.79508" lon="3.03352">
        <ele>2.8</ele>
        <time>1970-01-01T00:03:14Z</time>
      </trkpt>
      <trkpt lat="42.79508" lon="3.03346">
        <ele>2.8</ele>
        <time>1970-01-01T00:03:15Z</time>
      </trkpt>
      <trkpt lat="42.79508" lon="3.03341">
        <ele>2.8</ele>
        <time>1970-01-01T00:03:16Z</time>
      </trkpt>
      <trkpt lat="42.79508" lon="3.03336">
        <ele>2.8</ele>
        <time>1970-01-01T00:03:17Z</time>
      </trkpt>
      <trkpt lat="42.79508" lon="3.0333">
        <ele>2.8</ele>
        <time>1970-01-01T00:03:18Z</time>
      </trkpt>
      <trkpt lat="42.79508" lon="3.03324">
        <ele>2.8</ele>
        <time>1970-01-01T00:03:19Z</time>
      </trkpt>
      <trkpt lat="42.79508" lon="3.03319">
        <ele>2.8</ele>
        <time>1970-01-01T00:03:20Z</time>
      </trkpt>
      <trkpt lat="42.79507" lon="3.03314">
        <ele>2.8</ele>
        <time>1970-01-01T00:03:21Z</time>
      </trkpt>
      <trkpt lat="42.79507" lon="3.03309">
        <ele>2.8</ele>
        <time>1970-01-01T00:03:22Z</time>
      </trkpt>
      <trkpt lat="42.79507" lon="3.03304">
        <ele>2.8</ele>
        <time>1970-01-01T00:03:23Z</time>
      </trkpt>
      <trkpt lat="42.79508" lon="3.03299">
        <ele>2.8</ele>
        <time>1970-01-01T00:03:24Z</time>
      </trkpt>
      <trkpt lat="42.79508" lon="3.03293">
        <ele>2.8</ele>
        <time>1970-01-01T00:03:25Z</time>
      </trkpt>
      <trkpt lat="42.79508" lon="3.03288">
        <ele>2.8</ele>
        <time>1970-01-01T00:03:26Z</time>
      </trkpt>
      <trkpt lat="42.79508" lon="3.03283">
        <ele>2.8</ele>
        <time>1970-01-01T00:03:27Z</time>
      </trkpt>
      <trkpt lat="42.7951" lon="3.03279">
        <ele>2.8</ele>
        <time>1970-01-01T00:03:28Z</time>
      </trkpt>
      <trkpt lat="42.79511" lon="3.03274">
        <ele>2.8</ele>
        <time>1970-01-01T00:03:29Z</time>
      </trkpt>
      <trkpt lat="42.79513" lon="3.0327">
        <ele>2.8</ele>
        <time>1970-01-01T00:03:30Z</time>
      </trkpt>
      <trkpt lat="42.79513" lon="3.03265">
        <ele>2.8</ele>
        <time>1970-01-01T00:03:31Z</time>
      </trkpt>
      <trkpt lat="42.79512" lon="3.0326">
        <ele>2.8</ele>
        <time>1970-01-01T00:03:32Z</time>
      </trkpt>
      <trkpt lat="42.7951" lon="3.03255">
        <ele>2.8</ele>
        <time>1970-01-01T00:03:33Z</time>
      </trkpt>
      <trkpt lat="42.79508" lon="3.03251">
        <ele>2.6</ele>
        <time>1970-01-01T00:03:34Z</time>
      </trkpt>
      <trkpt lat="42.79506" lon="3.03247">
        <ele>2.6</ele>
        <time>1970-01-01T00:03:35Z</time>
      </trkpt>
      <trkpt lat="42.79503" lon="3.03244">
        <ele>2.6</ele>
        <time>1970-01-01T00:03:36Z</time>
      </trkpt>
      <trkpt lat="42.795" lon="3.03241">
        <ele>2.6</ele>
        <time>1970-01-01T00:03:37Z</time>
      </trkpt>
      <trkpt lat="42.79498" lon="3.03237">
        <ele>2.6</ele>
        <time>1970-01-01T00:03:38Z</time>
      </trkpt>
      <trkpt lat="42.79495" lon="3.03233">
        <ele>2.6</ele>
        <time>1970-01-01T00:03:39Z</time>
      </trkpt>
      <trkpt lat="42.79492" lon="3.03229">
        <ele>2.6</ele>
        <time>1970-01-01T00:03:40Z</time>
      </trkpt>
      <trkpt lat="42.79489" lon="3.03226">
        <ele>2.6</ele>
        <time>1970-01-01T00:03:41Z</time>
      </trkpt>
      <trkpt lat="42.79486" lon="3.03222">
        <ele>2.6</ele>
        <time>1970-01-01T00:03:42Z</time>
      </trkpt>
      <trkpt lat="42.79484" lon="3.03218">
        <ele>2.6</ele>
        <time>1970-01-01T00:03:43Z</time>
      </trkpt>
      <trkpt lat="42.79481" lon="3.03214">
        <ele>2.6</ele>
        <time>1970-01-01T00:03:44Z</time>
      </trkpt>
      <trkpt lat="42.79478" lon="3.03211">
        <ele>2.6</ele>
        <time>1970-01-01T00:03:45Z</time>
      </trkpt>
      <trkpt lat="42.79475" lon="3.03207">
        <ele>2.6</ele>
        <time>1970-01-01T00:03:46Z</time>
      </trkpt>
      <trkpt lat="42.79472" lon="3.03203">
        <ele>2.6</ele>
        <time>1970-01-01T00:03:47Z</time>
      </trkpt>
      <trkpt lat="42.79469" lon="3.032">
        <ele>2.6</ele>
        <time>1970-01-01T00:03:48Z</time>
      </trkpt>
      <trkpt lat="42.79466" lon="3.03196">
        <ele>2.6</ele>
        <time>1970-01-01T00:03:49Z</time>
      </trkpt>
      <trkpt lat="42.79463" lon="3.03192">
        <ele>2.6</ele>
        <time>1970-01-01T00:03:50Z</time>
      </trkpt>
      <trkpt lat="42.7946" lon="3.03188">
        <ele>2.6</ele>
        <time>1970-01-01T00:03:51Z</time>
      </trkpt>
      <trkpt lat="42.79457" lon="3.03184">
        <ele>2.6</ele>
        <time>1970-01-01T00:03:52Z</time>
      </trkpt>
      <trkpt lat="42.79454" lon="3.0318">
        <ele>2.6</ele>
        <time>1970-01-01T00:03:53Z</time>
      </trkpt>
      <trkpt lat="42.79451" lon="3.03176">
        <ele>2.6</ele>
        <time>1970-01-01T00:03:54Z</time>
      </trkpt>
      <trkpt lat="42.79448" lon="3.03172">
        <ele>2.6</ele>
        <time>1970-01-01T00:03:55Z</time>
      </trkpt>
      <trkpt lat="42.79445" lon="3.03168">
        <ele>2.6</ele>
        <time>1970-01-01T00:03:56Z</time>
      </trkpt>
      <trkpt lat="42.79442" lon="3.03164">
        <ele>2.6</ele>
        <time>1970-01-01T00:03:57Z</time>
      </trkpt>
      <trkpt lat="42.7944" lon="3.0316">
        <ele>2.6</ele>
        <time>1970-01-01T00:03:58Z</time>
      </trkpt>
      <trkpt lat="42.79437" lon="3.03156">
        <ele>2.6</ele>
        <time>1970-01-01T00:03:59Z</time>
      </trkpt>
      <trkpt lat="42.79434" lon="3.03153">
        <ele>2.6</ele>
        <time>1970-01-01T00:04:00Z</time>
      </trkpt>
      <trkpt lat="42.79431" lon="3.03149">
        <ele>2.6</ele>
        <time>1970-01-01T00:04:01Z</time>
      </trkpt>
      <trkpt lat="42.79428" lon="3.03145">
        <ele>2.6</ele>
        <time>1970-01-01T00:04:02Z</time>
      </trkpt>
      <trkpt lat="42.79425" lon="3.03141">
        <ele>2.6</ele>
        <time>1970-01-01T00:04:03Z</time>
      </trkpt>
      <trkpt lat="42.79422" lon="3.03137">
        <ele>2.6</ele>
        <time>1970-01-01T00:04:04Z</time>
      </trkpt>
      <trkpt lat="42.79419" lon="3.03133">
        <ele>2.6</ele>
        <time>1970-01-01T00:04:05Z</time>
      </trkpt>
      <trkpt lat="42.79416" lon="3.03129">
        <ele>2.6</ele>
        <time>1970-01-01T00:04:06Z</time>
      </trkpt>
      <trkpt lat="42.79413" lon="3.03125">
        <ele>2.6</ele>
        <time>1970-01-01T00:04:07Z</time>
      </trkpt>
      <trkpt lat="42.7941" lon="3.03122">
        <ele>2.6</ele>
        <time>1970-01-01T00:04:08Z</time>
      </trkpt>
      <trkpt lat="42.79407" lon="3.03118">
        <ele>2.6</ele>
        <time>1970-01-01T00:04:09Z</time>
      </trkpt>
      <trkpt lat="42.79405" lon="3.03114">
        <ele>2.6</ele>
        <time>1970-01-01T00:04:10Z</time>
      </trkpt>
      <trkpt lat="42.79402" lon="3.03111">
        <ele>2.6</ele>
        <time>1970-01-01T00:04:11Z</time>
      </trkpt>
      <trkpt lat="42.79399" lon="3.03107">
        <ele>2.6</ele>
        <time>1970-01-01T00:04:12Z</time>
      </trkpt>
      <trkpt lat="42.79397" lon="3.03103">
        <ele>2.6</ele>
        <time>1970-01-01T00:04:13Z</time>
      </trkpt>
      <trkpt lat="42.79394" lon="3.031">
        <ele>2.6</ele>
        <time>1970-01-01T00:04:14Z</time>
      </trkpt>
      <trkpt lat="42.79391" lon="3.03096">
        <ele>2.6</ele>
        <time>1970-01-01T00:04:15Z</time>
      </trkpt>
      <trkpt lat="42.79388" lon="3.03092">
        <ele>2.6</ele>
        <time>1970-01-01T00:04:16Z</time>
      </trkpt>
      <trkpt lat="42.79385" lon="3.03088">
        <ele>2.6</ele>
        <time>1970-01-01T00:04:17Z</time>
      </trkpt>
      <trkpt lat="42.79382" lon="3.03084">
        <ele>2.6</ele>
        <time>1970-01-01T00:04:18Z</time>
      </trkpt>
      <trkpt lat="42.79378" lon="3.0308">
        <ele>2.6</ele>
        <time>1970-01-01T00:04:19Z</time>
      </trkpt>
      <trkpt lat="42.79375" lon="3.03077">
        <ele>2.6</ele>
        <time>1970-01-01T00:04:20Z</time>
      </trkpt>
      <trkpt lat="42.79372" lon="3.03073">
        <ele>2.6</ele>
        <time>1970-01-01T00:04:21Z</time>
      </trkpt>
      <trkpt lat="42.79369" lon="3.03069">
        <ele>2.6</ele>
        <time>1970-01-01T00:04:22Z</time>
      </trkpt>
      <trkpt lat="42.79365" lon="3.03065">
        <ele>2.6</ele>
        <time>1970-01-01T00:04:23Z</time>
      </trkpt>
      <trkpt lat="42.79362" lon="3.03062">
        <ele>2.6</ele>
        <time>1970-01-01T00:04:24Z</time>
      </trkpt>
      <trkpt lat="42.79359" lon="3.03058">
        <ele>2.6</ele>
        <time>1970-01-01T00:04:25Z</time>
      </trkpt>
      <trkpt lat="42.79357" lon="3.03054">
        <ele>2.6</ele>
        <time>1970-01-01T00:04:26Z</time>
      </trkpt>
      <trkpt lat="42.79354" lon="3.0305">
        <ele>2.6</ele>
        <time>1970-01-01T00:04:27Z</time>
      </trkpt>
      <trkpt lat="42.79352" lon="3.03046">
        <ele>2.6</ele>
        <time>1970-01-01T00:04:28Z</time>
      </trkpt>
      <trkpt lat="42.79349" lon="3.03043">
        <ele>2.6</ele>
        <time>1970-01-01T00:04:29Z</time>
      </trkpt>
      <trkpt lat="42.79347" lon="3.03039">
        <ele>2.6</ele>
        <time>1970-01-01T00:04:30Z</time>
      </trkpt>
      <trkpt lat="42.79344" lon="3.03035">
        <ele>2.6</ele>
        <time>1970-01-01T00:04:31Z</time>
      </trkpt>
      <trkpt lat="42.79341" lon="3.03031">
        <ele>2.6</ele>
        <time>1970-01-01T00:04:32Z</time>
      </trkpt>
      <trkpt lat="42.79338" lon="3.03028">
        <ele>2.6</ele>
        <time>1970-01-01T00:04:33Z</time>
      </trkpt>
      <trkpt lat="42.79335" lon="3.03024">
        <ele>2.6</ele>
        <time>1970-01-01T00:04:34Z</time>
      </trkpt>
      <trkpt lat="42.79332" lon="3.0302">
        <ele>2.6</ele>
        <time>1970-01-01T00:04:35Z</time>
      </trkpt>
      <trkpt lat="42.79329" lon="3.03016">
        <ele>2.6</ele>
        <time>1970-01-01T00:04:36Z</time>
      </trkpt>
      <trkpt lat="42.79326" lon="3.03012">
        <ele>2.6</ele>
        <time>1970-01-01T00:04:37Z</time>
      </trkpt>
      <trkpt lat="42.79323" lon="3.03008">
        <ele>2.6</ele>
        <time>1970-01-01T00:04:38Z</time>
      </trkpt>
      <trkpt lat="42.7932" lon="3.03004">
        <ele>2.6</ele>
        <time>1970-01-01T00:04:39Z</time>
      </trkpt>
      <trkpt lat="42.79318" lon="3.03">
        <ele>2.6</ele>
        <time>1970-01-01T00:04:40Z</time>
      </trkpt>
      <trkpt lat="42.79315" lon="3.02997">
        <ele>2.4</ele>
        <time>1970-01-01T00:04:41Z</time>
      </trkpt>
      <trkpt lat="42.79312" lon="3.02993">
        <ele>2.4</ele>
        <time>1970-01-01T00:04:42Z</time>
      </trkpt>
      <trkpt lat="42.7931" lon="3.02989">
        <ele>2.4</ele>
        <time>1970-01-01T00:04:43Z</time>
      </trkpt>
      <trkpt lat="42.79307" lon="3.02985">
        <ele>2.4</ele>
        <time>1970-01-01T00:04:44Z</time>
      </trkpt>
      <trkpt lat="42.79304" lon="3.02981">
        <ele>2.4</ele>
        <time>1970-01-01T00:04:45Z</time>
      </trkpt>
      <trkpt lat="42.79301" lon="3.02977">
        <ele>2.4</ele>
        <time>1970-01-01T00:04:46Z</time>
      </trkpt>
      <trkpt lat="42.79298" lon="3.02973">
        <ele>2.4</ele>
        <time>1970-01-01T00:04:47Z</time>
      </trkpt>
      <trkpt lat="42.79295" lon="3.02969">
        <ele>2.6</ele>
        <time>1970-01-01T00:04:48Z</time>
      </trkpt>
      <trkpt lat="42.79292" lon="3.02965">
        <ele>2.6</ele>
        <time>1970-01-01T00:04:49Z</time>
      </trkpt>
      <trkpt lat="42.79289" lon="3.02961">
        <ele>2.6</ele>
        <time>1970-01-01T00:04:50Z</time>
      </trkpt>
      <trkpt lat="42.79287" lon="3.02957">
        <ele>2.6</ele>
        <time>1970-01-01T00:04:51Z</time>
      </trkpt>
      <trkpt lat="42.79284" lon="3.02953">
        <ele>2.6</ele>
        <time>1970-01-01T00:04:52Z</time>
      </trkpt>
      <trkpt lat="42.79281" lon="3.02949">
        <ele>2.6</ele>
        <time>1970-01-01T00:04:53Z</time>
      </trkpt>
      <trkpt lat="42.79279" lon="3.02944">
        <ele>2.6</ele>
        <time>1970-01-01T00:04:54Z</time>
      </trkpt>
      <trkpt lat="42.79276" lon="3.0294">
        <ele>2.6</ele>
        <time>1970-01-01T00:04:55Z</time>
      </trkpt>
      <trkpt lat="42.79274" lon="3.02935">
        <ele>2.6</ele>
        <time>1970-01-01T00:04:56Z</time>
      </trkpt>
      <trkpt lat="42.79272" lon="3.0293">
        <ele>2.6</ele>
        <time>1970-01-01T00:04:57Z</time>
      </trkpt>
      <trkpt lat="42.79269" lon="3.02926">
        <ele>2.6</ele>
        <time>1970-01-01T00:04:58Z</time>
      </trkpt>
      <trkpt lat="42.79267" lon="3.02921">
        <ele>2.6</ele>
        <time>1970-01-01T00:04:59Z</time>
      </trkpt>
      <trkpt lat="42.79264" lon="3.02916">
        <ele>2.6</ele>
        <time>1970-01-01T00:05:00Z</time>
      </trkpt>
      <trkpt lat="42.79262" lon="3.02912">
        <ele>2.6</ele>
        <time>1970-01-01T00:05:01Z</time>
      </trkpt>
      <trkpt lat="42.7926" lon="3.02907">
        <ele>2.6</ele>
        <time>1970-01-01T00:05:02Z</time>
      </trkpt>
      <trkpt lat="42.79258" lon="3.02903">
        <ele>2.6</ele>
        <time>1970-01-01T00:05:03Z</time>
      </trkpt>
      <trkpt lat="42.79255" lon="3.02899">
        <ele>2.6</ele>
        <time>1970-01-01T00:05:04Z</time>
      </trkpt>
      <trkpt lat="42.79253" lon="3.02895">
        <ele>2.4</ele>
        <time>1970-01-01T00:05:05Z</time>
      </trkpt>
      <trkpt lat="42.79252" lon="3.02891">
        <ele>2.4</ele>
        <time>1970-01-01T00:05:06Z</time>
      </trkpt>
      <trkpt lat="42.7925" lon="3.02887">
        <ele>2.6</ele>
        <time>1970-01-01T00:05:07Z</time>
      </trkpt>
      <trkpt lat="42.79248" lon="3.02883">
        <ele>2.6</ele>
        <time>1970-01-01T00:05:08Z</time>
      </trkpt>
      <trkpt lat="42.79246" lon="3.02879">
        <ele>2.6</ele>
        <time>1970-01-01T00:05:09Z</time>
      </trkpt>
      <trkpt lat="42.79244" lon="3.02875">
        <ele>2.6</ele>
        <time>1970-01-01T00:05:10Z</time>
      </trkpt>
      <trkpt lat="42.79242" lon="3.0287">
        <ele>2.6</ele>
        <time>1970-01-01T00:05:11Z</time>
      </trkpt>
      <trkpt lat="42.7924" lon="3.02866">
        <ele>2.6</ele>
        <time>1970-01-01T00:05:12Z</time>
      </trkpt>
      <trkpt lat="42.79238" lon="3.02862">
        <ele>2.6</ele>
        <time>1970-01-01T00:05:13Z</time>
      </trkpt>
      <trkpt lat="42.79236" lon="3.02857">
        <ele>2.6</ele>
        <time>1970-01-01T00:05:14Z</time>
      </trkpt>
      <trkpt lat="42.79234" lon="3.02853">
        <ele>2.6</ele>
        <time>1970-01-01T00:05:15Z</time>
      </trkpt>
      <trkpt lat="42.79233" lon="3.02849">
        <ele>2.6</ele>
        <time>1970-01-01T00:05:16Z</time>
      </trkpt>
      <trkpt lat="42.79233" lon="3.02844">
        <ele>2.6</ele>
        <time>1970-01-01T00:05:17Z</time>
      </trkpt>
      <trkpt lat="42.79233" lon="3.02839">
        <ele>2.8</ele>
        <time>1970-01-01T00:05:18Z</time>
      </trkpt>
      <trkpt lat="42.79233" lon="3.02834">
        <ele>2.8</ele>
        <time>1970-01-01T00:05:19Z</time>
      </trkpt>
      <trkpt lat="42.79233" lon="3.02829">
        <ele>2.8</ele>
        <time>1970-01-01T00:05:20Z</time>
      </trkpt>
      <trkpt lat="42.79232" lon="3.02824">
        <ele>2.8</ele>
        <time>1970-01-01T00:05:21Z</time>
      </trkpt>
      <trkpt lat="42.79231" lon="3.02819">
        <ele>3</ele>
        <time>1970-01-01T00:05:22Z</time>
      </trkpt>
      <trkpt lat="42.79229" lon="3.02814">
        <ele>3</ele>
        <time>1970-01-01T00:05:23Z</time>
      </trkpt>
      <trkpt lat="42.79229" lon="3.02808">
        <ele>3.2</ele>
        <time>1970-01-01T00:05:24Z</time>
      </trkpt>
      <trkpt lat="42.79229" lon="3.02803">
        <ele>3.2</ele>
        <time>1970-01-01T00:05:25Z</time>
      </trkpt>
      <trkpt lat="42.7923" lon="3.02799">
        <ele>3.2</ele>
        <time>1970-01-01T00:05:26Z</time>
      </trkpt>
      <trkpt lat="42.79231" lon="3.02794">
        <ele>3.4</ele>
        <time>1970-01-01T00:05:27Z</time>
      </trkpt>
      <trkpt lat="42.79232" lon="3.02789">
        <ele>3.4</ele>
        <time>1970-01-01T00:05:28Z</time>
      </trkpt>
      <trkpt lat="42.79233" lon="3.02784">
        <ele>3.6</ele>
        <time>1970-01-01T00:05:29Z</time>
      </trkpt>
      <trkpt lat="42.79234" lon="3.02779">
        <ele>3.8</ele>
        <time>1970-01-01T00:05:30Z</time>
      </trkpt>
      <trkpt lat="42.79236" lon="3.02774">
        <ele>3.8</ele>
        <time>1970-01-01T00:05:31Z</time>
      </trkpt>
      <trkpt lat="42.79237" lon="3.02769">
        <ele>4</ele>
        <time>1970-01-01T00:05:32Z</time>
      </trkpt>
      <trkpt lat="42.79238" lon="3.02764">
        <ele>4</ele>
        <time>1970-01-01T00:05:33Z</time>
      </trkpt>
      <trkpt lat="42.79239" lon="3.02759">
        <ele>4.2</ele>
        <time>1970-01-01T00:05:34Z</time>
      </trkpt>
      <trkpt lat="42.7924" lon="3.02755">
        <ele>4.4</ele>
        <time>1970-01-01T00:05:35Z</time>
      </trkpt>
      <trkpt lat="42.7924" lon="3.0275">
        <ele>4.4</ele>
        <time>1970-01-01T00:05:36Z</time>
      </trkpt>
      <trkpt lat="42.79241" lon="3.02745">
        <ele>4.6</ele>
        <time>1970-01-01T00:05:37Z</time>
      </trkpt>
      <trkpt lat="42.79243" lon="3.0274">
        <ele>4.8</ele>
        <time>1970-01-01T00:05:38Z</time>
      </trkpt>
      <trkpt lat="42.79244" lon="3.02735">
        <ele>4.8</ele>
        <time>1970-01-01T00:05:39Z</time>
      </trkpt>
      <trkpt lat="42.79245" lon="3.0273">
        <ele>5</ele>
        <time>1970-01-01T00:05:40Z</time>
      </trkpt>
      <trkpt lat="42.79246" lon="3.02726">
        <ele>5.2</ele>
        <time>1970-01-01T00:05:41Z</time>
      </trkpt>
      <trkpt lat="42.79247" lon="3.02721">
        <ele>5.4</ele>
        <time>1970-01-01T00:05:42Z</time>
      </trkpt>
      <trkpt lat="42.79248" lon="3.02716">
        <ele>5.4</ele>
        <time>1970-01-01T00:05:43Z</time>
      </trkpt>
      <trkpt lat="42.79249" lon="3.02711">
        <ele>5.6</ele>
        <time>1970-01-01T00:05:44Z</time>
      </trkpt>
      <trkpt lat="42.7925" lon="3.02706">
        <ele>5.8</ele>
        <time>1970-01-01T00:05:45Z</time>
      </trkpt>
      <trkpt lat="42.79251" lon="3.02701">
        <ele>6</ele>
        <time>1970-01-01T00:05:46Z</time>
      </trkpt>
      <trkpt lat="42.79252" lon="3.02695">
        <ele>6.2</ele>
        <time>1970-01-01T00:05:47Z</time>
      </trkpt>
      <trkpt lat="42.79253" lon="3.02691">
        <ele>6.4</ele>
        <time>1970-01-01T00:05:48Z</time>
      </trkpt>
      <trkpt lat="42.79254" lon="3.02685">
        <ele>6.6</ele>
        <time>1970-01-01T00:05:49Z</time>
      </trkpt>
      <trkpt lat="42.79255" lon="3.0268">
        <ele>6.6</ele>
        <time>1970-01-01T00:05:50Z</time>
      </trkpt>
      <trkpt lat="42.79256" lon="3.02675">
        <ele>6.8</ele>
        <time>1970-01-01T00:05:51Z</time>
      </trkpt>
      <trkpt lat="42.79257" lon="3.0267">
        <ele>7</ele>
        <time>1970-01-01T00:05:52Z</time>
      </trkpt>
      <trkpt lat="42.79258" lon="3.02665">
        <ele>7.2</ele>
        <time>1970-01-01T00:05:53Z</time>
      </trkpt>
      <trkpt lat="42.79259" lon="3.02659">
        <ele>7.2</ele>
        <time>1970-01-01T00:05:54Z</time>
      </trkpt>
      <trkpt lat="42.79261" lon="3.02654">
        <ele>7.4</ele>
        <time>1970-01-01T00:05:55Z</time>
      </trkpt>
      <trkpt lat="42.79262" lon="3.02649">
        <ele>7.4</ele>
        <time>1970-01-01T00:05:56Z</time>
      </trkpt>
      <trkpt lat="42.79263" lon="3.02643">
        <ele>7.6</ele>
        <time>1970-01-01T00:05:57Z</time>
      </trkpt>
      <trkpt lat="42.79264" lon="3.02638">
        <ele>7.6</ele>
        <time>1970-01-01T00:05:58Z</time>
      </trkpt>
      <trkpt lat="42.79265" lon="3.02633">
        <ele>7.6</ele>
        <time>1970-01-01T00:05:59Z</time>
      </trkpt>
      <trkpt lat="42.79267" lon="3.02627">
        <ele>7.6</ele>
        <time>1970-01-01T00:06:00Z</time>
      </trkpt>
      <trkpt lat="42.79268" lon="3.02622">
        <ele>7.6</ele>
        <time>1970-01-01T00:06:01Z</time>
      </trkpt>
      <trkpt lat="42.79269" lon="3.02616">
        <ele>7.8</ele>
        <time>1970-01-01T00:06:02Z</time>
      </trkpt>
      <trkpt lat="42.7927" lon="3.0261">
        <ele>7.8</ele>
        <time>1970-01-01T00:06:03Z</time>
      </trkpt>
      <trkpt lat="42.79272" lon="3.02605">
        <ele>7.8</ele>
        <time>1970-01-01T00:06:04Z</time>
      </trkpt>
      <trkpt lat="42.79273" lon="3.02599">
        <ele>7.8</ele>
        <time>1970-01-01T00:06:05Z</time>
      </trkpt>
      <trkpt lat="42.79274" lon="3.02593">
        <ele>7.8</ele>
        <time>1970-01-01T00:06:06Z</time>
      </trkpt>
      <trkpt lat="42.79276" lon="3.02588">
        <ele>7.8</ele>
        <time>1970-01-01T00:06:07Z</time>
      </trkpt>
      <trkpt lat="42.79277" lon="3.02582">
        <ele>8</ele>
        <time>1970-01-01T00:06:08Z</time>
      </trkpt>
      <trkpt lat="42.79278" lon="3.02576">
        <ele>8</ele>
        <time>1970-01-01T00:06:09Z</time>
      </trkpt>
      <trkpt lat="42.7928" lon="3.0257">
        <ele>8</ele>
        <time>1970-01-01T00:06:10Z</time>
      </trkpt>
      <trkpt lat="42.79281" lon="3.02565">
        <ele>8.2</ele>
        <time>1970-01-01T00:06:11Z</time>
      </trkpt>
      <trkpt lat="42.79282" lon="3.02559">
        <ele>8.2</ele>
        <time>1970-01-01T00:06:12Z</time>
      </trkpt>
      <trkpt lat="42.79284" lon="3.02553">
        <ele>8.2</ele>
        <time>1970-01-01T00:06:13Z</time>
      </trkpt>
      <trkpt lat="42.79285" lon="3.02547">
        <ele>8.2</ele>
        <time>1970-01-01T00:06:14Z</time>
      </trkpt>
      <trkpt lat="42.79286" lon="3.02541">
        <ele>8.4</ele>
        <time>1970-01-01T00:06:15Z</time>
      </trkpt>
      <trkpt lat="42.79288" lon="3.02535">
        <ele>8.4</ele>
        <time>1970-01-01T00:06:16Z</time>
      </trkpt>
      <trkpt lat="42.79289" lon="3.02529">
        <ele>8.4</ele>
        <time>1970-01-01T00:06:17Z</time>
      </trkpt>
      <trkpt lat="42.79291" lon="3.02523">
        <ele>8.4</ele>
        <time>1970-01-01T00:06:18Z</time>
      </trkpt>
      <trkpt lat="42.79292" lon="3.02517">
        <ele>8.4</ele>
        <time>1970-01-01T00:06:19Z</time>
      </trkpt>
      <trkpt lat="42.79293" lon="3.02511">
        <ele>8.4</ele>
        <time>1970-01-01T00:06:20Z</time>
      </trkpt>
      <trkpt lat="42.79295" lon="3.02505">
        <ele>8.6</ele>
        <time>1970-01-01T00:06:21Z</time>
      </trkpt>
      <trkpt lat="42.79296" lon="3.02499">
        <ele>8.6</ele>
        <time>1970-01-01T00:06:22Z</time>
      </trkpt>
      <trkpt lat="42.79297" lon="3.02493">
        <ele>8.6</ele>
        <time>1970-01-01T00:06:23Z</time>
      </trkpt>
      <trkpt lat="42.79299" lon="3.02486">
        <ele>8.6</ele>
        <time>1970-01-01T00:06:24Z</time>
      </trkpt>
      <trkpt lat="42.793" lon="3.0248">
        <ele>8.6</ele>
        <time>1970-01-01T00:06:25Z</time>
      </trkpt>
      <trkpt lat="42.79302" lon="3.02474">
        <ele>8.6</ele>
        <time>1970-01-01T00:06:26Z</time>
      </trkpt>
      <trkpt lat="42.79303" lon="3.02468">
        <ele>8.6</ele>
        <time>1970-01-01T00:06:27Z</time>
      </trkpt>
      <trkpt lat="42.79306" lon="3.02462">
        <ele>8.6</ele>
        <time>1970-01-01T00:06:28Z</time>
      </trkpt>
      <trkpt lat="42.79309" lon="3.02457">
        <ele>8.6</ele>
        <time>1970-01-01T00:06:29Z</time>
      </trkpt>
      <trkpt lat="42.79313" lon="3.02454">
        <ele>8.4</ele>
        <time>1970-01-01T00:06:30Z</time>
      </trkpt>
      <trkpt lat="42.79316" lon="3.0245">
        <ele>8.4</ele>
        <time>1970-01-01T00:06:31Z</time>
      </trkpt>
      <trkpt lat="42.79318" lon="3.02444">
        <ele>8.4</ele>
        <time>1970-01-01T00:06:32Z</time>
      </trkpt>
      <trkpt lat="42.79319" lon="3.02438">
        <ele>8.4</ele>
        <time>1970-01-01T00:06:33Z</time>
      </trkpt>
      <trkpt lat="42.79318" lon="3.02431">
        <ele>8.4</ele>
        <time>1970-01-01T00:06:34Z</time>
      </trkpt>
      <trkpt lat="42.79316" lon="3.02425">
        <ele>8.2</ele>
        <time>1970-01-01T00:06:35Z</time>
      </trkpt>
      <trkpt lat="42.79315" lon="3.02419">
        <ele>8.2</ele>
        <time>1970-01-01T00:06:36Z</time>
      </trkpt>
      <trkpt lat="42.79315" lon="3.02414">
        <ele>8</ele>
        <time>1970-01-01T00:06:37Z</time>
      </trkpt>
      <trkpt lat="42.79315" lon="3.02408">
        <ele>8</ele>
        <time>1970-01-01T00:06:38Z</time>
      </trkpt>
      <trkpt lat="42.79316" lon="3.02402">
        <ele>7.8</ele>
        <time>1970-01-01T00:06:39Z</time>
      </trkpt>
      <trkpt lat="42.79317" lon="3.02396">
        <ele>7.6</ele>
        <time>1970-01-01T00:06:40Z</time>
      </trkpt>
      <trkpt lat="42.79318" lon="3.02391">
        <ele>7.6</ele>
        <time>1970-01-01T00:06:41Z</time>
      </trkpt>
      <trkpt lat="42.7932" lon="3.02385">
        <ele>7.4</ele>
        <time>1970-01-01T00:06:42Z</time>
      </trkpt>
      <trkpt lat="42.79321" lon="3.02379">
        <ele>7.2</ele>
        <time>1970-01-01T00:06:43Z</time>
      </trkpt>
      <trkpt lat="42.79323" lon="3.02373">
        <ele>7</ele>
        <time>1970-01-01T00:06:44Z</time>
      </trkpt>
      <trkpt lat="42.79324" lon="3.02366">
        <ele>6.8</ele>
        <time>1970-01-01T00:06:45Z</time>
      </trkpt>
      <trkpt lat="42.79325" lon="3.0236">
        <ele>6.8</ele>
        <time>1970-01-01T00:06:46Z</time>
      </trkpt>
      <trkpt lat="42.79327" lon="3.02354">
        <ele>6.6</ele>
        <time>1970-01-01T00:06:47Z</time>
      </trkpt>
      <trkpt lat="42.79328" lon="3.02347">
        <ele>6.4</ele>
        <time>1970-01-01T00:06:48Z</time>
      </trkpt>
      <trkpt lat="42.7933" lon="3.02341">
        <ele>6.2</ele>
        <time>1970-01-01T00:06:49Z</time>
      </trkpt>
      <trkpt lat="42.79331" lon="3.02334">
        <ele>6</ele>
        <time>1970-01-01T00:06:50Z</time>
      </trkpt>
      <trkpt lat="42.79333" lon="3.02328">
        <ele>5.8</ele>
        <time>1970-01-01T00:06:51Z</time>
      </trkpt>
      <trkpt lat="42.79334" lon="3.02321">
        <ele>5.6</ele>
        <time>1970-01-01T00:06:52Z</time>
      </trkpt>
      <trkpt lat="42.79336" lon="3.02314">
        <ele>5.4</ele>
        <time>1970-01-01T00:06:53Z</time>
      </trkpt>
      <trkpt lat="42.79337" lon="3.02307">
        <ele>5.2</ele>
        <time>1970-01-01T00:06:54Z</time>
      </trkpt>
      <trkpt lat="42.79339" lon="3.023">
        <ele>5</ele>
        <time>1970-01-01T00:06:55Z</time>
      </trkpt>
      <trkpt lat="42.79341" lon="3.02292">
        <ele>4.8</ele>
        <time>1970-01-01T00:06:56Z</time>
      </trkpt>
      <trkpt lat="42.79343" lon="3.02284">
        <ele>4.6</ele>
        <time>1970-01-01T00:06:57Z</time>
      </trkpt>
      <trkpt lat="42.79344" lon="3.02276">
        <ele>4.2</ele>
        <time>1970-01-01T00:06:58Z</time>
      </trkpt>
      <trkpt lat="42.79346" lon="3.02267">
        <ele>4</ele>
        <time>1970-01-01T00:06:59Z</time>
      </trkpt>
      <trkpt lat="42.79348" lon="3.02258">
        <ele>3.8</ele>
        <time>1970-01-01T00:07:00Z</time>
      </trkpt>
      <trkpt lat="42.7935" lon="3.02249">
        <ele>3.4</ele>
        <time>1970-01-01T00:07:01Z</time>
      </trkpt>
      <trkpt lat="42.79352" lon="3.0224">
        <ele>3.2</ele>
        <time>1970-01-01T00:07:02Z</time>
      </trkpt>
      <trkpt lat="42.79354" lon="3.02231">
        <ele>3.2</ele>
        <time>1970-01-01T00:07:03Z</time>
      </trkpt>
      <trkpt lat="42.79357" lon="3.02222">
        <ele>3</ele>
        <time>1970-01-01T00:07:04Z</time>
      </trkpt>
      <trkpt lat="42.79359" lon="3.02213">
        <ele>3</ele>
        <time>1970-01-01T00:07:05Z</time>
      </trkpt>
      <trkpt lat="42.79361" lon="3.02204">
        <ele>3</ele>
        <time>1970-01-01T00:07:06Z</time>
      </trkpt>
      <trkpt lat="42.79363" lon="3.02196">
        <ele>2.8</ele>
        <time>1970-01-01T00:07:07Z</time>
      </trkpt>
      <trkpt lat="42.79365" lon="3.02187">
        <ele>2.8</ele>
        <time>1970-01-01T00:07:08Z</time>
      </trkpt>
      <trkpt lat="42.79367" lon="3.02179">
        <ele>2.6</ele>
        <time>1970-01-01T00:07:09Z</time>
      </trkpt>
      <trkpt lat="42.79368" lon="3.02171">
        <ele>2.6</ele>
        <time>1970-01-01T00:07:10Z</time>
      </trkpt>
      <trkpt lat="42.7937" lon="3.02163">
        <ele>2.6</ele>
        <time>1970-01-01T00:07:11Z</time>
      </trkpt>
      <trkpt lat="42.79372" lon="3.02156">
        <ele>2.6</ele>
        <time>1970-01-01T00:07:12Z</time>
      </trkpt>
      <trkpt lat="42.79373" lon="3.02148">
        <ele>2.6</ele>
        <time>1970-01-01T00:07:13Z</time>
      </trkpt>
      <trkpt lat="42.79375" lon="3.02141">
        <ele>2.4</ele>
        <time>1970-01-01T00:07:14Z</time>
      </trkpt>
      <trkpt lat="42.79377" lon="3.02134">
        <ele>2.4</ele>
        <time>1970-01-01T00:07:15Z</time>
      </trkpt>
      <trkpt lat="42.79379" lon="3.02127">
        <ele>2.4</ele>
        <time>1970-01-01T00:07:16Z</time>
      </trkpt>
      <trkpt lat="42.7938" lon="3.0212">
        <ele>2.4</ele>
        <time>1970-01-01T00:07:17Z</time>
      </trkpt>
      <trkpt lat="42.79381" lon="3.02113">
        <ele>2.4</ele>
        <time>1970-01-01T00:07:18Z</time>
      </trkpt>
      <trkpt lat="42.79383" lon="3.02107">
        <ele>2.4</ele>
        <time>1970-01-01T00:07:19Z</time>
      </trkpt>
      <trkpt lat="42.79384" lon="3.021">
        <ele>2.4</ele>
        <time>1970-01-01T00:07:20Z</time>
      </trkpt>
      <trkpt lat="42.79386" lon="3.02094">
        <ele>2.4</ele>
        <time>1970-01-01T00:07:21Z</time>
      </trkpt>
      <trkpt lat="42.79387" lon="3.02087">
        <ele>2.4</ele>
        <time>1970-01-01T00:07:22Z</time>
      </trkpt>
      <trkpt lat="42.79389" lon="3.02081">
        <ele>2.4</ele>
        <time>1970-01-01T00:07:23Z</time>
      </trkpt>
      <trkpt lat="42.7939" lon="3.02075">
        <ele>2.4</ele>
        <time>1970-01-01T00:07:24Z</time>
      </trkpt>
      <trkpt lat="42.79392" lon="3.02068">
        <ele>2.4</ele>
        <time>1970-01-01T00:07:25Z</time>
      </trkpt>
      <trkpt lat="42.79393" lon="3.02062">
        <ele>2.4</ele>
        <time>1970-01-01T00:07:26Z</time>
      </trkpt>
      <trkpt lat="42.79394" lon="3.02056">
        <ele>2.4</ele>
        <time>1970-01-01T00:07:27Z</time>
      </trkpt>
      <trkpt lat="42.79396" lon="3.0205">
        <ele>2.4</ele>
        <time>1970-01-01T00:07:28Z</time>
      </trkpt>
      <trkpt lat="42.79397" lon="3.02044">
        <ele>2.4</ele>
        <time>1970-01-01T00:07:29Z</time>
      </trkpt>
      <trkpt lat="42.79398" lon="3.02038">
        <ele>2.4</ele>
        <time>1970-01-01T00:07:30Z</time>
      </trkpt>
      <trkpt lat="42.794" lon="3.02032">
        <ele>2.4</ele>
        <time>1970-01-01T00:07:31Z</time>
      </trkpt>
      <trkpt lat="42.79401" lon="3.02025">
        <ele>2.4</ele>
        <time>1970-01-01T00:07:32Z</time>
      </trkpt>
      <trkpt lat="42.79403" lon="3.02019">
        <ele>2.4</ele>
        <time>1970-01-01T00:07:33Z</time>
      </trkpt>
      <trkpt lat="42.79404" lon="3.02013">
        <ele>2.4</ele>
        <time>1970-01-01T00:07:34Z</time>
      </trkpt>
      <trkpt lat="42.79406" lon="3.02007">
        <ele>2.4</ele>
        <time>1970-01-01T00:07:35Z</time>
      </trkpt>
      <trkpt lat="42.79407" lon="3.02001">
        <ele>2.4</ele>
        <time>1970-01-01T00:07:36Z</time>
      </trkpt>
      <trkpt lat="42.79408" lon="3.01994">
        <ele>2.4</ele>
        <time>1970-01-01T00:07:37Z</time>
      </trkpt>
      <trkpt lat="42.7941" lon="3.01988">
        <ele>2.4</ele>
        <time>1970-01-01T00:07:38Z</time>
      </trkpt>
      <trkpt lat="42.79411" lon="3.01982">
        <ele>2.4</ele>
        <time>1970-01-01T00:07:39Z</time>
      </trkpt>
      <trkpt lat="42.79414" lon="3.01976">
        <ele>2.4</ele>
        <time>1970-01-01T00:07:40Z</time>
      </trkpt>
      <trkpt lat="42.79417" lon="3.01971">
        <ele>2.4</ele>
        <time>1970-01-01T00:07:41Z</time>
      </trkpt>
      <trkpt lat="42.7942" lon="3.01967">
        <ele>2.4</ele>
        <time>1970-01-01T00:07:42Z</time>
      </trkpt>
      <trkpt lat="42.79424" lon="3.01963">
        <ele>2.2</ele>
        <time>1970-01-01T00:07:43Z</time>
      </trkpt>
      <trkpt lat="42.79429" lon="3.01961">
        <ele>2.2</ele>
        <time>1970-01-01T00:07:44Z</time>
      </trkpt>
      <trkpt lat="42.79433" lon="3.01959">
        <ele>2.2</ele>
        <time>1970-01-01T00:07:45Z</time>
      </trkpt>
      <trkpt lat="42.79437" lon="3.01957">
        <ele>2.2</ele>
        <time>1970-01-01T00:07:46Z</time>
      </trkpt>
      <trkpt lat="42.79442" lon="3.01955">
        <ele>2.2</ele>
        <time>1970-01-01T00:07:47Z</time>
      </trkpt>
      <trkpt lat="42.79446" lon="3.01953">
        <ele>2.2</ele>
        <time>1970-01-01T00:07:48Z</time>
      </trkpt>
      <trkpt lat="42.7945" lon="3.01951">
        <ele>2.2</ele>
        <time>1970-01-01T00:07:49Z</time>
      </trkpt>
      <trkpt lat="42.79454" lon="3.01949">
        <ele>2.2</ele>
        <time>1970-01-01T00:07:50Z</time>
      </trkpt>
      <trkpt lat="42.79458" lon="3.01947">
        <ele>2.2</ele>
        <time>1970-01-01T00:07:51Z</time>
      </trkpt>
      <trkpt lat="42.79462" lon="3.01946">
        <ele>2.2</ele>
        <time>1970-01-01T00:07:52Z</time>
      </trkpt>
      <trkpt lat="42.79466" lon="3.01944">
        <ele>2.2</ele>
        <time>1970-01-01T00:07:53Z</time>
      </trkpt>
      <trkpt lat="42.7947" lon="3.01942">
        <ele>2.2</ele>
        <time>1970-01-01T00:07:54Z</time>
      </trkpt>
      <trkpt lat="42.79475" lon="3.0194">
        <ele>2.2</ele>
        <time>1970-01-01T00:07:55Z</time>
      </trkpt>
      <trkpt lat="42.79479" lon="3.01939">
        <ele>2.2</ele>
        <time>1970-01-01T00:07:56Z</time>
      </trkpt>
      <trkpt lat="42.79483" lon="3.01937">
        <ele>2.2</ele>
        <time>1970-01-01T00:07:57Z</time>
      </trkpt>
      <trkpt lat="42.79487" lon="3.01935">
        <ele>2.2</ele>
        <time>1970-01-01T00:07:58Z</time>
      </trkpt>
      <trkpt lat="42.79491" lon="3.01933">
        <ele>2.2</ele>
        <time>1970-01-01T00:07:59Z</time>
      </trkpt>
      <trkpt lat="42.79496" lon="3.01931">
        <ele>2.2</ele>
        <time>1970-01-01T00:08:00Z</time>
      </trkpt>
      <trkpt lat="42.795" lon="3.01929">
        <ele>2.2</ele>
        <time>1970-01-01T00:08:01Z</time>
      </trkpt>
      <trkpt lat="42.79504" lon="3.01927">
        <ele>2.2</ele>
        <time>1970-01-01T00:08:02Z</time>
      </trkpt>
      <trkpt lat="42.79509" lon="3.01925">
        <ele>2.2</ele>
        <time>1970-01-01T00:08:03Z</time>
      </trkpt>
      <trkpt lat="42.79513" lon="3.01924">
        <ele>2.2</ele>
        <time>1970-01-01T00:08:04Z</time>
      </trkpt>
      <trkpt lat="42.79518" lon="3.01922">
        <ele>2.2</ele>
        <time>1970-01-01T00:08:05Z</time>
      </trkpt>
      <trkpt lat="42.79522" lon="3.0192">
        <ele>2.2</ele>
        <time>1970-01-01T00:08:06Z</time>
      </trkpt>
      <trkpt lat="42.79526" lon="3.01918">
        <ele>2.2</ele>
        <time>1970-01-01T00:08:07Z</time>
      </trkpt>
      <trkpt lat="42.7953" lon="3.01916">
        <ele>2.2</ele>
        <time>1970-01-01T00:08:08Z</time>
      </trkpt>
      <trkpt lat="42.79534" lon="3.01914">
        <ele>2.2</ele>
        <time>1970-01-01T00:08:09Z</time>
      </trkpt>
      <trkpt lat="42.79538" lon="3.01912">
        <ele>2.2</ele>
        <time>1970-01-01T00:08:10Z</time>
      </trkpt>
      <trkpt lat="42.79543" lon="3.0191">
        <ele>2.2</ele>
        <time>1970-01-01T00:08:11Z</time>
      </trkpt>
      <trkpt lat="42.79547" lon="3.01908">
        <ele>2.2</ele>
        <time>1970-01-01T00:08:12Z</time>
      </trkpt>
      <trkpt lat="42.79551" lon="3.01907">
        <ele>2.2</ele>
        <time>1970-01-01T00:08:13Z</time>
      </trkpt>
      <trkpt lat="42.79555" lon="3.01905">
        <ele>2.2</ele>
        <time>1970-01-01T00:08:14Z</time>
      </trkpt>
      <trkpt lat="42.79559" lon="3.01903">
        <ele>2.2</ele>
        <time>1970-01-01T00:08:15Z</time>
      </trkpt>
      <trkpt lat="42.79563" lon="3.01901">
        <ele>2.2</ele>
        <time>1970-01-01T00:08:16Z</time>
      </trkpt>
      <trkpt lat="42.79568" lon="3.01899">
        <ele>2.2</ele>
        <time>1970-01-01T00:08:17Z</time>
      </trkpt>
      <trkpt lat="42.79572" lon="3.01897">
        <ele>2.2</ele>
        <time>1970-01-01T00:08:18Z</time>
      </trkpt>
      <trkpt lat="42.79576" lon="3.01895">
        <ele>2.2</ele>
        <time>1970-01-01T00:08:19Z</time>
      </trkpt>
      <trkpt lat="42.7958" lon="3.01894">
        <ele>2</ele>
        <time>1970-01-01T00:08:20Z</time>
      </trkpt>
      <trkpt lat="42.79585" lon="3.01892">
        <ele>2</ele>
        <time>1970-01-01T00:08:21Z</time>
      </trkpt>
      <trkpt lat="42.79589" lon="3.0189">
        <ele>2</ele>
        <time>1970-01-01T00:08:22Z</time>
      </trkpt>
      <trkpt lat="42.79593" lon="3.01888">
        <ele>2</ele>
        <time>1970-01-01T00:08:23Z</time>
      </trkpt>
      <trkpt lat="42.79598" lon="3.01886">
        <ele>2</ele>
        <time>1970-01-01T00:08:24Z</time>
      </trkpt>
      <trkpt lat="42.79602" lon="3.01884">
        <ele>2</ele>
        <time>1970-01-01T00:08:25Z</time>
      </trkpt>
      <trkpt lat="42.79606" lon="3.01882">
        <ele>2</ele>
        <time>1970-01-01T00:08:26Z</time>
      </trkpt>
      <trkpt lat="42.79611" lon="3.0188">
        <ele>2</ele>
        <time>1970-01-01T00:08:27Z</time>
      </trkpt>
      <trkpt lat="42.79615" lon="3.01878">
        <ele>2</ele>
        <time>1970-01-01T00:08:28Z</time>
      </trkpt>
      <trkpt lat="42.79619" lon="3.01876">
        <ele>2</ele>
        <time>1970-01-01T00:08:29Z</time>
      </trkpt>
      <trkpt lat="42.79624" lon="3.01875">
        <ele>2</ele>
        <time>1970-01-01T00:08:30Z</time>
      </trkpt>
      <trkpt lat="42.79628" lon="3.01873">
        <ele>2</ele>
        <time>1970-01-01T00:08:31Z</time>
      </trkpt>
      <trkpt lat="42.79632" lon="3.0187">
        <ele>2</ele>
        <time>1970-01-01T00:08:32Z</time>
      </trkpt>
      <trkpt lat="42.79637" lon="3.01868">
        <ele>2</ele>
        <time>1970-01-01T00:08:33Z</time>
      </trkpt>
      <trkpt lat="42.79641" lon="3.01867">
        <ele>2</ele>
        <time>1970-01-01T00:08:34Z</time>
      </trkpt>
      <trkpt lat="42.79645" lon="3.01865">
        <ele>2</ele>
        <time>1970-01-01T00:08:35Z</time>
      </trkpt>
      <trkpt lat="42.79649" lon="3.01863">
        <ele>2</ele>
        <time>1970-01-01T00:08:36Z</time>
      </trkpt>
      <trkpt lat="42.79653" lon="3.01862">
        <ele>2</ele>
        <time>1970-01-01T00:08:37Z</time>
      </trkpt>
      <trkpt lat="42.79657" lon="3.0186">
        <ele>2</ele>
        <time>1970-01-01T00:08:38Z</time>
      </trkpt>
      <trkpt lat="42.79661" lon="3.01858">
        <ele>2</ele>
        <time>1970-01-01T00:08:39Z</time>
      </trkpt>
      <trkpt lat="42.79665" lon="3.01856">
        <ele>2</ele>
        <time>1970-01-01T00:08:40Z</time>
      </trkpt>
      <trkpt lat="42.79669" lon="3.01854">
        <ele>2</ele>
        <time>1970-01-01T00:08:41Z</time>
      </trkpt>
      <trkpt lat="42.79673" lon="3.01853">
        <ele>2</ele>
        <time>1970-01-01T00:08:42Z</time>
      </trkpt>
      <trkpt lat="42.79677" lon="3.01851">
        <ele>2</ele>
        <time>1970-01-01T00:08:43Z</time>
      </trkpt>
      <trkpt lat="42.79681" lon="3.01849">
        <ele>2</ele>
        <time>1970-01-01T00:08:44Z</time>
      </trkpt>
      <trkpt lat="42.79685" lon="3.01847">
        <ele>2</ele>
        <time>1970-01-01T00:08:45Z</time>
      </trkpt>
      <trkpt lat="42.79689" lon="3.01845">
        <ele>2</ele>
        <time>1970-01-01T00:08:46Z</time>
      </trkpt>
      <trkpt lat="42.79693" lon="3.01843">
        <ele>2</ele>
        <time>1970-01-01T00:08:47Z</time>
      </trkpt>
      <trkpt lat="42.79697" lon="3.01841">
        <ele>2</ele>
        <time>1970-01-01T00:08:48Z</time>
      </trkpt>
      <trkpt lat="42.79701" lon="3.01839">
        <ele>2</ele>
        <time>1970-01-01T00:08:49Z</time>
      </trkpt>
      <trkpt lat="42.79705" lon="3.01838">
        <ele>2</ele>
        <time>1970-01-01T00:08:50Z</time>
      </trkpt>
      <trkpt lat="42.7971" lon="3.01836">
        <ele>2</ele>
        <time>1970-01-01T00:08:51Z</time>
      </trkpt>
      <trkpt lat="42.79714" lon="3.01834">
        <ele>2</ele>
        <time>1970-01-01T00:08:52Z</time>
      </trkpt>
      <trkpt lat="42.79718" lon="3.01832">
        <ele>2</ele>
        <time>1970-01-01T00:08:53Z</time>
      </trkpt>
      <trkpt lat="42.79722" lon="3.0183">
        <ele>2</ele>
        <time>1970-01-01T00:08:54Z</time>
      </trkpt>
      <trkpt lat="42.79726" lon="3.01829">
        <ele>2</ele>
        <time>1970-01-01T00:08:55Z</time>
      </trkpt>
      <trkpt lat="42.7973" lon="3.01827">
        <ele>2</ele>
        <time>1970-01-01T00:08:56Z</time>
      </trkpt>
      <trkpt lat="42.79734" lon="3.01825">
        <ele>2</ele>
        <time>1970-01-01T00:08:57Z</time>
      </trkpt>
      <trkpt lat="42.79739" lon="3.01823">
        <ele>2</ele>
        <time>1970-01-01T00:08:58Z</time>
      </trkpt>
      <trkpt lat="42.79743" lon="3.01822">
        <ele>2</ele>
        <time>1970-01-01T00:08:59Z</time>
      </trkpt>
      <trkpt lat="42.79747" lon="3.0182">
        <ele>2</ele>
        <time>1970-01-01T00:09:00Z</time>
      </trkpt>
      <trkpt lat="42.79751" lon="3.01818">
        <ele>2</ele>
        <time>1970-01-01T00:09:01Z</time>
      </trkpt>
      <trkpt lat="42.79755" lon="3.01816">
        <ele>2</ele>
        <time>1970-01-01T00:09:02Z</time>
      </trkpt>
      <trkpt lat="42.79759" lon="3.01814">
        <ele>2</ele>
        <time>1970-01-01T00:09:03Z</time>
      </trkpt>
      <trkpt lat="42.79763" lon="3.01812">
        <ele>2</ele>
        <time>1970-01-01T00:09:04Z</time>
      </trkpt>
      <trkpt lat="42.79767" lon="3.01811">
        <ele>2</ele>
        <time>1970-01-01T00:09:05Z</time>
      </trkpt>
      <trkpt lat="42.79771" lon="3.01809">
        <ele>2</ele>
        <time>1970-01-01T00:09:06Z</time>
      </trkpt>
      <trkpt lat="42.79775" lon="3.01807">
        <ele>2</ele>
        <time>1970-01-01T00:09:07Z</time>
      </trkpt>
      <trkpt lat="42.79779" lon="3.01805">
        <ele>2</ele>
        <time>1970-01-01T00:09:08Z</time>
      </trkpt>
      <trkpt lat="42.79783" lon="3.01803">
        <ele>2</ele>
        <time>1970-01-01T00:09:09Z</time>
      </trkpt>
      <trkpt lat="42.79787" lon="3.01801">
        <ele>2</ele>
        <time>1970-01-01T00:09:10Z</time>
      </trkpt>
      <trkpt lat="42.79791" lon="3.01799">
        <ele>2</ele>
        <time>1970-01-01T00:09:11Z</time>
      </trkpt>
      <trkpt lat="42.79795" lon="3.01798">
        <ele>2</ele>
        <time>1970-01-01T00:09:12Z</time>
      </trkpt>
      <trkpt lat="42.79799" lon="3.01796">
        <ele>2</ele>
        <time>1970-01-01T00:09:13Z</time>
      </trkpt>
      <trkpt lat="42.79803" lon="3.01794">
        <ele>2</ele>
        <time>1970-01-01T00:09:14Z</time>
      </trkpt>
      <trkpt lat="42.79807" lon="3.01793">
        <ele>2</ele>
        <time>1970-01-01T00:09:15Z</time>
      </trkpt>
      <trkpt lat="42.79811" lon="3.01791">
        <ele>2</ele>
        <time>1970-01-01T00:09:16Z</time>
      </trkpt>
      <trkpt lat="42.79815" lon="3.01789">
        <ele>2</ele>
        <time>1970-01-01T00:09:17Z</time>
      </trkpt>
      <trkpt lat="42.79819" lon="3.01787">
        <ele>2</ele>
        <time>1970-01-01T00:09:18Z</time>
      </trkpt>
      <trkpt lat="42.79823" lon="3.01785">
        <ele>2</ele>
        <time>1970-01-01T00:09:19Z</time>
      </trkpt>
      <trkpt lat="42.79828" lon="3.01783">
        <ele>2</ele>
        <time>1970-01-01T00:09:20Z</time>
      </trkpt>
      <trkpt lat="42.79832" lon="3.01782">
        <ele>2</ele>
        <time>1970-01-01T00:09:21Z</time>
      </trkpt>
      <trkpt lat="42.79836" lon="3.0178">
        <ele>2</ele>
        <time>1970-01-01T00:09:22Z</time>
      </trkpt>
      <trkpt lat="42.7984" lon="3.01778">
        <ele>2</ele>
        <time>1970-01-01T00:09:23Z</time>
      </trkpt>
      <trkpt lat="42.79844" lon="3.01776">
        <ele>2</ele>
        <time>1970-01-01T00:09:24Z</time>
      </trkpt>
      <trkpt lat="42.79848" lon="3.01774">
        <ele>2</ele>
        <time>1970-01-01T00:09:25Z</time>
      </trkpt>
      <trkpt lat="42.79852" lon="3.01772">
        <ele>2</ele>
        <time>1970-01-01T00:09:26Z</time>
      </trkpt>
      <trkpt lat="42.79856" lon="3.0177">
        <ele>2</ele>
        <time>1970-01-01T00:09:27Z</time>
      </trkpt>
      <trkpt lat="42.79861" lon="3.01768">
        <ele>2</ele>
        <time>1970-01-01T00:09:28Z</time>
      </trkpt>
      <trkpt lat="42.79865" lon="3.01766">
        <ele>2</ele>
        <time>1970-01-01T00:09:29Z</time>
      </trkpt>
      <trkpt lat="42.79869" lon="3.01764">
        <ele>2.2</ele>
        <time>1970-01-01T00:09:30Z</time>
      </trkpt>
      <trkpt lat="42.79873" lon="3.01762">
        <ele>2.2</ele>
        <time>1970-01-01T00:09:31Z</time>
      </trkpt>
      <trkpt lat="42.79878" lon="3.0176">
        <ele>2.2</ele>
        <time>1970-01-01T00:09:32Z</time>
      </trkpt>
      <trkpt lat="42.79882" lon="3.01758">
        <ele>2.2</ele>
        <time>1970-01-01T00:09:33Z</time>
      </trkpt>
      <trkpt lat="42.79886" lon="3.01755">
        <ele>2.2</ele>
        <time>1970-01-01T00:09:34Z</time>
      </trkpt>
      <trkpt lat="42.7989" lon="3.01752">
        <ele>2.2</ele>
        <time>1970-01-01T00:09:35Z</time>
      </trkpt>
      <trkpt lat="42.79893" lon="3.01749">
        <ele>2.2</ele>
        <time>1970-01-01T00:09:36Z</time>
      </trkpt>
      <trkpt lat="42.79896" lon="3.01745">
        <ele>2.2</ele>
        <time>1970-01-01T00:09:37Z</time>
      </trkpt>
      <trkpt lat="42.79899" lon="3.01741">
        <ele>2</ele>
        <time>1970-01-01T00:09:38Z</time>
      </trkpt>
      <trkpt lat="42.79903" lon="3.01738">
        <ele>2</ele>
        <time>1970-01-01T00:09:39Z</time>
      </trkpt>
      <trkpt lat="42.79906" lon="3.01734">
        <ele>2</ele>
        <time>1970-01-01T00:09:40Z</time>
      </trkpt>
      <trkpt lat="42.79909" lon="3.01731">
        <ele>1.8</ele>
        <time>1970-01-01T00:09:41Z</time>
      </trkpt>
      <trkpt lat="42.79912" lon="3.01727">
        <ele>1.8</ele>
        <time>1970-01-01T00:09:42Z</time>
      </trkpt>
      <trkpt lat="42.79916" lon="3.01724">
        <ele>1.8</ele>
        <time>1970-01-01T00:09:43Z</time>
      </trkpt>
      <trkpt lat="42.79919" lon="3.0172">
        <ele>1.8</ele>
        <time>1970-01-01T00:09:44Z</time>
      </trkpt>
      <trkpt lat="42.79923" lon="3.01715">
        <ele>1.6</ele>
        <time>1970-01-01T00:09:45Z</time>
      </trkpt>
      <trkpt lat="42.79926" lon="3.01711">
        <ele>1.6</ele>
        <time>1970-01-01T00:09:46Z</time>
      </trkpt>
      <trkpt lat="42.7993" lon="3.01707">
        <ele>1.6</ele>
        <time>1970-01-01T00:09:47Z</time>
      </trkpt>
      <trkpt lat="42.79933" lon="3.01703">
        <ele>1.6</ele>
        <time>1970-01-01T00:09:48Z</time>
      </trkpt>
      <trkpt lat="42.79937" lon="3.01699">
        <ele>1.6</ele>
        <time>1970-01-01T00:09:49Z</time>
      </trkpt>
      <trkpt lat="42.79941" lon="3.01696">
        <ele>1.6</ele>
        <time>1970-01-01T00:09:50Z</time>
      </trkpt>
      <trkpt lat="42.79944" lon="3.01691">
        <ele>1.6</ele>
        <time>1970-01-01T00:09:51Z</time>
      </trkpt>
      <trkpt lat="42.79947" lon="3.01687">
        <ele>1.6</ele>
        <time>1970-01-01T00:09:52Z</time>
      </trkpt>
      <trkpt lat="42.79951" lon="3.01683">
        <ele>1.6</ele>
        <time>1970-01-01T00:09:53Z</time>
      </trkpt>
      <trkpt lat="42.79955" lon="3.0168">
        <ele>1.6</ele>
        <time>1970-01-01T00:09:54Z</time>
      </trkpt>
      <trkpt lat="42.79958" lon="3.01676">
        <ele>1.6</ele>
        <time>1970-01-01T00:09:55Z</time>
      </trkpt>
      <trkpt lat="42.79962" lon="3.01673">
        <ele>1.6</ele>
        <time>1970-01-01T00:09:56Z</time>
      </trkpt>
      <trkpt lat="42.79965" lon="3.0167">
        <ele>1.6</ele>
        <time>1970-01-01T00:09:57Z</time>
      </trkpt>
      <trkpt lat="42.79969" lon="3.01666">
        <ele>1.6</ele>
        <time>1970-01-01T00:09:58Z</time>
      </trkpt>
      <trkpt lat="42.79972" lon="3.01662">
        <ele>1.6</ele>
        <time>1970-01-01T00:09:59Z</time>
      </trkpt>
      <trkpt lat="42.79976" lon="3.01659">
        <ele>1.6</ele>
        <time>1970-01-01T00:10:00Z</time>
      </trkpt>
      <trkpt lat="42.79979" lon="3.01655">
        <ele>1.6</ele>
        <time>1970-01-01T00:10:01Z</time>
      </trkpt>
      <trkpt lat="42.79983" lon="3.01651">
        <ele>1.6</ele>
        <time>1970-01-01T00:10:02Z</time>
      </trkpt>
      <trkpt lat="42.79986" lon="3.01647">
        <ele>1.6</ele>
        <time>1970-01-01T00:10:03Z</time>
      </trkpt>
      <trkpt lat="42.79989" lon="3.01642">
        <ele>1.6</ele>
        <time>1970-01-01T00:10:04Z</time>
      </trkpt>
      <trkpt lat="42.79993" lon="3.01638">
        <ele>1.4</ele>
        <time>1970-01-01T00:10:05Z</time>
      </trkpt>
      <trkpt lat="42.79996" lon="3.01635">
        <ele>1.4</ele>
        <time>1970-01-01T00:10:06Z</time>
      </trkpt>
      <trkpt lat="42.8" lon="3.01631">
        <ele>1.4</ele>
        <time>1970-01-01T00:10:07Z</time>
      </trkpt>
      <trkpt lat="42.80003" lon="3.01627">
        <ele>1.4</ele>
        <time>1970-01-01T00:10:08Z</time>
      </trkpt>
      <trkpt lat="42.80006" lon="3.01623">
        <ele>1.4</ele>
        <time>1970-01-01T00:10:09Z</time>
      </trkpt>
      <trkpt lat="42.8001" lon="3.01619">
        <ele>1.4</ele>
        <time>1970-01-01T00:10:10Z</time>
      </trkpt>
      <trkpt lat="42.80013" lon="3.01615">
        <ele>1.4</ele>
        <time>1970-01-01T00:10:11Z</time>
      </trkpt>
      <trkpt lat="42.80016" lon="3.01611">
        <ele>1.4</ele>
        <time>1970-01-01T00:10:12Z</time>
      </trkpt>
      <trkpt lat="42.8002" lon="3.01608">
        <ele>1.4</ele>
        <time>1970-01-01T00:10:13Z</time>
      </trkpt>
      <trkpt lat="42.80023" lon="3.01604">
        <ele>1.4</ele>
        <time>1970-01-01T00:10:14Z</time>
      </trkpt>
      <trkpt lat="42.80026" lon="3.01601">
        <ele>1.4</ele>
        <time>1970-01-01T00:10:15Z</time>
      </trkpt>
      <trkpt lat="42.80029" lon="3.01597">
        <ele>1.4</ele>
        <time>1970-01-01T00:10:16Z</time>
      </trkpt>
      <trkpt lat="42.80033" lon="3.01594">
        <ele>1.4</ele>
        <time>1970-01-01T00:10:17Z</time>
      </trkpt>
      <trkpt lat="42.80036" lon="3.0159">
        <ele>1.4</ele>
        <time>1970-01-01T00:10:18Z</time>
      </trkpt>
      <trkpt lat="42.80039" lon="3.01585">
        <ele>1.4</ele>
        <time>1970-01-01T00:10:19Z</time>
      </trkpt>
      <trkpt lat="42.80043" lon="3.01581">
        <ele>1.4</ele>
        <time>1970-01-01T00:10:20Z</time>
      </trkpt>
      <trkpt lat="42.80046" lon="3.01578">
        <ele>1.4</ele>
        <time>1970-01-01T00:10:21Z</time>
      </trkpt>
      <trkpt lat="42.8005" lon="3.01574">
        <ele>1.4</ele>
        <time>1970-01-01T00:10:22Z</time>
      </trkpt>
      <trkpt lat="42.80053" lon="3.0157">
        <ele>1.4</ele>
        <time>1970-01-01T00:10:23Z</time>
      </trkpt>
      <trkpt lat="42.80057" lon="3.01566">
        <ele>1.4</ele>
        <time>1970-01-01T00:10:24Z</time>
      </trkpt>
      <trkpt lat="42.80061" lon="3.01562">
        <ele>1.4</ele>
        <time>1970-01-01T00:10:25Z</time>
      </trkpt>
      <trkpt lat="42.80064" lon="3.01558">
        <ele>1.4</ele>
        <time>1970-01-01T00:10:26Z</time>
      </trkpt>
      <trkpt lat="42.80068" lon="3.01554">
        <ele>1.6</ele>
        <time>1970-01-01T00:10:27Z</time>
      </trkpt>
      <trkpt lat="42.80071" lon="3.01551">
        <ele>1.6</ele>
        <time>1970-01-01T00:10:28Z</time>
      </trkpt>
      <trkpt lat="42.80075" lon="3.01549">
        <ele>1.6</ele>
        <time>1970-01-01T00:10:29Z</time>
      </trkpt>
      <trkpt lat="42.80079" lon="3.01547">
        <ele>1.8</ele>
        <time>1970-01-01T00:10:30Z</time>
      </trkpt>
      <trkpt lat="42.80082" lon="3.01544">
        <ele>1.8</ele>
        <time>1970-01-01T00:10:31Z</time>
      </trkpt>
      <trkpt lat="42.80086" lon="3.01542">
        <ele>2</ele>
        <time>1970-01-01T00:10:32Z</time>
      </trkpt>
      <trkpt lat="42.80088" lon="3.01539">
        <ele>2.2</ele>
        <time>1970-01-01T00:10:33Z</time>
      </trkpt>
      <trkpt lat="42.80091" lon="3.01536">
        <ele>2.2</ele>
        <time>1970-01-01T00:10:34Z</time>
      </trkpt>
      <trkpt lat="42.80091" lon="3.0153">
        <ele>2.2</ele>
        <time>1970-01-01T00:10:35Z</time>
      </trkpt>
      <trkpt lat="42.8009" lon="3.01529">
        <ele>2.2</ele>
        <time>1970-01-01T00:10:36Z</time>
      </trkpt>
      <trkpt lat="42.80089" lon="3.01525">
        <ele>2.2</ele>
        <time>1970-01-01T00:10:37Z</time>
      </trkpt>
      <trkpt lat="42.80087" lon="3.01522">
        <ele>2.2</ele>
        <time>1970-01-01T00:10:38Z</time>
      </trkpt>
      <trkpt lat="42.80086" lon="3.01518">
        <ele>2.2</ele>
        <time>1970-01-01T00:10:39Z</time>
      </trkpt>
      <trkpt lat="42.80086" lon="3.01514">
        <ele>2</ele>
        <time>1970-01-01T00:10:40Z</time>
      </trkpt>
      <trkpt lat="42.80087" lon="3.01509">
        <ele>2</ele>
        <time>1970-01-01T00:10:41Z</time>
      </trkpt>
      <trkpt lat="42.80089" lon="3.01504">
        <ele>2</ele>
        <time>1970-01-01T00:10:42Z</time>
      </trkpt>
      <trkpt lat="42.80091" lon="3.015">
        <ele>2</ele>
        <time>1970-01-01T00:10:43Z</time>
      </trkpt>
      <trkpt lat="42.80093" lon="3.01496">
        <ele>1.8</ele>
        <time>1970-01-01T00:10:44Z</time>
      </trkpt>
      <trkpt lat="42.80096" lon="3.01492">
        <ele>1.8</ele>
        <time>1970-01-01T00:10:45Z</time>
      </trkpt>
      <trkpt lat="42.80099" lon="3.01489">
        <ele>1.6</ele>
        <time>1970-01-01T00:10:46Z</time>
      </trkpt>
      <trkpt lat="42.80103" lon="3.01487">
        <ele>1.6</ele>
        <time>1970-01-01T00:10:47Z</time>
      </trkpt>
      <trkpt lat="42.80107" lon="3.01485">
        <ele>1.6</ele>
        <time>1970-01-01T00:10:48Z</time>
      </trkpt>
      <trkpt lat="42.8011" lon="3.01483">
        <ele>1.6</ele>
        <time>1970-01-01T00:10:49Z</time>
      </trkpt>
      <trkpt lat="42.80114" lon="3.01481">
        <ele>1.4</ele>
        <time>1970-01-01T00:10:50Z</time>
      </trkpt>
      <trkpt lat="42.80118" lon="3.01479">
        <ele>1.4</ele>
        <time>1970-01-01T00:10:51Z</time>
      </trkpt>
      <trkpt lat="42.80121" lon="3.01477">
        <ele>1.4</ele>
        <time>1970-01-01T00:10:52Z</time>
      </trkpt>
      <trkpt lat="42.80125" lon="3.01474">
        <ele>1.4</ele>
        <time>1970-01-01T00:10:53Z</time>
      </trkpt>
      <trkpt lat="42.80129" lon="3.01471">
        <ele>1.4</ele>
        <time>1970-01-01T00:10:54Z</time>
      </trkpt>
      <trkpt lat="42.80132" lon="3.01467">
        <ele>1.4</ele>
        <time>1970-01-01T00:10:55Z</time>
      </trkpt>
      <trkpt lat="42.80135" lon="3.01463">
        <ele>1.4</ele>
        <time>1970-01-01T00:10:56Z</time>
      </trkpt>
      <trkpt lat="42.80137" lon="3.01459">
        <ele>1.4</ele>
        <time>1970-01-01T00:10:57Z</time>
      </trkpt>
      <trkpt lat="42.8014" lon="3.01455">
        <ele>1.4</ele>
        <time>1970-01-01T00:10:58Z</time>
      </trkpt>
      <trkpt lat="42.80143" lon="3.0145">
        <ele>1.4</ele>
        <time>1970-01-01T00:10:59Z</time>
      </trkpt>
      <trkpt lat="42.80146" lon="3.01446">
        <ele>1.4</ele>
        <time>1970-01-01T00:11:00Z</time>
      </trkpt>
      <trkpt lat="42.80147" lon="3.01441">
        <ele>1.4</ele>
        <time>1970-01-01T00:11:01Z</time>
      </trkpt>
      <trkpt lat="42.80149" lon="3.01436">
        <ele>1.4</ele>
        <time>1970-01-01T00:11:02Z</time>
      </trkpt>
      <trkpt lat="42.80151" lon="3.01432">
        <ele>1.4</ele>
        <time>1970-01-01T00:11:03Z</time>
      </trkpt>
      <trkpt lat="42.80153" lon="3.01427">
        <ele>1.4</ele>
        <time>1970-01-01T00:11:04Z</time>
      </trkpt>
      <trkpt lat="42.80155" lon="3.01422">
        <ele>1.4</ele>
        <time>1970-01-01T00:11:05Z</time>
      </trkpt>
      <trkpt lat="42.80158" lon="3.01417">
        <ele>1.4</ele>
        <time>1970-01-01T00:11:06Z</time>
      </trkpt>
      <trkpt lat="42.8016" lon="3.01412">
        <ele>1.2</ele>
        <time>1970-01-01T00:11:07Z</time>
      </trkpt>
      <trkpt lat="42.80161" lon="3.01407">
        <ele>1.2</ele>
        <time>1970-01-01T00:11:08Z</time>
      </trkpt>
      <trkpt lat="42.80163" lon="3.01402">
        <ele>1.2</ele>
        <time>1970-01-01T00:11:09Z</time>
      </trkpt>
      <trkpt lat="42.80164" lon="3.01396">
        <ele>1.2</ele>
        <time>1970-01-01T00:11:10Z</time>
      </trkpt>
      <trkpt lat="42.80165" lon="3.01391">
        <ele>1.2</ele>
        <time>1970-01-01T00:11:11Z</time>
      </trkpt>
      <trkpt lat="42.80166" lon="3.01386">
        <ele>1.2</ele>
        <time>1970-01-01T00:11:12Z</time>
      </trkpt>
      <trkpt lat="42.80168" lon="3.01381">
        <ele>1.2</ele>
        <time>1970-01-01T00:11:13Z</time>
      </trkpt>
      <trkpt lat="42.8017" lon="3.01376">
        <ele>1.2</ele>
        <time>1970-01-01T00:11:14Z</time>
      </trkpt>
      <trkpt lat="42.80171" lon="3.01371">
        <ele>1.4</ele>
        <time>1970-01-01T00:11:15Z</time>
      </trkpt>
      <trkpt lat="42.80173" lon="3.01366">
        <ele>1.4</ele>
        <time>1970-01-01T00:11:16Z</time>
      </trkpt>
      <trkpt lat="42.80174" lon="3.01361">
        <ele>1.4</ele>
        <time>1970-01-01T00:11:17Z</time>
      </trkpt>
      <trkpt lat="42.80176" lon="3.01356">
        <ele>1.6</ele>
        <time>1970-01-01T00:11:18Z</time>
      </trkpt>
      <trkpt lat="42.80176" lon="3.01351">
        <ele>1.6</ele>
        <time>1970-01-01T00:11:19Z</time>
      </trkpt>
      <trkpt lat="42.80175" lon="3.01346">
        <ele>1.6</ele>
        <time>1970-01-01T00:11:20Z</time>
      </trkpt>
      <trkpt lat="42.80174" lon="3.0134">
        <ele>1.6</ele>
        <time>1970-01-01T00:11:21Z</time>
      </trkpt>
      <trkpt lat="42.80173" lon="3.01335">
        <ele>1.6</ele>
        <time>1970-01-01T00:11:22Z</time>
      </trkpt>
      <trkpt lat="42.80173" lon="3.0133">
        <ele>1.6</ele>
        <time>1970-01-01T00:11:23Z</time>
      </trkpt>
      <trkpt lat="42.80174" lon="3.01325">
        <ele>1.8</ele>
        <time>1970-01-01T00:11:24Z</time>
      </trkpt>
      <trkpt lat="42.80177" lon="3.01321">
        <ele>1.8</ele>
        <time>1970-01-01T00:11:25Z</time>
      </trkpt>
      <trkpt lat="42.8018" lon="3.01318">
        <ele>1.8</ele>
        <time>1970-01-01T00:11:26Z</time>
      </trkpt>
      <trkpt lat="42.80184" lon="3.01315">
        <ele>1.8</ele>
        <time>1970-01-01T00:11:27Z</time>
      </trkpt>
      <trkpt lat="42.80187" lon="3.01312">
        <ele>1.6</ele>
        <time>1970-01-01T00:11:28Z</time>
      </trkpt>
      <trkpt lat="42.8019" lon="3.01308">
        <ele>1.6</ele>
        <time>1970-01-01T00:11:29Z</time>
      </trkpt>
      <trkpt lat="42.80193" lon="3.01304">
        <ele>1.6</ele>
        <time>1970-01-01T00:11:30Z</time>
      </trkpt>
      <trkpt lat="42.80195" lon="3.01299">
        <ele>1.6</ele>
        <time>1970-01-01T00:11:31Z</time>
      </trkpt>
      <trkpt lat="42.80198" lon="3.01295">
        <ele>1.6</ele>
        <time>1970-01-01T00:11:32Z</time>
      </trkpt>
      <trkpt lat="42.80201" lon="3.0129">
        <ele>1.6</ele>
        <time>1970-01-01T00:11:33Z</time>
      </trkpt>
      <trkpt lat="42.80204" lon="3.01286">
        <ele>1.6</ele>
        <time>1970-01-01T00:11:34Z</time>
      </trkpt>
      <trkpt lat="42.80207" lon="3.01283">
        <ele>1.4</ele>
        <time>1970-01-01T00:11:35Z</time>
      </trkpt>
      <trkpt lat="42.80209" lon="3.01279">
        <ele>1.4</ele>
        <time>1970-01-01T00:11:36Z</time>
      </trkpt>
      <trkpt lat="42.80212" lon="3.01276">
        <ele>1.4</ele>
        <time>1970-01-01T00:11:37Z</time>
      </trkpt>
      <trkpt lat="42.80215" lon="3.01272">
        <ele>1.4</ele>
        <time>1970-01-01T00:11:38Z</time>
      </trkpt>
      <trkpt lat="42.80219" lon="3.01269">
        <ele>1.4</ele>
        <time>1970-01-01T00:11:39Z</time>
      </trkpt>
      <trkpt lat="42.80222" lon="3.01266">
        <ele>1.4</ele>
        <time>1970-01-01T00:11:40Z</time>
      </trkpt>
      <trkpt lat="42.80225" lon="3.01263">
        <ele>1.4</ele>
        <time>1970-01-01T00:11:41Z</time>
      </trkpt>
      <trkpt lat="42.80228" lon="3.0126">
        <ele>1.4</ele>
        <time>1970-01-01T00:11:42Z</time>
      </trkpt>
      <trkpt lat="42.80231" lon="3.01256">
        <ele>1.4</ele>
        <time>1970-01-01T00:11:43Z</time>
      </trkpt>
      <trkpt lat="42.80234" lon="3.01253">
        <ele>1.4</ele>
        <time>1970-01-01T00:11:44Z</time>
      </trkpt>
      <trkpt lat="42.80237" lon="3.0125">
        <ele>1.4</ele>
        <time>1970-01-01T00:11:45Z</time>
      </trkpt>
      <trkpt lat="42.8024" lon="3.01246">
        <ele>1.4</ele>
        <time>1970-01-01T00:11:46Z</time>
      </trkpt>
      <trkpt lat="42.80243" lon="3.01243">
        <ele>1.4</ele>
        <time>1970-01-01T00:11:47Z</time>
      </trkpt>
      <trkpt lat="42.80246" lon="3.01239">
        <ele>1.4</ele>
        <time>1970-01-01T00:11:48Z</time>
      </trkpt>
      <trkpt lat="42.8025" lon="3.01237">
        <ele>1.4</ele>
        <time>1970-01-01T00:11:49Z</time>
      </trkpt>
      <trkpt lat="42.80253" lon="3.01234">
        <ele>1.4</ele>
        <time>1970-01-01T00:11:50Z</time>
      </trkpt>
      <trkpt lat="42.80257" lon="3.01231">
        <ele>1.4</ele>
        <time>1970-01-01T00:11:51Z</time>
      </trkpt>
      <trkpt lat="42.8026" lon="3.01227">
        <ele>1.4</ele>
        <time>1970-01-01T00:11:52Z</time>
      </trkpt>
      <trkpt lat="42.80263" lon="3.01223">
        <ele>1.4</ele>
        <time>1970-01-01T00:11:53Z</time>
      </trkpt>
      <trkpt lat="42.80265" lon="3.01219">
        <ele>1.6</ele>
        <time>1970-01-01T00:11:54Z</time>
      </trkpt>
      <trkpt lat="42.80267" lon="3.01215">
        <ele>1.6</ele>
        <time>1970-01-01T00:11:55Z</time>
      </trkpt>
      <trkpt lat="42.80269" lon="3.0121">
        <ele>1.6</ele>
        <time>1970-01-01T00:11:56Z</time>
      </trkpt>
      <trkpt lat="42.8027" lon="3.01206">
        <ele>1.6</ele>
        <time>1970-01-01T00:11:57Z</time>
      </trkpt>
      <trkpt lat="42.80271" lon="3.01202">
        <ele>1.6</ele>
        <time>1970-01-01T00:11:58Z</time>
      </trkpt>
      <trkpt lat="42.80271" lon="3.01198">
        <ele>1.4</ele>
        <time>1970-01-01T00:11:59Z</time>
      </trkpt>
      <trkpt lat="42.80269" lon="3.01195">
        <ele>1.4</ele>
        <time>1970-01-01T00:12:00Z</time>
      </trkpt>
      <trkpt lat="42.80267" lon="3.01195">
        <ele>1.4</ele>
        <time>1970-01-01T00:12:01Z</time>
      </trkpt>
      <trkpt lat="42.80264" lon="3.01195">
        <ele>1.4</ele>
        <time>1970-01-01T00:12:02Z</time>
      </trkpt>
      <trkpt lat="42.80261" lon="3.01196">
        <ele>1.4</ele>
        <time>1970-01-01T00:12:03Z</time>
      </trkpt>
      <trkpt lat="42.80258" lon="3.01197">
        <ele>1.2</ele>
        <time>1970-01-01T00:12:04Z</time>
      </trkpt>
      <trkpt lat="42.80254" lon="3.01197">
        <ele>1.2</ele>
        <time>1970-01-01T00:12:05Z</time>
      </trkpt>
      <trkpt lat="42.80251" lon="3.01197">
        <ele>1.2</ele>
        <time>1970-01-01T00:12:06Z</time>
      </trkpt>
      <trkpt lat="42.80247" lon="3.01197">
        <ele>1.2</ele>
        <time>1970-01-01T00:12:07Z</time>
      </trkpt>
      <trkpt lat="42.80243" lon="3.01197">
        <ele>1.2</ele>
        <time>1970-01-01T00:12:08Z</time>
      </trkpt>
      <trkpt lat="42.8024" lon="3.01197">
        <ele>1.2</ele>
        <time>1970-01-01T00:12:09Z</time>
      </trkpt>
      <trkpt lat="42.80236" lon="3.01197">
        <ele>1.2</ele>
        <time>1970-01-01T00:12:10Z</time>
      </trkpt>
      <trkpt lat="42.80232" lon="3.01197">
        <ele>1.2</ele>
        <time>1970-01-01T00:12:11Z</time>
      </trkpt>
      <trkpt lat="42.80228" lon="3.01197">
        <ele>1.2</ele>
        <time>1970-01-01T00:12:12Z</time>
      </trkpt>
      <trkpt lat="42.80225" lon="3.01198">
        <ele>1.2</ele>
        <time>1970-01-01T00:12:13Z</time>
      </trkpt>
      <trkpt lat="42.80221" lon="3.01198">
        <ele>1.2</ele>
        <time>1970-01-01T00:12:14Z</time>
      </trkpt>
      <trkpt lat="42.80217" lon="3.01198">
        <ele>1.2</ele>
        <time>1970-01-01T00:12:15Z</time>
      </trkpt>
      <trkpt lat="42.80213" lon="3.01197">
        <ele>1.2</ele>
        <time>1970-01-01T00:12:16Z</time>
      </trkpt>
      <trkpt lat="42.80209" lon="3.01196">
        <ele>1.2</ele>
        <time>1970-01-01T00:12:17Z</time>
      </trkpt>
      <trkpt lat="42.80205" lon="3.01196">
        <ele>1.2</ele>
        <time>1970-01-01T00:12:18Z</time>
      </trkpt>
      <trkpt lat="42.80201" lon="3.01196">
        <ele>1.2</ele>
        <time>1970-01-01T00:12:19Z</time>
      </trkpt>
      <trkpt lat="42.80197" lon="3.01195">
        <ele>1.4</ele>
        <time>1970-01-01T00:12:20Z</time>
      </trkpt>
      <trkpt lat="42.80193" lon="3.01194">
        <ele>1.4</ele>
        <time>1970-01-01T00:12:21Z</time>
      </trkpt>
      <trkpt lat="42.80189" lon="3.01194">
        <ele>1.4</ele>
        <time>1970-01-01T00:12:22Z</time>
      </trkpt>
      <trkpt lat="42.80185" lon="3.01193">
        <ele>1.4</ele>
        <time>1970-01-01T00:12:23Z</time>
      </trkpt>
      <trkpt lat="42.80181" lon="3.01193">
        <ele>1.4</ele>
        <time>1970-01-01T00:12:24Z</time>
      </trkpt>
      <trkpt lat="42.80178" lon="3.01193">
        <ele>1.4</ele>
        <time>1970-01-01T00:12:25Z</time>
      </trkpt>
      <trkpt lat="42.80174" lon="3.01193">
        <ele>1.4</ele>
        <time>1970-01-01T00:12:26Z</time>
      </trkpt>
      <trkpt lat="42.8017" lon="3.01193">
        <ele>1.4</ele>
        <time>1970-01-01T00:12:27Z</time>
      </trkpt>
      <trkpt lat="42.80166" lon="3.01192">
        <ele>1.4</ele>
        <time>1970-01-01T00:12:28Z</time>
      </trkpt>
      <trkpt lat="42.80162" lon="3.01192">
        <ele>1.4</ele>
        <time>1970-01-01T00:12:29Z</time>
      </trkpt>
      <trkpt lat="42.80158" lon="3.01191">
        <ele>1.4</ele>
        <time>1970-01-01T00:12:30Z</time>
      </trkpt>
      <trkpt lat="42.80154" lon="3.01191">
        <ele>1.4</ele>
        <time>1970-01-01T00:12:31Z</time>
      </trkpt>
      <trkpt lat="42.8015" lon="3.01191">
        <ele>1.4</ele>
        <time>1970-01-01T00:12:32Z</time>
      </trkpt>
      <trkpt lat="42.80146" lon="3.01191">
        <ele>1.6</ele>
        <time>1970-01-01T00:12:33Z</time>
      </trkpt>
      <trkpt lat="42.80142" lon="3.01191">
        <ele>1.6</ele>
        <time>1970-01-01T00:12:34Z</time>
      </trkpt>
      <trkpt lat="42.80139" lon="3.01192">
        <ele>1.6</ele>
        <time>1970-01-01T00:12:35Z</time>
      </trkpt>
      <trkpt lat="42.80135" lon="3.01192">
        <ele>1.6</ele>
        <time>1970-01-01T00:12:36Z</time>
      </trkpt>
      <trkpt lat="42.80132" lon="3.01193">
        <ele>1.6</ele>
        <time>1970-01-01T00:12:37Z</time>
      </trkpt>
      <trkpt lat="42.80128" lon="3.01193">
        <ele>1.6</ele>
        <time>1970-01-01T00:12:38Z</time>
      </trkpt>
      <trkpt lat="42.80125" lon="3.01194">
        <ele>1.6</ele>
        <time>1970-01-01T00:12:39Z</time>
      </trkpt>
      <trkpt lat="42.80121" lon="3.01194">
        <ele>1.6</ele>
        <time>1970-01-01T00:12:40Z</time>
      </trkpt>
      <trkpt lat="42.80117" lon="3.01193">
        <ele>1.6</ele>
        <time>1970-01-01T00:12:41Z</time>
      </trkpt>
      <trkpt lat="42.80114" lon="3.01193">
        <ele>1.6</ele>
        <time>1970-01-01T00:12:42Z</time>
      </trkpt>
      <trkpt lat="42.80111" lon="3.01191">
        <ele>1.8</ele>
        <time>1970-01-01T00:12:43Z</time>
      </trkpt>
      <trkpt lat="42.80108" lon="3.01189">
        <ele>1.8</ele>
        <time>1970-01-01T00:12:44Z</time>
      </trkpt>
      <trkpt lat="42.80105" lon="3.01187">
        <ele>1.8</ele>
        <time>1970-01-01T00:12:45Z</time>
      </trkpt>
      <trkpt lat="42.80102" lon="3.01185">
        <ele>1.8</ele>
        <time>1970-01-01T00:12:46Z</time>
      </trkpt>
      <trkpt lat="42.80099" lon="3.01184">
        <ele>1.8</ele>
        <time>1970-01-01T00:12:47Z</time>
      </trkpt>
      <trkpt lat="42.80096" lon="3.01184">
        <ele>2</ele>
        <time>1970-01-01T00:12:48Z</time>
      </trkpt>
      <trkpt lat="42.80093" lon="3.01186">
        <ele>2</ele>
        <time>1970-01-01T00:12:49Z</time>
      </trkpt>
      <trkpt lat="42.80089" lon="3.01187">
        <ele>2</ele>
        <time>1970-01-01T00:12:50Z</time>
      </trkpt>
      <trkpt lat="42.80088" lon="3.01187">
        <ele>2.2</ele>
        <time>1970-01-01T00:12:51Z</time>
      </trkpt>
      <trkpt lat="42.80086" lon="3.01183">
        <ele>2.2</ele>
        <time>1970-01-01T00:12:52Z</time>
      </trkpt>
      <trkpt lat="42.80085" lon="3.01182">
        <ele>2.2</ele>
        <time>1970-01-01T00:12:53Z</time>
      </trkpt>
      <trkpt lat="42.80085" lon="3.01178">
        <ele>2.2</ele>
        <time>1970-01-01T00:12:54Z</time>
      </trkpt>
      <trkpt lat="42.80085" lon="3.01176">
        <ele>2.2</ele>
        <time>1970-01-01T00:12:55Z</time>
      </trkpt>
      <trkpt lat="42.80085" lon="3.01172">
        <ele>2.2</ele>
        <time>1970-01-01T00:12:56Z</time>
      </trkpt>
      <trkpt lat="42.80086" lon="3.0117">
        <ele>2.2</ele>
        <time>1970-01-01T00:12:57Z</time>
      </trkpt>
      <trkpt lat="42.80086" lon="3.01164">
        <ele>2.2</ele>
        <time>1970-01-01T00:12:58Z</time>
      </trkpt>
      <trkpt lat="42.80086" lon="3.01162">
        <ele>2.2</ele>
        <time>1970-01-01T00:12:59Z</time>
      </trkpt>
      <trkpt lat="42.80085" lon="3.01158">
        <ele>2.2</ele>
        <time>1970-01-01T00:13:00Z</time>
      </trkpt>
      <trkpt lat="42.80085" lon="3.01153">
        <ele>2</ele>
        <time>1970-01-01T00:13:01Z</time>
      </trkpt>
      <trkpt lat="42.80084" lon="3.01146">
        <ele>1.8</ele>
        <time>1970-01-01T00:13:02Z</time>
      </trkpt>
      <trkpt lat="42.80084" lon="3.0114">
        <ele>1.8</ele>
        <time>1970-01-01T00:13:03Z</time>
      </trkpt>
      <trkpt lat="42.80083" lon="3.01133">
        <ele>1.6</ele>
        <time>1970-01-01T00:13:04Z</time>
      </trkpt>
      <trkpt lat="42.80082" lon="3.01127">
        <ele>1.6</ele>
        <time>1970-01-01T00:13:05Z</time>
      </trkpt>
      <trkpt lat="42.80081" lon="3.01121">
        <ele>1.6</ele>
        <time>1970-01-01T00:13:06Z</time>
      </trkpt>
      <trkpt lat="42.80081" lon="3.01115">
        <ele>1.4</ele>
        <time>1970-01-01T00:13:07Z</time>
      </trkpt>
      <trkpt lat="42.8008" lon="3.01109">
        <ele>1.4</ele>
        <time>1970-01-01T00:13:08Z</time>
      </trkpt>
      <trkpt lat="42.8008" lon="3.01103">
        <ele>1.4</ele>
        <time>1970-01-01T00:13:09Z</time>
      </trkpt>
      <trkpt lat="42.80079" lon="3.01097">
        <ele>1.4</ele>
        <time>1970-01-01T00:13:10Z</time>
      </trkpt>
      <trkpt lat="42.80078" lon="3.01091">
        <ele>1.4</ele>
        <time>1970-01-01T00:13:11Z</time>
      </trkpt>
      <trkpt lat="42.80078" lon="3.01085">
        <ele>1.4</ele>
        <time>1970-01-01T00:13:12Z</time>
      </trkpt>
      <trkpt lat="42.80078" lon="3.01079">
        <ele>1.4</ele>
        <time>1970-01-01T00:13:13Z</time>
      </trkpt>
      <trkpt lat="42.80078" lon="3.01074">
        <ele>1.4</ele>
        <time>1970-01-01T00:13:14Z</time>
      </trkpt>
      <trkpt lat="42.80078" lon="3.01068">
        <ele>1.4</ele>
        <time>1970-01-01T00:13:15Z</time>
      </trkpt>
      <trkpt lat="42.80078" lon="3.01063">
        <ele>1.4</ele>
        <time>1970-01-01T00:13:16Z</time>
      </trkpt>
      <trkpt lat="42.80077" lon="3.01057">
        <ele>1.4</ele>
        <time>1970-01-01T00:13:17Z</time>
      </trkpt>
      <trkpt lat="42.80076" lon="3.01052">
        <ele>1.4</ele>
        <time>1970-01-01T00:13:18Z</time>
      </trkpt>
      <trkpt lat="42.80076" lon="3.01047">
        <ele>1.4</ele>
        <time>1970-01-01T00:13:19Z</time>
      </trkpt>
      <trkpt lat="42.80077" lon="3.01041">
        <ele>1.4</ele>
        <time>1970-01-01T00:13:20Z</time>
      </trkpt>
      <trkpt lat="42.80077" lon="3.01036">
        <ele>1.4</ele>
        <time>1970-01-01T00:13:21Z</time>
      </trkpt>
      <trkpt lat="42.80076" lon="3.01031">
        <ele>1.4</ele>
        <time>1970-01-01T00:13:22Z</time>
      </trkpt>
      <trkpt lat="42.80076" lon="3.01026">
        <ele>1.4</ele>
        <time>1970-01-01T00:13:23Z</time>
      </trkpt>
      <trkpt lat="42.80075" lon="3.0102">
        <ele>1.4</ele>
        <time>1970-01-01T00:13:24Z</time>
      </trkpt>
      <trkpt lat="42.80075" lon="3.01014">
        <ele>1.4</ele>
        <time>1970-01-01T00:13:25Z</time>
      </trkpt>
      <trkpt lat="42.80075" lon="3.01009">
        <ele>1.4</ele>
        <time>1970-01-01T00:13:26Z</time>
      </trkpt>
      <trkpt lat="42.80075" lon="3.01003">
        <ele>1.4</ele>
        <time>1970-01-01T00:13:27Z</time>
      </trkpt>
      <trkpt lat="42.80074" lon="3.00997">
        <ele>1.4</ele>
        <time>1970-01-01T00:13:28Z</time>
      </trkpt>
      <trkpt lat="42.80074" lon="3.00991">
        <ele>1.4</ele>
        <time>1970-01-01T00:13:29Z</time>
      </trkpt>
      <trkpt lat="42.80074" lon="3.00985">
        <ele>1.4</ele>
        <time>1970-01-01T00:13:30Z</time>
      </trkpt>
      <trkpt lat="42.80074" lon="3.00979">
        <ele>1.4</ele>
        <time>1970-01-01T00:13:31Z</time>
      </trkpt>
      <trkpt lat="42.80074" lon="3.00974">
        <ele>1.4</ele>
        <time>1970-01-01T00:13:32Z</time>
      </trkpt>
      <trkpt lat="42.80073" lon="3.00968">
        <ele>1.4</ele>
        <time>1970-01-01T00:13:33Z</time>
      </trkpt>
      <trkpt lat="42.80073" lon="3.00962">
        <ele>1.4</ele>
        <time>1970-01-01T00:13:34Z</time>
      </trkpt>
      <trkpt lat="42.80073" lon="3.00957">
        <ele>1.6</ele>
        <time>1970-01-01T00:13:35Z</time>
      </trkpt>
      <trkpt lat="42.80073" lon="3.00951">
        <ele>1.6</ele>
        <time>1970-01-01T00:13:36Z</time>
      </trkpt>
      <trkpt lat="42.80072" lon="3.00945">
        <ele>1.6</ele>
        <time>1970-01-01T00:13:37Z</time>
      </trkpt>
      <trkpt lat="42.80072" lon="3.00939">
        <ele>1.6</ele>
        <time>1970-01-01T00:13:38Z</time>
      </trkpt>
      <trkpt lat="42.80072" lon="3.00934">
        <ele>1.6</ele>
        <time>1970-01-01T00:13:39Z</time>
      </trkpt>
      <trkpt lat="42.80072" lon="3.00928">
        <ele>1.6</ele>
        <time>1970-01-01T00:13:40Z</time>
      </trkpt>
      <trkpt lat="42.80071" lon="3.00922">
        <ele>1.6</ele>
        <time>1970-01-01T00:13:41Z</time>
      </trkpt>
      <trkpt lat="42.80069" lon="3.00916">
        <ele>1.6</ele>
        <time>1970-01-01T00:13:42Z</time>
      </trkpt>
      <trkpt lat="42.80069" lon="3.0091">
        <ele>1.6</ele>
        <time>1970-01-01T00:13:43Z</time>
      </trkpt>
      <trkpt lat="42.80069" lon="3.00905">
        <ele>1.6</ele>
        <time>1970-01-01T00:13:44Z</time>
      </trkpt>
      <trkpt lat="42.8007" lon="3.00899">
        <ele>1.6</ele>
        <time>1970-01-01T00:13:45Z</time>
      </trkpt>
      <trkpt lat="42.8007" lon="3.00893">
        <ele>1.6</ele>
        <time>1970-01-01T00:13:46Z</time>
      </trkpt>
      <trkpt lat="42.80069" lon="3.00887">
        <ele>1.6</ele>
        <time>1970-01-01T00:13:47Z</time>
      </trkpt>
      <trkpt lat="42.80068" lon="3.00881">
        <ele>1.6</ele>
        <time>1970-01-01T00:13:48Z</time>
      </trkpt>
      <trkpt lat="42.80068" lon="3.00875">
        <ele>1.6</ele>
        <time>1970-01-01T00:13:49Z</time>
      </trkpt>
      <trkpt lat="42.80068" lon="3.00869">
        <ele>1.6</ele>
        <time>1970-01-01T00:13:50Z</time>
      </trkpt>
      <trkpt lat="42.80068" lon="3.00863">
        <ele>1.6</ele>
        <time>1970-01-01T00:13:51Z</time>
      </trkpt>
      <trkpt lat="42.80067" lon="3.00857">
        <ele>1.6</ele>
        <time>1970-01-01T00:13:52Z</time>
      </trkpt>
      <trkpt lat="42.80067" lon="3.00852">
        <ele>1.6</ele>
        <time>1970-01-01T00:13:53Z</time>
      </trkpt>
      <trkpt lat="42.80066" lon="3.00846">
        <ele>1.4</ele>
        <time>1970-01-01T00:13:54Z</time>
      </trkpt>
      <trkpt lat="42.80066" lon="3.00841">
        <ele>1.4</ele>
        <time>1970-01-01T00:13:55Z</time>
      </trkpt>
      <trkpt lat="42.80066" lon="3.00835">
        <ele>1.4</ele>
        <time>1970-01-01T00:13:56Z</time>
      </trkpt>
      <trkpt lat="42.80066" lon="3.00829">
        <ele>1.4</ele>
        <time>1970-01-01T00:13:57Z</time>
      </trkpt>
      <trkpt lat="42.80065" lon="3.00824">
        <ele>1.4</ele>
        <time>1970-01-01T00:13:58Z</time>
      </trkpt>
      <trkpt lat="42.80065" lon="3.00818">
        <ele>1.4</ele>
        <time>1970-01-01T00:13:59Z</time>
      </trkpt>
      <trkpt lat="42.80064" lon="3.00812">
        <ele>1.4</ele>
        <time>1970-01-01T00:14:00Z</time>
      </trkpt>
      <trkpt lat="42.80064" lon="3.00807">
        <ele>1.4</ele>
        <time>1970-01-01T00:14:01Z</time>
      </trkpt>
      <trkpt lat="42.80063" lon="3.00801">
        <ele>1.4</ele>
        <time>1970-01-01T00:14:02Z</time>
      </trkpt>
      <trkpt lat="42.80063" lon="3.00795">
        <ele>1.4</ele>
        <time>1970-01-01T00:14:03Z</time>
      </trkpt>
      <trkpt lat="42.80062" lon="3.00789">
        <ele>1.4</ele>
        <time>1970-01-01T00:14:04Z</time>
      </trkpt>
      <trkpt lat="42.80061" lon="3.00784">
        <ele>1.6</ele>
        <time>1970-01-01T00:14:05Z</time>
      </trkpt>
      <trkpt lat="42.8006" lon="3.00778">
        <ele>1.6</ele>
        <time>1970-01-01T00:14:06Z</time>
      </trkpt>
      <trkpt lat="42.8006" lon="3.00772">
        <ele>1.6</ele>
        <time>1970-01-01T00:14:07Z</time>
      </trkpt>
      <trkpt lat="42.8006" lon="3.00766">
        <ele>1.4</ele>
        <time>1970-01-01T00:14:08Z</time>
      </trkpt>
      <trkpt lat="42.8006" lon="3.00759">
        <ele>1.4</ele>
        <time>1970-01-01T00:14:09Z</time>
      </trkpt>
      <trkpt lat="42.8006" lon="3.00753">
        <ele>1.4</ele>
        <time>1970-01-01T00:14:10Z</time>
      </trkpt>
      <trkpt lat="42.80059" lon="3.00748">
        <ele>1.4</ele>
        <time>1970-01-01T00:14:11Z</time>
      </trkpt>
      <trkpt lat="42.80059" lon="3.00742">
        <ele>1.4</ele>
        <time>1970-01-01T00:14:12Z</time>
      </trkpt>
      <trkpt lat="42.80059" lon="3.00736">
        <ele>1.4</ele>
        <time>1970-01-01T00:14:13Z</time>
      </trkpt>
      <trkpt lat="42.80058" lon="3.0073">
        <ele>1.4</ele>
        <time>1970-01-01T00:14:14Z</time>
      </trkpt>
      <trkpt lat="42.80058" lon="3.00724">
        <ele>1.4</ele>
        <time>1970-01-01T00:14:15Z</time>
      </trkpt>
      <trkpt lat="42.80058" lon="3.00718">
        <ele>1.4</ele>
        <time>1970-01-01T00:14:16Z</time>
      </trkpt>
      <trkpt lat="42.80057" lon="3.00713">
        <ele>1.4</ele>
        <time>1970-01-01T00:14:17Z</time>
      </trkpt>
      <trkpt lat="42.80057" lon="3.00707">
        <ele>1.4</ele>
        <time>1970-01-01T00:14:18Z</time>
      </trkpt>
      <trkpt lat="42.80057" lon="3.00701">
        <ele>1.4</ele>
        <time>1970-01-01T00:14:19Z</time>
      </trkpt>
      <trkpt lat="42.80057" lon="3.00696">
        <ele>1.4</ele>
        <time>1970-01-01T00:14:20Z</time>
      </trkpt>
      <trkpt lat="42.80056" lon="3.0069">
        <ele>1.4</ele>
        <time>1970-01-01T00:14:21Z</time>
      </trkpt>
      <trkpt lat="42.80055" lon="3.00684">
        <ele>1.4</ele>
        <time>1970-01-01T00:14:22Z</time>
      </trkpt>
      <trkpt lat="42.80054" lon="3.00678">
        <ele>1.4</ele>
        <time>1970-01-01T00:14:23Z</time>
      </trkpt>
      <trkpt lat="42.80052" lon="3.00673">
        <ele>1.4</ele>
        <time>1970-01-01T00:14:24Z</time>
      </trkpt>
      <trkpt lat="42.80051" lon="3.00667">
        <ele>1.4</ele>
        <time>1970-01-01T00:14:25Z</time>
      </trkpt>
      <trkpt lat="42.80051" lon="3.00662">
        <ele>1.4</ele>
        <time>1970-01-01T00:14:26Z</time>
      </trkpt>
      <trkpt lat="42.80051" lon="3.00656">
        <ele>1.4</ele>
        <time>1970-01-01T00:14:27Z</time>
      </trkpt>
      <trkpt lat="42.8005" lon="3.0065">
        <ele>1.4</ele>
        <time>1970-01-01T00:14:28Z</time>
      </trkpt>
      <trkpt lat="42.8005" lon="3.00645">
        <ele>1.4</ele>
        <time>1970-01-01T00:14:29Z</time>
      </trkpt>
      <trkpt lat="42.80049" lon="3.00639">
        <ele>1.4</ele>
        <time>1970-01-01T00:14:30Z</time>
      </trkpt>
      <trkpt lat="42.80049" lon="3.00633">
        <ele>1.4</ele>
        <time>1970-01-01T00:14:31Z</time>
      </trkpt>
      <trkpt lat="42.80048" lon="3.00627">
        <ele>1.4</ele>
        <time>1970-01-01T00:14:32Z</time>
      </trkpt>
      <trkpt lat="42.80048" lon="3.00622">
        <ele>1.4</ele>
        <time>1970-01-01T00:14:33Z</time>
      </trkpt>
      <trkpt lat="42.80048" lon="3.00616">
        <ele>1.4</ele>
        <time>1970-01-01T00:14:34Z</time>
      </trkpt>
      <trkpt lat="42.80047" lon="3.00611">
        <ele>1.4</ele>
        <time>1970-01-01T00:14:35Z</time>
      </trkpt>
      <trkpt lat="42.80046" lon="3.00606">
        <ele>1.4</ele>
        <time>1970-01-01T00:14:36Z</time>
      </trkpt>
      <trkpt lat="42.80046" lon="3.006">
        <ele>1.2</ele>
        <time>1970-01-01T00:14:37Z</time>
      </trkpt>
      <trkpt lat="42.80045" lon="3.00594">
        <ele>1.2</ele>
        <time>1970-01-01T00:14:38Z</time>
      </trkpt>
      <trkpt lat="42.80045" lon="3.00588">
        <ele>1.2</ele>
        <time>1970-01-01T00:14:39Z</time>
      </trkpt>
      <trkpt lat="42.80045" lon="3.00582">
        <ele>1.2</ele>
        <time>1970-01-01T00:14:40Z</time>
      </trkpt>
      <trkpt lat="42.80045" lon="3.00577">
        <ele>1.2</ele>
        <time>1970-01-01T00:14:41Z</time>
      </trkpt>
      <trkpt lat="42.80045" lon="3.00571">
        <ele>1.2</ele>
        <time>1970-01-01T00:14:42Z</time>
      </trkpt>
      <trkpt lat="42.80046" lon="3.00565">
        <ele>1.2</ele>
        <time>1970-01-01T00:14:43Z</time>
      </trkpt>
      <trkpt lat="42.80047" lon="3.00559">
        <ele>1.2</ele>
        <time>1970-01-01T00:14:44Z</time>
      </trkpt>
      <trkpt lat="42.80048" lon="3.00553">
        <ele>1.2</ele>
        <time>1970-01-01T00:14:45Z</time>
      </trkpt>
      <trkpt lat="42.80049" lon="3.00547">
        <ele>1.2</ele>
        <time>1970-01-01T00:14:46Z</time>
      </trkpt>
      <trkpt lat="42.80051" lon="3.00542">
        <ele>1.2</ele>
        <time>1970-01-01T00:14:47Z</time>
      </trkpt>
      <trkpt lat="42.80053" lon="3.00537">
        <ele>1.2</ele>
        <time>1970-01-01T00:14:48Z</time>
      </trkpt>
      <trkpt lat="42.80054" lon="3.00531">
        <ele>1.2</ele>
        <time>1970-01-01T00:14:49Z</time>
      </trkpt>
      <trkpt lat="42.80055" lon="3.00526">
        <ele>1.2</ele>
        <time>1970-01-01T00:14:50Z</time>
      </trkpt>
      <trkpt lat="42.80057" lon="3.00521">
        <ele>1.2</ele>
        <time>1970-01-01T00:14:51Z</time>
      </trkpt>
      <trkpt lat="42.80059" lon="3.00516">
        <ele>1.2</ele>
        <time>1970-01-01T00:14:52Z</time>
      </trkpt>
      <trkpt lat="42.80061" lon="3.00513">
        <ele>1</ele>
        <time>1970-01-01T00:14:53Z</time>
      </trkpt>
      <trkpt lat="42.80063" lon="3.00508">
        <ele>1</ele>
        <time>1970-01-01T00:14:54Z</time>
      </trkpt>
      <trkpt lat="42.80064" lon="3.00503">
        <ele>1</ele>
        <time>1970-01-01T00:14:55Z</time>
      </trkpt>
      <trkpt lat="42.80065" lon="3.00498">
        <ele>1</ele>
        <time>1970-01-01T00:14:56Z</time>
      </trkpt>
      <trkpt lat="42.80066" lon="3.00492">
        <ele>1</ele>
        <time>1970-01-01T00:14:57Z</time>
      </trkpt>
      <trkpt lat="42.80067" lon="3.00487">
        <ele>1</ele>
        <time>1970-01-01T00:14:58Z</time>
      </trkpt>
      <trkpt lat="42.80069" lon="3.00483">
        <ele>1</ele>
        <time>1970-01-01T00:14:59Z</time>
      </trkpt>
      <trkpt lat="42.80071" lon="3.00478">
        <ele>1</ele>
        <time>1970-01-01T00:15:00Z</time>
      </trkpt>
      <trkpt lat="42.80072" lon="3.00473">
        <ele>1</ele>
        <time>1970-01-01T00:15:01Z</time>
      </trkpt>
      <trkpt lat="42.80073" lon="3.00467">
        <ele>1</ele>
        <time>1970-01-01T00:15:02Z</time>
      </trkpt>
      <trkpt lat="42.80074" lon="3.00462">
        <ele>1</ele>
        <time>1970-01-01T00:15:03Z</time>
      </trkpt>
      <trkpt lat="42.80076" lon="3.00458">
        <ele>1</ele>
        <time>1970-01-01T00:15:04Z</time>
      </trkpt>
      <trkpt lat="42.80077" lon="3.00454">
        <ele>1</ele>
        <time>1970-01-01T00:15:05Z</time>
      </trkpt>
      <trkpt lat="42.80079" lon="3.00449">
        <ele>1</ele>
        <time>1970-01-01T00:15:06Z</time>
      </trkpt>
      <trkpt lat="42.8008" lon="3.00444">
        <ele>1</ele>
        <time>1970-01-01T00:15:07Z</time>
      </trkpt>
      <trkpt lat="42.80081" lon="3.00439">
        <ele>1.2</ele>
        <time>1970-01-01T00:15:08Z</time>
      </trkpt>
      <trkpt lat="42.80082" lon="3.00434">
        <ele>1.2</ele>
        <time>1970-01-01T00:15:09Z</time>
      </trkpt>
      <trkpt lat="42.80084" lon="3.00429">
        <ele>1.2</ele>
        <time>1970-01-01T00:15:10Z</time>
      </trkpt>
      <trkpt lat="42.80085" lon="3.00423">
        <ele>1.2</ele>
        <time>1970-01-01T00:15:11Z</time>
      </trkpt>
      <trkpt lat="42.80086" lon="3.00418">
        <ele>1.2</ele>
        <time>1970-01-01T00:15:12Z</time>
      </trkpt>
      <trkpt lat="42.80087" lon="3.00413">
        <ele>1.2</ele>
        <time>1970-01-01T00:15:13Z</time>
      </trkpt>
      <trkpt lat="42.80088" lon="3.00408">
        <ele>1.2</ele>
        <time>1970-01-01T00:15:14Z</time>
      </trkpt>
      <trkpt lat="42.80089" lon="3.00402">
        <ele>1.2</ele>
        <time>1970-01-01T00:15:15Z</time>
      </trkpt>
      <trkpt lat="42.80091" lon="3.00397">
        <ele>1.2</ele>
        <time>1970-01-01T00:15:16Z</time>
      </trkpt>
      <trkpt lat="42.80092" lon="3.00392">
        <ele>1.2</ele>
        <time>1970-01-01T00:15:17Z</time>
      </trkpt>
      <trkpt lat="42.80093" lon="3.00386">
        <ele>1.2</ele>
        <time>1970-01-01T00:15:18Z</time>
      </trkpt>
      <trkpt lat="42.80095" lon="3.00381">
        <ele>1.2</ele>
        <time>1970-01-01T00:15:19Z</time>
      </trkpt>
      <trkpt lat="42.80096" lon="3.00376">
        <ele>1.2</ele>
        <time>1970-01-01T00:15:20Z</time>
      </trkpt>
      <trkpt lat="42.80098" lon="3.00371">
        <ele>1.2</ele>
        <time>1970-01-01T00:15:21Z</time>
      </trkpt>
      <trkpt lat="42.80099" lon="3.00366">
        <ele>1.2</ele>
        <time>1970-01-01T00:15:22Z</time>
      </trkpt>
      <trkpt lat="42.80101" lon="3.00361">
        <ele>1.2</ele>
        <time>1970-01-01T00:15:23Z</time>
      </trkpt>
      <trkpt lat="42.80102" lon="3.00356">
        <ele>1.2</ele>
        <time>1970-01-01T00:15:24Z</time>
      </trkpt>
      <trkpt lat="42.80104" lon="3.00351">
        <ele>1.2</ele>
        <time>1970-01-01T00:15:25Z</time>
      </trkpt>
      <trkpt lat="42.80105" lon="3.00346">
        <ele>1.2</ele>
        <time>1970-01-01T00:15:26Z</time>
      </trkpt>
      <trkpt lat="42.80106" lon="3.00341">
        <ele>1.2</ele>
        <time>1970-01-01T00:15:27Z</time>
      </trkpt>
      <trkpt lat="42.80108" lon="3.00336">
        <ele>1.2</ele>
        <time>1970-01-01T00:15:28Z</time>
      </trkpt>
      <trkpt lat="42.8011" lon="3.00331">
        <ele>1.2</ele>
        <time>1970-01-01T00:15:29Z</time>
      </trkpt>
      <trkpt lat="42.80111" lon="3.00326">
        <ele>1.2</ele>
        <time>1970-01-01T00:15:30Z</time>
      </trkpt>
      <trkpt lat="42.80112" lon="3.00321">
        <ele>1.2</ele>
        <time>1970-01-01T00:15:31Z</time>
      </trkpt>
      <trkpt lat="42.80114" lon="3.00316">
        <ele>1.2</ele>
        <time>1970-01-01T00:15:32Z</time>
      </trkpt>
      <trkpt lat="42.80115" lon="3.00311">
        <ele>1.2</ele>
        <time>1970-01-01T00:15:33Z</time>
      </trkpt>
      <trkpt lat="42.80117" lon="3.00306">
        <ele>1.2</ele>
        <time>1970-01-01T00:15:34Z</time>
      </trkpt>
      <trkpt lat="42.80118" lon="3.00301">
        <ele>1.2</ele>
        <time>1970-01-01T00:15:35Z</time>
      </trkpt>
      <trkpt lat="42.80119" lon="3.00296">
        <ele>1.2</ele>
        <time>1970-01-01T00:15:36Z</time>
      </trkpt>
      <trkpt lat="42.80121" lon="3.0029">
        <ele>1.2</ele>
        <time>1970-01-01T00:15:37Z</time>
      </trkpt>
      <trkpt lat="42.80122" lon="3.00285">
        <ele>1.2</ele>
        <time>1970-01-01T00:15:38Z</time>
      </trkpt>
      <trkpt lat="42.80124" lon="3.0028">
        <ele>1.2</ele>
        <time>1970-01-01T00:15:39Z</time>
      </trkpt>
      <trkpt lat="42.80125" lon="3.00275">
        <ele>1</ele>
        <time>1970-01-01T00:15:40Z</time>
      </trkpt>
      <trkpt lat="42.80127" lon="3.00269">
        <ele>1</ele>
        <time>1970-01-01T00:15:41Z</time>
      </trkpt>
      <trkpt lat="42.80128" lon="3.00264">
        <ele>1</ele>
        <time>1970-01-01T00:15:42Z</time>
      </trkpt>
      <trkpt lat="42.80129" lon="3.0026">
        <ele>1</ele>
        <time>1970-01-01T00:15:43Z</time>
      </trkpt>
      <trkpt lat="42.80131" lon="3.00254">
        <ele>1</ele>
        <time>1970-01-01T00:15:44Z</time>
      </trkpt>
      <trkpt lat="42.80132" lon="3.00249">
        <ele>1</ele>
        <time>1970-01-01T00:15:45Z</time>
      </trkpt>
      <trkpt lat="42.80134" lon="3.00244">
        <ele>1</ele>
        <time>1970-01-01T00:15:46Z</time>
      </trkpt>
      <trkpt lat="42.80135" lon="3.00238">
        <ele>1</ele>
        <time>1970-01-01T00:15:47Z</time>
      </trkpt>
      <trkpt lat="42.80137" lon="3.00233">
        <ele>1</ele>
        <time>1970-01-01T00:15:48Z</time>
      </trkpt>
      <trkpt lat="42.80138" lon="3.00228">
        <ele>1</ele>
        <time>1970-01-01T00:15:49Z</time>
      </trkpt>
      <trkpt lat="42.8014" lon="3.00222">
        <ele>1</ele>
        <time>1970-01-01T00:15:50Z</time>
      </trkpt>
      <trkpt lat="42.80141" lon="3.00218">
        <ele>1</ele>
        <time>1970-01-01T00:15:51Z</time>
      </trkpt>
      <trkpt lat="42.80142" lon="3.00213">
        <ele>1.2</ele>
        <time>1970-01-01T00:15:52Z</time>
      </trkpt>
      <trkpt lat="42.80143" lon="3.00208">
        <ele>1.2</ele>
        <time>1970-01-01T00:15:53Z</time>
      </trkpt>
      <trkpt lat="42.80144" lon="3.00203">
        <ele>1.2</ele>
        <time>1970-01-01T00:15:54Z</time>
      </trkpt>
      <trkpt lat="42.80145" lon="3.00198">
        <ele>1.2</ele>
        <time>1970-01-01T00:15:55Z</time>
      </trkpt>
      <trkpt lat="42.80146" lon="3.00192">
        <ele>1.2</ele>
        <time>1970-01-01T00:15:56Z</time>
      </trkpt>
      <trkpt lat="42.80146" lon="3.00188">
        <ele>1.2</ele>
        <time>1970-01-01T00:15:57Z</time>
      </trkpt>
      <trkpt lat="42.80146" lon="3.00183">
        <ele>1.2</ele>
        <time>1970-01-01T00:15:58Z</time>
      </trkpt>
      <trkpt lat="42.80146" lon="3.00178">
        <ele>1.2</ele>
        <time>1970-01-01T00:15:59Z</time>
      </trkpt>
      <trkpt lat="42.80145" lon="3.00173">
        <ele>1.2</ele>
        <time>1970-01-01T00:16:00Z</time>
      </trkpt>
      <trkpt lat="42.80145" lon="3.00168">
        <ele>1.2</ele>
        <time>1970-01-01T00:16:01Z</time>
      </trkpt>
      <trkpt lat="42.80144" lon="3.00162">
        <ele>1.2</ele>
        <time>1970-01-01T00:16:02Z</time>
      </trkpt>
      <trkpt lat="42.80143" lon="3.00156">
        <ele>1.2</ele>
        <time>1970-01-01T00:16:03Z</time>
      </trkpt>
      <trkpt lat="42.80143" lon="3.0015">
        <ele>1.2</ele>
        <time>1970-01-01T00:16:04Z</time>
      </trkpt>
      <trkpt lat="42.80142" lon="3.00145">
        <ele>1.2</ele>
        <time>1970-01-01T00:16:05Z</time>
      </trkpt>
      <trkpt lat="42.80141" lon="3.00139">
        <ele>1.2</ele>
        <time>1970-01-01T00:16:06Z</time>
      </trkpt>
      <trkpt lat="42.8014" lon="3.00134">
        <ele>1.2</ele>
        <time>1970-01-01T00:16:07Z</time>
      </trkpt>
      <trkpt lat="42.8014" lon="3.00128">
        <ele>1.2</ele>
        <time>1970-01-01T00:16:08Z</time>
      </trkpt>
      <trkpt lat="42.80139" lon="3.00123">
        <ele>1.2</ele>
        <time>1970-01-01T00:16:09Z</time>
      </trkpt>
      <trkpt lat="42.80138" lon="3.00117">
        <ele>1.2</ele>
        <time>1970-01-01T00:16:10Z</time>
      </trkpt>
      <trkpt lat="42.80138" lon="3.00112">
        <ele>1.2</ele>
        <time>1970-01-01T00:16:11Z</time>
      </trkpt>
      <trkpt lat="42.80137" lon="3.00106">
        <ele>1.2</ele>
        <time>1970-01-01T00:16:12Z</time>
      </trkpt>
      <trkpt lat="42.80136" lon="3.001">
        <ele>1.2</ele>
        <time>1970-01-01T00:16:13Z</time>
      </trkpt>
      <trkpt lat="42.80135" lon="3.00095">
        <ele>1.2</ele>
        <time>1970-01-01T00:16:14Z</time>
      </trkpt>
      <trkpt lat="42.80135" lon="3.00089">
        <ele>1.2</ele>
        <time>1970-01-01T00:16:15Z</time>
      </trkpt>
      <trkpt lat="42.80134" lon="3.00083">
        <ele>1.2</ele>
        <time>1970-01-01T00:16:16Z</time>
      </trkpt>
      <trkpt lat="42.80133" lon="3.00078">
        <ele>1.2</ele>
        <time>1970-01-01T00:16:17Z</time>
      </trkpt>
      <trkpt lat="42.80132" lon="3.00072">
        <ele>1.2</ele>
        <time>1970-01-01T00:16:18Z</time>
      </trkpt>
      <trkpt lat="42.80131" lon="3.00066">
        <ele>1.2</ele>
        <time>1970-01-01T00:16:19Z</time>
      </trkpt>
      <trkpt lat="42.8013" lon="3.00061">
        <ele>1.2</ele>
        <time>1970-01-01T00:16:20Z</time>
      </trkpt>
      <trkpt lat="42.8013" lon="3.00055">
        <ele>1.2</ele>
        <time>1970-01-01T00:16:21Z</time>
      </trkpt>
      <trkpt lat="42.80129" lon="3.0005">
        <ele>1.2</ele>
        <time>1970-01-01T00:16:22Z</time>
      </trkpt>
      <trkpt lat="42.80128" lon="3.00044">
        <ele>1</ele>
        <time>1970-01-01T00:16:23Z</time>
      </trkpt>
      <trkpt lat="42.80128" lon="3.00038">
        <ele>1</ele>
        <time>1970-01-01T00:16:24Z</time>
      </trkpt>
      <trkpt lat="42.80127" lon="3.00032">
        <ele>1</ele>
        <time>1970-01-01T00:16:25Z</time>
      </trkpt>
      <trkpt lat="42.80126" lon="3.00026">
        <ele>1</ele>
        <time>1970-01-01T00:16:26Z</time>
      </trkpt>
      <trkpt lat="42.80125" lon="3.00021">
        <ele>1</ele>
        <time>1970-01-01T00:16:27Z</time>
      </trkpt>
      <trkpt lat="42.80125" lon="3.00015">
        <ele>1.2</ele>
        <time>1970-01-01T00:16:28Z</time>
      </trkpt>
      <trkpt lat="42.80124" lon="3.00009">
        <ele>1.2</ele>
        <time>1970-01-01T00:16:29Z</time>
      </trkpt>
      <trkpt lat="42.80123" lon="3.00004">
        <ele>1.2</ele>
        <time>1970-01-01T00:16:30Z</time>
      </trkpt>
      <trkpt lat="42.80123" lon="2.99998">
        <ele>1.2</ele>
        <time>1970-01-01T00:16:31Z</time>
      </trkpt>
      <trkpt lat="42.80122" lon="2.99992">
        <ele>1.2</ele>
        <time>1970-01-01T00:16:32Z</time>
      </trkpt>
      <trkpt lat="42.80121" lon="2.99987">
        <ele>1.2</ele>
        <time>1970-01-01T00:16:33Z</time>
      </trkpt>
      <trkpt lat="42.8012" lon="2.99981">
        <ele>1</ele>
        <time>1970-01-01T00:16:34Z</time>
      </trkpt>
      <trkpt lat="42.80119" lon="2.99976">
        <ele>1</ele>
        <time>1970-01-01T00:16:35Z</time>
      </trkpt>
      <trkpt lat="42.80118" lon="2.9997">
        <ele>1</ele>
        <time>1970-01-01T00:16:36Z</time>
      </trkpt>
      <trkpt lat="42.80118" lon="2.99965">
        <ele>1</ele>
        <time>1970-01-01T00:16:37Z</time>
      </trkpt>
      <trkpt lat="42.80117" lon="2.99959">
        <ele>1</ele>
        <time>1970-01-01T00:16:38Z</time>
      </trkpt>
      <trkpt lat="42.80116" lon="2.99953">
        <ele>1</ele>
        <time>1970-01-01T00:16:39Z</time>
      </trkpt>
      <trkpt lat="42.80115" lon="2.99948">
        <ele>1</ele>
        <time>1970-01-01T00:16:40Z</time>
      </trkpt>
      <trkpt lat="42.80115" lon="2.99942">
        <ele>1</ele>
        <time>1970-01-01T00:16:41Z</time>
      </trkpt>
      <trkpt lat="42.80114" lon="2.99936">
        <ele>1</ele>
        <time>1970-01-01T00:16:42Z</time>
      </trkpt>
      <trkpt lat="42.80113" lon="2.9993">
        <ele>1</ele>
        <time>1970-01-01T00:16:43Z</time>
      </trkpt>
      <trkpt lat="42.80112" lon="2.99925">
        <ele>1</ele>
        <time>1970-01-01T00:16:44Z</time>
      </trkpt>
      <trkpt lat="42.80111" lon="2.99919">
        <ele>1</ele>
        <time>1970-01-01T00:16:45Z</time>
      </trkpt>
      <trkpt lat="42.8011" lon="2.99913">
        <ele>1</ele>
        <time>1970-01-01T00:16:46Z</time>
      </trkpt>
      <trkpt lat="42.80109" lon="2.99908">
        <ele>1</ele>
        <time>1970-01-01T00:16:47Z</time>
      </trkpt>
      <trkpt lat="42.80109" lon="2.99902">
        <ele>1</ele>
        <time>1970-01-01T00:16:48Z</time>
      </trkpt>
      <trkpt lat="42.80108" lon="2.99896">
        <ele>1</ele>
        <time>1970-01-01T00:16:49Z</time>
      </trkpt>
      <trkpt lat="42.80107" lon="2.9989">
        <ele>1</ele>
        <time>1970-01-01T00:16:50Z</time>
      </trkpt>
      <trkpt lat="42.80107" lon="2.99885">
        <ele>1</ele>
        <time>1970-01-01T00:16:51Z</time>
      </trkpt>
      <trkpt lat="42.80106" lon="2.99879">
        <ele>1</ele>
        <time>1970-01-01T00:16:52Z</time>
      </trkpt>
      <trkpt lat="42.80105" lon="2.99873">
        <ele>1.2</ele>
        <time>1970-01-01T00:16:53Z</time>
      </trkpt>
      <trkpt lat="42.80104" lon="2.99867">
        <ele>1.2</ele>
        <time>1970-01-01T00:16:54Z</time>
      </trkpt>
      <trkpt lat="42.80103" lon="2.99862">
        <ele>1.2</ele>
        <time>1970-01-01T00:16:55Z</time>
      </trkpt>
      <trkpt lat="42.80103" lon="2.99856">
        <ele>1.2</ele>
        <time>1970-01-01T00:16:56Z</time>
      </trkpt>
      <trkpt lat="42.80102" lon="2.9985">
        <ele>1.2</ele>
        <time>1970-01-01T00:16:57Z</time>
      </trkpt>
      <trkpt lat="42.80102" lon="2.99844">
        <ele>1.2</ele>
        <time>1970-01-01T00:16:58Z</time>
      </trkpt>
      <trkpt lat="42.80101" lon="2.99839">
        <ele>1.2</ele>
        <time>1970-01-01T00:16:59Z</time>
      </trkpt>
      <trkpt lat="42.801" lon="2.99833">
        <ele>1.2</ele>
        <time>1970-01-01T00:17:00Z</time>
      </trkpt>
      <trkpt lat="42.80099" lon="2.99827">
        <ele>1.2</ele>
        <time>1970-01-01T00:17:01Z</time>
      </trkpt>
      <trkpt lat="42.80099" lon="2.99821">
        <ele>1.2</ele>
        <time>1970-01-01T00:17:02Z</time>
      </trkpt>
      <trkpt lat="42.80098" lon="2.99816">
        <ele>1.2</ele>
        <time>1970-01-01T00:17:03Z</time>
      </trkpt>
      <trkpt lat="42.80097" lon="2.9981">
        <ele>1.2</ele>
        <time>1970-01-01T00:17:04Z</time>
      </trkpt>
      <trkpt lat="42.80096" lon="2.99804">
        <ele>1.2</ele>
        <time>1970-01-01T00:17:05Z</time>
      </trkpt>
      <trkpt lat="42.80096" lon="2.99799">
        <ele>1.2</ele>
        <time>1970-01-01T00:17:06Z</time>
      </trkpt>
      <trkpt lat="42.80095" lon="2.99793">
        <ele>1.2</ele>
        <time>1970-01-01T00:17:07Z</time>
      </trkpt>
      <trkpt lat="42.80094" lon="2.99787">
        <ele>1.2</ele>
        <time>1970-01-01T00:17:08Z</time>
      </trkpt>
      <trkpt lat="42.80093" lon="2.99781">
        <ele>1.2</ele>
        <time>1970-01-01T00:17:09Z</time>
      </trkpt>
      <trkpt lat="42.80093" lon="2.99776">
        <ele>1.2</ele>
        <time>1970-01-01T00:17:10Z</time>
      </trkpt>
      <trkpt lat="42.80092" lon="2.9977">
        <ele>1.2</ele>
        <time>1970-01-01T00:17:11Z</time>
      </trkpt>
      <trkpt lat="42.80091" lon="2.99764">
        <ele>1.2</ele>
        <time>1970-01-01T00:17:12Z</time>
      </trkpt>
      <trkpt lat="42.8009" lon="2.99759">
        <ele>1.2</ele>
        <time>1970-01-01T00:17:13Z</time>
      </trkpt>
      <trkpt lat="42.80089" lon="2.99753">
        <ele>1.2</ele>
        <time>1970-01-01T00:17:14Z</time>
      </trkpt>
      <trkpt lat="42.80089" lon="2.99748">
        <ele>1.2</ele>
        <time>1970-01-01T00:17:15Z</time>
      </trkpt>
      <trkpt lat="42.80088" lon="2.99742">
        <ele>1.4</ele>
        <time>1970-01-01T00:17:16Z</time>
      </trkpt>
      <trkpt lat="42.80087" lon="2.99737">
        <ele>1.4</ele>
        <time>1970-01-01T00:17:17Z</time>
      </trkpt>
      <trkpt lat="42.80086" lon="2.99731">
        <ele>1.4</ele>
        <time>1970-01-01T00:17:18Z</time>
      </trkpt>
      <trkpt lat="42.80085" lon="2.99726">
        <ele>1.4</ele>
        <time>1970-01-01T00:17:19Z</time>
      </trkpt>
      <trkpt lat="42.80084" lon="2.9972">
        <ele>1.4</ele>
        <time>1970-01-01T00:17:20Z</time>
      </trkpt>
      <trkpt lat="42.80083" lon="2.99715">
        <ele>1.4</ele>
        <time>1970-01-01T00:17:21Z</time>
      </trkpt>
      <trkpt lat="42.80083" lon="2.99709">
        <ele>1.4</ele>
        <time>1970-01-01T00:17:22Z</time>
      </trkpt>
      <trkpt lat="42.80082" lon="2.99704">
        <ele>1.4</ele>
        <time>1970-01-01T00:17:23Z</time>
      </trkpt>
      <trkpt lat="42.80081" lon="2.99699">
        <ele>1.4</ele>
        <time>1970-01-01T00:17:24Z</time>
      </trkpt>
      <trkpt lat="42.8008" lon="2.99693">
        <ele>1.4</ele>
        <time>1970-01-01T00:17:25Z</time>
      </trkpt>
      <trkpt lat="42.80079" lon="2.99688">
        <ele>1.4</ele>
        <time>1970-01-01T00:17:26Z</time>
      </trkpt>
      <trkpt lat="42.80078" lon="2.99683">
        <ele>1.4</ele>
        <time>1970-01-01T00:17:27Z</time>
      </trkpt>
      <trkpt lat="42.80078" lon="2.99678">
        <ele>1.4</ele>
        <time>1970-01-01T00:17:28Z</time>
      </trkpt>
      <trkpt lat="42.80077" lon="2.99673">
        <ele>1.4</ele>
        <time>1970-01-01T00:17:29Z</time>
      </trkpt>
      <trkpt lat="42.80076" lon="2.99667">
        <ele>1.4</ele>
        <time>1970-01-01T00:17:30Z</time>
      </trkpt>
      <trkpt lat="42.80075" lon="2.99662">
        <ele>1.4</ele>
        <time>1970-01-01T00:17:31Z</time>
      </trkpt>
      <trkpt lat="42.80074" lon="2.99657">
        <ele>1.4</ele>
        <time>1970-01-01T00:17:32Z</time>
      </trkpt>
      <trkpt lat="42.80073" lon="2.99652">
        <ele>1.4</ele>
        <time>1970-01-01T00:17:33Z</time>
      </trkpt>
      <trkpt lat="42.80071" lon="2.99647">
        <ele>1.4</ele>
        <time>1970-01-01T00:17:34Z</time>
      </trkpt>
      <trkpt lat="42.8007" lon="2.99641">
        <ele>1.4</ele>
        <time>1970-01-01T00:17:35Z</time>
      </trkpt>
      <trkpt lat="42.80068" lon="2.99636">
        <ele>1.4</ele>
        <time>1970-01-01T00:17:36Z</time>
      </trkpt>
      <trkpt lat="42.80067" lon="2.99631">
        <ele>1.4</ele>
        <time>1970-01-01T00:17:37Z</time>
      </trkpt>
      <trkpt lat="42.80065" lon="2.99626">
        <ele>1.4</ele>
        <time>1970-01-01T00:17:38Z</time>
      </trkpt>
      <trkpt lat="42.80063" lon="2.99621">
        <ele>1.4</ele>
        <time>1970-01-01T00:17:39Z</time>
      </trkpt>
      <trkpt lat="42.80062" lon="2.99616">
        <ele>1.4</ele>
        <time>1970-01-01T00:17:40Z</time>
      </trkpt>
      <trkpt lat="42.80059" lon="2.99612">
        <ele>1.4</ele>
        <time>1970-01-01T00:17:41Z</time>
      </trkpt>
      <trkpt lat="42.80057" lon="2.99607">
        <ele>1.4</ele>
        <time>1970-01-01T00:17:42Z</time>
      </trkpt>
      <trkpt lat="42.80054" lon="2.99604">
        <ele>1.4</ele>
        <time>1970-01-01T00:17:43Z</time>
      </trkpt>
      <trkpt lat="42.8005" lon="2.99602">
        <ele>1.4</ele>
        <time>1970-01-01T00:17:44Z</time>
      </trkpt>
      <trkpt lat="42.80047" lon="2.99602">
        <ele>1.4</ele>
        <time>1970-01-01T00:17:45Z</time>
      </trkpt>
      <trkpt lat="42.80043" lon="2.99602">
        <ele>1.4</ele>
        <time>1970-01-01T00:17:46Z</time>
      </trkpt>
      <trkpt lat="42.80039" lon="2.99603">
        <ele>1.4</ele>
        <time>1970-01-01T00:17:47Z</time>
      </trkpt>
      <trkpt lat="42.80036" lon="2.99602">
        <ele>1.4</ele>
        <time>1970-01-01T00:17:48Z</time>
      </trkpt>
      <trkpt lat="42.80032" lon="2.99601">
        <ele>1.4</ele>
        <time>1970-01-01T00:17:49Z</time>
      </trkpt>
      <trkpt lat="42.8003" lon="2.99598">
        <ele>1.2</ele>
        <time>1970-01-01T00:17:50Z</time>
      </trkpt>
      <trkpt lat="42.80028" lon="2.99595">
        <ele>1.2</ele>
        <time>1970-01-01T00:17:51Z</time>
      </trkpt>
      <trkpt lat="42.80026" lon="2.99591">
        <ele>1</ele>
        <time>1970-01-01T00:17:52Z</time>
      </trkpt>
      <trkpt lat="42.80025" lon="2.99586">
        <ele>0.80000000000001</ele>
        <time>1970-01-01T00:17:53Z</time>
      </trkpt>
      <trkpt lat="42.80024" lon="2.99582">
        <ele>0.80000000000001</ele>
        <time>1970-01-01T00:17:54Z</time>
      </trkpt>
      <trkpt lat="42.80023" lon="2.99577">
        <ele>0.60000000000002</ele>
        <time>1970-01-01T00:17:55Z</time>
      </trkpt>
      <trkpt lat="42.80022" lon="2.99573">
        <ele>0.60000000000002</ele>
        <time>1970-01-01T00:17:56Z</time>
      </trkpt>
      <trkpt lat="42.80021" lon="2.99569">
        <ele>0.39999999999998</ele>
        <time>1970-01-01T00:17:57Z</time>
      </trkpt>
      <trkpt lat="42.80021" lon="2.99565">
        <ele>0.39999999999998</ele>
        <time>1970-01-01T00:17:58Z</time>
      </trkpt>
      <trkpt lat="42.8002" lon="2.99561">
        <ele>0.39999999999998</ele>
        <time>1970-01-01T00:17:59Z</time>
      </trkpt>
      <trkpt lat="42.8002" lon="2.99557">
        <ele>0.39999999999998</ele>
        <time>1970-01-01T00:18:00Z</time>
      </trkpt>
      <trkpt lat="42.80019" lon="2.99553">
        <ele>0.39999999999998</ele>
        <time>1970-01-01T00:18:01Z</time>
      </trkpt>
      <trkpt lat="42.80019" lon="2.99549">
        <ele>0.39999999999998</ele>
        <time>1970-01-01T00:18:02Z</time>
      </trkpt>
      <trkpt lat="42.80019" lon="2.99544">
        <ele>0.39999999999998</ele>
        <time>1970-01-01T00:18:03Z</time>
      </trkpt>
      <trkpt lat="42.80019" lon="2.99542">
        <ele>0.39999999999998</ele>
        <time>1970-01-01T00:18:04Z</time>
      </trkpt>
      <trkpt lat="42.80019" lon="2.99537">
        <ele>0.60000000000002</ele>
        <time>1970-01-01T00:18:05Z</time>
      </trkpt>
      <trkpt lat="42.80019" lon="2.99535">
        <ele>0.60000000000002</ele>
        <time>1970-01-01T00:18:06Z</time>
      </trkpt>
      <trkpt lat="42.80018" lon="2.99529">
        <ele>0.60000000000002</ele>
        <time>1970-01-01T00:18:07Z</time>
      </trkpt>
      <trkpt lat="42.80017" lon="2.99528">
        <ele>0.60000000000002</ele>
        <time>1970-01-01T00:18:08Z</time>
      </trkpt>
      <trkpt lat="42.80017" lon="2.99524">
        <ele>0.60000000000002</ele>
        <time>1970-01-01T00:18:09Z</time>
      </trkpt>
      <trkpt lat="42.80016" lon="2.9952">
        <ele>0.60000000000002</ele>
        <time>1970-01-01T00:18:10Z</time>
      </trkpt>
      <trkpt lat="42.80016" lon="2.99515">
        <ele>0.60000000000002</ele>
        <time>1970-01-01T00:18:11Z</time>
      </trkpt>
      <trkpt lat="42.80016" lon="2.99513">
        <ele>0.60000000000002</ele>
        <time>1970-01-01T00:18:12Z</time>
      </trkpt>
      <trkpt lat="42.80017" lon="2.99508">
        <ele>0.80000000000001</ele>
        <time>1970-01-01T00:18:13Z</time>
      </trkpt>
      <trkpt lat="42.80018" lon="2.99506">
        <ele>0.80000000000001</ele>
        <time>1970-01-01T00:18:14Z</time>
      </trkpt>
      <trkpt lat="42.8002" lon="2.99502">
        <ele>0.80000000000001</ele>
        <time>1970-01-01T00:18:15Z</time>
      </trkpt>
      <trkpt lat="42.80021" lon="2.99501">
        <ele>0.80000000000001</ele>
        <time>1970-01-01T00:18:16Z</time>
      </trkpt>
      <trkpt lat="42.80022" lon="2.99496">
        <ele>0.80000000000001</ele>
        <time>1970-01-01T00:18:17Z</time>
      </trkpt>
      <trkpt lat="42.80022" lon="2.99494">
        <ele>0.80000000000001</ele>
        <time>1970-01-01T00:18:18Z</time>
      </trkpt>
      <trkpt lat="42.80022" lon="2.9949">
        <ele>0.80000000000001</ele>
        <time>1970-01-01T00:18:19Z</time>
      </trkpt>
      <trkpt lat="42.80022" lon="2.99486">
        <ele>0.80000000000001</ele>
        <time>1970-01-01T00:18:20Z</time>
      </trkpt>
      <trkpt lat="42.80022" lon="2.99482">
        <ele>0.80000000000001</ele>
        <time>1970-01-01T00:18:21Z</time>
      </trkpt>
      <trkpt lat="42.80022" lon="2.99478">
        <ele>0.80000000000001</ele>
        <time>1970-01-01T00:18:22Z</time>
      </trkpt>
      <trkpt lat="42.80022" lon="2.99474">
        <ele>0.80000000000001</ele>
        <time>1970-01-01T00:18:23Z</time>
      </trkpt>
      <trkpt lat="42.80023" lon="2.9947">
        <ele>0.80000000000001</ele>
        <time>1970-01-01T00:18:24Z</time>
      </trkpt>
      <trkpt lat="42.80024" lon="2.99466">
        <ele>0.80000000000001</ele>
        <time>1970-01-01T00:18:25Z</time>
      </trkpt>
      <trkpt lat="42.80026" lon="2.99462">
        <ele>0.80000000000001</ele>
        <time>1970-01-01T00:18:26Z</time>
      </trkpt>
      <trkpt lat="42.80027" lon="2.99458">
        <ele>0.80000000000001</ele>
        <time>1970-01-01T00:18:27Z</time>
      </trkpt>
      <trkpt lat="42.80027" lon="2.99454">
        <ele>0.80000000000001</ele>
        <time>1970-01-01T00:18:28Z</time>
      </trkpt>
      <trkpt lat="42.80026" lon="2.9945">
        <ele>0.60000000000002</ele>
        <time>1970-01-01T00:18:29Z</time>
      </trkpt>
      <trkpt lat="42.80025" lon="2.99446">
        <ele>0.60000000000002</ele>
        <time>1970-01-01T00:18:30Z</time>
      </trkpt>
      <trkpt lat="42.80023" lon="2.99442">
        <ele>0.60000000000002</ele>
        <time>1970-01-01T00:18:31Z</time>
      </trkpt>
      <trkpt lat="42.80022" lon="2.99437">
        <ele>0.60000000000002</ele>
        <time>1970-01-01T00:18:32Z</time>
      </trkpt>
      <trkpt lat="42.80021" lon="2.99433">
        <ele>0.60000000000002</ele>
        <time>1970-01-01T00:18:33Z</time>
      </trkpt>
      <trkpt lat="42.8002" lon="2.99428">
        <ele>0.60000000000002</ele>
        <time>1970-01-01T00:18:34Z</time>
      </trkpt>
      <trkpt lat="42.8002" lon="2.99423">
        <ele>0.60000000000002</ele>
        <time>1970-01-01T00:18:35Z</time>
      </trkpt>
      <trkpt lat="42.80019" lon="2.99418">
        <ele>0.60000000000002</ele>
        <time>1970-01-01T00:18:36Z</time>
      </trkpt>
      <trkpt lat="42.80019" lon="2.99413">
        <ele>0.60000000000002</ele>
        <time>1970-01-01T00:18:37Z</time>
      </trkpt>
      <trkpt lat="42.80018" lon="2.99409">
        <ele>0.60000000000002</ele>
        <time>1970-01-01T00:18:38Z</time>
      </trkpt>
      <trkpt lat="42.80018" lon="2.99404">
        <ele>0.60000000000002</ele>
        <time>1970-01-01T00:18:39Z</time>
      </trkpt>
      <trkpt lat="42.80017" lon="2.994">
        <ele>0.60000000000002</ele>
        <time>1970-01-01T00:18:40Z</time>
      </trkpt>
      <trkpt lat="42.80016" lon="2.99395">
        <ele>0.60000000000002</ele>
        <time>1970-01-01T00:18:41Z</time>
      </trkpt>
      <trkpt lat="42.80014" lon="2.99392">
        <ele>0.60000000000002</ele>
        <time>1970-01-01T00:18:42Z</time>
      </trkpt>
      <trkpt lat="42.80013" lon="2.99388">
        <ele>0.60000000000002</ele>
        <time>1970-01-01T00:18:43Z</time>
      </trkpt>
      <trkpt lat="42.80013" lon="2.99386">
        <ele>0.60000000000002</ele>
        <time>1970-01-01T00:18:44Z</time>
      </trkpt>
      <trkpt lat="42.80012" lon="2.99384">
        <ele>0.60000000000002</ele>
        <time>1970-01-01T00:18:45Z</time>
      </trkpt>
      <trkpt lat="42.80012" lon="2.99382">
        <ele>0.60000000000002</ele>
        <time>1970-01-01T00:18:46Z</time>
      </trkpt>
      <trkpt lat="42.80012" lon="2.99379">
        <ele>0.60000000000002</ele>
        <time>1970-01-01T00:18:47Z</time>
      </trkpt>
      <trkpt lat="42.80011" lon="2.99375">
        <ele>0.60000000000002</ele>
        <time>1970-01-01T00:18:48Z</time>
      </trkpt>
      <trkpt lat="42.80011" lon="2.99373">
        <ele>0.60000000000002</ele>
        <time>1970-01-01T00:18:49Z</time>
      </trkpt>
      <trkpt lat="42.80011" lon="2.99368">
        <ele>0.60000000000002</ele>
        <time>1970-01-01T00:18:50Z</time>
      </trkpt>
      <trkpt lat="42.80011" lon="2.99367">
        <ele>0.60000000000002</ele>
        <time>1970-01-01T00:18:51Z</time>
      </trkpt>
      <trkpt lat="42.8001" lon="2.99362">
        <ele>0.60000000000002</ele>
        <time>1970-01-01T00:18:52Z</time>
      </trkpt>
      <trkpt lat="42.8001" lon="2.99361">
        <ele>0.60000000000002</ele>
        <time>1970-01-01T00:18:53Z</time>
      </trkpt>
      <trkpt lat="42.8001" lon="2.9936">
        <ele>0.60000000000002</ele>
        <time>1970-01-01T00:18:54Z</time>
      </trkpt>
      <trkpt lat="42.8001" lon="2.99361">
        <ele>0.60000000000002</ele>
        <time>1970-01-01T00:18:55Z</time>
      </trkpt>
      <trkpt lat="42.8001" lon="2.9936">
        <ele>0.60000000000002</ele>
        <time>1970-01-01T00:18:56Z</time>
      </trkpt>
      <trkpt lat="42.8001" lon="2.99358">
        <ele>0.60000000000002</ele>
        <time>1970-01-01T00:18:57Z</time>
      </trkpt>
      <trkpt lat="42.80009" lon="2.99358">
        <ele>0.60000000000002</ele>
        <time>1970-01-01T00:18:58Z</time>
      </trkpt>
      <trkpt lat="42.80009" lon="2.99357">
        <ele>0.60000000000002</ele>
        <time>1970-01-01T00:18:59Z</time>
      </trkpt>
      <trkpt lat="42.80009" lon="2.99356">
        <ele>0.60000000000002</ele>
        <time>1970-01-01T00:19:00Z</time>
      </trkpt>
      <trkpt lat="42.80009" lon="2.99355">
        <ele>0.60000000000002</ele>
        <time>1970-01-01T00:19:01Z</time>
      </trkpt>
      <trkpt lat="42.80008" lon="2.99354">
        <ele>0.60000000000002</ele>
        <time>1970-01-01T00:19:02Z</time>
      </trkpt>
      <trkpt lat="42.80008" lon="2.99353">
        <ele>0.60000000000002</ele>
        <time>1970-01-01T00:19:03Z</time>
      </trkpt>
      <trkpt lat="42.80008" lon="2.99352">
        <ele>0.60000000000002</ele>
        <time>1970-01-01T00:19:04Z</time>
      </trkpt>
      <trkpt lat="42.80008" lon="2.9935">
        <ele>0.60000000000002</ele>
        <time>1970-01-01T00:19:05Z</time>
      </trkpt>
      <trkpt lat="42.80008" lon="2.99349">
        <ele>0.60000000000002</ele>
        <time>1970-01-01T00:19:06Z</time>
      </trkpt>
      <trkpt lat="42.80007" lon="2.99348">
        <ele>0.60000000000002</ele>
        <time>1970-01-01T00:19:07Z</time>
      </trkpt>
      <trkpt lat="42.80007" lon="2.99347">
        <ele>0.60000000000002</ele>
        <time>1970-01-01T00:19:08Z</time>
      </trkpt>
      <trkpt lat="42.80007" lon="2.99346">
        <ele>0.60000000000002</ele>
        <time>1970-01-01T00:19:09Z</time>
      </trkpt>
      <trkpt lat="42.80006" lon="2.99345">
        <ele>0.60000000000002</ele>
        <time>1970-01-01T00:19:10Z</time>
      </trkpt>
      <trkpt lat="42.80006" lon="2.99344">
        <ele>0.60000000000002</ele>
        <time>1970-01-01T00:19:11Z</time>
      </trkpt>
      <trkpt lat="42.80005" lon="2.99342">
        <ele>0.60000000000002</ele>
        <time>1970-01-01T00:19:12Z</time>
      </trkpt>
      <trkpt lat="42.80004" lon="2.9934">
        <ele>0.60000000000002</ele>
        <time>1970-01-01T00:19:13Z</time>
      </trkpt>
      <trkpt lat="42.80004" lon="2.99336">
        <ele>0.60000000000002</ele>
        <time>1970-01-01T00:19:14Z</time>
      </trkpt>
      <trkpt lat="42.80004" lon="2.99335">
        <ele>0.60000000000002</ele>
        <time>1970-01-01T00:19:15Z</time>
      </trkpt>
      <trkpt lat="42.80003" lon="2.9933">
        <ele>0.60000000000002</ele>
        <time>1970-01-01T00:19:16Z</time>
      </trkpt>
      <trkpt lat="42.80003" lon="2.99329">
        <ele>0.60000000000002</ele>
        <time>1970-01-01T00:19:17Z</time>
      </trkpt>
      <trkpt lat="42.80002" lon="2.99325">
        <ele>0.60000000000002</ele>
        <time>1970-01-01T00:19:18Z</time>
      </trkpt>
      <trkpt lat="42.80002" lon="2.99324">
        <ele>0.60000000000002</ele>
        <time>1970-01-01T00:19:19Z</time>
      </trkpt>
      <trkpt lat="42.80001" lon="2.9932">
        <ele>0.60000000000002</ele>
        <time>1970-01-01T00:19:20Z</time>
      </trkpt>
      <trkpt lat="42.8" lon="2.99319">
        <ele>0.60000000000002</ele>
        <time>1970-01-01T00:19:21Z</time>
      </trkpt>
      <trkpt lat="42.79998" lon="2.99314">
        <ele>0.60000000000002</ele>
        <time>1970-01-01T00:19:22Z</time>
      </trkpt>
      <trkpt lat="42.79998" lon="2.99313">
        <ele>0.60000000000002</ele>
        <time>1970-01-01T00:19:23Z</time>
      </trkpt>
      <trkpt lat="42.79996" lon="2.99308">
        <ele>0.60000000000002</ele>
        <time>1970-01-01T00:19:24Z</time>
      </trkpt>
      <trkpt lat="42.79995" lon="2.99306">
        <ele>0.60000000000002</ele>
        <time>1970-01-01T00:19:25Z</time>
      </trkpt>
      <trkpt lat="42.79993" lon="2.99302">
        <ele>0.60000000000002</ele>
        <time>1970-01-01T00:19:26Z</time>
      </trkpt>
      <trkpt lat="42.79993" lon="2.993">
        <ele>0.60000000000002</ele>
        <time>1970-01-01T00:19:27Z</time>
      </trkpt>
      <trkpt lat="42.79991" lon="2.99297">
        <ele>0.60000000000002</ele>
        <time>1970-01-01T00:19:28Z</time>
      </trkpt>
      <trkpt lat="42.7999" lon="2.99293">
        <ele>0.60000000000002</ele>
        <time>1970-01-01T00:19:29Z</time>
      </trkpt>
      <trkpt lat="42.79988" lon="2.99289">
        <ele>0.60000000000002</ele>
        <time>1970-01-01T00:19:30Z</time>
      </trkpt>
      <trkpt lat="42.79987" lon="2.99285">
        <ele>0.60000000000002</ele>
        <time>1970-01-01T00:19:31Z</time>
      </trkpt>
      <trkpt lat="42.79986" lon="2.9928">
        <ele>0.60000000000002</ele>
        <time>1970-01-01T00:19:32Z</time>
      </trkpt>
      <trkpt lat="42.79985" lon="2.99276">
        <ele>0.60000000000002</ele>
        <time>1970-01-01T00:19:33Z</time>
      </trkpt>
      <trkpt lat="42.79984" lon="2.99272">
        <ele>0.60000000000002</ele>
        <time>1970-01-01T00:19:34Z</time>
      </trkpt>
      <trkpt lat="42.79984" lon="2.99267">
        <ele>0.60000000000002</ele>
        <time>1970-01-01T00:19:35Z</time>
      </trkpt>
      <trkpt lat="42.79983" lon="2.99263">
        <ele>0.60000000000002</ele>
        <time>1970-01-01T00:19:36Z</time>
      </trkpt>
      <trkpt lat="42.79982" lon="2.99259">
        <ele>0.60000000000002</ele>
        <time>1970-01-01T00:19:37Z</time>
      </trkpt>
      <trkpt lat="42.7998" lon="2.99255">
        <ele>0.60000000000002</ele>
        <time>1970-01-01T00:19:38Z</time>
      </trkpt>
      <trkpt lat="42.79979" lon="2.9925">
        <ele>0.60000000000002</ele>
        <time>1970-01-01T00:19:39Z</time>
      </trkpt>
      <trkpt lat="42.79978" lon="2.99246">
        <ele>0.60000000000002</ele>
        <time>1970-01-01T00:19:40Z</time>
      </trkpt>
      <trkpt lat="42.79976" lon="2.99242">
        <ele>0.60000000000002</ele>
        <time>1970-01-01T00:19:41Z</time>
      </trkpt>
      <trkpt lat="42.79975" lon="2.99237">
        <ele>0.60000000000002</ele>
        <time>1970-01-01T00:19:42Z</time>
      </trkpt>
      <trkpt lat="42.79974" lon="2.99233">
        <ele>0.60000000000002</ele>
        <time>1970-01-01T00:19:43Z</time>
      </trkpt>
      <trkpt lat="42.79973" lon="2.99229">
        <ele>0.60000000000002</ele>
        <time>1970-01-01T00:19:44Z</time>
      </trkpt>
      <trkpt lat="42.79972" lon="2.99224">
        <ele>0.60000000000002</ele>
        <time>1970-01-01T00:19:45Z</time>
      </trkpt>
      <trkpt lat="42.7997" lon="2.9922">
        <ele>0.60000000000002</ele>
        <time>1970-01-01T00:19:46Z</time>
      </trkpt>
      <trkpt lat="42.79969" lon="2.99215">
        <ele>0.60000000000002</ele>
        <time>1970-01-01T00:19:47Z</time>
      </trkpt>
      <trkpt lat="42.79968" lon="2.9921">
        <ele>0.60000000000002</ele>
        <time>1970-01-01T00:19:48Z</time>
      </trkpt>
      <trkpt lat="42.79966" lon="2.99206">
        <ele>0.60000000000002</ele>
        <time>1970-01-01T00:19:49Z</time>
      </trkpt>
      <trkpt lat="42.79965" lon="2.99202">
        <ele>0.60000000000002</ele>
        <time>1970-01-01T00:19:50Z</time>
      </trkpt>
      <trkpt lat="42.79963" lon="2.99197">
        <ele>0.60000000000002</ele>
        <time>1970-01-01T00:19:51Z</time>
      </trkpt>
      <trkpt lat="42.79962" lon="2.99193">
        <ele>0.60000000000002</ele>
        <time>1970-01-01T00:19:52Z</time>
      </trkpt>
      <trkpt lat="42.79961" lon="2.99188">
        <ele>0.60000000000002</ele>
        <time>1970-01-01T00:19:53Z</time>
      </trkpt>
      <trkpt lat="42.7996" lon="2.99183">
        <ele>0.60000000000002</ele>
        <time>1970-01-01T00:19:54Z</time>
      </trkpt>
      <trkpt lat="42.79959" lon="2.99178">
        <ele>0.60000000000002</ele>
        <time>1970-01-01T00:19:55Z</time>
      </trkpt>
      <trkpt lat="42.79958" lon="2.99173">
        <ele>0.60000000000002</ele>
        <time>1970-01-01T00:19:56Z</time>
      </trkpt>
      <trkpt lat="42.79957" lon="2.99168">
        <ele>0.60000000000002</ele>
        <time>1970-01-01T00:19:57Z</time>
      </trkpt>
      <trkpt lat="42.79956" lon="2.99163">
        <ele>0.60000000000002</ele>
        <time>1970-01-01T00:19:58Z</time>
      </trkpt>
      <trkpt lat="42.79956" lon="2.99158">
        <ele>0.60000000000002</ele>
        <time>1970-01-01T00:19:59Z</time>
      </trkpt>
      <trkpt lat="42.79956" lon="2.99152">
        <ele>0.60000000000002</ele>
        <time>1970-01-01T00:20:00Z</time>
      </trkpt>
      <trkpt lat="42.79956" lon="2.99147">
        <ele>0.60000000000002</ele>
        <time>1970-01-01T00:20:01Z</time>
      </trkpt>
      <trkpt lat="42.79956" lon="2.99142">
        <ele>0.60000000000002</ele>
        <time>1970-01-01T00:20:02Z</time>
      </trkpt>
      <trkpt lat="42.79955" lon="2.99137">
        <ele>0.60000000000002</ele>
        <time>1970-01-01T00:20:03Z</time>
      </trkpt>
      <trkpt lat="42.79955" lon="2.99132">
        <ele>0.60000000000002</ele>
        <time>1970-01-01T00:20:04Z</time>
      </trkpt>
      <trkpt lat="42.79954" lon="2.99127">
        <ele>0.60000000000002</ele>
        <time>1970-01-01T00:20:05Z</time>
      </trkpt>
      <trkpt lat="42.79954" lon="2.99122">
        <ele>0.60000000000002</ele>
        <time>1970-01-01T00:20:06Z</time>
      </trkpt>
      <trkpt lat="42.79954" lon="2.99118">
        <ele>0.60000000000002</ele>
        <time>1970-01-01T00:20:07Z</time>
      </trkpt>
      <trkpt lat="42.79954" lon="2.99113">
        <ele>0.80000000000001</ele>
        <time>1970-01-01T00:20:08Z</time>
      </trkpt>
      <trkpt lat="42.79954" lon="2.99109">
        <ele>0.80000000000001</ele>
        <time>1970-01-01T00:20:09Z</time>
      </trkpt>
      <trkpt lat="42.79953" lon="2.99104">
        <ele>0.80000000000001</ele>
        <time>1970-01-01T00:20:10Z</time>
      </trkpt>
      <trkpt lat="42.79953" lon="2.99103">
        <ele>0.80000000000001</ele>
        <time>1970-01-01T00:20:11Z</time>
      </trkpt>
      <trkpt lat="42.79954" lon="2.99098">
        <ele>0.80000000000001</ele>
        <time>1970-01-01T00:20:12Z</time>
      </trkpt>
      <trkpt lat="42.79954" lon="2.99096">
        <ele>0.80000000000001</ele>
        <time>1970-01-01T00:20:13Z</time>
      </trkpt>
      <trkpt lat="42.79954" lon="2.9909">
        <ele>0.80000000000001</ele>
        <time>1970-01-01T00:20:14Z</time>
      </trkpt>
      <trkpt lat="42.79954" lon="2.99088">
        <ele>0.80000000000001</ele>
        <time>1970-01-01T00:20:15Z</time>
      </trkpt>
      <trkpt lat="42.79954" lon="2.99084">
        <ele>0.80000000000001</ele>
        <time>1970-01-01T00:20:16Z</time>
      </trkpt>
      <trkpt lat="42.79954" lon="2.9908">
        <ele>0.80000000000001</ele>
        <time>1970-01-01T00:20:17Z</time>
      </trkpt>
      <trkpt lat="42.79953" lon="2.99076">
        <ele>0.60000000000002</ele>
        <time>1970-01-01T00:20:18Z</time>
      </trkpt>
      <trkpt lat="42.79953" lon="2.99072">
        <ele>0.60000000000002</ele>
        <time>1970-01-01T00:20:19Z</time>
      </trkpt>
      <trkpt lat="42.79953" lon="2.99068">
        <ele>0.60000000000002</ele>
        <time>1970-01-01T00:20:20Z</time>
      </trkpt>
      <trkpt lat="42.79953" lon="2.99063">
        <ele>0.60000000000002</ele>
        <time>1970-01-01T00:20:21Z</time>
      </trkpt>
      <trkpt lat="42.79953" lon="2.99059">
        <ele>0.60000000000002</ele>
        <time>1970-01-01T00:20:22Z</time>
      </trkpt>
      <trkpt lat="42.79953" lon="2.99054">
        <ele>0.60000000000002</ele>
        <time>1970-01-01T00:20:23Z</time>
      </trkpt>
      <trkpt lat="42.79953" lon="2.99049">
        <ele>0.60000000000002</ele>
        <time>1970-01-01T00:20:24Z</time>
      </trkpt>
      <trkpt lat="42.79953" lon="2.99045">
        <ele>0.60000000000002</ele>
        <time>1970-01-01T00:20:25Z</time>
      </trkpt>
      <trkpt lat="42.79953" lon="2.9904">
        <ele>0.60000000000002</ele>
        <time>1970-01-01T00:20:26Z</time>
      </trkpt>
      <trkpt lat="42.79953" lon="2.99035">
        <ele>0.60000000000002</ele>
        <time>1970-01-01T00:20:27Z</time>
      </trkpt>
      <trkpt lat="42.79953" lon="2.99031">
        <ele>0.39999999999998</ele>
        <time>1970-01-01T00:20:28Z</time>
      </trkpt>
      <trkpt lat="42.79953" lon="2.99027">
        <ele>0.39999999999998</ele>
        <time>1970-01-01T00:20:29Z</time>
      </trkpt>
      <trkpt lat="42.79953" lon="2.99022">
        <ele>0.39999999999998</ele>
        <time>1970-01-01T00:20:30Z</time>
      </trkpt>
      <trkpt lat="42.79952" lon="2.99018">
        <ele>0.39999999999998</ele>
        <time>1970-01-01T00:20:31Z</time>
      </trkpt>
      <trkpt lat="42.79952" lon="2.99013">
        <ele>0.39999999999998</ele>
        <time>1970-01-01T00:20:32Z</time>
      </trkpt>
      <trkpt lat="42.79952" lon="2.99009">
        <ele>0.39999999999998</ele>
        <time>1970-01-01T00:20:33Z</time>
      </trkpt>
      <trkpt lat="42.79952" lon="2.99005">
        <ele>0.39999999999998</ele>
        <time>1970-01-01T00:20:34Z</time>
      </trkpt>
      <trkpt lat="42.79952" lon="2.99001">
        <ele>0.39999999999998</ele>
        <time>1970-01-01T00:20:35Z</time>
      </trkpt>
      <trkpt lat="42.79952" lon="2.98997">
        <ele>0.39999999999998</ele>
        <time>1970-01-01T00:20:36Z</time>
      </trkpt>
      <trkpt lat="42.79952" lon="2.98994">
        <ele>0.39999999999998</ele>
        <time>1970-01-01T00:20:37Z</time>
      </trkpt>
      <trkpt lat="42.79952" lon="2.98989">
        <ele>0.39999999999998</ele>
        <time>1970-01-01T00:20:38Z</time>
      </trkpt>
      <trkpt lat="42.79952" lon="2.98985">
        <ele>0.39999999999998</ele>
        <time>1970-01-01T00:20:39Z</time>
      </trkpt>
      <trkpt lat="42.79952" lon="2.98981">
        <ele>0.39999999999998</ele>
        <time>1970-01-01T00:20:40Z</time>
      </trkpt>
      <trkpt lat="42.79952" lon="2.98977">
        <ele>0.39999999999998</ele>
        <time>1970-01-01T00:20:41Z</time>
      </trkpt>
      <trkpt lat="42.79952" lon="2.98973">
        <ele>0.39999999999998</ele>
        <time>1970-01-01T00:20:42Z</time>
      </trkpt>
      <trkpt lat="42.79952" lon="2.98968">
        <ele>0.39999999999998</ele>
        <time>1970-01-01T00:20:43Z</time>
      </trkpt>
      <trkpt lat="42.79953" lon="2.98964">
        <ele>0.39999999999998</ele>
        <time>1970-01-01T00:20:44Z</time>
      </trkpt>
      <trkpt lat="42.79953" lon="2.98959">
        <ele>0.39999999999998</ele>
        <time>1970-01-01T00:20:45Z</time>
      </trkpt>
      <trkpt lat="42.79954" lon="2.98955">
        <ele>0.39999999999998</ele>
        <time>1970-01-01T00:20:46Z</time>
      </trkpt>
      <trkpt lat="42.79954" lon="2.98951">
        <ele>0.39999999999998</ele>
        <time>1970-01-01T00:20:47Z</time>
      </trkpt>
      <trkpt lat="42.79955" lon="2.98947">
        <ele>0.39999999999998</ele>
        <time>1970-01-01T00:20:48Z</time>
      </trkpt>
      <trkpt lat="42.79955" lon="2.98943">
        <ele>0.39999999999998</ele>
        <time>1970-01-01T00:20:49Z</time>
      </trkpt>
      <trkpt lat="42.79956" lon="2.9894">
        <ele>0.39999999999998</ele>
        <time>1970-01-01T00:20:50Z</time>
      </trkpt>
      <trkpt lat="42.79956" lon="2.98935">
        <ele>0.39999999999998</ele>
        <time>1970-01-01T00:20:51Z</time>
      </trkpt>
      <trkpt lat="42.79957" lon="2.98931">
        <ele>0.39999999999998</ele>
        <time>1970-01-01T00:20:52Z</time>
      </trkpt>
      <trkpt lat="42.79958" lon="2.98927">
        <ele>0.39999999999998</ele>
        <time>1970-01-01T00:20:53Z</time>
      </trkpt>
      <trkpt lat="42.79958" lon="2.98923">
        <ele>0.39999999999998</ele>
        <time>1970-01-01T00:20:54Z</time>
      </trkpt>
      <trkpt lat="42.79959" lon="2.98919">
        <ele>0.39999999999998</ele>
        <time>1970-01-01T00:20:55Z</time>
      </trkpt>
      <trkpt lat="42.7996" lon="2.98914">
        <ele>0.39999999999998</ele>
        <time>1970-01-01T00:20:56Z</time>
      </trkpt>
      <trkpt lat="42.7996" lon="2.9891">
        <ele>0.39999999999998</ele>
        <time>1970-01-01T00:20:57Z</time>
      </trkpt>
      <trkpt lat="42.79961" lon="2.98905">
        <ele>0.39999999999998</ele>
        <time>1970-01-01T00:20:58Z</time>
      </trkpt>
      <trkpt lat="42.79961" lon="2.98901">
        <ele>0.39999999999998</ele>
        <time>1970-01-01T00:20:59Z</time>
      </trkpt>
      <trkpt lat="42.79962" lon="2.98896">
        <ele>0.39999999999998</ele>
        <time>1970-01-01T00:21:00Z</time>
      </trkpt>
      <trkpt lat="42.79963" lon="2.98892">
        <ele>0.39999999999998</ele>
        <time>1970-01-01T00:21:01Z</time>
      </trkpt>
      <trkpt lat="42.79964" lon="2.98887">
        <ele>0.39999999999998</ele>
        <time>1970-01-01T00:21:02Z</time>
      </trkpt>
      <trkpt lat="42.79965" lon="2.98883">
        <ele>0.39999999999998</ele>
        <time>1970-01-01T00:21:03Z</time>
      </trkpt>
      <trkpt lat="42.79967" lon="2.98879">
        <ele>0.39999999999998</ele>
        <time>1970-01-01T00:21:04Z</time>
      </trkpt>
      <trkpt lat="42.79968" lon="2.98874">
        <ele>0.39999999999998</ele>
        <time>1970-01-01T00:21:05Z</time>
      </trkpt>
      <trkpt lat="42.79969" lon="2.98869">
        <ele>0.39999999999998</ele>
        <time>1970-01-01T00:21:06Z</time>
      </trkpt>
      <trkpt lat="42.79969" lon="2.98865">
        <ele>0.39999999999998</ele>
        <time>1970-01-01T00:21:07Z</time>
      </trkpt>
      <trkpt lat="42.79969" lon="2.9886">
        <ele>0.39999999999998</ele>
        <time>1970-01-01T00:21:08Z</time>
      </trkpt>
      <trkpt lat="42.79968" lon="2.98856">
        <ele>0.39999999999998</ele>
        <time>1970-01-01T00:21:09Z</time>
      </trkpt>
      <trkpt lat="42.79967" lon="2.98851">
        <ele>0.39999999999998</ele>
        <time>1970-01-01T00:21:10Z</time>
      </trkpt>
      <trkpt lat="42.79967" lon="2.98847">
        <ele>0.39999999999998</ele>
        <time>1970-01-01T00:21:11Z</time>
      </trkpt>
      <trkpt lat="42.79966" lon="2.98842">
        <ele>0.60000000000002</ele>
        <time>1970-01-01T00:21:12Z</time>
      </trkpt>
      <trkpt lat="42.79967" lon="2.98838">
        <ele>0.60000000000002</ele>
        <time>1970-01-01T00:21:13Z</time>
      </trkpt>
      <trkpt lat="42.79967" lon="2.98833">
        <ele>0.60000000000002</ele>
        <time>1970-01-01T00:21:14Z</time>
      </trkpt>
      <trkpt lat="42.79968" lon="2.98828">
        <ele>0.60000000000002</ele>
        <time>1970-01-01T00:21:15Z</time>
      </trkpt>
      <trkpt lat="42.79968" lon="2.98823">
        <ele>0.60000000000002</ele>
        <time>1970-01-01T00:21:16Z</time>
      </trkpt>
      <trkpt lat="42.79969" lon="2.98818">
        <ele>0.60000000000002</ele>
        <time>1970-01-01T00:21:17Z</time>
      </trkpt>
      <trkpt lat="42.79969" lon="2.98813">
        <ele>0.60000000000002</ele>
        <time>1970-01-01T00:21:18Z</time>
      </trkpt>
      <trkpt lat="42.7997" lon="2.98808">
        <ele>0.60000000000002</ele>
        <time>1970-01-01T00:21:19Z</time>
      </trkpt>
      <trkpt lat="42.7997" lon="2.98803">
        <ele>0.60000000000002</ele>
        <time>1970-01-01T00:21:20Z</time>
      </trkpt>
      <trkpt lat="42.7997" lon="2.98798">
        <ele>0.60000000000002</ele>
        <time>1970-01-01T00:21:21Z</time>
      </trkpt>
      <trkpt lat="42.79971" lon="2.98794">
        <ele>0.60000000000002</ele>
        <time>1970-01-01T00:21:22Z</time>
      </trkpt>
      <trkpt lat="42.79972" lon="2.98789">
        <ele>0.60000000000002</ele>
        <time>1970-01-01T00:21:23Z</time>
      </trkpt>
      <trkpt lat="42.79973" lon="2.98785">
        <ele>0.60000000000002</ele>
        <time>1970-01-01T00:21:24Z</time>
      </trkpt>
      <trkpt lat="42.79974" lon="2.98781">
        <ele>0.60000000000002</ele>
        <time>1970-01-01T00:21:25Z</time>
      </trkpt>
      <trkpt lat="42.79975" lon="2.9878">
        <ele>0.60000000000002</ele>
        <time>1970-01-01T00:21:26Z</time>
      </trkpt>
      <trkpt lat="42.79975" lon="2.98778">
        <ele>0.60000000000002</ele>
        <time>1970-01-01T00:21:27Z</time>
      </trkpt>
      <trkpt lat="42.79976" lon="2.98778">
        <ele>0.60000000000002</ele>
        <time>1970-01-01T00:21:28Z</time>
      </trkpt>
      <trkpt lat="42.79975" lon="2.98778">
        <ele>0.60000000000002</ele>
        <time>1970-01-01T00:21:29Z</time>
      </trkpt>
      <trkpt lat="42.79976" lon="2.98777">
        <ele>0.60000000000002</ele>
        <time>1970-01-01T00:21:30Z</time>
      </trkpt>
      <trkpt lat="42.79975" lon="2.98775">
        <ele>0.60000000000002</ele>
        <time>1970-01-01T00:21:31Z</time>
      </trkpt>
      <trkpt lat="42.79975" lon="2.98774">
        <ele>0.60000000000002</ele>
        <time>1970-01-01T00:21:32Z</time>
      </trkpt>
      <trkpt lat="42.79975" lon="2.98773">
        <ele>0.60000000000002</ele>
        <time>1970-01-01T00:21:33Z</time>
      </trkpt>
      <trkpt lat="42.79975" lon="2.98771">
        <ele>0.60000000000002</ele>
        <time>1970-01-01T00:21:34Z</time>
      </trkpt>
      <trkpt lat="42.79975" lon="2.9877">
        <ele>0.60000000000002</ele>
        <time>1970-01-01T00:21:35Z</time>
      </trkpt>
      <trkpt lat="42.79975" lon="2.98768">
        <ele>0.80000000000001</ele>
        <time>1970-01-01T00:21:36Z</time>
      </trkpt>
      <trkpt lat="42.79975" lon="2.98766">
        <ele>0.80000000000001</ele>
        <time>1970-01-01T00:21:37Z</time>
      </trkpt>
      <trkpt lat="42.79975" lon="2.98762">
        <ele>0.80000000000001</ele>
        <time>1970-01-01T00:21:38Z</time>
      </trkpt>
      <trkpt lat="42.79974" lon="2.9876">
        <ele>0.80000000000001</ele>
        <time>1970-01-01T00:21:39Z</time>
      </trkpt>
      <trkpt lat="42.79973" lon="2.98756">
        <ele>0.80000000000001</ele>
        <time>1970-01-01T00:21:40Z</time>
      </trkpt>
      <trkpt lat="42.79973" lon="2.98754">
        <ele>0.80000000000001</ele>
        <time>1970-01-01T00:21:41Z</time>
      </trkpt>
      <trkpt lat="42.79972" lon="2.9875">
        <ele>0.80000000000001</ele>
        <time>1970-01-01T00:21:42Z</time>
      </trkpt>
      <trkpt lat="42.79971" lon="2.98748">
        <ele>0.80000000000001</ele>
        <time>1970-01-01T00:21:43Z</time>
      </trkpt>
      <trkpt lat="42.7997" lon="2.98743">
        <ele>1</ele>
        <time>1970-01-01T00:21:44Z</time>
      </trkpt>
      <trkpt lat="42.7997" lon="2.98741">
        <ele>1</ele>
        <time>1970-01-01T00:21:45Z</time>
      </trkpt>
      <trkpt lat="42.7997" lon="2.98737">
        <ele>1</ele>
        <time>1970-01-01T00:21:46Z</time>
      </trkpt>
      <trkpt lat="42.79969" lon="2.98733">
        <ele>1</ele>
        <time>1970-01-01T00:21:47Z</time>
      </trkpt>
      <trkpt lat="42.79969" lon="2.98729">
        <ele>1</ele>
        <time>1970-01-01T00:21:48Z</time>
      </trkpt>
      <trkpt lat="42.79969" lon="2.98725">
        <ele>1</ele>
        <time>1970-01-01T00:21:49Z</time>
      </trkpt>
      <trkpt lat="42.79969" lon="2.98721">
        <ele>1</ele>
        <time>1970-01-01T00:21:50Z</time>
      </trkpt>
      <trkpt lat="42.79968" lon="2.98717">
        <ele>1</ele>
        <time>1970-01-01T00:21:51Z</time>
      </trkpt>
      <trkpt lat="42.79969" lon="2.98712">
        <ele>1</ele>
        <time>1970-01-01T00:21:52Z</time>
      </trkpt>
      <trkpt lat="42.79969" lon="2.98708">
        <ele>1</ele>
        <time>1970-01-01T00:21:53Z</time>
      </trkpt>
      <trkpt lat="42.79971" lon="2.98703">
        <ele>0.80000000000001</ele>
        <time>1970-01-01T00:21:54Z</time>
      </trkpt>
      <trkpt lat="42.79973" lon="2.98698">
        <ele>0.80000000000001</ele>
        <time>1970-01-01T00:21:55Z</time>
      </trkpt>
      <trkpt lat="42.79973" lon="2.98694">
        <ele>0.80000000000001</ele>
        <time>1970-01-01T00:21:56Z</time>
      </trkpt>
      <trkpt lat="42.79973" lon="2.98689">
        <ele>0.80000000000001</ele>
        <time>1970-01-01T00:21:57Z</time>
      </trkpt>
      <trkpt lat="42.7997" lon="2.98686">
        <ele>0.80000000000001</ele>
        <time>1970-01-01T00:21:58Z</time>
      </trkpt>
      <trkpt lat="42.79968" lon="2.98683">
        <ele>0.80000000000001</ele>
        <time>1970-01-01T00:21:59Z</time>
      </trkpt>
      <trkpt lat="42.79965" lon="2.9868">
        <ele>0.80000000000001</ele>
        <time>1970-01-01T00:22:00Z</time>
      </trkpt>
      <trkpt lat="42.79963" lon="2.98676">
        <ele>0.80000000000001</ele>
        <time>1970-01-01T00:22:01Z</time>
      </trkpt>
      <trkpt lat="42.79961" lon="2.98673">
        <ele>0.80000000000001</ele>
        <time>1970-01-01T00:22:02Z</time>
      </trkpt>
      <trkpt lat="42.79959" lon="2.9867">
        <ele>0.80000000000001</ele>
        <time>1970-01-01T00:22:03Z</time>
      </trkpt>
      <trkpt lat="42.79956" lon="2.98668">
        <ele>0.80000000000001</ele>
        <time>1970-01-01T00:22:04Z</time>
      </trkpt>
      <trkpt lat="42.79952" lon="2.98666">
        <ele>0.80000000000001</ele>
        <time>1970-01-01T00:22:05Z</time>
      </trkpt>
      <trkpt lat="42.79949" lon="2.98663">
        <ele>0.80000000000001</ele>
        <time>1970-01-01T00:22:06Z</time>
      </trkpt>
      <trkpt lat="42.79945" lon="2.98661">
        <ele>0.80000000000001</ele>
        <time>1970-01-01T00:22:07Z</time>
      </trkpt>
      <trkpt lat="42.79942" lon="2.98658">
        <ele>0.60000000000002</ele>
        <time>1970-01-01T00:22:08Z</time>
      </trkpt>
      <trkpt lat="42.79939" lon="2.98655">
        <ele>0.60000000000002</ele>
        <time>1970-01-01T00:22:09Z</time>
      </trkpt>
      <trkpt lat="42.79936" lon="2.98652">
        <ele>0.60000000000002</ele>
        <time>1970-01-01T00:22:10Z</time>
      </trkpt>
      <trkpt lat="42.79934" lon="2.98648">
        <ele>0.80000000000001</ele>
        <time>1970-01-01T00:22:11Z</time>
      </trkpt>
      <trkpt lat="42.79932" lon="2.98644">
        <ele>0.80000000000001</ele>
        <time>1970-01-01T00:22:12Z</time>
      </trkpt>
      <trkpt lat="42.7993" lon="2.98641">
        <ele>0.80000000000001</ele>
        <time>1970-01-01T00:22:13Z</time>
      </trkpt>
      <trkpt lat="42.79927" lon="2.98638">
        <ele>0.80000000000001</ele>
        <time>1970-01-01T00:22:14Z</time>
      </trkpt>
      <trkpt lat="42.79925" lon="2.98635">
        <ele>0.80000000000001</ele>
        <time>1970-01-01T00:22:15Z</time>
      </trkpt>
      <trkpt lat="42.79924" lon="2.9863">
        <ele>0.80000000000001</ele>
        <time>1970-01-01T00:22:16Z</time>
      </trkpt>
      <trkpt lat="42.79924" lon="2.98629">
        <ele>0.80000000000001</ele>
        <time>1970-01-01T00:22:17Z</time>
      </trkpt>
      <trkpt lat="42.79923" lon="2.98628">
        <ele>0.80000000000001</ele>
        <time>1970-01-01T00:22:18Z</time>
      </trkpt>
      <trkpt lat="42.79923" lon="2.98627">
        <ele>0.80000000000001</ele>
        <time>1970-01-01T00:22:19Z</time>
      </trkpt>
      <trkpt lat="42.79922" lon="2.98626">
        <ele>0.80000000000001</ele>
        <time>1970-01-01T00:22:20Z</time>
      </trkpt>
      <trkpt lat="42.79921" lon="2.98624">
        <ele>0.80000000000001</ele>
        <time>1970-01-01T00:22:21Z</time>
      </trkpt>
      <trkpt lat="42.79921" lon="2.98623">
        <ele>0.80000000000001</ele>
        <time>1970-01-01T00:22:22Z</time>
      </trkpt>
      <trkpt lat="42.79921" lon="2.98621">
        <ele>0.80000000000001</ele>
        <time>1970-01-01T00:22:23Z</time>
      </trkpt>
      <trkpt lat="42.79923" lon="2.98618">
        <ele>0.80000000000001</ele>
        <time>1970-01-01T00:22:24Z</time>
      </trkpt>
      <trkpt lat="42.79923" lon="2.98617">
        <ele>0.80000000000001</ele>
        <time>1970-01-01T00:22:25Z</time>
      </trkpt>
      <trkpt lat="42.79925" lon="2.98613">
        <ele>0.80000000000001</ele>
        <time>1970-01-01T00:22:26Z</time>
      </trkpt>
      <trkpt lat="42.79925" lon="2.98612">
        <ele>0.80000000000001</ele>
        <time>1970-01-01T00:22:27Z</time>
      </trkpt>
      <trkpt lat="42.79927" lon="2.98607">
        <ele>0.80000000000001</ele>
        <time>1970-01-01T00:22:28Z</time>
      </trkpt>
      <trkpt lat="42.79928" lon="2.98606">
        <ele>0.80000000000001</ele>
        <time>1970-01-01T00:22:29Z</time>
      </trkpt>
      <trkpt lat="42.7993" lon="2.98601">
        <ele>0.80000000000001</ele>
        <time>1970-01-01T00:22:30Z</time>
      </trkpt>
      <trkpt lat="42.7993" lon="2.986">
        <ele>0.80000000000001</ele>
        <time>1970-01-01T00:22:31Z</time>
      </trkpt>
      <trkpt lat="42.79933" lon="2.98596">
        <ele>0.80000000000001</ele>
        <time>1970-01-01T00:22:32Z</time>
      </trkpt>
      <trkpt lat="42.79934" lon="2.98595">
        <ele>0.80000000000001</ele>
        <time>1970-01-01T00:22:33Z</time>
      </trkpt>
      <trkpt lat="42.79936" lon="2.98593">
        <ele>0.80000000000001</ele>
        <time>1970-01-01T00:22:34Z</time>
      </trkpt>
      <trkpt lat="42.79939" lon="2.98591">
        <ele>0.80000000000001</ele>
        <time>1970-01-01T00:22:35Z</time>
      </trkpt>
      <trkpt lat="42.79942" lon="2.98589">
        <ele>0.80000000000001</ele>
        <time>1970-01-01T00:22:36Z</time>
      </trkpt>
      <trkpt lat="42.79944" lon="2.98587">
        <ele>0.80000000000001</ele>
        <time>1970-01-01T00:22:37Z</time>
      </trkpt>
      <trkpt lat="42.79946" lon="2.98584">
        <ele>0.80000000000001</ele>
        <time>1970-01-01T00:22:38Z</time>
      </trkpt>
      <trkpt lat="42.79948" lon="2.98581">
        <ele>0.80000000000001</ele>
        <time>1970-01-01T00:22:39Z</time>
      </trkpt>
      <trkpt lat="42.79949" lon="2.98577">
        <ele>0.80000000000001</ele>
        <time>1970-01-01T00:22:40Z</time>
      </trkpt>
      <trkpt lat="42.7995" lon="2.98573">
        <ele>0.80000000000001</ele>
        <time>1970-01-01T00:22:41Z</time>
      </trkpt>
      <trkpt lat="42.79951" lon="2.98569">
        <ele>0.80000000000001</ele>
        <time>1970-01-01T00:22:42Z</time>
      </trkpt>
      <trkpt lat="42.79951" lon="2.98565">
        <ele>0.80000000000001</ele>
        <time>1970-01-01T00:22:43Z</time>
      </trkpt>
      <trkpt lat="42.7995" lon="2.98561">
        <ele>0.80000000000001</ele>
        <time>1970-01-01T00:22:44Z</time>
      </trkpt>
      <trkpt lat="42.79948" lon="2.98558">
        <ele>0.80000000000001</ele>
        <time>1970-01-01T00:22:45Z</time>
      </trkpt>
      <trkpt lat="42.79945" lon="2.98555">
        <ele>0.80000000000001</ele>
        <time>1970-01-01T00:22:46Z</time>
      </trkpt>
      <trkpt lat="42.79943" lon="2.98551">
        <ele>0.80000000000001</ele>
        <time>1970-01-01T00:22:47Z</time>
      </trkpt>
      <trkpt lat="42.79943" lon="2.9855">
        <ele>0.80000000000001</ele>
        <time>1970-01-01T00:22:48Z</time>
      </trkpt>
      <trkpt lat="42.79945" lon="2.98546">
        <ele>0.80000000000001</ele>
        <time>1970-01-01T00:22:49Z</time>
      </trkpt>
      <trkpt lat="42.79946" lon="2.98545">
        <ele>0.80000000000001</ele>
        <time>1970-01-01T00:22:50Z</time>
      </trkpt>
      <trkpt lat="42.79948" lon="2.98542">
        <ele>0.80000000000001</ele>
        <time>1970-01-01T00:22:51Z</time>
      </trkpt>
      <trkpt lat="42.79949" lon="2.98538">
        <ele>0.80000000000001</ele>
        <time>1970-01-01T00:22:52Z</time>
      </trkpt>
      <trkpt lat="42.79951" lon="2.98535">
        <ele>0.80000000000001</ele>
        <time>1970-01-01T00:22:53Z</time>
      </trkpt>
      <trkpt lat="42.79952" lon="2.98532">
        <ele>1</ele>
        <time>1970-01-01T00:22:54Z</time>
      </trkpt>
      <trkpt lat="42.79954" lon="2.98528">
        <ele>1</ele>
        <time>1970-01-01T00:22:55Z</time>
      </trkpt>
      <trkpt lat="42.79955" lon="2.98524">
        <ele>1</ele>
        <time>1970-01-01T00:22:56Z</time>
      </trkpt>
      <trkpt lat="42.79957" lon="2.9852">
        <ele>1</ele>
        <time>1970-01-01T00:22:57Z</time>
      </trkpt>
      <trkpt lat="42.79958" lon="2.98516">
        <ele>1</ele>
        <time>1970-01-01T00:22:58Z</time>
      </trkpt>
      <trkpt lat="42.7996" lon="2.98512">
        <ele>1</ele>
        <time>1970-01-01T00:22:59Z</time>
      </trkpt>
      <trkpt lat="42.79962" lon="2.98508">
        <ele>1</ele>
        <time>1970-01-01T00:23:00Z</time>
      </trkpt>
      <trkpt lat="42.79963" lon="2.98504">
        <ele>1</ele>
        <time>1970-01-01T00:23:01Z</time>
      </trkpt>
      <trkpt lat="42.79965" lon="2.985">
        <ele>1</ele>
        <time>1970-01-01T00:23:02Z</time>
      </trkpt>
      <trkpt lat="42.79966" lon="2.98496">
        <ele>1</ele>
        <time>1970-01-01T00:23:03Z</time>
      </trkpt>
      <trkpt lat="42.79968" lon="2.98491">
        <ele>1</ele>
        <time>1970-01-01T00:23:04Z</time>
      </trkpt>
      <trkpt lat="42.79969" lon="2.98486">
        <ele>1</ele>
        <time>1970-01-01T00:23:05Z</time>
      </trkpt>
      <trkpt lat="42.7997" lon="2.98482">
        <ele>1</ele>
        <time>1970-01-01T00:23:06Z</time>
      </trkpt>
      <trkpt lat="42.79972" lon="2.98477">
        <ele>0.80000000000001</ele>
        <time>1970-01-01T00:23:07Z</time>
      </trkpt>
      <trkpt lat="42.79973" lon="2.98472">
        <ele>0.80000000000001</ele>
        <time>1970-01-01T00:23:08Z</time>
      </trkpt>
      <trkpt lat="42.79974" lon="2.98467">
        <ele>0.80000000000001</ele>
        <time>1970-01-01T00:23:09Z</time>
      </trkpt>
      <trkpt lat="42.79975" lon="2.98463">
        <ele>0.80000000000001</ele>
        <time>1970-01-01T00:23:10Z</time>
      </trkpt>
      <trkpt lat="42.79976" lon="2.98459">
        <ele>0.80000000000001</ele>
        <time>1970-01-01T00:23:11Z</time>
      </trkpt>
      <trkpt lat="42.79978" lon="2.98454">
        <ele>0.80000000000001</ele>
        <time>1970-01-01T00:23:12Z</time>
      </trkpt>
      <trkpt lat="42.7998" lon="2.9845">
        <ele>0.80000000000001</ele>
        <time>1970-01-01T00:23:13Z</time>
      </trkpt>
      <trkpt lat="42.79982" lon="2.98446">
        <ele>0.80000000000001</ele>
        <time>1970-01-01T00:23:14Z</time>
      </trkpt>
      <trkpt lat="42.79984" lon="2.98443">
        <ele>0.80000000000001</ele>
        <time>1970-01-01T00:23:15Z</time>
      </trkpt>
      <trkpt lat="42.79986" lon="2.98439">
        <ele>0.80000000000001</ele>
        <time>1970-01-01T00:23:16Z</time>
      </trkpt>
      <trkpt lat="42.79988" lon="2.98436">
        <ele>0.80000000000001</ele>
        <time>1970-01-01T00:23:17Z</time>
      </trkpt>
      <trkpt lat="42.7999" lon="2.98432">
        <ele>0.80000000000001</ele>
        <time>1970-01-01T00:23:18Z</time>
      </trkpt>
      <trkpt lat="42.79992" lon="2.98428">
        <ele>0.80000000000001</ele>
        <time>1970-01-01T00:23:19Z</time>
      </trkpt>
      <trkpt lat="42.79994" lon="2.98424">
        <ele>0.80000000000001</ele>
        <time>1970-01-01T00:23:20Z</time>
      </trkpt>
      <trkpt lat="42.79996" lon="2.9842">
        <ele>0.80000000000001</ele>
        <time>1970-01-01T00:23:21Z</time>
      </trkpt>
      <trkpt lat="42.79998" lon="2.98416">
        <ele>0.80000000000001</ele>
        <time>1970-01-01T00:23:22Z</time>
      </trkpt>
      <trkpt lat="42.8" lon="2.98412">
        <ele>0.80000000000001</ele>
        <time>1970-01-01T00:23:23Z</time>
      </trkpt>
      <trkpt lat="42.80001" lon="2.98407">
        <ele>1</ele>
        <time>1970-01-01T00:23:24Z</time>
      </trkpt>
      <trkpt lat="42.80002" lon="2.98403">
        <ele>1</ele>
        <time>1970-01-01T00:23:25Z</time>
      </trkpt>
      <trkpt lat="42.80003" lon="2.98399">
        <ele>1</ele>
        <time>1970-01-01T00:23:26Z</time>
      </trkpt>
      <trkpt lat="42.80004" lon="2.98394">
        <ele>1</ele>
        <time>1970-01-01T00:23:27Z</time>
      </trkpt>
      <trkpt lat="42.80006" lon="2.9839">
        <ele>1</ele>
        <time>1970-01-01T00:23:28Z</time>
      </trkpt>
      <trkpt lat="42.80007" lon="2.98385">
        <ele>1</ele>
        <time>1970-01-01T00:23:29Z</time>
      </trkpt>
      <trkpt lat="42.80008" lon="2.9838">
        <ele>1</ele>
        <time>1970-01-01T00:23:30Z</time>
      </trkpt>
      <trkpt lat="42.80009" lon="2.98376">
        <ele>1</ele>
        <time>1970-01-01T00:23:31Z</time>
      </trkpt>
      <trkpt lat="42.8001" lon="2.98371">
        <ele>1</ele>
        <time>1970-01-01T00:23:32Z</time>
      </trkpt>
      <trkpt lat="42.80011" lon="2.98366">
        <ele>1</ele>
        <time>1970-01-01T00:23:33Z</time>
      </trkpt>
      <trkpt lat="42.80013" lon="2.9836">
        <ele>1</ele>
        <time>1970-01-01T00:23:34Z</time>
      </trkpt>
      <trkpt lat="42.80014" lon="2.98355">
        <ele>1</ele>
        <time>1970-01-01T00:23:35Z</time>
      </trkpt>
      <trkpt lat="42.80015" lon="2.98351">
        <ele>1</ele>
        <time>1970-01-01T00:23:36Z</time>
      </trkpt>
      <trkpt lat="42.80016" lon="2.98346">
        <ele>1</ele>
        <time>1970-01-01T00:23:37Z</time>
      </trkpt>
      <trkpt lat="42.80017" lon="2.98341">
        <ele>1</ele>
        <time>1970-01-01T00:23:38Z</time>
      </trkpt>
      <trkpt lat="42.80018" lon="2.98337">
        <ele>1</ele>
        <time>1970-01-01T00:23:39Z</time>
      </trkpt>
      <trkpt lat="42.80019" lon="2.98332">
        <ele>1</ele>
        <time>1970-01-01T00:23:40Z</time>
      </trkpt>
      <trkpt lat="42.8002" lon="2.98327">
        <ele>1</ele>
        <time>1970-01-01T00:23:41Z</time>
      </trkpt>
      <trkpt lat="42.80021" lon="2.98322">
        <ele>1</ele>
        <time>1970-01-01T00:23:42Z</time>
      </trkpt>
      <trkpt lat="42.80021" lon="2.98317">
        <ele>1</ele>
        <time>1970-01-01T00:23:43Z</time>
      </trkpt>
      <trkpt lat="42.80021" lon="2.98312">
        <ele>1</ele>
        <time>1970-01-01T00:23:44Z</time>
      </trkpt>
      <trkpt lat="42.80021" lon="2.98307">
        <ele>1</ele>
        <time>1970-01-01T00:23:45Z</time>
      </trkpt>
      <trkpt lat="42.80022" lon="2.98302">
        <ele>1</ele>
        <time>1970-01-01T00:23:46Z</time>
      </trkpt>
      <trkpt lat="42.80022" lon="2.98297">
        <ele>1</ele>
        <time>1970-01-01T00:23:47Z</time>
      </trkpt>
      <trkpt lat="42.80023" lon="2.98292">
        <ele>1</ele>
        <time>1970-01-01T00:23:48Z</time>
      </trkpt>
      <trkpt lat="42.80023" lon="2.98287">
        <ele>1</ele>
        <time>1970-01-01T00:23:49Z</time>
      </trkpt>
      <trkpt lat="42.80024" lon="2.98282">
        <ele>1</ele>
        <time>1970-01-01T00:23:50Z</time>
      </trkpt>
      <trkpt lat="42.80025" lon="2.98277">
        <ele>1</ele>
        <time>1970-01-01T00:23:51Z</time>
      </trkpt>
      <trkpt lat="42.80025" lon="2.98272">
        <ele>1</ele>
        <time>1970-01-01T00:23:52Z</time>
      </trkpt>
      <trkpt lat="42.80026" lon="2.98267">
        <ele>1</ele>
        <time>1970-01-01T00:23:53Z</time>
      </trkpt>
      <trkpt lat="42.80026" lon="2.98263">
        <ele>1</ele>
        <time>1970-01-01T00:23:54Z</time>
      </trkpt>
      <trkpt lat="42.80026" lon="2.98258">
        <ele>1</ele>
        <time>1970-01-01T00:23:55Z</time>
      </trkpt>
      <trkpt lat="42.80026" lon="2.98253">
        <ele>1</ele>
        <time>1970-01-01T00:23:56Z</time>
      </trkpt>
      <trkpt lat="42.80025" lon="2.98248">
        <ele>0.80000000000001</ele>
        <time>1970-01-01T00:23:57Z</time>
      </trkpt>
      <trkpt lat="42.80024" lon="2.98244">
        <ele>0.80000000000001</ele>
        <time>1970-01-01T00:23:58Z</time>
      </trkpt>
      <trkpt lat="42.80023" lon="2.98239">
        <ele>0.80000000000001</ele>
        <time>1970-01-01T00:23:59Z</time>
      </trkpt>
      <trkpt lat="42.80021" lon="2.98235">
        <ele>0.80000000000001</ele>
        <time>1970-01-01T00:24:00Z</time>
      </trkpt>
      <trkpt lat="42.80019" lon="2.98231">
        <ele>0.80000000000001</ele>
        <time>1970-01-01T00:24:01Z</time>
      </trkpt>
      <trkpt lat="42.80017" lon="2.98227">
        <ele>0.80000000000001</ele>
        <time>1970-01-01T00:24:02Z</time>
      </trkpt>
      <trkpt lat="42.80014" lon="2.98224">
        <ele>0.60000000000002</ele>
        <time>1970-01-01T00:24:03Z</time>
      </trkpt>
      <trkpt lat="42.80011" lon="2.9822">
        <ele>0.60000000000002</ele>
        <time>1970-01-01T00:24:04Z</time>
      </trkpt>
      <trkpt lat="42.80009" lon="2.98216">
        <ele>0.60000000000002</ele>
        <time>1970-01-01T00:24:05Z</time>
      </trkpt>
      <trkpt lat="42.80007" lon="2.98212">
        <ele>0.60000000000002</ele>
        <time>1970-01-01T00:24:06Z</time>
      </trkpt>
      <trkpt lat="42.80005" lon="2.98207">
        <ele>0.60000000000002</ele>
        <time>1970-01-01T00:24:07Z</time>
      </trkpt>
      <trkpt lat="42.80003" lon="2.98203">
        <ele>0.60000000000002</ele>
        <time>1970-01-01T00:24:08Z</time>
      </trkpt>
      <trkpt lat="42.80001" lon="2.98199">
        <ele>0.60000000000002</ele>
        <time>1970-01-01T00:24:09Z</time>
      </trkpt>
      <trkpt lat="42.79999" lon="2.98194">
        <ele>0.60000000000002</ele>
        <time>1970-01-01T00:24:10Z</time>
      </trkpt>
      <trkpt lat="42.79997" lon="2.98189">
        <ele>0.60000000000002</ele>
        <time>1970-01-01T00:24:11Z</time>
      </trkpt>
      <trkpt lat="42.79995" lon="2.98185">
        <ele>0.39999999999998</ele>
        <time>1970-01-01T00:24:12Z</time>
      </trkpt>
      <trkpt lat="42.79993" lon="2.9818">
        <ele>0.39999999999998</ele>
        <time>1970-01-01T00:24:13Z</time>
      </trkpt>
      <trkpt lat="42.79991" lon="2.98176">
        <ele>0.39999999999998</ele>
        <time>1970-01-01T00:24:14Z</time>
      </trkpt>
      <trkpt lat="42.7999" lon="2.98172">
        <ele>0.39999999999998</ele>
        <time>1970-01-01T00:24:15Z</time>
      </trkpt>
      <trkpt lat="42.79988" lon="2.98168">
        <ele>0.39999999999998</ele>
        <time>1970-01-01T00:24:16Z</time>
      </trkpt>
      <trkpt lat="42.79987" lon="2.98165">
        <ele>0.39999999999998</ele>
        <time>1970-01-01T00:24:17Z</time>
      </trkpt>
      <trkpt lat="42.79984" lon="2.98162">
        <ele>0.39999999999998</ele>
        <time>1970-01-01T00:24:18Z</time>
      </trkpt>
      <trkpt lat="42.79982" lon="2.98159">
        <ele>0.39999999999998</ele>
        <time>1970-01-01T00:24:19Z</time>
      </trkpt>
      <trkpt lat="42.7998" lon="2.98157">
        <ele>0.39999999999998</ele>
        <time>1970-01-01T00:24:20Z</time>
      </trkpt>
      <trkpt lat="42.79978" lon="2.98153">
        <ele>0.39999999999998</ele>
        <time>1970-01-01T00:24:21Z</time>
      </trkpt>
      <trkpt lat="42.79976" lon="2.9815">
        <ele>0.39999999999998</ele>
        <time>1970-01-01T00:24:22Z</time>
      </trkpt>
      <trkpt lat="42.79975" lon="2.98146">
        <ele>0.60000000000002</ele>
        <time>1970-01-01T00:24:23Z</time>
      </trkpt>
      <trkpt lat="42.79974" lon="2.98142">
        <ele>0.60000000000002</ele>
        <time>1970-01-01T00:24:24Z</time>
      </trkpt>
      <trkpt lat="42.79973" lon="2.98138">
        <ele>0.60000000000002</ele>
        <time>1970-01-01T00:24:25Z</time>
      </trkpt>
      <trkpt lat="42.79973" lon="2.98133">
        <ele>0.60000000000002</ele>
        <time>1970-01-01T00:24:26Z</time>
      </trkpt>
      <trkpt lat="42.79973" lon="2.98129">
        <ele>0.60000000000002</ele>
        <time>1970-01-01T00:24:27Z</time>
      </trkpt>
      <trkpt lat="42.79972" lon="2.98125">
        <ele>0.60000000000002</ele>
        <time>1970-01-01T00:24:28Z</time>
      </trkpt>
      <trkpt lat="42.7997" lon="2.98122">
        <ele>0.80000000000001</ele>
        <time>1970-01-01T00:24:29Z</time>
      </trkpt>
      <trkpt lat="42.79968" lon="2.98118">
        <ele>0.80000000000001</ele>
        <time>1970-01-01T00:24:30Z</time>
      </trkpt>
      <trkpt lat="42.79965" lon="2.98115">
        <ele>0.80000000000001</ele>
        <time>1970-01-01T00:24:31Z</time>
      </trkpt>
      <trkpt lat="42.79962" lon="2.98112">
        <ele>0.80000000000001</ele>
        <time>1970-01-01T00:24:32Z</time>
      </trkpt>
      <trkpt lat="42.7996" lon="2.98109">
        <ele>0.80000000000001</ele>
        <time>1970-01-01T00:24:33Z</time>
      </trkpt>
      <trkpt lat="42.79957" lon="2.98105">
        <ele>0.80000000000001</ele>
        <time>1970-01-01T00:24:34Z</time>
      </trkpt>
      <trkpt lat="42.79954" lon="2.98101">
        <ele>0.80000000000001</ele>
        <time>1970-01-01T00:24:35Z</time>
      </trkpt>
      <trkpt lat="42.79951" lon="2.98098">
        <ele>0.80000000000001</ele>
        <time>1970-01-01T00:24:36Z</time>
      </trkpt>
      <trkpt lat="42.79949" lon="2.98095">
        <ele>0.80000000000001</ele>
        <time>1970-01-01T00:24:37Z</time>
      </trkpt>
      <trkpt lat="42.79946" lon="2.98092">
        <ele>0.80000000000001</ele>
        <time>1970-01-01T00:24:38Z</time>
      </trkpt>
      <trkpt lat="42.79946" lon="2.98091">
        <ele>0.80000000000001</ele>
        <time>1970-01-01T00:24:39Z</time>
      </trkpt>
      <trkpt lat="42.79943" lon="2.98087">
        <ele>1</ele>
        <time>1970-01-01T00:24:40Z</time>
      </trkpt>
      <trkpt lat="42.79943" lon="2.98085">
        <ele>1</ele>
        <time>1970-01-01T00:24:41Z</time>
      </trkpt>
      <trkpt lat="42.79942" lon="2.98083">
        <ele>1</ele>
        <time>1970-01-01T00:24:42Z</time>
      </trkpt>
      <trkpt lat="42.79942" lon="2.98081">
        <ele>1</ele>
        <time>1970-01-01T00:24:43Z</time>
      </trkpt>
      <trkpt lat="42.79943" lon="2.98078">
        <ele>1.2</ele>
        <time>1970-01-01T00:24:44Z</time>
      </trkpt>
      <trkpt lat="42.79944" lon="2.98077">
        <ele>1.2</ele>
        <time>1970-01-01T00:24:45Z</time>
      </trkpt>
      <trkpt lat="42.79945" lon="2.98075">
        <ele>1.2</ele>
        <time>1970-01-01T00:24:46Z</time>
      </trkpt>
      <trkpt lat="42.79946" lon="2.98074">
        <ele>1.2</ele>
        <time>1970-01-01T00:24:47Z</time>
      </trkpt>
      <trkpt lat="42.79948" lon="2.98074">
        <ele>1.2</ele>
        <time>1970-01-01T00:24:48Z</time>
      </trkpt>
      <trkpt lat="42.79951" lon="2.98077">
        <ele>1</ele>
        <time>1970-01-01T00:24:49Z</time>
      </trkpt>
      <trkpt lat="42.79952" lon="2.98079">
        <ele>1</ele>
        <time>1970-01-01T00:24:50Z</time>
      </trkpt>
      <trkpt lat="42.79954" lon="2.98082">
        <ele>0.80000000000001</ele>
        <time>1970-01-01T00:24:51Z</time>
      </trkpt>
      <trkpt lat="42.79957" lon="2.98085">
        <ele>0.80000000000001</ele>
        <time>1970-01-01T00:24:52Z</time>
      </trkpt>
      <trkpt lat="42.7996" lon="2.98087">
        <ele>0.60000000000002</ele>
        <time>1970-01-01T00:24:53Z</time>
      </trkpt>
      <trkpt lat="42.79963" lon="2.9809">
        <ele>0.60000000000002</ele>
        <time>1970-01-01T00:24:54Z</time>
      </trkpt>
      <trkpt lat="42.79966" lon="2.98093">
        <ele>0.60000000000002</ele>
        <time>1970-01-01T00:24:55Z</time>
      </trkpt>
      <trkpt lat="42.7997" lon="2.98095">
        <ele>0.80000000000001</ele>
        <time>1970-01-01T00:24:56Z</time>
      </trkpt>
      <trkpt lat="42.79973" lon="2.98097">
        <ele>0.80000000000001</ele>
        <time>1970-01-01T00:24:57Z</time>
      </trkpt>
      <trkpt lat="42.79976" lon="2.98099">
        <ele>0.80000000000001</ele>
        <time>1970-01-01T00:24:58Z</time>
      </trkpt>
      <trkpt lat="42.79979" lon="2.98099">
        <ele>0.80000000000001</ele>
        <time>1970-01-01T00:24:59Z</time>
      </trkpt>
      <trkpt lat="42.79982" lon="2.98098">
        <ele>0.80000000000001</ele>
        <time>1970-01-01T00:25:00Z</time>
      </trkpt>
      <trkpt lat="42.79985" lon="2.98098">
        <ele>1</ele>
        <time>1970-01-01T00:25:01Z</time>
      </trkpt>
      <trkpt lat="42.79988" lon="2.981">
        <ele>1</ele>
        <time>1970-01-01T00:25:02Z</time>
      </trkpt>
      <trkpt lat="42.79989" lon="2.98104">
        <ele>1</ele>
        <time>1970-01-01T00:25:03Z</time>
      </trkpt>
      <trkpt lat="42.7999" lon="2.98108">
        <ele>1</ele>
        <time>1970-01-01T00:25:04Z</time>
      </trkpt>
      <trkpt lat="42.7999" lon="2.98112">
        <ele>1</ele>
        <time>1970-01-01T00:25:05Z</time>
      </trkpt>
      <trkpt lat="42.79991" lon="2.98117">
        <ele>1</ele>
        <time>1970-01-01T00:25:06Z</time>
      </trkpt>
      <trkpt lat="42.79991" lon="2.98121">
        <ele>1</ele>
        <time>1970-01-01T00:25:07Z</time>
      </trkpt>
      <trkpt lat="42.79993" lon="2.98125">
        <ele>1</ele>
        <time>1970-01-01T00:25:08Z</time>
      </trkpt>
      <trkpt lat="42.79996" lon="2.98129">
        <ele>0.80000000000001</ele>
        <time>1970-01-01T00:25:09Z</time>
      </trkpt>
      <trkpt lat="42.79999" lon="2.98132">
        <ele>0.80000000000001</ele>
        <time>1970-01-01T00:25:10Z</time>
      </trkpt>
      <trkpt lat="42.80002" lon="2.98135">
        <ele>0.80000000000001</ele>
        <time>1970-01-01T00:25:11Z</time>
      </trkpt>
      <trkpt lat="42.80005" lon="2.98138">
        <ele>0.80000000000001</ele>
        <time>1970-01-01T00:25:12Z</time>
      </trkpt>
      <trkpt lat="42.80008" lon="2.98141">
        <ele>0.80000000000001</ele>
        <time>1970-01-01T00:25:13Z</time>
      </trkpt>
      <trkpt lat="42.80011" lon="2.98145">
        <ele>0.80000000000001</ele>
        <time>1970-01-01T00:25:14Z</time>
      </trkpt>
      <trkpt lat="42.80013" lon="2.98149">
        <ele>0.80000000000001</ele>
        <time>1970-01-01T00:25:15Z</time>
      </trkpt>
      <trkpt lat="42.80016" lon="2.98152">
        <ele>0.80000000000001</ele>
        <time>1970-01-01T00:25:16Z</time>
      </trkpt>
      <trkpt lat="42.8002" lon="2.98155">
        <ele>0.80000000000001</ele>
        <time>1970-01-01T00:25:17Z</time>
      </trkpt>
      <trkpt lat="42.80023" lon="2.98156">
        <ele>0.80000000000001</ele>
        <time>1970-01-01T00:25:18Z</time>
      </trkpt>
      <trkpt lat="42.80027" lon="2.98157">
        <ele>0.80000000000001</ele>
        <time>1970-01-01T00:25:19Z</time>
      </trkpt>
      <trkpt lat="42.80031" lon="2.98157">
        <ele>0.80000000000001</ele>
        <time>1970-01-01T00:25:20Z</time>
      </trkpt>
      <trkpt lat="42.80034" lon="2.98157">
        <ele>0.80000000000001</ele>
        <time>1970-01-01T00:25:21Z</time>
      </trkpt>
      <trkpt lat="42.80038" lon="2.98158">
        <ele>0.80000000000001</ele>
        <time>1970-01-01T00:25:22Z</time>
      </trkpt>
      <trkpt lat="42.80042" lon="2.98159">
        <ele>0.80000000000001</ele>
        <time>1970-01-01T00:25:23Z</time>
      </trkpt>
      <trkpt lat="42.80046" lon="2.98159">
        <ele>0.80000000000001</ele>
        <time>1970-01-01T00:25:24Z</time>
      </trkpt>
      <trkpt lat="42.8005" lon="2.98159">
        <ele>0.80000000000001</ele>
        <time>1970-01-01T00:25:25Z</time>
      </trkpt>
      <trkpt lat="42.80054" lon="2.98159">
        <ele>0.80000000000001</ele>
        <time>1970-01-01T00:25:26Z</time>
      </trkpt>
      <trkpt lat="42.80057" lon="2.98157">
        <ele>0.80000000000001</ele>
        <time>1970-01-01T00:25:27Z</time>
      </trkpt>
      <trkpt lat="42.8006" lon="2.98154">
        <ele>0.80000000000001</ele>
        <time>1970-01-01T00:25:28Z</time>
      </trkpt>
      <trkpt lat="42.80062" lon="2.9815">
        <ele>0.80000000000001</ele>
        <time>1970-01-01T00:25:29Z</time>
      </trkpt>
      <trkpt lat="42.80065" lon="2.98148">
        <ele>0.80000000000001</ele>
        <time>1970-01-01T00:25:30Z</time>
      </trkpt>
      <trkpt lat="42.80069" lon="2.98147">
        <ele>0.80000000000001</ele>
        <time>1970-01-01T00:25:31Z</time>
      </trkpt>
      <trkpt lat="42.80072" lon="2.98146">
        <ele>0.80000000000001</ele>
        <time>1970-01-01T00:25:32Z</time>
      </trkpt>
      <trkpt lat="42.80076" lon="2.98146">
        <ele>0.80000000000001</ele>
        <time>1970-01-01T00:25:33Z</time>
      </trkpt>
      <trkpt lat="42.80079" lon="2.98146">
        <ele>0.80000000000001</ele>
        <time>1970-01-01T00:25:34Z</time>
      </trkpt>
      <trkpt lat="42.80083" lon="2.98145">
        <ele>1</ele>
        <time>1970-01-01T00:25:35Z</time>
      </trkpt>
      <trkpt lat="42.80087" lon="2.98144">
        <ele>1</ele>
        <time>1970-01-01T00:25:36Z</time>
      </trkpt>
      <trkpt lat="42.80091" lon="2.98142">
        <ele>1</ele>
        <time>1970-01-01T00:25:37Z</time>
      </trkpt>
      <trkpt lat="42.80095" lon="2.98141">
        <ele>1</ele>
        <time>1970-01-01T00:25:38Z</time>
      </trkpt>
      <trkpt lat="42.80099" lon="2.98139">
        <ele>1</ele>
        <time>1970-01-01T00:25:39Z</time>
      </trkpt>
      <trkpt lat="42.80104" lon="2.98137">
        <ele>1</ele>
        <time>1970-01-01T00:25:40Z</time>
      </trkpt>
      <trkpt lat="42.80108" lon="2.98135">
        <ele>1</ele>
        <time>1970-01-01T00:25:41Z</time>
      </trkpt>
      <trkpt lat="42.80112" lon="2.98133">
        <ele>1</ele>
        <time>1970-01-01T00:25:42Z</time>
      </trkpt>
      <trkpt lat="42.80115" lon="2.98129">
        <ele>1</ele>
        <time>1970-01-01T00:25:43Z</time>
      </trkpt>
      <trkpt lat="42.80117" lon="2.98124">
        <ele>1</ele>
        <time>1970-01-01T00:25:44Z</time>
      </trkpt>
      <trkpt lat="42.80118" lon="2.98118">
        <ele>1</ele>
        <time>1970-01-01T00:25:45Z</time>
      </trkpt>
      <trkpt lat="42.80119" lon="2.98113">
        <ele>1</ele>
        <time>1970-01-01T00:25:46Z</time>
      </trkpt>
      <trkpt lat="42.80119" lon="2.98107">
        <ele>1</ele>
        <time>1970-01-01T00:25:47Z</time>
      </trkpt>
      <trkpt lat="42.8012" lon="2.98101">
        <ele>1</ele>
        <time>1970-01-01T00:25:48Z</time>
      </trkpt>
      <trkpt lat="42.80121" lon="2.98095">
        <ele>1</ele>
        <time>1970-01-01T00:25:49Z</time>
      </trkpt>
      <trkpt lat="42.80122" lon="2.9809">
        <ele>1</ele>
        <time>1970-01-01T00:25:50Z</time>
      </trkpt>
      <trkpt lat="42.80124" lon="2.98085">
        <ele>1</ele>
        <time>1970-01-01T00:25:51Z</time>
      </trkpt>
      <trkpt lat="42.80127" lon="2.98081">
        <ele>1</ele>
        <time>1970-01-01T00:25:52Z</time>
      </trkpt>
      <trkpt lat="42.80129" lon="2.98077">
        <ele>1</ele>
        <time>1970-01-01T00:25:53Z</time>
      </trkpt>
      <trkpt lat="42.80131" lon="2.98073">
        <ele>1</ele>
        <time>1970-01-01T00:25:54Z</time>
      </trkpt>
      <trkpt lat="42.80133" lon="2.98068">
        <ele>1</ele>
        <time>1970-01-01T00:25:55Z</time>
      </trkpt>
      <trkpt lat="42.80135" lon="2.98063">
        <ele>1</ele>
        <time>1970-01-01T00:25:56Z</time>
      </trkpt>
      <trkpt lat="42.80137" lon="2.98059">
        <ele>1</ele>
        <time>1970-01-01T00:25:57Z</time>
      </trkpt>
      <trkpt lat="42.80139" lon="2.98054">
        <ele>1</ele>
        <time>1970-01-01T00:25:58Z</time>
      </trkpt>
      <trkpt lat="42.80141" lon="2.9805">
        <ele>1</ele>
        <time>1970-01-01T00:25:59Z</time>
      </trkpt>
      <trkpt lat="42.80143" lon="2.98045">
        <ele>1</ele>
        <time>1970-01-01T00:26:00Z</time>
      </trkpt>
      <trkpt lat="42.80144" lon="2.9804">
        <ele>1</ele>
        <time>1970-01-01T00:26:01Z</time>
      </trkpt>
      <trkpt lat="42.80146" lon="2.98035">
        <ele>1</ele>
        <time>1970-01-01T00:26:02Z</time>
      </trkpt>
      <trkpt lat="42.80147" lon="2.9803">
        <ele>1.2</ele>
        <time>1970-01-01T00:26:03Z</time>
      </trkpt>
      <trkpt lat="42.80149" lon="2.98025">
        <ele>1.2</ele>
        <time>1970-01-01T00:26:04Z</time>
      </trkpt>
      <trkpt lat="42.80151" lon="2.9802">
        <ele>1.2</ele>
        <time>1970-01-01T00:26:05Z</time>
      </trkpt>
      <trkpt lat="42.80152" lon="2.98015">
        <ele>1.2</ele>
        <time>1970-01-01T00:26:06Z</time>
      </trkpt>
      <trkpt lat="42.80153" lon="2.9801">
        <ele>1.2</ele>
        <time>1970-01-01T00:26:07Z</time>
      </trkpt>
      <trkpt lat="42.80155" lon="2.98005">
        <ele>1.2</ele>
        <time>1970-01-01T00:26:08Z</time>
      </trkpt>
      <trkpt lat="42.80156" lon="2.98">
        <ele>1.2</ele>
        <time>1970-01-01T00:26:09Z</time>
      </trkpt>
      <trkpt lat="42.80157" lon="2.97995">
        <ele>1.2</ele>
        <time>1970-01-01T00:26:10Z</time>
      </trkpt>
      <trkpt lat="42.80159" lon="2.9799">
        <ele>1.2</ele>
        <time>1970-01-01T00:26:11Z</time>
      </trkpt>
      <trkpt lat="42.8016" lon="2.97985">
        <ele>1.2</ele>
        <time>1970-01-01T00:26:12Z</time>
      </trkpt>
      <trkpt lat="42.80162" lon="2.9798">
        <ele>1.2</ele>
        <time>1970-01-01T00:26:13Z</time>
      </trkpt>
      <trkpt lat="42.80163" lon="2.97975">
        <ele>1.2</ele>
        <time>1970-01-01T00:26:14Z</time>
      </trkpt>
      <trkpt lat="42.80165" lon="2.9797">
        <ele>1.2</ele>
        <time>1970-01-01T00:26:15Z</time>
      </trkpt>
      <trkpt lat="42.80166" lon="2.97965">
        <ele>1.2</ele>
        <time>1970-01-01T00:26:16Z</time>
      </trkpt>
      <trkpt lat="42.80168" lon="2.97961">
        <ele>1.2</ele>
        <time>1970-01-01T00:26:17Z</time>
      </trkpt>
      <trkpt lat="42.8017" lon="2.97956">
        <ele>1.2</ele>
        <time>1970-01-01T00:26:18Z</time>
      </trkpt>
      <trkpt lat="42.80171" lon="2.97951">
        <ele>1.2</ele>
        <time>1970-01-01T00:26:19Z</time>
      </trkpt>
      <trkpt lat="42.80173" lon="2.97947">
        <ele>1.2</ele>
        <time>1970-01-01T00:26:20Z</time>
      </trkpt>
      <trkpt lat="42.80174" lon="2.97942">
        <ele>1.2</ele>
        <time>1970-01-01T00:26:21Z</time>
      </trkpt>
      <trkpt lat="42.80175" lon="2.97937">
        <ele>1.2</ele>
        <time>1970-01-01T00:26:22Z</time>
      </trkpt>
      <trkpt lat="42.80177" lon="2.97932">
        <ele>1.2</ele>
        <time>1970-01-01T00:26:23Z</time>
      </trkpt>
      <trkpt lat="42.80178" lon="2.97927">
        <ele>1.2</ele>
        <time>1970-01-01T00:26:24Z</time>
      </trkpt>
      <trkpt lat="42.80179" lon="2.97922">
        <ele>1.2</ele>
        <time>1970-01-01T00:26:25Z</time>
      </trkpt>
      <trkpt lat="42.80181" lon="2.97917">
        <ele>1.2</ele>
        <time>1970-01-01T00:26:26Z</time>
      </trkpt>
      <trkpt lat="42.80182" lon="2.97912">
        <ele>1.2</ele>
        <time>1970-01-01T00:26:27Z</time>
      </trkpt>
      <trkpt lat="42.80184" lon="2.97906">
        <ele>1.2</ele>
        <time>1970-01-01T00:26:28Z</time>
      </trkpt>
      <trkpt lat="42.80185" lon="2.97901">
        <ele>1.2</ele>
        <time>1970-01-01T00:26:29Z</time>
      </trkpt>
      <trkpt lat="42.80187" lon="2.97896">
        <ele>1.2</ele>
        <time>1970-01-01T00:26:30Z</time>
      </trkpt>
      <trkpt lat="42.80188" lon="2.97891">
        <ele>1.2</ele>
        <time>1970-01-01T00:26:31Z</time>
      </trkpt>
      <trkpt lat="42.8019" lon="2.97886">
        <ele>1.2</ele>
        <time>1970-01-01T00:26:32Z</time>
      </trkpt>
      <trkpt lat="42.80191" lon="2.97881">
        <ele>1.2</ele>
        <time>1970-01-01T00:26:33Z</time>
      </trkpt>
      <trkpt lat="42.80192" lon="2.97876">
        <ele>1.2</ele>
        <time>1970-01-01T00:26:34Z</time>
      </trkpt>
      <trkpt lat="42.80194" lon="2.97871">
        <ele>1.2</ele>
        <time>1970-01-01T00:26:35Z</time>
      </trkpt>
      <trkpt lat="42.80195" lon="2.97867">
        <ele>1.2</ele>
        <time>1970-01-01T00:26:36Z</time>
      </trkpt>
      <trkpt lat="42.80196" lon="2.97863">
        <ele>1.2</ele>
        <time>1970-01-01T00:26:37Z</time>
      </trkpt>
      <trkpt lat="42.80198" lon="2.97858">
        <ele>1</ele>
        <time>1970-01-01T00:26:38Z</time>
      </trkpt>
      <trkpt lat="42.802" lon="2.97853">
        <ele>1</ele>
        <time>1970-01-01T00:26:39Z</time>
      </trkpt>
      <trkpt lat="42.80201" lon="2.97848">
        <ele>1</ele>
        <time>1970-01-01T00:26:40Z</time>
      </trkpt>
      <trkpt lat="42.80202" lon="2.97843">
        <ele>1</ele>
        <time>1970-01-01T00:26:41Z</time>
      </trkpt>
      <trkpt lat="42.80203" lon="2.97839">
        <ele>1</ele>
        <time>1970-01-01T00:26:42Z</time>
      </trkpt>
      <trkpt lat="42.80205" lon="2.97835">
        <ele>1</ele>
        <time>1970-01-01T00:26:43Z</time>
      </trkpt>
      <trkpt lat="42.80208" lon="2.97832">
        <ele>1</ele>
        <time>1970-01-01T00:26:44Z</time>
      </trkpt>
      <trkpt lat="42.80211" lon="2.97828">
        <ele>1</ele>
        <time>1970-01-01T00:26:45Z</time>
      </trkpt>
      <trkpt lat="42.80213" lon="2.97824">
        <ele>1</ele>
        <time>1970-01-01T00:26:46Z</time>
      </trkpt>
      <trkpt lat="42.80214" lon="2.9782">
        <ele>1</ele>
        <time>1970-01-01T00:26:47Z</time>
      </trkpt>
      <trkpt lat="42.80216" lon="2.97815">
        <ele>1</ele>
        <time>1970-01-01T00:26:48Z</time>
      </trkpt>
      <trkpt lat="42.80218" lon="2.97811">
        <ele>1</ele>
        <time>1970-01-01T00:26:49Z</time>
      </trkpt>
      <trkpt lat="42.80221" lon="2.97807">
        <ele>1</ele>
        <time>1970-01-01T00:26:50Z</time>
      </trkpt>
      <trkpt lat="42.80223" lon="2.97803">
        <ele>1</ele>
        <time>1970-01-01T00:26:51Z</time>
      </trkpt>
      <trkpt lat="42.80225" lon="2.97799">
        <ele>1</ele>
        <time>1970-01-01T00:26:52Z</time>
      </trkpt>
      <trkpt lat="42.80227" lon="2.97794">
        <ele>1</ele>
        <time>1970-01-01T00:26:53Z</time>
      </trkpt>
      <trkpt lat="42.80228" lon="2.9779">
        <ele>0.80000000000001</ele>
        <time>1970-01-01T00:26:54Z</time>
      </trkpt>
      <trkpt lat="42.8023" lon="2.97785">
        <ele>0.80000000000001</ele>
        <time>1970-01-01T00:26:55Z</time>
      </trkpt>
      <trkpt lat="42.80232" lon="2.97781">
        <ele>0.80000000000001</ele>
        <time>1970-01-01T00:26:56Z</time>
      </trkpt>
      <trkpt lat="42.80233" lon="2.97777">
        <ele>0.80000000000001</ele>
        <time>1970-01-01T00:26:57Z</time>
      </trkpt>
      <trkpt lat="42.80235" lon="2.97772">
        <ele>0.80000000000001</ele>
        <time>1970-01-01T00:26:58Z</time>
      </trkpt>
      <trkpt lat="42.80237" lon="2.97768">
        <ele>1</ele>
        <time>1970-01-01T00:26:59Z</time>
      </trkpt>
      <trkpt lat="42.80239" lon="2.97764">
        <ele>1</ele>
        <time>1970-01-01T00:27:00Z</time>
      </trkpt>
      <trkpt lat="42.80241" lon="2.9776">
        <ele>1</ele>
        <time>1970-01-01T00:27:01Z</time>
      </trkpt>
      <trkpt lat="42.80243" lon="2.97756">
        <ele>1</ele>
        <time>1970-01-01T00:27:02Z</time>
      </trkpt>
      <trkpt lat="42.80245" lon="2.97753">
        <ele>1</ele>
        <time>1970-01-01T00:27:03Z</time>
      </trkpt>
      <trkpt lat="42.80247" lon="2.97749">
        <ele>1</ele>
        <time>1970-01-01T00:27:04Z</time>
      </trkpt>
      <trkpt lat="42.80249" lon="2.97746">
        <ele>1</ele>
        <time>1970-01-01T00:27:05Z</time>
      </trkpt>
      <trkpt lat="42.80252" lon="2.97743">
        <ele>1</ele>
        <time>1970-01-01T00:27:06Z</time>
      </trkpt>
      <trkpt lat="42.80254" lon="2.97739">
        <ele>1</ele>
        <time>1970-01-01T00:27:07Z</time>
      </trkpt>
      <trkpt lat="42.80256" lon="2.97736">
        <ele>1</ele>
        <time>1970-01-01T00:27:08Z</time>
      </trkpt>
      <trkpt lat="42.80258" lon="2.97733">
        <ele>1</ele>
        <time>1970-01-01T00:27:09Z</time>
      </trkpt>
      <trkpt lat="42.8026" lon="2.97729">
        <ele>1</ele>
        <time>1970-01-01T00:27:10Z</time>
      </trkpt>
      <trkpt lat="42.80261" lon="2.97725">
        <ele>1</ele>
        <time>1970-01-01T00:27:11Z</time>
      </trkpt>
      <trkpt lat="42.80262" lon="2.97721">
        <ele>1</ele>
        <time>1970-01-01T00:27:12Z</time>
      </trkpt>
      <trkpt lat="42.80263" lon="2.97716">
        <ele>1</ele>
        <time>1970-01-01T00:27:13Z</time>
      </trkpt>
      <trkpt lat="42.80264" lon="2.97712">
        <ele>1</ele>
        <time>1970-01-01T00:27:14Z</time>
      </trkpt>
      <trkpt lat="42.80266" lon="2.97709">
        <ele>1</ele>
        <time>1970-01-01T00:27:15Z</time>
      </trkpt>
      <trkpt lat="42.80269" lon="2.97707">
        <ele>1</ele>
        <time>1970-01-01T00:27:16Z</time>
      </trkpt>
      <trkpt lat="42.80271" lon="2.97704">
        <ele>1.2</ele>
        <time>1970-01-01T00:27:17Z</time>
      </trkpt>
      <trkpt lat="42.80274" lon="2.97702">
        <ele>1.2</ele>
        <time>1970-01-01T00:27:18Z</time>
      </trkpt>
      <trkpt lat="42.80274" lon="2.97701">
        <ele>1.2</ele>
        <time>1970-01-01T00:27:19Z</time>
      </trkpt>
      <trkpt lat="42.80275" lon="2.97697">
        <ele>1.2</ele>
        <time>1970-01-01T00:27:20Z</time>
      </trkpt>
      <trkpt lat="42.80276" lon="2.97696">
        <ele>1.2</ele>
        <time>1970-01-01T00:27:21Z</time>
      </trkpt>
      <trkpt lat="42.80277" lon="2.97692">
        <ele>1.2</ele>
        <time>1970-01-01T00:27:22Z</time>
      </trkpt>
      <trkpt lat="42.80278" lon="2.97688">
        <ele>1.2</ele>
        <time>1970-01-01T00:27:23Z</time>
      </trkpt>
      <trkpt lat="42.80279" lon="2.97683">
        <ele>1.2</ele>
        <time>1970-01-01T00:27:24Z</time>
      </trkpt>
      <trkpt lat="42.80281" lon="2.97678">
        <ele>1.2</ele>
        <time>1970-01-01T00:27:25Z</time>
      </trkpt>
      <trkpt lat="42.80281" lon="2.97672">
        <ele>1.2</ele>
        <time>1970-01-01T00:27:26Z</time>
      </trkpt>
      <trkpt lat="42.80281" lon="2.97667">
        <ele>1.2</ele>
        <time>1970-01-01T00:27:27Z</time>
      </trkpt>
      <trkpt lat="42.8028" lon="2.97663">
        <ele>1.2</ele>
        <time>1970-01-01T00:27:28Z</time>
      </trkpt>
      <trkpt lat="42.80278" lon="2.97659">
        <ele>1</ele>
        <time>1970-01-01T00:27:29Z</time>
      </trkpt>
      <trkpt lat="42.80276" lon="2.97656">
        <ele>1</ele>
        <time>1970-01-01T00:27:30Z</time>
      </trkpt>
      <trkpt lat="42.80274" lon="2.97653">
        <ele>1</ele>
        <time>1970-01-01T00:27:31Z</time>
      </trkpt>
      <trkpt lat="42.80272" lon="2.97649">
        <ele>1</ele>
        <time>1970-01-01T00:27:32Z</time>
      </trkpt>
      <trkpt lat="42.80271" lon="2.97646">
        <ele>1</ele>
        <time>1970-01-01T00:27:33Z</time>
      </trkpt>
      <trkpt lat="42.80271" lon="2.97642">
        <ele>1</ele>
        <time>1970-01-01T00:27:34Z</time>
      </trkpt>
      <trkpt lat="42.80271" lon="2.97637">
        <ele>1</ele>
        <time>1970-01-01T00:27:35Z</time>
      </trkpt>
      <trkpt lat="42.80271" lon="2.97632">
        <ele>1</ele>
        <time>1970-01-01T00:27:36Z</time>
      </trkpt>
      <trkpt lat="42.80272" lon="2.97627">
        <ele>1</ele>
        <time>1970-01-01T00:27:37Z</time>
      </trkpt>
      <trkpt lat="42.80273" lon="2.97622">
        <ele>1</ele>
        <time>1970-01-01T00:27:38Z</time>
      </trkpt>
      <trkpt lat="42.80273" lon="2.97618">
        <ele>1</ele>
        <time>1970-01-01T00:27:39Z</time>
      </trkpt>
      <trkpt lat="42.80274" lon="2.97613">
        <ele>1</ele>
        <time>1970-01-01T00:27:40Z</time>
      </trkpt>
      <trkpt lat="42.80275" lon="2.97609">
        <ele>1</ele>
        <time>1970-01-01T00:27:41Z</time>
      </trkpt>
      <trkpt lat="42.80276" lon="2.97605">
        <ele>1</ele>
        <time>1970-01-01T00:27:42Z</time>
      </trkpt>
      <trkpt lat="42.80277" lon="2.976">
        <ele>1</ele>
        <time>1970-01-01T00:27:43Z</time>
      </trkpt>
      <trkpt lat="42.80277" lon="2.97596">
        <ele>1</ele>
        <time>1970-01-01T00:27:44Z</time>
      </trkpt>
      <trkpt lat="42.80278" lon="2.97592">
        <ele>1</ele>
        <time>1970-01-01T00:27:45Z</time>
      </trkpt>
      <trkpt lat="42.80279" lon="2.97589">
        <ele>1</ele>
        <time>1970-01-01T00:27:46Z</time>
      </trkpt>
      <trkpt lat="42.8028" lon="2.97584">
        <ele>1</ele>
        <time>1970-01-01T00:27:47Z</time>
      </trkpt>
      <trkpt lat="42.8028" lon="2.9758">
        <ele>1</ele>
        <time>1970-01-01T00:27:48Z</time>
      </trkpt>
      <trkpt lat="42.80281" lon="2.97575">
        <ele>1</ele>
        <time>1970-01-01T00:27:49Z</time>
      </trkpt>
      <trkpt lat="42.80282" lon="2.97571">
        <ele>1</ele>
        <time>1970-01-01T00:27:50Z</time>
      </trkpt>
      <trkpt lat="42.80283" lon="2.97566">
        <ele>1</ele>
        <time>1970-01-01T00:27:51Z</time>
      </trkpt>
      <trkpt lat="42.80283" lon="2.97562">
        <ele>1</ele>
        <time>1970-01-01T00:27:52Z</time>
      </trkpt>
      <trkpt lat="42.80284" lon="2.97558">
        <ele>1.2</ele>
        <time>1970-01-01T00:27:53Z</time>
      </trkpt>
      <trkpt lat="42.80284" lon="2.97553">
        <ele>1.2</ele>
        <time>1970-01-01T00:27:54Z</time>
      </trkpt>
      <trkpt lat="42.80284" lon="2.97548">
        <ele>1.2</ele>
        <time>1970-01-01T00:27:55Z</time>
      </trkpt>
      <trkpt lat="42.80284" lon="2.97544">
        <ele>1.2</ele>
        <time>1970-01-01T00:27:56Z</time>
      </trkpt>
      <trkpt lat="42.80284" lon="2.97539">
        <ele>1.2</ele>
        <time>1970-01-01T00:27:57Z</time>
      </trkpt>
      <trkpt lat="42.80283" lon="2.97535">
        <ele>1.2</ele>
        <time>1970-01-01T00:27:58Z</time>
      </trkpt>
      <trkpt lat="42.80282" lon="2.97531">
        <ele>1.2</ele>
        <time>1970-01-01T00:27:59Z</time>
      </trkpt>
      <trkpt lat="42.80282" lon="2.97527">
        <ele>1.2</ele>
        <time>1970-01-01T00:28:00Z</time>
      </trkpt>
      <trkpt lat="42.80281" lon="2.97523">
        <ele>1.2</ele>
        <time>1970-01-01T00:28:01Z</time>
      </trkpt>
      <trkpt lat="42.8028" lon="2.97518">
        <ele>1.2</ele>
        <time>1970-01-01T00:28:02Z</time>
      </trkpt>
      <trkpt lat="42.80279" lon="2.97514">
        <ele>1.2</ele>
        <time>1970-01-01T00:28:03Z</time>
      </trkpt>
      <trkpt lat="42.80277" lon="2.97509">
        <ele>1.2</ele>
        <time>1970-01-01T00:28:04Z</time>
      </trkpt>
      <trkpt lat="42.80276" lon="2.97505">
        <ele>1.2</ele>
        <time>1970-01-01T00:28:05Z</time>
      </trkpt>
      <trkpt lat="42.80275" lon="2.975">
        <ele>1.2</ele>
        <time>1970-01-01T00:28:06Z</time>
      </trkpt>
      <trkpt lat="42.80273" lon="2.97495">
        <ele>1.2</ele>
        <time>1970-01-01T00:28:07Z</time>
      </trkpt>
      <trkpt lat="42.80273" lon="2.97491">
        <ele>1.2</ele>
        <time>1970-01-01T00:28:08Z</time>
      </trkpt>
      <trkpt lat="42.80272" lon="2.97486">
        <ele>1.2</ele>
        <time>1970-01-01T00:28:09Z</time>
      </trkpt>
      <trkpt lat="42.80271" lon="2.97481">
        <ele>1.2</ele>
        <time>1970-01-01T00:28:10Z</time>
      </trkpt>
      <trkpt lat="42.8027" lon="2.97477">
        <ele>1.2</ele>
        <time>1970-01-01T00:28:11Z</time>
      </trkpt>
      <trkpt lat="42.8027" lon="2.97472">
        <ele>1.2</ele>
        <time>1970-01-01T00:28:12Z</time>
      </trkpt>
      <trkpt lat="42.80269" lon="2.97467">
        <ele>1.2</ele>
        <time>1970-01-01T00:28:13Z</time>
      </trkpt>
      <trkpt lat="42.80268" lon="2.97463">
        <ele>1.2</ele>
        <time>1970-01-01T00:28:14Z</time>
      </trkpt>
      <trkpt lat="42.80267" lon="2.97458">
        <ele>1</ele>
        <time>1970-01-01T00:28:15Z</time>
      </trkpt>
      <trkpt lat="42.80266" lon="2.97454">
        <ele>1</ele>
        <time>1970-01-01T00:28:16Z</time>
      </trkpt>
      <trkpt lat="42.80266" lon="2.97449">
        <ele>1</ele>
        <time>1970-01-01T00:28:17Z</time>
      </trkpt>
      <trkpt lat="42.80266" lon="2.97444">
        <ele>1</ele>
        <time>1970-01-01T00:28:18Z</time>
      </trkpt>
      <trkpt lat="42.80265" lon="2.97439">
        <ele>1</ele>
        <time>1970-01-01T00:28:19Z</time>
      </trkpt>
      <trkpt lat="42.80264" lon="2.97434">
        <ele>1</ele>
        <time>1970-01-01T00:28:20Z</time>
      </trkpt>
      <trkpt lat="42.80264" lon="2.97429">
        <ele>1</ele>
        <time>1970-01-01T00:28:21Z</time>
      </trkpt>
      <trkpt lat="42.80264" lon="2.97424">
        <ele>1</ele>
        <time>1970-01-01T00:28:22Z</time>
      </trkpt>
      <trkpt lat="42.80264" lon="2.97419">
        <ele>1</ele>
        <time>1970-01-01T00:28:23Z</time>
      </trkpt>
      <trkpt lat="42.80264" lon="2.97414">
        <ele>1</ele>
        <time>1970-01-01T00:28:24Z</time>
      </trkpt>
      <trkpt lat="42.80265" lon="2.97409">
        <ele>1</ele>
        <time>1970-01-01T00:28:25Z</time>
      </trkpt>
      <trkpt lat="42.80265" lon="2.97405">
        <ele>1</ele>
        <time>1970-01-01T00:28:26Z</time>
      </trkpt>
      <trkpt lat="42.80266" lon="2.97401">
        <ele>1</ele>
        <time>1970-01-01T00:28:27Z</time>
      </trkpt>
      <trkpt lat="42.80266" lon="2.97396">
        <ele>1</ele>
        <time>1970-01-01T00:28:28Z</time>
      </trkpt>
      <trkpt lat="42.80267" lon="2.97391">
        <ele>1.2</ele>
        <time>1970-01-01T00:28:29Z</time>
      </trkpt>
      <trkpt lat="42.80268" lon="2.97387">
        <ele>1.2</ele>
        <time>1970-01-01T00:28:30Z</time>
      </trkpt>
      <trkpt lat="42.80268" lon="2.97382">
        <ele>1.2</ele>
        <time>1970-01-01T00:28:31Z</time>
      </trkpt>
      <trkpt lat="42.80269" lon="2.97378">
        <ele>1.2</ele>
        <time>1970-01-01T00:28:32Z</time>
      </trkpt>
      <trkpt lat="42.80269" lon="2.97374">
        <ele>1.2</ele>
        <time>1970-01-01T00:28:33Z</time>
      </trkpt>
      <trkpt lat="42.8027" lon="2.9737">
        <ele>1.2</ele>
        <time>1970-01-01T00:28:34Z</time>
      </trkpt>
      <trkpt lat="42.8027" lon="2.97365">
        <ele>1.2</ele>
        <time>1970-01-01T00:28:35Z</time>
      </trkpt>
      <trkpt lat="42.80271" lon="2.97361">
        <ele>1.2</ele>
        <time>1970-01-01T00:28:36Z</time>
      </trkpt>
      <trkpt lat="42.80272" lon="2.97357">
        <ele>1.2</ele>
        <time>1970-01-01T00:28:37Z</time>
      </trkpt>
      <trkpt lat="42.80272" lon="2.97352">
        <ele>1</ele>
        <time>1970-01-01T00:28:38Z</time>
      </trkpt>
      <trkpt lat="42.80272" lon="2.97348">
        <ele>1</ele>
        <time>1970-01-01T00:28:39Z</time>
      </trkpt>
      <trkpt lat="42.80273" lon="2.97344">
        <ele>1</ele>
        <time>1970-01-01T00:28:40Z</time>
      </trkpt>
      <trkpt lat="42.80273" lon="2.9734">
        <ele>1</ele>
        <time>1970-01-01T00:28:41Z</time>
      </trkpt>
      <trkpt lat="42.80274" lon="2.97336">
        <ele>1</ele>
        <time>1970-01-01T00:28:42Z</time>
      </trkpt>
      <trkpt lat="42.80274" lon="2.97332">
        <ele>1</ele>
        <time>1970-01-01T00:28:43Z</time>
      </trkpt>
      <trkpt lat="42.80274" lon="2.97328">
        <ele>1</ele>
        <time>1970-01-01T00:28:44Z</time>
      </trkpt>
      <trkpt lat="42.80275" lon="2.97324">
        <ele>1</ele>
        <time>1970-01-01T00:28:45Z</time>
      </trkpt>
      <trkpt lat="42.80275" lon="2.97321">
        <ele>1</ele>
        <time>1970-01-01T00:28:46Z</time>
      </trkpt>
      <trkpt lat="42.80276" lon="2.97317">
        <ele>1.2</ele>
        <time>1970-01-01T00:28:47Z</time>
      </trkpt>
      <trkpt lat="42.80277" lon="2.97314">
        <ele>1.2</ele>
        <time>1970-01-01T00:28:48Z</time>
      </trkpt>
      <trkpt lat="42.80279" lon="2.97309">
        <ele>1.2</ele>
        <time>1970-01-01T00:28:49Z</time>
      </trkpt>
      <trkpt lat="42.80279" lon="2.97307">
        <ele>1.2</ele>
        <time>1970-01-01T00:28:50Z</time>
      </trkpt>
      <trkpt lat="42.80281" lon="2.97306">
        <ele>1.2</ele>
        <time>1970-01-01T00:28:51Z</time>
      </trkpt>
      <trkpt lat="42.80282" lon="2.97305">
        <ele>1.2</ele>
        <time>1970-01-01T00:28:52Z</time>
      </trkpt>
      <trkpt lat="42.80283" lon="2.97304">
        <ele>1.2</ele>
        <time>1970-01-01T00:28:53Z</time>
      </trkpt>
      <trkpt lat="42.80284" lon="2.97303">
        <ele>1.2</ele>
        <time>1970-01-01T00:28:54Z</time>
      </trkpt>
      <trkpt lat="42.80285" lon="2.97304">
        <ele>1.2</ele>
        <time>1970-01-01T00:28:55Z</time>
      </trkpt>
      <trkpt lat="42.80286" lon="2.97304">
        <ele>1.2</ele>
        <time>1970-01-01T00:28:56Z</time>
      </trkpt>
      <trkpt lat="42.80288" lon="2.97305">
        <ele>1.2</ele>
        <time>1970-01-01T00:28:57Z</time>
      </trkpt>
      <trkpt lat="42.80291" lon="2.97304">
        <ele>1.2</ele>
        <time>1970-01-01T00:28:58Z</time>
      </trkpt>
      <trkpt lat="42.80292" lon="2.97304">
        <ele>1.2</ele>
        <time>1970-01-01T00:28:59Z</time>
      </trkpt>
      <trkpt lat="42.80294" lon="2.97301">
        <ele>1</ele>
        <time>1970-01-01T00:29:00Z</time>
      </trkpt>
      <trkpt lat="42.80295" lon="2.973">
        <ele>1</ele>
        <time>1970-01-01T00:29:01Z</time>
      </trkpt>
      <trkpt lat="42.80295" lon="2.97295">
        <ele>1</ele>
        <time>1970-01-01T00:29:02Z</time>
      </trkpt>
      <trkpt lat="42.80296" lon="2.97293">
        <ele>1</ele>
        <time>1970-01-01T00:29:03Z</time>
      </trkpt>
      <trkpt lat="42.80296" lon="2.97289">
        <ele>1</ele>
        <time>1970-01-01T00:29:04Z</time>
      </trkpt>
      <trkpt lat="42.80297" lon="2.97286">
        <ele>1</ele>
        <time>1970-01-01T00:29:05Z</time>
      </trkpt>
      <trkpt lat="42.80299" lon="2.97282">
        <ele>1</ele>
        <time>1970-01-01T00:29:06Z</time>
      </trkpt>
      <trkpt lat="42.80301" lon="2.97279">
        <ele>0.80000000000001</ele>
        <time>1970-01-01T00:29:07Z</time>
      </trkpt>
      <trkpt lat="42.80303" lon="2.97276">
        <ele>0.80000000000001</ele>
        <time>1970-01-01T00:29:08Z</time>
      </trkpt>
      <trkpt lat="42.80305" lon="2.97273">
        <ele>0.80000000000001</ele>
        <time>1970-01-01T00:29:09Z</time>
      </trkpt>
      <trkpt lat="42.80308" lon="2.97271">
        <ele>0.80000000000001</ele>
        <time>1970-01-01T00:29:10Z</time>
      </trkpt>
      <trkpt lat="42.8031" lon="2.97268">
        <ele>0.80000000000001</ele>
        <time>1970-01-01T00:29:11Z</time>
      </trkpt>
      <trkpt lat="42.80313" lon="2.97266">
        <ele>0.80000000000001</ele>
        <time>1970-01-01T00:29:12Z</time>
      </trkpt>
      <trkpt lat="42.80316" lon="2.97263">
        <ele>0.80000000000001</ele>
        <time>1970-01-01T00:29:13Z</time>
      </trkpt>
      <trkpt lat="42.80318" lon="2.9726">
        <ele>0.80000000000001</ele>
        <time>1970-01-01T00:29:14Z</time>
      </trkpt>
      <trkpt lat="42.80321" lon="2.97258">
        <ele>0.80000000000001</ele>
        <time>1970-01-01T00:29:15Z</time>
      </trkpt>
      <trkpt lat="42.80324" lon="2.97255">
        <ele>0.80000000000001</ele>
        <time>1970-01-01T00:29:16Z</time>
      </trkpt>
      <trkpt lat="42.80327" lon="2.97252">
        <ele>0.80000000000001</ele>
        <time>1970-01-01T00:29:17Z</time>
      </trkpt>
      <trkpt lat="42.80329" lon="2.9725">
        <ele>0.80000000000001</ele>
        <time>1970-01-01T00:29:18Z</time>
      </trkpt>
      <trkpt lat="42.80332" lon="2.97247">
        <ele>0.80000000000001</ele>
        <time>1970-01-01T00:29:19Z</time>
      </trkpt>
      <trkpt lat="42.80335" lon="2.97244">
        <ele>0.80000000000001</ele>
        <time>1970-01-01T00:29:20Z</time>
      </trkpt>
      <trkpt lat="42.80336" lon="2.97243">
        <ele>0.80000000000001</ele>
        <time>1970-01-01T00:29:21Z</time>
      </trkpt>
      <trkpt lat="42.80339" lon="2.9724">
        <ele>0.80000000000001</ele>
        <time>1970-01-01T00:29:22Z</time>
      </trkpt>
      <trkpt lat="42.80341" lon="2.97238">
        <ele>0.80000000000001</ele>
        <time>1970-01-01T00:29:23Z</time>
      </trkpt>
      <trkpt lat="42.80344" lon="2.97235">
        <ele>0.80000000000001</ele>
        <time>1970-01-01T00:29:24Z</time>
      </trkpt>
      <trkpt lat="42.80347" lon="2.97232">
        <ele>0.80000000000001</ele>
        <time>1970-01-01T00:29:25Z</time>
      </trkpt>
      <trkpt lat="42.8035" lon="2.97229">
        <ele>0.80000000000001</ele>
        <time>1970-01-01T00:29:26Z</time>
      </trkpt>
      <trkpt lat="42.80352" lon="2.97227">
        <ele>0.80000000000001</ele>
        <time>1970-01-01T00:29:27Z</time>
      </trkpt>
      <trkpt lat="42.80355" lon="2.97224">
        <ele>0.80000000000001</ele>
        <time>1970-01-01T00:29:28Z</time>
      </trkpt>
      <trkpt lat="42.80358" lon="2.97222">
        <ele>0.80000000000001</ele>
        <time>1970-01-01T00:29:29Z</time>
      </trkpt>
      <trkpt lat="42.80361" lon="2.9722">
        <ele>0.80000000000001</ele>
        <time>1970-01-01T00:29:30Z</time>
      </trkpt>
      <trkpt lat="42.80363" lon="2.97218">
        <ele>0.80000000000001</ele>
        <time>1970-01-01T00:29:31Z</time>
      </trkpt>
      <trkpt lat="42.80366" lon="2.97218">
        <ele>0.80000000000001</ele>
        <time>1970-01-01T00:29:32Z</time>
      </trkpt>
      <trkpt lat="42.80369" lon="2.97217">
        <ele>0.80000000000001</ele>
        <time>1970-01-01T00:29:33Z</time>
      </trkpt>
      <trkpt lat="42.80372" lon="2.97218">
        <ele>0.80000000000001</ele>
        <time>1970-01-01T00:29:34Z</time>
      </trkpt>
      <trkpt lat="42.80376" lon="2.97218">
        <ele>0.80000000000001</ele>
        <time>1970-01-01T00:29:35Z</time>
      </trkpt>
      <trkpt lat="42.80379" lon="2.97219">
        <ele>0.80000000000001</ele>
        <time>1970-01-01T00:29:36Z</time>
      </trkpt>
      <trkpt lat="42.80382" lon="2.97219">
        <ele>0.80000000000001</ele>
        <time>1970-01-01T00:29:37Z</time>
      </trkpt>
      <trkpt lat="42.80385" lon="2.9722">
        <ele>0.80000000000001</ele>
        <time>1970-01-01T00:29:38Z</time>
      </trkpt>
      <trkpt lat="42.80388" lon="2.97221">
        <ele>0.80000000000001</ele>
        <time>1970-01-01T00:29:39Z</time>
      </trkpt>
      <trkpt lat="42.80392" lon="2.97222">
        <ele>0.80000000000001</ele>
        <time>1970-01-01T00:29:40Z</time>
      </trkpt>
      <trkpt lat="42.80395" lon="2.97223">
        <ele>0.80000000000001</ele>
        <time>1970-01-01T00:29:41Z</time>
      </trkpt>
      <trkpt lat="42.80398" lon="2.97224">
        <ele>0.80000000000001</ele>
        <time>1970-01-01T00:29:42Z</time>
      </trkpt>
      <trkpt lat="42.80401" lon="2.97224">
        <ele>0.80000000000001</ele>
        <time>1970-01-01T00:29:43Z</time>
      </trkpt>
      <trkpt lat="42.80405" lon="2.97225">
        <ele>0.80000000000001</ele>
        <time>1970-01-01T00:29:44Z</time>
      </trkpt>
      <trkpt lat="42.80408" lon="2.97226">
        <ele>0.80000000000001</ele>
        <time>1970-01-01T00:29:45Z</time>
      </trkpt>
      <trkpt lat="42.80412" lon="2.97227">
        <ele>0.80000000000001</ele>
        <time>1970-01-01T00:29:46Z</time>
      </trkpt>
      <trkpt lat="42.80416" lon="2.97228">
        <ele>0.80000000000001</ele>
        <time>1970-01-01T00:29:47Z</time>
      </trkpt>
      <trkpt lat="42.80419" lon="2.97228">
        <ele>0.80000000000001</ele>
        <time>1970-01-01T00:29:48Z</time>
      </trkpt>
      <trkpt lat="42.80422" lon="2.97229">
        <ele>0.80000000000001</ele>
        <time>1970-01-01T00:29:49Z</time>
      </trkpt>
      <trkpt lat="42.80426" lon="2.97231">
        <ele>1</ele>
        <time>1970-01-01T00:29:50Z</time>
      </trkpt>
      <trkpt lat="42.80429" lon="2.97232">
        <ele>1</ele>
        <time>1970-01-01T00:29:51Z</time>
      </trkpt>
      <trkpt lat="42.80432" lon="2.97232">
        <ele>1</ele>
        <time>1970-01-01T00:29:52Z</time>
      </trkpt>
      <trkpt lat="42.80435" lon="2.9723">
        <ele>1</ele>
        <time>1970-01-01T00:29:53Z</time>
      </trkpt>
      <trkpt lat="42.80438" lon="2.97227">
        <ele>0.80000000000001</ele>
        <time>1970-01-01T00:29:54Z</time>
      </trkpt>
      <trkpt lat="42.80439" lon="2.97224">
        <ele>0.80000000000001</ele>
        <time>1970-01-01T00:29:55Z</time>
      </trkpt>
      <trkpt lat="42.80441" lon="2.9722">
        <ele>0.80000000000001</ele>
        <time>1970-01-01T00:29:56Z</time>
      </trkpt>
      <trkpt lat="42.80443" lon="2.97217">
        <ele>0.80000000000001</ele>
        <time>1970-01-01T00:29:57Z</time>
      </trkpt>
      <trkpt lat="42.80445" lon="2.97213">
        <ele>0.80000000000001</ele>
        <time>1970-01-01T00:29:58Z</time>
      </trkpt>
      <trkpt lat="42.80447" lon="2.9721">
        <ele>0.80000000000001</ele>
        <time>1970-01-01T00:29:59Z</time>
      </trkpt>
      <trkpt lat="42.80449" lon="2.97206">
        <ele>0.80000000000001</ele>
        <time>1970-01-01T00:30:00Z</time>
      </trkpt>
      <trkpt lat="42.8045" lon="2.97202">
        <ele>0.60000000000002</ele>
        <time>1970-01-01T00:30:01Z</time>
      </trkpt>
      <trkpt lat="42.80452" lon="2.97198">
        <ele>0.60000000000002</ele>
        <time>1970-01-01T00:30:02Z</time>
      </trkpt>
      <trkpt lat="42.80454" lon="2.97195">
        <ele>0.60000000000002</ele>
        <time>1970-01-01T00:30:03Z</time>
      </trkpt>
      <trkpt lat="42.80456" lon="2.97191">
        <ele>0.60000000000002</ele>
        <time>1970-01-01T00:30:04Z</time>
      </trkpt>
      <trkpt lat="42.80457" lon="2.97187">
        <ele>0.60000000000002</ele>
        <time>1970-01-01T00:30:05Z</time>
      </trkpt>
      <trkpt lat="42.80459" lon="2.97183">
        <ele>0.60000000000002</ele>
        <time>1970-01-01T00:30:06Z</time>
      </trkpt>
      <trkpt lat="42.80461" lon="2.9718">
        <ele>0.60000000000002</ele>
        <time>1970-01-01T00:30:07Z</time>
      </trkpt>
      <trkpt lat="42.80462" lon="2.97176">
        <ele>0.60000000000002</ele>
        <time>1970-01-01T00:30:08Z</time>
      </trkpt>
      <trkpt lat="42.80464" lon="2.97172">
        <ele>0.60000000000002</ele>
        <time>1970-01-01T00:30:09Z</time>
      </trkpt>
      <trkpt lat="42.80466" lon="2.97169">
        <ele>0.60000000000002</ele>
        <time>1970-01-01T00:30:10Z</time>
      </trkpt>
      <trkpt lat="42.80468" lon="2.97166">
        <ele>0.60000000000002</ele>
        <time>1970-01-01T00:30:11Z</time>
      </trkpt>
      <trkpt lat="42.8047" lon="2.97162">
        <ele>0.60000000000002</ele>
        <time>1970-01-01T00:30:12Z</time>
      </trkpt>
      <trkpt lat="42.80471" lon="2.97158">
        <ele>0.60000000000002</ele>
        <time>1970-01-01T00:30:13Z</time>
      </trkpt>
      <trkpt lat="42.80473" lon="2.97154">
        <ele>0.60000000000002</ele>
        <time>1970-01-01T00:30:14Z</time>
      </trkpt>
      <trkpt lat="42.80475" lon="2.9715">
        <ele>0.60000000000002</ele>
        <time>1970-01-01T00:30:15Z</time>
      </trkpt>
      <trkpt lat="42.80477" lon="2.97146">
        <ele>0.60000000000002</ele>
        <time>1970-01-01T00:30:16Z</time>
      </trkpt>
      <trkpt lat="42.80479" lon="2.97143">
        <ele>0.60000000000002</ele>
        <time>1970-01-01T00:30:17Z</time>
      </trkpt>
      <trkpt lat="42.80481" lon="2.97139">
        <ele>0.60000000000002</ele>
        <time>1970-01-01T00:30:18Z</time>
      </trkpt>
      <trkpt lat="42.80482" lon="2.97135">
        <ele>0.60000000000002</ele>
        <time>1970-01-01T00:30:19Z</time>
      </trkpt>
      <trkpt lat="42.80484" lon="2.97131">
        <ele>0.60000000000002</ele>
        <time>1970-01-01T00:30:20Z</time>
      </trkpt>
      <trkpt lat="42.80486" lon="2.97127">
        <ele>0.60000000000002</ele>
        <time>1970-01-01T00:30:21Z</time>
      </trkpt>
      <trkpt lat="42.80488" lon="2.97124">
        <ele>0.60000000000002</ele>
        <time>1970-01-01T00:30:22Z</time>
      </trkpt>
      <trkpt lat="42.8049" lon="2.97121">
        <ele>0.60000000000002</ele>
        <time>1970-01-01T00:30:23Z</time>
      </trkpt>
      <trkpt lat="42.80492" lon="2.97117">
        <ele>0.60000000000002</ele>
        <time>1970-01-01T00:30:24Z</time>
      </trkpt>
      <trkpt lat="42.80494" lon="2.97113">
        <ele>0.60000000000002</ele>
        <time>1970-01-01T00:30:25Z</time>
      </trkpt>
      <trkpt lat="42.80496" lon="2.97109">
        <ele>0.60000000000002</ele>
        <time>1970-01-01T00:30:26Z</time>
      </trkpt>
      <trkpt lat="42.80497" lon="2.97106">
        <ele>0.60000000000002</ele>
        <time>1970-01-01T00:30:27Z</time>
      </trkpt>
      <trkpt lat="42.80499" lon="2.97102">
        <ele>0.60000000000002</ele>
        <time>1970-01-01T00:30:28Z</time>
      </trkpt>
      <trkpt lat="42.80501" lon="2.97098">
        <ele>0.60000000000002</ele>
        <time>1970-01-01T00:30:29Z</time>
      </trkpt>
      <trkpt lat="42.80502" lon="2.97095">
        <ele>0.80000000000001</ele>
        <time>1970-01-01T00:30:30Z</time>
      </trkpt>
      <trkpt lat="42.80504" lon="2.97091">
        <ele>0.80000000000001</ele>
        <time>1970-01-01T00:30:31Z</time>
      </trkpt>
      <trkpt lat="42.80505" lon="2.97088">
        <ele>0.80000000000001</ele>
        <time>1970-01-01T00:30:32Z</time>
      </trkpt>
      <trkpt lat="42.80508" lon="2.97085">
        <ele>0.80000000000001</ele>
        <time>1970-01-01T00:30:33Z</time>
      </trkpt>
      <trkpt lat="42.80509" lon="2.97084">
        <ele>1</ele>
        <time>1970-01-01T00:30:34Z</time>
      </trkpt>
      <trkpt lat="42.8051" lon="2.97083">
        <ele>1</ele>
        <time>1970-01-01T00:30:35Z</time>
      </trkpt>
      <trkpt lat="42.80511" lon="2.97083">
        <ele>1</ele>
        <time>1970-01-01T00:30:36Z</time>
      </trkpt>
      <trkpt lat="42.80511" lon="2.97082">
        <ele>1</ele>
        <time>1970-01-01T00:30:37Z</time>
      </trkpt>
      <trkpt lat="42.80511" lon="2.97081">
        <ele>1</ele>
        <time>1970-01-01T00:30:38Z</time>
      </trkpt>
      <trkpt lat="42.80511" lon="2.9708">
        <ele>1</ele>
        <time>1970-01-01T00:30:39Z</time>
      </trkpt>
      <trkpt lat="42.80511" lon="2.97079">
        <ele>1</ele>
        <time>1970-01-01T00:30:40Z</time>
      </trkpt>
      <trkpt lat="42.80511" lon="2.97078">
        <ele>1</ele>
        <time>1970-01-01T00:30:41Z</time>
      </trkpt>
      <trkpt lat="42.80512" lon="2.97077">
        <ele>1</ele>
        <time>1970-01-01T00:30:42Z</time>
      </trkpt>
      <trkpt lat="42.80512" lon="2.97076">
        <ele>1</ele>
        <time>1970-01-01T00:30:43Z</time>
      </trkpt>
      <trkpt lat="42.80512" lon="2.97075">
        <ele>1</ele>
        <time>1970-01-01T00:30:44Z</time>
      </trkpt>
      <trkpt lat="42.80513" lon="2.97074">
        <ele>1</ele>
        <time>1970-01-01T00:30:45Z</time>
      </trkpt>
      <trkpt lat="42.80515" lon="2.97071">
        <ele>1</ele>
        <time>1970-01-01T00:30:46Z</time>
      </trkpt>
      <trkpt lat="42.80515" lon="2.9707">
        <ele>1</ele>
        <time>1970-01-01T00:30:47Z</time>
      </trkpt>
      <trkpt lat="42.80517" lon="2.97066">
        <ele>1</ele>
        <time>1970-01-01T00:30:48Z</time>
      </trkpt>
      <trkpt lat="42.80518" lon="2.97065">
        <ele>1</ele>
        <time>1970-01-01T00:30:49Z</time>
      </trkpt>
      <trkpt lat="42.8052" lon="2.97063">
        <ele>1</ele>
        <time>1970-01-01T00:30:50Z</time>
      </trkpt>
      <trkpt lat="42.80521" lon="2.97062">
        <ele>1</ele>
        <time>1970-01-01T00:30:51Z</time>
      </trkpt>
      <trkpt lat="42.80524" lon="2.9706">
        <ele>1</ele>
        <time>1970-01-01T00:30:52Z</time>
      </trkpt>
      <trkpt lat="42.80525" lon="2.97059">
        <ele>1</ele>
        <time>1970-01-01T00:30:53Z</time>
      </trkpt>
      <trkpt lat="42.80529" lon="2.97057">
        <ele>1</ele>
        <time>1970-01-01T00:30:54Z</time>
      </trkpt>
      <trkpt lat="42.8053" lon="2.97056">
        <ele>0.80000000000001</ele>
        <time>1970-01-01T00:30:55Z</time>
      </trkpt>
      <trkpt lat="42.80533" lon="2.97055">
        <ele>0.80000000000001</ele>
        <time>1970-01-01T00:30:56Z</time>
      </trkpt>
      <trkpt lat="42.80536" lon="2.97054">
        <ele>0.80000000000001</ele>
        <time>1970-01-01T00:30:57Z</time>
      </trkpt>
      <trkpt lat="42.80539" lon="2.97052">
        <ele>0.80000000000001</ele>
        <time>1970-01-01T00:30:58Z</time>
      </trkpt>
      <trkpt lat="42.80543" lon="2.97051">
        <ele>0.80000000000001</ele>
        <time>1970-01-01T00:30:59Z</time>
      </trkpt>
      <trkpt lat="42.80546" lon="2.97049">
        <ele>0.80000000000001</ele>
        <time>1970-01-01T00:31:00Z</time>
      </trkpt>
      <trkpt lat="42.80549" lon="2.97048">
        <ele>0.80000000000001</ele>
        <time>1970-01-01T00:31:01Z</time>
      </trkpt>
      <trkpt lat="42.80552" lon="2.97047">
        <ele>0.80000000000001</ele>
        <time>1970-01-01T00:31:02Z</time>
      </trkpt>
      <trkpt lat="42.80555" lon="2.97045">
        <ele>0.80000000000001</ele>
        <time>1970-01-01T00:31:03Z</time>
      </trkpt>
      <trkpt lat="42.80558" lon="2.97044">
        <ele>0.80000000000001</ele>
        <time>1970-01-01T00:31:04Z</time>
      </trkpt>
      <trkpt lat="42.80561" lon="2.97042">
        <ele>0.80000000000001</ele>
        <time>1970-01-01T00:31:05Z</time>
      </trkpt>
      <trkpt lat="42.80564" lon="2.97041">
        <ele>0.80000000000001</ele>
        <time>1970-01-01T00:31:06Z</time>
      </trkpt>
      <trkpt lat="42.80567" lon="2.9704">
        <ele>0.80000000000001</ele>
        <time>1970-01-01T00:31:07Z</time>
      </trkpt>
      <trkpt lat="42.80571" lon="2.97038">
        <ele>0.80000000000001</ele>
        <time>1970-01-01T00:31:08Z</time>
      </trkpt>
      <trkpt lat="42.80574" lon="2.97037">
        <ele>0.80000000000001</ele>
        <time>1970-01-01T00:31:09Z</time>
      </trkpt>
      <trkpt lat="42.80577" lon="2.97036">
        <ele>0.80000000000001</ele>
        <time>1970-01-01T00:31:10Z</time>
      </trkpt>
      <trkpt lat="42.8058" lon="2.97034">
        <ele>0.80000000000001</ele>
        <time>1970-01-01T00:31:11Z</time>
      </trkpt>
      <trkpt lat="42.80583" lon="2.97033">
        <ele>0.80000000000001</ele>
        <time>1970-01-01T00:31:12Z</time>
      </trkpt>
      <trkpt lat="42.80586" lon="2.97031">
        <ele>0.80000000000001</ele>
        <time>1970-01-01T00:31:13Z</time>
      </trkpt>
      <trkpt lat="42.80589" lon="2.9703">
        <ele>0.80000000000001</ele>
        <time>1970-01-01T00:31:14Z</time>
      </trkpt>
      <trkpt lat="42.80592" lon="2.97029">
        <ele>0.80000000000001</ele>
        <time>1970-01-01T00:31:15Z</time>
      </trkpt>
      <trkpt lat="42.80596" lon="2.97027">
        <ele>0.80000000000001</ele>
        <time>1970-01-01T00:31:16Z</time>
      </trkpt>
      <trkpt lat="42.80599" lon="2.97026">
        <ele>0.80000000000001</ele>
        <time>1970-01-01T00:31:17Z</time>
      </trkpt>
      <trkpt lat="42.80602" lon="2.97024">
        <ele>0.80000000000001</ele>
        <time>1970-01-01T00:31:18Z</time>
      </trkpt>
      <trkpt lat="42.80605" lon="2.97023">
        <ele>0.80000000000001</ele>
        <time>1970-01-01T00:31:19Z</time>
      </trkpt>
      <trkpt lat="42.80608" lon="2.97021">
        <ele>0.80000000000001</ele>
        <time>1970-01-01T00:31:20Z</time>
      </trkpt>
      <trkpt lat="42.80612" lon="2.9702">
        <ele>0.80000000000001</ele>
        <time>1970-01-01T00:31:21Z</time>
      </trkpt>
      <trkpt lat="42.80615" lon="2.97019">
        <ele>0.80000000000001</ele>
        <time>1970-01-01T00:31:22Z</time>
      </trkpt>
      <trkpt lat="42.80618" lon="2.97017">
        <ele>0.80000000000001</ele>
        <time>1970-01-01T00:31:23Z</time>
      </trkpt>
      <trkpt lat="42.80621" lon="2.97016">
        <ele>0.80000000000001</ele>
        <time>1970-01-01T00:31:24Z</time>
      </trkpt>
      <trkpt lat="42.80624" lon="2.97014">
        <ele>0.80000000000001</ele>
        <time>1970-01-01T00:31:25Z</time>
      </trkpt>
      <trkpt lat="42.80628" lon="2.97012">
        <ele>0.80000000000001</ele>
        <time>1970-01-01T00:31:26Z</time>
      </trkpt>
      <trkpt lat="42.80631" lon="2.9701">
        <ele>0.80000000000001</ele>
        <time>1970-01-01T00:31:27Z</time>
      </trkpt>
      <trkpt lat="42.80633" lon="2.97007">
        <ele>0.80000000000001</ele>
        <time>1970-01-01T00:31:28Z</time>
      </trkpt>
      <trkpt lat="42.80636" lon="2.97003">
        <ele>0.80000000000001</ele>
        <time>1970-01-01T00:31:29Z</time>
      </trkpt>
      <trkpt lat="42.80638" lon="2.96999">
        <ele>0.80000000000001</ele>
        <time>1970-01-01T00:31:30Z</time>
      </trkpt>
      <trkpt lat="42.8064" lon="2.96995">
        <ele>0.80000000000001</ele>
        <time>1970-01-01T00:31:31Z</time>
      </trkpt>
      <trkpt lat="42.80642" lon="2.9699">
        <ele>0.80000000000001</ele>
        <time>1970-01-01T00:31:32Z</time>
      </trkpt>
      <trkpt lat="42.80644" lon="2.96986">
        <ele>0.80000000000001</ele>
        <time>1970-01-01T00:31:33Z</time>
      </trkpt>
      <trkpt lat="42.80645" lon="2.96982">
        <ele>0.80000000000001</ele>
        <time>1970-01-01T00:31:34Z</time>
      </trkpt>
      <trkpt lat="42.80647" lon="2.96977">
        <ele>0.80000000000001</ele>
        <time>1970-01-01T00:31:35Z</time>
      </trkpt>
      <trkpt lat="42.80649" lon="2.96973">
        <ele>0.80000000000001</ele>
        <time>1970-01-01T00:31:36Z</time>
      </trkpt>
      <trkpt lat="42.8065" lon="2.96969">
        <ele>0.80000000000001</ele>
        <time>1970-01-01T00:31:37Z</time>
      </trkpt>
      <trkpt lat="42.80652" lon="2.96965">
        <ele>0.80000000000001</ele>
        <time>1970-01-01T00:31:38Z</time>
      </trkpt>
      <trkpt lat="42.80654" lon="2.9696">
        <ele>0.80000000000001</ele>
        <time>1970-01-01T00:31:39Z</time>
      </trkpt>
      <trkpt lat="42.80656" lon="2.96956">
        <ele>0.80000000000001</ele>
        <time>1970-01-01T00:31:40Z</time>
      </trkpt>
      <trkpt lat="42.80658" lon="2.96952">
        <ele>1</ele>
        <time>1970-01-01T00:31:41Z</time>
      </trkpt>
      <trkpt lat="42.8066" lon="2.96948">
        <ele>1</ele>
        <time>1970-01-01T00:31:42Z</time>
      </trkpt>
      <trkpt lat="42.80661" lon="2.96944">
        <ele>1</ele>
        <time>1970-01-01T00:31:43Z</time>
      </trkpt>
      <trkpt lat="42.80663" lon="2.9694">
        <ele>1</ele>
        <time>1970-01-01T00:31:44Z</time>
      </trkpt>
      <trkpt lat="42.80665" lon="2.96935">
        <ele>1</ele>
        <time>1970-01-01T00:31:45Z</time>
      </trkpt>
      <trkpt lat="42.80666" lon="2.96931">
        <ele>1</ele>
        <time>1970-01-01T00:31:46Z</time>
      </trkpt>
      <trkpt lat="42.80668" lon="2.96927">
        <ele>1</ele>
        <time>1970-01-01T00:31:47Z</time>
      </trkpt>
      <trkpt lat="42.8067" lon="2.96924">
        <ele>1</ele>
        <time>1970-01-01T00:31:48Z</time>
      </trkpt>
      <trkpt lat="42.80672" lon="2.9692">
        <ele>1</ele>
        <time>1970-01-01T00:31:49Z</time>
      </trkpt>
      <trkpt lat="42.80673" lon="2.96917">
        <ele>1</ele>
        <time>1970-01-01T00:31:50Z</time>
      </trkpt>
      <trkpt lat="42.80675" lon="2.96913">
        <ele>1</ele>
        <time>1970-01-01T00:31:51Z</time>
      </trkpt>
      <trkpt lat="42.80677" lon="2.96909">
        <ele>1</ele>
        <time>1970-01-01T00:31:52Z</time>
      </trkpt>
      <trkpt lat="42.80678" lon="2.96905">
        <ele>1</ele>
        <time>1970-01-01T00:31:53Z</time>
      </trkpt>
      <trkpt lat="42.8068" lon="2.96901">
        <ele>1</ele>
        <time>1970-01-01T00:31:54Z</time>
      </trkpt>
      <trkpt lat="42.80681" lon="2.96896">
        <ele>1</ele>
        <time>1970-01-01T00:31:55Z</time>
      </trkpt>
      <trkpt lat="42.80682" lon="2.96892">
        <ele>1</ele>
        <time>1970-01-01T00:31:56Z</time>
      </trkpt>
      <trkpt lat="42.80683" lon="2.96887">
        <ele>1</ele>
        <time>1970-01-01T00:31:57Z</time>
      </trkpt>
      <trkpt lat="42.80684" lon="2.96882">
        <ele>1</ele>
        <time>1970-01-01T00:31:58Z</time>
      </trkpt>
      <trkpt lat="42.80684" lon="2.96877">
        <ele>1</ele>
        <time>1970-01-01T00:31:59Z</time>
      </trkpt>
      <trkpt lat="42.80683" lon="2.96873">
        <ele>1</ele>
        <time>1970-01-01T00:32:00Z</time>
      </trkpt>
      <trkpt lat="42.80683" lon="2.96868">
        <ele>1</ele>
        <time>1970-01-01T00:32:01Z</time>
      </trkpt>
      <trkpt lat="42.80683" lon="2.96863">
        <ele>1</ele>
        <time>1970-01-01T00:32:02Z</time>
      </trkpt>
      <trkpt lat="42.80682" lon="2.96859">
        <ele>1</ele>
        <time>1970-01-01T00:32:03Z</time>
      </trkpt>
      <trkpt lat="42.80682" lon="2.96854">
        <ele>1</ele>
        <time>1970-01-01T00:32:04Z</time>
      </trkpt>
      <trkpt lat="42.80681" lon="2.96849">
        <ele>1</ele>
        <time>1970-01-01T00:32:05Z</time>
      </trkpt>
      <trkpt lat="42.80681" lon="2.96843">
        <ele>1</ele>
        <time>1970-01-01T00:32:06Z</time>
      </trkpt>
      <trkpt lat="42.8068" lon="2.96838">
        <ele>1</ele>
        <time>1970-01-01T00:32:07Z</time>
      </trkpt>
      <trkpt lat="42.8068" lon="2.96833">
        <ele>1</ele>
        <time>1970-01-01T00:32:08Z</time>
      </trkpt>
      <trkpt lat="42.80679" lon="2.96828">
        <ele>1</ele>
        <time>1970-01-01T00:32:09Z</time>
      </trkpt>
      <trkpt lat="42.80678" lon="2.96823">
        <ele>1</ele>
        <time>1970-01-01T00:32:10Z</time>
      </trkpt>
      <trkpt lat="42.80678" lon="2.96818">
        <ele>1</ele>
        <time>1970-01-01T00:32:11Z</time>
      </trkpt>
      <trkpt lat="42.80678" lon="2.96813">
        <ele>1</ele>
        <time>1970-01-01T00:32:12Z</time>
      </trkpt>
      <trkpt lat="42.80677" lon="2.96808">
        <ele>1</ele>
        <time>1970-01-01T00:32:13Z</time>
      </trkpt>
      <trkpt lat="42.80677" lon="2.96802">
        <ele>1</ele>
        <time>1970-01-01T00:32:14Z</time>
      </trkpt>
      <trkpt lat="42.80677" lon="2.96797">
        <ele>1</ele>
        <time>1970-01-01T00:32:15Z</time>
      </trkpt>
      <trkpt lat="42.80677" lon="2.96792">
        <ele>1</ele>
        <time>1970-01-01T00:32:16Z</time>
      </trkpt>
      <trkpt lat="42.80677" lon="2.96787">
        <ele>1</ele>
        <time>1970-01-01T00:32:17Z</time>
      </trkpt>
      <trkpt lat="42.80677" lon="2.96782">
        <ele>1</ele>
        <time>1970-01-01T00:32:18Z</time>
      </trkpt>
      <trkpt lat="42.80677" lon="2.96778">
        <ele>1</ele>
        <time>1970-01-01T00:32:19Z</time>
      </trkpt>
      <trkpt lat="42.80677" lon="2.96773">
        <ele>1</ele>
        <time>1970-01-01T00:32:20Z</time>
      </trkpt>
      <trkpt lat="42.80676" lon="2.96768">
        <ele>1</ele>
        <time>1970-01-01T00:32:21Z</time>
      </trkpt>
      <trkpt lat="42.80676" lon="2.96763">
        <ele>1</ele>
        <time>1970-01-01T00:32:22Z</time>
      </trkpt>
      <trkpt lat="42.80677" lon="2.96758">
        <ele>1</ele>
        <time>1970-01-01T00:32:23Z</time>
      </trkpt>
      <trkpt lat="42.80677" lon="2.96753">
        <ele>1</ele>
        <time>1970-01-01T00:32:24Z</time>
      </trkpt>
      <trkpt lat="42.80677" lon="2.96748">
        <ele>1</ele>
        <time>1970-01-01T00:32:25Z</time>
      </trkpt>
      <trkpt lat="42.80677" lon="2.96743">
        <ele>1</ele>
        <time>1970-01-01T00:32:26Z</time>
      </trkpt>
      <trkpt lat="42.80678" lon="2.96738">
        <ele>1</ele>
        <time>1970-01-01T00:32:27Z</time>
      </trkpt>
      <trkpt lat="42.80678" lon="2.96733">
        <ele>1</ele>
        <time>1970-01-01T00:32:28Z</time>
      </trkpt>
      <trkpt lat="42.80678" lon="2.96728">
        <ele>1</ele>
        <time>1970-01-01T00:32:29Z</time>
      </trkpt>
      <trkpt lat="42.80678" lon="2.96724">
        <ele>1</ele>
        <time>1970-01-01T00:32:30Z</time>
      </trkpt>
      <trkpt lat="42.80678" lon="2.96719">
        <ele>1</ele>
        <time>1970-01-01T00:32:31Z</time>
      </trkpt>
      <trkpt lat="42.80679" lon="2.96714">
        <ele>1</ele>
        <time>1970-01-01T00:32:32Z</time>
      </trkpt>
      <trkpt lat="42.80679" lon="2.9671">
        <ele>1</ele>
        <time>1970-01-01T00:32:33Z</time>
      </trkpt>
      <trkpt lat="42.80679" lon="2.96705">
        <ele>1</ele>
        <time>1970-01-01T00:32:34Z</time>
      </trkpt>
      <trkpt lat="42.80679" lon="2.967">
        <ele>1</ele>
        <time>1970-01-01T00:32:35Z</time>
      </trkpt>
      <trkpt lat="42.8068" lon="2.96694">
        <ele>1</ele>
        <time>1970-01-01T00:32:36Z</time>
      </trkpt>
      <trkpt lat="42.8068" lon="2.96689">
        <ele>1</ele>
        <time>1970-01-01T00:32:37Z</time>
      </trkpt>
      <trkpt lat="42.80681" lon="2.96685">
        <ele>1</ele>
        <time>1970-01-01T00:32:38Z</time>
      </trkpt>
      <trkpt lat="42.80682" lon="2.9668">
        <ele>1</ele>
        <time>1970-01-01T00:32:39Z</time>
      </trkpt>
      <trkpt lat="42.80683" lon="2.96675">
        <ele>1</ele>
        <time>1970-01-01T00:32:40Z</time>
      </trkpt>
      <trkpt lat="42.80684" lon="2.9667">
        <ele>1</ele>
        <time>1970-01-01T00:32:41Z</time>
      </trkpt>
      <trkpt lat="42.80685" lon="2.96666">
        <ele>1</ele>
        <time>1970-01-01T00:32:42Z</time>
      </trkpt>
      <trkpt lat="42.80687" lon="2.96661">
        <ele>1</ele>
        <time>1970-01-01T00:32:43Z</time>
      </trkpt>
      <trkpt lat="42.80688" lon="2.96657">
        <ele>1</ele>
        <time>1970-01-01T00:32:44Z</time>
      </trkpt>
      <trkpt lat="42.80689" lon="2.96653">
        <ele>1</ele>
        <time>1970-01-01T00:32:45Z</time>
      </trkpt>
      <trkpt lat="42.8069" lon="2.96648">
        <ele>1</ele>
        <time>1970-01-01T00:32:46Z</time>
      </trkpt>
      <trkpt lat="42.80692" lon="2.96644">
        <ele>1</ele>
        <time>1970-01-01T00:32:47Z</time>
      </trkpt>
      <trkpt lat="42.80693" lon="2.96641">
        <ele>1</ele>
        <time>1970-01-01T00:32:48Z</time>
      </trkpt>
      <trkpt lat="42.80694" lon="2.96636">
        <ele>1</ele>
        <time>1970-01-01T00:32:49Z</time>
      </trkpt>
      <trkpt lat="42.80696" lon="2.96632">
        <ele>1</ele>
        <time>1970-01-01T00:32:50Z</time>
      </trkpt>
      <trkpt lat="42.80697" lon="2.96628">
        <ele>1</ele>
        <time>1970-01-01T00:32:51Z</time>
      </trkpt>
      <trkpt lat="42.80697" lon="2.96624">
        <ele>1</ele>
        <time>1970-01-01T00:32:52Z</time>
      </trkpt>
      <trkpt lat="42.80698" lon="2.9662">
        <ele>1.2</ele>
        <time>1970-01-01T00:32:53Z</time>
      </trkpt>
      <trkpt lat="42.80698" lon="2.96616">
        <ele>1.2</ele>
        <time>1970-01-01T00:32:54Z</time>
      </trkpt>
      <trkpt lat="42.80698" lon="2.96611">
        <ele>1.2</ele>
        <time>1970-01-01T00:32:55Z</time>
      </trkpt>
      <trkpt lat="42.80697" lon="2.96609">
        <ele>1.2</ele>
        <time>1970-01-01T00:32:56Z</time>
      </trkpt>
      <trkpt lat="42.80695" lon="2.96605">
        <ele>1.2</ele>
        <time>1970-01-01T00:32:57Z</time>
      </trkpt>
      <trkpt lat="42.80694" lon="2.96603">
        <ele>1.2</ele>
        <time>1970-01-01T00:32:58Z</time>
      </trkpt>
      <trkpt lat="42.80692" lon="2.96599">
        <ele>1.2</ele>
        <time>1970-01-01T00:32:59Z</time>
      </trkpt>
      <trkpt lat="42.80691" lon="2.96597">
        <ele>1.2</ele>
        <time>1970-01-01T00:33:00Z</time>
      </trkpt>
      <trkpt lat="42.80689" lon="2.96593">
        <ele>1.2</ele>
        <time>1970-01-01T00:33:01Z</time>
      </trkpt>
      <trkpt lat="42.80688" lon="2.96589">
        <ele>1</ele>
        <time>1970-01-01T00:33:02Z</time>
      </trkpt>
      <trkpt lat="42.80687" lon="2.96585">
        <ele>1</ele>
        <time>1970-01-01T00:33:03Z</time>
      </trkpt>
      <trkpt lat="42.80687" lon="2.9658">
        <ele>1</ele>
        <time>1970-01-01T00:33:04Z</time>
      </trkpt>
      <trkpt lat="42.80687" lon="2.96575">
        <ele>1</ele>
        <time>1970-01-01T00:33:05Z</time>
      </trkpt>
      <trkpt lat="42.80688" lon="2.9657">
        <ele>1</ele>
        <time>1970-01-01T00:33:06Z</time>
      </trkpt>
      <trkpt lat="42.80688" lon="2.96565">
        <ele>1</ele>
        <time>1970-01-01T00:33:07Z</time>
      </trkpt>
      <trkpt lat="42.80688" lon="2.96561">
        <ele>1</ele>
        <time>1970-01-01T00:33:08Z</time>
      </trkpt>
      <trkpt lat="42.80689" lon="2.96556">
        <ele>1</ele>
        <time>1970-01-01T00:33:09Z</time>
      </trkpt>
      <trkpt lat="42.80689" lon="2.96551">
        <ele>1</ele>
        <time>1970-01-01T00:33:10Z</time>
      </trkpt>
      <trkpt lat="42.8069" lon="2.96547">
        <ele>1</ele>
        <time>1970-01-01T00:33:11Z</time>
      </trkpt>
      <trkpt lat="42.8069" lon="2.96542">
        <ele>1</ele>
        <time>1970-01-01T00:33:12Z</time>
      </trkpt>
      <trkpt lat="42.80689" lon="2.96537">
        <ele>1.2</ele>
        <time>1970-01-01T00:33:13Z</time>
      </trkpt>
      <trkpt lat="42.80689" lon="2.96532">
        <ele>1.2</ele>
        <time>1970-01-01T00:33:14Z</time>
      </trkpt>
      <trkpt lat="42.80689" lon="2.96528">
        <ele>1.2</ele>
        <time>1970-01-01T00:33:15Z</time>
      </trkpt>
      <trkpt lat="42.8069" lon="2.96524">
        <ele>1.2</ele>
        <time>1970-01-01T00:33:16Z</time>
      </trkpt>
      <trkpt lat="42.80692" lon="2.96521">
        <ele>1.2</ele>
        <time>1970-01-01T00:33:17Z</time>
      </trkpt>
      <trkpt lat="42.80695" lon="2.96519">
        <ele>1.2</ele>
        <time>1970-01-01T00:33:18Z</time>
      </trkpt>
      <trkpt lat="42.80699" lon="2.96518">
        <ele>1.2</ele>
        <time>1970-01-01T00:33:19Z</time>
      </trkpt>
      <trkpt lat="42.80702" lon="2.96516">
        <ele>1.2</ele>
        <time>1970-01-01T00:33:20Z</time>
      </trkpt>
      <trkpt lat="42.80705" lon="2.96514">
        <ele>1</ele>
        <time>1970-01-01T00:33:21Z</time>
      </trkpt>
      <trkpt lat="42.80709" lon="2.96513">
        <ele>1</ele>
        <time>1970-01-01T00:33:22Z</time>
      </trkpt>
      <trkpt lat="42.80712" lon="2.96511">
        <ele>1</ele>
        <time>1970-01-01T00:33:23Z</time>
      </trkpt>
      <trkpt lat="42.80716" lon="2.96509">
        <ele>1</ele>
        <time>1970-01-01T00:33:24Z</time>
      </trkpt>
      <trkpt lat="42.8072" lon="2.96507">
        <ele>1</ele>
        <time>1970-01-01T00:33:25Z</time>
      </trkpt>
      <trkpt lat="42.80723" lon="2.96505">
        <ele>1</ele>
        <time>1970-01-01T00:33:26Z</time>
      </trkpt>
      <trkpt lat="42.80727" lon="2.96503">
        <ele>1</ele>
        <time>1970-01-01T00:33:27Z</time>
      </trkpt>
      <trkpt lat="42.80731" lon="2.96501">
        <ele>1</ele>
        <time>1970-01-01T00:33:28Z</time>
      </trkpt>
      <trkpt lat="42.80734" lon="2.965">
        <ele>1</ele>
        <time>1970-01-01T00:33:29Z</time>
      </trkpt>
      <trkpt lat="42.80738" lon="2.96498">
        <ele>1</ele>
        <time>1970-01-01T00:33:30Z</time>
      </trkpt>
      <trkpt lat="42.80742" lon="2.96496">
        <ele>1</ele>
        <time>1970-01-01T00:33:31Z</time>
      </trkpt>
      <trkpt lat="42.80745" lon="2.96494">
        <ele>1</ele>
        <time>1970-01-01T00:33:32Z</time>
      </trkpt>
      <trkpt lat="42.80749" lon="2.96492">
        <ele>1</ele>
        <time>1970-01-01T00:33:33Z</time>
      </trkpt>
      <trkpt lat="42.80752" lon="2.96491">
        <ele>1</ele>
        <time>1970-01-01T00:33:34Z</time>
      </trkpt>
      <trkpt lat="42.80756" lon="2.96489">
        <ele>1</ele>
        <time>1970-01-01T00:33:35Z</time>
      </trkpt>
      <trkpt lat="42.8076" lon="2.96487">
        <ele>0.80000000000001</ele>
        <time>1970-01-01T00:33:36Z</time>
      </trkpt>
      <trkpt lat="42.80764" lon="2.96485">
        <ele>0.80000000000001</ele>
        <time>1970-01-01T00:33:37Z</time>
      </trkpt>
      <trkpt lat="42.80768" lon="2.96483">
        <ele>0.80000000000001</ele>
        <time>1970-01-01T00:33:38Z</time>
      </trkpt>
      <trkpt lat="42.80772" lon="2.96481">
        <ele>0.80000000000001</ele>
        <time>1970-01-01T00:33:39Z</time>
      </trkpt>
      <trkpt lat="42.80776" lon="2.96479">
        <ele>0.80000000000001</ele>
        <time>1970-01-01T00:33:40Z</time>
      </trkpt>
      <trkpt lat="42.80779" lon="2.96477">
        <ele>0.80000000000001</ele>
        <time>1970-01-01T00:33:41Z</time>
      </trkpt>
      <trkpt lat="42.80783" lon="2.96475">
        <ele>0.80000000000001</ele>
        <time>1970-01-01T00:33:42Z</time>
      </trkpt>
      <trkpt lat="42.80787" lon="2.96473">
        <ele>0.80000000000001</ele>
        <time>1970-01-01T00:33:43Z</time>
      </trkpt>
      <trkpt lat="42.80791" lon="2.96471">
        <ele>0.80000000000001</ele>
        <time>1970-01-01T00:33:44Z</time>
      </trkpt>
      <trkpt lat="42.80795" lon="2.96469">
        <ele>0.80000000000001</ele>
        <time>1970-01-01T00:33:45Z</time>
      </trkpt>
      <trkpt lat="42.80798" lon="2.96468">
        <ele>0.80000000000001</ele>
        <time>1970-01-01T00:33:46Z</time>
      </trkpt>
      <trkpt lat="42.80802" lon="2.96465">
        <ele>0.60000000000002</ele>
        <time>1970-01-01T00:33:47Z</time>
      </trkpt>
      <trkpt lat="42.80806" lon="2.96463">
        <ele>0.60000000000002</ele>
        <time>1970-01-01T00:33:48Z</time>
      </trkpt>
      <trkpt lat="42.8081" lon="2.96461">
        <ele>0.60000000000002</ele>
        <time>1970-01-01T00:33:49Z</time>
      </trkpt>
      <trkpt lat="42.80814" lon="2.96459">
        <ele>0.60000000000002</ele>
        <time>1970-01-01T00:33:50Z</time>
      </trkpt>
      <trkpt lat="42.80817" lon="2.96457">
        <ele>0.60000000000002</ele>
        <time>1970-01-01T00:33:51Z</time>
      </trkpt>
      <trkpt lat="42.80821" lon="2.96455">
        <ele>0.60000000000002</ele>
        <time>1970-01-01T00:33:52Z</time>
      </trkpt>
      <trkpt lat="42.80825" lon="2.96453">
        <ele>0.60000000000002</ele>
        <time>1970-01-01T00:33:53Z</time>
      </trkpt>
      <trkpt lat="42.80829" lon="2.96452">
        <ele>0.60000000000002</ele>
        <time>1970-01-01T00:33:54Z</time>
      </trkpt>
      <trkpt lat="42.80833" lon="2.9645">
        <ele>0.60000000000002</ele>
        <time>1970-01-01T00:33:55Z</time>
      </trkpt>
      <trkpt lat="42.80836" lon="2.96448">
        <ele>0.60000000000002</ele>
        <time>1970-01-01T00:33:56Z</time>
      </trkpt>
      <trkpt lat="42.8084" lon="2.96446">
        <ele>0.60000000000002</ele>
        <time>1970-01-01T00:33:57Z</time>
      </trkpt>
      <trkpt lat="42.80844" lon="2.96444">
        <ele>0.60000000000002</ele>
        <time>1970-01-01T00:33:58Z</time>
      </trkpt>
      <trkpt lat="42.80848" lon="2.96442">
        <ele>0.60000000000002</ele>
        <time>1970-01-01T00:33:59Z</time>
      </trkpt>
      <trkpt lat="42.80852" lon="2.9644">
        <ele>0.60000000000002</ele>
        <time>1970-01-01T00:34:00Z</time>
      </trkpt>
      <trkpt lat="42.80856" lon="2.96438">
        <ele>0.60000000000002</ele>
        <time>1970-01-01T00:34:01Z</time>
      </trkpt>
      <trkpt lat="42.80859" lon="2.96436">
        <ele>0.60000000000002</ele>
        <time>1970-01-01T00:34:02Z</time>
      </trkpt>
      <trkpt lat="42.80863" lon="2.96434">
        <ele>0.60000000000002</ele>
        <time>1970-01-01T00:34:03Z</time>
      </trkpt>
      <trkpt lat="42.80867" lon="2.96432">
        <ele>0.60000000000002</ele>
        <time>1970-01-01T00:34:04Z</time>
      </trkpt>
      <trkpt lat="42.80871" lon="2.96431">
        <ele>0.60000000000002</ele>
        <time>1970-01-01T00:34:05Z</time>
      </trkpt>
      <trkpt lat="42.80875" lon="2.96429">
        <ele>0.60000000000002</ele>
        <time>1970-01-01T00:34:06Z</time>
      </trkpt>
      <trkpt lat="42.80878" lon="2.96427">
        <ele>0.80000000000001</ele>
        <time>1970-01-01T00:34:07Z</time>
      </trkpt>
      <trkpt lat="42.80882" lon="2.96425">
        <ele>0.80000000000001</ele>
        <time>1970-01-01T00:34:08Z</time>
      </trkpt>
      <trkpt lat="42.80886" lon="2.96423">
        <ele>0.80000000000001</ele>
        <time>1970-01-01T00:34:09Z</time>
      </trkpt>
      <trkpt lat="42.8089" lon="2.96422">
        <ele>0.80000000000001</ele>
        <time>1970-01-01T00:34:10Z</time>
      </trkpt>
      <trkpt lat="42.80894" lon="2.9642">
        <ele>0.80000000000001</ele>
        <time>1970-01-01T00:34:11Z</time>
      </trkpt>
      <trkpt lat="42.80898" lon="2.96417">
        <ele>0.80000000000001</ele>
        <time>1970-01-01T00:34:12Z</time>
      </trkpt>
      <trkpt lat="42.80902" lon="2.96415">
        <ele>0.80000000000001</ele>
        <time>1970-01-01T00:34:13Z</time>
      </trkpt>
      <trkpt lat="42.80906" lon="2.96413">
        <ele>0.80000000000001</ele>
        <time>1970-01-01T00:34:14Z</time>
      </trkpt>
      <trkpt lat="42.80909" lon="2.96411">
        <ele>0.80000000000001</ele>
        <time>1970-01-01T00:34:15Z</time>
      </trkpt>
      <trkpt lat="42.80913" lon="2.96409">
        <ele>0.80000000000001</ele>
        <time>1970-01-01T00:34:16Z</time>
      </trkpt>
      <trkpt lat="42.80917" lon="2.96407">
        <ele>0.80000000000001</ele>
        <time>1970-01-01T00:34:17Z</time>
      </trkpt>
      <trkpt lat="42.80921" lon="2.96405">
        <ele>0.80000000000001</ele>
        <time>1970-01-01T00:34:18Z</time>
      </trkpt>
      <trkpt lat="42.80925" lon="2.96404">
        <ele>0.80000000000001</ele>
        <time>1970-01-01T00:34:19Z</time>
      </trkpt>
      <trkpt lat="42.80929" lon="2.96402">
        <ele>0.80000000000001</ele>
        <time>1970-01-01T00:34:20Z</time>
      </trkpt>
      <trkpt lat="42.80932" lon="2.964">
        <ele>0.80000000000001</ele>
        <time>1970-01-01T00:34:21Z</time>
      </trkpt>
      <trkpt lat="42.80936" lon="2.96398">
        <ele>0.80000000000001</ele>
        <time>1970-01-01T00:34:22Z</time>
      </trkpt>
      <trkpt lat="42.8094" lon="2.96396">
        <ele>0.80000000000001</ele>
        <time>1970-01-01T00:34:23Z</time>
      </trkpt>
      <trkpt lat="42.80944" lon="2.96394">
        <ele>0.80000000000001</ele>
        <time>1970-01-01T00:34:24Z</time>
      </trkpt>
      <trkpt lat="42.80948" lon="2.96392">
        <ele>0.80000000000001</ele>
        <time>1970-01-01T00:34:25Z</time>
      </trkpt>
      <trkpt lat="42.80952" lon="2.9639">
        <ele>0.60000000000002</ele>
        <time>1970-01-01T00:34:26Z</time>
      </trkpt>
      <trkpt lat="42.80956" lon="2.96388">
        <ele>0.60000000000002</ele>
        <time>1970-01-01T00:34:27Z</time>
      </trkpt>
      <trkpt lat="42.80959" lon="2.96386">
        <ele>0.60000000000002</ele>
        <time>1970-01-01T00:34:28Z</time>
      </trkpt>
      <trkpt lat="42.80963" lon="2.96384">
        <ele>0.60000000000002</ele>
        <time>1970-01-01T00:34:29Z</time>
      </trkpt>
      <trkpt lat="42.80967" lon="2.96382">
        <ele>0.60000000000002</ele>
        <time>1970-01-01T00:34:30Z</time>
      </trkpt>
      <trkpt lat="42.80971" lon="2.9638">
        <ele>0.60000000000002</ele>
        <time>1970-01-01T00:34:31Z</time>
      </trkpt>
      <trkpt lat="42.80975" lon="2.96378">
        <ele>0.60000000000002</ele>
        <time>1970-01-01T00:34:32Z</time>
      </trkpt>
      <trkpt lat="42.80978" lon="2.96376">
        <ele>0.60000000000002</ele>
        <time>1970-01-01T00:34:33Z</time>
      </trkpt>
      <trkpt lat="42.80982" lon="2.96374">
        <ele>0.60000000000002</ele>
        <time>1970-01-01T00:34:34Z</time>
      </trkpt>
      <trkpt lat="42.80986" lon="2.96372">
        <ele>0.60000000000002</ele>
        <time>1970-01-01T00:34:35Z</time>
      </trkpt>
      <trkpt lat="42.80989" lon="2.9637">
        <ele>0.60000000000002</ele>
        <time>1970-01-01T00:34:36Z</time>
      </trkpt>
      <trkpt lat="42.80993" lon="2.96369">
        <ele>0.60000000000002</ele>
        <time>1970-01-01T00:34:37Z</time>
      </trkpt>
      <trkpt lat="42.80997" lon="2.96367">
        <ele>0.60000000000002</ele>
        <time>1970-01-01T00:34:38Z</time>
      </trkpt>
      <trkpt lat="42.81001" lon="2.96365">
        <ele>0.60000000000002</ele>
        <time>1970-01-01T00:34:39Z</time>
      </trkpt>
      <trkpt lat="42.81004" lon="2.96363">
        <ele>0.60000000000002</ele>
        <time>1970-01-01T00:34:40Z</time>
      </trkpt>
      <trkpt lat="42.81008" lon="2.96361">
        <ele>0.60000000000002</ele>
        <time>1970-01-01T00:34:41Z</time>
      </trkpt>
      <trkpt lat="42.81012" lon="2.96359">
        <ele>0.60000000000002</ele>
        <time>1970-01-01T00:34:42Z</time>
      </trkpt>
      <trkpt lat="42.81015" lon="2.96357">
        <ele>0.60000000000002</ele>
        <time>1970-01-01T00:34:43Z</time>
      </trkpt>
      <trkpt lat="42.81019" lon="2.96355">
        <ele>0.60000000000002</ele>
        <time>1970-01-01T00:34:44Z</time>
      </trkpt>
      <trkpt lat="42.81023" lon="2.96353">
        <ele>0.60000000000002</ele>
        <time>1970-01-01T00:34:45Z</time>
      </trkpt>
      <trkpt lat="42.81027" lon="2.96351">
        <ele>0.60000000000002</ele>
        <time>1970-01-01T00:34:46Z</time>
      </trkpt>
      <trkpt lat="42.8103" lon="2.9635">
        <ele>0.60000000000002</ele>
        <time>1970-01-01T00:34:47Z</time>
      </trkpt>
      <trkpt lat="42.81034" lon="2.96348">
        <ele>0.60000000000002</ele>
        <time>1970-01-01T00:34:48Z</time>
      </trkpt>
      <trkpt lat="42.81038" lon="2.96346">
        <ele>0.60000000000002</ele>
        <time>1970-01-01T00:34:49Z</time>
      </trkpt>
      <trkpt lat="42.81041" lon="2.96344">
        <ele>0.60000000000002</ele>
        <time>1970-01-01T00:34:50Z</time>
      </trkpt>
      <trkpt lat="42.81045" lon="2.96342">
        <ele>0.60000000000002</ele>
        <time>1970-01-01T00:34:51Z</time>
      </trkpt>
      <trkpt lat="42.81049" lon="2.9634">
        <ele>0.60000000000002</ele>
        <time>1970-01-01T00:34:52Z</time>
      </trkpt>
      <trkpt lat="42.81053" lon="2.96339">
        <ele>0.60000000000002</ele>
        <time>1970-01-01T00:34:53Z</time>
      </trkpt>
      <trkpt lat="42.81056" lon="2.96337">
        <ele>0.60000000000002</ele>
        <time>1970-01-01T00:34:54Z</time>
      </trkpt>
      <trkpt lat="42.8106" lon="2.96335">
        <ele>0.60000000000002</ele>
        <time>1970-01-01T00:34:55Z</time>
      </trkpt>
      <trkpt lat="42.81064" lon="2.96332">
        <ele>0.60000000000002</ele>
        <time>1970-01-01T00:34:56Z</time>
      </trkpt>
      <trkpt lat="42.81067" lon="2.9633">
        <ele>0.60000000000002</ele>
        <time>1970-01-01T00:34:57Z</time>
      </trkpt>
      <trkpt lat="42.81071" lon="2.96329">
        <ele>0.60000000000002</ele>
        <time>1970-01-01T00:34:58Z</time>
      </trkpt>
      <trkpt lat="42.81074" lon="2.96327">
        <ele>0.60000000000002</ele>
        <time>1970-01-01T00:34:59Z</time>
      </trkpt>
      <trkpt lat="42.81078" lon="2.96325">
        <ele>0.60000000000002</ele>
        <time>1970-01-01T00:35:00Z</time>
      </trkpt>
      <trkpt lat="42.81082" lon="2.96323">
        <ele>0.60000000000002</ele>
        <time>1970-01-01T00:35:01Z</time>
      </trkpt>
      <trkpt lat="42.81085" lon="2.96321">
        <ele>0.60000000000002</ele>
        <time>1970-01-01T00:35:02Z</time>
      </trkpt>
      <trkpt lat="42.81089" lon="2.96319">
        <ele>0.60000000000002</ele>
        <time>1970-01-01T00:35:03Z</time>
      </trkpt>
      <trkpt lat="42.81093" lon="2.96317">
        <ele>0.60000000000002</ele>
        <time>1970-01-01T00:35:04Z</time>
      </trkpt>
      <trkpt lat="42.81096" lon="2.96315">
        <ele>0.60000000000002</ele>
        <time>1970-01-01T00:35:05Z</time>
      </trkpt>
      <trkpt lat="42.811" lon="2.96313">
        <ele>0.60000000000002</ele>
        <time>1970-01-01T00:35:06Z</time>
      </trkpt>
      <trkpt lat="42.81104" lon="2.96312">
        <ele>0.60000000000002</ele>
        <time>1970-01-01T00:35:07Z</time>
      </trkpt>
      <trkpt lat="42.81107" lon="2.9631">
        <ele>0.60000000000002</ele>
        <time>1970-01-01T00:35:08Z</time>
      </trkpt>
      <trkpt lat="42.81111" lon="2.96307">
        <ele>0.60000000000002</ele>
        <time>1970-01-01T00:35:09Z</time>
      </trkpt>
      <trkpt lat="42.81114" lon="2.96305">
        <ele>0.60000000000002</ele>
        <time>1970-01-01T00:35:10Z</time>
      </trkpt>
      <trkpt lat="42.81118" lon="2.96303">
        <ele>0.60000000000002</ele>
        <time>1970-01-01T00:35:11Z</time>
      </trkpt>
      <trkpt lat="42.81122" lon="2.96301">
        <ele>0.60000000000002</ele>
        <time>1970-01-01T00:35:12Z</time>
      </trkpt>
      <trkpt lat="42.81126" lon="2.963">
        <ele>0.60000000000002</ele>
        <time>1970-01-01T00:35:13Z</time>
      </trkpt>
      <trkpt lat="42.8113" lon="2.96298">
        <ele>0.60000000000002</ele>
        <time>1970-01-01T00:35:14Z</time>
      </trkpt>
      <trkpt lat="42.81134" lon="2.96296">
        <ele>0.60000000000002</ele>
        <time>1970-01-01T00:35:15Z</time>
      </trkpt>
      <trkpt lat="42.81138" lon="2.96294">
        <ele>0.60000000000002</ele>
        <time>1970-01-01T00:35:16Z</time>
      </trkpt>
      <trkpt lat="42.81141" lon="2.96292">
        <ele>0.60000000000002</ele>
        <time>1970-01-01T00:35:17Z</time>
      </trkpt>
      <trkpt lat="42.81145" lon="2.9629">
        <ele>0.60000000000002</ele>
        <time>1970-01-01T00:35:18Z</time>
      </trkpt>
      <trkpt lat="42.81149" lon="2.96289">
        <ele>0.60000000000002</ele>
        <time>1970-01-01T00:35:19Z</time>
      </trkpt>
      <trkpt lat="42.81153" lon="2.96287">
        <ele>0.60000000000002</ele>
        <time>1970-01-01T00:35:20Z</time>
      </trkpt>
      <trkpt lat="42.81156" lon="2.96285">
        <ele>0.60000000000002</ele>
        <time>1970-01-01T00:35:21Z</time>
      </trkpt>
      <trkpt lat="42.8116" lon="2.96283">
        <ele>0.60000000000002</ele>
        <time>1970-01-01T00:35:22Z</time>
      </trkpt>
      <trkpt lat="42.81163" lon="2.96282">
        <ele>0.60000000000002</ele>
        <time>1970-01-01T00:35:23Z</time>
      </trkpt>
      <trkpt lat="42.81167" lon="2.9628">
        <ele>0.60000000000002</ele>
        <time>1970-01-01T00:35:24Z</time>
      </trkpt>
      <trkpt lat="42.8117" lon="2.96278">
        <ele>0.60000000000002</ele>
        <time>1970-01-01T00:35:25Z</time>
      </trkpt>
      <trkpt lat="42.81174" lon="2.96277">
        <ele>0.60000000000002</ele>
        <time>1970-01-01T00:35:26Z</time>
      </trkpt>
      <trkpt lat="42.81177" lon="2.96275">
        <ele>0.60000000000002</ele>
        <time>1970-01-01T00:35:27Z</time>
      </trkpt>
      <trkpt lat="42.81181" lon="2.96273">
        <ele>0.60000000000002</ele>
        <time>1970-01-01T00:35:28Z</time>
      </trkpt>
      <trkpt lat="42.81184" lon="2.96272">
        <ele>0.60000000000002</ele>
        <time>1970-01-01T00:35:29Z</time>
      </trkpt>
      <trkpt lat="42.81188" lon="2.9627">
        <ele>0.60000000000002</ele>
        <time>1970-01-01T00:35:30Z</time>
      </trkpt>
      <trkpt lat="42.81192" lon="2.96268">
        <ele>0.60000000000002</ele>
        <time>1970-01-01T00:35:31Z</time>
      </trkpt>
      <trkpt lat="42.81196" lon="2.96266">
        <ele>0.60000000000002</ele>
        <time>1970-01-01T00:35:32Z</time>
      </trkpt>
      <trkpt lat="42.812" lon="2.96264">
        <ele>0.60000000000002</ele>
        <time>1970-01-01T00:35:33Z</time>
      </trkpt>
      <trkpt lat="42.81203" lon="2.96262">
        <ele>0.60000000000002</ele>
        <time>1970-01-01T00:35:34Z</time>
      </trkpt>
      <trkpt lat="42.81207" lon="2.9626">
        <ele>0.60000000000002</ele>
        <time>1970-01-01T00:35:35Z</time>
      </trkpt>
      <trkpt lat="42.81211" lon="2.96257">
        <ele>0.60000000000002</ele>
        <time>1970-01-01T00:35:36Z</time>
      </trkpt>
      <trkpt lat="42.81214" lon="2.96255">
        <ele>0.60000000000002</ele>
        <time>1970-01-01T00:35:37Z</time>
      </trkpt>
      <trkpt lat="42.81218" lon="2.96253">
        <ele>0.60000000000002</ele>
        <time>1970-01-01T00:35:38Z</time>
      </trkpt>
      <trkpt lat="42.81221" lon="2.96251">
        <ele>0.60000000000002</ele>
        <time>1970-01-01T00:35:39Z</time>
      </trkpt>
      <trkpt lat="42.81225" lon="2.96249">
        <ele>0.60000000000002</ele>
        <time>1970-01-01T00:35:40Z</time>
      </trkpt>
      <trkpt lat="42.81229" lon="2.96247">
        <ele>0.60000000000002</ele>
        <time>1970-01-01T00:35:41Z</time>
      </trkpt>
      <trkpt lat="42.81233" lon="2.96245">
        <ele>0.60000000000002</ele>
        <time>1970-01-01T00:35:42Z</time>
      </trkpt>
      <trkpt lat="42.81236" lon="2.96243">
        <ele>0.60000000000002</ele>
        <time>1970-01-01T00:35:43Z</time>
      </trkpt>
      <trkpt lat="42.8124" lon="2.96242">
        <ele>0.60000000000002</ele>
        <time>1970-01-01T00:35:44Z</time>
      </trkpt>
      <trkpt lat="42.81243" lon="2.9624">
        <ele>0.60000000000002</ele>
        <time>1970-01-01T00:35:45Z</time>
      </trkpt>
      <trkpt lat="42.81247" lon="2.96238">
        <ele>0.60000000000002</ele>
        <time>1970-01-01T00:35:46Z</time>
      </trkpt>
      <trkpt lat="42.8125" lon="2.96236">
        <ele>0.60000000000002</ele>
        <time>1970-01-01T00:35:47Z</time>
      </trkpt>
      <trkpt lat="42.81254" lon="2.96235">
        <ele>0.60000000000002</ele>
        <time>1970-01-01T00:35:48Z</time>
      </trkpt>
      <trkpt lat="42.81257" lon="2.96233">
        <ele>0.60000000000002</ele>
        <time>1970-01-01T00:35:49Z</time>
      </trkpt>
      <trkpt lat="42.81261" lon="2.96231">
        <ele>0.60000000000002</ele>
        <time>1970-01-01T00:35:50Z</time>
      </trkpt>
      <trkpt lat="42.81264" lon="2.96229">
        <ele>0.60000000000002</ele>
        <time>1970-01-01T00:35:51Z</time>
      </trkpt>
      <trkpt lat="42.81268" lon="2.96228">
        <ele>0.60000000000002</ele>
        <time>1970-01-01T00:35:52Z</time>
      </trkpt>
      <trkpt lat="42.81271" lon="2.96226">
        <ele>0.60000000000002</ele>
        <time>1970-01-01T00:35:53Z</time>
      </trkpt>
      <trkpt lat="42.81274" lon="2.96225">
        <ele>0.60000000000002</ele>
        <time>1970-01-01T00:35:54Z</time>
      </trkpt>
      <trkpt lat="42.81278" lon="2.96223">
        <ele>0.60000000000002</ele>
        <time>1970-01-01T00:35:55Z</time>
      </trkpt>
      <trkpt lat="42.81282" lon="2.96221">
        <ele>0.60000000000002</ele>
        <time>1970-01-01T00:35:56Z</time>
      </trkpt>
      <trkpt lat="42.81285" lon="2.96219">
        <ele>0.60000000000002</ele>
        <time>1970-01-01T00:35:57Z</time>
      </trkpt>
      <trkpt lat="42.81289" lon="2.96217">
        <ele>0.60000000000002</ele>
        <time>1970-01-01T00:35:58Z</time>
      </trkpt>
      <trkpt lat="42.81292" lon="2.96216">
        <ele>0.60000000000002</ele>
        <time>1970-01-01T00:35:59Z</time>
      </trkpt>
      <trkpt lat="42.81296" lon="2.96214">
        <ele>0.60000000000002</ele>
        <time>1970-01-01T00:36:00Z</time>
      </trkpt>
      <trkpt lat="42.81299" lon="2.96212">
        <ele>0.60000000000002</ele>
        <time>1970-01-01T00:36:01Z</time>
      </trkpt>
      <trkpt lat="42.81303" lon="2.9621">
        <ele>0.60000000000002</ele>
        <time>1970-01-01T00:36:02Z</time>
      </trkpt>
      <trkpt lat="42.81306" lon="2.96209">
        <ele>0.60000000000002</ele>
        <time>1970-01-01T00:36:03Z</time>
      </trkpt>
      <trkpt lat="42.81309" lon="2.96207">
        <ele>0.60000000000002</ele>
        <time>1970-01-01T00:36:04Z</time>
      </trkpt>
      <trkpt lat="42.81313" lon="2.96206">
        <ele>0.60000000000002</ele>
        <time>1970-01-01T00:36:05Z</time>
      </trkpt>
      <trkpt lat="42.81316" lon="2.96204">
        <ele>0.60000000000002</ele>
        <time>1970-01-01T00:36:06Z</time>
      </trkpt>
      <trkpt lat="42.8132" lon="2.96203">
        <ele>0.60000000000002</ele>
        <time>1970-01-01T00:36:07Z</time>
      </trkpt>
      <trkpt lat="42.81323" lon="2.96201">
        <ele>0.60000000000002</ele>
        <time>1970-01-01T00:36:08Z</time>
      </trkpt>
      <trkpt lat="42.81327" lon="2.96199">
        <ele>0.60000000000002</ele>
        <time>1970-01-01T00:36:09Z</time>
      </trkpt>
      <trkpt lat="42.8133" lon="2.96197">
        <ele>0.60000000000002</ele>
        <time>1970-01-01T00:36:10Z</time>
      </trkpt>
      <trkpt lat="42.81333" lon="2.96195">
        <ele>0.60000000000002</ele>
        <time>1970-01-01T00:36:11Z</time>
      </trkpt>
      <trkpt lat="42.81337" lon="2.96193">
        <ele>0.60000000000002</ele>
        <time>1970-01-01T00:36:12Z</time>
      </trkpt>
      <trkpt lat="42.8134" lon="2.96192">
        <ele>0.60000000000002</ele>
        <time>1970-01-01T00:36:13Z</time>
      </trkpt>
      <trkpt lat="42.81344" lon="2.9619">
        <ele>0.39999999999998</ele>
        <time>1970-01-01T00:36:14Z</time>
      </trkpt>
      <trkpt lat="42.81347" lon="2.96188">
        <ele>0.39999999999998</ele>
        <time>1970-01-01T00:36:15Z</time>
      </trkpt>
      <trkpt lat="42.8135" lon="2.96186">
        <ele>0.39999999999998</ele>
        <time>1970-01-01T00:36:16Z</time>
      </trkpt>
      <trkpt lat="42.81354" lon="2.96185">
        <ele>0.39999999999998</ele>
        <time>1970-01-01T00:36:17Z</time>
      </trkpt>
      <trkpt lat="42.81358" lon="2.96183">
        <ele>0.39999999999998</ele>
        <time>1970-01-01T00:36:18Z</time>
      </trkpt>
      <trkpt lat="42.81361" lon="2.96181">
        <ele>0.39999999999998</ele>
        <time>1970-01-01T00:36:19Z</time>
      </trkpt>
      <trkpt lat="42.81364" lon="2.96179">
        <ele>0.39999999999998</ele>
        <time>1970-01-01T00:36:20Z</time>
      </trkpt>
      <trkpt lat="42.81368" lon="2.96178">
        <ele>0.60000000000002</ele>
        <time>1970-01-01T00:36:21Z</time>
      </trkpt>
      <trkpt lat="42.81371" lon="2.96176">
        <ele>0.60000000000002</ele>
        <time>1970-01-01T00:36:22Z</time>
      </trkpt>
      <trkpt lat="42.81374" lon="2.96174">
        <ele>0.60000000000002</ele>
        <time>1970-01-01T00:36:23Z</time>
      </trkpt>
      <trkpt lat="42.81376" lon="2.96172">
        <ele>0.60000000000002</ele>
        <time>1970-01-01T00:36:24Z</time>
      </trkpt>
      <trkpt lat="42.81378" lon="2.96169">
        <ele>0.60000000000002</ele>
        <time>1970-01-01T00:36:25Z</time>
      </trkpt>
      <trkpt lat="42.81379" lon="2.96164">
        <ele>0.80000000000001</ele>
        <time>1970-01-01T00:36:26Z</time>
      </trkpt>
      <trkpt lat="42.81378" lon="2.96162">
        <ele>0.60000000000002</ele>
        <time>1970-01-01T00:36:27Z</time>
      </trkpt>
      <trkpt lat="42.81376" lon="2.96159">
        <ele>0.60000000000002</ele>
        <time>1970-01-01T00:36:28Z</time>
      </trkpt>
      <trkpt lat="42.81374" lon="2.96156">
        <ele>0.60000000000002</ele>
        <time>1970-01-01T00:36:29Z</time>
      </trkpt>
      <trkpt lat="42.81371" lon="2.96152">
        <ele>0.60000000000002</ele>
        <time>1970-01-01T00:36:30Z</time>
      </trkpt>
      <trkpt lat="42.81369" lon="2.96148">
        <ele>0.60000000000002</ele>
        <time>1970-01-01T00:36:31Z</time>
      </trkpt>
      <trkpt lat="42.81367" lon="2.96145">
        <ele>0.39999999999998</ele>
        <time>1970-01-01T00:36:32Z</time>
      </trkpt>
      <trkpt lat="42.81364" lon="2.96141">
        <ele>0.39999999999998</ele>
        <time>1970-01-01T00:36:33Z</time>
      </trkpt>
      <trkpt lat="42.81361" lon="2.96137">
        <ele>0.39999999999998</ele>
        <time>1970-01-01T00:36:34Z</time>
      </trkpt>
      <trkpt lat="42.81359" lon="2.96133">
        <ele>0.39999999999998</ele>
        <time>1970-01-01T00:36:35Z</time>
      </trkpt>
      <trkpt lat="42.81356" lon="2.96129">
        <ele>0.39999999999998</ele>
        <time>1970-01-01T00:36:36Z</time>
      </trkpt>
      <trkpt lat="42.81354" lon="2.96126">
        <ele>0.39999999999998</ele>
        <time>1970-01-01T00:36:37Z</time>
      </trkpt>
      <trkpt lat="42.81351" lon="2.96122">
        <ele>0.39999999999998</ele>
        <time>1970-01-01T00:36:38Z</time>
      </trkpt>
      <trkpt lat="42.81349" lon="2.96119">
        <ele>0.19999999999999</ele>
        <time>1970-01-01T00:36:39Z</time>
      </trkpt>
      <trkpt lat="42.81347" lon="2.96116">
        <ele>0.19999999999999</ele>
        <time>1970-01-01T00:36:40Z</time>
      </trkpt>
      <trkpt lat="42.81344" lon="2.96112">
        <ele>0.19999999999999</ele>
        <time>1970-01-01T00:36:41Z</time>
      </trkpt>
      <trkpt lat="42.81341" lon="2.96108">
        <ele>0.19999999999999</ele>
        <time>1970-01-01T00:36:42Z</time>
      </trkpt>
      <trkpt lat="42.81339" lon="2.96105">
        <ele>0.19999999999999</ele>
        <time>1970-01-01T00:36:43Z</time>
      </trkpt>
      <trkpt lat="42.81337" lon="2.96101">
        <ele>0.19999999999999</ele>
        <time>1970-01-01T00:36:44Z</time>
      </trkpt>
      <trkpt lat="42.81334" lon="2.96098">
        <ele>0.19999999999999</ele>
        <time>1970-01-01T00:36:45Z</time>
      </trkpt>
      <trkpt lat="42.81332" lon="2.96094">
        <ele>0.19999999999999</ele>
        <time>1970-01-01T00:36:46Z</time>
      </trkpt>
      <trkpt lat="42.81329" lon="2.9609">
        <ele>0.19999999999999</ele>
        <time>1970-01-01T00:36:47Z</time>
      </trkpt>
      <trkpt lat="42.81326" lon="2.96087">
        <ele>0.19999999999999</ele>
        <time>1970-01-01T00:36:48Z</time>
      </trkpt>
      <trkpt lat="42.81324" lon="2.96083">
        <ele>0.19999999999999</ele>
        <time>1970-01-01T00:36:49Z</time>
      </trkpt>
      <trkpt lat="42.81322" lon="2.96079">
        <ele>0.19999999999999</ele>
        <time>1970-01-01T00:36:50Z</time>
      </trkpt>
      <trkpt lat="42.81319" lon="2.96076">
        <ele>0.19999999999999</ele>
        <time>1970-01-01T00:36:51Z</time>
      </trkpt>
      <trkpt lat="42.81317" lon="2.96072">
        <ele>0.19999999999999</ele>
        <time>1970-01-01T00:36:52Z</time>
      </trkpt>
      <trkpt lat="42.81315" lon="2.96068">
        <ele>0.19999999999999</ele>
        <time>1970-01-01T00:36:53Z</time>
      </trkpt>
      <trkpt lat="42.81313" lon="2.96065">
        <ele>0.19999999999999</ele>
        <time>1970-01-01T00:36:54Z</time>
      </trkpt>
      <trkpt lat="42.81311" lon="2.96061">
        <ele>0.19999999999999</ele>
        <time>1970-01-01T00:36:55Z</time>
      </trkpt>
      <trkpt lat="42.81308" lon="2.96058">
        <ele>0.19999999999999</ele>
        <time>1970-01-01T00:36:56Z</time>
      </trkpt>
      <trkpt lat="42.81306" lon="2.96054">
        <ele>0.19999999999999</ele>
        <time>1970-01-01T00:36:57Z</time>
      </trkpt>
      <trkpt lat="42.81304" lon="2.96051">
        <ele>0.19999999999999</ele>
        <time>1970-01-01T00:36:58Z</time>
      </trkpt>
      <trkpt lat="42.81301" lon="2.96047">
        <ele>0.19999999999999</ele>
        <time>1970-01-01T00:36:59Z</time>
      </trkpt>
      <trkpt lat="42.81299" lon="2.96043">
        <ele>0.19999999999999</ele>
        <time>1970-01-01T00:37:00Z</time>
      </trkpt>
      <trkpt lat="42.81296" lon="2.9604">
        <ele>0.19999999999999</ele>
        <time>1970-01-01T00:37:01Z</time>
      </trkpt>
      <trkpt lat="42.81294" lon="2.96036">
        <ele>0.39999999999998</ele>
        <time>1970-01-01T00:37:02Z</time>
      </trkpt>
      <trkpt lat="42.81291" lon="2.96033">
        <ele>0.39999999999998</ele>
        <time>1970-01-01T00:37:03Z</time>
      </trkpt>
      <trkpt lat="42.81289" lon="2.9603">
        <ele>0.39999999999998</ele>
        <time>1970-01-01T00:37:04Z</time>
      </trkpt>
      <trkpt lat="42.81286" lon="2.96027">
        <ele>0.39999999999998</ele>
        <time>1970-01-01T00:37:05Z</time>
      </trkpt>
      <trkpt lat="42.81284" lon="2.96023">
        <ele>0.39999999999998</ele>
        <time>1970-01-01T00:37:06Z</time>
      </trkpt>
      <trkpt lat="42.81281" lon="2.96019">
        <ele>0.39999999999998</ele>
        <time>1970-01-01T00:37:07Z</time>
      </trkpt>
      <trkpt lat="42.81279" lon="2.96016">
        <ele>0.39999999999998</ele>
        <time>1970-01-01T00:37:08Z</time>
      </trkpt>
      <trkpt lat="42.81276" lon="2.96012">
        <ele>0.39999999999998</ele>
        <time>1970-01-01T00:37:09Z</time>
      </trkpt>
      <trkpt lat="42.81274" lon="2.96009">
        <ele>0.39999999999998</ele>
        <time>1970-01-01T00:37:10Z</time>
      </trkpt>
      <trkpt lat="42.81272" lon="2.96005">
        <ele>0.39999999999998</ele>
        <time>1970-01-01T00:37:11Z</time>
      </trkpt>
      <trkpt lat="42.81269" lon="2.96001">
        <ele>0.39999999999998</ele>
        <time>1970-01-01T00:37:12Z</time>
      </trkpt>
      <trkpt lat="42.81267" lon="2.95998">
        <ele>0.39999999999998</ele>
        <time>1970-01-01T00:37:13Z</time>
      </trkpt>
      <trkpt lat="42.81264" lon="2.95994">
        <ele>0.39999999999998</ele>
        <time>1970-01-01T00:37:14Z</time>
      </trkpt>
      <trkpt lat="42.81262" lon="2.9599">
        <ele>0.39999999999998</ele>
        <time>1970-01-01T00:37:15Z</time>
      </trkpt>
      <trkpt lat="42.81259" lon="2.95987">
        <ele>0.39999999999998</ele>
        <time>1970-01-01T00:37:16Z</time>
      </trkpt>
      <trkpt lat="42.81257" lon="2.95983">
        <ele>0.60000000000002</ele>
        <time>1970-01-01T00:37:17Z</time>
      </trkpt>
      <trkpt lat="42.81255" lon="2.95979">
        <ele>0.60000000000002</ele>
        <time>1970-01-01T00:37:18Z</time>
      </trkpt>
      <trkpt lat="42.81252" lon="2.95976">
        <ele>0.60000000000002</ele>
        <time>1970-01-01T00:37:19Z</time>
      </trkpt>
      <trkpt lat="42.8125" lon="2.95972">
        <ele>0.60000000000002</ele>
        <time>1970-01-01T00:37:20Z</time>
      </trkpt>
      <trkpt lat="42.81247" lon="2.95968">
        <ele>0.60000000000002</ele>
        <time>1970-01-01T00:37:21Z</time>
      </trkpt>
      <trkpt lat="42.81245" lon="2.95965">
        <ele>0.80000000000001</ele>
        <time>1970-01-01T00:37:22Z</time>
      </trkpt>
      <trkpt lat="42.81242" lon="2.95961">
        <ele>0.80000000000001</ele>
        <time>1970-01-01T00:37:23Z</time>
      </trkpt>
      <trkpt lat="42.8124" lon="2.95957">
        <ele>0.80000000000001</ele>
        <time>1970-01-01T00:37:24Z</time>
      </trkpt>
      <trkpt lat="42.81238" lon="2.95954">
        <ele>0.80000000000001</ele>
        <time>1970-01-01T00:37:25Z</time>
      </trkpt>
      <trkpt lat="42.81236" lon="2.95951">
        <ele>0.80000000000001</ele>
        <time>1970-01-01T00:37:26Z</time>
      </trkpt>
      <trkpt lat="42.81234" lon="2.95948">
        <ele>0.80000000000001</ele>
        <time>1970-01-01T00:37:27Z</time>
      </trkpt>
      <trkpt lat="42.81232" lon="2.95945">
        <ele>0.80000000000001</ele>
        <time>1970-01-01T00:37:28Z</time>
      </trkpt>
      <trkpt lat="42.8123" lon="2.95942">
        <ele>0.80000000000001</ele>
        <time>1970-01-01T00:37:29Z</time>
      </trkpt>
      <trkpt lat="42.81227" lon="2.95938">
        <ele>1</ele>
        <time>1970-01-01T00:37:30Z</time>
      </trkpt>
      <trkpt lat="42.81225" lon="2.95935">
        <ele>1</ele>
        <time>1970-01-01T00:37:31Z</time>
      </trkpt>
      <trkpt lat="42.81223" lon="2.95932">
        <ele>1</ele>
        <time>1970-01-01T00:37:32Z</time>
      </trkpt>
      <trkpt lat="42.81221" lon="2.95929">
        <ele>1.2</ele>
        <time>1970-01-01T00:37:33Z</time>
      </trkpt>
      <trkpt lat="42.8122" lon="2.95925">
        <ele>1.2</ele>
        <time>1970-01-01T00:37:34Z</time>
      </trkpt>
      <trkpt lat="42.81219" lon="2.9592">
        <ele>1.4</ele>
        <time>1970-01-01T00:37:35Z</time>
      </trkpt>
      <trkpt lat="42.81219" lon="2.95919">
        <ele>1.4</ele>
        <time>1970-01-01T00:37:36Z</time>
      </trkpt>
      <trkpt lat="42.81221" lon="2.95915">
        <ele>1.2</ele>
        <time>1970-01-01T00:37:37Z</time>
      </trkpt>
      <trkpt lat="42.81223" lon="2.95914">
        <ele>1.2</ele>
        <time>1970-01-01T00:37:38Z</time>
      </trkpt>
      <trkpt lat="42.81225" lon="2.95912">
        <ele>1.2</ele>
        <time>1970-01-01T00:37:39Z</time>
      </trkpt>
      <trkpt lat="42.81227" lon="2.9591">
        <ele>1.2</ele>
        <time>1970-01-01T00:37:40Z</time>
      </trkpt>
      <trkpt lat="42.8123" lon="2.95907">
        <ele>1</ele>
        <time>1970-01-01T00:37:41Z</time>
      </trkpt>
      <trkpt lat="42.81231" lon="2.95906">
        <ele>1</ele>
        <time>1970-01-01T00:37:42Z</time>
      </trkpt>
      <trkpt lat="42.81234" lon="2.95905">
        <ele>0.80000000000001</ele>
        <time>1970-01-01T00:37:43Z</time>
      </trkpt>
      <trkpt lat="42.81236" lon="2.95904">
        <ele>0.80000000000001</ele>
        <time>1970-01-01T00:37:44Z</time>
      </trkpt>
      <trkpt lat="42.81239" lon="2.95901">
        <ele>0.80000000000001</ele>
        <time>1970-01-01T00:37:45Z</time>
      </trkpt>
      <trkpt lat="42.8124" lon="2.959">
        <ele>0.60000000000002</ele>
        <time>1970-01-01T00:37:46Z</time>
      </trkpt>
      <trkpt lat="42.81242" lon="2.95896">
        <ele>0.60000000000002</ele>
        <time>1970-01-01T00:37:47Z</time>
      </trkpt>
      <trkpt lat="42.81245" lon="2.95893">
        <ele>0.60000000000002</ele>
        <time>1970-01-01T00:37:48Z</time>
      </trkpt>
      <trkpt lat="42.81247" lon="2.9589">
        <ele>0.39999999999998</ele>
        <time>1970-01-01T00:37:49Z</time>
      </trkpt>
      <trkpt lat="42.81249" lon="2.95886">
        <ele>0.39999999999998</ele>
        <time>1970-01-01T00:37:50Z</time>
      </trkpt>
      <trkpt lat="42.81251" lon="2.95882">
        <ele>0.39999999999998</ele>
        <time>1970-01-01T00:37:51Z</time>
      </trkpt>
      <trkpt lat="42.81253" lon="2.95878">
        <ele>0.39999999999998</ele>
        <time>1970-01-01T00:37:52Z</time>
      </trkpt>
      <trkpt lat="42.81255" lon="2.95875">
        <ele>0.39999999999998</ele>
        <time>1970-01-01T00:37:53Z</time>
      </trkpt>
      <trkpt lat="42.81257" lon="2.95872">
        <ele>0.39999999999998</ele>
        <time>1970-01-01T00:37:54Z</time>
      </trkpt>
      <trkpt lat="42.8126" lon="2.95869">
        <ele>0.39999999999998</ele>
        <time>1970-01-01T00:37:55Z</time>
      </trkpt>
      <trkpt lat="42.81262" lon="2.95866">
        <ele>0.39999999999998</ele>
        <time>1970-01-01T00:37:56Z</time>
      </trkpt>
      <trkpt lat="42.81264" lon="2.95863">
        <ele>0.39999999999998</ele>
        <time>1970-01-01T00:37:57Z</time>
      </trkpt>
      <trkpt lat="42.81267" lon="2.9586">
        <ele>0.39999999999998</ele>
        <time>1970-01-01T00:37:58Z</time>
      </trkpt>
      <trkpt lat="42.81269" lon="2.95857">
        <ele>0.39999999999998</ele>
        <time>1970-01-01T00:37:59Z</time>
      </trkpt>
      <trkpt lat="42.81271" lon="2.95854">
        <ele>0.39999999999998</ele>
        <time>1970-01-01T00:38:00Z</time>
      </trkpt>
      <trkpt lat="42.81274" lon="2.95851">
        <ele>0.39999999999998</ele>
        <time>1970-01-01T00:38:01Z</time>
      </trkpt>
      <trkpt lat="42.81276" lon="2.95848">
        <ele>0.39999999999998</ele>
        <time>1970-01-01T00:38:02Z</time>
      </trkpt>
      <trkpt lat="42.81278" lon="2.95845">
        <ele>0.39999999999998</ele>
        <time>1970-01-01T00:38:03Z</time>
      </trkpt>
      <trkpt lat="42.8128" lon="2.95842">
        <ele>0.39999999999998</ele>
        <time>1970-01-01T00:38:04Z</time>
      </trkpt>
      <trkpt lat="42.81282" lon="2.95839">
        <ele>0.39999999999998</ele>
        <time>1970-01-01T00:38:05Z</time>
      </trkpt>
      <trkpt lat="42.81285" lon="2.95836">
        <ele>0.39999999999998</ele>
        <time>1970-01-01T00:38:06Z</time>
      </trkpt>
      <trkpt lat="42.81287" lon="2.95833">
        <ele>0.39999999999998</ele>
        <time>1970-01-01T00:38:07Z</time>
      </trkpt>
      <trkpt lat="42.81289" lon="2.95831">
        <ele>0.39999999999998</ele>
        <time>1970-01-01T00:38:08Z</time>
      </trkpt>
      <trkpt lat="42.81292" lon="2.95828">
        <ele>0.39999999999998</ele>
        <time>1970-01-01T00:38:09Z</time>
      </trkpt>
      <trkpt lat="42.81294" lon="2.95825">
        <ele>0.60000000000002</ele>
        <time>1970-01-01T00:38:10Z</time>
      </trkpt>
      <trkpt lat="42.81297" lon="2.95823">
        <ele>0.60000000000002</ele>
        <time>1970-01-01T00:38:11Z</time>
      </trkpt>
      <trkpt lat="42.81299" lon="2.9582">
        <ele>0.60000000000002</ele>
        <time>1970-01-01T00:38:12Z</time>
      </trkpt>
      <trkpt lat="42.81302" lon="2.95817">
        <ele>0.60000000000002</ele>
        <time>1970-01-01T00:38:13Z</time>
      </trkpt>
      <trkpt lat="42.81304" lon="2.95815">
        <ele>0.60000000000002</ele>
        <time>1970-01-01T00:38:14Z</time>
      </trkpt>
      <trkpt lat="42.81307" lon="2.95812">
        <ele>0.60000000000002</ele>
        <time>1970-01-01T00:38:15Z</time>
      </trkpt>
      <trkpt lat="42.81309" lon="2.9581">
        <ele>0.60000000000002</ele>
        <time>1970-01-01T00:38:16Z</time>
      </trkpt>
      <trkpt lat="42.81312" lon="2.95808">
        <ele>0.60000000000002</ele>
        <time>1970-01-01T00:38:17Z</time>
      </trkpt>
      <trkpt lat="42.81315" lon="2.95805">
        <ele>0.60000000000002</ele>
        <time>1970-01-01T00:38:18Z</time>
      </trkpt>
      <trkpt lat="42.81318" lon="2.95803">
        <ele>0.60000000000002</ele>
        <time>1970-01-01T00:38:19Z</time>
      </trkpt>
      <trkpt lat="42.81321" lon="2.958">
        <ele>0.60000000000002</ele>
        <time>1970-01-01T00:38:20Z</time>
      </trkpt>
      <trkpt lat="42.81324" lon="2.95798">
        <ele>0.60000000000002</ele>
        <time>1970-01-01T00:38:21Z</time>
      </trkpt>
      <trkpt lat="42.81327" lon="2.95795">
        <ele>0.60000000000002</ele>
        <time>1970-01-01T00:38:22Z</time>
      </trkpt>
      <trkpt lat="42.8133" lon="2.95793">
        <ele>0.60000000000002</ele>
        <time>1970-01-01T00:38:23Z</time>
      </trkpt>
      <trkpt lat="42.81332" lon="2.95791">
        <ele>0.60000000000002</ele>
        <time>1970-01-01T00:38:24Z</time>
      </trkpt>
      <trkpt lat="42.81335" lon="2.95789">
        <ele>0.60000000000002</ele>
        <time>1970-01-01T00:38:25Z</time>
      </trkpt>
      <trkpt lat="42.81338" lon="2.95787">
        <ele>0.60000000000002</ele>
        <time>1970-01-01T00:38:26Z</time>
      </trkpt>
      <trkpt lat="42.81342" lon="2.95785">
        <ele>0.60000000000002</ele>
        <time>1970-01-01T00:38:27Z</time>
      </trkpt>
      <trkpt lat="42.81345" lon="2.95783">
        <ele>0.60000000000002</ele>
        <time>1970-01-01T00:38:28Z</time>
      </trkpt>
      <trkpt lat="42.81348" lon="2.95781">
        <ele>0.60000000000002</ele>
        <time>1970-01-01T00:38:29Z</time>
      </trkpt>
      <trkpt lat="42.81351" lon="2.95779">
        <ele>0.60000000000002</ele>
        <time>1970-01-01T00:38:30Z</time>
      </trkpt>
      <trkpt lat="42.81353" lon="2.95778">
        <ele>0.60000000000002</ele>
        <time>1970-01-01T00:38:31Z</time>
      </trkpt>
      <trkpt lat="42.81356" lon="2.95776">
        <ele>0.60000000000002</ele>
        <time>1970-01-01T00:38:32Z</time>
      </trkpt>
      <trkpt lat="42.81359" lon="2.95774">
        <ele>0.60000000000002</ele>
        <time>1970-01-01T00:38:33Z</time>
      </trkpt>
      <trkpt lat="42.81362" lon="2.95773">
        <ele>0.60000000000002</ele>
        <time>1970-01-01T00:38:34Z</time>
      </trkpt>
      <trkpt lat="42.81365" lon="2.95771">
        <ele>0.60000000000002</ele>
        <time>1970-01-01T00:38:35Z</time>
      </trkpt>
      <trkpt lat="42.81368" lon="2.9577">
        <ele>0.60000000000002</ele>
        <time>1970-01-01T00:38:36Z</time>
      </trkpt>
      <trkpt lat="42.81371" lon="2.95768">
        <ele>0.60000000000002</ele>
        <time>1970-01-01T00:38:37Z</time>
      </trkpt>
      <trkpt lat="42.81374" lon="2.95767">
        <ele>0.60000000000002</ele>
        <time>1970-01-01T00:38:38Z</time>
      </trkpt>
      <trkpt lat="42.81377" lon="2.95765">
        <ele>0.60000000000002</ele>
        <time>1970-01-01T00:38:39Z</time>
      </trkpt>
      <trkpt lat="42.8138" lon="2.95764">
        <ele>0.60000000000002</ele>
        <time>1970-01-01T00:38:40Z</time>
      </trkpt>
      <trkpt lat="42.81383" lon="2.95763">
        <ele>0.60000000000002</ele>
        <time>1970-01-01T00:38:41Z</time>
      </trkpt>
      <trkpt lat="42.81386" lon="2.95762">
        <ele>0.60000000000002</ele>
        <time>1970-01-01T00:38:42Z</time>
      </trkpt>
      <trkpt lat="42.81389" lon="2.95761">
        <ele>0.60000000000002</ele>
        <time>1970-01-01T00:38:43Z</time>
      </trkpt>
      <trkpt lat="42.81392" lon="2.9576">
        <ele>0.60000000000002</ele>
        <time>1970-01-01T00:38:44Z</time>
      </trkpt>
      <trkpt lat="42.81395" lon="2.95758">
        <ele>0.60000000000002</ele>
        <time>1970-01-01T00:38:45Z</time>
      </trkpt>
      <trkpt lat="42.81398" lon="2.95757">
        <ele>0.60000000000002</ele>
        <time>1970-01-01T00:38:46Z</time>
      </trkpt>
      <trkpt lat="42.81401" lon="2.95757">
        <ele>0.60000000000002</ele>
        <time>1970-01-01T00:38:47Z</time>
      </trkpt>
      <trkpt lat="42.81404" lon="2.95756">
        <ele>0.60000000000002</ele>
        <time>1970-01-01T00:38:48Z</time>
      </trkpt>
      <trkpt lat="42.81407" lon="2.95755">
        <ele>0.60000000000002</ele>
        <time>1970-01-01T00:38:49Z</time>
      </trkpt>
      <trkpt lat="42.8141" lon="2.95754">
        <ele>0.60000000000002</ele>
        <time>1970-01-01T00:38:50Z</time>
      </trkpt>
      <trkpt lat="42.81413" lon="2.95753">
        <ele>0.60000000000002</ele>
        <time>1970-01-01T00:38:51Z</time>
      </trkpt>
      <trkpt lat="42.81416" lon="2.95752">
        <ele>0.60000000000002</ele>
        <time>1970-01-01T00:38:52Z</time>
      </trkpt>
      <trkpt lat="42.81419" lon="2.95751">
        <ele>0.60000000000002</ele>
        <time>1970-01-01T00:38:53Z</time>
      </trkpt>
      <trkpt lat="42.81422" lon="2.9575">
        <ele>0.60000000000002</ele>
        <time>1970-01-01T00:38:54Z</time>
      </trkpt>
      <trkpt lat="42.81425" lon="2.9575">
        <ele>0.60000000000002</ele>
        <time>1970-01-01T00:38:55Z</time>
      </trkpt>
      <trkpt lat="42.81428" lon="2.95749">
        <ele>0.60000000000002</ele>
        <time>1970-01-01T00:38:56Z</time>
      </trkpt>
      <trkpt lat="42.81431" lon="2.95748">
        <ele>0.60000000000002</ele>
        <time>1970-01-01T00:38:57Z</time>
      </trkpt>
      <trkpt lat="42.81434" lon="2.95747">
        <ele>0.60000000000002</ele>
        <time>1970-01-01T00:38:58Z</time>
      </trkpt>
      <trkpt lat="42.81437" lon="2.95746">
        <ele>0.60000000000002</ele>
        <time>1970-01-01T00:38:59Z</time>
      </trkpt>
      <trkpt lat="42.8144" lon="2.95745">
        <ele>0.80000000000001</ele>
        <time>1970-01-01T00:39:00Z</time>
      </trkpt>
      <trkpt lat="42.81443" lon="2.95745">
        <ele>0.80000000000001</ele>
        <time>1970-01-01T00:39:01Z</time>
      </trkpt>
      <trkpt lat="42.81446" lon="2.95744">
        <ele>0.80000000000001</ele>
        <time>1970-01-01T00:39:02Z</time>
      </trkpt>
      <trkpt lat="42.81449" lon="2.95743">
        <ele>0.80000000000001</ele>
        <time>1970-01-01T00:39:03Z</time>
      </trkpt>
      <trkpt lat="42.81452" lon="2.95742">
        <ele>0.80000000000001</ele>
        <time>1970-01-01T00:39:04Z</time>
      </trkpt>
      <trkpt lat="42.81456" lon="2.95742">
        <ele>0.80000000000001</ele>
        <time>1970-01-01T00:39:05Z</time>
      </trkpt>
      <trkpt lat="42.81457" lon="2.95741">
        <ele>0.80000000000001</ele>
        <time>1970-01-01T00:39:06Z</time>
      </trkpt>
      <trkpt lat="42.8146" lon="2.95741">
        <ele>0.80000000000001</ele>
        <time>1970-01-01T00:39:07Z</time>
      </trkpt>
      <trkpt lat="42.81463" lon="2.9574">
        <ele>0.80000000000001</ele>
        <time>1970-01-01T00:39:08Z</time>
      </trkpt>
      <trkpt lat="42.81466" lon="2.95741">
        <ele>0.80000000000001</ele>
        <time>1970-01-01T00:39:09Z</time>
      </trkpt>
      <trkpt lat="42.81469" lon="2.95742">
        <ele>0.80000000000001</ele>
        <time>1970-01-01T00:39:10Z</time>
      </trkpt>
      <trkpt lat="42.81472" lon="2.95745">
        <ele>0.80000000000001</ele>
        <time>1970-01-01T00:39:11Z</time>
      </trkpt>
      <trkpt lat="42.81474" lon="2.95748">
        <ele>1</ele>
        <time>1970-01-01T00:39:12Z</time>
      </trkpt>
      <trkpt lat="42.81477" lon="2.95751">
        <ele>1</ele>
        <time>1970-01-01T00:39:13Z</time>
      </trkpt>
      <trkpt lat="42.81479" lon="2.95754">
        <ele>1</ele>
        <time>1970-01-01T00:39:14Z</time>
      </trkpt>
      <trkpt lat="42.81482" lon="2.95757">
        <ele>1</ele>
        <time>1970-01-01T00:39:15Z</time>
      </trkpt>
      <trkpt lat="42.81484" lon="2.95759">
        <ele>1</ele>
        <time>1970-01-01T00:39:16Z</time>
      </trkpt>
      <trkpt lat="42.81487" lon="2.95761">
        <ele>1</ele>
        <time>1970-01-01T00:39:17Z</time>
      </trkpt>
      <trkpt lat="42.8149" lon="2.9576">
        <ele>1</ele>
        <time>1970-01-01T00:39:18Z</time>
      </trkpt>
      <trkpt lat="42.81493" lon="2.95759">
        <ele>1</ele>
        <time>1970-01-01T00:39:19Z</time>
      </trkpt>
      <trkpt lat="42.81495" lon="2.95756">
        <ele>1</ele>
        <time>1970-01-01T00:39:20Z</time>
      </trkpt>
      <trkpt lat="42.81497" lon="2.95753">
        <ele>1</ele>
        <time>1970-01-01T00:39:21Z</time>
      </trkpt>
      <trkpt lat="42.81499" lon="2.9575">
        <ele>1</ele>
        <time>1970-01-01T00:39:22Z</time>
      </trkpt>
      <trkpt lat="42.81501" lon="2.95746">
        <ele>1</ele>
        <time>1970-01-01T00:39:23Z</time>
      </trkpt>
      <trkpt lat="42.81503" lon="2.95743">
        <ele>1</ele>
        <time>1970-01-01T00:39:24Z</time>
      </trkpt>
      <trkpt lat="42.81506" lon="2.95739">
        <ele>0.80000000000001</ele>
        <time>1970-01-01T00:39:25Z</time>
      </trkpt>
      <trkpt lat="42.81508" lon="2.95736">
        <ele>0.80000000000001</ele>
        <time>1970-01-01T00:39:26Z</time>
      </trkpt>
      <trkpt lat="42.8151" lon="2.95732">
        <ele>0.80000000000001</ele>
        <time>1970-01-01T00:39:27Z</time>
      </trkpt>
      <trkpt lat="42.81512" lon="2.95729">
        <ele>0.80000000000001</ele>
        <time>1970-01-01T00:39:28Z</time>
      </trkpt>
      <trkpt lat="42.81515" lon="2.95725">
        <ele>0.80000000000001</ele>
        <time>1970-01-01T00:39:29Z</time>
      </trkpt>
      <trkpt lat="42.81517" lon="2.95722">
        <ele>0.80000000000001</ele>
        <time>1970-01-01T00:39:30Z</time>
      </trkpt>
      <trkpt lat="42.81519" lon="2.95719">
        <ele>0.80000000000001</ele>
        <time>1970-01-01T00:39:31Z</time>
      </trkpt>
      <trkpt lat="42.81521" lon="2.95716">
        <ele>0.80000000000001</ele>
        <time>1970-01-01T00:39:32Z</time>
      </trkpt>
      <trkpt lat="42.81523" lon="2.95713">
        <ele>1</ele>
        <time>1970-01-01T00:39:33Z</time>
      </trkpt>
      <trkpt lat="42.81525" lon="2.95711">
        <ele>1</ele>
        <time>1970-01-01T00:39:34Z</time>
      </trkpt>
      <trkpt lat="42.81528" lon="2.95709">
        <ele>1</ele>
        <time>1970-01-01T00:39:35Z</time>
      </trkpt>
      <trkpt lat="42.8153" lon="2.95707">
        <ele>1</ele>
        <time>1970-01-01T00:39:36Z</time>
      </trkpt>
      <trkpt lat="42.81533" lon="2.95704">
        <ele>1</ele>
        <time>1970-01-01T00:39:37Z</time>
      </trkpt>
      <trkpt lat="42.81536" lon="2.95703">
        <ele>1</ele>
        <time>1970-01-01T00:39:38Z</time>
      </trkpt>
      <trkpt lat="42.81539" lon="2.95701">
        <ele>1</ele>
        <time>1970-01-01T00:39:39Z</time>
      </trkpt>
      <trkpt lat="42.81542" lon="2.95699">
        <ele>1</ele>
        <time>1970-01-01T00:39:40Z</time>
      </trkpt>
      <trkpt lat="42.81545" lon="2.95698">
        <ele>1</ele>
        <time>1970-01-01T00:39:41Z</time>
      </trkpt>
      <trkpt lat="42.81548" lon="2.95696">
        <ele>1</ele>
        <time>1970-01-01T00:39:42Z</time>
      </trkpt>
      <trkpt lat="42.81551" lon="2.95694">
        <ele>1</ele>
        <time>1970-01-01T00:39:43Z</time>
      </trkpt>
      <trkpt lat="42.81554" lon="2.95693">
        <ele>1</ele>
        <time>1970-01-01T00:39:44Z</time>
      </trkpt>
      <trkpt lat="42.81556" lon="2.95691">
        <ele>1</ele>
        <time>1970-01-01T00:39:45Z</time>
      </trkpt>
      <trkpt lat="42.81559" lon="2.95689">
        <ele>1</ele>
        <time>1970-01-01T00:39:46Z</time>
      </trkpt>
      <trkpt lat="42.81562" lon="2.95687">
        <ele>1</ele>
        <time>1970-01-01T00:39:47Z</time>
      </trkpt>
      <trkpt lat="42.81564" lon="2.95685">
        <ele>1</ele>
        <time>1970-01-01T00:39:48Z</time>
      </trkpt>
      <trkpt lat="42.81567" lon="2.95684">
        <ele>1</ele>
        <time>1970-01-01T00:39:49Z</time>
      </trkpt>
      <trkpt lat="42.8157" lon="2.95682">
        <ele>1</ele>
        <time>1970-01-01T00:39:50Z</time>
      </trkpt>
      <trkpt lat="42.81572" lon="2.9568">
        <ele>1</ele>
        <time>1970-01-01T00:39:51Z</time>
      </trkpt>
      <trkpt lat="42.81574" lon="2.95677">
        <ele>1</ele>
        <time>1970-01-01T00:39:52Z</time>
      </trkpt>
      <trkpt lat="42.81576" lon="2.95675">
        <ele>1</ele>
        <time>1970-01-01T00:39:53Z</time>
      </trkpt>
      <trkpt lat="42.81579" lon="2.95672">
        <ele>1</ele>
        <time>1970-01-01T00:39:54Z</time>
      </trkpt>
      <trkpt lat="42.81581" lon="2.9567">
        <ele>1</ele>
        <time>1970-01-01T00:39:55Z</time>
      </trkpt>
      <trkpt lat="42.81584" lon="2.95668">
        <ele>1</ele>
        <time>1970-01-01T00:39:56Z</time>
      </trkpt>
      <trkpt lat="42.81587" lon="2.95665">
        <ele>1</ele>
        <time>1970-01-01T00:39:57Z</time>
      </trkpt>
      <trkpt lat="42.81589" lon="2.95663">
        <ele>1</ele>
        <time>1970-01-01T00:39:58Z</time>
      </trkpt>
      <trkpt lat="42.81592" lon="2.9566">
        <ele>1</ele>
        <time>1970-01-01T00:39:59Z</time>
      </trkpt>
      <trkpt lat="42.81594" lon="2.95658">
        <ele>1</ele>
        <time>1970-01-01T00:40:00Z</time>
      </trkpt>
      <trkpt lat="42.81597" lon="2.95655">
        <ele>1</ele>
        <time>1970-01-01T00:40:01Z</time>
      </trkpt>
      <trkpt lat="42.81599" lon="2.95653">
        <ele>1</ele>
        <time>1970-01-01T00:40:02Z</time>
      </trkpt>
      <trkpt lat="42.81601" lon="2.95651">
        <ele>1</ele>
        <time>1970-01-01T00:40:03Z</time>
      </trkpt>
      <trkpt lat="42.81604" lon="2.95649">
        <ele>1</ele>
        <time>1970-01-01T00:40:04Z</time>
      </trkpt>
      <trkpt lat="42.81607" lon="2.95646">
        <ele>1</ele>
        <time>1970-01-01T00:40:05Z</time>
      </trkpt>
      <trkpt lat="42.8161" lon="2.95643">
        <ele>1</ele>
        <time>1970-01-01T00:40:06Z</time>
      </trkpt>
      <trkpt lat="42.81613" lon="2.95641">
        <ele>1</ele>
        <time>1970-01-01T00:40:07Z</time>
      </trkpt>
      <trkpt lat="42.81616" lon="2.95638">
        <ele>1</ele>
        <time>1970-01-01T00:40:08Z</time>
      </trkpt>
      <trkpt lat="42.81619" lon="2.95635">
        <ele>1</ele>
        <time>1970-01-01T00:40:09Z</time>
      </trkpt>
      <trkpt lat="42.81622" lon="2.95632">
        <ele>1</ele>
        <time>1970-01-01T00:40:10Z</time>
      </trkpt>
      <trkpt lat="42.81626" lon="2.95629">
        <ele>1</ele>
        <time>1970-01-01T00:40:11Z</time>
      </trkpt>
      <trkpt lat="42.81629" lon="2.95625">
        <ele>1</ele>
        <time>1970-01-01T00:40:12Z</time>
      </trkpt>
      <trkpt lat="42.81633" lon="2.95622">
        <ele>1</ele>
        <time>1970-01-01T00:40:13Z</time>
      </trkpt>
      <trkpt lat="42.81636" lon="2.95619">
        <ele>1</ele>
        <time>1970-01-01T00:40:14Z</time>
      </trkpt>
      <trkpt lat="42.8164" lon="2.95616">
        <ele>1</ele>
        <time>1970-01-01T00:40:15Z</time>
      </trkpt>
      <trkpt lat="42.81643" lon="2.95613">
        <ele>1</ele>
        <time>1970-01-01T00:40:16Z</time>
      </trkpt>
      <trkpt lat="42.81647" lon="2.95611">
        <ele>1</ele>
        <time>1970-01-01T00:40:17Z</time>
      </trkpt>
      <trkpt lat="42.8165" lon="2.95609">
        <ele>1</ele>
        <time>1970-01-01T00:40:18Z</time>
      </trkpt>
      <trkpt lat="42.81653" lon="2.95607">
        <ele>1</ele>
        <time>1970-01-01T00:40:19Z</time>
      </trkpt>
      <trkpt lat="42.81657" lon="2.95605">
        <ele>1</ele>
        <time>1970-01-01T00:40:20Z</time>
      </trkpt>
      <trkpt lat="42.81661" lon="2.95604">
        <ele>1</ele>
        <time>1970-01-01T00:40:21Z</time>
      </trkpt>
      <trkpt lat="42.81664" lon="2.95602">
        <ele>1</ele>
        <time>1970-01-01T00:40:22Z</time>
      </trkpt>
      <trkpt lat="42.81668" lon="2.95601">
        <ele>1</ele>
        <time>1970-01-01T00:40:23Z</time>
      </trkpt>
      <trkpt lat="42.81671" lon="2.95599">
        <ele>1</ele>
        <time>1970-01-01T00:40:24Z</time>
      </trkpt>
      <trkpt lat="42.81675" lon="2.95597">
        <ele>1</ele>
        <time>1970-01-01T00:40:25Z</time>
      </trkpt>
      <trkpt lat="42.81678" lon="2.95595">
        <ele>1</ele>
        <time>1970-01-01T00:40:26Z</time>
      </trkpt>
      <trkpt lat="42.81682" lon="2.95593">
        <ele>1</ele>
        <time>1970-01-01T00:40:27Z</time>
      </trkpt>
      <trkpt lat="42.81686" lon="2.95591">
        <ele>1</ele>
        <time>1970-01-01T00:40:28Z</time>
      </trkpt>
      <trkpt lat="42.8169" lon="2.95589">
        <ele>1</ele>
        <time>1970-01-01T00:40:29Z</time>
      </trkpt>
      <trkpt lat="42.81694" lon="2.95587">
        <ele>1.2</ele>
        <time>1970-01-01T00:40:30Z</time>
      </trkpt>
      <trkpt lat="42.81698" lon="2.95585">
        <ele>1.2</ele>
        <time>1970-01-01T00:40:31Z</time>
      </trkpt>
      <trkpt lat="42.81702" lon="2.95583">
        <ele>1.2</ele>
        <time>1970-01-01T00:40:32Z</time>
      </trkpt>
      <trkpt lat="42.81706" lon="2.95581">
        <ele>1.2</ele>
        <time>1970-01-01T00:40:33Z</time>
      </trkpt>
      <trkpt lat="42.81709" lon="2.9558">
        <ele>1.2</ele>
        <time>1970-01-01T00:40:34Z</time>
      </trkpt>
      <trkpt lat="42.81713" lon="2.95578">
        <ele>1.2</ele>
        <time>1970-01-01T00:40:35Z</time>
      </trkpt>
      <trkpt lat="42.81716" lon="2.95577">
        <ele>1.2</ele>
        <time>1970-01-01T00:40:36Z</time>
      </trkpt>
      <trkpt lat="42.8172" lon="2.95577">
        <ele>1.2</ele>
        <time>1970-01-01T00:40:37Z</time>
      </trkpt>
      <trkpt lat="42.81724" lon="2.95579">
        <ele>1.2</ele>
        <time>1970-01-01T00:40:38Z</time>
      </trkpt>
      <trkpt lat="42.81727" lon="2.95582">
        <ele>1.2</ele>
        <time>1970-01-01T00:40:39Z</time>
      </trkpt>
      <trkpt lat="42.8173" lon="2.95586">
        <ele>1.2</ele>
        <time>1970-01-01T00:40:40Z</time>
      </trkpt>
      <trkpt lat="42.81734" lon="2.95588">
        <ele>1.2</ele>
        <time>1970-01-01T00:40:41Z</time>
      </trkpt>
      <trkpt lat="42.81739" lon="2.95588">
        <ele>1.2</ele>
        <time>1970-01-01T00:40:42Z</time>
      </trkpt>
      <trkpt lat="42.81743" lon="2.95587">
        <ele>1</ele>
        <time>1970-01-01T00:40:43Z</time>
      </trkpt>
      <trkpt lat="42.81747" lon="2.95584">
        <ele>1</ele>
        <time>1970-01-01T00:40:44Z</time>
      </trkpt>
      <trkpt lat="42.81751" lon="2.95582">
        <ele>1</ele>
        <time>1970-01-01T00:40:45Z</time>
      </trkpt>
      <trkpt lat="42.81755" lon="2.95579">
        <ele>1</ele>
        <time>1970-01-01T00:40:46Z</time>
      </trkpt>
      <trkpt lat="42.81759" lon="2.95577">
        <ele>0.80000000000001</ele>
        <time>1970-01-01T00:40:47Z</time>
      </trkpt>
      <trkpt lat="42.81764" lon="2.95575">
        <ele>0.80000000000001</ele>
        <time>1970-01-01T00:40:48Z</time>
      </trkpt>
      <trkpt lat="42.81768" lon="2.95573">
        <ele>0.80000000000001</ele>
        <time>1970-01-01T00:40:49Z</time>
      </trkpt>
      <trkpt lat="42.81772" lon="2.95571">
        <ele>0.80000000000001</ele>
        <time>1970-01-01T00:40:50Z</time>
      </trkpt>
      <trkpt lat="42.81777" lon="2.95568">
        <ele>0.80000000000001</ele>
        <time>1970-01-01T00:40:51Z</time>
      </trkpt>
      <trkpt lat="42.81781" lon="2.95565">
        <ele>0.80000000000001</ele>
        <time>1970-01-01T00:40:52Z</time>
      </trkpt>
      <trkpt lat="42.81785" lon="2.95562">
        <ele>0.80000000000001</ele>
        <time>1970-01-01T00:40:53Z</time>
      </trkpt>
      <trkpt lat="42.81789" lon="2.95559">
        <ele>0.80000000000001</ele>
        <time>1970-01-01T00:40:54Z</time>
      </trkpt>
      <trkpt lat="42.81793" lon="2.95557">
        <ele>0.80000000000001</ele>
        <time>1970-01-01T00:40:55Z</time>
      </trkpt>
      <trkpt lat="42.81797" lon="2.95554">
        <ele>0.80000000000001</ele>
        <time>1970-01-01T00:40:56Z</time>
      </trkpt>
      <trkpt lat="42.81801" lon="2.95551">
        <ele>0.80000000000001</ele>
        <time>1970-01-01T00:40:57Z</time>
      </trkpt>
      <trkpt lat="42.81805" lon="2.95548">
        <ele>0.80000000000001</ele>
        <time>1970-01-01T00:40:58Z</time>
      </trkpt>
      <trkpt lat="42.81809" lon="2.95546">
        <ele>0.80000000000001</ele>
        <time>1970-01-01T00:40:59Z</time>
      </trkpt>
      <trkpt lat="42.81813" lon="2.95543">
        <ele>0.80000000000001</ele>
        <time>1970-01-01T00:41:00Z</time>
      </trkpt>
      <trkpt lat="42.81817" lon="2.9554">
        <ele>0.80000000000001</ele>
        <time>1970-01-01T00:41:01Z</time>
      </trkpt>
      <trkpt lat="42.81821" lon="2.95538">
        <ele>0.80000000000001</ele>
        <time>1970-01-01T00:41:02Z</time>
      </trkpt>
      <trkpt lat="42.81825" lon="2.95535">
        <ele>0.80000000000001</ele>
        <time>1970-01-01T00:41:03Z</time>
      </trkpt>
      <trkpt lat="42.81829" lon="2.95531">
        <ele>0.80000000000001</ele>
        <time>1970-01-01T00:41:04Z</time>
      </trkpt>
      <trkpt lat="42.81833" lon="2.95528">
        <ele>0.80000000000001</ele>
        <time>1970-01-01T00:41:05Z</time>
      </trkpt>
      <trkpt lat="42.81837" lon="2.95524">
        <ele>0.80000000000001</ele>
        <time>1970-01-01T00:41:06Z</time>
      </trkpt>
      <trkpt lat="42.81841" lon="2.9552">
        <ele>0.80000000000001</ele>
        <time>1970-01-01T00:41:07Z</time>
      </trkpt>
      <trkpt lat="42.81844" lon="2.95516">
        <ele>0.80000000000001</ele>
        <time>1970-01-01T00:41:08Z</time>
      </trkpt>
      <trkpt lat="42.81847" lon="2.95512">
        <ele>0.80000000000001</ele>
        <time>1970-01-01T00:41:09Z</time>
      </trkpt>
      <trkpt lat="42.81851" lon="2.95508">
        <ele>0.80000000000001</ele>
        <time>1970-01-01T00:41:10Z</time>
      </trkpt>
      <trkpt lat="42.81854" lon="2.95505">
        <ele>0.80000000000001</ele>
        <time>1970-01-01T00:41:11Z</time>
      </trkpt>
      <trkpt lat="42.81857" lon="2.95501">
        <ele>0.80000000000001</ele>
        <time>1970-01-01T00:41:12Z</time>
      </trkpt>
      <trkpt lat="42.8186" lon="2.95497">
        <ele>0.80000000000001</ele>
        <time>1970-01-01T00:41:13Z</time>
      </trkpt>
      <trkpt lat="42.81863" lon="2.95493">
        <ele>0.80000000000001</ele>
        <time>1970-01-01T00:41:14Z</time>
      </trkpt>
      <trkpt lat="42.81866" lon="2.95489">
        <ele>0.80000000000001</ele>
        <time>1970-01-01T00:41:15Z</time>
      </trkpt>
      <trkpt lat="42.8187" lon="2.95485">
        <ele>0.80000000000001</ele>
        <time>1970-01-01T00:41:16Z</time>
      </trkpt>
      <trkpt lat="42.81873" lon="2.95481">
        <ele>0.80000000000001</ele>
        <time>1970-01-01T00:41:17Z</time>
      </trkpt>
      <trkpt lat="42.81876" lon="2.95477">
        <ele>0.80000000000001</ele>
        <time>1970-01-01T00:41:18Z</time>
      </trkpt>
      <trkpt lat="42.81879" lon="2.95472">
        <ele>0.80000000000001</ele>
        <time>1970-01-01T00:41:19Z</time>
      </trkpt>
      <trkpt lat="42.81883" lon="2.95468">
        <ele>0.80000000000001</ele>
        <time>1970-01-01T00:41:20Z</time>
      </trkpt>
      <trkpt lat="42.81886" lon="2.95464">
        <ele>0.80000000000001</ele>
        <time>1970-01-01T00:41:21Z</time>
      </trkpt>
      <trkpt lat="42.81889" lon="2.9546">
        <ele>0.80000000000001</ele>
        <time>1970-01-01T00:41:22Z</time>
      </trkpt>
      <trkpt lat="42.81892" lon="2.95456">
        <ele>1</ele>
        <time>1970-01-01T00:41:23Z</time>
      </trkpt>
      <trkpt lat="42.81896" lon="2.95452">
        <ele>1</ele>
        <time>1970-01-01T00:41:24Z</time>
      </trkpt>
      <trkpt lat="42.81899" lon="2.95448">
        <ele>1</ele>
        <time>1970-01-01T00:41:25Z</time>
      </trkpt>
      <trkpt lat="42.81902" lon="2.95445">
        <ele>1</ele>
        <time>1970-01-01T00:41:26Z</time>
      </trkpt>
      <trkpt lat="42.81905" lon="2.95441">
        <ele>1</ele>
        <time>1970-01-01T00:41:27Z</time>
      </trkpt>
      <trkpt lat="42.81908" lon="2.95437">
        <ele>1.2</ele>
        <time>1970-01-01T00:41:28Z</time>
      </trkpt>
      <trkpt lat="42.81912" lon="2.95434">
        <ele>1.2</ele>
        <time>1970-01-01T00:41:29Z</time>
      </trkpt>
      <trkpt lat="42.81915" lon="2.95431">
        <ele>1.2</ele>
        <time>1970-01-01T00:41:30Z</time>
      </trkpt>
      <trkpt lat="42.81919" lon="2.95428">
        <ele>1.2</ele>
        <time>1970-01-01T00:41:31Z</time>
      </trkpt>
      <trkpt lat="42.81922" lon="2.95425">
        <ele>1.2</ele>
        <time>1970-01-01T00:41:32Z</time>
      </trkpt>
      <trkpt lat="42.81925" lon="2.95422">
        <ele>1.2</ele>
        <time>1970-01-01T00:41:33Z</time>
      </trkpt>
      <trkpt lat="42.81928" lon="2.95419">
        <ele>1.2</ele>
        <time>1970-01-01T00:41:34Z</time>
      </trkpt>
      <trkpt lat="42.81932" lon="2.95417">
        <ele>1.2</ele>
        <time>1970-01-01T00:41:35Z</time>
      </trkpt>
      <trkpt lat="42.81936" lon="2.95414">
        <ele>1.2</ele>
        <time>1970-01-01T00:41:36Z</time>
      </trkpt>
      <trkpt lat="42.81939" lon="2.95411">
        <ele>1.2</ele>
        <time>1970-01-01T00:41:37Z</time>
      </trkpt>
      <trkpt lat="42.81942" lon="2.95409">
        <ele>1.4</ele>
        <time>1970-01-01T00:41:38Z</time>
      </trkpt>
      <trkpt lat="42.81946" lon="2.95406">
        <ele>1.4</ele>
        <time>1970-01-01T00:41:39Z</time>
      </trkpt>
      <trkpt lat="42.81949" lon="2.95403">
        <ele>1.4</ele>
        <time>1970-01-01T00:41:40Z</time>
      </trkpt>
      <trkpt lat="42.81953" lon="2.954">
        <ele>1.2</ele>
        <time>1970-01-01T00:41:41Z</time>
      </trkpt>
      <trkpt lat="42.81957" lon="2.95398">
        <ele>1.2</ele>
        <time>1970-01-01T00:41:42Z</time>
      </trkpt>
      <trkpt lat="42.81961" lon="2.95395">
        <ele>1.2</ele>
        <time>1970-01-01T00:41:43Z</time>
      </trkpt>
      <trkpt lat="42.81965" lon="2.95392">
        <ele>1.2</ele>
        <time>1970-01-01T00:41:44Z</time>
      </trkpt>
      <trkpt lat="42.81968" lon="2.95389">
        <ele>1.2</ele>
        <time>1970-01-01T00:41:45Z</time>
      </trkpt>
      <trkpt lat="42.81972" lon="2.95386">
        <ele>1.2</ele>
        <time>1970-01-01T00:41:46Z</time>
      </trkpt>
      <trkpt lat="42.81975" lon="2.95383">
        <ele>1.2</ele>
        <time>1970-01-01T00:41:47Z</time>
      </trkpt>
      <trkpt lat="42.81979" lon="2.9538">
        <ele>1.2</ele>
        <time>1970-01-01T00:41:48Z</time>
      </trkpt>
      <trkpt lat="42.81982" lon="2.95376">
        <ele>1.2</ele>
        <time>1970-01-01T00:41:49Z</time>
      </trkpt>
      <trkpt lat="42.81985" lon="2.95373">
        <ele>1.2</ele>
        <time>1970-01-01T00:41:50Z</time>
      </trkpt>
      <trkpt lat="42.81988" lon="2.95369">
        <ele>1.2</ele>
        <time>1970-01-01T00:41:51Z</time>
      </trkpt>
      <trkpt lat="42.81991" lon="2.95366">
        <ele>1.2</ele>
        <time>1970-01-01T00:41:52Z</time>
      </trkpt>
      <trkpt lat="42.81994" lon="2.95362">
        <ele>1.2</ele>
        <time>1970-01-01T00:41:53Z</time>
      </trkpt>
      <trkpt lat="42.81996" lon="2.95359">
        <ele>1.2</ele>
        <time>1970-01-01T00:41:54Z</time>
      </trkpt>
      <trkpt lat="42.81998" lon="2.95355">
        <ele>1.2</ele>
        <time>1970-01-01T00:41:55Z</time>
      </trkpt>
      <trkpt lat="42.82" lon="2.95351">
        <ele>1.2</ele>
        <time>1970-01-01T00:41:56Z</time>
      </trkpt>
      <trkpt lat="42.82002" lon="2.95348">
        <ele>1.2</ele>
        <time>1970-01-01T00:41:57Z</time>
      </trkpt>
      <trkpt lat="42.82005" lon="2.95345">
        <ele>1.2</ele>
        <time>1970-01-01T00:41:58Z</time>
      </trkpt>
      <trkpt lat="42.82008" lon="2.95341">
        <ele>1.2</ele>
        <time>1970-01-01T00:41:59Z</time>
      </trkpt>
      <trkpt lat="42.82011" lon="2.95337">
        <ele>1.2</ele>
        <time>1970-01-01T00:42:00Z</time>
      </trkpt>
      <trkpt lat="42.82014" lon="2.95334">
        <ele>1.2</ele>
        <time>1970-01-01T00:42:01Z</time>
      </trkpt>
      <trkpt lat="42.82017" lon="2.9533">
        <ele>1.2</ele>
        <time>1970-01-01T00:42:02Z</time>
      </trkpt>
      <trkpt lat="42.8202" lon="2.95327">
        <ele>1.2</ele>
        <time>1970-01-01T00:42:03Z</time>
      </trkpt>
      <trkpt lat="42.82023" lon="2.95323">
        <ele>1.2</ele>
        <time>1970-01-01T00:42:04Z</time>
      </trkpt>
      <trkpt lat="42.82027" lon="2.95319">
        <ele>1.2</ele>
        <time>1970-01-01T00:42:05Z</time>
      </trkpt>
      <trkpt lat="42.8203" lon="2.95316">
        <ele>1.2</ele>
        <time>1970-01-01T00:42:06Z</time>
      </trkpt>
      <trkpt lat="42.82034" lon="2.95313">
        <ele>1.2</ele>
        <time>1970-01-01T00:42:07Z</time>
      </trkpt>
      <trkpt lat="42.82037" lon="2.95309">
        <ele>1.2</ele>
        <time>1970-01-01T00:42:08Z</time>
      </trkpt>
      <trkpt lat="42.8204" lon="2.95305">
        <ele>1.2</ele>
        <time>1970-01-01T00:42:09Z</time>
      </trkpt>
      <trkpt lat="42.82044" lon="2.95302">
        <ele>1.2</ele>
        <time>1970-01-01T00:42:10Z</time>
      </trkpt>
      <trkpt lat="42.82047" lon="2.95298">
        <ele>1.2</ele>
        <time>1970-01-01T00:42:11Z</time>
      </trkpt>
      <trkpt lat="42.82051" lon="2.95295">
        <ele>1.4</ele>
        <time>1970-01-01T00:42:12Z</time>
      </trkpt>
      <trkpt lat="42.82054" lon="2.95291">
        <ele>1.4</ele>
        <time>1970-01-01T00:42:13Z</time>
      </trkpt>
      <trkpt lat="42.82058" lon="2.95288">
        <ele>1.4</ele>
        <time>1970-01-01T00:42:14Z</time>
      </trkpt>
      <trkpt lat="42.82061" lon="2.95285">
        <ele>1.4</ele>
        <time>1970-01-01T00:42:15Z</time>
      </trkpt>
      <trkpt lat="42.82065" lon="2.95282">
        <ele>1.4</ele>
        <time>1970-01-01T00:42:16Z</time>
      </trkpt>
      <trkpt lat="42.82069" lon="2.95279">
        <ele>1.6</ele>
        <time>1970-01-01T00:42:17Z</time>
      </trkpt>
      <trkpt lat="42.82072" lon="2.95276">
        <ele>1.6</ele>
        <time>1970-01-01T00:42:18Z</time>
      </trkpt>
      <trkpt lat="42.82076" lon="2.95272">
        <ele>1.6</ele>
        <time>1970-01-01T00:42:19Z</time>
      </trkpt>
      <trkpt lat="42.82079" lon="2.95269">
        <ele>1.6</ele>
        <time>1970-01-01T00:42:20Z</time>
      </trkpt>
      <trkpt lat="42.82082" lon="2.95266">
        <ele>1.8</ele>
        <time>1970-01-01T00:42:21Z</time>
      </trkpt>
      <trkpt lat="42.82085" lon="2.95263">
        <ele>1.8</ele>
        <time>1970-01-01T00:42:22Z</time>
      </trkpt>
      <trkpt lat="42.82088" lon="2.9526">
        <ele>1.8</ele>
        <time>1970-01-01T00:42:23Z</time>
      </trkpt>
      <trkpt lat="42.8209" lon="2.95255">
        <ele>1.8</ele>
        <time>1970-01-01T00:42:24Z</time>
      </trkpt>
      <trkpt lat="42.82093" lon="2.9525">
        <ele>1.8</ele>
        <time>1970-01-01T00:42:25Z</time>
      </trkpt>
      <trkpt lat="42.82096" lon="2.95246">
        <ele>1.6</ele>
        <time>1970-01-01T00:42:26Z</time>
      </trkpt>
      <trkpt lat="42.82098" lon="2.9524">
        <ele>1.6</ele>
        <time>1970-01-01T00:42:27Z</time>
      </trkpt>
      <trkpt lat="42.821" lon="2.95236">
        <ele>1.6</ele>
        <time>1970-01-01T00:42:28Z</time>
      </trkpt>
      <trkpt lat="42.82102" lon="2.95231">
        <ele>1.6</ele>
        <time>1970-01-01T00:42:29Z</time>
      </trkpt>
      <trkpt lat="42.82104" lon="2.95226">
        <ele>1.6</ele>
        <time>1970-01-01T00:42:30Z</time>
      </trkpt>
      <trkpt lat="42.82106" lon="2.95222">
        <ele>1.6</ele>
        <time>1970-01-01T00:42:31Z</time>
      </trkpt>
      <trkpt lat="42.82108" lon="2.95218">
        <ele>1.6</ele>
        <time>1970-01-01T00:42:32Z</time>
      </trkpt>
      <trkpt lat="42.8211" lon="2.95213">
        <ele>1.6</ele>
        <time>1970-01-01T00:42:33Z</time>
      </trkpt>
      <trkpt lat="42.82112" lon="2.95209">
        <ele>1.6</ele>
        <time>1970-01-01T00:42:34Z</time>
      </trkpt>
      <trkpt lat="42.82114" lon="2.95204">
        <ele>1.6</ele>
        <time>1970-01-01T00:42:35Z</time>
      </trkpt>
      <trkpt lat="42.82116" lon="2.95199">
        <ele>1.6</ele>
        <time>1970-01-01T00:42:36Z</time>
      </trkpt>
      <trkpt lat="42.82118" lon="2.95195">
        <ele>1.8</ele>
        <time>1970-01-01T00:42:37Z</time>
      </trkpt>
      <trkpt lat="42.82119" lon="2.95191">
        <ele>1.8</ele>
        <time>1970-01-01T00:42:38Z</time>
      </trkpt>
      <trkpt lat="42.82121" lon="2.95187">
        <ele>1.8</ele>
        <time>1970-01-01T00:42:39Z</time>
      </trkpt>
      <trkpt lat="42.82123" lon="2.95183">
        <ele>1.8</ele>
        <time>1970-01-01T00:42:40Z</time>
      </trkpt>
      <trkpt lat="42.82124" lon="2.95179">
        <ele>1.8</ele>
        <time>1970-01-01T00:42:41Z</time>
      </trkpt>
      <trkpt lat="42.82126" lon="2.95175">
        <ele>1.8</ele>
        <time>1970-01-01T00:42:42Z</time>
      </trkpt>
      <trkpt lat="42.82128" lon="2.95171">
        <ele>1.8</ele>
        <time>1970-01-01T00:42:43Z</time>
      </trkpt>
      <trkpt lat="42.8213" lon="2.95166">
        <ele>1.8</ele>
        <time>1970-01-01T00:42:44Z</time>
      </trkpt>
      <trkpt lat="42.82132" lon="2.95162">
        <ele>1.8</ele>
        <time>1970-01-01T00:42:45Z</time>
      </trkpt>
      <trkpt lat="42.82133" lon="2.95158">
        <ele>1.8</ele>
        <time>1970-01-01T00:42:46Z</time>
      </trkpt>
      <trkpt lat="42.82135" lon="2.95154">
        <ele>2</ele>
        <time>1970-01-01T00:42:47Z</time>
      </trkpt>
      <trkpt lat="42.82137" lon="2.95149">
        <ele>2</ele>
        <time>1970-01-01T00:42:48Z</time>
      </trkpt>
      <trkpt lat="42.82139" lon="2.95145">
        <ele>1.8</ele>
        <time>1970-01-01T00:42:49Z</time>
      </trkpt>
      <trkpt lat="42.8214" lon="2.95141">
        <ele>1.8</ele>
        <time>1970-01-01T00:42:50Z</time>
      </trkpt>
      <trkpt lat="42.82142" lon="2.95137">
        <ele>1.8</ele>
        <time>1970-01-01T00:42:51Z</time>
      </trkpt>
      <trkpt lat="42.82144" lon="2.95133">
        <ele>1.8</ele>
        <time>1970-01-01T00:42:52Z</time>
      </trkpt>
      <trkpt lat="42.82146" lon="2.95129">
        <ele>1.8</ele>
        <time>1970-01-01T00:42:53Z</time>
      </trkpt>
      <trkpt lat="42.82148" lon="2.95125">
        <ele>1.8</ele>
        <time>1970-01-01T00:42:54Z</time>
      </trkpt>
      <trkpt lat="42.8215" lon="2.9512">
        <ele>1.8</ele>
        <time>1970-01-01T00:42:55Z</time>
      </trkpt>
      <trkpt lat="42.82152" lon="2.95116">
        <ele>1.8</ele>
        <time>1970-01-01T00:42:56Z</time>
      </trkpt>
      <trkpt lat="42.82154" lon="2.95111">
        <ele>1.8</ele>
        <time>1970-01-01T00:42:57Z</time>
      </trkpt>
      <trkpt lat="42.82156" lon="2.95106">
        <ele>1.8</ele>
        <time>1970-01-01T00:42:58Z</time>
      </trkpt>
      <trkpt lat="42.82157" lon="2.95101">
        <ele>1.8</ele>
        <time>1970-01-01T00:42:59Z</time>
      </trkpt>
      <trkpt lat="42.82159" lon="2.95097">
        <ele>1.8</ele>
        <time>1970-01-01T00:43:00Z</time>
      </trkpt>
      <trkpt lat="42.82161" lon="2.95092">
        <ele>1.8</ele>
        <time>1970-01-01T00:43:01Z</time>
      </trkpt>
      <trkpt lat="42.82162" lon="2.95088">
        <ele>1.8</ele>
        <time>1970-01-01T00:43:02Z</time>
      </trkpt>
      <trkpt lat="42.82164" lon="2.95083">
        <ele>1.8</ele>
        <time>1970-01-01T00:43:03Z</time>
      </trkpt>
      <trkpt lat="42.82165" lon="2.95079">
        <ele>1.8</ele>
        <time>1970-01-01T00:43:04Z</time>
      </trkpt>
      <trkpt lat="42.82167" lon="2.95074">
        <ele>1.8</ele>
        <time>1970-01-01T00:43:05Z</time>
      </trkpt>
      <trkpt lat="42.82169" lon="2.9507">
        <ele>1.8</ele>
        <time>1970-01-01T00:43:06Z</time>
      </trkpt>
      <trkpt lat="42.82171" lon="2.95066">
        <ele>1.8</ele>
        <time>1970-01-01T00:43:07Z</time>
      </trkpt>
      <trkpt lat="42.82172" lon="2.95062">
        <ele>1.8</ele>
        <time>1970-01-01T00:43:08Z</time>
      </trkpt>
      <trkpt lat="42.82174" lon="2.95058">
        <ele>1.8</ele>
        <time>1970-01-01T00:43:09Z</time>
      </trkpt>
      <trkpt lat="42.82175" lon="2.95054">
        <ele>2</ele>
        <time>1970-01-01T00:43:10Z</time>
      </trkpt>
      <trkpt lat="42.82177" lon="2.9505">
        <ele>2</ele>
        <time>1970-01-01T00:43:11Z</time>
      </trkpt>
      <trkpt lat="42.82178" lon="2.95046">
        <ele>2</ele>
        <time>1970-01-01T00:43:12Z</time>
      </trkpt>
      <trkpt lat="42.8218" lon="2.95043">
        <ele>2.2</ele>
        <time>1970-01-01T00:43:13Z</time>
      </trkpt>
      <trkpt lat="42.82182" lon="2.95038">
        <ele>2.2</ele>
        <time>1970-01-01T00:43:14Z</time>
      </trkpt>
      <trkpt lat="42.82183" lon="2.95037">
        <ele>2.2</ele>
        <time>1970-01-01T00:43:15Z</time>
      </trkpt>
      <trkpt lat="42.82184" lon="2.95032">
        <ele>2.4</ele>
        <time>1970-01-01T00:43:16Z</time>
      </trkpt>
      <trkpt lat="42.82185" lon="2.95031">
        <ele>2.4</ele>
        <time>1970-01-01T00:43:17Z</time>
      </trkpt>
      <trkpt lat="42.82187" lon="2.95027">
        <ele>2.4</ele>
        <time>1970-01-01T00:43:18Z</time>
      </trkpt>
      <trkpt lat="42.82188" lon="2.95026">
        <ele>2.4</ele>
        <time>1970-01-01T00:43:19Z</time>
      </trkpt>
      <trkpt lat="42.82191" lon="2.95025">
        <ele>2.6</ele>
        <time>1970-01-01T00:43:20Z</time>
      </trkpt>
      <trkpt lat="42.82193" lon="2.95025">
        <ele>2.6</ele>
        <time>1970-01-01T00:43:21Z</time>
      </trkpt>
      <trkpt lat="42.82195" lon="2.95026">
        <ele>2.6</ele>
        <time>1970-01-01T00:43:22Z</time>
      </trkpt>
      <trkpt lat="42.82198" lon="2.95027">
        <ele>2.6</ele>
        <time>1970-01-01T00:43:23Z</time>
      </trkpt>
      <trkpt lat="42.82201" lon="2.95028">
        <ele>2.6</ele>
        <time>1970-01-01T00:43:24Z</time>
      </trkpt>
      <trkpt lat="42.82204" lon="2.95029">
        <ele>2.6</ele>
        <time>1970-01-01T00:43:25Z</time>
      </trkpt>
      <trkpt lat="42.82208" lon="2.9503">
        <ele>2.6</ele>
        <time>1970-01-01T00:43:26Z</time>
      </trkpt>
      <trkpt lat="42.82211" lon="2.95031">
        <ele>2.6</ele>
        <time>1970-01-01T00:43:27Z</time>
      </trkpt>
      <trkpt lat="42.82214" lon="2.95031">
        <ele>2.6</ele>
        <time>1970-01-01T00:43:28Z</time>
      </trkpt>
      <trkpt lat="42.82217" lon="2.95031">
        <ele>2.6</ele>
        <time>1970-01-01T00:43:29Z</time>
      </trkpt>
      <trkpt lat="42.8222" lon="2.95031">
        <ele>2.6</ele>
        <time>1970-01-01T00:43:30Z</time>
      </trkpt>
      <trkpt lat="42.82224" lon="2.95031">
        <ele>2.6</ele>
        <time>1970-01-01T00:43:31Z</time>
      </trkpt>
      <trkpt lat="42.82227" lon="2.95031">
        <ele>2.6</ele>
        <time>1970-01-01T00:43:32Z</time>
      </trkpt>
      <trkpt lat="42.82231" lon="2.95031">
        <ele>2.8</ele>
        <time>1970-01-01T00:43:33Z</time>
      </trkpt>
      <trkpt lat="42.82234" lon="2.95031">
        <ele>2.8</ele>
        <time>1970-01-01T00:43:34Z</time>
      </trkpt>
      <trkpt lat="42.82238" lon="2.9503">
        <ele>2.8</ele>
        <time>1970-01-01T00:43:35Z</time>
      </trkpt>
      <trkpt lat="42.82242" lon="2.9503">
        <ele>2.8</ele>
        <time>1970-01-01T00:43:36Z</time>
      </trkpt>
      <trkpt lat="42.82246" lon="2.95029">
        <ele>2.8</ele>
        <time>1970-01-01T00:43:37Z</time>
      </trkpt>
      <trkpt lat="42.82249" lon="2.95029">
        <ele>3</ele>
        <time>1970-01-01T00:43:38Z</time>
      </trkpt>
      <trkpt lat="42.82253" lon="2.95028">
        <ele>3</ele>
        <time>1970-01-01T00:43:39Z</time>
      </trkpt>
      <trkpt lat="42.82257" lon="2.95028">
        <ele>3</ele>
        <time>1970-01-01T00:43:40Z</time>
      </trkpt>
      <trkpt lat="42.8226" lon="2.95027">
        <ele>3</ele>
        <time>1970-01-01T00:43:41Z</time>
      </trkpt>
      <trkpt lat="42.82264" lon="2.95026">
        <ele>3</ele>
        <time>1970-01-01T00:43:42Z</time>
      </trkpt>
      <trkpt lat="42.82267" lon="2.95024">
        <ele>3</ele>
        <time>1970-01-01T00:43:43Z</time>
      </trkpt>
      <trkpt lat="42.8227" lon="2.95021">
        <ele>3</ele>
        <time>1970-01-01T00:43:44Z</time>
      </trkpt>
      <trkpt lat="42.82272" lon="2.95017">
        <ele>3</ele>
        <time>1970-01-01T00:43:45Z</time>
      </trkpt>
      <trkpt lat="42.82274" lon="2.95013">
        <ele>3</ele>
        <time>1970-01-01T00:43:46Z</time>
      </trkpt>
      <trkpt lat="42.82276" lon="2.95009">
        <ele>3.2</ele>
        <time>1970-01-01T00:43:47Z</time>
      </trkpt>
      <trkpt lat="42.82277" lon="2.95004">
        <ele>3.2</ele>
        <time>1970-01-01T00:43:48Z</time>
      </trkpt>
      <trkpt lat="42.82279" lon="2.94999">
        <ele>3.2</ele>
        <time>1970-01-01T00:43:49Z</time>
      </trkpt>
      <trkpt lat="42.8228" lon="2.94993">
        <ele>3.2</ele>
        <time>1970-01-01T00:43:50Z</time>
      </trkpt>
      <trkpt lat="42.82282" lon="2.94989">
        <ele>3.2</ele>
        <time>1970-01-01T00:43:51Z</time>
      </trkpt>
      <trkpt lat="42.82283" lon="2.94983">
        <ele>3.2</ele>
        <time>1970-01-01T00:43:52Z</time>
      </trkpt>
      <trkpt lat="42.82285" lon="2.94978">
        <ele>3.4</ele>
        <time>1970-01-01T00:43:53Z</time>
      </trkpt>
      <trkpt lat="42.82287" lon="2.94971">
        <ele>3.4</ele>
        <time>1970-01-01T00:43:54Z</time>
      </trkpt>
      <trkpt lat="42.82289" lon="2.94964">
        <ele>3.4</ele>
        <time>1970-01-01T00:43:55Z</time>
      </trkpt>
      <trkpt lat="42.8229" lon="2.94956">
        <ele>3.4</ele>
        <time>1970-01-01T00:43:56Z</time>
      </trkpt>
      <trkpt lat="42.82292" lon="2.9495">
        <ele>3.4</ele>
        <time>1970-01-01T00:43:57Z</time>
      </trkpt>
      <trkpt lat="42.82293" lon="2.94944">
        <ele>3.4</ele>
        <time>1970-01-01T00:43:58Z</time>
      </trkpt>
      <trkpt lat="42.82294" lon="2.94938">
        <ele>3.6</ele>
        <time>1970-01-01T00:43:59Z</time>
      </trkpt>
      <trkpt lat="42.82295" lon="2.94932">
        <ele>3.6</ele>
        <time>1970-01-01T00:44:00Z</time>
      </trkpt>
      <trkpt lat="42.82296" lon="2.94926">
        <ele>3.6</ele>
        <time>1970-01-01T00:44:01Z</time>
      </trkpt>
      <trkpt lat="42.82297" lon="2.94922">
        <ele>3.6</ele>
        <time>1970-01-01T00:44:02Z</time>
      </trkpt>
      <trkpt lat="42.82299" lon="2.94917">
        <ele>3.6</ele>
        <time>1970-01-01T00:44:03Z</time>
      </trkpt>
      <trkpt lat="42.823" lon="2.94913">
        <ele>3.6</ele>
        <time>1970-01-01T00:44:04Z</time>
      </trkpt>
      <trkpt lat="42.82302" lon="2.94909">
        <ele>3.6</ele>
        <time>1970-01-01T00:44:05Z</time>
      </trkpt>
      <trkpt lat="42.82304" lon="2.94905">
        <ele>3.6</ele>
        <time>1970-01-01T00:44:06Z</time>
      </trkpt>
      <trkpt lat="42.82306" lon="2.94901">
        <ele>3.6</ele>
        <time>1970-01-01T00:44:07Z</time>
      </trkpt>
      <trkpt lat="42.82309" lon="2.94898">
        <ele>3.6</ele>
        <time>1970-01-01T00:44:08Z</time>
      </trkpt>
      <trkpt lat="42.82311" lon="2.94894">
        <ele>3.6</ele>
        <time>1970-01-01T00:44:09Z</time>
      </trkpt>
      <trkpt lat="42.82314" lon="2.94891">
        <ele>3.6</ele>
        <time>1970-01-01T00:44:10Z</time>
      </trkpt>
      <trkpt lat="42.82317" lon="2.94887">
        <ele>3.6</ele>
        <time>1970-01-01T00:44:11Z</time>
      </trkpt>
      <trkpt lat="42.82319" lon="2.94883">
        <ele>3.6</ele>
        <time>1970-01-01T00:44:12Z</time>
      </trkpt>
      <trkpt lat="42.82321" lon="2.94878">
        <ele>3.6</ele>
        <time>1970-01-01T00:44:13Z</time>
      </trkpt>
      <trkpt lat="42.82323" lon="2.94873">
        <ele>3.6</ele>
        <time>1970-01-01T00:44:14Z</time>
      </trkpt>
      <trkpt lat="42.82325" lon="2.94868">
        <ele>3.6</ele>
        <time>1970-01-01T00:44:15Z</time>
      </trkpt>
      <trkpt lat="42.82326" lon="2.94863">
        <ele>3.6</ele>
        <time>1970-01-01T00:44:16Z</time>
      </trkpt>
      <trkpt lat="42.82327" lon="2.94858">
        <ele>3.6</ele>
        <time>1970-01-01T00:44:17Z</time>
      </trkpt>
      <trkpt lat="42.82328" lon="2.94853">
        <ele>3.6</ele>
        <time>1970-01-01T00:44:18Z</time>
      </trkpt>
      <trkpt lat="42.82329" lon="2.94848">
        <ele>3.6</ele>
        <time>1970-01-01T00:44:19Z</time>
      </trkpt>
      <trkpt lat="42.8233" lon="2.94844">
        <ele>3.6</ele>
        <time>1970-01-01T00:44:20Z</time>
      </trkpt>
      <trkpt lat="42.82332" lon="2.94839">
        <ele>3.4</ele>
        <time>1970-01-01T00:44:21Z</time>
      </trkpt>
      <trkpt lat="42.82334" lon="2.94834">
        <ele>3.4</ele>
        <time>1970-01-01T00:44:22Z</time>
      </trkpt>
      <trkpt lat="42.82336" lon="2.94829">
        <ele>3.4</ele>
        <time>1970-01-01T00:44:23Z</time>
      </trkpt>
      <trkpt lat="42.82338" lon="2.94824">
        <ele>3.4</ele>
        <time>1970-01-01T00:44:24Z</time>
      </trkpt>
      <trkpt lat="42.8234" lon="2.94819">
        <ele>3.4</ele>
        <time>1970-01-01T00:44:25Z</time>
      </trkpt>
      <trkpt lat="42.82342" lon="2.94813">
        <ele>3.4</ele>
        <time>1970-01-01T00:44:26Z</time>
      </trkpt>
      <trkpt lat="42.82344" lon="2.94808">
        <ele>3.2</ele>
        <time>1970-01-01T00:44:27Z</time>
      </trkpt>
      <trkpt lat="42.82346" lon="2.94802">
        <ele>3.2</ele>
        <time>1970-01-01T00:44:28Z</time>
      </trkpt>
      <trkpt lat="42.82348" lon="2.94797">
        <ele>3.2</ele>
        <time>1970-01-01T00:44:29Z</time>
      </trkpt>
      <trkpt lat="42.8235" lon="2.94792">
        <ele>3.2</ele>
        <time>1970-01-01T00:44:30Z</time>
      </trkpt>
      <trkpt lat="42.82352" lon="2.94786">
        <ele>3</ele>
        <time>1970-01-01T00:44:31Z</time>
      </trkpt>
      <trkpt lat="42.82354" lon="2.94781">
        <ele>3</ele>
        <time>1970-01-01T00:44:32Z</time>
      </trkpt>
      <trkpt lat="42.82356" lon="2.94776">
        <ele>3</ele>
        <time>1970-01-01T00:44:33Z</time>
      </trkpt>
      <trkpt lat="42.82358" lon="2.9477">
        <ele>3</ele>
        <time>1970-01-01T00:44:34Z</time>
      </trkpt>
      <trkpt lat="42.8236" lon="2.94765">
        <ele>3</ele>
        <time>1970-01-01T00:44:35Z</time>
      </trkpt>
      <trkpt lat="42.82362" lon="2.9476">
        <ele>3</ele>
        <time>1970-01-01T00:44:36Z</time>
      </trkpt>
      <trkpt lat="42.82364" lon="2.94755">
        <ele>3</ele>
        <time>1970-01-01T00:44:37Z</time>
      </trkpt>
      <trkpt lat="42.82366" lon="2.94749">
        <ele>3</ele>
        <time>1970-01-01T00:44:38Z</time>
      </trkpt>
      <trkpt lat="42.82367" lon="2.94743">
        <ele>2.8</ele>
        <time>1970-01-01T00:44:39Z</time>
      </trkpt>
      <trkpt lat="42.82368" lon="2.94737">
        <ele>2.8</ele>
        <time>1970-01-01T00:44:40Z</time>
      </trkpt>
      <trkpt lat="42.82369" lon="2.94732">
        <ele>2.8</ele>
        <time>1970-01-01T00:44:41Z</time>
      </trkpt>
      <trkpt lat="42.8237" lon="2.94726">
        <ele>2.8</ele>
        <time>1970-01-01T00:44:42Z</time>
      </trkpt>
      <trkpt lat="42.82371" lon="2.94721">
        <ele>2.8</ele>
        <time>1970-01-01T00:44:43Z</time>
      </trkpt>
      <trkpt lat="42.82371" lon="2.94715">
        <ele>2.8</ele>
        <time>1970-01-01T00:44:44Z</time>
      </trkpt>
      <trkpt lat="42.82372" lon="2.9471">
        <ele>2.8</ele>
        <time>1970-01-01T00:44:45Z</time>
      </trkpt>
      <trkpt lat="42.82372" lon="2.94705">
        <ele>2.8</ele>
        <time>1970-01-01T00:44:46Z</time>
      </trkpt>
      <trkpt lat="42.82373" lon="2.94699">
        <ele>2.8</ele>
        <time>1970-01-01T00:44:47Z</time>
      </trkpt>
      <trkpt lat="42.82373" lon="2.94694">
        <ele>2.8</ele>
        <time>1970-01-01T00:44:48Z</time>
      </trkpt>
      <trkpt lat="42.82373" lon="2.94688">
        <ele>2.8</ele>
        <time>1970-01-01T00:44:49Z</time>
      </trkpt>
      <trkpt lat="42.82373" lon="2.94683">
        <ele>2.8</ele>
        <time>1970-01-01T00:44:50Z</time>
      </trkpt>
      <trkpt lat="42.82373" lon="2.94678">
        <ele>2.8</ele>
        <time>1970-01-01T00:44:51Z</time>
      </trkpt>
      <trkpt lat="42.82373" lon="2.94673">
        <ele>2.8</ele>
        <time>1970-01-01T00:44:52Z</time>
      </trkpt>
      <trkpt lat="42.82373" lon="2.94668">
        <ele>2.8</ele>
        <time>1970-01-01T00:44:53Z</time>
      </trkpt>
      <trkpt lat="42.82373" lon="2.94663">
        <ele>2.8</ele>
        <time>1970-01-01T00:44:54Z</time>
      </trkpt>
      <trkpt lat="42.82373" lon="2.94658">
        <ele>2.8</ele>
        <time>1970-01-01T00:44:55Z</time>
      </trkpt>
      <trkpt lat="42.82373" lon="2.94653">
        <ele>2.8</ele>
        <time>1970-01-01T00:44:56Z</time>
      </trkpt>
      <trkpt lat="42.82373" lon="2.94648">
        <ele>2.8</ele>
        <time>1970-01-01T00:44:57Z</time>
      </trkpt>
      <trkpt lat="42.82373" lon="2.94643">
        <ele>2.8</ele>
        <time>1970-01-01T00:44:58Z</time>
      </trkpt>
      <trkpt lat="42.82373" lon="2.94637">
        <ele>2.8</ele>
        <time>1970-01-01T00:44:59Z</time>
      </trkpt>
      <trkpt lat="42.82373" lon="2.94632">
        <ele>2.8</ele>
        <time>1970-01-01T00:45:00Z</time>
      </trkpt>
      <trkpt lat="42.82373" lon="2.94627">
        <ele>2.8</ele>
        <time>1970-01-01T00:45:01Z</time>
      </trkpt>
      <trkpt lat="42.82372" lon="2.94622">
        <ele>2.8</ele>
        <time>1970-01-01T00:45:02Z</time>
      </trkpt>
      <trkpt lat="42.82372" lon="2.94617">
        <ele>2.8</ele>
        <time>1970-01-01T00:45:03Z</time>
      </trkpt>
      <trkpt lat="42.82372" lon="2.94611">
        <ele>2.8</ele>
        <time>1970-01-01T00:45:04Z</time>
      </trkpt>
      <trkpt lat="42.82372" lon="2.94606">
        <ele>2.8</ele>
        <time>1970-01-01T00:45:05Z</time>
      </trkpt>
      <trkpt lat="42.82371" lon="2.94601">
        <ele>2.8</ele>
        <time>1970-01-01T00:45:06Z</time>
      </trkpt>
      <trkpt lat="42.82371" lon="2.94595">
        <ele>2.8</ele>
        <time>1970-01-01T00:45:07Z</time>
      </trkpt>
      <trkpt lat="42.82371" lon="2.9459">
        <ele>2.8</ele>
        <time>1970-01-01T00:45:08Z</time>
      </trkpt>
      <trkpt lat="42.82371" lon="2.94584">
        <ele>2.8</ele>
        <time>1970-01-01T00:45:09Z</time>
      </trkpt>
      <trkpt lat="42.8237" lon="2.94578">
        <ele>2.8</ele>
        <time>1970-01-01T00:45:10Z</time>
      </trkpt>
      <trkpt lat="42.8237" lon="2.94573">
        <ele>3</ele>
        <time>1970-01-01T00:45:11Z</time>
      </trkpt>
      <trkpt lat="42.82369" lon="2.94567">
        <ele>3</ele>
        <time>1970-01-01T00:45:12Z</time>
      </trkpt>
      <trkpt lat="42.82369" lon="2.94562">
        <ele>3</ele>
        <time>1970-01-01T00:45:13Z</time>
      </trkpt>
      <trkpt lat="42.82369" lon="2.94557">
        <ele>3</ele>
        <time>1970-01-01T00:45:14Z</time>
      </trkpt>
      <trkpt lat="42.82369" lon="2.94552">
        <ele>3</ele>
        <time>1970-01-01T00:45:15Z</time>
      </trkpt>
      <trkpt lat="42.82368" lon="2.94548">
        <ele>3</ele>
        <time>1970-01-01T00:45:16Z</time>
      </trkpt>
      <trkpt lat="42.82368" lon="2.94543">
        <ele>3</ele>
        <time>1970-01-01T00:45:17Z</time>
      </trkpt>
      <trkpt lat="42.82367" lon="2.94538">
        <ele>3</ele>
        <time>1970-01-01T00:45:18Z</time>
      </trkpt>
      <trkpt lat="42.82367" lon="2.94534">
        <ele>3</ele>
        <time>1970-01-01T00:45:19Z</time>
      </trkpt>
      <trkpt lat="42.82366" lon="2.94529">
        <ele>3</ele>
        <time>1970-01-01T00:45:20Z</time>
      </trkpt>
      <trkpt lat="42.82366" lon="2.94523">
        <ele>3</ele>
        <time>1970-01-01T00:45:21Z</time>
      </trkpt>
      <trkpt lat="42.82365" lon="2.94518">
        <ele>3</ele>
        <time>1970-01-01T00:45:22Z</time>
      </trkpt>
      <trkpt lat="42.82364" lon="2.94513">
        <ele>3</ele>
        <time>1970-01-01T00:45:23Z</time>
      </trkpt>
      <trkpt lat="42.82364" lon="2.94507">
        <ele>3</ele>
        <time>1970-01-01T00:45:24Z</time>
      </trkpt>
      <trkpt lat="42.82363" lon="2.94502">
        <ele>3</ele>
        <time>1970-01-01T00:45:25Z</time>
      </trkpt>
      <trkpt lat="42.82362" lon="2.94498">
        <ele>3</ele>
        <time>1970-01-01T00:45:26Z</time>
      </trkpt>
      <trkpt lat="42.82361" lon="2.94493">
        <ele>3</ele>
        <time>1970-01-01T00:45:27Z</time>
      </trkpt>
      <trkpt lat="42.8236" lon="2.94489">
        <ele>3</ele>
        <time>1970-01-01T00:45:28Z</time>
      </trkpt>
      <trkpt lat="42.82359" lon="2.94485">
        <ele>3</ele>
        <time>1970-01-01T00:45:29Z</time>
      </trkpt>
      <trkpt lat="42.82358" lon="2.9448">
        <ele>3</ele>
        <time>1970-01-01T00:45:30Z</time>
      </trkpt>
      <trkpt lat="42.82356" lon="2.94476">
        <ele>3</ele>
        <time>1970-01-01T00:45:31Z</time>
      </trkpt>
      <trkpt lat="42.82355" lon="2.94472">
        <ele>3</ele>
        <time>1970-01-01T00:45:32Z</time>
      </trkpt>
      <trkpt lat="42.82353" lon="2.94467">
        <ele>3</ele>
        <time>1970-01-01T00:45:33Z</time>
      </trkpt>
      <trkpt lat="42.82352" lon="2.94463">
        <ele>3</ele>
        <time>1970-01-01T00:45:34Z</time>
      </trkpt>
      <trkpt lat="42.8235" lon="2.94458">
        <ele>3</ele>
        <time>1970-01-01T00:45:35Z</time>
      </trkpt>
      <trkpt lat="42.82349" lon="2.94454">
        <ele>3</ele>
        <time>1970-01-01T00:45:36Z</time>
      </trkpt>
      <trkpt lat="42.82347" lon="2.94449">
        <ele>3</ele>
        <time>1970-01-01T00:45:37Z</time>
      </trkpt>
      <trkpt lat="42.82346" lon="2.94445">
        <ele>3</ele>
        <time>1970-01-01T00:45:38Z</time>
      </trkpt>
      <trkpt lat="42.82344" lon="2.9444">
        <ele>3</ele>
        <time>1970-01-01T00:45:39Z</time>
      </trkpt>
      <trkpt lat="42.82343" lon="2.94436">
        <ele>3</ele>
        <time>1970-01-01T00:45:40Z</time>
      </trkpt>
      <trkpt lat="42.82341" lon="2.94431">
        <ele>3</ele>
        <time>1970-01-01T00:45:41Z</time>
      </trkpt>
      <trkpt lat="42.8234" lon="2.94427">
        <ele>3</ele>
        <time>1970-01-01T00:45:42Z</time>
      </trkpt>
      <trkpt lat="42.82338" lon="2.94422">
        <ele>3</ele>
        <time>1970-01-01T00:45:43Z</time>
      </trkpt>
      <trkpt lat="42.82336" lon="2.94417">
        <ele>3</ele>
        <time>1970-01-01T00:45:44Z</time>
      </trkpt>
      <trkpt lat="42.82335" lon="2.94413">
        <ele>3</ele>
        <time>1970-01-01T00:45:45Z</time>
      </trkpt>
      <trkpt lat="42.82333" lon="2.94408">
        <ele>3</ele>
        <time>1970-01-01T00:45:46Z</time>
      </trkpt>
      <trkpt lat="42.82331" lon="2.94403">
        <ele>3</ele>
        <time>1970-01-01T00:45:47Z</time>
      </trkpt>
      <trkpt lat="42.8233" lon="2.94398">
        <ele>3</ele>
        <time>1970-01-01T00:45:48Z</time>
      </trkpt>
      <trkpt lat="42.82328" lon="2.94393">
        <ele>3</ele>
        <time>1970-01-01T00:45:49Z</time>
      </trkpt>
      <trkpt lat="42.82326" lon="2.94388">
        <ele>3.2</ele>
        <time>1970-01-01T00:45:50Z</time>
      </trkpt>
      <trkpt lat="42.82325" lon="2.94383">
        <ele>3.2</ele>
        <time>1970-01-01T00:45:51Z</time>
      </trkpt>
      <trkpt lat="42.82324" lon="2.94379">
        <ele>3.2</ele>
        <time>1970-01-01T00:45:52Z</time>
      </trkpt>
      <trkpt lat="42.82322" lon="2.94374">
        <ele>3.2</ele>
        <time>1970-01-01T00:45:53Z</time>
      </trkpt>
      <trkpt lat="42.82321" lon="2.94369">
        <ele>3.2</ele>
        <time>1970-01-01T00:45:54Z</time>
      </trkpt>
      <trkpt lat="42.8232" lon="2.94364">
        <ele>3.2</ele>
        <time>1970-01-01T00:45:55Z</time>
      </trkpt>
      <trkpt lat="42.82319" lon="2.94359">
        <ele>3.2</ele>
        <time>1970-01-01T00:45:56Z</time>
      </trkpt>
      <trkpt lat="42.82317" lon="2.94354">
        <ele>3.2</ele>
        <time>1970-01-01T00:45:57Z</time>
      </trkpt>
      <trkpt lat="42.82316" lon="2.94349">
        <ele>3.2</ele>
        <time>1970-01-01T00:45:58Z</time>
      </trkpt>
      <trkpt lat="42.82315" lon="2.94344">
        <ele>3.4</ele>
        <time>1970-01-01T00:45:59Z</time>
      </trkpt>
      <trkpt lat="42.82314" lon="2.94339">
        <ele>3.4</ele>
        <time>1970-01-01T00:46:00Z</time>
      </trkpt>
      <trkpt lat="42.82313" lon="2.94334">
        <ele>3.4</ele>
        <time>1970-01-01T00:46:01Z</time>
      </trkpt>
      <trkpt lat="42.82312" lon="2.94329">
        <ele>3.4</ele>
        <time>1970-01-01T00:46:02Z</time>
      </trkpt>
      <trkpt lat="42.8231" lon="2.94324">
        <ele>3.4</ele>
        <time>1970-01-01T00:46:03Z</time>
      </trkpt>
      <trkpt lat="42.82309" lon="2.94319">
        <ele>3.4</ele>
        <time>1970-01-01T00:46:04Z</time>
      </trkpt>
      <trkpt lat="42.82308" lon="2.94314">
        <ele>3.4</ele>
        <time>1970-01-01T00:46:05Z</time>
      </trkpt>
      <trkpt lat="42.82307" lon="2.94309">
        <ele>3.4</ele>
        <time>1970-01-01T00:46:06Z</time>
      </trkpt>
      <trkpt lat="42.82306" lon="2.94304">
        <ele>3.4</ele>
        <time>1970-01-01T00:46:07Z</time>
      </trkpt>
      <trkpt lat="42.82305" lon="2.94299">
        <ele>3.4</ele>
        <time>1970-01-01T00:46:08Z</time>
      </trkpt>
      <trkpt lat="42.82304" lon="2.94294">
        <ele>3.4</ele>
        <time>1970-01-01T00:46:09Z</time>
      </trkpt>
      <trkpt lat="42.82302" lon="2.94288">
        <ele>3.4</ele>
        <time>1970-01-01T00:46:10Z</time>
      </trkpt>
      <trkpt lat="42.82301" lon="2.94283">
        <ele>3.4</ele>
        <time>1970-01-01T00:46:11Z</time>
      </trkpt>
      <trkpt lat="42.823" lon="2.94278">
        <ele>3.4</ele>
        <time>1970-01-01T00:46:12Z</time>
      </trkpt>
      <trkpt lat="42.82299" lon="2.94273">
        <ele>3.4</ele>
        <time>1970-01-01T00:46:13Z</time>
      </trkpt>
      <trkpt lat="42.82298" lon="2.94267">
        <ele>3.4</ele>
        <time>1970-01-01T00:46:14Z</time>
      </trkpt>
      <trkpt lat="42.82296" lon="2.94262">
        <ele>3.4</ele>
        <time>1970-01-01T00:46:15Z</time>
      </trkpt>
      <trkpt lat="42.82295" lon="2.94256">
        <ele>3.4</ele>
        <time>1970-01-01T00:46:16Z</time>
      </trkpt>
      <trkpt lat="42.82294" lon="2.94251">
        <ele>3.6</ele>
        <time>1970-01-01T00:46:17Z</time>
      </trkpt>
      <trkpt lat="42.82293" lon="2.94245">
        <ele>3.6</ele>
        <time>1970-01-01T00:46:18Z</time>
      </trkpt>
      <trkpt lat="42.82291" lon="2.9424">
        <ele>3.6</ele>
        <time>1970-01-01T00:46:19Z</time>
      </trkpt>
      <trkpt lat="42.8229" lon="2.94234">
        <ele>3.6</ele>
        <time>1970-01-01T00:46:20Z</time>
      </trkpt>
      <trkpt lat="42.82289" lon="2.94229">
        <ele>3.6</ele>
        <time>1970-01-01T00:46:21Z</time>
      </trkpt>
      <trkpt lat="42.82288" lon="2.94225">
        <ele>3.6</ele>
        <time>1970-01-01T00:46:22Z</time>
      </trkpt>
      <trkpt lat="42.82287" lon="2.9422">
        <ele>3.6</ele>
        <time>1970-01-01T00:46:23Z</time>
      </trkpt>
      <trkpt lat="42.82285" lon="2.94215">
        <ele>3.6</ele>
        <time>1970-01-01T00:46:24Z</time>
      </trkpt>
      <trkpt lat="42.82284" lon="2.9421">
        <ele>3.6</ele>
        <time>1970-01-01T00:46:25Z</time>
      </trkpt>
      <trkpt lat="42.82283" lon="2.94205">
        <ele>3.6</ele>
        <time>1970-01-01T00:46:26Z</time>
      </trkpt>
      <trkpt lat="42.82282" lon="2.94201">
        <ele>3.6</ele>
        <time>1970-01-01T00:46:27Z</time>
      </trkpt>
      <trkpt lat="42.82281" lon="2.94196">
        <ele>3.6</ele>
        <time>1970-01-01T00:46:28Z</time>
      </trkpt>
      <trkpt lat="42.8228" lon="2.94192">
        <ele>3.6</ele>
        <time>1970-01-01T00:46:29Z</time>
      </trkpt>
      <trkpt lat="42.82279" lon="2.94187">
        <ele>3.6</ele>
        <time>1970-01-01T00:46:30Z</time>
      </trkpt>
      <trkpt lat="42.82278" lon="2.94182">
        <ele>3.6</ele>
        <time>1970-01-01T00:46:31Z</time>
      </trkpt>
      <trkpt lat="42.82276" lon="2.94177">
        <ele>3.6</ele>
        <time>1970-01-01T00:46:32Z</time>
      </trkpt>
      <trkpt lat="42.82275" lon="2.94171">
        <ele>3.8</ele>
        <time>1970-01-01T00:46:33Z</time>
      </trkpt>
      <trkpt lat="42.82274" lon="2.94166">
        <ele>3.8</ele>
        <time>1970-01-01T00:46:34Z</time>
      </trkpt>
      <trkpt lat="42.82273" lon="2.94161">
        <ele>3.8</ele>
        <time>1970-01-01T00:46:35Z</time>
      </trkpt>
      <trkpt lat="42.82272" lon="2.94156">
        <ele>3.8</ele>
        <time>1970-01-01T00:46:36Z</time>
      </trkpt>
      <trkpt lat="42.82271" lon="2.94152">
        <ele>3.8</ele>
        <time>1970-01-01T00:46:37Z</time>
      </trkpt>
      <trkpt lat="42.8227" lon="2.94147">
        <ele>3.8</ele>
        <time>1970-01-01T00:46:38Z</time>
      </trkpt>
      <trkpt lat="42.82269" lon="2.94142">
        <ele>3.8</ele>
        <time>1970-01-01T00:46:39Z</time>
      </trkpt>
      <trkpt lat="42.82267" lon="2.94137">
        <ele>3.8</ele>
        <time>1970-01-01T00:46:40Z</time>
      </trkpt>
      <trkpt lat="42.82266" lon="2.94132">
        <ele>3.8</ele>
        <time>1970-01-01T00:46:41Z</time>
      </trkpt>
      <trkpt lat="42.82265" lon="2.94127">
        <ele>3.8</ele>
        <time>1970-01-01T00:46:42Z</time>
      </trkpt>
      <trkpt lat="42.82264" lon="2.94122">
        <ele>3.8</ele>
        <time>1970-01-01T00:46:43Z</time>
      </trkpt>
      <trkpt lat="42.82263" lon="2.94117">
        <ele>3.8</ele>
        <time>1970-01-01T00:46:44Z</time>
      </trkpt>
      <trkpt lat="42.82262" lon="2.94112">
        <ele>3.6</ele>
        <time>1970-01-01T00:46:45Z</time>
      </trkpt>
      <trkpt lat="42.82261" lon="2.94107">
        <ele>3.6</ele>
        <time>1970-01-01T00:46:46Z</time>
      </trkpt>
      <trkpt lat="42.82259" lon="2.94101">
        <ele>3.6</ele>
        <time>1970-01-01T00:46:47Z</time>
      </trkpt>
      <trkpt lat="42.82258" lon="2.94095">
        <ele>3.4</ele>
        <time>1970-01-01T00:46:48Z</time>
      </trkpt>
      <trkpt lat="42.82257" lon="2.9409">
        <ele>3.4</ele>
        <time>1970-01-01T00:46:49Z</time>
      </trkpt>
      <trkpt lat="42.82256" lon="2.94084">
        <ele>3.2</ele>
        <time>1970-01-01T00:46:50Z</time>
      </trkpt>
      <trkpt lat="42.82254" lon="2.94077">
        <ele>3.2</ele>
        <time>1970-01-01T00:46:51Z</time>
      </trkpt>
      <trkpt lat="42.82253" lon="2.94071">
        <ele>3</ele>
        <time>1970-01-01T00:46:52Z</time>
      </trkpt>
      <trkpt lat="42.82252" lon="2.94064">
        <ele>3</ele>
        <time>1970-01-01T00:46:53Z</time>
      </trkpt>
      <trkpt lat="42.82251" lon="2.94057">
        <ele>2.8</ele>
        <time>1970-01-01T00:46:54Z</time>
      </trkpt>
      <trkpt lat="42.8225" lon="2.9405">
        <ele>2.8</ele>
        <time>1970-01-01T00:46:55Z</time>
      </trkpt>
      <trkpt lat="42.82249" lon="2.94043">
        <ele>2.8</ele>
        <time>1970-01-01T00:46:56Z</time>
      </trkpt>
      <trkpt lat="42.82248" lon="2.94036">
        <ele>2.6</ele>
        <time>1970-01-01T00:46:57Z</time>
      </trkpt>
      <trkpt lat="42.82247" lon="2.9403">
        <ele>2.6</ele>
        <time>1970-01-01T00:46:58Z</time>
      </trkpt>
      <trkpt lat="42.82246" lon="2.94023">
        <ele>2.6</ele>
        <time>1970-01-01T00:46:59Z</time>
      </trkpt>
      <trkpt lat="42.82245" lon="2.94017">
        <ele>2.6</ele>
        <time>1970-01-01T00:47:00Z</time>
      </trkpt>
      <trkpt lat="42.82245" lon="2.94011">
        <ele>2.6</ele>
        <time>1970-01-01T00:47:01Z</time>
      </trkpt>
      <trkpt lat="42.82244" lon="2.94005">
        <ele>2.6</ele>
        <time>1970-01-01T00:47:02Z</time>
      </trkpt>
      <trkpt lat="42.82243" lon="2.93998">
        <ele>2.8</ele>
        <time>1970-01-01T00:47:03Z</time>
      </trkpt>
      <trkpt lat="42.82243" lon="2.93993">
        <ele>2.8</ele>
        <time>1970-01-01T00:47:04Z</time>
      </trkpt>
      <trkpt lat="42.82243" lon="2.93987">
        <ele>2.8</ele>
        <time>1970-01-01T00:47:05Z</time>
      </trkpt>
      <trkpt lat="42.82243" lon="2.93982">
        <ele>2.8</ele>
        <time>1970-01-01T00:47:06Z</time>
      </trkpt>
      <trkpt lat="42.82243" lon="2.93977">
        <ele>2.8</ele>
        <time>1970-01-01T00:47:07Z</time>
      </trkpt>
      <trkpt lat="42.82242" lon="2.93972">
        <ele>2.8</ele>
        <time>1970-01-01T00:47:08Z</time>
      </trkpt>
      <trkpt lat="42.82242" lon="2.93968">
        <ele>2.8</ele>
        <time>1970-01-01T00:47:09Z</time>
      </trkpt>
      <trkpt lat="42.82242" lon="2.93963">
        <ele>2.8</ele>
        <time>1970-01-01T00:47:10Z</time>
      </trkpt>
      <trkpt lat="42.82242" lon="2.93959">
        <ele>2.8</ele>
        <time>1970-01-01T00:47:11Z</time>
      </trkpt>
      <trkpt lat="42.82242" lon="2.93954">
        <ele>2.8</ele>
        <time>1970-01-01T00:47:12Z</time>
      </trkpt>
      <trkpt lat="42.82243" lon="2.93949">
        <ele>3</ele>
        <time>1970-01-01T00:47:13Z</time>
      </trkpt>
      <trkpt lat="42.82243" lon="2.93943">
        <ele>3</ele>
        <time>1970-01-01T00:47:14Z</time>
      </trkpt>
      <trkpt lat="42.82243" lon="2.93938">
        <ele>3</ele>
        <time>1970-01-01T00:47:15Z</time>
      </trkpt>
      <trkpt lat="42.82243" lon="2.93933">
        <ele>3</ele>
        <time>1970-01-01T00:47:16Z</time>
      </trkpt>
      <trkpt lat="42.82243" lon="2.93928">
        <ele>3.2</ele>
        <time>1970-01-01T00:47:17Z</time>
      </trkpt>
      <trkpt lat="42.82244" lon="2.93923">
        <ele>3.2</ele>
        <time>1970-01-01T00:47:18Z</time>
      </trkpt>
      <trkpt lat="42.82244" lon="2.93918">
        <ele>3.2</ele>
        <time>1970-01-01T00:47:19Z</time>
      </trkpt>
      <trkpt lat="42.82245" lon="2.93912">
        <ele>3.2</ele>
        <time>1970-01-01T00:47:20Z</time>
      </trkpt>
      <trkpt lat="42.82245" lon="2.93907">
        <ele>3.4</ele>
        <time>1970-01-01T00:47:21Z</time>
      </trkpt>
      <trkpt lat="42.82246" lon="2.93902">
        <ele>3.4</ele>
        <time>1970-01-01T00:47:22Z</time>
      </trkpt>
      <trkpt lat="42.82246" lon="2.93897">
        <ele>3.4</ele>
        <time>1970-01-01T00:47:23Z</time>
      </trkpt>
      <trkpt lat="42.82247" lon="2.93891">
        <ele>3.4</ele>
        <time>1970-01-01T00:47:24Z</time>
      </trkpt>
      <trkpt lat="42.82248" lon="2.93886">
        <ele>3.4</ele>
        <time>1970-01-01T00:47:25Z</time>
      </trkpt>
      <trkpt lat="42.82249" lon="2.9388">
        <ele>3.4</ele>
        <time>1970-01-01T00:47:26Z</time>
      </trkpt>
      <trkpt lat="42.82249" lon="2.93874">
        <ele>3.6</ele>
        <time>1970-01-01T00:47:27Z</time>
      </trkpt>
      <trkpt lat="42.8225" lon="2.93869">
        <ele>3.6</ele>
        <time>1970-01-01T00:47:28Z</time>
      </trkpt>
      <trkpt lat="42.82251" lon="2.93863">
        <ele>3.6</ele>
        <time>1970-01-01T00:47:29Z</time>
      </trkpt>
      <trkpt lat="42.82252" lon="2.93858">
        <ele>3.6</ele>
        <time>1970-01-01T00:47:30Z</time>
      </trkpt>
      <trkpt lat="42.82253" lon="2.93852">
        <ele>3.6</ele>
        <time>1970-01-01T00:47:31Z</time>
      </trkpt>
      <trkpt lat="42.82254" lon="2.93846">
        <ele>3.8</ele>
        <time>1970-01-01T00:47:32Z</time>
      </trkpt>
      <trkpt lat="42.82255" lon="2.9384">
        <ele>3.8</ele>
        <time>1970-01-01T00:47:33Z</time>
      </trkpt>
      <trkpt lat="42.82256" lon="2.93835">
        <ele>3.8</ele>
        <time>1970-01-01T00:47:34Z</time>
      </trkpt>
      <trkpt lat="42.82256" lon="2.93829">
        <ele>3.8</ele>
        <time>1970-01-01T00:47:35Z</time>
      </trkpt>
      <trkpt lat="42.82257" lon="2.93823">
        <ele>3.8</ele>
        <time>1970-01-01T00:47:36Z</time>
      </trkpt>
      <trkpt lat="42.82258" lon="2.93817">
        <ele>3.8</ele>
        <time>1970-01-01T00:47:37Z</time>
      </trkpt>
      <trkpt lat="42.82259" lon="2.93812">
        <ele>4</ele>
        <time>1970-01-01T00:47:38Z</time>
      </trkpt>
      <trkpt lat="42.8226" lon="2.93805">
        <ele>4</ele>
        <time>1970-01-01T00:47:39Z</time>
      </trkpt>
      <trkpt lat="42.82262" lon="2.93799">
        <ele>4</ele>
        <time>1970-01-01T00:47:40Z</time>
      </trkpt>
      <trkpt lat="42.82263" lon="2.93793">
        <ele>4</ele>
        <time>1970-01-01T00:47:41Z</time>
      </trkpt>
      <trkpt lat="42.82264" lon="2.93787">
        <ele>4</ele>
        <time>1970-01-01T00:47:42Z</time>
      </trkpt>
      <trkpt lat="42.82265" lon="2.93781">
        <ele>4</ele>
        <time>1970-01-01T00:47:43Z</time>
      </trkpt>
      <trkpt lat="42.82266" lon="2.93775">
        <ele>4</ele>
        <time>1970-01-01T00:47:44Z</time>
      </trkpt>
      <trkpt lat="42.82267" lon="2.93769">
        <ele>4</ele>
        <time>1970-01-01T00:47:45Z</time>
      </trkpt>
      <trkpt lat="42.82268" lon="2.93764">
        <ele>4</ele>
        <time>1970-01-01T00:47:46Z</time>
      </trkpt>
      <trkpt lat="42.82269" lon="2.93758">
        <ele>4</ele>
        <time>1970-01-01T00:47:47Z</time>
      </trkpt>
      <trkpt lat="42.82271" lon="2.93753">
        <ele>4</ele>
        <time>1970-01-01T00:47:48Z</time>
      </trkpt>
      <trkpt lat="42.82273" lon="2.93748">
        <ele>4.2</ele>
        <time>1970-01-01T00:47:49Z</time>
      </trkpt>
      <trkpt lat="42.82274" lon="2.93743">
        <ele>4.2</ele>
        <time>1970-01-01T00:47:50Z</time>
      </trkpt>
      <trkpt lat="42.82277" lon="2.93739">
        <ele>4</ele>
        <time>1970-01-01T00:47:51Z</time>
      </trkpt>
      <trkpt lat="42.82279" lon="2.93734">
        <ele>4</ele>
        <time>1970-01-01T00:47:52Z</time>
      </trkpt>
      <trkpt lat="42.82281" lon="2.93729">
        <ele>4</ele>
        <time>1970-01-01T00:47:53Z</time>
      </trkpt>
      <trkpt lat="42.82284" lon="2.93724">
        <ele>4</ele>
        <time>1970-01-01T00:47:54Z</time>
      </trkpt>
      <trkpt lat="42.82287" lon="2.93719">
        <ele>4</ele>
        <time>1970-01-01T00:47:55Z</time>
      </trkpt>
      <trkpt lat="42.8229" lon="2.93714">
        <ele>4</ele>
        <time>1970-01-01T00:47:56Z</time>
      </trkpt>
      <trkpt lat="42.82294" lon="2.93709">
        <ele>4</ele>
        <time>1970-01-01T00:47:57Z</time>
      </trkpt>
      <trkpt lat="42.82297" lon="2.93705">
        <ele>3.8</ele>
        <time>1970-01-01T00:47:58Z</time>
      </trkpt>
      <trkpt lat="42.823" lon="2.937">
        <ele>3.8</ele>
        <time>1970-01-01T00:47:59Z</time>
      </trkpt>
      <trkpt lat="42.82303" lon="2.93696">
        <ele>3.8</ele>
        <time>1970-01-01T00:48:00Z</time>
      </trkpt>
      <trkpt lat="42.82306" lon="2.93692">
        <ele>3.8</ele>
        <time>1970-01-01T00:48:01Z</time>
      </trkpt>
      <trkpt lat="42.8231" lon="2.93688">
        <ele>3.8</ele>
        <time>1970-01-01T00:48:02Z</time>
      </trkpt>
      <trkpt lat="42.82313" lon="2.93684">
        <ele>3.8</ele>
        <time>1970-01-01T00:48:03Z</time>
      </trkpt>
      <trkpt lat="42.82316" lon="2.9368">
        <ele>3.8</ele>
        <time>1970-01-01T00:48:04Z</time>
      </trkpt>
      <trkpt lat="42.82319" lon="2.93676">
        <ele>3.8</ele>
        <time>1970-01-01T00:48:05Z</time>
      </trkpt>
      <trkpt lat="42.82322" lon="2.93672">
        <ele>3.8</ele>
        <time>1970-01-01T00:48:06Z</time>
      </trkpt>
      <trkpt lat="42.82325" lon="2.93667">
        <ele>3.8</ele>
        <time>1970-01-01T00:48:07Z</time>
      </trkpt>
      <trkpt lat="42.82329" lon="2.93663">
        <ele>3.8</ele>
        <time>1970-01-01T00:48:08Z</time>
      </trkpt>
      <trkpt lat="42.82332" lon="2.93658">
        <ele>3.8</ele>
        <time>1970-01-01T00:48:09Z</time>
      </trkpt>
      <trkpt lat="42.82335" lon="2.93653">
        <ele>3.8</ele>
        <time>1970-01-01T00:48:10Z</time>
      </trkpt>
      <trkpt lat="42.82338" lon="2.93648">
        <ele>3.8</ele>
        <time>1970-01-01T00:48:11Z</time>
      </trkpt>
      <trkpt lat="42.82341" lon="2.93643">
        <ele>3.8</ele>
        <time>1970-01-01T00:48:12Z</time>
      </trkpt>
      <trkpt lat="42.82344" lon="2.93638">
        <ele>3.8</ele>
        <time>1970-01-01T00:48:13Z</time>
      </trkpt>
      <trkpt lat="42.82346" lon="2.93633">
        <ele>3.8</ele>
        <time>1970-01-01T00:48:14Z</time>
      </trkpt>
      <trkpt lat="42.82349" lon="2.93628">
        <ele>3.8</ele>
        <time>1970-01-01T00:48:15Z</time>
      </trkpt>
      <trkpt lat="42.82352" lon="2.93624">
        <ele>3.8</ele>
        <time>1970-01-01T00:48:16Z</time>
      </trkpt>
      <trkpt lat="42.82354" lon="2.93619">
        <ele>3.8</ele>
        <time>1970-01-01T00:48:17Z</time>
      </trkpt>
      <trkpt lat="42.82356" lon="2.93615">
        <ele>3.8</ele>
        <time>1970-01-01T00:48:18Z</time>
      </trkpt>
      <trkpt lat="42.82358" lon="2.9361">
        <ele>3.8</ele>
        <time>1970-01-01T00:48:19Z</time>
      </trkpt>
      <trkpt lat="42.8236" lon="2.93605">
        <ele>3.8</ele>
        <time>1970-01-01T00:48:20Z</time>
      </trkpt>
      <trkpt lat="42.82362" lon="2.93601">
        <ele>3.8</ele>
        <time>1970-01-01T00:48:21Z</time>
      </trkpt>
      <trkpt lat="42.82364" lon="2.93597">
        <ele>3.8</ele>
        <time>1970-01-01T00:48:22Z</time>
      </trkpt>
      <trkpt lat="42.82366" lon="2.93592">
        <ele>3.8</ele>
        <time>1970-01-01T00:48:23Z</time>
      </trkpt>
      <trkpt lat="42.82368" lon="2.93587">
        <ele>3.8</ele>
        <time>1970-01-01T00:48:24Z</time>
      </trkpt>
      <trkpt lat="42.82369" lon="2.93582">
        <ele>3.8</ele>
        <time>1970-01-01T00:48:25Z</time>
      </trkpt>
      <trkpt lat="42.82371" lon="2.93577">
        <ele>3.8</ele>
        <time>1970-01-01T00:48:26Z</time>
      </trkpt>
      <trkpt lat="42.82372" lon="2.93572">
        <ele>3.8</ele>
        <time>1970-01-01T00:48:27Z</time>
      </trkpt>
      <trkpt lat="42.82374" lon="2.93568">
        <ele>3.8</ele>
        <time>1970-01-01T00:48:28Z</time>
      </trkpt>
      <trkpt lat="42.82375" lon="2.93563">
        <ele>3.8</ele>
        <time>1970-01-01T00:48:29Z</time>
      </trkpt>
      <trkpt lat="42.82377" lon="2.93558">
        <ele>3.8</ele>
        <time>1970-01-01T00:48:30Z</time>
      </trkpt>
      <trkpt lat="42.82379" lon="2.93553">
        <ele>3.8</ele>
        <time>1970-01-01T00:48:31Z</time>
      </trkpt>
      <trkpt lat="42.8238" lon="2.93549">
        <ele>3.8</ele>
        <time>1970-01-01T00:48:32Z</time>
      </trkpt>
      <trkpt lat="42.82382" lon="2.93544">
        <ele>3.8</ele>
        <time>1970-01-01T00:48:33Z</time>
      </trkpt>
      <trkpt lat="42.82384" lon="2.93539">
        <ele>3.8</ele>
        <time>1970-01-01T00:48:34Z</time>
      </trkpt>
      <trkpt lat="42.82387" lon="2.93534">
        <ele>3.8</ele>
        <time>1970-01-01T00:48:35Z</time>
      </trkpt>
      <trkpt lat="42.8239" lon="2.93529">
        <ele>3.8</ele>
        <time>1970-01-01T00:48:36Z</time>
      </trkpt>
      <trkpt lat="42.82392" lon="2.93525">
        <ele>3.8</ele>
        <time>1970-01-01T00:48:37Z</time>
      </trkpt>
      <trkpt lat="42.82394" lon="2.9352">
        <ele>3.6</ele>
        <time>1970-01-01T00:48:38Z</time>
      </trkpt>
      <trkpt lat="42.82397" lon="2.93515">
        <ele>3.6</ele>
        <time>1970-01-01T00:48:39Z</time>
      </trkpt>
      <trkpt lat="42.824" lon="2.93511">
        <ele>3.6</ele>
        <time>1970-01-01T00:48:40Z</time>
      </trkpt>
      <trkpt lat="42.82404" lon="2.93506">
        <ele>3.6</ele>
        <time>1970-01-01T00:48:41Z</time>
      </trkpt>
      <trkpt lat="42.82407" lon="2.93502">
        <ele>3.6</ele>
        <time>1970-01-01T00:48:42Z</time>
      </trkpt>
      <trkpt lat="42.82411" lon="2.93498">
        <ele>3.6</ele>
        <time>1970-01-01T00:48:43Z</time>
      </trkpt>
      <trkpt lat="42.82414" lon="2.93494">
        <ele>3.6</ele>
        <time>1970-01-01T00:48:44Z</time>
      </trkpt>
      <trkpt lat="42.82418" lon="2.93491">
        <ele>3.6</ele>
        <time>1970-01-01T00:48:45Z</time>
      </trkpt>
      <trkpt lat="42.82422" lon="2.93488">
        <ele>3.6</ele>
        <time>1970-01-01T00:48:46Z</time>
      </trkpt>
      <trkpt lat="42.82425" lon="2.93486">
        <ele>3.4</ele>
        <time>1970-01-01T00:48:47Z</time>
      </trkpt>
      <trkpt lat="42.82429" lon="2.93483">
        <ele>3.4</ele>
        <time>1970-01-01T00:48:48Z</time>
      </trkpt>
      <trkpt lat="42.82432" lon="2.93481">
        <ele>3.4</ele>
        <time>1970-01-01T00:48:49Z</time>
      </trkpt>
      <trkpt lat="42.82436" lon="2.93478">
        <ele>3.4</ele>
        <time>1970-01-01T00:48:50Z</time>
      </trkpt>
      <trkpt lat="42.82439" lon="2.93476">
        <ele>3.4</ele>
        <time>1970-01-01T00:48:51Z</time>
      </trkpt>
      <trkpt lat="42.82442" lon="2.93474">
        <ele>3.4</ele>
        <time>1970-01-01T00:48:52Z</time>
      </trkpt>
      <trkpt lat="42.82444" lon="2.93472">
        <ele>3.4</ele>
        <time>1970-01-01T00:48:53Z</time>
      </trkpt>
      <trkpt lat="42.82447" lon="2.9347">
        <ele>3.4</ele>
        <time>1970-01-01T00:48:54Z</time>
      </trkpt>
      <trkpt lat="42.8245" lon="2.93468">
        <ele>3.4</ele>
        <time>1970-01-01T00:48:55Z</time>
      </trkpt>
      <trkpt lat="42.82454" lon="2.93466">
        <ele>3.4</ele>
        <time>1970-01-01T00:48:56Z</time>
      </trkpt>
      <trkpt lat="42.82457" lon="2.93464">
        <ele>3.4</ele>
        <time>1970-01-01T00:48:57Z</time>
      </trkpt>
      <trkpt lat="42.8246" lon="2.93462">
        <ele>3.4</ele>
        <time>1970-01-01T00:48:58Z</time>
      </trkpt>
      <trkpt lat="42.82464" lon="2.93459">
        <ele>3.4</ele>
        <time>1970-01-01T00:48:59Z</time>
      </trkpt>
      <trkpt lat="42.82467" lon="2.93457">
        <ele>3.4</ele>
        <time>1970-01-01T00:49:00Z</time>
      </trkpt>
      <trkpt lat="42.8247" lon="2.93455">
        <ele>3.4</ele>
        <time>1970-01-01T00:49:01Z</time>
      </trkpt>
      <trkpt lat="42.82473" lon="2.93453">
        <ele>3.4</ele>
        <time>1970-01-01T00:49:02Z</time>
      </trkpt>
      <trkpt lat="42.82476" lon="2.93451">
        <ele>3.4</ele>
        <time>1970-01-01T00:49:03Z</time>
      </trkpt>
      <trkpt lat="42.8248" lon="2.93449">
        <ele>3.4</ele>
        <time>1970-01-01T00:49:04Z</time>
      </trkpt>
      <trkpt lat="42.82481" lon="2.93448">
        <ele>3.4</ele>
        <time>1970-01-01T00:49:05Z</time>
      </trkpt>
      <trkpt lat="42.82484" lon="2.93446">
        <ele>3.4</ele>
        <time>1970-01-01T00:49:06Z</time>
      </trkpt>
      <trkpt lat="42.82486" lon="2.93445">
        <ele>3.4</ele>
        <time>1970-01-01T00:49:07Z</time>
      </trkpt>
      <trkpt lat="42.82487" lon="2.93445">
        <ele>3.4</ele>
        <time>1970-01-01T00:49:08Z</time>
      </trkpt>
      <trkpt lat="42.82487" lon="2.93444">
        <ele>3.4</ele>
        <time>1970-01-01T00:49:09Z</time>
      </trkpt>
      <trkpt lat="42.82488" lon="2.93444">
        <ele>3.4</ele>
        <time>1970-01-01T00:49:10Z</time>
      </trkpt>
      <trkpt lat="42.82489" lon="2.93439">
        <ele>3.4</ele>
        <time>1970-01-01T00:49:11Z</time>
      </trkpt>
      <trkpt lat="42.82489" lon="2.93437">
        <ele>3.4</ele>
        <time>1970-01-01T00:49:12Z</time>
      </trkpt>
      <trkpt lat="42.82489" lon="2.93434">
        <ele>3.4</ele>
        <time>1970-01-01T00:49:13Z</time>
      </trkpt>
      <trkpt lat="42.82489" lon="2.9343">
        <ele>3.4</ele>
        <time>1970-01-01T00:49:14Z</time>
      </trkpt>
      <trkpt lat="42.82489" lon="2.93428">
        <ele>3.4</ele>
        <time>1970-01-01T00:49:15Z</time>
      </trkpt>
      <trkpt lat="42.82488" lon="2.93422">
        <ele>3.4</ele>
        <time>1970-01-01T00:49:16Z</time>
      </trkpt>
      <trkpt lat="42.82487" lon="2.9342">
        <ele>3.4</ele>
        <time>1970-01-01T00:49:17Z</time>
      </trkpt>
      <trkpt lat="42.82486" lon="2.93416">
        <ele>3.4</ele>
        <time>1970-01-01T00:49:18Z</time>
      </trkpt>
      <trkpt lat="42.82485" lon="2.93411">
        <ele>3.4</ele>
        <time>1970-01-01T00:49:19Z</time>
      </trkpt>
      <trkpt lat="42.82483" lon="2.93407">
        <ele>3.4</ele>
        <time>1970-01-01T00:49:20Z</time>
      </trkpt>
      <trkpt lat="42.82482" lon="2.93402">
        <ele>3.4</ele>
        <time>1970-01-01T00:49:21Z</time>
      </trkpt>
      <trkpt lat="42.82481" lon="2.93398">
        <ele>3.6</ele>
        <time>1970-01-01T00:49:22Z</time>
      </trkpt>
      <trkpt lat="42.82479" lon="2.93393">
        <ele>3.6</ele>
        <time>1970-01-01T00:49:23Z</time>
      </trkpt>
      <trkpt lat="42.82478" lon="2.93389">
        <ele>3.6</ele>
        <time>1970-01-01T00:49:24Z</time>
      </trkpt>
      <trkpt lat="42.82476" lon="2.93384">
        <ele>3.6</ele>
        <time>1970-01-01T00:49:25Z</time>
      </trkpt>
      <trkpt lat="42.82475" lon="2.9338">
        <ele>3.6</ele>
        <time>1970-01-01T00:49:26Z</time>
      </trkpt>
      <trkpt lat="42.82475" lon="2.93375">
        <ele>3.6</ele>
        <time>1970-01-01T00:49:27Z</time>
      </trkpt>
      <trkpt lat="42.82474" lon="2.9337">
        <ele>3.6</ele>
        <time>1970-01-01T00:49:28Z</time>
      </trkpt>
      <trkpt lat="42.82473" lon="2.93365">
        <ele>3.6</ele>
        <time>1970-01-01T00:49:29Z</time>
      </trkpt>
      <trkpt lat="42.82473" lon="2.9336">
        <ele>3.4</ele>
        <time>1970-01-01T00:49:30Z</time>
      </trkpt>
      <trkpt lat="42.82473" lon="2.93355">
        <ele>3.4</ele>
        <time>1970-01-01T00:49:31Z</time>
      </trkpt>
      <trkpt lat="42.82473" lon="2.9335">
        <ele>3.4</ele>
        <time>1970-01-01T00:49:32Z</time>
      </trkpt>
      <trkpt lat="42.82474" lon="2.93344">
        <ele>3.4</ele>
        <time>1970-01-01T00:49:33Z</time>
      </trkpt>
      <trkpt lat="42.82475" lon="2.93339">
        <ele>3.4</ele>
        <time>1970-01-01T00:49:34Z</time>
      </trkpt>
      <trkpt lat="42.82476" lon="2.93334">
        <ele>3.4</ele>
        <time>1970-01-01T00:49:35Z</time>
      </trkpt>
      <trkpt lat="42.82477" lon="2.93329">
        <ele>3.4</ele>
        <time>1970-01-01T00:49:36Z</time>
      </trkpt>
      <trkpt lat="42.82477" lon="2.93324">
        <ele>3.4</ele>
        <time>1970-01-01T00:49:37Z</time>
      </trkpt>
      <trkpt lat="42.82478" lon="2.93319">
        <ele>3.4</ele>
        <time>1970-01-01T00:49:38Z</time>
      </trkpt>
      <trkpt lat="42.82479" lon="2.93315">
        <ele>3.4</ele>
        <time>1970-01-01T00:49:39Z</time>
      </trkpt>
      <trkpt lat="42.8248" lon="2.9331">
        <ele>3.4</ele>
        <time>1970-01-01T00:49:40Z</time>
      </trkpt>
      <trkpt lat="42.82481" lon="2.93305">
        <ele>3.4</ele>
        <time>1970-01-01T00:49:41Z</time>
      </trkpt>
      <trkpt lat="42.82482" lon="2.93301">
        <ele>3.4</ele>
        <time>1970-01-01T00:49:42Z</time>
      </trkpt>
      <trkpt lat="42.82483" lon="2.93296">
        <ele>3.4</ele>
        <time>1970-01-01T00:49:43Z</time>
      </trkpt>
      <trkpt lat="42.82484" lon="2.9329">
        <ele>3.4</ele>
        <time>1970-01-01T00:49:44Z</time>
      </trkpt>
      <trkpt lat="42.82485" lon="2.93285">
        <ele>3.4</ele>
        <time>1970-01-01T00:49:45Z</time>
      </trkpt>
      <trkpt lat="42.82486" lon="2.9328">
        <ele>3.4</ele>
        <time>1970-01-01T00:49:46Z</time>
      </trkpt>
      <trkpt lat="42.82487" lon="2.93274">
        <ele>3.4</ele>
        <time>1970-01-01T00:49:47Z</time>
      </trkpt>
      <trkpt lat="42.82488" lon="2.93269">
        <ele>3.4</ele>
        <time>1970-01-01T00:49:48Z</time>
      </trkpt>
      <trkpt lat="42.82488" lon="2.93263">
        <ele>3.4</ele>
        <time>1970-01-01T00:49:49Z</time>
      </trkpt>
      <trkpt lat="42.82489" lon="2.93258">
        <ele>3.4</ele>
        <time>1970-01-01T00:49:50Z</time>
      </trkpt>
      <trkpt lat="42.8249" lon="2.93252">
        <ele>3.6</ele>
        <time>1970-01-01T00:49:51Z</time>
      </trkpt>
      <trkpt lat="42.82491" lon="2.93247">
        <ele>3.6</ele>
        <time>1970-01-01T00:49:52Z</time>
      </trkpt>
      <trkpt lat="42.82492" lon="2.93241">
        <ele>3.6</ele>
        <time>1970-01-01T00:49:53Z</time>
      </trkpt>
      <trkpt lat="42.82494" lon="2.93235">
        <ele>3.6</ele>
        <time>1970-01-01T00:49:54Z</time>
      </trkpt>
      <trkpt lat="42.82495" lon="2.9323">
        <ele>3.6</ele>
        <time>1970-01-01T00:49:55Z</time>
      </trkpt>
      <trkpt lat="42.82496" lon="2.93224">
        <ele>3.6</ele>
        <time>1970-01-01T00:49:56Z</time>
      </trkpt>
      <trkpt lat="42.82497" lon="2.93218">
        <ele>3.6</ele>
        <time>1970-01-01T00:49:57Z</time>
      </trkpt>
      <trkpt lat="42.82498" lon="2.93212">
        <ele>3.6</ele>
        <time>1970-01-01T00:49:58Z</time>
      </trkpt>
      <trkpt lat="42.825" lon="2.93206">
        <ele>3.6</ele>
        <time>1970-01-01T00:49:59Z</time>
      </trkpt>
      <trkpt lat="42.82501" lon="2.932">
        <ele>3.8</ele>
        <time>1970-01-01T00:50:00Z</time>
      </trkpt>
      <trkpt lat="42.82502" lon="2.93194">
        <ele>3.8</ele>
        <time>1970-01-01T00:50:01Z</time>
      </trkpt>
      <trkpt lat="42.82504" lon="2.93188">
        <ele>3.8</ele>
        <time>1970-01-01T00:50:02Z</time>
      </trkpt>
      <trkpt lat="42.82505" lon="2.93182">
        <ele>3.8</ele>
        <time>1970-01-01T00:50:03Z</time>
      </trkpt>
      <trkpt lat="42.82507" lon="2.93175">
        <ele>3.8</ele>
        <time>1970-01-01T00:50:04Z</time>
      </trkpt>
      <trkpt lat="42.82508" lon="2.93168">
        <ele>4</ele>
        <time>1970-01-01T00:50:05Z</time>
      </trkpt>
      <trkpt lat="42.8251" lon="2.93161">
        <ele>4</ele>
        <time>1970-01-01T00:50:06Z</time>
      </trkpt>
      <trkpt lat="42.82512" lon="2.93154">
        <ele>4</ele>
        <time>1970-01-01T00:50:07Z</time>
      </trkpt>
      <trkpt lat="42.82513" lon="2.93147">
        <ele>4.2</ele>
        <time>1970-01-01T00:50:08Z</time>
      </trkpt>
      <trkpt lat="42.82515" lon="2.9314">
        <ele>4.2</ele>
        <time>1970-01-01T00:50:09Z</time>
      </trkpt>
      <trkpt lat="42.82517" lon="2.93133">
        <ele>4.2</ele>
        <time>1970-01-01T00:50:10Z</time>
      </trkpt>
      <trkpt lat="42.82518" lon="2.93125">
        <ele>4.4</ele>
        <time>1970-01-01T00:50:11Z</time>
      </trkpt>
      <trkpt lat="42.8252" lon="2.93118">
        <ele>4.4</ele>
        <time>1970-01-01T00:50:12Z</time>
      </trkpt>
      <trkpt lat="42.82522" lon="2.93111">
        <ele>4.4</ele>
        <time>1970-01-01T00:50:13Z</time>
      </trkpt>
      <trkpt lat="42.82524" lon="2.93104">
        <ele>4.6</ele>
        <time>1970-01-01T00:50:14Z</time>
      </trkpt>
      <trkpt lat="42.82525" lon="2.93096">
        <ele>4.6</ele>
        <time>1970-01-01T00:50:15Z</time>
      </trkpt>
      <trkpt lat="42.82527" lon="2.9309">
        <ele>4.6</ele>
        <time>1970-01-01T00:50:16Z</time>
      </trkpt>
      <trkpt lat="42.82528" lon="2.93083">
        <ele>4.8</ele>
        <time>1970-01-01T00:50:17Z</time>
      </trkpt>
      <trkpt lat="42.8253" lon="2.93076">
        <ele>4.8</ele>
        <time>1970-01-01T00:50:18Z</time>
      </trkpt>
      <trkpt lat="42.82532" lon="2.93069">
        <ele>4.8</ele>
        <time>1970-01-01T00:50:19Z</time>
      </trkpt>
      <trkpt lat="42.82534" lon="2.93062">
        <ele>5</ele>
        <time>1970-01-01T00:50:20Z</time>
      </trkpt>
      <trkpt lat="42.82535" lon="2.93056">
        <ele>5</ele>
        <time>1970-01-01T00:50:21Z</time>
      </trkpt>
      <trkpt lat="42.82537" lon="2.93049">
        <ele>5</ele>
        <time>1970-01-01T00:50:22Z</time>
      </trkpt>
      <trkpt lat="42.82539" lon="2.93043">
        <ele>5.2</ele>
        <time>1970-01-01T00:50:23Z</time>
      </trkpt>
      <trkpt lat="42.82541" lon="2.93036">
        <ele>5.2</ele>
        <time>1970-01-01T00:50:24Z</time>
      </trkpt>
      <trkpt lat="42.82543" lon="2.93029">
        <ele>5.2</ele>
        <time>1970-01-01T00:50:25Z</time>
      </trkpt>
      <trkpt lat="42.82545" lon="2.93023">
        <ele>5.4</ele>
        <time>1970-01-01T00:50:26Z</time>
      </trkpt>
      <trkpt lat="42.82547" lon="2.93016">
        <ele>5.4</ele>
        <time>1970-01-01T00:50:27Z</time>
      </trkpt>
      <trkpt lat="42.82549" lon="2.93009">
        <ele>5.6</ele>
        <time>1970-01-01T00:50:28Z</time>
      </trkpt>
      <trkpt lat="42.8255" lon="2.93003">
        <ele>5.6</ele>
        <time>1970-01-01T00:50:29Z</time>
      </trkpt>
      <trkpt lat="42.82552" lon="2.92996">
        <ele>5.6</ele>
        <time>1970-01-01T00:50:30Z</time>
      </trkpt>
      <trkpt lat="42.82554" lon="2.9299">
        <ele>5.8</ele>
        <time>1970-01-01T00:50:31Z</time>
      </trkpt>
      <trkpt lat="42.82556" lon="2.92983">
        <ele>5.8</ele>
        <time>1970-01-01T00:50:32Z</time>
      </trkpt>
      <trkpt lat="42.82558" lon="2.92976">
        <ele>5.8</ele>
        <time>1970-01-01T00:50:33Z</time>
      </trkpt>
      <trkpt lat="42.8256" lon="2.9297">
        <ele>6</ele>
        <time>1970-01-01T00:50:34Z</time>
      </trkpt>
      <trkpt lat="42.82562" lon="2.92963">
        <ele>6</ele>
        <time>1970-01-01T00:50:35Z</time>
      </trkpt>
      <trkpt lat="42.82564" lon="2.92956">
        <ele>6.2</ele>
        <time>1970-01-01T00:50:36Z</time>
      </trkpt>
      <trkpt lat="42.82566" lon="2.9295">
        <ele>6.2</ele>
        <time>1970-01-01T00:50:37Z</time>
      </trkpt>
      <trkpt lat="42.82568" lon="2.92943">
        <ele>6.2</ele>
        <time>1970-01-01T00:50:38Z</time>
      </trkpt>
      <trkpt lat="42.82571" lon="2.92936">
        <ele>6.4</ele>
        <time>1970-01-01T00:50:39Z</time>
      </trkpt>
      <trkpt lat="42.82573" lon="2.9293">
        <ele>6.4</ele>
        <time>1970-01-01T00:50:40Z</time>
      </trkpt>
      <trkpt lat="42.82574" lon="2.92923">
        <ele>6.4</ele>
        <time>1970-01-01T00:50:41Z</time>
      </trkpt>
      <trkpt lat="42.82577" lon="2.92917">
        <ele>6.6</ele>
        <time>1970-01-01T00:50:42Z</time>
      </trkpt>
      <trkpt lat="42.82579" lon="2.9291">
        <ele>6.6</ele>
        <time>1970-01-01T00:50:43Z</time>
      </trkpt>
      <trkpt lat="42.82581" lon="2.92904">
        <ele>6.8</ele>
        <time>1970-01-01T00:50:44Z</time>
      </trkpt>
      <trkpt lat="42.82582" lon="2.92897">
        <ele>6.8</ele>
        <time>1970-01-01T00:50:45Z</time>
      </trkpt>
      <trkpt lat="42.82584" lon="2.9289">
        <ele>7</ele>
        <time>1970-01-01T00:50:46Z</time>
      </trkpt>
      <trkpt lat="42.82586" lon="2.92884">
        <ele>7</ele>
        <time>1970-01-01T00:50:47Z</time>
      </trkpt>
      <trkpt lat="42.82588" lon="2.92877">
        <ele>7.2</ele>
        <time>1970-01-01T00:50:48Z</time>
      </trkpt>
      <trkpt lat="42.82591" lon="2.92871">
        <ele>7.2</ele>
        <time>1970-01-01T00:50:49Z</time>
      </trkpt>
      <trkpt lat="42.82593" lon="2.92864">
        <ele>7.2</ele>
        <time>1970-01-01T00:50:50Z</time>
      </trkpt>
      <trkpt lat="42.82595" lon="2.92858">
        <ele>7.4</ele>
        <time>1970-01-01T00:50:51Z</time>
      </trkpt>
      <trkpt lat="42.82597" lon="2.92851">
        <ele>7.4</ele>
        <time>1970-01-01T00:50:52Z</time>
      </trkpt>
      <trkpt lat="42.82599" lon="2.92845">
        <ele>7.6</ele>
        <time>1970-01-01T00:50:53Z</time>
      </trkpt>
      <trkpt lat="42.82601" lon="2.92839">
        <ele>7.6</ele>
        <time>1970-01-01T00:50:54Z</time>
      </trkpt>
      <trkpt lat="42.82603" lon="2.92832">
        <ele>7.6</ele>
        <time>1970-01-01T00:50:55Z</time>
      </trkpt>
      <trkpt lat="42.82605" lon="2.92826">
        <ele>7.8</ele>
        <time>1970-01-01T00:50:56Z</time>
      </trkpt>
      <trkpt lat="42.82607" lon="2.9282">
        <ele>7.8</ele>
        <time>1970-01-01T00:50:57Z</time>
      </trkpt>
      <trkpt lat="42.8261" lon="2.92813">
        <ele>8</ele>
        <time>1970-01-01T00:50:58Z</time>
      </trkpt>
      <trkpt lat="42.82612" lon="2.92807">
        <ele>8</ele>
        <time>1970-01-01T00:50:59Z</time>
      </trkpt>
      <trkpt lat="42.82614" lon="2.928">
        <ele>8</ele>
        <time>1970-01-01T00:51:00Z</time>
      </trkpt>
      <trkpt lat="42.82617" lon="2.92794">
        <ele>8.2</ele>
        <time>1970-01-01T00:51:01Z</time>
      </trkpt>
      <trkpt lat="42.8262" lon="2.92787">
        <ele>8.2</ele>
        <time>1970-01-01T00:51:02Z</time>
      </trkpt>
      <trkpt lat="42.82622" lon="2.92781">
        <ele>8.2</ele>
        <time>1970-01-01T00:51:03Z</time>
      </trkpt>
      <trkpt lat="42.82625" lon="2.92774">
        <ele>8.4</ele>
        <time>1970-01-01T00:51:04Z</time>
      </trkpt>
      <trkpt lat="42.82627" lon="2.92768">
        <ele>8.4</ele>
        <time>1970-01-01T00:51:05Z</time>
      </trkpt>
      <trkpt lat="42.8263" lon="2.92761">
        <ele>8.6</ele>
        <time>1970-01-01T00:51:06Z</time>
      </trkpt>
      <trkpt lat="42.82632" lon="2.92755">
        <ele>8.6</ele>
        <time>1970-01-01T00:51:07Z</time>
      </trkpt>
      <trkpt lat="42.82634" lon="2.92748">
        <ele>8.8</ele>
        <time>1970-01-01T00:51:08Z</time>
      </trkpt>
      <trkpt lat="42.82637" lon="2.92742">
        <ele>8.8</ele>
        <time>1970-01-01T00:51:09Z</time>
      </trkpt>
      <trkpt lat="42.82639" lon="2.92735">
        <ele>8.8</ele>
        <time>1970-01-01T00:51:10Z</time>
      </trkpt>
      <trkpt lat="42.82642" lon="2.92729">
        <ele>8.8</ele>
        <time>1970-01-01T00:51:11Z</time>
      </trkpt>
      <trkpt lat="42.82644" lon="2.92722">
        <ele>9</ele>
        <time>1970-01-01T00:51:12Z</time>
      </trkpt>
      <trkpt lat="42.82647" lon="2.92716">
        <ele>9</ele>
        <time>1970-01-01T00:51:13Z</time>
      </trkpt>
      <trkpt lat="42.82649" lon="2.92709">
        <ele>9</ele>
        <time>1970-01-01T00:51:14Z</time>
      </trkpt>
      <trkpt lat="42.82652" lon="2.92703">
        <ele>9.2</ele>
        <time>1970-01-01T00:51:15Z</time>
      </trkpt>
      <trkpt lat="42.82654" lon="2.92696">
        <ele>9.2</ele>
        <time>1970-01-01T00:51:16Z</time>
      </trkpt>
      <trkpt lat="42.82657" lon="2.92689">
        <ele>9.2</ele>
        <time>1970-01-01T00:51:17Z</time>
      </trkpt>
      <trkpt lat="42.82659" lon="2.92682">
        <ele>9.2</ele>
        <time>1970-01-01T00:51:18Z</time>
      </trkpt>
      <trkpt lat="42.82661" lon="2.92676">
        <ele>9.2</ele>
        <time>1970-01-01T00:51:19Z</time>
      </trkpt>
      <trkpt lat="42.82663" lon="2.92669">
        <ele>9.2</ele>
        <time>1970-01-01T00:51:20Z</time>
      </trkpt>
      <trkpt lat="42.82666" lon="2.92662">
        <ele>9.2</ele>
        <time>1970-01-01T00:51:21Z</time>
      </trkpt>
      <trkpt lat="42.82668" lon="2.92655">
        <ele>9.2</ele>
        <time>1970-01-01T00:51:22Z</time>
      </trkpt>
      <trkpt lat="42.8267" lon="2.92648">
        <ele>9.2</ele>
        <time>1970-01-01T00:51:23Z</time>
      </trkpt>
      <trkpt lat="42.82672" lon="2.92641">
        <ele>9.2</ele>
        <time>1970-01-01T00:51:24Z</time>
      </trkpt>
      <trkpt lat="42.82674" lon="2.92634">
        <ele>9.2</ele>
        <time>1970-01-01T00:51:25Z</time>
      </trkpt>
      <trkpt lat="42.82677" lon="2.92627">
        <ele>9.2</ele>
        <time>1970-01-01T00:51:26Z</time>
      </trkpt>
      <trkpt lat="42.82679" lon="2.9262">
        <ele>9.2</ele>
        <time>1970-01-01T00:51:27Z</time>
      </trkpt>
      <trkpt lat="42.82682" lon="2.92613">
        <ele>9.2</ele>
        <time>1970-01-01T00:51:28Z</time>
      </trkpt>
      <trkpt lat="42.82684" lon="2.92606">
        <ele>9.2</ele>
        <time>1970-01-01T00:51:29Z</time>
      </trkpt>
      <trkpt lat="42.82686" lon="2.92598">
        <ele>9</ele>
        <time>1970-01-01T00:51:30Z</time>
      </trkpt>
      <trkpt lat="42.82689" lon="2.92591">
        <ele>9</ele>
        <time>1970-01-01T00:51:31Z</time>
      </trkpt>
      <trkpt lat="42.82691" lon="2.92584">
        <ele>9</ele>
        <time>1970-01-01T00:51:32Z</time>
      </trkpt>
      <trkpt lat="42.82694" lon="2.92577">
        <ele>9</ele>
        <time>1970-01-01T00:51:33Z</time>
      </trkpt>
      <trkpt lat="42.82696" lon="2.9257">
        <ele>9</ele>
        <time>1970-01-01T00:51:34Z</time>
      </trkpt>
      <trkpt lat="42.82699" lon="2.92564">
        <ele>8.8</ele>
        <time>1970-01-01T00:51:35Z</time>
      </trkpt>
      <trkpt lat="42.82702" lon="2.92557">
        <ele>8.8</ele>
        <time>1970-01-01T00:51:36Z</time>
      </trkpt>
      <trkpt lat="42.82705" lon="2.9255">
        <ele>8.8</ele>
        <time>1970-01-01T00:51:37Z</time>
      </trkpt>
      <trkpt lat="42.82708" lon="2.92544">
        <ele>8.8</ele>
        <time>1970-01-01T00:51:38Z</time>
      </trkpt>
      <trkpt lat="42.8271" lon="2.92538">
        <ele>8.8</ele>
        <time>1970-01-01T00:51:39Z</time>
      </trkpt>
      <trkpt lat="42.82713" lon="2.92532">
        <ele>8.8</ele>
        <time>1970-01-01T00:51:40Z</time>
      </trkpt>
      <trkpt lat="42.82715" lon="2.92527">
        <ele>8.8</ele>
        <time>1970-01-01T00:51:41Z</time>
      </trkpt>
      <trkpt lat="42.82718" lon="2.92522">
        <ele>8.8</ele>
        <time>1970-01-01T00:51:42Z</time>
      </trkpt>
      <trkpt lat="42.82722" lon="2.92516">
        <ele>8.8</ele>
        <time>1970-01-01T00:51:43Z</time>
      </trkpt>
      <trkpt lat="42.82726" lon="2.92512">
        <ele>8.8</ele>
        <time>1970-01-01T00:51:44Z</time>
      </trkpt>
      <trkpt lat="42.8273" lon="2.92507">
        <ele>8.6</ele>
        <time>1970-01-01T00:51:45Z</time>
      </trkpt>
      <trkpt lat="42.82735" lon="2.92502">
        <ele>8.4</ele>
        <time>1970-01-01T00:51:46Z</time>
      </trkpt>
      <trkpt lat="42.8274" lon="2.92498">
        <ele>8.4</ele>
        <time>1970-01-01T00:51:47Z</time>
      </trkpt>
      <trkpt lat="42.82745" lon="2.92494">
        <ele>8.2</ele>
        <time>1970-01-01T00:51:48Z</time>
      </trkpt>
      <trkpt lat="42.82751" lon="2.92489">
        <ele>8</ele>
        <time>1970-01-01T00:51:49Z</time>
      </trkpt>
      <trkpt lat="42.82756" lon="2.92485">
        <ele>7.8</ele>
        <time>1970-01-01T00:51:50Z</time>
      </trkpt>
      <trkpt lat="42.82761" lon="2.9248">
        <ele>7.8</ele>
        <time>1970-01-01T00:51:51Z</time>
      </trkpt>
      <trkpt lat="42.82767" lon="2.92476">
        <ele>7.6</ele>
        <time>1970-01-01T00:51:52Z</time>
      </trkpt>
      <trkpt lat="42.82772" lon="2.92471">
        <ele>7.4</ele>
        <time>1970-01-01T00:51:53Z</time>
      </trkpt>
      <trkpt lat="42.82778" lon="2.92466">
        <ele>7.2</ele>
        <time>1970-01-01T00:51:54Z</time>
      </trkpt>
      <trkpt lat="42.82783" lon="2.92462">
        <ele>7.2</ele>
        <time>1970-01-01T00:51:55Z</time>
      </trkpt>
      <trkpt lat="42.82789" lon="2.92457">
        <ele>7</ele>
        <time>1970-01-01T00:51:56Z</time>
      </trkpt>
      <trkpt lat="42.82795" lon="2.92454">
        <ele>7</ele>
        <time>1970-01-01T00:51:57Z</time>
      </trkpt>
      <trkpt lat="42.828" lon="2.92452">
        <ele>6.8</ele>
        <time>1970-01-01T00:51:58Z</time>
      </trkpt>
      <trkpt lat="42.82806" lon="2.92452">
        <ele>6.8</ele>
        <time>1970-01-01T00:51:59Z</time>
      </trkpt>
      <trkpt lat="42.82811" lon="2.92454">
        <ele>6.8</ele>
        <time>1970-01-01T00:52:00Z</time>
      </trkpt>
      <trkpt lat="42.82814" lon="2.92459">
        <ele>6.8</ele>
        <time>1970-01-01T00:52:01Z</time>
      </trkpt>
      <trkpt lat="42.82817" lon="2.92465">
        <ele>6.6</ele>
        <time>1970-01-01T00:52:02Z</time>
      </trkpt>
      <trkpt lat="42.82819" lon="2.92471">
        <ele>6.6</ele>
        <time>1970-01-01T00:52:03Z</time>
      </trkpt>
      <trkpt lat="42.8282" lon="2.92477">
        <ele>6.6</ele>
        <time>1970-01-01T00:52:04Z</time>
      </trkpt>
      <trkpt lat="42.82821" lon="2.92482">
        <ele>6.6</ele>
        <time>1970-01-01T00:52:05Z</time>
      </trkpt>
      <trkpt lat="42.82822" lon="2.92485">
        <ele>6.6</ele>
        <time>1970-01-01T00:52:06Z</time>
      </trkpt>
      <trkpt lat="42.82826" lon="2.92486">
        <ele>6.6</ele>
        <time>1970-01-01T00:52:07Z</time>
      </trkpt>
      <trkpt lat="42.82829" lon="2.92485">
        <ele>6.4</ele>
        <time>1970-01-01T00:52:08Z</time>
      </trkpt>
      <trkpt lat="42.82833" lon="2.92484">
        <ele>6.4</ele>
        <time>1970-01-01T00:52:09Z</time>
      </trkpt>
      <trkpt lat="42.82838" lon="2.92485">
        <ele>6.2</ele>
        <time>1970-01-01T00:52:10Z</time>
      </trkpt>
      <trkpt lat="42.82842" lon="2.92485">
        <ele>6.2</ele>
        <time>1970-01-01T00:52:11Z</time>
      </trkpt>
      <trkpt lat="42.82846" lon="2.92486">
        <ele>6</ele>
        <time>1970-01-01T00:52:12Z</time>
      </trkpt>
      <trkpt lat="42.82851" lon="2.92487">
        <ele>6</ele>
        <time>1970-01-01T00:52:13Z</time>
      </trkpt>
      <trkpt lat="42.82855" lon="2.92487">
        <ele>6</ele>
        <time>1970-01-01T00:52:14Z</time>
      </trkpt>
      <trkpt lat="42.8286" lon="2.92488">
        <ele>6</ele>
        <time>1970-01-01T00:52:15Z</time>
      </trkpt>
      <trkpt lat="42.82864" lon="2.92488">
        <ele>6</ele>
        <time>1970-01-01T00:52:16Z</time>
      </trkpt>
      <trkpt lat="42.82869" lon="2.92489">
        <ele>6</ele>
        <time>1970-01-01T00:52:17Z</time>
      </trkpt>
      <trkpt lat="42.82873" lon="2.9249">
        <ele>6</ele>
        <time>1970-01-01T00:52:18Z</time>
      </trkpt>
      <trkpt lat="42.82877" lon="2.9249">
        <ele>6</ele>
        <time>1970-01-01T00:52:19Z</time>
      </trkpt>
      <trkpt lat="42.82882" lon="2.92491">
        <ele>6</ele>
        <time>1970-01-01T00:52:20Z</time>
      </trkpt>
      <trkpt lat="42.82886" lon="2.92492">
        <ele>6</ele>
        <time>1970-01-01T00:52:21Z</time>
      </trkpt>
      <trkpt lat="42.82891" lon="2.92492">
        <ele>6</ele>
        <time>1970-01-01T00:52:22Z</time>
      </trkpt>
      <trkpt lat="42.82895" lon="2.92493">
        <ele>6</ele>
        <time>1970-01-01T00:52:23Z</time>
      </trkpt>
      <trkpt lat="42.82899" lon="2.92494">
        <ele>6</ele>
        <time>1970-01-01T00:52:24Z</time>
      </trkpt>
      <trkpt lat="42.82903" lon="2.92495">
        <ele>6</ele>
        <time>1970-01-01T00:52:25Z</time>
      </trkpt>
      <trkpt lat="42.82907" lon="2.92495">
        <ele>6</ele>
        <time>1970-01-01T00:52:26Z</time>
      </trkpt>
      <trkpt lat="42.82911" lon="2.92495">
        <ele>6.2</ele>
        <time>1970-01-01T00:52:27Z</time>
      </trkpt>
      <trkpt lat="42.82915" lon="2.92495">
        <ele>6.2</ele>
        <time>1970-01-01T00:52:28Z</time>
      </trkpt>
      <trkpt lat="42.82919" lon="2.92496">
        <ele>6.4</ele>
        <time>1970-01-01T00:52:29Z</time>
      </trkpt>
      <trkpt lat="42.82923" lon="2.92497">
        <ele>6.4</ele>
        <time>1970-01-01T00:52:30Z</time>
      </trkpt>
      <trkpt lat="42.82926" lon="2.92499">
        <ele>6.4</ele>
        <time>1970-01-01T00:52:31Z</time>
      </trkpt>
      <trkpt lat="42.82929" lon="2.92501">
        <ele>6.6</ele>
        <time>1970-01-01T00:52:32Z</time>
      </trkpt>
      <trkpt lat="42.82931" lon="2.92506">
        <ele>6.4</ele>
        <time>1970-01-01T00:52:33Z</time>
      </trkpt>
      <trkpt lat="42.82932" lon="2.92511">
        <ele>6.4</ele>
        <time>1970-01-01T00:52:34Z</time>
      </trkpt>
      <trkpt lat="42.82934" lon="2.92516">
        <ele>6.2</ele>
        <time>1970-01-01T00:52:35Z</time>
      </trkpt>
      <trkpt lat="42.82936" lon="2.92521">
        <ele>6.2</ele>
        <time>1970-01-01T00:52:36Z</time>
      </trkpt>
      <trkpt lat="42.82938" lon="2.92526">
        <ele>6</ele>
        <time>1970-01-01T00:52:37Z</time>
      </trkpt>
      <trkpt lat="42.82941" lon="2.92531">
        <ele>6</ele>
        <time>1970-01-01T00:52:38Z</time>
      </trkpt>
      <trkpt lat="42.82944" lon="2.92536">
        <ele>5.8</ele>
        <time>1970-01-01T00:52:39Z</time>
      </trkpt>
      <trkpt lat="42.82947" lon="2.92539">
        <ele>5.8</ele>
        <time>1970-01-01T00:52:40Z</time>
      </trkpt>
      <trkpt lat="42.8295" lon="2.92542">
        <ele>5.8</ele>
        <time>1970-01-01T00:52:41Z</time>
      </trkpt>
      <trkpt lat="42.82954" lon="2.92546">
        <ele>5.8</ele>
        <time>1970-01-01T00:52:42Z</time>
      </trkpt>
      <trkpt lat="42.82957" lon="2.9255">
        <ele>5.6</ele>
        <time>1970-01-01T00:52:43Z</time>
      </trkpt>
      <trkpt lat="42.82961" lon="2.92554">
        <ele>5.6</ele>
        <time>1970-01-01T00:52:44Z</time>
      </trkpt>
      <trkpt lat="42.82964" lon="2.92557">
        <ele>5.6</ele>
        <time>1970-01-01T00:52:45Z</time>
      </trkpt>
      <trkpt lat="42.82968" lon="2.92561">
        <ele>5.6</ele>
        <time>1970-01-01T00:52:46Z</time>
      </trkpt>
      <trkpt lat="42.82971" lon="2.92565">
        <ele>5.6</ele>
        <time>1970-01-01T00:52:47Z</time>
      </trkpt>
      <trkpt lat="42.82974" lon="2.92569">
        <ele>5.6</ele>
        <time>1970-01-01T00:52:48Z</time>
      </trkpt>
      <trkpt lat="42.82977" lon="2.92573">
        <ele>5.4</ele>
        <time>1970-01-01T00:52:49Z</time>
      </trkpt>
      <trkpt lat="42.82981" lon="2.92577">
        <ele>5.4</ele>
        <time>1970-01-01T00:52:50Z</time>
      </trkpt>
      <trkpt lat="42.82984" lon="2.92581">
        <ele>5.4</ele>
        <time>1970-01-01T00:52:51Z</time>
      </trkpt>
      <trkpt lat="42.82988" lon="2.92584">
        <ele>5.4</ele>
        <time>1970-01-01T00:52:52Z</time>
      </trkpt>
      <trkpt lat="42.82991" lon="2.92588">
        <ele>5.4</ele>
        <time>1970-01-01T00:52:53Z</time>
      </trkpt>
      <trkpt lat="42.82995" lon="2.92593">
        <ele>5.4</ele>
        <time>1970-01-01T00:52:54Z</time>
      </trkpt>
      <trkpt lat="42.82998" lon="2.92597">
        <ele>5.4</ele>
        <time>1970-01-01T00:52:55Z</time>
      </trkpt>
      <trkpt lat="42.83002" lon="2.92601">
        <ele>5.2</ele>
        <time>1970-01-01T00:52:56Z</time>
      </trkpt>
      <trkpt lat="42.83005" lon="2.92604">
        <ele>5.2</ele>
        <time>1970-01-01T00:52:57Z</time>
      </trkpt>
      <trkpt lat="42.83008" lon="2.92608">
        <ele>5.2</ele>
        <time>1970-01-01T00:52:58Z</time>
      </trkpt>
      <trkpt lat="42.83012" lon="2.92611">
        <ele>5.2</ele>
        <time>1970-01-01T00:52:59Z</time>
      </trkpt>
      <trkpt lat="42.83015" lon="2.92615">
        <ele>5.2</ele>
        <time>1970-01-01T00:53:00Z</time>
      </trkpt>
      <trkpt lat="42.83018" lon="2.92619">
        <ele>5.2</ele>
        <time>1970-01-01T00:53:01Z</time>
      </trkpt>
      <trkpt lat="42.83021" lon="2.92622">
        <ele>5.2</ele>
        <time>1970-01-01T00:53:02Z</time>
      </trkpt>
      <trkpt lat="42.83025" lon="2.92626">
        <ele>5.2</ele>
        <time>1970-01-01T00:53:03Z</time>
      </trkpt>
      <trkpt lat="42.83028" lon="2.92629">
        <ele>5.2</ele>
        <time>1970-01-01T00:53:04Z</time>
      </trkpt>
      <trkpt lat="42.83032" lon="2.92633">
        <ele>5.2</ele>
        <time>1970-01-01T00:53:05Z</time>
      </trkpt>
      <trkpt lat="42.83035" lon="2.92636">
        <ele>5.2</ele>
        <time>1970-01-01T00:53:06Z</time>
      </trkpt>
      <trkpt lat="42.83038" lon="2.9264">
        <ele>5.2</ele>
        <time>1970-01-01T00:53:07Z</time>
      </trkpt>
      <trkpt lat="42.83042" lon="2.92644">
        <ele>5.2</ele>
        <time>1970-01-01T00:53:08Z</time>
      </trkpt>
      <trkpt lat="42.83046" lon="2.92648">
        <ele>5.2</ele>
        <time>1970-01-01T00:53:09Z</time>
      </trkpt>
      <trkpt lat="42.83049" lon="2.92652">
        <ele>5.2</ele>
        <time>1970-01-01T00:53:10Z</time>
      </trkpt>
      <trkpt lat="42.83053" lon="2.92657">
        <ele>5.2</ele>
        <time>1970-01-01T00:53:11Z</time>
      </trkpt>
      <trkpt lat="42.83056" lon="2.92661">
        <ele>5.2</ele>
        <time>1970-01-01T00:53:12Z</time>
      </trkpt>
      <trkpt lat="42.8306" lon="2.92665">
        <ele>5.2</ele>
        <time>1970-01-01T00:53:13Z</time>
      </trkpt>
      <trkpt lat="42.83064" lon="2.92668">
        <ele>5.2</ele>
        <time>1970-01-01T00:53:14Z</time>
      </trkpt>
      <trkpt lat="42.83067" lon="2.92672">
        <ele>5.2</ele>
        <time>1970-01-01T00:53:15Z</time>
      </trkpt>
      <trkpt lat="42.8307" lon="2.92676">
        <ele>5.2</ele>
        <time>1970-01-01T00:53:16Z</time>
      </trkpt>
      <trkpt lat="42.83072" lon="2.9268">
        <ele>5.2</ele>
        <time>1970-01-01T00:53:17Z</time>
      </trkpt>
      <trkpt lat="42.83074" lon="2.92684">
        <ele>5.4</ele>
        <time>1970-01-01T00:53:18Z</time>
      </trkpt>
      <trkpt lat="42.83076" lon="2.92687">
        <ele>5.4</ele>
        <time>1970-01-01T00:53:19Z</time>
      </trkpt>
      <trkpt lat="42.8308" lon="2.92687">
        <ele>5.4</ele>
        <time>1970-01-01T00:53:20Z</time>
      </trkpt>
      <trkpt lat="42.83081" lon="2.92687">
        <ele>5.4</ele>
        <time>1970-01-01T00:53:21Z</time>
      </trkpt>
      <trkpt lat="42.83083" lon="2.92684">
        <ele>5.4</ele>
        <time>1970-01-01T00:53:22Z</time>
      </trkpt>
      <trkpt lat="42.83085" lon="2.92681">
        <ele>5.4</ele>
        <time>1970-01-01T00:53:23Z</time>
      </trkpt>
      <trkpt lat="42.83086" lon="2.92677">
        <ele>5.4</ele>
        <time>1970-01-01T00:53:24Z</time>
      </trkpt>
      <trkpt lat="42.83088" lon="2.92674">
        <ele>5.4</ele>
        <time>1970-01-01T00:53:25Z</time>
      </trkpt>
      <trkpt lat="42.8309" lon="2.92671">
        <ele>5.4</ele>
        <time>1970-01-01T00:53:26Z</time>
      </trkpt>
      <trkpt lat="42.83093" lon="2.9267">
        <ele>5.4</ele>
        <time>1970-01-01T00:53:27Z</time>
      </trkpt>
      <trkpt lat="42.83095" lon="2.9267">
        <ele>5.4</ele>
        <time>1970-01-01T00:53:28Z</time>
      </trkpt>
      <trkpt lat="42.83097" lon="2.92671">
        <ele>5.4</ele>
        <time>1970-01-01T00:53:29Z</time>
      </trkpt>
      <trkpt lat="42.83099" lon="2.92674">
        <ele>5.4</ele>
        <time>1970-01-01T00:53:30Z</time>
      </trkpt>
      <trkpt lat="42.83102" lon="2.92678">
        <ele>5.4</ele>
        <time>1970-01-01T00:53:31Z</time>
      </trkpt>
      <trkpt lat="42.83105" lon="2.92682">
        <ele>5.2</ele>
        <time>1970-01-01T00:53:32Z</time>
      </trkpt>
      <trkpt lat="42.83108" lon="2.92687">
        <ele>5.2</ele>
        <time>1970-01-01T00:53:33Z</time>
      </trkpt>
      <trkpt lat="42.83111" lon="2.92691">
        <ele>5</ele>
        <time>1970-01-01T00:53:34Z</time>
      </trkpt>
      <trkpt lat="42.83114" lon="2.92695">
        <ele>5</ele>
        <time>1970-01-01T00:53:35Z</time>
      </trkpt>
      <trkpt lat="42.83118" lon="2.92699">
        <ele>4.8</ele>
        <time>1970-01-01T00:53:36Z</time>
      </trkpt>
      <trkpt lat="42.83121" lon="2.92703">
        <ele>4.8</ele>
        <time>1970-01-01T00:53:37Z</time>
      </trkpt>
      <trkpt lat="42.83124" lon="2.92708">
        <ele>4.6</ele>
        <time>1970-01-01T00:53:38Z</time>
      </trkpt>
      <trkpt lat="42.83128" lon="2.92712">
        <ele>4.4</ele>
        <time>1970-01-01T00:53:39Z</time>
      </trkpt>
      <trkpt lat="42.83131" lon="2.92717">
        <ele>4.4</ele>
        <time>1970-01-01T00:53:40Z</time>
      </trkpt>
      <trkpt lat="42.83134" lon="2.92722">
        <ele>4.4</ele>
        <time>1970-01-01T00:53:41Z</time>
      </trkpt>
      <trkpt lat="42.83137" lon="2.92726">
        <ele>4.2</ele>
        <time>1970-01-01T00:53:42Z</time>
      </trkpt>
      <trkpt lat="42.8314" lon="2.92732">
        <ele>4.2</ele>
        <time>1970-01-01T00:53:43Z</time>
      </trkpt>
      <trkpt lat="42.83143" lon="2.92737">
        <ele>4.2</ele>
        <time>1970-01-01T00:53:44Z</time>
      </trkpt>
      <trkpt lat="42.83146" lon="2.92742">
        <ele>4.2</ele>
        <time>1970-01-01T00:53:45Z</time>
      </trkpt>
      <trkpt lat="42.83149" lon="2.92747">
        <ele>4</ele>
        <time>1970-01-01T00:53:46Z</time>
      </trkpt>
      <trkpt lat="42.83153" lon="2.92752">
        <ele>4</ele>
        <time>1970-01-01T00:53:47Z</time>
      </trkpt>
      <trkpt lat="42.83156" lon="2.92757">
        <ele>4</ele>
        <time>1970-01-01T00:53:48Z</time>
      </trkpt>
      <trkpt lat="42.83159" lon="2.92762">
        <ele>4</ele>
        <time>1970-01-01T00:53:49Z</time>
      </trkpt>
      <trkpt lat="42.83162" lon="2.92767">
        <ele>3.8</ele>
        <time>1970-01-01T00:53:50Z</time>
      </trkpt>
      <trkpt lat="42.83166" lon="2.92773">
        <ele>3.8</ele>
        <time>1970-01-01T00:53:51Z</time>
      </trkpt>
      <trkpt lat="42.83169" lon="2.92778">
        <ele>3.8</ele>
        <time>1970-01-01T00:53:52Z</time>
      </trkpt>
      <trkpt lat="42.83172" lon="2.92783">
        <ele>3.8</ele>
        <time>1970-01-01T00:53:53Z</time>
      </trkpt>
      <trkpt lat="42.83175" lon="2.92788">
        <ele>3.8</ele>
        <time>1970-01-01T00:53:54Z</time>
      </trkpt>
      <trkpt lat="42.83179" lon="2.92794">
        <ele>3.6</ele>
        <time>1970-01-01T00:53:55Z</time>
      </trkpt>
      <trkpt lat="42.83182" lon="2.92799">
        <ele>3.6</ele>
        <time>1970-01-01T00:53:56Z</time>
      </trkpt>
      <trkpt lat="42.83185" lon="2.92804">
        <ele>3.6</ele>
        <time>1970-01-01T00:53:57Z</time>
      </trkpt>
      <trkpt lat="42.83188" lon="2.92809">
        <ele>3.6</ele>
        <time>1970-01-01T00:53:58Z</time>
      </trkpt>
      <trkpt lat="42.83191" lon="2.92815">
        <ele>3.6</ele>
        <time>1970-01-01T00:53:59Z</time>
      </trkpt>
      <trkpt lat="42.83195" lon="2.9282">
        <ele>3.4</ele>
        <time>1970-01-01T00:54:00Z</time>
      </trkpt>
      <trkpt lat="42.83198" lon="2.92825">
        <ele>3.4</ele>
        <time>1970-01-01T00:54:01Z</time>
      </trkpt>
      <trkpt lat="42.83201" lon="2.92831">
        <ele>3.4</ele>
        <time>1970-01-01T00:54:02Z</time>
      </trkpt>
      <trkpt lat="42.83205" lon="2.92836">
        <ele>3.4</ele>
        <time>1970-01-01T00:54:03Z</time>
      </trkpt>
      <trkpt lat="42.83208" lon="2.92842">
        <ele>3.2</ele>
        <time>1970-01-01T00:54:04Z</time>
      </trkpt>
      <trkpt lat="42.83211" lon="2.92847">
        <ele>3.2</ele>
        <time>1970-01-01T00:54:05Z</time>
      </trkpt>
      <trkpt lat="42.83214" lon="2.92853">
        <ele>3.2</ele>
        <time>1970-01-01T00:54:06Z</time>
      </trkpt>
      <trkpt lat="42.83218" lon="2.92858">
        <ele>3.2</ele>
        <time>1970-01-01T00:54:07Z</time>
      </trkpt>
      <trkpt lat="42.83221" lon="2.92863">
        <ele>3.2</ele>
        <time>1970-01-01T00:54:08Z</time>
      </trkpt>
      <trkpt lat="42.83224" lon="2.92869">
        <ele>3.2</ele>
        <time>1970-01-01T00:54:09Z</time>
      </trkpt>
      <trkpt lat="42.83227" lon="2.92874">
        <ele>3</ele>
        <time>1970-01-01T00:54:10Z</time>
      </trkpt>
      <trkpt lat="42.83231" lon="2.92879">
        <ele>3</ele>
        <time>1970-01-01T00:54:11Z</time>
      </trkpt>
      <trkpt lat="42.83234" lon="2.92884">
        <ele>2.8</ele>
        <time>1970-01-01T00:54:12Z</time>
      </trkpt>
      <trkpt lat="42.83237" lon="2.92889">
        <ele>2.8</ele>
        <time>1970-01-01T00:54:13Z</time>
      </trkpt>
      <trkpt lat="42.83241" lon="2.92895">
        <ele>2.8</ele>
        <time>1970-01-01T00:54:14Z</time>
      </trkpt>
      <trkpt lat="42.83244" lon="2.929">
        <ele>2.8</ele>
        <time>1970-01-01T00:54:15Z</time>
      </trkpt>
      <trkpt lat="42.83248" lon="2.92906">
        <ele>2.8</ele>
        <time>1970-01-01T00:54:16Z</time>
      </trkpt>
      <trkpt lat="42.83252" lon="2.92911">
        <ele>2.8</ele>
        <time>1970-01-01T00:54:17Z</time>
      </trkpt>
      <trkpt lat="42.83255" lon="2.92916">
        <ele>2.8</ele>
        <time>1970-01-01T00:54:18Z</time>
      </trkpt>
      <trkpt lat="42.83259" lon="2.92921">
        <ele>2.8</ele>
        <time>1970-01-01T00:54:19Z</time>
      </trkpt>
      <trkpt lat="42.83263" lon="2.92926">
        <ele>2.8</ele>
        <time>1970-01-01T00:54:20Z</time>
      </trkpt>
      <trkpt lat="42.83267" lon="2.92931">
        <ele>2.8</ele>
        <time>1970-01-01T00:54:21Z</time>
      </trkpt>
      <trkpt lat="42.83271" lon="2.92936">
        <ele>2.8</ele>
        <time>1970-01-01T00:54:22Z</time>
      </trkpt>
      <trkpt lat="42.83275" lon="2.92941">
        <ele>2.6</ele>
        <time>1970-01-01T00:54:23Z</time>
      </trkpt>
      <trkpt lat="42.83279" lon="2.92946">
        <ele>2.6</ele>
        <time>1970-01-01T00:54:24Z</time>
      </trkpt>
      <trkpt lat="42.83283" lon="2.92951">
        <ele>2.6</ele>
        <time>1970-01-01T00:54:25Z</time>
      </trkpt>
      <trkpt lat="42.83287" lon="2.92955">
        <ele>2.4</ele>
        <time>1970-01-01T00:54:26Z</time>
      </trkpt>
      <trkpt lat="42.83291" lon="2.9296">
        <ele>2.4</ele>
        <time>1970-01-01T00:54:27Z</time>
      </trkpt>
      <trkpt lat="42.83294" lon="2.92964">
        <ele>2.4</ele>
        <time>1970-01-01T00:54:28Z</time>
      </trkpt>
      <trkpt lat="42.83298" lon="2.92968">
        <ele>2.4</ele>
        <time>1970-01-01T00:54:29Z</time>
      </trkpt>
      <trkpt lat="42.83302" lon="2.92973">
        <ele>2.4</ele>
        <time>1970-01-01T00:54:30Z</time>
      </trkpt>
      <trkpt lat="42.83306" lon="2.92978">
        <ele>2.2</ele>
        <time>1970-01-01T00:54:31Z</time>
      </trkpt>
      <trkpt lat="42.8331" lon="2.92983">
        <ele>2.2</ele>
        <time>1970-01-01T00:54:32Z</time>
      </trkpt>
      <trkpt lat="42.83313" lon="2.92987">
        <ele>2</ele>
        <time>1970-01-01T00:54:33Z</time>
      </trkpt>
      <trkpt lat="42.83317" lon="2.92992">
        <ele>2</ele>
        <time>1970-01-01T00:54:34Z</time>
      </trkpt>
      <trkpt lat="42.83321" lon="2.92996">
        <ele>2</ele>
        <time>1970-01-01T00:54:35Z</time>
      </trkpt>
      <trkpt lat="42.83325" lon="2.93001">
        <ele>1.8</ele>
        <time>1970-01-01T00:54:36Z</time>
      </trkpt>
      <trkpt lat="42.83329" lon="2.93006">
        <ele>1.8</ele>
        <time>1970-01-01T00:54:37Z</time>
      </trkpt>
      <trkpt lat="42.83333" lon="2.9301">
        <ele>1.8</ele>
        <time>1970-01-01T00:54:38Z</time>
      </trkpt>
      <trkpt lat="42.83337" lon="2.93015">
        <ele>1.8</ele>
        <time>1970-01-01T00:54:39Z</time>
      </trkpt>
      <trkpt lat="42.83341" lon="2.9302">
        <ele>1.8</ele>
        <time>1970-01-01T00:54:40Z</time>
      </trkpt>
      <trkpt lat="42.83345" lon="2.93025">
        <ele>1.8</ele>
        <time>1970-01-01T00:54:41Z</time>
      </trkpt>
      <trkpt lat="42.83348" lon="2.93029">
        <ele>1.8</ele>
        <time>1970-01-01T00:54:42Z</time>
      </trkpt>
      <trkpt lat="42.83352" lon="2.93034">
        <ele>1.8</ele>
        <time>1970-01-01T00:54:43Z</time>
      </trkpt>
      <trkpt lat="42.83356" lon="2.93038">
        <ele>1.6</ele>
        <time>1970-01-01T00:54:44Z</time>
      </trkpt>
      <trkpt lat="42.83359" lon="2.93042">
        <ele>1.6</ele>
        <time>1970-01-01T00:54:45Z</time>
      </trkpt>
      <trkpt lat="42.83363" lon="2.93046">
        <ele>1.6</ele>
        <time>1970-01-01T00:54:46Z</time>
      </trkpt>
      <trkpt lat="42.83366" lon="2.9305">
        <ele>1.6</ele>
        <time>1970-01-01T00:54:47Z</time>
      </trkpt>
      <trkpt lat="42.8337" lon="2.93054">
        <ele>1.6</ele>
        <time>1970-01-01T00:54:48Z</time>
      </trkpt>
      <trkpt lat="42.83373" lon="2.93058">
        <ele>1.6</ele>
        <time>1970-01-01T00:54:49Z</time>
      </trkpt>
      <trkpt lat="42.83377" lon="2.93062">
        <ele>1.6</ele>
        <time>1970-01-01T00:54:50Z</time>
      </trkpt>
      <trkpt lat="42.83381" lon="2.93066">
        <ele>1.4</ele>
        <time>1970-01-01T00:54:51Z</time>
      </trkpt>
      <trkpt lat="42.83384" lon="2.9307">
        <ele>1.4</ele>
        <time>1970-01-01T00:54:52Z</time>
      </trkpt>
      <trkpt lat="42.83387" lon="2.93074">
        <ele>1.4</ele>
        <time>1970-01-01T00:54:53Z</time>
      </trkpt>
      <trkpt lat="42.83391" lon="2.93079">
        <ele>1.4</ele>
        <time>1970-01-01T00:54:54Z</time>
      </trkpt>
      <trkpt lat="42.83394" lon="2.93083">
        <ele>1.4</ele>
        <time>1970-01-01T00:54:55Z</time>
      </trkpt>
      <trkpt lat="42.83398" lon="2.93087">
        <ele>1.4</ele>
        <time>1970-01-01T00:54:56Z</time>
      </trkpt>
      <trkpt lat="42.83401" lon="2.93091">
        <ele>1.2</ele>
        <time>1970-01-01T00:54:57Z</time>
      </trkpt>
      <trkpt lat="42.83404" lon="2.93095">
        <ele>1.2</ele>
        <time>1970-01-01T00:54:58Z</time>
      </trkpt>
      <trkpt lat="42.83407" lon="2.93098">
        <ele>1.2</ele>
        <time>1970-01-01T00:54:59Z</time>
      </trkpt>
      <trkpt lat="42.8341" lon="2.931">
        <ele>1.2</ele>
        <time>1970-01-01T00:55:00Z</time>
      </trkpt>
      <trkpt lat="42.83413" lon="2.931">
        <ele>1.2</ele>
        <time>1970-01-01T00:55:01Z</time>
      </trkpt>
      <trkpt lat="42.83416" lon="2.93099">
        <ele>1</ele>
        <time>1970-01-01T00:55:02Z</time>
      </trkpt>
      <trkpt lat="42.83418" lon="2.93095">
        <ele>1</ele>
        <time>1970-01-01T00:55:03Z</time>
      </trkpt>
      <trkpt lat="42.83421" lon="2.93089">
        <ele>0.80000000000001</ele>
        <time>1970-01-01T00:55:04Z</time>
      </trkpt>
      <trkpt lat="42.83422" lon="2.93084">
        <ele>0.60000000000002</ele>
        <time>1970-01-01T00:55:05Z</time>
      </trkpt>
      <trkpt lat="42.83422" lon="2.93078">
        <ele>0.39999999999998</ele>
        <time>1970-01-01T00:55:06Z</time>
      </trkpt>
      <trkpt lat="42.83423" lon="2.93073">
        <ele>0.19999999999999</ele>
        <time>1970-01-01T00:55:07Z</time>
      </trkpt>
      <trkpt lat="42.83424" lon="2.93067">
        <ele>0.19999999999999</ele>
        <time>1970-01-01T00:55:08Z</time>
      </trkpt>
      <trkpt lat="42.83426" lon="2.93062">
        <ele>1</ele>
        <time>1970-01-01T00:55:09Z</time>
      </trkpt>
      <trkpt lat="42.83428" lon="2.93056">
        <ele>1</ele>
        <time>1970-01-01T00:55:10Z</time>
      </trkpt>
      <trkpt lat="42.83429" lon="2.9305">
        <ele>1</ele>
        <time>1970-01-01T00:55:11Z</time>
      </trkpt>
      <trkpt lat="42.83431" lon="2.93044">
        <ele>1</ele>
        <time>1970-01-01T00:55:12Z</time>
      </trkpt>
      <trkpt lat="42.83432" lon="2.93038">
        <ele>1</ele>
        <time>1970-01-01T00:55:13Z</time>
      </trkpt>
      <trkpt lat="42.83433" lon="2.93032">
        <ele>0.19999999999999</ele>
        <time>1970-01-01T00:55:14Z</time>
      </trkpt>
      <trkpt lat="42.83435" lon="2.93026">
        <ele>0.19999999999999</ele>
        <time>1970-01-01T00:55:15Z</time>
      </trkpt>
      <trkpt lat="42.83436" lon="2.9302">
        <ele>0.19999999999999</ele>
        <time>1970-01-01T00:55:16Z</time>
      </trkpt>
      <trkpt lat="42.83438" lon="2.93014">
        <ele>0.19999999999999</ele>
        <time>1970-01-01T00:55:17Z</time>
      </trkpt>
      <trkpt lat="42.8344" lon="2.93008">
        <ele>0.19999999999999</ele>
        <time>1970-01-01T00:55:18Z</time>
      </trkpt>
      <trkpt lat="42.83441" lon="2.93001">
        <ele>0.19999999999999</ele>
        <time>1970-01-01T00:55:19Z</time>
      </trkpt>
      <trkpt lat="42.83443" lon="2.92995">
        <ele>0.19999999999999</ele>
        <time>1970-01-01T00:55:20Z</time>
      </trkpt>
      <trkpt lat="42.83445" lon="2.9299">
        <ele>0.19999999999999</ele>
        <time>1970-01-01T00:55:21Z</time>
      </trkpt>
      <trkpt lat="42.83446" lon="2.92985">
        <ele>0.19999999999999</ele>
        <time>1970-01-01T00:55:22Z</time>
      </trkpt>
      <trkpt lat="42.83448" lon="2.9298">
        <ele>0.39999999999998</ele>
        <time>1970-01-01T00:55:23Z</time>
      </trkpt>
      <trkpt lat="42.83449" lon="2.92975">
        <ele>0.39999999999998</ele>
        <time>1970-01-01T00:55:24Z</time>
      </trkpt>
      <trkpt lat="42.83451" lon="2.9297">
        <ele>0.39999999999998</ele>
        <time>1970-01-01T00:55:25Z</time>
      </trkpt>
      <trkpt lat="42.83452" lon="2.92965">
        <ele>0.39999999999998</ele>
        <time>1970-01-01T00:55:26Z</time>
      </trkpt>
      <trkpt lat="42.83454" lon="2.92959">
        <ele>0.39999999999998</ele>
        <time>1970-01-01T00:55:27Z</time>
      </trkpt>
      <trkpt lat="42.83455" lon="2.92953">
        <ele>0.39999999999998</ele>
        <time>1970-01-01T00:55:28Z</time>
      </trkpt>
      <trkpt lat="42.83457" lon="2.92946">
        <ele>0.39999999999998</ele>
        <time>1970-01-01T00:55:29Z</time>
      </trkpt>
      <trkpt lat="42.83458" lon="2.9294">
        <ele>0.39999999999998</ele>
        <time>1970-01-01T00:55:30Z</time>
      </trkpt>
      <trkpt lat="42.8346" lon="2.92933">
        <ele>0.39999999999998</ele>
        <time>1970-01-01T00:55:31Z</time>
      </trkpt>
      <trkpt lat="42.83461" lon="2.92927">
        <ele>0.60000000000002</ele>
        <time>1970-01-01T00:55:32Z</time>
      </trkpt>
      <trkpt lat="42.83463" lon="2.9292">
        <ele>0.60000000000002</ele>
        <time>1970-01-01T00:55:33Z</time>
      </trkpt>
      <trkpt lat="42.83465" lon="2.92913">
        <ele>0.60000000000002</ele>
        <time>1970-01-01T00:55:34Z</time>
      </trkpt>
      <trkpt lat="42.83466" lon="2.92907">
        <ele>0.60000000000002</ele>
        <time>1970-01-01T00:55:35Z</time>
      </trkpt>
      <trkpt lat="42.83468" lon="2.929">
        <ele>0.60000000000002</ele>
        <time>1970-01-01T00:55:36Z</time>
      </trkpt>
      <trkpt lat="42.83469" lon="2.92894">
        <ele>0.60000000000002</ele>
        <time>1970-01-01T00:55:37Z</time>
      </trkpt>
      <trkpt lat="42.83471" lon="2.92888">
        <ele>0.60000000000002</ele>
        <time>1970-01-01T00:55:38Z</time>
      </trkpt>
      <trkpt lat="42.83472" lon="2.92882">
        <ele>0.60000000000002</ele>
        <time>1970-01-01T00:55:39Z</time>
      </trkpt>
      <trkpt lat="42.83474" lon="2.92876">
        <ele>0.60000000000002</ele>
        <time>1970-01-01T00:55:40Z</time>
      </trkpt>
      <trkpt lat="42.83475" lon="2.9287">
        <ele>0.60000000000002</ele>
        <time>1970-01-01T00:55:41Z</time>
      </trkpt>
      <trkpt lat="42.83476" lon="2.92865">
        <ele>0.60000000000002</ele>
        <time>1970-01-01T00:55:42Z</time>
      </trkpt>
      <trkpt lat="42.83477" lon="2.9286">
        <ele>0.60000000000002</ele>
        <time>1970-01-01T00:55:43Z</time>
      </trkpt>
      <trkpt lat="42.83478" lon="2.92855">
        <ele>0.80000000000001</ele>
        <time>1970-01-01T00:55:44Z</time>
      </trkpt>
      <trkpt lat="42.83479" lon="2.9285">
        <ele>0.80000000000001</ele>
        <time>1970-01-01T00:55:45Z</time>
      </trkpt>
      <trkpt lat="42.8348" lon="2.92845">
        <ele>0.80000000000001</ele>
        <time>1970-01-01T00:55:46Z</time>
      </trkpt>
      <trkpt lat="42.83482" lon="2.9284">
        <ele>0.80000000000001</ele>
        <time>1970-01-01T00:55:47Z</time>
      </trkpt>
      <trkpt lat="42.83484" lon="2.92835">
        <ele>0.80000000000001</ele>
        <time>1970-01-01T00:55:48Z</time>
      </trkpt>
      <trkpt lat="42.83485" lon="2.92829">
        <ele>0.80000000000001</ele>
        <time>1970-01-01T00:55:49Z</time>
      </trkpt>
      <trkpt lat="42.83487" lon="2.92824">
        <ele>0.80000000000001</ele>
        <time>1970-01-01T00:55:50Z</time>
      </trkpt>
      <trkpt lat="42.83489" lon="2.92818">
        <ele>0.80000000000001</ele>
        <time>1970-01-01T00:55:51Z</time>
      </trkpt>
      <trkpt lat="42.8349" lon="2.92812">
        <ele>0.80000000000001</ele>
        <time>1970-01-01T00:55:52Z</time>
      </trkpt>
      <trkpt lat="42.83492" lon="2.92806">
        <ele>0.80000000000001</ele>
        <time>1970-01-01T00:55:53Z</time>
      </trkpt>
      <trkpt lat="42.83493" lon="2.928">
        <ele>1</ele>
        <time>1970-01-01T00:55:54Z</time>
      </trkpt>
      <trkpt lat="42.83495" lon="2.92794">
        <ele>1</ele>
        <time>1970-01-01T00:55:55Z</time>
      </trkpt>
      <trkpt lat="42.83496" lon="2.92788">
        <ele>1</ele>
        <time>1970-01-01T00:55:56Z</time>
      </trkpt>
      <trkpt lat="42.83498" lon="2.92782">
        <ele>1</ele>
        <time>1970-01-01T00:55:57Z</time>
      </trkpt>
      <trkpt lat="42.83499" lon="2.92776">
        <ele>1</ele>
        <time>1970-01-01T00:55:58Z</time>
      </trkpt>
      <trkpt lat="42.835" lon="2.9277">
        <ele>1</ele>
        <time>1970-01-01T00:55:59Z</time>
      </trkpt>
      <trkpt lat="42.83501" lon="2.92765">
        <ele>1</ele>
        <time>1970-01-01T00:56:00Z</time>
      </trkpt>
      <trkpt lat="42.83502" lon="2.92759">
        <ele>1.2</ele>
        <time>1970-01-01T00:56:01Z</time>
      </trkpt>
      <trkpt lat="42.83502" lon="2.92754">
        <ele>1.2</ele>
        <time>1970-01-01T00:56:02Z</time>
      </trkpt>
      <trkpt lat="42.835" lon="2.92749">
        <ele>1.2</ele>
        <time>1970-01-01T00:56:03Z</time>
      </trkpt>
      <trkpt lat="42.83498" lon="2.92745">
        <ele>1.2</ele>
        <time>1970-01-01T00:56:04Z</time>
      </trkpt>
      <trkpt lat="42.83496" lon="2.92744">
        <ele>1.4</ele>
        <time>1970-01-01T00:56:05Z</time>
      </trkpt>
      <trkpt lat="42.83492" lon="2.92744">
        <ele>1.4</ele>
        <time>1970-01-01T00:56:06Z</time>
      </trkpt>
      <trkpt lat="42.83489" lon="2.92744">
        <ele>1.4</ele>
        <time>1970-01-01T00:56:07Z</time>
      </trkpt>
      <trkpt lat="42.83485" lon="2.92745">
        <ele>1.4</ele>
        <time>1970-01-01T00:56:08Z</time>
      </trkpt>
      <trkpt lat="42.83481" lon="2.92746">
        <ele>1.4</ele>
        <time>1970-01-01T00:56:09Z</time>
      </trkpt>
      <trkpt lat="42.83477" lon="2.92746">
        <ele>1.4</ele>
        <time>1970-01-01T00:56:10Z</time>
      </trkpt>
      <trkpt lat="42.83472" lon="2.92747">
        <ele>1.4</ele>
        <time>1970-01-01T00:56:11Z</time>
      </trkpt>
      <trkpt lat="42.83468" lon="2.92746">
        <ele>1.4</ele>
        <time>1970-01-01T00:56:12Z</time>
      </trkpt>
      <trkpt lat="42.83463" lon="2.92745">
        <ele>1.4</ele>
        <time>1970-01-01T00:56:13Z</time>
      </trkpt>
      <trkpt lat="42.83459" lon="2.92744">
        <ele>1.4</ele>
        <time>1970-01-01T00:56:14Z</time>
      </trkpt>
      <trkpt lat="42.83455" lon="2.92743">
        <ele>1.4</ele>
        <time>1970-01-01T00:56:15Z</time>
      </trkpt>
      <trkpt lat="42.83452" lon="2.92742">
        <ele>1.4</ele>
        <time>1970-01-01T00:56:16Z</time>
      </trkpt>
      <trkpt lat="42.83448" lon="2.92741">
        <ele>1.4</ele>
        <time>1970-01-01T00:56:17Z</time>
      </trkpt>
      <trkpt lat="42.83445" lon="2.9274">
        <ele>1.4</ele>
        <time>1970-01-01T00:56:18Z</time>
      </trkpt>
      <trkpt lat="42.83442" lon="2.92738">
        <ele>1.4</ele>
        <time>1970-01-01T00:56:19Z</time>
      </trkpt>
      <trkpt lat="42.83439" lon="2.92736">
        <ele>1.4</ele>
        <time>1970-01-01T00:56:20Z</time>
      </trkpt>
      <trkpt lat="42.83436" lon="2.92734">
        <ele>1.6</ele>
        <time>1970-01-01T00:56:21Z</time>
      </trkpt>
      <trkpt lat="42.83432" lon="2.92732">
        <ele>1.6</ele>
        <time>1970-01-01T00:56:22Z</time>
      </trkpt>
      <trkpt lat="42.83429" lon="2.92729">
        <ele>1.6</ele>
        <time>1970-01-01T00:56:23Z</time>
      </trkpt>
      <trkpt lat="42.83426" lon="2.92726">
        <ele>1.8</ele>
        <time>1970-01-01T00:56:24Z</time>
      </trkpt>
      <trkpt lat="42.83423" lon="2.92723">
        <ele>1.8</ele>
        <time>1970-01-01T00:56:25Z</time>
      </trkpt>
      <trkpt lat="42.83419" lon="2.92719">
        <ele>1.8</ele>
        <time>1970-01-01T00:56:26Z</time>
      </trkpt>
      <trkpt lat="42.83416" lon="2.92714">
        <ele>1.8</ele>
        <time>1970-01-01T00:56:27Z</time>
      </trkpt>
      <trkpt lat="42.83413" lon="2.9271">
        <ele>2</ele>
        <time>1970-01-01T00:56:28Z</time>
      </trkpt>
      <trkpt lat="42.83411" lon="2.92705">
        <ele>2</ele>
        <time>1970-01-01T00:56:29Z</time>
      </trkpt>
      <trkpt lat="42.83409" lon="2.927">
        <ele>2</ele>
        <time>1970-01-01T00:56:30Z</time>
      </trkpt>
      <trkpt lat="42.83407" lon="2.92696">
        <ele>2</ele>
        <time>1970-01-01T00:56:31Z</time>
      </trkpt>
      <trkpt lat="42.83404" lon="2.92691">
        <ele>2</ele>
        <time>1970-01-01T00:56:32Z</time>
      </trkpt>
      <trkpt lat="42.83401" lon="2.92687">
        <ele>2</ele>
        <time>1970-01-01T00:56:33Z</time>
      </trkpt>
      <trkpt lat="42.83398" lon="2.92684">
        <ele>2</ele>
        <time>1970-01-01T00:56:34Z</time>
      </trkpt>
      <trkpt lat="42.83394" lon="2.92682">
        <ele>2</ele>
        <time>1970-01-01T00:56:35Z</time>
      </trkpt>
      <trkpt lat="42.83391" lon="2.92679">
        <ele>2</ele>
        <time>1970-01-01T00:56:36Z</time>
      </trkpt>
      <trkpt lat="42.83387" lon="2.92677">
        <ele>2</ele>
        <time>1970-01-01T00:56:37Z</time>
      </trkpt>
      <trkpt lat="42.83383" lon="2.92675">
        <ele>2</ele>
        <time>1970-01-01T00:56:38Z</time>
      </trkpt>
      <trkpt lat="42.83379" lon="2.92672">
        <ele>2</ele>
        <time>1970-01-01T00:56:39Z</time>
      </trkpt>
      <trkpt lat="42.83376" lon="2.92669">
        <ele>2</ele>
        <time>1970-01-01T00:56:40Z</time>
      </trkpt>
      <trkpt lat="42.83372" lon="2.92665">
        <ele>2.2</ele>
        <time>1970-01-01T00:56:41Z</time>
      </trkpt>
      <trkpt lat="42.83369" lon="2.92661">
        <ele>2.2</ele>
        <time>1970-01-01T00:56:42Z</time>
      </trkpt>
      <trkpt lat="42.83366" lon="2.92656">
        <ele>2.2</ele>
        <time>1970-01-01T00:56:43Z</time>
      </trkpt>
      <trkpt lat="42.83363" lon="2.92652">
        <ele>2.2</ele>
        <time>1970-01-01T00:56:44Z</time>
      </trkpt>
      <trkpt lat="42.83361" lon="2.92647">
        <ele>2.2</ele>
        <time>1970-01-01T00:56:45Z</time>
      </trkpt>
      <trkpt lat="42.83358" lon="2.92643">
        <ele>2.2</ele>
        <time>1970-01-01T00:56:46Z</time>
      </trkpt>
      <trkpt lat="42.83355" lon="2.92638">
        <ele>2.4</ele>
        <time>1970-01-01T00:56:47Z</time>
      </trkpt>
      <trkpt lat="42.83353" lon="2.92634">
        <ele>2.4</ele>
        <time>1970-01-01T00:56:48Z</time>
      </trkpt>
      <trkpt lat="42.8335" lon="2.9263">
        <ele>2.4</ele>
        <time>1970-01-01T00:56:49Z</time>
      </trkpt>
      <trkpt lat="42.83347" lon="2.92625">
        <ele>2.4</ele>
        <time>1970-01-01T00:56:50Z</time>
      </trkpt>
      <trkpt lat="42.83345" lon="2.92621">
        <ele>2.6</ele>
        <time>1970-01-01T00:56:51Z</time>
      </trkpt>
      <trkpt lat="42.83342" lon="2.92617">
        <ele>2.6</ele>
        <time>1970-01-01T00:56:52Z</time>
      </trkpt>
      <trkpt lat="42.83338" lon="2.92612">
        <ele>2.6</ele>
        <time>1970-01-01T00:56:53Z</time>
      </trkpt>
      <trkpt lat="42.83335" lon="2.92608">
        <ele>2.6</ele>
        <time>1970-01-01T00:56:54Z</time>
      </trkpt>
      <trkpt lat="42.83332" lon="2.92605">
        <ele>2.6</ele>
        <time>1970-01-01T00:56:55Z</time>
      </trkpt>
      <trkpt lat="42.83328" lon="2.92601">
        <ele>2.6</ele>
        <time>1970-01-01T00:56:56Z</time>
      </trkpt>
      <trkpt lat="42.83324" lon="2.92597">
        <ele>2.6</ele>
        <time>1970-01-01T00:56:57Z</time>
      </trkpt>
      <trkpt lat="42.83319" lon="2.92594">
        <ele>2.6</ele>
        <time>1970-01-01T00:56:58Z</time>
      </trkpt>
      <trkpt lat="42.83315" lon="2.9259">
        <ele>2.8</ele>
        <time>1970-01-01T00:56:59Z</time>
      </trkpt>
      <trkpt lat="42.83311" lon="2.92587">
        <ele>2.8</ele>
        <time>1970-01-01T00:57:00Z</time>
      </trkpt>
      <trkpt lat="42.83306" lon="2.92583">
        <ele>2.8</ele>
        <time>1970-01-01T00:57:01Z</time>
      </trkpt>
      <trkpt lat="42.83301" lon="2.9258">
        <ele>2.8</ele>
        <time>1970-01-01T00:57:02Z</time>
      </trkpt>
      <trkpt lat="42.83297" lon="2.92577">
        <ele>2.8</ele>
        <time>1970-01-01T00:57:03Z</time>
      </trkpt>
      <trkpt lat="42.83293" lon="2.92573">
        <ele>2.8</ele>
        <time>1970-01-01T00:57:04Z</time>
      </trkpt>
      <trkpt lat="42.83288" lon="2.92569">
        <ele>2.8</ele>
        <time>1970-01-01T00:57:05Z</time>
      </trkpt>
      <trkpt lat="42.83284" lon="2.92565">
        <ele>2.8</ele>
        <time>1970-01-01T00:57:06Z</time>
      </trkpt>
      <trkpt lat="42.8328" lon="2.92561">
        <ele>2.8</ele>
        <time>1970-01-01T00:57:07Z</time>
      </trkpt>
      <trkpt lat="42.83277" lon="2.92557">
        <ele>2.8</ele>
        <time>1970-01-01T00:57:08Z</time>
      </trkpt>
      <trkpt lat="42.83274" lon="2.92552">
        <ele>2.8</ele>
        <time>1970-01-01T00:57:09Z</time>
      </trkpt>
      <trkpt lat="42.83271" lon="2.92547">
        <ele>3</ele>
        <time>1970-01-01T00:57:10Z</time>
      </trkpt>
      <trkpt lat="42.83267" lon="2.92542">
        <ele>3</ele>
        <time>1970-01-01T00:57:11Z</time>
      </trkpt>
      <trkpt lat="42.83263" lon="2.92537">
        <ele>3</ele>
        <time>1970-01-01T00:57:12Z</time>
      </trkpt>
      <trkpt lat="42.8326" lon="2.92532">
        <ele>3</ele>
        <time>1970-01-01T00:57:13Z</time>
      </trkpt>
      <trkpt lat="42.83257" lon="2.92526">
        <ele>3.2</ele>
        <time>1970-01-01T00:57:14Z</time>
      </trkpt>
      <trkpt lat="42.83253" lon="2.92521">
        <ele>3.2</ele>
        <time>1970-01-01T00:57:15Z</time>
      </trkpt>
      <trkpt lat="42.8325" lon="2.92516">
        <ele>3.2</ele>
        <time>1970-01-01T00:57:16Z</time>
      </trkpt>
      <trkpt lat="42.83247" lon="2.92511">
        <ele>3.2</ele>
        <time>1970-01-01T00:57:17Z</time>
      </trkpt>
      <trkpt lat="42.83244" lon="2.92506">
        <ele>3.4</ele>
        <time>1970-01-01T00:57:18Z</time>
      </trkpt>
      <trkpt lat="42.83241" lon="2.92501">
        <ele>3.4</ele>
        <time>1970-01-01T00:57:19Z</time>
      </trkpt>
      <trkpt lat="42.83238" lon="2.92495">
        <ele>3.4</ele>
        <time>1970-01-01T00:57:20Z</time>
      </trkpt>
      <trkpt lat="42.83235" lon="2.9249">
        <ele>3.6</ele>
        <time>1970-01-01T00:57:21Z</time>
      </trkpt>
      <trkpt lat="42.83232" lon="2.92485">
        <ele>3.6</ele>
        <time>1970-01-01T00:57:22Z</time>
      </trkpt>
      <trkpt lat="42.8323" lon="2.92481">
        <ele>3.6</ele>
        <time>1970-01-01T00:57:23Z</time>
      </trkpt>
      <trkpt lat="42.83228" lon="2.92476">
        <ele>3.6</ele>
        <time>1970-01-01T00:57:24Z</time>
      </trkpt>
      <trkpt lat="42.83225" lon="2.92472">
        <ele>3.8</ele>
        <time>1970-01-01T00:57:25Z</time>
      </trkpt>
      <trkpt lat="42.83224" lon="2.92468">
        <ele>3.8</ele>
        <time>1970-01-01T00:57:26Z</time>
      </trkpt>
      <trkpt lat="42.83222" lon="2.92464">
        <ele>3.8</ele>
        <time>1970-01-01T00:57:27Z</time>
      </trkpt>
      <trkpt lat="42.8322" lon="2.9246">
        <ele>3.8</ele>
        <time>1970-01-01T00:57:28Z</time>
      </trkpt>
      <trkpt lat="42.83218" lon="2.92456">
        <ele>3.8</ele>
        <time>1970-01-01T00:57:29Z</time>
      </trkpt>
      <trkpt lat="42.83216" lon="2.92452">
        <ele>3.8</ele>
        <time>1970-01-01T00:57:30Z</time>
      </trkpt>
      <trkpt lat="42.83215" lon="2.92448">
        <ele>4</ele>
        <time>1970-01-01T00:57:31Z</time>
      </trkpt>
      <trkpt lat="42.83215" lon="2.92447">
        <ele>4</ele>
        <time>1970-01-01T00:57:32Z</time>
      </trkpt>
      <trkpt lat="42.83217" lon="2.92442">
        <ele>3.8</ele>
        <time>1970-01-01T00:57:33Z</time>
      </trkpt>
      <trkpt lat="42.83218" lon="2.92439">
        <ele>3.8</ele>
        <time>1970-01-01T00:57:34Z</time>
      </trkpt>
      <trkpt lat="42.8322" lon="2.92434">
        <ele>3.6</ele>
        <time>1970-01-01T00:57:35Z</time>
      </trkpt>
      <trkpt lat="42.83222" lon="2.92429">
        <ele>3.6</ele>
        <time>1970-01-01T00:57:36Z</time>
      </trkpt>
      <trkpt lat="42.83224" lon="2.92422">
        <ele>3.4</ele>
        <time>1970-01-01T00:57:37Z</time>
      </trkpt>
      <trkpt lat="42.83225" lon="2.92416">
        <ele>3.4</ele>
        <time>1970-01-01T00:57:38Z</time>
      </trkpt>
      <trkpt lat="42.83227" lon="2.9241">
        <ele>3.4</ele>
        <time>1970-01-01T00:57:39Z</time>
      </trkpt>
      <trkpt lat="42.83228" lon="2.92403">
        <ele>3.4</ele>
        <time>1970-01-01T00:57:40Z</time>
      </trkpt>
      <trkpt lat="42.8323" lon="2.92397">
        <ele>3.2</ele>
        <time>1970-01-01T00:57:41Z</time>
      </trkpt>
      <trkpt lat="42.83232" lon="2.9239">
        <ele>3.2</ele>
        <time>1970-01-01T00:57:42Z</time>
      </trkpt>
      <trkpt lat="42.83233" lon="2.92384">
        <ele>3.2</ele>
        <time>1970-01-01T00:57:43Z</time>
      </trkpt>
      <trkpt lat="42.83235" lon="2.92377">
        <ele>3.2</ele>
        <time>1970-01-01T00:57:44Z</time>
      </trkpt>
      <trkpt lat="42.83237" lon="2.9237">
        <ele>3.2</ele>
        <time>1970-01-01T00:57:45Z</time>
      </trkpt>
      <trkpt lat="42.83239" lon="2.92364">
        <ele>3.2</ele>
        <time>1970-01-01T00:57:46Z</time>
      </trkpt>
      <trkpt lat="42.83243" lon="2.92358">
        <ele>3.2</ele>
        <time>1970-01-01T00:57:47Z</time>
      </trkpt>
      <trkpt lat="42.83246" lon="2.92353">
        <ele>3.2</ele>
        <time>1970-01-01T00:57:48Z</time>
      </trkpt>
      <trkpt lat="42.8325" lon="2.92349">
        <ele>3.2</ele>
        <time>1970-01-01T00:57:49Z</time>
      </trkpt>
      <trkpt lat="42.83255" lon="2.92345">
        <ele>3.2</ele>
        <time>1970-01-01T00:57:50Z</time>
      </trkpt>
      <trkpt lat="42.83259" lon="2.92342">
        <ele>3.2</ele>
        <time>1970-01-01T00:57:51Z</time>
      </trkpt>
      <trkpt lat="42.83264" lon="2.92339">
        <ele>3.2</ele>
        <time>1970-01-01T00:57:52Z</time>
      </trkpt>
      <trkpt lat="42.83269" lon="2.92336">
        <ele>3.2</ele>
        <time>1970-01-01T00:57:53Z</time>
      </trkpt>
      <trkpt lat="42.83274" lon="2.92333">
        <ele>3.2</ele>
        <time>1970-01-01T00:57:54Z</time>
      </trkpt>
      <trkpt lat="42.83279" lon="2.9233">
        <ele>3.4</ele>
        <time>1970-01-01T00:57:55Z</time>
      </trkpt>
      <trkpt lat="42.83283" lon="2.92328">
        <ele>3.4</ele>
        <time>1970-01-01T00:57:56Z</time>
      </trkpt>
      <trkpt lat="42.83288" lon="2.92325">
        <ele>3.4</ele>
        <time>1970-01-01T00:57:57Z</time>
      </trkpt>
      <trkpt lat="42.83292" lon="2.92322">
        <ele>3.6</ele>
        <time>1970-01-01T00:57:58Z</time>
      </trkpt>
      <trkpt lat="42.83296" lon="2.9232">
        <ele>3.6</ele>
        <time>1970-01-01T00:57:59Z</time>
      </trkpt>
      <trkpt lat="42.83301" lon="2.92318">
        <ele>3.8</ele>
        <time>1970-01-01T00:58:00Z</time>
      </trkpt>
      <trkpt lat="42.83306" lon="2.92316">
        <ele>3.8</ele>
        <time>1970-01-01T00:58:01Z</time>
      </trkpt>
      <trkpt lat="42.8331" lon="2.92313">
        <ele>4</ele>
        <time>1970-01-01T00:58:02Z</time>
      </trkpt>
      <trkpt lat="42.83314" lon="2.92311">
        <ele>4.2</ele>
        <time>1970-01-01T00:58:03Z</time>
      </trkpt>
      <trkpt lat="42.83318" lon="2.92309">
        <ele>4.2</ele>
        <time>1970-01-01T00:58:04Z</time>
      </trkpt>
      <trkpt lat="42.83323" lon="2.92307">
        <ele>4.2</ele>
        <time>1970-01-01T00:58:05Z</time>
      </trkpt>
      <trkpt lat="42.83327" lon="2.92304">
        <ele>4.4</ele>
        <time>1970-01-01T00:58:06Z</time>
      </trkpt>
      <trkpt lat="42.83331" lon="2.92302">
        <ele>4.2</ele>
        <time>1970-01-01T00:58:07Z</time>
      </trkpt>
      <trkpt lat="42.83336" lon="2.923">
        <ele>4.2</ele>
        <time>1970-01-01T00:58:08Z</time>
      </trkpt>
      <trkpt lat="42.83341" lon="2.92298">
        <ele>4.2</ele>
        <time>1970-01-01T00:58:09Z</time>
      </trkpt>
      <trkpt lat="42.83346" lon="2.92296">
        <ele>4.2</ele>
        <time>1970-01-01T00:58:10Z</time>
      </trkpt>
      <trkpt lat="42.8335" lon="2.92294">
        <ele>4.2</ele>
        <time>1970-01-01T00:58:11Z</time>
      </trkpt>
      <trkpt lat="42.83355" lon="2.92292">
        <ele>4</ele>
        <time>1970-01-01T00:58:12Z</time>
      </trkpt>
      <trkpt lat="42.83359" lon="2.9229">
        <ele>4</ele>
        <time>1970-01-01T00:58:13Z</time>
      </trkpt>
      <trkpt lat="42.83363" lon="2.92287">
        <ele>4</ele>
        <time>1970-01-01T00:58:14Z</time>
      </trkpt>
      <trkpt lat="42.83368" lon="2.92285">
        <ele>4</ele>
        <time>1970-01-01T00:58:15Z</time>
      </trkpt>
      <trkpt lat="42.83372" lon="2.92283">
        <ele>3.8</ele>
        <time>1970-01-01T00:58:16Z</time>
      </trkpt>
      <trkpt lat="42.83376" lon="2.92281">
        <ele>3.8</ele>
        <time>1970-01-01T00:58:17Z</time>
      </trkpt>
      <trkpt lat="42.83379" lon="2.92279">
        <ele>3.8</ele>
        <time>1970-01-01T00:58:18Z</time>
      </trkpt>
      <trkpt lat="42.83383" lon="2.92277">
        <ele>3.8</ele>
        <time>1970-01-01T00:58:19Z</time>
      </trkpt>
      <trkpt lat="42.83386" lon="2.92275">
        <ele>4</ele>
        <time>1970-01-01T00:58:20Z</time>
      </trkpt>
      <trkpt lat="42.83391" lon="2.92273">
        <ele>4</ele>
        <time>1970-01-01T00:58:21Z</time>
      </trkpt>
      <trkpt lat="42.83395" lon="2.92272">
        <ele>4</ele>
        <time>1970-01-01T00:58:22Z</time>
      </trkpt>
      <trkpt lat="42.83399" lon="2.92271">
        <ele>3.8</ele>
        <time>1970-01-01T00:58:23Z</time>
      </trkpt>
      <trkpt lat="42.83404" lon="2.92269">
        <ele>3.8</ele>
        <time>1970-01-01T00:58:24Z</time>
      </trkpt>
      <trkpt lat="42.83408" lon="2.92267">
        <ele>3.8</ele>
        <time>1970-01-01T00:58:25Z</time>
      </trkpt>
      <trkpt lat="42.83413" lon="2.92266">
        <ele>3.8</ele>
        <time>1970-01-01T00:58:26Z</time>
      </trkpt>
      <trkpt lat="42.83417" lon="2.92264">
        <ele>3.8</ele>
        <time>1970-01-01T00:58:27Z</time>
      </trkpt>
      <trkpt lat="42.83422" lon="2.92262">
        <ele>3.8</ele>
        <time>1970-01-01T00:58:28Z</time>
      </trkpt>
      <trkpt lat="42.83425" lon="2.9226">
        <ele>3.8</ele>
        <time>1970-01-01T00:58:29Z</time>
      </trkpt>
      <trkpt lat="42.83429" lon="2.92259">
        <ele>3.8</ele>
        <time>1970-01-01T00:58:30Z</time>
      </trkpt>
      <trkpt lat="42.83433" lon="2.92257">
        <ele>3.8</ele>
        <time>1970-01-01T00:58:31Z</time>
      </trkpt>
      <trkpt lat="42.83437" lon="2.92256">
        <ele>3.8</ele>
        <time>1970-01-01T00:58:32Z</time>
      </trkpt>
      <trkpt lat="42.83441" lon="2.92255">
        <ele>3.8</ele>
        <time>1970-01-01T00:58:33Z</time>
      </trkpt>
      <trkpt lat="42.83445" lon="2.92254">
        <ele>4</ele>
        <time>1970-01-01T00:58:34Z</time>
      </trkpt>
      <trkpt lat="42.83448" lon="2.92253">
        <ele>4</ele>
        <time>1970-01-01T00:58:35Z</time>
      </trkpt>
      <trkpt lat="42.83452" lon="2.92251">
        <ele>4</ele>
        <time>1970-01-01T00:58:36Z</time>
      </trkpt>
      <trkpt lat="42.83455" lon="2.9225">
        <ele>4</ele>
        <time>1970-01-01T00:58:37Z</time>
      </trkpt>
      <trkpt lat="42.83459" lon="2.92248">
        <ele>4.2</ele>
        <time>1970-01-01T00:58:38Z</time>
      </trkpt>
      <trkpt lat="42.83463" lon="2.92247">
        <ele>4.2</ele>
        <time>1970-01-01T00:58:39Z</time>
      </trkpt>
      <trkpt lat="42.83466" lon="2.92246">
        <ele>4.2</ele>
        <time>1970-01-01T00:58:40Z</time>
      </trkpt>
      <trkpt lat="42.8347" lon="2.92245">
        <ele>4.2</ele>
        <time>1970-01-01T00:58:41Z</time>
      </trkpt>
      <trkpt lat="42.83474" lon="2.92243">
        <ele>4.4</ele>
        <time>1970-01-01T00:58:42Z</time>
      </trkpt>
      <trkpt lat="42.83477" lon="2.92242">
        <ele>4.4</ele>
        <time>1970-01-01T00:58:43Z</time>
      </trkpt>
      <trkpt lat="42.83481" lon="2.92241">
        <ele>4.4</ele>
        <time>1970-01-01T00:58:44Z</time>
      </trkpt>
      <trkpt lat="42.83485" lon="2.9224">
        <ele>4.4</ele>
        <time>1970-01-01T00:58:45Z</time>
      </trkpt>
      <trkpt lat="42.83489" lon="2.92239">
        <ele>4.4</ele>
        <time>1970-01-01T00:58:46Z</time>
      </trkpt>
      <trkpt lat="42.83493" lon="2.92238">
        <ele>4.4</ele>
        <time>1970-01-01T00:58:47Z</time>
      </trkpt>
      <trkpt lat="42.83497" lon="2.92237">
        <ele>4.4</ele>
        <time>1970-01-01T00:58:48Z</time>
      </trkpt>
      <trkpt lat="42.835" lon="2.92236">
        <ele>4.4</ele>
        <time>1970-01-01T00:58:49Z</time>
      </trkpt>
      <trkpt lat="42.83504" lon="2.92236">
        <ele>4.4</ele>
        <time>1970-01-01T00:58:50Z</time>
      </trkpt>
      <trkpt lat="42.83508" lon="2.92235">
        <ele>4.4</ele>
        <time>1970-01-01T00:58:51Z</time>
      </trkpt>
      <trkpt lat="42.83511" lon="2.92234">
        <ele>4.4</ele>
        <time>1970-01-01T00:58:52Z</time>
      </trkpt>
      <trkpt lat="42.83515" lon="2.92233">
        <ele>4.2</ele>
        <time>1970-01-01T00:58:53Z</time>
      </trkpt>
      <trkpt lat="42.83519" lon="2.92232">
        <ele>4.2</ele>
        <time>1970-01-01T00:58:54Z</time>
      </trkpt>
      <trkpt lat="42.83522" lon="2.92231">
        <ele>4.2</ele>
        <time>1970-01-01T00:58:55Z</time>
      </trkpt>
      <trkpt lat="42.83526" lon="2.92231">
        <ele>4.2</ele>
        <time>1970-01-01T00:58:56Z</time>
      </trkpt>
      <trkpt lat="42.83529" lon="2.9223">
        <ele>4.2</ele>
        <time>1970-01-01T00:58:57Z</time>
      </trkpt>
      <trkpt lat="42.83533" lon="2.9223">
        <ele>4.2</ele>
        <time>1970-01-01T00:58:58Z</time>
      </trkpt>
      <trkpt lat="42.83536" lon="2.92229">
        <ele>4</ele>
        <time>1970-01-01T00:58:59Z</time>
      </trkpt>
      <trkpt lat="42.83539" lon="2.92229">
        <ele>4</ele>
        <time>1970-01-01T00:59:00Z</time>
      </trkpt>
      <trkpt lat="42.83542" lon="2.92228">
        <ele>4</ele>
        <time>1970-01-01T00:59:01Z</time>
      </trkpt>
      <trkpt lat="42.83545" lon="2.92228">
        <ele>4</ele>
        <time>1970-01-01T00:59:02Z</time>
      </trkpt>
      <trkpt lat="42.83548" lon="2.92228">
        <ele>4</ele>
        <time>1970-01-01T00:59:03Z</time>
      </trkpt>
      <trkpt lat="42.83549" lon="2.92228">
        <ele>4</ele>
        <time>1970-01-01T00:59:04Z</time>
      </trkpt>
      <trkpt lat="42.8355" lon="2.92228">
        <ele>4</ele>
        <time>1970-01-01T00:59:05Z</time>
      </trkpt>
      <trkpt lat="42.8355" lon="2.92227">
        <ele>4</ele>
        <time>1970-01-01T00:59:06Z</time>
      </trkpt>
      <trkpt lat="42.8355" lon="2.92225">
        <ele>4</ele>
        <time>1970-01-01T00:59:07Z</time>
      </trkpt>
      <trkpt lat="42.8355" lon="2.92224">
        <ele>4</ele>
        <time>1970-01-01T00:59:08Z</time>
      </trkpt>
      <trkpt lat="42.8355" lon="2.92223">
        <ele>4</ele>
        <time>1970-01-01T00:59:09Z</time>
      </trkpt>
      <trkpt lat="42.83549" lon="2.92223">
        <ele>4</ele>
        <time>1970-01-01T00:59:10Z</time>
      </trkpt>
      <trkpt lat="42.83549" lon="2.92222">
        <ele>4</ele>
        <time>1970-01-01T00:59:11Z</time>
      </trkpt>
      <trkpt lat="42.83549" lon="2.92221">
        <ele>4</ele>
        <time>1970-01-01T00:59:12Z</time>
      </trkpt>
      <trkpt lat="42.83549" lon="2.9222">
        <ele>4</ele>
        <time>1970-01-01T00:59:13Z</time>
      </trkpt>
      <trkpt lat="42.83549" lon="2.92219">
        <ele>4</ele>
        <time>1970-01-01T00:59:14Z</time>
      </trkpt>
      <trkpt lat="42.83549" lon="2.92218">
        <ele>4.2</ele>
        <time>1970-01-01T00:59:15Z</time>
      </trkpt>
      <trkpt lat="42.83548" lon="2.92218">
        <ele>4.2</ele>
        <time>1970-01-01T00:59:16Z</time>
      </trkpt>
      <trkpt lat="42.83548" lon="2.92217">
        <ele>4.2</ele>
        <time>1970-01-01T00:59:17Z</time>
      </trkpt>
      <trkpt lat="42.83548" lon="2.92212">
        <ele>4.2</ele>
        <time>1970-01-01T00:59:18Z</time>
      </trkpt>
      <trkpt lat="42.83548" lon="2.92207">
        <ele>4.2</ele>
        <time>1970-01-01T00:59:19Z</time>
      </trkpt>
      <trkpt lat="42.83547" lon="2.92202">
        <ele>4.4</ele>
        <time>1970-01-01T00:59:20Z</time>
      </trkpt>
      <trkpt lat="42.83546" lon="2.92197">
        <ele>4.4</ele>
        <time>1970-01-01T00:59:21Z</time>
      </trkpt>
      <trkpt lat="42.83545" lon="2.92193">
        <ele>4.6</ele>
        <time>1970-01-01T00:59:22Z</time>
      </trkpt>
      <trkpt lat="42.83545" lon="2.92188">
        <ele>4.6</ele>
        <time>1970-01-01T00:59:23Z</time>
      </trkpt>
      <trkpt lat="42.83544" lon="2.92184">
        <ele>4.8</ele>
        <time>1970-01-01T00:59:24Z</time>
      </trkpt>
      <trkpt lat="42.83542" lon="2.9218">
        <ele>4.8</ele>
        <time>1970-01-01T00:59:25Z</time>
      </trkpt>
      <trkpt lat="42.83542" lon="2.92175">
        <ele>5</ele>
        <time>1970-01-01T00:59:26Z</time>
      </trkpt>
      <trkpt lat="42.83542" lon="2.92173">
        <ele>5</ele>
        <time>1970-01-01T00:59:27Z</time>
      </trkpt>
      <trkpt lat="42.83544" lon="2.9217">
        <ele>5.2</ele>
        <time>1970-01-01T00:59:28Z</time>
      </trkpt>
      <trkpt lat="42.83546" lon="2.92167">
        <ele>5.2</ele>
        <time>1970-01-01T00:59:29Z</time>
      </trkpt>
      <trkpt lat="42.83547" lon="2.92164">
        <ele>5.2</ele>
        <time>1970-01-01T00:59:30Z</time>
      </trkpt>
      <trkpt lat="42.8355" lon="2.9216">
        <ele>5.4</ele>
        <time>1970-01-01T00:59:31Z</time>
      </trkpt>
      <trkpt lat="42.83551" lon="2.92159">
        <ele>5.4</ele>
        <time>1970-01-01T00:59:32Z</time>
      </trkpt>
      <trkpt lat="42.83553" lon="2.92156">
        <ele>5.4</ele>
        <time>1970-01-01T00:59:33Z</time>
      </trkpt>
      <trkpt lat="42.83555" lon="2.92153">
        <ele>5.6</ele>
        <time>1970-01-01T00:59:34Z</time>
      </trkpt>
      <trkpt lat="42.83557" lon="2.9215">
        <ele>5.6</ele>
        <time>1970-01-01T00:59:35Z</time>
      </trkpt>
      <trkpt lat="42.83559" lon="2.92147">
        <ele>5.8</ele>
        <time>1970-01-01T00:59:36Z</time>
      </trkpt>
      <trkpt lat="42.8356" lon="2.92144">
        <ele>5.8</ele>
        <time>1970-01-01T00:59:37Z</time>
      </trkpt>
      <trkpt lat="42.83563" lon="2.9214">
        <ele>6</ele>
        <time>1970-01-01T00:59:38Z</time>
      </trkpt>
      <trkpt lat="42.83565" lon="2.92137">
        <ele>6</ele>
        <time>1970-01-01T00:59:39Z</time>
      </trkpt>
      <trkpt lat="42.83567" lon="2.92133">
        <ele>6.2</ele>
        <time>1970-01-01T00:59:40Z</time>
      </trkpt>
      <trkpt lat="42.83569" lon="2.92131">
        <ele>6.2</ele>
        <time>1970-01-01T00:59:41Z</time>
      </trkpt>
      <trkpt lat="42.83571" lon="2.92127">
        <ele>6.4</ele>
        <time>1970-01-01T00:59:42Z</time>
      </trkpt>
      <trkpt lat="42.83573" lon="2.92124">
        <ele>6.4</ele>
        <time>1970-01-01T00:59:43Z</time>
      </trkpt>
      <trkpt lat="42.83575" lon="2.92121">
        <ele>6.6</ele>
        <time>1970-01-01T00:59:44Z</time>
      </trkpt>
      <trkpt lat="42.83577" lon="2.92117">
        <ele>6.6</ele>
        <time>1970-01-01T00:59:45Z</time>
      </trkpt>
      <trkpt lat="42.8358" lon="2.92114">
        <ele>6.8</ele>
        <time>1970-01-01T00:59:46Z</time>
      </trkpt>
      <trkpt lat="42.83582" lon="2.92111">
        <ele>6.8</ele>
        <time>1970-01-01T00:59:47Z</time>
      </trkpt>
      <trkpt lat="42.83584" lon="2.92108">
        <ele>7</ele>
        <time>1970-01-01T00:59:48Z</time>
      </trkpt>
      <trkpt lat="42.83587" lon="2.92105">
        <ele>7</ele>
        <time>1970-01-01T00:59:49Z</time>
      </trkpt>
      <trkpt lat="42.83588" lon="2.92102">
        <ele>7</ele>
        <time>1970-01-01T00:59:50Z</time>
      </trkpt>
      <trkpt lat="42.8359" lon="2.92099">
        <ele>7.2</ele>
        <time>1970-01-01T00:59:51Z</time>
      </trkpt>
      <trkpt lat="42.83592" lon="2.92096">
        <ele>7.2</ele>
        <time>1970-01-01T00:59:52Z</time>
      </trkpt>
      <trkpt lat="42.83594" lon="2.92093">
        <ele>7.2</ele>
        <time>1970-01-01T00:59:53Z</time>
      </trkpt>
      <trkpt lat="42.83596" lon="2.92089">
        <ele>7.4</ele>
        <time>1970-01-01T00:59:54Z</time>
      </trkpt>
      <trkpt lat="42.83597" lon="2.92086">
        <ele>7.4</ele>
        <time>1970-01-01T00:59:55Z</time>
      </trkpt>
      <trkpt lat="42.83598" lon="2.92082">
        <ele>7.6</ele>
        <time>1970-01-01T00:59:56Z</time>
      </trkpt>
      <trkpt lat="42.83598" lon="2.92078">
        <ele>7.6</ele>
        <time>1970-01-01T00:59:57Z</time>
      </trkpt>
      <trkpt lat="42.83599" lon="2.92074">
        <ele>7.6</ele>
        <time>1970-01-01T00:59:58Z</time>
      </trkpt>
      <trkpt lat="42.83597" lon="2.9207">
        <ele>7.8</ele>
        <time>1970-01-01T00:59:59Z</time>
      </trkpt>
      <trkpt lat="42.83596" lon="2.92067">
        <ele>7.8</ele>
        <time>1970-01-01T01:00:00Z</time>
      </trkpt>
      <trkpt lat="42.83594" lon="2.92063">
        <ele>7.8</ele>
        <time>1970-01-01T01:00:01Z</time>
      </trkpt>
      <trkpt lat="42.83593" lon="2.9206">
        <ele>7.8</ele>
        <time>1970-01-01T01:00:02Z</time>
      </trkpt>
      <trkpt lat="42.83592" lon="2.92056">
        <ele>7.8</ele>
        <time>1970-01-01T01:00:03Z</time>
      </trkpt>
      <trkpt lat="42.8359" lon="2.92052">
        <ele>8</ele>
        <time>1970-01-01T01:00:04Z</time>
      </trkpt>
      <trkpt lat="42.83589" lon="2.92048">
        <ele>8</ele>
        <time>1970-01-01T01:00:05Z</time>
      </trkpt>
      <trkpt lat="42.83587" lon="2.92044">
        <ele>8</ele>
        <time>1970-01-01T01:00:06Z</time>
      </trkpt>
      <trkpt lat="42.83585" lon="2.92041">
        <ele>8</ele>
        <time>1970-01-01T01:00:07Z</time>
      </trkpt>
      <trkpt lat="42.83583" lon="2.92036">
        <ele>8.2</ele>
        <time>1970-01-01T01:00:08Z</time>
      </trkpt>
      <trkpt lat="42.83582" lon="2.92032">
        <ele>8.2</ele>
        <time>1970-01-01T01:00:09Z</time>
      </trkpt>
      <trkpt lat="42.83581" lon="2.92027">
        <ele>8.2</ele>
        <time>1970-01-01T01:00:10Z</time>
      </trkpt>
      <trkpt lat="42.83579" lon="2.92022">
        <ele>8.2</ele>
        <time>1970-01-01T01:00:11Z</time>
      </trkpt>
      <trkpt lat="42.83577" lon="2.92018">
        <ele>8.2</ele>
        <time>1970-01-01T01:00:12Z</time>
      </trkpt>
      <trkpt lat="42.83575" lon="2.92014">
        <ele>8.2</ele>
        <time>1970-01-01T01:00:13Z</time>
      </trkpt>
      <trkpt lat="42.83574" lon="2.92009">
        <ele>8.4</ele>
        <time>1970-01-01T01:00:14Z</time>
      </trkpt>
      <trkpt lat="42.83572" lon="2.92005">
        <ele>8.4</ele>
        <time>1970-01-01T01:00:15Z</time>
      </trkpt>
      <trkpt lat="42.83571" lon="2.92">
        <ele>8.4</ele>
        <time>1970-01-01T01:00:16Z</time>
      </trkpt>
      <trkpt lat="42.8357" lon="2.91995">
        <ele>8.4</ele>
        <time>1970-01-01T01:00:17Z</time>
      </trkpt>
      <trkpt lat="42.83568" lon="2.91991">
        <ele>8.6</ele>
        <time>1970-01-01T01:00:18Z</time>
      </trkpt>
      <trkpt lat="42.83567" lon="2.91987">
        <ele>8.6</ele>
        <time>1970-01-01T01:00:19Z</time>
      </trkpt>
      <trkpt lat="42.83565" lon="2.91983">
        <ele>8.8</ele>
        <time>1970-01-01T01:00:20Z</time>
      </trkpt>
      <trkpt lat="42.83566" lon="2.91978">
        <ele>8.8</ele>
        <time>1970-01-01T01:00:21Z</time>
      </trkpt>
      <trkpt lat="42.83565" lon="2.91975">
        <ele>8.8</ele>
        <time>1970-01-01T01:00:22Z</time>
      </trkpt>
      <trkpt lat="42.83567" lon="2.91974">
        <ele>8.8</ele>
        <time>1970-01-01T01:00:23Z</time>
      </trkpt>
      <trkpt lat="42.8357" lon="2.91975">
        <ele>9</ele>
        <time>1970-01-01T01:00:24Z</time>
      </trkpt>
      <trkpt lat="42.83574" lon="2.91976">
        <ele>9</ele>
        <time>1970-01-01T01:00:25Z</time>
      </trkpt>
      <trkpt lat="42.83577" lon="2.91978">
        <ele>9</ele>
        <time>1970-01-01T01:00:26Z</time>
      </trkpt>
      <trkpt lat="42.83581" lon="2.9198">
        <ele>9</ele>
        <time>1970-01-01T01:00:27Z</time>
      </trkpt>
      <trkpt lat="42.83584" lon="2.91982">
        <ele>9</ele>
        <time>1970-01-01T01:00:28Z</time>
      </trkpt>
      <trkpt lat="42.83587" lon="2.91984">
        <ele>9</ele>
        <time>1970-01-01T01:00:29Z</time>
      </trkpt>
      <trkpt lat="42.83591" lon="2.91985">
        <ele>9</ele>
        <time>1970-01-01T01:00:30Z</time>
      </trkpt>
      <trkpt lat="42.83594" lon="2.91987">
        <ele>9</ele>
        <time>1970-01-01T01:00:31Z</time>
      </trkpt>
      <trkpt lat="42.83598" lon="2.91988">
        <ele>9</ele>
        <time>1970-01-01T01:00:32Z</time>
      </trkpt>
      <trkpt lat="42.83601" lon="2.91989">
        <ele>9</ele>
        <time>1970-01-01T01:00:33Z</time>
      </trkpt>
      <trkpt lat="42.83605" lon="2.9199">
        <ele>9</ele>
        <time>1970-01-01T01:00:34Z</time>
      </trkpt>
      <trkpt lat="42.83608" lon="2.91989">
        <ele>9</ele>
        <time>1970-01-01T01:00:35Z</time>
      </trkpt>
      <trkpt lat="42.83612" lon="2.91988">
        <ele>9</ele>
        <time>1970-01-01T01:00:36Z</time>
      </trkpt>
      <trkpt lat="42.83615" lon="2.91987">
        <ele>9</ele>
        <time>1970-01-01T01:00:37Z</time>
      </trkpt>
      <trkpt lat="42.83619" lon="2.91986">
        <ele>9</ele>
        <time>1970-01-01T01:00:38Z</time>
      </trkpt>
      <trkpt lat="42.83622" lon="2.91986">
        <ele>9.2</ele>
        <time>1970-01-01T01:00:39Z</time>
      </trkpt>
      <trkpt lat="42.83626" lon="2.91986">
        <ele>9.2</ele>
        <time>1970-01-01T01:00:40Z</time>
      </trkpt>
      <trkpt lat="42.83629" lon="2.91987">
        <ele>9.2</ele>
        <time>1970-01-01T01:00:41Z</time>
      </trkpt>
      <trkpt lat="42.83633" lon="2.91987">
        <ele>9.2</ele>
        <time>1970-01-01T01:00:42Z</time>
      </trkpt>
      <trkpt lat="42.83637" lon="2.91988">
        <ele>9.2</ele>
        <time>1970-01-01T01:00:43Z</time>
      </trkpt>
      <trkpt lat="42.83641" lon="2.91989">
        <ele>9.2</ele>
        <time>1970-01-01T01:00:44Z</time>
      </trkpt>
      <trkpt lat="42.83645" lon="2.91989">
        <ele>9.2</ele>
        <time>1970-01-01T01:00:45Z</time>
      </trkpt>
      <trkpt lat="42.83649" lon="2.91988">
        <ele>9.2</ele>
        <time>1970-01-01T01:00:46Z</time>
      </trkpt>
      <trkpt lat="42.83652" lon="2.91987">
        <ele>9.2</ele>
        <time>1970-01-01T01:00:47Z</time>
      </trkpt>
      <trkpt lat="42.83655" lon="2.91986">
        <ele>9.2</ele>
        <time>1970-01-01T01:00:48Z</time>
      </trkpt>
      <trkpt lat="42.83658" lon="2.91985">
        <ele>9.2</ele>
        <time>1970-01-01T01:00:49Z</time>
      </trkpt>
      <trkpt lat="42.83662" lon="2.91983">
        <ele>9.2</ele>
        <time>1970-01-01T01:00:50Z</time>
      </trkpt>
      <trkpt lat="42.83665" lon="2.91981">
        <ele>9.2</ele>
        <time>1970-01-01T01:00:51Z</time>
      </trkpt>
      <trkpt lat="42.83668" lon="2.91979">
        <ele>9.4</ele>
        <time>1970-01-01T01:00:52Z</time>
      </trkpt>
      <trkpt lat="42.83672" lon="2.91977">
        <ele>9.4</ele>
        <time>1970-01-01T01:00:53Z</time>
      </trkpt>
      <trkpt lat="42.83675" lon="2.91975">
        <ele>9.4</ele>
        <time>1970-01-01T01:00:54Z</time>
      </trkpt>
      <trkpt lat="42.83678" lon="2.91973">
        <ele>9.4</ele>
        <time>1970-01-01T01:00:55Z</time>
      </trkpt>
      <trkpt lat="42.83681" lon="2.91971">
        <ele>9.4</ele>
        <time>1970-01-01T01:00:56Z</time>
      </trkpt>
      <trkpt lat="42.83685" lon="2.91969">
        <ele>9.6</ele>
        <time>1970-01-01T01:00:57Z</time>
      </trkpt>
      <trkpt lat="42.83688" lon="2.91967">
        <ele>9.6</ele>
        <time>1970-01-01T01:00:58Z</time>
      </trkpt>
      <trkpt lat="42.83691" lon="2.91964">
        <ele>9.6</ele>
        <time>1970-01-01T01:00:59Z</time>
      </trkpt>
      <trkpt lat="42.83695" lon="2.91962">
        <ele>9.6</ele>
        <time>1970-01-01T01:01:00Z</time>
      </trkpt>
      <trkpt lat="42.83698" lon="2.9196">
        <ele>9.8</ele>
        <time>1970-01-01T01:01:01Z</time>
      </trkpt>
      <trkpt lat="42.83701" lon="2.91957">
        <ele>9.8</ele>
        <time>1970-01-01T01:01:02Z</time>
      </trkpt>
      <trkpt lat="42.83704" lon="2.91954">
        <ele>10</ele>
        <time>1970-01-01T01:01:03Z</time>
      </trkpt>
      <trkpt lat="42.83707" lon="2.91951">
        <ele>10</ele>
        <time>1970-01-01T01:01:04Z</time>
      </trkpt>
      <trkpt lat="42.8371" lon="2.91947">
        <ele>10.2</ele>
        <time>1970-01-01T01:01:05Z</time>
      </trkpt>
      <trkpt lat="42.83712" lon="2.91943">
        <ele>10.2</ele>
        <time>1970-01-01T01:01:06Z</time>
      </trkpt>
      <trkpt lat="42.83715" lon="2.91939">
        <ele>10.4</ele>
        <time>1970-01-01T01:01:07Z</time>
      </trkpt>
      <trkpt lat="42.83717" lon="2.91935">
        <ele>10.4</ele>
        <time>1970-01-01T01:01:08Z</time>
      </trkpt>
      <trkpt lat="42.8372" lon="2.91931">
        <ele>10.4</ele>
        <time>1970-01-01T01:01:09Z</time>
      </trkpt>
      <trkpt lat="42.83723" lon="2.91927">
        <ele>10.4</ele>
        <time>1970-01-01T01:01:10Z</time>
      </trkpt>
      <trkpt lat="42.83726" lon="2.91924">
        <ele>10.4</ele>
        <time>1970-01-01T01:01:11Z</time>
      </trkpt>
      <trkpt lat="42.83729" lon="2.9192">
        <ele>10.4</ele>
        <time>1970-01-01T01:01:12Z</time>
      </trkpt>
      <trkpt lat="42.83732" lon="2.91917">
        <ele>10.4</ele>
        <time>1970-01-01T01:01:13Z</time>
      </trkpt>
      <trkpt lat="42.83735" lon="2.91914">
        <ele>10.4</ele>
        <time>1970-01-01T01:01:14Z</time>
      </trkpt>
      <trkpt lat="42.83738" lon="2.91911">
        <ele>10.6</ele>
        <time>1970-01-01T01:01:15Z</time>
      </trkpt>
      <trkpt lat="42.83742" lon="2.91907">
        <ele>10.6</ele>
        <time>1970-01-01T01:01:16Z</time>
      </trkpt>
      <trkpt lat="42.83744" lon="2.91904">
        <ele>10.6</ele>
        <time>1970-01-01T01:01:17Z</time>
      </trkpt>
      <trkpt lat="42.83747" lon="2.91899">
        <ele>10.6</ele>
        <time>1970-01-01T01:01:18Z</time>
      </trkpt>
      <trkpt lat="42.83749" lon="2.91895">
        <ele>10.6</ele>
        <time>1970-01-01T01:01:19Z</time>
      </trkpt>
      <trkpt lat="42.83751" lon="2.91891">
        <ele>10.6</ele>
        <time>1970-01-01T01:01:20Z</time>
      </trkpt>
      <trkpt lat="42.83752" lon="2.91887">
        <ele>10.6</ele>
        <time>1970-01-01T01:01:21Z</time>
      </trkpt>
      <trkpt lat="42.83754" lon="2.91882">
        <ele>10.6</ele>
        <time>1970-01-01T01:01:22Z</time>
      </trkpt>
      <trkpt lat="42.83756" lon="2.91877">
        <ele>10.6</ele>
        <time>1970-01-01T01:01:23Z</time>
      </trkpt>
      <trkpt lat="42.83757" lon="2.91873">
        <ele>10.6</ele>
        <time>1970-01-01T01:01:24Z</time>
      </trkpt>
      <trkpt lat="42.83759" lon="2.91868">
        <ele>10.6</ele>
        <time>1970-01-01T01:01:25Z</time>
      </trkpt>
      <trkpt lat="42.8376" lon="2.91864">
        <ele>10.6</ele>
        <time>1970-01-01T01:01:26Z</time>
      </trkpt>
      <trkpt lat="42.83762" lon="2.9186">
        <ele>10.8</ele>
        <time>1970-01-01T01:01:27Z</time>
      </trkpt>
      <trkpt lat="42.83762" lon="2.91859">
        <ele>10.8</ele>
        <time>1970-01-01T01:01:28Z</time>
      </trkpt>
      <trkpt lat="42.83765" lon="2.91859">
        <ele>10.8</ele>
        <time>1970-01-01T01:01:29Z</time>
      </trkpt>
      <trkpt lat="42.83768" lon="2.9186">
        <ele>10.8</ele>
        <time>1970-01-01T01:01:30Z</time>
      </trkpt>
      <trkpt lat="42.83771" lon="2.91861">
        <ele>11</ele>
        <time>1970-01-01T01:01:31Z</time>
      </trkpt>
      <trkpt lat="42.83774" lon="2.91863">
        <ele>11</ele>
        <time>1970-01-01T01:01:32Z</time>
      </trkpt>
      <trkpt lat="42.83777" lon="2.91864">
        <ele>11</ele>
        <time>1970-01-01T01:01:33Z</time>
      </trkpt>
      <trkpt lat="42.8378" lon="2.91866">
        <ele>11.2</ele>
        <time>1970-01-01T01:01:34Z</time>
      </trkpt>
      <trkpt lat="42.83783" lon="2.91868">
        <ele>11.2</ele>
        <time>1970-01-01T01:01:35Z</time>
      </trkpt>
      <trkpt lat="42.83786" lon="2.9187">
        <ele>11.4</ele>
        <time>1970-01-01T01:01:36Z</time>
      </trkpt>
      <trkpt lat="42.83788" lon="2.91873">
        <ele>11.4</ele>
        <time>1970-01-01T01:01:37Z</time>
      </trkpt>
      <trkpt lat="42.83791" lon="2.91875">
        <ele>11.4</ele>
        <time>1970-01-01T01:01:38Z</time>
      </trkpt>
      <trkpt lat="42.83794" lon="2.91878">
        <ele>11.6</ele>
        <time>1970-01-01T01:01:39Z</time>
      </trkpt>
      <trkpt lat="42.83797" lon="2.9188">
        <ele>11.6</ele>
        <time>1970-01-01T01:01:40Z</time>
      </trkpt>
      <trkpt lat="42.838" lon="2.91883">
        <ele>11.8</ele>
        <time>1970-01-01T01:01:41Z</time>
      </trkpt>
      <trkpt lat="42.83803" lon="2.91885">
        <ele>11.8</ele>
        <time>1970-01-01T01:01:42Z</time>
      </trkpt>
      <trkpt lat="42.83806" lon="2.91887">
        <ele>12</ele>
        <time>1970-01-01T01:01:43Z</time>
      </trkpt>
      <trkpt lat="42.8381" lon="2.91889">
        <ele>12</ele>
        <time>1970-01-01T01:01:44Z</time>
      </trkpt>
      <trkpt lat="42.83813" lon="2.91891">
        <ele>12.2</ele>
        <time>1970-01-01T01:01:45Z</time>
      </trkpt>
      <trkpt lat="42.83816" lon="2.91892">
        <ele>12.2</ele>
        <time>1970-01-01T01:01:46Z</time>
      </trkpt>
      <trkpt lat="42.8382" lon="2.91894">
        <ele>12.4</ele>
        <time>1970-01-01T01:01:47Z</time>
      </trkpt>
      <trkpt lat="42.83823" lon="2.91895">
        <ele>12.4</ele>
        <time>1970-01-01T01:01:48Z</time>
      </trkpt>
      <trkpt lat="42.83827" lon="2.91895">
        <ele>12.6</ele>
        <time>1970-01-01T01:01:49Z</time>
      </trkpt>
      <trkpt lat="42.8383" lon="2.91895">
        <ele>12.6</ele>
        <time>1970-01-01T01:01:50Z</time>
      </trkpt>
      <trkpt lat="42.83833" lon="2.91895">
        <ele>12.8</ele>
        <time>1970-01-01T01:01:51Z</time>
      </trkpt>
      <trkpt lat="42.83837" lon="2.91894">
        <ele>12.8</ele>
        <time>1970-01-01T01:01:52Z</time>
      </trkpt>
      <trkpt lat="42.8384" lon="2.91894">
        <ele>12.8</ele>
        <time>1970-01-01T01:01:53Z</time>
      </trkpt>
      <trkpt lat="42.83843" lon="2.91893">
        <ele>13</ele>
        <time>1970-01-01T01:01:54Z</time>
      </trkpt>
      <trkpt lat="42.83847" lon="2.91893">
        <ele>13</ele>
        <time>1970-01-01T01:01:55Z</time>
      </trkpt>
      <trkpt lat="42.8385" lon="2.91894">
        <ele>13.2</ele>
        <time>1970-01-01T01:01:56Z</time>
      </trkpt>
      <trkpt lat="42.83853" lon="2.91896">
        <ele>13.2</ele>
        <time>1970-01-01T01:01:57Z</time>
      </trkpt>
      <trkpt lat="42.83856" lon="2.91897">
        <ele>13.2</ele>
        <time>1970-01-01T01:01:58Z</time>
      </trkpt>
      <trkpt lat="42.83859" lon="2.91899">
        <ele>13.2</ele>
        <time>1970-01-01T01:01:59Z</time>
      </trkpt>
      <trkpt lat="42.83862" lon="2.91901">
        <ele>13.2</ele>
        <time>1970-01-01T01:02:00Z</time>
      </trkpt>
      <trkpt lat="42.83865" lon="2.91904">
        <ele>13.2</ele>
        <time>1970-01-01T01:02:01Z</time>
      </trkpt>
      <trkpt lat="42.83868" lon="2.91907">
        <ele>13.2</ele>
        <time>1970-01-01T01:02:02Z</time>
      </trkpt>
      <trkpt lat="42.83871" lon="2.91909">
        <ele>13.2</ele>
        <time>1970-01-01T01:02:03Z</time>
      </trkpt>
      <trkpt lat="42.83874" lon="2.91912">
        <ele>13.2</ele>
        <time>1970-01-01T01:02:04Z</time>
      </trkpt>
      <trkpt lat="42.83877" lon="2.91915">
        <ele>13.2</ele>
        <time>1970-01-01T01:02:05Z</time>
      </trkpt>
      <trkpt lat="42.8388" lon="2.91918">
        <ele>13.2</ele>
        <time>1970-01-01T01:02:06Z</time>
      </trkpt>
      <trkpt lat="42.83883" lon="2.91921">
        <ele>13.2</ele>
        <time>1970-01-01T01:02:07Z</time>
      </trkpt>
      <trkpt lat="42.83886" lon="2.91924">
        <ele>13.2</ele>
        <time>1970-01-01T01:02:08Z</time>
      </trkpt>
      <trkpt lat="42.83889" lon="2.91927">
        <ele>13.2</ele>
        <time>1970-01-01T01:02:09Z</time>
      </trkpt>
      <trkpt lat="42.83892" lon="2.91929">
        <ele>13.2</ele>
        <time>1970-01-01T01:02:10Z</time>
      </trkpt>
      <trkpt lat="42.83896" lon="2.91932">
        <ele>13.2</ele>
        <time>1970-01-01T01:02:11Z</time>
      </trkpt>
      <trkpt lat="42.83899" lon="2.91935">
        <ele>13.2</ele>
        <time>1970-01-01T01:02:12Z</time>
      </trkpt>
      <trkpt lat="42.83903" lon="2.91937">
        <ele>13.2</ele>
        <time>1970-01-01T01:02:13Z</time>
      </trkpt>
      <trkpt lat="42.83906" lon="2.91939">
        <ele>13.2</ele>
        <time>1970-01-01T01:02:14Z</time>
      </trkpt>
      <trkpt lat="42.83909" lon="2.91942">
        <ele>13.2</ele>
        <time>1970-01-01T01:02:15Z</time>
      </trkpt>
      <trkpt lat="42.83913" lon="2.91944">
        <ele>13</ele>
        <time>1970-01-01T01:02:16Z</time>
      </trkpt>
      <trkpt lat="42.83916" lon="2.91946">
        <ele>13</ele>
        <time>1970-01-01T01:02:17Z</time>
      </trkpt>
      <trkpt lat="42.83919" lon="2.91948">
        <ele>13</ele>
        <time>1970-01-01T01:02:18Z</time>
      </trkpt>
      <trkpt lat="42.83923" lon="2.9195">
        <ele>13</ele>
        <time>1970-01-01T01:02:19Z</time>
      </trkpt>
      <trkpt lat="42.83927" lon="2.91951">
        <ele>13</ele>
        <time>1970-01-01T01:02:20Z</time>
      </trkpt>
      <trkpt lat="42.83932" lon="2.91952">
        <ele>13</ele>
        <time>1970-01-01T01:02:21Z</time>
      </trkpt>
      <trkpt lat="42.83936" lon="2.91953">
        <ele>13.2</ele>
        <time>1970-01-01T01:02:22Z</time>
      </trkpt>
      <trkpt lat="42.83939" lon="2.91955">
        <ele>13.4</ele>
        <time>1970-01-01T01:02:23Z</time>
      </trkpt>
      <trkpt lat="42.83943" lon="2.91957">
        <ele>13.4</ele>
        <time>1970-01-01T01:02:24Z</time>
      </trkpt>
      <trkpt lat="42.83946" lon="2.91959">
        <ele>13.6</ele>
        <time>1970-01-01T01:02:25Z</time>
      </trkpt>
      <trkpt lat="42.8395" lon="2.9196">
        <ele>13.8</ele>
        <time>1970-01-01T01:02:26Z</time>
      </trkpt>
      <trkpt lat="42.83954" lon="2.91961">
        <ele>13.8</ele>
        <time>1970-01-01T01:02:27Z</time>
      </trkpt>
      <trkpt lat="42.83957" lon="2.91962">
        <ele>14</ele>
        <time>1970-01-01T01:02:28Z</time>
      </trkpt>
      <trkpt lat="42.83961" lon="2.91963">
        <ele>14.2</ele>
        <time>1970-01-01T01:02:29Z</time>
      </trkpt>
      <trkpt lat="42.83964" lon="2.91963">
        <ele>14.2</ele>
        <time>1970-01-01T01:02:30Z</time>
      </trkpt>
      <trkpt lat="42.83967" lon="2.91963">
        <ele>14.4</ele>
        <time>1970-01-01T01:02:31Z</time>
      </trkpt>
      <trkpt lat="42.83971" lon="2.91963">
        <ele>14.4</ele>
        <time>1970-01-01T01:02:32Z</time>
      </trkpt>
      <trkpt lat="42.83974" lon="2.91963">
        <ele>14.6</ele>
        <time>1970-01-01T01:02:33Z</time>
      </trkpt>
      <trkpt lat="42.83978" lon="2.91962">
        <ele>14.6</ele>
        <time>1970-01-01T01:02:34Z</time>
      </trkpt>
      <trkpt lat="42.83981" lon="2.91961">
        <ele>14.8</ele>
        <time>1970-01-01T01:02:35Z</time>
      </trkpt>
      <trkpt lat="42.83984" lon="2.91959">
        <ele>14.8</ele>
        <time>1970-01-01T01:02:36Z</time>
      </trkpt>
      <trkpt lat="42.83987" lon="2.91957">
        <ele>15</ele>
        <time>1970-01-01T01:02:37Z</time>
      </trkpt>
      <trkpt lat="42.8399" lon="2.91955">
        <ele>15</ele>
        <time>1970-01-01T01:02:38Z</time>
      </trkpt>
      <trkpt lat="42.83993" lon="2.91952">
        <ele>15</ele>
        <time>1970-01-01T01:02:39Z</time>
      </trkpt>
      <trkpt lat="42.83996" lon="2.9195">
        <ele>15.2</ele>
        <time>1970-01-01T01:02:40Z</time>
      </trkpt>
      <trkpt lat="42.83999" lon="2.91947">
        <ele>15.2</ele>
        <time>1970-01-01T01:02:41Z</time>
      </trkpt>
      <trkpt lat="42.84002" lon="2.91945">
        <ele>15.4</ele>
        <time>1970-01-01T01:02:42Z</time>
      </trkpt>
      <trkpt lat="42.84006" lon="2.91942">
        <ele>15.4</ele>
        <time>1970-01-01T01:02:43Z</time>
      </trkpt>
      <trkpt lat="42.84009" lon="2.9194">
        <ele>15.4</ele>
        <time>1970-01-01T01:02:44Z</time>
      </trkpt>
      <trkpt lat="42.84012" lon="2.91937">
        <ele>15.6</ele>
        <time>1970-01-01T01:02:45Z</time>
      </trkpt>
      <trkpt lat="42.84014" lon="2.91934">
        <ele>15.6</ele>
        <time>1970-01-01T01:02:46Z</time>
      </trkpt>
      <trkpt lat="42.84017" lon="2.9193">
        <ele>15.8</ele>
        <time>1970-01-01T01:02:47Z</time>
      </trkpt>
      <trkpt lat="42.8402" lon="2.91927">
        <ele>15.8</ele>
        <time>1970-01-01T01:02:48Z</time>
      </trkpt>
      <trkpt lat="42.84022" lon="2.91923">
        <ele>15.8</ele>
        <time>1970-01-01T01:02:49Z</time>
      </trkpt>
      <trkpt lat="42.84024" lon="2.91919">
        <ele>16</ele>
        <time>1970-01-01T01:02:50Z</time>
      </trkpt>
      <trkpt lat="42.84027" lon="2.91916">
        <ele>16</ele>
        <time>1970-01-01T01:02:51Z</time>
      </trkpt>
      <trkpt lat="42.84029" lon="2.91913">
        <ele>16.2</ele>
        <time>1970-01-01T01:02:52Z</time>
      </trkpt>
      <trkpt lat="42.84031" lon="2.91909">
        <ele>16.2</ele>
        <time>1970-01-01T01:02:53Z</time>
      </trkpt>
      <trkpt lat="42.84034" lon="2.91906">
        <ele>16.4</ele>
        <time>1970-01-01T01:02:54Z</time>
      </trkpt>
      <trkpt lat="42.84036" lon="2.91903">
        <ele>16.6</ele>
        <time>1970-01-01T01:02:55Z</time>
      </trkpt>
      <trkpt lat="42.84039" lon="2.919">
        <ele>16.8</ele>
        <time>1970-01-01T01:02:56Z</time>
      </trkpt>
      <trkpt lat="42.84042" lon="2.91897">
        <ele>17</ele>
        <time>1970-01-01T01:02:57Z</time>
      </trkpt>
      <trkpt lat="42.84044" lon="2.91894">
        <ele>17.2</ele>
        <time>1970-01-01T01:02:58Z</time>
      </trkpt>
      <trkpt lat="42.84047" lon="2.91891">
        <ele>17.4</ele>
        <time>1970-01-01T01:02:59Z</time>
      </trkpt>
      <trkpt lat="42.8405" lon="2.91888">
        <ele>17.6</ele>
        <time>1970-01-01T01:03:00Z</time>
      </trkpt>
      <trkpt lat="42.84052" lon="2.91885">
        <ele>17.8</ele>
        <time>1970-01-01T01:03:01Z</time>
      </trkpt>
      <trkpt lat="42.84054" lon="2.91882">
        <ele>18</ele>
        <time>1970-01-01T01:03:02Z</time>
      </trkpt>
      <trkpt lat="42.84057" lon="2.9188">
        <ele>18.2</ele>
        <time>1970-01-01T01:03:03Z</time>
      </trkpt>
      <trkpt lat="42.8406" lon="2.91878">
        <ele>18.4</ele>
        <time>1970-01-01T01:03:04Z</time>
      </trkpt>
      <trkpt lat="42.84061" lon="2.91877">
        <ele>18.4</ele>
        <time>1970-01-01T01:03:05Z</time>
      </trkpt>
      <trkpt lat="42.84065" lon="2.91874">
        <ele>18.6</ele>
        <time>1970-01-01T01:03:06Z</time>
      </trkpt>
      <trkpt lat="42.84066" lon="2.91873">
        <ele>18.6</ele>
        <time>1970-01-01T01:03:07Z</time>
      </trkpt>
      <trkpt lat="42.84067" lon="2.91868">
        <ele>18.8</ele>
        <time>1970-01-01T01:03:08Z</time>
      </trkpt>
      <trkpt lat="42.84068" lon="2.91867">
        <ele>18.8</ele>
        <time>1970-01-01T01:03:09Z</time>
      </trkpt>
      <trkpt lat="42.84067" lon="2.91863">
        <ele>18.8</ele>
        <time>1970-01-01T01:03:10Z</time>
      </trkpt>
      <trkpt lat="42.84065" lon="2.91859">
        <ele>18.8</ele>
        <time>1970-01-01T01:03:11Z</time>
      </trkpt>
      <trkpt lat="42.84064" lon="2.91855">
        <ele>18.8</ele>
        <time>1970-01-01T01:03:12Z</time>
      </trkpt>
      <trkpt lat="42.84062" lon="2.91851">
        <ele>18.8</ele>
        <time>1970-01-01T01:03:13Z</time>
      </trkpt>
      <trkpt lat="42.8406" lon="2.91847">
        <ele>18.8</ele>
        <time>1970-01-01T01:03:14Z</time>
      </trkpt>
      <trkpt lat="42.84058" lon="2.91842">
        <ele>18.8</ele>
        <time>1970-01-01T01:03:15Z</time>
      </trkpt>
      <trkpt lat="42.84057" lon="2.91838">
        <ele>18.8</ele>
        <time>1970-01-01T01:03:16Z</time>
      </trkpt>
      <trkpt lat="42.84056" lon="2.91833">
        <ele>18.8</ele>
        <time>1970-01-01T01:03:17Z</time>
      </trkpt>
      <trkpt lat="42.84055" lon="2.91828">
        <ele>18.8</ele>
        <time>1970-01-01T01:03:18Z</time>
      </trkpt>
      <trkpt lat="42.84055" lon="2.91823">
        <ele>18.6</ele>
        <time>1970-01-01T01:03:19Z</time>
      </trkpt>
      <trkpt lat="42.84056" lon="2.91818">
        <ele>18.6</ele>
        <time>1970-01-01T01:03:20Z</time>
      </trkpt>
      <trkpt lat="42.84056" lon="2.91814">
        <ele>18.8</ele>
        <time>1970-01-01T01:03:21Z</time>
      </trkpt>
      <trkpt lat="42.84057" lon="2.9181">
        <ele>18.8</ele>
        <time>1970-01-01T01:03:22Z</time>
      </trkpt>
      <trkpt lat="42.84059" lon="2.91807">
        <ele>18.8</ele>
        <time>1970-01-01T01:03:23Z</time>
      </trkpt>
      <trkpt lat="42.8406" lon="2.91803">
        <ele>18.8</ele>
        <time>1970-01-01T01:03:24Z</time>
      </trkpt>
      <trkpt lat="42.84062" lon="2.91799">
        <ele>18.8</ele>
        <time>1970-01-01T01:03:25Z</time>
      </trkpt>
      <trkpt lat="42.84064" lon="2.91795">
        <ele>18.8</ele>
        <time>1970-01-01T01:03:26Z</time>
      </trkpt>
      <trkpt lat="42.84065" lon="2.91791">
        <ele>18.8</ele>
        <time>1970-01-01T01:03:27Z</time>
      </trkpt>
      <trkpt lat="42.84067" lon="2.91787">
        <ele>18.8</ele>
        <time>1970-01-01T01:03:28Z</time>
      </trkpt>
      <trkpt lat="42.84068" lon="2.91783">
        <ele>18.8</ele>
        <time>1970-01-01T01:03:29Z</time>
      </trkpt>
      <trkpt lat="42.8407" lon="2.91778">
        <ele>18.8</ele>
        <time>1970-01-01T01:03:30Z</time>
      </trkpt>
      <trkpt lat="42.84071" lon="2.91774">
        <ele>18.8</ele>
        <time>1970-01-01T01:03:31Z</time>
      </trkpt>
      <trkpt lat="42.84071" lon="2.91769">
        <ele>18.8</ele>
        <time>1970-01-01T01:03:32Z</time>
      </trkpt>
      <trkpt lat="42.84072" lon="2.91765">
        <ele>18.8</ele>
        <time>1970-01-01T01:03:33Z</time>
      </trkpt>
      <trkpt lat="42.84072" lon="2.9176">
        <ele>19</ele>
        <time>1970-01-01T01:03:34Z</time>
      </trkpt>
      <trkpt lat="42.84073" lon="2.91755">
        <ele>19</ele>
        <time>1970-01-01T01:03:35Z</time>
      </trkpt>
      <trkpt lat="42.84074" lon="2.9175">
        <ele>19</ele>
        <time>1970-01-01T01:03:36Z</time>
      </trkpt>
      <trkpt lat="42.84074" lon="2.91746">
        <ele>19</ele>
        <time>1970-01-01T01:03:37Z</time>
      </trkpt>
      <trkpt lat="42.84074" lon="2.91741">
        <ele>19</ele>
        <time>1970-01-01T01:03:38Z</time>
      </trkpt>
      <trkpt lat="42.84074" lon="2.91736">
        <ele>19</ele>
        <time>1970-01-01T01:03:39Z</time>
      </trkpt>
      <trkpt lat="42.84074" lon="2.91732">
        <ele>19.2</ele>
        <time>1970-01-01T01:03:40Z</time>
      </trkpt>
      <trkpt lat="42.84073" lon="2.91727">
        <ele>19.2</ele>
        <time>1970-01-01T01:03:41Z</time>
      </trkpt>
      <trkpt lat="42.84073" lon="2.91722">
        <ele>19.2</ele>
        <time>1970-01-01T01:03:42Z</time>
      </trkpt>
      <trkpt lat="42.84071" lon="2.91718">
        <ele>19.2</ele>
        <time>1970-01-01T01:03:43Z</time>
      </trkpt>
      <trkpt lat="42.84068" lon="2.91715">
        <ele>19.2</ele>
        <time>1970-01-01T01:03:44Z</time>
      </trkpt>
      <trkpt lat="42.84065" lon="2.91711">
        <ele>19.4</ele>
        <time>1970-01-01T01:03:45Z</time>
      </trkpt>
      <trkpt lat="42.84062" lon="2.91709">
        <ele>19.4</ele>
        <time>1970-01-01T01:03:46Z</time>
      </trkpt>
      <trkpt lat="42.84059" lon="2.91707">
        <ele>19.4</ele>
        <time>1970-01-01T01:03:47Z</time>
      </trkpt>
      <trkpt lat="42.84056" lon="2.91706">
        <ele>19.4</ele>
        <time>1970-01-01T01:03:48Z</time>
      </trkpt>
      <trkpt lat="42.84052" lon="2.91705">
        <ele>19.4</ele>
        <time>1970-01-01T01:03:49Z</time>
      </trkpt>
      <trkpt lat="42.84049" lon="2.91704">
        <ele>19.6</ele>
        <time>1970-01-01T01:03:50Z</time>
      </trkpt>
      <trkpt lat="42.84046" lon="2.91703">
        <ele>19.6</ele>
        <time>1970-01-01T01:03:51Z</time>
      </trkpt>
      <trkpt lat="42.84042" lon="2.91702">
        <ele>19.6</ele>
        <time>1970-01-01T01:03:52Z</time>
      </trkpt>
      <trkpt lat="42.84039" lon="2.91701">
        <ele>19.6</ele>
        <time>1970-01-01T01:03:53Z</time>
      </trkpt>
      <trkpt lat="42.84035" lon="2.917">
        <ele>19.6</ele>
        <time>1970-01-01T01:03:54Z</time>
      </trkpt>
      <trkpt lat="42.84032" lon="2.91699">
        <ele>19.8</ele>
        <time>1970-01-01T01:03:55Z</time>
      </trkpt>
      <trkpt lat="42.84028" lon="2.91698">
        <ele>19.8</ele>
        <time>1970-01-01T01:03:56Z</time>
      </trkpt>
      <trkpt lat="42.84024" lon="2.91697">
        <ele>19.8</ele>
        <time>1970-01-01T01:03:57Z</time>
      </trkpt>
      <trkpt lat="42.84021" lon="2.91696">
        <ele>19.8</ele>
        <time>1970-01-01T01:03:58Z</time>
      </trkpt>
      <trkpt lat="42.84017" lon="2.91694">
        <ele>19.8</ele>
        <time>1970-01-01T01:03:59Z</time>
      </trkpt>
      <trkpt lat="42.84014" lon="2.91693">
        <ele>19.8</ele>
        <time>1970-01-01T01:04:00Z</time>
      </trkpt>
      <trkpt lat="42.8401" lon="2.91692">
        <ele>19.8</ele>
        <time>1970-01-01T01:04:01Z</time>
      </trkpt>
      <trkpt lat="42.84006" lon="2.9169">
        <ele>19.8</ele>
        <time>1970-01-01T01:04:02Z</time>
      </trkpt>
      <trkpt lat="42.84003" lon="2.91689">
        <ele>19.8</ele>
        <time>1970-01-01T01:04:03Z</time>
      </trkpt>
      <trkpt lat="42.83999" lon="2.91687">
        <ele>19.8</ele>
        <time>1970-01-01T01:04:04Z</time>
      </trkpt>
      <trkpt lat="42.83995" lon="2.91686">
        <ele>19.8</ele>
        <time>1970-01-01T01:04:05Z</time>
      </trkpt>
      <trkpt lat="42.83991" lon="2.91685">
        <ele>19.8</ele>
        <time>1970-01-01T01:04:06Z</time>
      </trkpt>
      <trkpt lat="42.83987" lon="2.91684">
        <ele>19.8</ele>
        <time>1970-01-01T01:04:07Z</time>
      </trkpt>
      <trkpt lat="42.83983" lon="2.91683">
        <ele>19.8</ele>
        <time>1970-01-01T01:04:08Z</time>
      </trkpt>
      <trkpt lat="42.8398" lon="2.91683">
        <ele>19.8</ele>
        <time>1970-01-01T01:04:09Z</time>
      </trkpt>
      <trkpt lat="42.83976" lon="2.91682">
        <ele>19.8</ele>
        <time>1970-01-01T01:04:10Z</time>
      </trkpt>
      <trkpt lat="42.83972" lon="2.91682">
        <ele>19.8</ele>
        <time>1970-01-01T01:04:11Z</time>
      </trkpt>
      <trkpt lat="42.83969" lon="2.91681">
        <ele>19.8</ele>
        <time>1970-01-01T01:04:12Z</time>
      </trkpt>
      <trkpt lat="42.83965" lon="2.91681">
        <ele>19.8</ele>
        <time>1970-01-01T01:04:13Z</time>
      </trkpt>
      <trkpt lat="42.83961" lon="2.9168">
        <ele>19.8</ele>
        <time>1970-01-01T01:04:14Z</time>
      </trkpt>
      <trkpt lat="42.83957" lon="2.9168">
        <ele>19.8</ele>
        <time>1970-01-01T01:04:15Z</time>
      </trkpt>
      <trkpt lat="42.83953" lon="2.91679">
        <ele>19.6</ele>
        <time>1970-01-01T01:04:16Z</time>
      </trkpt>
      <trkpt lat="42.83949" lon="2.91679">
        <ele>19.6</ele>
        <time>1970-01-01T01:04:17Z</time>
      </trkpt>
      <trkpt lat="42.83945" lon="2.91678">
        <ele>19.6</ele>
        <time>1970-01-01T01:04:18Z</time>
      </trkpt>
      <trkpt lat="42.83942" lon="2.91677">
        <ele>19.6</ele>
        <time>1970-01-01T01:04:19Z</time>
      </trkpt>
      <trkpt lat="42.83939" lon="2.91675">
        <ele>19.6</ele>
        <time>1970-01-01T01:04:20Z</time>
      </trkpt>
      <trkpt lat="42.83938" lon="2.91672">
        <ele>19.4</ele>
        <time>1970-01-01T01:04:21Z</time>
      </trkpt>
      <trkpt lat="42.83937" lon="2.91668">
        <ele>19.6</ele>
        <time>1970-01-01T01:04:22Z</time>
      </trkpt>
      <trkpt lat="42.83936" lon="2.91663">
        <ele>19.6</ele>
        <time>1970-01-01T01:04:23Z</time>
      </trkpt>
      <trkpt lat="42.83936" lon="2.91661">
        <ele>19.6</ele>
        <time>1970-01-01T01:04:24Z</time>
      </trkpt>
      <trkpt lat="42.83936" lon="2.91657">
        <ele>19.6</ele>
        <time>1970-01-01T01:04:25Z</time>
      </trkpt>
      <trkpt lat="42.83936" lon="2.91656">
        <ele>19.6</ele>
        <time>1970-01-01T01:04:26Z</time>
      </trkpt>
      <trkpt lat="42.83937" lon="2.91652">
        <ele>19.6</ele>
        <time>1970-01-01T01:04:27Z</time>
      </trkpt>
      <trkpt lat="42.83938" lon="2.9165">
        <ele>19.6</ele>
        <time>1970-01-01T01:04:28Z</time>
      </trkpt>
      <trkpt lat="42.83938" lon="2.91646">
        <ele>19.8</ele>
        <time>1970-01-01T01:04:29Z</time>
      </trkpt>
      <trkpt lat="42.83939" lon="2.91642">
        <ele>19.8</ele>
        <time>1970-01-01T01:04:30Z</time>
      </trkpt>
      <trkpt lat="42.8394" lon="2.91638">
        <ele>20</ele>
        <time>1970-01-01T01:04:31Z</time>
      </trkpt>
      <trkpt lat="42.83941" lon="2.91635">
        <ele>20</ele>
        <time>1970-01-01T01:04:32Z</time>
      </trkpt>
      <trkpt lat="42.83943" lon="2.91631">
        <ele>20.2</ele>
        <time>1970-01-01T01:04:33Z</time>
      </trkpt>
      <trkpt lat="42.83944" lon="2.91627">
        <ele>20.2</ele>
        <time>1970-01-01T01:04:34Z</time>
      </trkpt>
      <trkpt lat="42.83946" lon="2.91623">
        <ele>20.4</ele>
        <time>1970-01-01T01:04:35Z</time>
      </trkpt>
      <trkpt lat="42.83948" lon="2.9162">
        <ele>20.6</ele>
        <time>1970-01-01T01:04:36Z</time>
      </trkpt>
      <trkpt lat="42.8395" lon="2.91616">
        <ele>20.6</ele>
        <time>1970-01-01T01:04:37Z</time>
      </trkpt>
      <trkpt lat="42.83952" lon="2.91613">
        <ele>20.8</ele>
        <time>1970-01-01T01:04:38Z</time>
      </trkpt>
      <trkpt lat="42.83955" lon="2.9161">
        <ele>20.8</ele>
        <time>1970-01-01T01:04:39Z</time>
      </trkpt>
      <trkpt lat="42.83957" lon="2.91607">
        <ele>21</ele>
        <time>1970-01-01T01:04:40Z</time>
      </trkpt>
      <trkpt lat="42.8396" lon="2.91604">
        <ele>21</ele>
        <time>1970-01-01T01:04:41Z</time>
      </trkpt>
      <trkpt lat="42.83962" lon="2.916">
        <ele>21.2</ele>
        <time>1970-01-01T01:04:42Z</time>
      </trkpt>
      <trkpt lat="42.83965" lon="2.91597">
        <ele>21.4</ele>
        <time>1970-01-01T01:04:43Z</time>
      </trkpt>
      <trkpt lat="42.83968" lon="2.91594">
        <ele>21.4</ele>
        <time>1970-01-01T01:04:44Z</time>
      </trkpt>
      <trkpt lat="42.8397" lon="2.91591">
        <ele>21.6</ele>
        <time>1970-01-01T01:04:45Z</time>
      </trkpt>
      <trkpt lat="42.83972" lon="2.91587">
        <ele>21.6</ele>
        <time>1970-01-01T01:04:46Z</time>
      </trkpt>
      <trkpt lat="42.83975" lon="2.91584">
        <ele>21.6</ele>
        <time>1970-01-01T01:04:47Z</time>
      </trkpt>
      <trkpt lat="42.83978" lon="2.91581">
        <ele>21.8</ele>
        <time>1970-01-01T01:04:48Z</time>
      </trkpt>
      <trkpt lat="42.8398" lon="2.91578">
        <ele>21.8</ele>
        <time>1970-01-01T01:04:49Z</time>
      </trkpt>
      <trkpt lat="42.83983" lon="2.91575">
        <ele>22</ele>
        <time>1970-01-01T01:04:50Z</time>
      </trkpt>
      <trkpt lat="42.83985" lon="2.91571">
        <ele>22</ele>
        <time>1970-01-01T01:04:51Z</time>
      </trkpt>
      <trkpt lat="42.83988" lon="2.91568">
        <ele>22</ele>
        <time>1970-01-01T01:04:52Z</time>
      </trkpt>
      <trkpt lat="42.8399" lon="2.91565">
        <ele>22.2</ele>
        <time>1970-01-01T01:04:53Z</time>
      </trkpt>
      <trkpt lat="42.83992" lon="2.91562">
        <ele>22.2</ele>
        <time>1970-01-01T01:04:54Z</time>
      </trkpt>
      <trkpt lat="42.83995" lon="2.91558">
        <ele>22.4</ele>
        <time>1970-01-01T01:04:55Z</time>
      </trkpt>
      <trkpt lat="42.83996" lon="2.91555">
        <ele>22.4</ele>
        <time>1970-01-01T01:04:56Z</time>
      </trkpt>
      <trkpt lat="42.83999" lon="2.91552">
        <ele>22.6</ele>
        <time>1970-01-01T01:04:57Z</time>
      </trkpt>
      <trkpt lat="42.83999" lon="2.9155">
        <ele>22.6</ele>
        <time>1970-01-01T01:04:58Z</time>
      </trkpt>
      <trkpt lat="42.84001" lon="2.91546">
        <ele>22.6</ele>
        <time>1970-01-01T01:04:59Z</time>
      </trkpt>
      <trkpt lat="42.84001" lon="2.91544">
        <ele>22.6</ele>
        <time>1970-01-01T01:05:00Z</time>
      </trkpt>
      <trkpt lat="42.84002" lon="2.91539">
        <ele>22.8</ele>
        <time>1970-01-01T01:05:01Z</time>
      </trkpt>
      <trkpt lat="42.84002" lon="2.91538">
        <ele>23</ele>
        <time>1970-01-01T01:05:02Z</time>
      </trkpt>
      <trkpt lat="42.84002" lon="2.91533">
        <ele>23.2</ele>
        <time>1970-01-01T01:05:03Z</time>
      </trkpt>
      <trkpt lat="42.84001" lon="2.91531">
        <ele>23.2</ele>
        <time>1970-01-01T01:05:04Z</time>
      </trkpt>
      <trkpt lat="42.84001" lon="2.91526">
        <ele>23.4</ele>
        <time>1970-01-01T01:05:05Z</time>
      </trkpt>
      <trkpt lat="42.84001" lon="2.91525">
        <ele>23.4</ele>
        <time>1970-01-01T01:05:06Z</time>
      </trkpt>
      <trkpt lat="42.84001" lon="2.91519">
        <ele>23.6</ele>
        <time>1970-01-01T01:05:07Z</time>
      </trkpt>
      <trkpt lat="42.84002" lon="2.91518">
        <ele>23.8</ele>
        <time>1970-01-01T01:05:08Z</time>
      </trkpt>
      <trkpt lat="42.84003" lon="2.91512">
        <ele>24</ele>
        <time>1970-01-01T01:05:09Z</time>
      </trkpt>
      <trkpt lat="42.84003" lon="2.91511">
        <ele>24</ele>
        <time>1970-01-01T01:05:10Z</time>
      </trkpt>
      <trkpt lat="42.84004" lon="2.91506">
        <ele>24.2</ele>
        <time>1970-01-01T01:05:11Z</time>
      </trkpt>
      <trkpt lat="42.84004" lon="2.91504">
        <ele>24.4</ele>
        <time>1970-01-01T01:05:12Z</time>
      </trkpt>
      <trkpt lat="42.84005" lon="2.91499">
        <ele>24.6</ele>
        <time>1970-01-01T01:05:13Z</time>
      </trkpt>
      <trkpt lat="42.84005" lon="2.91497">
        <ele>24.6</ele>
        <time>1970-01-01T01:05:14Z</time>
      </trkpt>
      <trkpt lat="42.84007" lon="2.91493">
        <ele>25</ele>
        <time>1970-01-01T01:05:15Z</time>
      </trkpt>
      <trkpt lat="42.84007" lon="2.91491">
        <ele>25</ele>
        <time>1970-01-01T01:05:16Z</time>
      </trkpt>
      <trkpt lat="42.84008" lon="2.91488">
        <ele>25.2</ele>
        <time>1970-01-01T01:05:17Z</time>
      </trkpt>
      <trkpt lat="42.8401" lon="2.91483">
        <ele>25.4</ele>
        <time>1970-01-01T01:05:18Z</time>
      </trkpt>
      <trkpt lat="42.84011" lon="2.91482">
        <ele>25.4</ele>
        <time>1970-01-01T01:05:19Z</time>
      </trkpt>
      <trkpt lat="42.84013" lon="2.91479">
        <ele>25.6</ele>
        <time>1970-01-01T01:05:20Z</time>
      </trkpt>
      <trkpt lat="42.84013" lon="2.91478">
        <ele>25.8</ele>
        <time>1970-01-01T01:05:21Z</time>
      </trkpt>
      <trkpt lat="42.84016" lon="2.91476">
        <ele>26</ele>
        <time>1970-01-01T01:05:22Z</time>
      </trkpt>
      <trkpt lat="42.84017" lon="2.91475">
        <ele>26</ele>
        <time>1970-01-01T01:05:23Z</time>
      </trkpt>
      <trkpt lat="42.84018" lon="2.91472">
        <ele>26.2</ele>
        <time>1970-01-01T01:05:24Z</time>
      </trkpt>
      <trkpt lat="42.84019" lon="2.9147">
        <ele>26.4</ele>
        <time>1970-01-01T01:05:25Z</time>
      </trkpt>
      <trkpt lat="42.8402" lon="2.91467">
        <ele>26.6</ele>
        <time>1970-01-01T01:05:26Z</time>
      </trkpt>
      <trkpt lat="42.84022" lon="2.91462">
        <ele>26.8</ele>
        <time>1970-01-01T01:05:27Z</time>
      </trkpt>
      <trkpt lat="42.84023" lon="2.91461">
        <ele>26.8</ele>
        <time>1970-01-01T01:05:28Z</time>
      </trkpt>
      <trkpt lat="42.84024" lon="2.91457">
        <ele>27</ele>
        <time>1970-01-01T01:05:29Z</time>
      </trkpt>
      <trkpt lat="42.84025" lon="2.91456">
        <ele>27.2</ele>
        <time>1970-01-01T01:05:30Z</time>
      </trkpt>
      <trkpt lat="42.84027" lon="2.91453">
        <ele>27.4</ele>
        <time>1970-01-01T01:05:31Z</time>
      </trkpt>
      <trkpt lat="42.84027" lon="2.91452">
        <ele>27.4</ele>
        <time>1970-01-01T01:05:32Z</time>
      </trkpt>
      <trkpt lat="42.8403" lon="2.91448">
        <ele>27.6</ele>
        <time>1970-01-01T01:05:33Z</time>
      </trkpt>
      <trkpt lat="42.8403" lon="2.91446">
        <ele>27.8</ele>
        <time>1970-01-01T01:05:34Z</time>
      </trkpt>
      <trkpt lat="42.84031" lon="2.91442">
        <ele>28</ele>
        <time>1970-01-01T01:05:35Z</time>
      </trkpt>
      <trkpt lat="42.84032" lon="2.91441">
        <ele>28</ele>
        <time>1970-01-01T01:05:36Z</time>
      </trkpt>
      <trkpt lat="42.84033" lon="2.91436">
        <ele>28.4</ele>
        <time>1970-01-01T01:05:37Z</time>
      </trkpt>
      <trkpt lat="42.84034" lon="2.91434">
        <ele>28.4</ele>
        <time>1970-01-01T01:05:38Z</time>
      </trkpt>
      <trkpt lat="42.84034" lon="2.91429">
        <ele>28.6</ele>
        <time>1970-01-01T01:05:39Z</time>
      </trkpt>
      <trkpt lat="42.84034" lon="2.91427">
        <ele>28.8</ele>
        <time>1970-01-01T01:05:40Z</time>
      </trkpt>
      <trkpt lat="42.84034" lon="2.91423">
        <ele>29</ele>
        <time>1970-01-01T01:05:41Z</time>
      </trkpt>
      <trkpt lat="42.84034" lon="2.91422">
        <ele>29</ele>
        <time>1970-01-01T01:05:42Z</time>
      </trkpt>
      <trkpt lat="42.84034" lon="2.91418">
        <ele>29.4</ele>
        <time>1970-01-01T01:05:43Z</time>
      </trkpt>
      <trkpt lat="42.84034" lon="2.91417">
        <ele>29.4</ele>
        <time>1970-01-01T01:05:44Z</time>
      </trkpt>
      <trkpt lat="42.84033" lon="2.91412">
        <ele>29.6</ele>
        <time>1970-01-01T01:05:45Z</time>
      </trkpt>
      <trkpt lat="42.84032" lon="2.91411">
        <ele>29.8</ele>
        <time>1970-01-01T01:05:46Z</time>
      </trkpt>
      <trkpt lat="42.84031" lon="2.91407">
        <ele>30</ele>
        <time>1970-01-01T01:05:47Z</time>
      </trkpt>
      <trkpt lat="42.8403" lon="2.91406">
        <ele>30.2</ele>
        <time>1970-01-01T01:05:48Z</time>
      </trkpt>
      <trkpt lat="42.84029" lon="2.91403">
        <ele>30.2</ele>
        <time>1970-01-01T01:05:49Z</time>
      </trkpt>
      <trkpt lat="42.84029" lon="2.91401">
        <ele>30.4</ele>
        <time>1970-01-01T01:05:50Z</time>
      </trkpt>
      <trkpt lat="42.84028" lon="2.91399">
        <ele>30.6</ele>
        <time>1970-01-01T01:05:51Z</time>
      </trkpt>
      <trkpt lat="42.84027" lon="2.91397">
        <ele>30.6</ele>
        <time>1970-01-01T01:05:52Z</time>
      </trkpt>
      <trkpt lat="42.84026" lon="2.91393">
        <ele>31</ele>
        <time>1970-01-01T01:05:53Z</time>
      </trkpt>
      <trkpt lat="42.84026" lon="2.91391">
        <ele>31</ele>
        <time>1970-01-01T01:05:54Z</time>
      </trkpt>
      <trkpt lat="42.84025" lon="2.91387">
        <ele>31.2</ele>
        <time>1970-01-01T01:05:55Z</time>
      </trkpt>
      <trkpt lat="42.84024" lon="2.91385">
        <ele>31.2</ele>
        <time>1970-01-01T01:05:56Z</time>
      </trkpt>
      <trkpt lat="42.84023" lon="2.91381">
        <ele>31.4</ele>
        <time>1970-01-01T01:05:57Z</time>
      </trkpt>
      <trkpt lat="42.84022" lon="2.9138">
        <ele>31.4</ele>
        <time>1970-01-01T01:05:58Z</time>
      </trkpt>
      <trkpt lat="42.8402" lon="2.91376">
        <ele>31.6</ele>
        <time>1970-01-01T01:05:59Z</time>
      </trkpt>
      <trkpt lat="42.8402" lon="2.91375">
        <ele>31.6</ele>
        <time>1970-01-01T01:06:00Z</time>
      </trkpt>
      <trkpt lat="42.84018" lon="2.91372">
        <ele>31.8</ele>
        <time>1970-01-01T01:06:01Z</time>
      </trkpt>
      <trkpt lat="42.84017" lon="2.91371">
        <ele>31.8</ele>
        <time>1970-01-01T01:06:02Z</time>
      </trkpt>
      <trkpt lat="42.84017" lon="2.91369">
        <ele>31.8</ele>
        <time>1970-01-01T01:06:03Z</time>
      </trkpt>
      <trkpt lat="42.84017" lon="2.91368">
        <ele>31.8</ele>
        <time>1970-01-01T01:06:04Z</time>
      </trkpt>
      <trkpt lat="42.84016" lon="2.91366">
        <ele>31.8</ele>
        <time>1970-01-01T01:06:05Z</time>
      </trkpt>
      <trkpt lat="42.84015" lon="2.91365">
        <ele>31.8</ele>
        <time>1970-01-01T01:06:06Z</time>
      </trkpt>
      <trkpt lat="42.84014" lon="2.91364">
        <ele>31.8</ele>
        <time>1970-01-01T01:06:07Z</time>
      </trkpt>
      <trkpt lat="42.84011" lon="2.91361">
        <ele>31.8</ele>
        <time>1970-01-01T01:06:08Z</time>
      </trkpt>
      <trkpt lat="42.8401" lon="2.9136">
        <ele>31.8</ele>
        <time>1970-01-01T01:06:09Z</time>
      </trkpt>
      <trkpt lat="42.84008" lon="2.91357">
        <ele>31.8</ele>
        <time>1970-01-01T01:06:10Z</time>
      </trkpt>
      <trkpt lat="42.84007" lon="2.91355">
        <ele>31.8</ele>
        <time>1970-01-01T01:06:11Z</time>
      </trkpt>
      <trkpt lat="42.84004" lon="2.91353">
        <ele>31.6</ele>
        <time>1970-01-01T01:06:12Z</time>
      </trkpt>
      <trkpt lat="42.84001" lon="2.9135">
        <ele>31.6</ele>
        <time>1970-01-01T01:06:13Z</time>
      </trkpt>
      <trkpt lat="42.83998" lon="2.91348">
        <ele>31.6</ele>
        <time>1970-01-01T01:06:14Z</time>
      </trkpt>
      <trkpt lat="42.83994" lon="2.91346">
        <ele>31.4</ele>
        <time>1970-01-01T01:06:15Z</time>
      </trkpt>
      <trkpt lat="42.83991" lon="2.91343">
        <ele>31.4</ele>
        <time>1970-01-01T01:06:16Z</time>
      </trkpt>
      <trkpt lat="42.83987" lon="2.9134">
        <ele>31.2</ele>
        <time>1970-01-01T01:06:17Z</time>
      </trkpt>
      <trkpt lat="42.83984" lon="2.91337">
        <ele>31</ele>
        <time>1970-01-01T01:06:18Z</time>
      </trkpt>
      <trkpt lat="42.8398" lon="2.91334">
        <ele>31</ele>
        <time>1970-01-01T01:06:19Z</time>
      </trkpt>
      <trkpt lat="42.83976" lon="2.91331">
        <ele>30.8</ele>
        <time>1970-01-01T01:06:20Z</time>
      </trkpt>
      <trkpt lat="42.83972" lon="2.91328">
        <ele>30.6</ele>
        <time>1970-01-01T01:06:21Z</time>
      </trkpt>
      <trkpt lat="42.83968" lon="2.91325">
        <ele>30.4</ele>
        <time>1970-01-01T01:06:22Z</time>
      </trkpt>
      <trkpt lat="42.83964" lon="2.91322">
        <ele>30.4</ele>
        <time>1970-01-01T01:06:23Z</time>
      </trkpt>
      <trkpt lat="42.83961" lon="2.9132">
        <ele>30.2</ele>
        <time>1970-01-01T01:06:24Z</time>
      </trkpt>
      <trkpt lat="42.83958" lon="2.91319">
        <ele>30.2</ele>
        <time>1970-01-01T01:06:25Z</time>
      </trkpt>
      <trkpt lat="42.83955" lon="2.91317">
        <ele>30</ele>
        <time>1970-01-01T01:06:26Z</time>
      </trkpt>
      <trkpt lat="42.83952" lon="2.91315">
        <ele>30</ele>
        <time>1970-01-01T01:06:27Z</time>
      </trkpt>
      <trkpt lat="42.8395" lon="2.91312">
        <ele>29.8</ele>
        <time>1970-01-01T01:06:28Z</time>
      </trkpt>
      <trkpt lat="42.83947" lon="2.91309">
        <ele>29.8</ele>
        <time>1970-01-01T01:06:29Z</time>
      </trkpt>
      <trkpt lat="42.83945" lon="2.91306">
        <ele>29.8</ele>
        <time>1970-01-01T01:06:30Z</time>
      </trkpt>
      <trkpt lat="42.83942" lon="2.91303">
        <ele>29.8</ele>
        <time>1970-01-01T01:06:31Z</time>
      </trkpt>
      <trkpt lat="42.83939" lon="2.913">
        <ele>29.8</ele>
        <time>1970-01-01T01:06:32Z</time>
      </trkpt>
      <trkpt lat="42.83936" lon="2.91297">
        <ele>29.8</ele>
        <time>1970-01-01T01:06:33Z</time>
      </trkpt>
      <trkpt lat="42.83934" lon="2.91294">
        <ele>29.8</ele>
        <time>1970-01-01T01:06:34Z</time>
      </trkpt>
      <trkpt lat="42.83931" lon="2.9129">
        <ele>30</ele>
        <time>1970-01-01T01:06:35Z</time>
      </trkpt>
      <trkpt lat="42.8393" lon="2.91289">
        <ele>30</ele>
        <time>1970-01-01T01:06:36Z</time>
      </trkpt>
      <trkpt lat="42.83927" lon="2.91286">
        <ele>30.2</ele>
        <time>1970-01-01T01:06:37Z</time>
      </trkpt>
      <trkpt lat="42.83926" lon="2.91285">
        <ele>30.2</ele>
        <time>1970-01-01T01:06:38Z</time>
      </trkpt>
      <trkpt lat="42.83924" lon="2.91283">
        <ele>30.4</ele>
        <time>1970-01-01T01:06:39Z</time>
      </trkpt>
      <trkpt lat="42.83921" lon="2.9128">
        <ele>30.4</ele>
        <time>1970-01-01T01:06:40Z</time>
      </trkpt>
      <trkpt lat="42.8392" lon="2.91279">
        <ele>30.6</ele>
        <time>1970-01-01T01:06:41Z</time>
      </trkpt>
      <trkpt lat="42.83917" lon="2.91275">
        <ele>30.6</ele>
        <time>1970-01-01T01:06:42Z</time>
      </trkpt>
      <trkpt lat="42.83916" lon="2.91274">
        <ele>30.8</ele>
        <time>1970-01-01T01:06:43Z</time>
      </trkpt>
      <trkpt lat="42.83914" lon="2.91271">
        <ele>30.8</ele>
        <time>1970-01-01T01:06:44Z</time>
      </trkpt>
      <trkpt lat="42.83913" lon="2.9127">
        <ele>30.8</ele>
        <time>1970-01-01T01:06:45Z</time>
      </trkpt>
      <trkpt lat="42.83911" lon="2.91266">
        <ele>31</ele>
        <time>1970-01-01T01:06:46Z</time>
      </trkpt>
      <trkpt lat="42.8391" lon="2.91265">
        <ele>31</ele>
        <time>1970-01-01T01:06:47Z</time>
      </trkpt>
      <trkpt lat="42.83908" lon="2.91262">
        <ele>31</ele>
        <time>1970-01-01T01:06:48Z</time>
      </trkpt>
      <trkpt lat="42.83906" lon="2.91258">
        <ele>31</ele>
        <time>1970-01-01T01:06:49Z</time>
      </trkpt>
      <trkpt lat="42.83904" lon="2.91255">
        <ele>31</ele>
        <time>1970-01-01T01:06:50Z</time>
      </trkpt>
      <trkpt lat="42.83901" lon="2.91251">
        <ele>31</ele>
        <time>1970-01-01T01:06:51Z</time>
      </trkpt>
      <trkpt lat="42.839" lon="2.91249">
        <ele>31</ele>
        <time>1970-01-01T01:06:52Z</time>
      </trkpt>
      <trkpt lat="42.83897" lon="2.91246">
        <ele>31</ele>
        <time>1970-01-01T01:06:53Z</time>
      </trkpt>
      <trkpt lat="42.83894" lon="2.91244">
        <ele>31</ele>
        <time>1970-01-01T01:06:54Z</time>
      </trkpt>
      <trkpt lat="42.83892" lon="2.91243">
        <ele>31</ele>
        <time>1970-01-01T01:06:55Z</time>
      </trkpt>
      <trkpt lat="42.8389" lon="2.91241">
        <ele>31</ele>
        <time>1970-01-01T01:06:56Z</time>
      </trkpt>
      <trkpt lat="42.83887" lon="2.91239">
        <ele>31</ele>
        <time>1970-01-01T01:06:57Z</time>
      </trkpt>
      <trkpt lat="42.83884" lon="2.91236">
        <ele>31</ele>
        <time>1970-01-01T01:06:58Z</time>
      </trkpt>
      <trkpt lat="42.83882" lon="2.91234">
        <ele>31</ele>
        <time>1970-01-01T01:06:59Z</time>
      </trkpt>
      <trkpt lat="42.83879" lon="2.9123">
        <ele>31</ele>
        <time>1970-01-01T01:07:00Z</time>
      </trkpt>
      <trkpt lat="42.83878" lon="2.91228">
        <ele>31</ele>
        <time>1970-01-01T01:07:01Z</time>
      </trkpt>
      <trkpt lat="42.83875" lon="2.91224">
        <ele>31.2</ele>
        <time>1970-01-01T01:07:02Z</time>
      </trkpt>
      <trkpt lat="42.83875" lon="2.91223">
        <ele>31.2</ele>
        <time>1970-01-01T01:07:03Z</time>
      </trkpt>
      <trkpt lat="42.83873" lon="2.9122">
        <ele>31.4</ele>
        <time>1970-01-01T01:07:04Z</time>
      </trkpt>
      <trkpt lat="42.83872" lon="2.91218">
        <ele>31.4</ele>
        <time>1970-01-01T01:07:05Z</time>
      </trkpt>
      <trkpt lat="42.8387" lon="2.91215">
        <ele>31.6</ele>
        <time>1970-01-01T01:07:06Z</time>
      </trkpt>
      <trkpt lat="42.83869" lon="2.91214">
        <ele>31.6</ele>
        <time>1970-01-01T01:07:07Z</time>
      </trkpt>
      <trkpt lat="42.83868" lon="2.91212">
        <ele>31.6</ele>
        <time>1970-01-01T01:07:08Z</time>
      </trkpt>
      <trkpt lat="42.83866" lon="2.91211">
        <ele>31.8</ele>
        <time>1970-01-01T01:07:09Z</time>
      </trkpt>
      <trkpt lat="42.83865" lon="2.9121">
        <ele>31.8</ele>
        <time>1970-01-01T01:07:10Z</time>
      </trkpt>
      <trkpt lat="42.83864" lon="2.91209">
        <ele>32</ele>
        <time>1970-01-01T01:07:11Z</time>
      </trkpt>
      <trkpt lat="42.83861" lon="2.91207">
        <ele>32.2</ele>
        <time>1970-01-01T01:07:12Z</time>
      </trkpt>
      <trkpt lat="42.8386" lon="2.91206">
        <ele>32.4</ele>
        <time>1970-01-01T01:07:13Z</time>
      </trkpt>
      <trkpt lat="42.83857" lon="2.91204">
        <ele>32.6</ele>
        <time>1970-01-01T01:07:14Z</time>
      </trkpt>
      <trkpt lat="42.83856" lon="2.91203">
        <ele>32.8</ele>
        <time>1970-01-01T01:07:15Z</time>
      </trkpt>
      <trkpt lat="42.83854" lon="2.91202">
        <ele>33</ele>
        <time>1970-01-01T01:07:16Z</time>
      </trkpt>
      <trkpt lat="42.83852" lon="2.91202">
        <ele>33</ele>
        <time>1970-01-01T01:07:17Z</time>
      </trkpt>
      <trkpt lat="42.8385" lon="2.912">
        <ele>33.4</ele>
        <time>1970-01-01T01:07:18Z</time>
      </trkpt>
      <trkpt lat="42.83849" lon="2.91199">
        <ele>33.4</ele>
        <time>1970-01-01T01:07:19Z</time>
      </trkpt>
      <trkpt lat="42.83846" lon="2.91198">
        <ele>33.8</ele>
        <time>1970-01-01T01:07:20Z</time>
      </trkpt>
      <trkpt lat="42.83845" lon="2.91197">
        <ele>33.8</ele>
        <time>1970-01-01T01:07:21Z</time>
      </trkpt>
      <trkpt lat="42.83844" lon="2.91196">
        <ele>34</ele>
        <time>1970-01-01T01:07:22Z</time>
      </trkpt>
      <trkpt lat="42.83842" lon="2.91195">
        <ele>34.2</ele>
        <time>1970-01-01T01:07:23Z</time>
      </trkpt>
      <trkpt lat="42.83841" lon="2.91192">
        <ele>34.6</ele>
        <time>1970-01-01T01:07:24Z</time>
      </trkpt>
      <trkpt lat="42.8384" lon="2.91191">
        <ele>34.6</ele>
        <time>1970-01-01T01:07:25Z</time>
      </trkpt>
      <trkpt lat="42.83838" lon="2.91188">
        <ele>34.8</ele>
        <time>1970-01-01T01:07:26Z</time>
      </trkpt>
      <trkpt lat="42.83837" lon="2.91187">
        <ele>35</ele>
        <time>1970-01-01T01:07:27Z</time>
      </trkpt>
      <trkpt lat="42.83836" lon="2.91185">
        <ele>35.2</ele>
        <time>1970-01-01T01:07:28Z</time>
      </trkpt>
      <trkpt lat="42.83835" lon="2.91184">
        <ele>35.2</ele>
        <time>1970-01-01T01:07:29Z</time>
      </trkpt>
      <trkpt lat="42.83835" lon="2.91182">
        <ele>35.4</ele>
        <time>1970-01-01T01:07:30Z</time>
      </trkpt>
      <trkpt lat="42.83834" lon="2.9118">
        <ele>35.6</ele>
        <time>1970-01-01T01:07:31Z</time>
      </trkpt>
      <trkpt lat="42.83832" lon="2.91176">
        <ele>35.8</ele>
        <time>1970-01-01T01:07:32Z</time>
      </trkpt>
      <trkpt lat="42.83832" lon="2.91175">
        <ele>35.8</ele>
        <time>1970-01-01T01:07:33Z</time>
      </trkpt>
      <trkpt lat="42.8383" lon="2.91171">
        <ele>36</ele>
        <time>1970-01-01T01:07:34Z</time>
      </trkpt>
      <trkpt lat="42.83829" lon="2.9117">
        <ele>36.2</ele>
        <time>1970-01-01T01:07:35Z</time>
      </trkpt>
      <trkpt lat="42.83828" lon="2.91168">
        <ele>36.2</ele>
        <time>1970-01-01T01:07:36Z</time>
      </trkpt>
      <trkpt lat="42.83827" lon="2.91166">
        <ele>36.4</ele>
        <time>1970-01-01T01:07:37Z</time>
      </trkpt>
      <trkpt lat="42.83825" lon="2.91163">
        <ele>36.4</ele>
        <time>1970-01-01T01:07:38Z</time>
      </trkpt>
      <trkpt lat="42.83824" lon="2.91162">
        <ele>36.4</ele>
        <time>1970-01-01T01:07:39Z</time>
      </trkpt>
      <trkpt lat="42.83821" lon="2.9116">
        <ele>36.6</ele>
        <time>1970-01-01T01:07:40Z</time>
      </trkpt>
      <trkpt lat="42.83819" lon="2.91159">
        <ele>36.6</ele>
        <time>1970-01-01T01:07:41Z</time>
      </trkpt>
      <trkpt lat="42.83816" lon="2.91157">
        <ele>36.8</ele>
        <time>1970-01-01T01:07:42Z</time>
      </trkpt>
      <trkpt lat="42.83815" lon="2.91156">
        <ele>36.8</ele>
        <time>1970-01-01T01:07:43Z</time>
      </trkpt>
      <trkpt lat="42.83812" lon="2.91153">
        <ele>36.8</ele>
        <time>1970-01-01T01:07:44Z</time>
      </trkpt>
      <trkpt lat="42.83811" lon="2.91153">
        <ele>36.8</ele>
        <time>1970-01-01T01:07:45Z</time>
      </trkpt>
      <trkpt lat="42.83807" lon="2.9115">
        <ele>36.8</ele>
        <time>1970-01-01T01:07:46Z</time>
      </trkpt>
      <trkpt lat="42.83806" lon="2.91149">
        <ele>36.8</ele>
        <time>1970-01-01T01:07:47Z</time>
      </trkpt>
      <trkpt lat="42.83803" lon="2.91147">
        <ele>36.8</ele>
        <time>1970-01-01T01:07:48Z</time>
      </trkpt>
      <trkpt lat="42.838" lon="2.91145">
        <ele>37</ele>
        <time>1970-01-01T01:07:49Z</time>
      </trkpt>
      <trkpt lat="42.83798" lon="2.91143">
        <ele>37</ele>
        <time>1970-01-01T01:07:50Z</time>
      </trkpt>
      <trkpt lat="42.83795" lon="2.9114">
        <ele>37</ele>
        <time>1970-01-01T01:07:51Z</time>
      </trkpt>
      <trkpt lat="42.83792" lon="2.91137">
        <ele>36.8</ele>
        <time>1970-01-01T01:07:52Z</time>
      </trkpt>
      <trkpt lat="42.8379" lon="2.91135">
        <ele>36.8</ele>
        <time>1970-01-01T01:07:53Z</time>
      </trkpt>
      <trkpt lat="42.83787" lon="2.91132">
        <ele>36.8</ele>
        <time>1970-01-01T01:07:54Z</time>
      </trkpt>
      <trkpt lat="42.83785" lon="2.9113">
        <ele>36.8</ele>
        <time>1970-01-01T01:07:55Z</time>
      </trkpt>
      <trkpt lat="42.83782" lon="2.91127">
        <ele>36.6</ele>
        <time>1970-01-01T01:07:56Z</time>
      </trkpt>
      <trkpt lat="42.8378" lon="2.91126">
        <ele>36.6</ele>
        <time>1970-01-01T01:07:57Z</time>
      </trkpt>
      <trkpt lat="42.83777" lon="2.91124">
        <ele>36.4</ele>
        <time>1970-01-01T01:07:58Z</time>
      </trkpt>
      <trkpt lat="42.83775" lon="2.91122">
        <ele>36.2</ele>
        <time>1970-01-01T01:07:59Z</time>
      </trkpt>
      <trkpt lat="42.83772" lon="2.9112">
        <ele>36</ele>
        <time>1970-01-01T01:08:00Z</time>
      </trkpt>
      <trkpt lat="42.83769" lon="2.91119">
        <ele>35.8</ele>
        <time>1970-01-01T01:08:01Z</time>
      </trkpt>
      <trkpt lat="42.83766" lon="2.91117">
        <ele>35.6</ele>
        <time>1970-01-01T01:08:02Z</time>
      </trkpt>
      <trkpt lat="42.83762" lon="2.91116">
        <ele>35.4</ele>
        <time>1970-01-01T01:08:03Z</time>
      </trkpt>
      <trkpt lat="42.83759" lon="2.91114">
        <ele>35</ele>
        <time>1970-01-01T01:08:04Z</time>
      </trkpt>
      <trkpt lat="42.83755" lon="2.91111">
        <ele>34.8</ele>
        <time>1970-01-01T01:08:05Z</time>
      </trkpt>
      <trkpt lat="42.83752" lon="2.91108">
        <ele>34.4</ele>
        <time>1970-01-01T01:08:06Z</time>
      </trkpt>
      <trkpt lat="42.83749" lon="2.91106">
        <ele>34.2</ele>
        <time>1970-01-01T01:08:07Z</time>
      </trkpt>
      <trkpt lat="42.83745" lon="2.91104">
        <ele>33.8</ele>
        <time>1970-01-01T01:08:08Z</time>
      </trkpt>
      <trkpt lat="42.83742" lon="2.91102">
        <ele>33.6</ele>
        <time>1970-01-01T01:08:09Z</time>
      </trkpt>
      <trkpt lat="42.83738" lon="2.911">
        <ele>33.4</ele>
        <time>1970-01-01T01:08:10Z</time>
      </trkpt>
      <trkpt lat="42.83735" lon="2.91098">
        <ele>33</ele>
        <time>1970-01-01T01:08:11Z</time>
      </trkpt>
      <trkpt lat="42.83732" lon="2.91095">
        <ele>32.8</ele>
        <time>1970-01-01T01:08:12Z</time>
      </trkpt>
      <trkpt lat="42.83731" lon="2.91094">
        <ele>32.6</ele>
        <time>1970-01-01T01:08:13Z</time>
      </trkpt>
      <trkpt lat="42.83728" lon="2.91093">
        <ele>32.4</ele>
        <time>1970-01-01T01:08:14Z</time>
      </trkpt>
      <trkpt lat="42.83727" lon="2.91092">
        <ele>32.4</ele>
        <time>1970-01-01T01:08:15Z</time>
      </trkpt>
      <trkpt lat="42.83724" lon="2.91094">
        <ele>32.2</ele>
        <time>1970-01-01T01:08:16Z</time>
      </trkpt>
      <trkpt lat="42.83723" lon="2.91095">
        <ele>32.2</ele>
        <time>1970-01-01T01:08:17Z</time>
      </trkpt>
      <trkpt lat="42.83721" lon="2.91098">
        <ele>32</ele>
        <time>1970-01-01T01:08:18Z</time>
      </trkpt>
      <trkpt lat="42.83719" lon="2.91102">
        <ele>31.8</ele>
        <time>1970-01-01T01:08:19Z</time>
      </trkpt>
      <trkpt lat="42.83717" lon="2.91106">
        <ele>31.6</ele>
        <time>1970-01-01T01:08:20Z</time>
      </trkpt>
      <trkpt lat="42.83715" lon="2.91112">
        <ele>31.4</ele>
        <time>1970-01-01T01:08:21Z</time>
      </trkpt>
      <trkpt lat="42.83713" lon="2.91117">
        <ele>31.2</ele>
        <time>1970-01-01T01:08:22Z</time>
      </trkpt>
      <trkpt lat="42.8371" lon="2.91122">
        <ele>30.8</ele>
        <time>1970-01-01T01:08:23Z</time>
      </trkpt>
      <trkpt lat="42.83707" lon="2.91128">
        <ele>30.6</ele>
        <time>1970-01-01T01:08:24Z</time>
      </trkpt>
      <trkpt lat="42.83704" lon="2.91135">
        <ele>30.2</ele>
        <time>1970-01-01T01:08:25Z</time>
      </trkpt>
      <trkpt lat="42.83701" lon="2.91142">
        <ele>29.8</ele>
        <time>1970-01-01T01:08:26Z</time>
      </trkpt>
      <trkpt lat="42.83698" lon="2.91149">
        <ele>29.4</ele>
        <time>1970-01-01T01:08:27Z</time>
      </trkpt>
      <trkpt lat="42.83695" lon="2.91157">
        <ele>29.2</ele>
        <time>1970-01-01T01:08:28Z</time>
      </trkpt>
      <trkpt lat="42.83692" lon="2.91165">
        <ele>28.8</ele>
        <time>1970-01-01T01:08:29Z</time>
      </trkpt>
      <trkpt lat="42.83688" lon="2.91174">
        <ele>28.4</ele>
        <time>1970-01-01T01:08:30Z</time>
      </trkpt>
      <trkpt lat="42.83685" lon="2.91183">
        <ele>27.8</ele>
        <time>1970-01-01T01:08:31Z</time>
      </trkpt>
      <trkpt lat="42.83682" lon="2.91192">
        <ele>27.4</ele>
        <time>1970-01-01T01:08:32Z</time>
      </trkpt>
      <trkpt lat="42.83678" lon="2.91201">
        <ele>26.8</ele>
        <time>1970-01-01T01:08:33Z</time>
      </trkpt>
      <trkpt lat="42.83675" lon="2.9121">
        <ele>26.4</ele>
        <time>1970-01-01T01:08:34Z</time>
      </trkpt>
      <trkpt lat="42.83672" lon="2.9122">
        <ele>26</ele>
        <time>1970-01-01T01:08:35Z</time>
      </trkpt>
      <trkpt lat="42.8367" lon="2.9123">
        <ele>25.6</ele>
        <time>1970-01-01T01:08:36Z</time>
      </trkpt>
      <trkpt lat="42.83668" lon="2.91239">
        <ele>25.2</ele>
        <time>1970-01-01T01:08:37Z</time>
      </trkpt>
      <trkpt lat="42.83667" lon="2.9125">
        <ele>25</ele>
        <time>1970-01-01T01:08:38Z</time>
      </trkpt>
      <trkpt lat="42.83666" lon="2.9126">
        <ele>24.6</ele>
        <time>1970-01-01T01:08:39Z</time>
      </trkpt>
      <trkpt lat="42.83665" lon="2.9127">
        <ele>24.4</ele>
        <time>1970-01-01T01:08:40Z</time>
      </trkpt>
      <trkpt lat="42.83664" lon="2.9128">
        <ele>24</ele>
        <time>1970-01-01T01:08:41Z</time>
      </trkpt>
      <trkpt lat="42.83662" lon="2.91291">
        <ele>23.8</ele>
        <time>1970-01-01T01:08:42Z</time>
      </trkpt>
      <trkpt lat="42.83661" lon="2.91301">
        <ele>23.4</ele>
        <time>1970-01-01T01:08:43Z</time>
      </trkpt>
      <trkpt lat="42.83659" lon="2.91312">
        <ele>23.2</ele>
        <time>1970-01-01T01:08:44Z</time>
      </trkpt>
      <trkpt lat="42.83656" lon="2.91322">
        <ele>23</ele>
        <time>1970-01-01T01:08:45Z</time>
      </trkpt>
      <trkpt lat="42.83653" lon="2.91332">
        <ele>22.8</ele>
        <time>1970-01-01T01:08:46Z</time>
      </trkpt>
      <trkpt lat="42.83651" lon="2.91341">
        <ele>22.6</ele>
        <time>1970-01-01T01:08:47Z</time>
      </trkpt>
      <trkpt lat="42.83648" lon="2.91351">
        <ele>22.4</ele>
        <time>1970-01-01T01:08:48Z</time>
      </trkpt>
      <trkpt lat="42.83646" lon="2.9136">
        <ele>22.2</ele>
        <time>1970-01-01T01:08:49Z</time>
      </trkpt>
      <trkpt lat="42.83643" lon="2.9137">
        <ele>22</ele>
        <time>1970-01-01T01:08:50Z</time>
      </trkpt>
      <trkpt lat="42.8364" lon="2.91378">
        <ele>21.8</ele>
        <time>1970-01-01T01:08:51Z</time>
      </trkpt>
      <trkpt lat="42.83637" lon="2.91387">
        <ele>21.6</ele>
        <time>1970-01-01T01:08:52Z</time>
      </trkpt>
      <trkpt lat="42.83634" lon="2.91395">
        <ele>21.4</ele>
        <time>1970-01-01T01:08:53Z</time>
      </trkpt>
      <trkpt lat="42.83631" lon="2.91403">
        <ele>21.2</ele>
        <time>1970-01-01T01:08:54Z</time>
      </trkpt>
      <trkpt lat="42.83626" lon="2.91411">
        <ele>20.8</ele>
        <time>1970-01-01T01:08:55Z</time>
      </trkpt>
      <trkpt lat="42.83621" lon="2.91418">
        <ele>20.6</ele>
        <time>1970-01-01T01:08:56Z</time>
      </trkpt>
      <trkpt lat="42.83616" lon="2.91425">
        <ele>20.2</ele>
        <time>1970-01-01T01:08:57Z</time>
      </trkpt>
      <trkpt lat="42.83611" lon="2.91433">
        <ele>20</ele>
        <time>1970-01-01T01:08:58Z</time>
      </trkpt>
      <trkpt lat="42.83607" lon="2.91441">
        <ele>19.6</ele>
        <time>1970-01-01T01:08:59Z</time>
      </trkpt>
      <trkpt lat="42.83603" lon="2.9145">
        <ele>19.4</ele>
        <time>1970-01-01T01:09:00Z</time>
      </trkpt>
      <trkpt lat="42.836" lon="2.91459">
        <ele>19.2</ele>
        <time>1970-01-01T01:09:01Z</time>
      </trkpt>
      <trkpt lat="42.83597" lon="2.91469">
        <ele>18.8</ele>
        <time>1970-01-01T01:09:02Z</time>
      </trkpt>
      <trkpt lat="42.83594" lon="2.91478">
        <ele>18.6</ele>
        <time>1970-01-01T01:09:03Z</time>
      </trkpt>
      <trkpt lat="42.83591" lon="2.91487">
        <ele>18.4</ele>
        <time>1970-01-01T01:09:04Z</time>
      </trkpt>
      <trkpt lat="42.83588" lon="2.91496">
        <ele>18</ele>
        <time>1970-01-01T01:09:05Z</time>
      </trkpt>
      <trkpt lat="42.83585" lon="2.91504">
        <ele>17.6</ele>
        <time>1970-01-01T01:09:06Z</time>
      </trkpt>
      <trkpt lat="42.83582" lon="2.91513">
        <ele>17.4</ele>
        <time>1970-01-01T01:09:07Z</time>
      </trkpt>
      <trkpt lat="42.83579" lon="2.91523">
        <ele>17</ele>
        <time>1970-01-01T01:09:08Z</time>
      </trkpt>
      <trkpt lat="42.83576" lon="2.91532">
        <ele>16.6</ele>
        <time>1970-01-01T01:09:09Z</time>
      </trkpt>
      <trkpt lat="42.83573" lon="2.91542">
        <ele>16.2</ele>
        <time>1970-01-01T01:09:10Z</time>
      </trkpt>
      <trkpt lat="42.83571" lon="2.91552">
        <ele>15.8</ele>
        <time>1970-01-01T01:09:11Z</time>
      </trkpt>
      <trkpt lat="42.83568" lon="2.91562">
        <ele>15.4</ele>
        <time>1970-01-01T01:09:12Z</time>
      </trkpt>
      <trkpt lat="42.83565" lon="2.91573">
        <ele>15</ele>
        <time>1970-01-01T01:09:13Z</time>
      </trkpt>
      <trkpt lat="42.83563" lon="2.91583">
        <ele>14.8</ele>
        <time>1970-01-01T01:09:14Z</time>
      </trkpt>
      <trkpt lat="42.8356" lon="2.91594">
        <ele>14.4</ele>
        <time>1970-01-01T01:09:15Z</time>
      </trkpt>
      <trkpt lat="42.83558" lon="2.91604">
        <ele>14.2</ele>
        <time>1970-01-01T01:09:16Z</time>
      </trkpt>
      <trkpt lat="42.83555" lon="2.91615">
        <ele>14</ele>
        <time>1970-01-01T01:09:17Z</time>
      </trkpt>
      <trkpt lat="42.83553" lon="2.91626">
        <ele>13.8</ele>
        <time>1970-01-01T01:09:18Z</time>
      </trkpt>
      <trkpt lat="42.8355" lon="2.91636">
        <ele>13.6</ele>
        <time>1970-01-01T01:09:19Z</time>
      </trkpt>
      <trkpt lat="42.83548" lon="2.91647">
        <ele>13.4</ele>
        <time>1970-01-01T01:09:20Z</time>
      </trkpt>
      <trkpt lat="42.83545" lon="2.91657">
        <ele>13.2</ele>
        <time>1970-01-01T01:09:21Z</time>
      </trkpt>
      <trkpt lat="42.83542" lon="2.91667">
        <ele>13</ele>
        <time>1970-01-01T01:09:22Z</time>
      </trkpt>
      <trkpt lat="42.8354" lon="2.91677">
        <ele>12.8</ele>
        <time>1970-01-01T01:09:23Z</time>
      </trkpt>
      <trkpt lat="42.83538" lon="2.91685">
        <ele>12.6</ele>
        <time>1970-01-01T01:09:24Z</time>
      </trkpt>
      <trkpt lat="42.83536" lon="2.91692">
        <ele>12.4</ele>
        <time>1970-01-01T01:09:25Z</time>
      </trkpt>
      <trkpt lat="42.83535" lon="2.91699">
        <ele>12.2</ele>
        <time>1970-01-01T01:09:26Z</time>
      </trkpt>
      <trkpt lat="42.83533" lon="2.91703">
        <ele>12.2</ele>
        <time>1970-01-01T01:09:27Z</time>
      </trkpt>
      <trkpt lat="42.83531" lon="2.91706">
        <ele>12</ele>
        <time>1970-01-01T01:09:28Z</time>
      </trkpt>
      <trkpt lat="42.83528" lon="2.91708">
        <ele>12</ele>
        <time>1970-01-01T01:09:29Z</time>
      </trkpt>
      <trkpt lat="42.83524" lon="2.91708">
        <ele>12</ele>
        <time>1970-01-01T01:09:30Z</time>
      </trkpt>
      <trkpt lat="42.83521" lon="2.91707">
        <ele>12</ele>
        <time>1970-01-01T01:09:31Z</time>
      </trkpt>
      <trkpt lat="42.83517" lon="2.91705">
        <ele>12</ele>
        <time>1970-01-01T01:09:32Z</time>
      </trkpt>
      <trkpt lat="42.83513" lon="2.91704">
        <ele>12</ele>
        <time>1970-01-01T01:09:33Z</time>
      </trkpt>
      <trkpt lat="42.83509" lon="2.91702">
        <ele>12</ele>
        <time>1970-01-01T01:09:34Z</time>
      </trkpt>
      <trkpt lat="42.83506" lon="2.91701">
        <ele>12</ele>
        <time>1970-01-01T01:09:35Z</time>
      </trkpt>
      <trkpt lat="42.83502" lon="2.917">
        <ele>12</ele>
        <time>1970-01-01T01:09:36Z</time>
      </trkpt>
      <trkpt lat="42.83498" lon="2.91698">
        <ele>12</ele>
        <time>1970-01-01T01:09:37Z</time>
      </trkpt>
      <trkpt lat="42.83495" lon="2.91697">
        <ele>12</ele>
        <time>1970-01-01T01:09:38Z</time>
      </trkpt>
      <trkpt lat="42.83491" lon="2.91696">
        <ele>12</ele>
        <time>1970-01-01T01:09:39Z</time>
      </trkpt>
      <trkpt lat="42.83488" lon="2.91695">
        <ele>12</ele>
        <time>1970-01-01T01:09:40Z</time>
      </trkpt>
      <trkpt lat="42.83485" lon="2.91693">
        <ele>12.2</ele>
        <time>1970-01-01T01:09:41Z</time>
      </trkpt>
      <trkpt lat="42.83481" lon="2.91692">
        <ele>12.2</ele>
        <time>1970-01-01T01:09:42Z</time>
      </trkpt>
      <trkpt lat="42.83478" lon="2.91691">
        <ele>12.2</ele>
        <time>1970-01-01T01:09:43Z</time>
      </trkpt>
      <trkpt lat="42.83475" lon="2.9169">
        <ele>12.2</ele>
        <time>1970-01-01T01:09:44Z</time>
      </trkpt>
      <trkpt lat="42.83472" lon="2.91688">
        <ele>12.2</ele>
        <time>1970-01-01T01:09:45Z</time>
      </trkpt>
      <trkpt lat="42.83468" lon="2.91687">
        <ele>12.2</ele>
        <time>1970-01-01T01:09:46Z</time>
      </trkpt>
      <trkpt lat="42.83465" lon="2.91686">
        <ele>12.2</ele>
        <time>1970-01-01T01:09:47Z</time>
      </trkpt>
      <trkpt lat="42.83461" lon="2.91685">
        <ele>12.4</ele>
        <time>1970-01-01T01:09:48Z</time>
      </trkpt>
      <trkpt lat="42.83457" lon="2.91683">
        <ele>12.4</ele>
        <time>1970-01-01T01:09:49Z</time>
      </trkpt>
      <trkpt lat="42.83454" lon="2.91682">
        <ele>12.4</ele>
        <time>1970-01-01T01:09:50Z</time>
      </trkpt>
      <trkpt lat="42.8345" lon="2.91681">
        <ele>12.4</ele>
        <time>1970-01-01T01:09:51Z</time>
      </trkpt>
      <trkpt lat="42.83447" lon="2.9168">
        <ele>12.4</ele>
        <time>1970-01-01T01:09:52Z</time>
      </trkpt>
      <trkpt lat="42.83444" lon="2.91679">
        <ele>12.4</ele>
        <time>1970-01-01T01:09:53Z</time>
      </trkpt>
      <trkpt lat="42.8344" lon="2.91677">
        <ele>12.6</ele>
        <time>1970-01-01T01:09:54Z</time>
      </trkpt>
      <trkpt lat="42.83437" lon="2.91676">
        <ele>12.6</ele>
        <time>1970-01-01T01:09:55Z</time>
      </trkpt>
      <trkpt lat="42.83433" lon="2.91675">
        <ele>12.6</ele>
        <time>1970-01-01T01:09:56Z</time>
      </trkpt>
      <trkpt lat="42.8343" lon="2.91674">
        <ele>12.6</ele>
        <time>1970-01-01T01:09:57Z</time>
      </trkpt>
      <trkpt lat="42.83427" lon="2.91672">
        <ele>12.6</ele>
        <time>1970-01-01T01:09:58Z</time>
      </trkpt>
      <trkpt lat="42.83423" lon="2.91671">
        <ele>12.6</ele>
        <time>1970-01-01T01:09:59Z</time>
      </trkpt>
      <trkpt lat="42.8342" lon="2.91669">
        <ele>12.8</ele>
        <time>1970-01-01T01:10:00Z</time>
      </trkpt>
      <trkpt lat="42.83417" lon="2.91667">
        <ele>12.8</ele>
        <time>1970-01-01T01:10:01Z</time>
      </trkpt>
      <trkpt lat="42.83414" lon="2.91664">
        <ele>12.8</ele>
        <time>1970-01-01T01:10:02Z</time>
      </trkpt>
      <trkpt lat="42.83411" lon="2.91661">
        <ele>12.8</ele>
        <time>1970-01-01T01:10:03Z</time>
      </trkpt>
      <trkpt lat="42.83408" lon="2.91659">
        <ele>12.8</ele>
        <time>1970-01-01T01:10:04Z</time>
      </trkpt>
      <trkpt lat="42.83405" lon="2.91656">
        <ele>12.8</ele>
        <time>1970-01-01T01:10:05Z</time>
      </trkpt>
      <trkpt lat="42.83402" lon="2.91653">
        <ele>12.8</ele>
        <time>1970-01-01T01:10:06Z</time>
      </trkpt>
      <trkpt lat="42.83399" lon="2.9165">
        <ele>12.8</ele>
        <time>1970-01-01T01:10:07Z</time>
      </trkpt>
      <trkpt lat="42.83396" lon="2.91648">
        <ele>12.8</ele>
        <time>1970-01-01T01:10:08Z</time>
      </trkpt>
      <trkpt lat="42.83393" lon="2.91646">
        <ele>13</ele>
        <time>1970-01-01T01:10:09Z</time>
      </trkpt>
      <trkpt lat="42.83391" lon="2.91644">
        <ele>13</ele>
        <time>1970-01-01T01:10:10Z</time>
      </trkpt>
      <trkpt lat="42.83389" lon="2.91641">
        <ele>13</ele>
        <time>1970-01-01T01:10:11Z</time>
      </trkpt>
      <trkpt lat="42.83386" lon="2.91639">
        <ele>13</ele>
        <time>1970-01-01T01:10:12Z</time>
      </trkpt>
      <trkpt lat="42.83383" lon="2.91638">
        <ele>13.2</ele>
        <time>1970-01-01T01:10:13Z</time>
      </trkpt>
      <trkpt lat="42.83382" lon="2.91637">
        <ele>13.2</ele>
        <time>1970-01-01T01:10:14Z</time>
      </trkpt>
      <trkpt lat="42.83381" lon="2.91638">
        <ele>13.2</ele>
        <time>1970-01-01T01:10:15Z</time>
      </trkpt>
      <trkpt lat="42.83379" lon="2.91638">
        <ele>13.2</ele>
        <time>1970-01-01T01:10:16Z</time>
      </trkpt>
      <trkpt lat="42.83377" lon="2.9164">
        <ele>13.2</ele>
        <time>1970-01-01T01:10:17Z</time>
      </trkpt>
      <trkpt lat="42.83374" lon="2.91644">
        <ele>13.4</ele>
        <time>1970-01-01T01:10:18Z</time>
      </trkpt>
      <trkpt lat="42.83373" lon="2.91646">
        <ele>13.4</ele>
        <time>1970-01-01T01:10:19Z</time>
      </trkpt>
      <trkpt lat="42.83371" lon="2.91649">
        <ele>13.4</ele>
        <time>1970-01-01T01:10:20Z</time>
      </trkpt>
      <trkpt lat="42.83369" lon="2.91653">
        <ele>13.4</ele>
        <time>1970-01-01T01:10:21Z</time>
      </trkpt>
      <trkpt lat="42.83365" lon="2.91654">
        <ele>13.2</ele>
        <time>1970-01-01T01:10:22Z</time>
      </trkpt>
      <trkpt lat="42.83364" lon="2.91654">
        <ele>13.2</ele>
        <time>1970-01-01T01:10:23Z</time>
      </trkpt>
      <trkpt lat="42.8336" lon="2.91654">
        <ele>13.2</ele>
        <time>1970-01-01T01:10:24Z</time>
      </trkpt>
      <trkpt lat="42.83356" lon="2.91653">
        <ele>13.2</ele>
        <time>1970-01-01T01:10:25Z</time>
      </trkpt>
      <trkpt lat="42.83352" lon="2.91652">
        <ele>13.2</ele>
        <time>1970-01-01T01:10:26Z</time>
      </trkpt>
      <trkpt lat="42.83348" lon="2.91651">
        <ele>13</ele>
        <time>1970-01-01T01:10:27Z</time>
      </trkpt>
      <trkpt lat="42.83344" lon="2.9165">
        <ele>13</ele>
        <time>1970-01-01T01:10:28Z</time>
      </trkpt>
      <trkpt lat="42.8334" lon="2.9165">
        <ele>13</ele>
        <time>1970-01-01T01:10:29Z</time>
      </trkpt>
      <trkpt lat="42.83337" lon="2.91649">
        <ele>13</ele>
        <time>1970-01-01T01:10:30Z</time>
      </trkpt>
      <trkpt lat="42.83333" lon="2.91648">
        <ele>13</ele>
        <time>1970-01-01T01:10:31Z</time>
      </trkpt>
      <trkpt lat="42.83329" lon="2.91648">
        <ele>13</ele>
        <time>1970-01-01T01:10:32Z</time>
      </trkpt>
      <trkpt lat="42.83325" lon="2.91647">
        <ele>12.8</ele>
        <time>1970-01-01T01:10:33Z</time>
      </trkpt>
      <trkpt lat="42.83321" lon="2.91646">
        <ele>12.8</ele>
        <time>1970-01-01T01:10:34Z</time>
      </trkpt>
      <trkpt lat="42.83317" lon="2.91646">
        <ele>12.8</ele>
        <time>1970-01-01T01:10:35Z</time>
      </trkpt>
      <trkpt lat="42.83313" lon="2.91645">
        <ele>12.8</ele>
        <time>1970-01-01T01:10:36Z</time>
      </trkpt>
      <trkpt lat="42.83309" lon="2.91645">
        <ele>12.8</ele>
        <time>1970-01-01T01:10:37Z</time>
      </trkpt>
      <trkpt lat="42.83305" lon="2.91644">
        <ele>12.8</ele>
        <time>1970-01-01T01:10:38Z</time>
      </trkpt>
      <trkpt lat="42.833" lon="2.91644">
        <ele>12.8</ele>
        <time>1970-01-01T01:10:39Z</time>
      </trkpt>
      <trkpt lat="42.83296" lon="2.91644">
        <ele>12.8</ele>
        <time>1970-01-01T01:10:40Z</time>
      </trkpt>
      <trkpt lat="42.83292" lon="2.91644">
        <ele>12.8</ele>
        <time>1970-01-01T01:10:41Z</time>
      </trkpt>
      <trkpt lat="42.83288" lon="2.91643">
        <ele>13</ele>
        <time>1970-01-01T01:10:42Z</time>
      </trkpt>
      <trkpt lat="42.83285" lon="2.91643">
        <ele>13</ele>
        <time>1970-01-01T01:10:43Z</time>
      </trkpt>
      <trkpt lat="42.83281" lon="2.91643">
        <ele>13</ele>
        <time>1970-01-01T01:10:44Z</time>
      </trkpt>
      <trkpt lat="42.83277" lon="2.91642">
        <ele>13</ele>
        <time>1970-01-01T01:10:45Z</time>
      </trkpt>
      <trkpt lat="42.83274" lon="2.91642">
        <ele>13</ele>
        <time>1970-01-01T01:10:46Z</time>
      </trkpt>
      <trkpt lat="42.83271" lon="2.91642">
        <ele>13.2</ele>
        <time>1970-01-01T01:10:47Z</time>
      </trkpt>
      <trkpt lat="42.83268" lon="2.91642">
        <ele>13.2</ele>
        <time>1970-01-01T01:10:48Z</time>
      </trkpt>
      <trkpt lat="42.83265" lon="2.91641">
        <ele>13.2</ele>
        <time>1970-01-01T01:10:49Z</time>
      </trkpt>
      <trkpt lat="42.83261" lon="2.91641">
        <ele>13.2</ele>
        <time>1970-01-01T01:10:50Z</time>
      </trkpt>
      <trkpt lat="42.83258" lon="2.9164">
        <ele>13</ele>
        <time>1970-01-01T01:10:51Z</time>
      </trkpt>
      <trkpt lat="42.83255" lon="2.91639">
        <ele>13</ele>
        <time>1970-01-01T01:10:52Z</time>
      </trkpt>
      <trkpt lat="42.83251" lon="2.91638">
        <ele>13</ele>
        <time>1970-01-01T01:10:53Z</time>
      </trkpt>
      <trkpt lat="42.83248" lon="2.91638">
        <ele>13</ele>
        <time>1970-01-01T01:10:54Z</time>
      </trkpt>
      <trkpt lat="42.83244" lon="2.91638">
        <ele>13</ele>
        <time>1970-01-01T01:10:55Z</time>
      </trkpt>
      <trkpt lat="42.8324" lon="2.91638">
        <ele>13</ele>
        <time>1970-01-01T01:10:56Z</time>
      </trkpt>
      <trkpt lat="42.83236" lon="2.91638">
        <ele>13</ele>
        <time>1970-01-01T01:10:57Z</time>
      </trkpt>
      <trkpt lat="42.83232" lon="2.91638">
        <ele>13</ele>
        <time>1970-01-01T01:10:58Z</time>
      </trkpt>
      <trkpt lat="42.83228" lon="2.91638">
        <ele>13</ele>
        <time>1970-01-01T01:10:59Z</time>
      </trkpt>
      <trkpt lat="42.83225" lon="2.91639">
        <ele>13</ele>
        <time>1970-01-01T01:11:00Z</time>
      </trkpt>
      <trkpt lat="42.83221" lon="2.91638">
        <ele>13.2</ele>
        <time>1970-01-01T01:11:01Z</time>
      </trkpt>
      <trkpt lat="42.83218" lon="2.91638">
        <ele>13.2</ele>
        <time>1970-01-01T01:11:02Z</time>
      </trkpt>
      <trkpt lat="42.83215" lon="2.91638">
        <ele>13.2</ele>
        <time>1970-01-01T01:11:03Z</time>
      </trkpt>
      <trkpt lat="42.83211" lon="2.91637">
        <ele>13.2</ele>
        <time>1970-01-01T01:11:04Z</time>
      </trkpt>
      <trkpt lat="42.83208" lon="2.91637">
        <ele>13.2</ele>
        <time>1970-01-01T01:11:05Z</time>
      </trkpt>
      <trkpt lat="42.83204" lon="2.91637">
        <ele>13.2</ele>
        <time>1970-01-01T01:11:06Z</time>
      </trkpt>
      <trkpt lat="42.832" lon="2.91637">
        <ele>13.2</ele>
        <time>1970-01-01T01:11:07Z</time>
      </trkpt>
      <trkpt lat="42.83196" lon="2.91637">
        <ele>13.2</ele>
        <time>1970-01-01T01:11:08Z</time>
      </trkpt>
      <trkpt lat="42.83193" lon="2.91636">
        <ele>13.2</ele>
        <time>1970-01-01T01:11:09Z</time>
      </trkpt>
      <trkpt lat="42.83189" lon="2.91636">
        <ele>13.2</ele>
        <time>1970-01-01T01:11:10Z</time>
      </trkpt>
      <trkpt lat="42.83185" lon="2.91636">
        <ele>13.2</ele>
        <time>1970-01-01T01:11:11Z</time>
      </trkpt>
      <trkpt lat="42.83182" lon="2.91636">
        <ele>13.2</ele>
        <time>1970-01-01T01:11:12Z</time>
      </trkpt>
      <trkpt lat="42.83178" lon="2.91636">
        <ele>13.2</ele>
        <time>1970-01-01T01:11:13Z</time>
      </trkpt>
      <trkpt lat="42.83174" lon="2.91636">
        <ele>13.4</ele>
        <time>1970-01-01T01:11:14Z</time>
      </trkpt>
      <trkpt lat="42.83171" lon="2.91636">
        <ele>13.4</ele>
        <time>1970-01-01T01:11:15Z</time>
      </trkpt>
      <trkpt lat="42.83168" lon="2.91635">
        <ele>13.4</ele>
        <time>1970-01-01T01:11:16Z</time>
      </trkpt>
      <trkpt lat="42.83165" lon="2.91635">
        <ele>13.4</ele>
        <time>1970-01-01T01:11:17Z</time>
      </trkpt>
      <trkpt lat="42.83162" lon="2.91635">
        <ele>13.4</ele>
        <time>1970-01-01T01:11:18Z</time>
      </trkpt>
      <trkpt lat="42.83159" lon="2.91634">
        <ele>13.4</ele>
        <time>1970-01-01T01:11:19Z</time>
      </trkpt>
      <trkpt lat="42.83156" lon="2.91633">
        <ele>13.4</ele>
        <time>1970-01-01T01:11:20Z</time>
      </trkpt>
      <trkpt lat="42.83152" lon="2.91633">
        <ele>13.4</ele>
        <time>1970-01-01T01:11:21Z</time>
      </trkpt>
      <trkpt lat="42.83149" lon="2.91632">
        <ele>13.4</ele>
        <time>1970-01-01T01:11:22Z</time>
      </trkpt>
      <trkpt lat="42.83146" lon="2.91631">
        <ele>13.6</ele>
        <time>1970-01-01T01:11:23Z</time>
      </trkpt>
      <trkpt lat="42.83142" lon="2.91629">
        <ele>13.6</ele>
        <time>1970-01-01T01:11:24Z</time>
      </trkpt>
      <trkpt lat="42.83139" lon="2.91627">
        <ele>13.6</ele>
        <time>1970-01-01T01:11:25Z</time>
      </trkpt>
      <trkpt lat="42.83136" lon="2.91625">
        <ele>13.6</ele>
        <time>1970-01-01T01:11:26Z</time>
      </trkpt>
      <trkpt lat="42.83133" lon="2.91622">
        <ele>13.6</ele>
        <time>1970-01-01T01:11:27Z</time>
      </trkpt>
      <trkpt lat="42.83129" lon="2.91619">
        <ele>13.6</ele>
        <time>1970-01-01T01:11:28Z</time>
      </trkpt>
      <trkpt lat="42.83126" lon="2.91617">
        <ele>13.6</ele>
        <time>1970-01-01T01:11:29Z</time>
      </trkpt>
      <trkpt lat="42.83123" lon="2.91614">
        <ele>13.6</ele>
        <time>1970-01-01T01:11:30Z</time>
      </trkpt>
      <trkpt lat="42.8312" lon="2.91612">
        <ele>13.6</ele>
        <time>1970-01-01T01:11:31Z</time>
      </trkpt>
      <trkpt lat="42.83117" lon="2.91609">
        <ele>13.6</ele>
        <time>1970-01-01T01:11:32Z</time>
      </trkpt>
      <trkpt lat="42.83113" lon="2.91605">
        <ele>13.6</ele>
        <time>1970-01-01T01:11:33Z</time>
      </trkpt>
      <trkpt lat="42.8311" lon="2.91602">
        <ele>13.6</ele>
        <time>1970-01-01T01:11:34Z</time>
      </trkpt>
      <trkpt lat="42.83107" lon="2.91599">
        <ele>13.6</ele>
        <time>1970-01-01T01:11:35Z</time>
      </trkpt>
      <trkpt lat="42.83104" lon="2.91596">
        <ele>13.6</ele>
        <time>1970-01-01T01:11:36Z</time>
      </trkpt>
      <trkpt lat="42.831" lon="2.91594">
        <ele>13.6</ele>
        <time>1970-01-01T01:11:37Z</time>
      </trkpt>
      <trkpt lat="42.83097" lon="2.91591">
        <ele>13.6</ele>
        <time>1970-01-01T01:11:38Z</time>
      </trkpt>
      <trkpt lat="42.83094" lon="2.91588">
        <ele>13.6</ele>
        <time>1970-01-01T01:11:39Z</time>
      </trkpt>
      <trkpt lat="42.83091" lon="2.91585">
        <ele>13.6</ele>
        <time>1970-01-01T01:11:40Z</time>
      </trkpt>
      <trkpt lat="42.83089" lon="2.91582">
        <ele>13.6</ele>
        <time>1970-01-01T01:11:41Z</time>
      </trkpt>
      <trkpt lat="42.83085" lon="2.9158">
        <ele>13.6</ele>
        <time>1970-01-01T01:11:42Z</time>
      </trkpt>
      <trkpt lat="42.83083" lon="2.91577">
        <ele>13.6</ele>
        <time>1970-01-01T01:11:43Z</time>
      </trkpt>
      <trkpt lat="42.8308" lon="2.91574">
        <ele>13.6</ele>
        <time>1970-01-01T01:11:44Z</time>
      </trkpt>
      <trkpt lat="42.83076" lon="2.91571">
        <ele>13.6</ele>
        <time>1970-01-01T01:11:45Z</time>
      </trkpt>
      <trkpt lat="42.83073" lon="2.91568">
        <ele>13.6</ele>
        <time>1970-01-01T01:11:46Z</time>
      </trkpt>
      <trkpt lat="42.8307" lon="2.91566">
        <ele>13.6</ele>
        <time>1970-01-01T01:11:47Z</time>
      </trkpt>
      <trkpt lat="42.83067" lon="2.91563">
        <ele>13.6</ele>
        <time>1970-01-01T01:11:48Z</time>
      </trkpt>
      <trkpt lat="42.83064" lon="2.9156">
        <ele>13.6</ele>
        <time>1970-01-01T01:11:49Z</time>
      </trkpt>
      <trkpt lat="42.83062" lon="2.91556">
        <ele>13.6</ele>
        <time>1970-01-01T01:11:50Z</time>
      </trkpt>
      <trkpt lat="42.8306" lon="2.91553">
        <ele>13.6</ele>
        <time>1970-01-01T01:11:51Z</time>
      </trkpt>
      <trkpt lat="42.83058" lon="2.9155">
        <ele>13.6</ele>
        <time>1970-01-01T01:11:52Z</time>
      </trkpt>
      <trkpt lat="42.83055" lon="2.91547">
        <ele>13.6</ele>
        <time>1970-01-01T01:11:53Z</time>
      </trkpt>
      <trkpt lat="42.83052" lon="2.91545">
        <ele>13.4</ele>
        <time>1970-01-01T01:11:54Z</time>
      </trkpt>
      <trkpt lat="42.83049" lon="2.91544">
        <ele>13.4</ele>
        <time>1970-01-01T01:11:55Z</time>
      </trkpt>
      <trkpt lat="42.83046" lon="2.91543">
        <ele>13.4</ele>
        <time>1970-01-01T01:11:56Z</time>
      </trkpt>
      <trkpt lat="42.83042" lon="2.91543">
        <ele>13.2</ele>
        <time>1970-01-01T01:11:57Z</time>
      </trkpt>
      <trkpt lat="42.83041" lon="2.91543">
        <ele>13.2</ele>
        <time>1970-01-01T01:11:58Z</time>
      </trkpt>
      <trkpt lat="42.83038" lon="2.91545">
        <ele>13.2</ele>
        <time>1970-01-01T01:11:59Z</time>
      </trkpt>
      <trkpt lat="42.83037" lon="2.91547">
        <ele>13.2</ele>
        <time>1970-01-01T01:12:00Z</time>
      </trkpt>
      <trkpt lat="42.83035" lon="2.91551">
        <ele>13</ele>
        <time>1970-01-01T01:12:01Z</time>
      </trkpt>
      <trkpt lat="42.83033" lon="2.91556">
        <ele>13</ele>
        <time>1970-01-01T01:12:02Z</time>
      </trkpt>
      <trkpt lat="42.83031" lon="2.91561">
        <ele>12.8</ele>
        <time>1970-01-01T01:12:03Z</time>
      </trkpt>
      <trkpt lat="42.83029" lon="2.91566">
        <ele>12.6</ele>
        <time>1970-01-01T01:12:04Z</time>
      </trkpt>
      <trkpt lat="42.83026" lon="2.91572">
        <ele>12.4</ele>
        <time>1970-01-01T01:12:05Z</time>
      </trkpt>
      <trkpt lat="42.83024" lon="2.91578">
        <ele>12.2</ele>
        <time>1970-01-01T01:12:06Z</time>
      </trkpt>
      <trkpt lat="42.83022" lon="2.91585">
        <ele>12.2</ele>
        <time>1970-01-01T01:12:07Z</time>
      </trkpt>
      <trkpt lat="42.83019" lon="2.91591">
        <ele>12</ele>
        <time>1970-01-01T01:12:08Z</time>
      </trkpt>
      <trkpt lat="42.83017" lon="2.91597">
        <ele>11.8</ele>
        <time>1970-01-01T01:12:09Z</time>
      </trkpt>
      <trkpt lat="42.83015" lon="2.91603">
        <ele>11.6</ele>
        <time>1970-01-01T01:12:10Z</time>
      </trkpt>
      <trkpt lat="42.83012" lon="2.91608">
        <ele>11.6</ele>
        <time>1970-01-01T01:12:11Z</time>
      </trkpt>
      <trkpt lat="42.8301" lon="2.91612">
        <ele>11.4</ele>
        <time>1970-01-01T01:12:12Z</time>
      </trkpt>
      <trkpt lat="42.83007" lon="2.91617">
        <ele>11.4</ele>
        <time>1970-01-01T01:12:13Z</time>
      </trkpt>
      <trkpt lat="42.83005" lon="2.91622">
        <ele>11.4</ele>
        <time>1970-01-01T01:12:14Z</time>
      </trkpt>
      <trkpt lat="42.83005" lon="2.91628">
        <ele>11.2</ele>
        <time>1970-01-01T01:12:15Z</time>
      </trkpt>
      <trkpt lat="42.83005" lon="2.91634">
        <ele>11.2</ele>
        <time>1970-01-01T01:12:16Z</time>
      </trkpt>
      <trkpt lat="42.83005" lon="2.9164">
        <ele>11.2</ele>
        <time>1970-01-01T01:12:17Z</time>
      </trkpt>
      <trkpt lat="42.83005" lon="2.91645">
        <ele>11.2</ele>
        <time>1970-01-01T01:12:18Z</time>
      </trkpt>
      <trkpt lat="42.83006" lon="2.9165">
        <ele>11.2</ele>
        <time>1970-01-01T01:12:19Z</time>
      </trkpt>
      <trkpt lat="42.83007" lon="2.91654">
        <ele>11.4</ele>
        <time>1970-01-01T01:12:20Z</time>
      </trkpt>
      <trkpt lat="42.83007" lon="2.91656">
        <ele>11.4</ele>
        <time>1970-01-01T01:12:21Z</time>
      </trkpt>
      <trkpt lat="42.83006" lon="2.9166">
        <ele>11.4</ele>
        <time>1970-01-01T01:12:22Z</time>
      </trkpt>
      <trkpt lat="42.83006" lon="2.91664">
        <ele>11.4</ele>
        <time>1970-01-01T01:12:23Z</time>
      </trkpt>
      <trkpt lat="42.83005" lon="2.91668">
        <ele>11.4</ele>
        <time>1970-01-01T01:12:24Z</time>
      </trkpt>
      <trkpt lat="42.83005" lon="2.91673">
        <ele>11.6</ele>
        <time>1970-01-01T01:12:25Z</time>
      </trkpt>
      <trkpt lat="42.83004" lon="2.91676">
        <ele>11.6</ele>
        <time>1970-01-01T01:12:26Z</time>
      </trkpt>
      <trkpt lat="42.83004" lon="2.91681">
        <ele>11.6</ele>
        <time>1970-01-01T01:12:27Z</time>
      </trkpt>
      <trkpt lat="42.83003" lon="2.91682">
        <ele>11.6</ele>
        <time>1970-01-01T01:12:28Z</time>
      </trkpt>
      <trkpt lat="42.83004" lon="2.91681">
        <ele>11.6</ele>
        <time>1970-01-01T01:12:29Z</time>
      </trkpt>
      <trkpt lat="42.83004" lon="2.9168">
        <ele>11.6</ele>
        <time>1970-01-01T01:12:30Z</time>
      </trkpt>
      <trkpt lat="42.83005" lon="2.91679">
        <ele>11.6</ele>
        <time>1970-01-01T01:12:31Z</time>
      </trkpt>
      <trkpt lat="42.83005" lon="2.91678">
        <ele>11.6</ele>
        <time>1970-01-01T01:12:32Z</time>
      </trkpt>
      <trkpt lat="42.83006" lon="2.91678">
        <ele>11.8</ele>
        <time>1970-01-01T01:12:33Z</time>
      </trkpt>
      <trkpt lat="42.83006" lon="2.91677">
        <ele>11.8</ele>
        <time>1970-01-01T01:12:34Z</time>
      </trkpt>
      <trkpt lat="42.83007" lon="2.91673">
        <ele>11.8</ele>
        <time>1970-01-01T01:12:35Z</time>
      </trkpt>
      <trkpt lat="42.83007" lon="2.91672">
        <ele>11.8</ele>
        <time>1970-01-01T01:12:36Z</time>
      </trkpt>
      <trkpt lat="42.83008" lon="2.91667">
        <ele>11.8</ele>
        <time>1970-01-01T01:12:37Z</time>
      </trkpt>
      <trkpt lat="42.83008" lon="2.91666">
        <ele>11.8</ele>
        <time>1970-01-01T01:12:38Z</time>
      </trkpt>
      <trkpt lat="42.83009" lon="2.91664">
        <ele>11.8</ele>
        <time>1970-01-01T01:12:39Z</time>
      </trkpt>
      <trkpt lat="42.83011" lon="2.91663">
        <ele>11.8</ele>
        <time>1970-01-01T01:12:40Z</time>
      </trkpt>
      <trkpt lat="42.83014" lon="2.91662">
        <ele>11.8</ele>
        <time>1970-01-01T01:12:41Z</time>
      </trkpt>
      <trkpt lat="42.83015" lon="2.91662">
        <ele>11.8</ele>
        <time>1970-01-01T01:12:42Z</time>
      </trkpt>
      <trkpt lat="42.83017" lon="2.91661">
        <ele>12</ele>
        <time>1970-01-01T01:12:43Z</time>
      </trkpt>
      <trkpt lat="42.83018" lon="2.91661">
        <ele>12</ele>
        <time>1970-01-01T01:12:44Z</time>
      </trkpt>
      <trkpt lat="42.8302" lon="2.9166">
        <ele>12</ele>
        <time>1970-01-01T01:12:45Z</time>
      </trkpt>
      <trkpt lat="42.83022" lon="2.9166">
        <ele>12</ele>
        <time>1970-01-01T01:12:46Z</time>
      </trkpt>
      <trkpt lat="42.83024" lon="2.91661">
        <ele>12.2</ele>
        <time>1970-01-01T01:12:47Z</time>
      </trkpt>
      <trkpt lat="42.83025" lon="2.91661">
        <ele>12.2</ele>
        <time>1970-01-01T01:12:48Z</time>
      </trkpt>
      <trkpt lat="42.83026" lon="2.91661">
        <ele>12.2</ele>
        <time>1970-01-01T01:12:49Z</time>
      </trkpt>
      <trkpt lat="42.83028" lon="2.91661">
        <ele>12.2</ele>
        <time>1970-01-01T01:12:50Z</time>
      </trkpt>
      <trkpt lat="42.83031" lon="2.91661">
        <ele>12.2</ele>
        <time>1970-01-01T01:12:51Z</time>
      </trkpt>
      <trkpt lat="42.83034" lon="2.91662">
        <ele>12.4</ele>
        <time>1970-01-01T01:12:52Z</time>
      </trkpt>
      <trkpt lat="42.83037" lon="2.91662">
        <ele>12.4</ele>
        <time>1970-01-01T01:12:53Z</time>
      </trkpt>
      <trkpt lat="42.8304" lon="2.91662">
        <ele>12.4</ele>
        <time>1970-01-01T01:12:54Z</time>
      </trkpt>
      <trkpt lat="42.83043" lon="2.91662">
        <ele>12.4</ele>
        <time>1970-01-01T01:12:55Z</time>
      </trkpt>
      <trkpt lat="42.83046" lon="2.91663">
        <ele>12.4</ele>
        <time>1970-01-01T01:12:56Z</time>
      </trkpt>
      <trkpt lat="42.8305" lon="2.91663">
        <ele>12.6</ele>
        <time>1970-01-01T01:12:57Z</time>
      </trkpt>
      <trkpt lat="42.83051" lon="2.91663">
        <ele>12.6</ele>
        <time>1970-01-01T01:12:58Z</time>
      </trkpt>
      <trkpt lat="42.83054" lon="2.91664">
        <ele>12.6</ele>
        <time>1970-01-01T01:12:59Z</time>
      </trkpt>
      <trkpt lat="42.83057" lon="2.91664">
        <ele>12.6</ele>
        <time>1970-01-01T01:13:00Z</time>
      </trkpt>
      <trkpt lat="42.8306" lon="2.91665">
        <ele>12.8</ele>
        <time>1970-01-01T01:13:01Z</time>
      </trkpt>
      <trkpt lat="42.83061" lon="2.91665">
        <ele>12.8</ele>
        <time>1970-01-01T01:13:02Z</time>
      </trkpt>
      <trkpt lat="42.83062" lon="2.91666">
        <ele>12.8</ele>
        <time>1970-01-01T01:13:03Z</time>
      </trkpt>
      <trkpt lat="42.83063" lon="2.91667">
        <ele>12.8</ele>
        <time>1970-01-01T01:13:04Z</time>
      </trkpt>
      <trkpt lat="42.83061" lon="2.9167">
        <ele>12.8</ele>
        <time>1970-01-01T01:13:05Z</time>
      </trkpt>
      <trkpt lat="42.83059" lon="2.91672">
        <ele>12.8</ele>
        <time>1970-01-01T01:13:06Z</time>
      </trkpt>
      <trkpt lat="42.83058" lon="2.91673">
        <ele>12.8</ele>
        <time>1970-01-01T01:13:07Z</time>
      </trkpt>
      <trkpt lat="42.83054" lon="2.91672">
        <ele>12.8</ele>
        <time>1970-01-01T01:13:08Z</time>
      </trkpt>
      <trkpt lat="42.83053" lon="2.91672">
        <ele>12.8</ele>
        <time>1970-01-01T01:13:09Z</time>
      </trkpt>
      <trkpt lat="42.8305" lon="2.91671">
        <ele>12.8</ele>
        <time>1970-01-01T01:13:10Z</time>
      </trkpt>
      <trkpt lat="42.83048" lon="2.9167">
        <ele>12.8</ele>
        <time>1970-01-01T01:13:11Z</time>
      </trkpt>
      <trkpt lat="42.83045" lon="2.9167">
        <ele>12.8</ele>
        <time>1970-01-01T01:13:12Z</time>
      </trkpt>
      <trkpt lat="42.83043" lon="2.9167">
        <ele>12.8</ele>
        <time>1970-01-01T01:13:13Z</time>
      </trkpt>
      <trkpt lat="42.83039" lon="2.91669">
        <ele>12.6</ele>
        <time>1970-01-01T01:13:14Z</time>
      </trkpt>
      <trkpt lat="42.83038" lon="2.91669">
        <ele>12.6</ele>
        <time>1970-01-01T01:13:15Z</time>
      </trkpt>
      <trkpt lat="42.83035" lon="2.91669">
        <ele>12.6</ele>
        <time>1970-01-01T01:13:16Z</time>
      </trkpt>
      <trkpt lat="42.83032" lon="2.91669">
        <ele>12.4</ele>
        <time>1970-01-01T01:13:17Z</time>
      </trkpt>
      <trkpt lat="42.83028" lon="2.91669">
        <ele>12.4</ele>
        <time>1970-01-01T01:13:18Z</time>
      </trkpt>
      <trkpt lat="42.83025" lon="2.91668">
        <ele>12.2</ele>
        <time>1970-01-01T01:13:19Z</time>
      </trkpt>
      <trkpt lat="42.83022" lon="2.91669">
        <ele>12.2</ele>
        <time>1970-01-01T01:13:20Z</time>
      </trkpt>
      <trkpt lat="42.83019" lon="2.91669">
        <ele>12.2</ele>
        <time>1970-01-01T01:13:21Z</time>
      </trkpt>
      <trkpt lat="42.83016" lon="2.91672">
        <ele>12.2</ele>
        <time>1970-01-01T01:13:22Z</time>
      </trkpt>
      <trkpt lat="42.83013" lon="2.91675">
        <ele>12</ele>
        <time>1970-01-01T01:13:23Z</time>
      </trkpt>
      <trkpt lat="42.83012" lon="2.91677">
        <ele>12</ele>
        <time>1970-01-01T01:13:24Z</time>
      </trkpt>
      <trkpt lat="42.8301" lon="2.91681">
        <ele>12</ele>
        <time>1970-01-01T01:13:25Z</time>
      </trkpt>
      <trkpt lat="42.83009" lon="2.91683">
        <ele>12</ele>
        <time>1970-01-01T01:13:26Z</time>
      </trkpt>
      <trkpt lat="42.83008" lon="2.91686">
        <ele>12</ele>
        <time>1970-01-01T01:13:27Z</time>
      </trkpt>
      <trkpt lat="42.83007" lon="2.9169">
        <ele>12</ele>
        <time>1970-01-01T01:13:28Z</time>
      </trkpt>
      <trkpt lat="42.83006" lon="2.91695">
        <ele>12</ele>
        <time>1970-01-01T01:13:29Z</time>
      </trkpt>
      <trkpt lat="42.83005" lon="2.91699">
        <ele>12</ele>
        <time>1970-01-01T01:13:30Z</time>
      </trkpt>
      <trkpt lat="42.83003" lon="2.91703">
        <ele>12</ele>
        <time>1970-01-01T01:13:31Z</time>
      </trkpt>
      <trkpt lat="42.83002" lon="2.91707">
        <ele>12</ele>
        <time>1970-01-01T01:13:32Z</time>
      </trkpt>
      <trkpt lat="42.83001" lon="2.91711">
        <ele>11.8</ele>
        <time>1970-01-01T01:13:33Z</time>
      </trkpt>
      <trkpt lat="42.83" lon="2.91714">
        <ele>11.8</ele>
        <time>1970-01-01T01:13:34Z</time>
      </trkpt>
      <trkpt lat="42.82999" lon="2.91718">
        <ele>11.8</ele>
        <time>1970-01-01T01:13:35Z</time>
      </trkpt>
      <trkpt lat="42.82997" lon="2.91723">
        <ele>11.6</ele>
        <time>1970-01-01T01:13:36Z</time>
      </trkpt>
      <trkpt lat="42.82996" lon="2.91727">
        <ele>11.6</ele>
        <time>1970-01-01T01:13:37Z</time>
      </trkpt>
      <trkpt lat="42.82994" lon="2.91731">
        <ele>11.6</ele>
        <time>1970-01-01T01:13:38Z</time>
      </trkpt>
      <trkpt lat="42.82993" lon="2.91736">
        <ele>11.6</ele>
        <time>1970-01-01T01:13:39Z</time>
      </trkpt>
      <trkpt lat="42.82992" lon="2.91742">
        <ele>11.4</ele>
        <time>1970-01-01T01:13:40Z</time>
      </trkpt>
      <trkpt lat="42.82992" lon="2.91748">
        <ele>11.4</ele>
        <time>1970-01-01T01:13:41Z</time>
      </trkpt>
      <trkpt lat="42.82992" lon="2.91753">
        <ele>11.4</ele>
        <time>1970-01-01T01:13:42Z</time>
      </trkpt>
      <trkpt lat="42.82993" lon="2.91759">
        <ele>11.4</ele>
        <time>1970-01-01T01:13:43Z</time>
      </trkpt>
      <trkpt lat="42.82994" lon="2.91764">
        <ele>11.6</ele>
        <time>1970-01-01T01:13:44Z</time>
      </trkpt>
      <trkpt lat="42.82996" lon="2.91769">
        <ele>11.6</ele>
        <time>1970-01-01T01:13:45Z</time>
      </trkpt>
      <trkpt lat="42.82998" lon="2.91773">
        <ele>11.4</ele>
        <time>1970-01-01T01:13:46Z</time>
      </trkpt>
      <trkpt lat="42.83002" lon="2.91776">
        <ele>11.4</ele>
        <time>1970-01-01T01:13:47Z</time>
      </trkpt>
      <trkpt lat="42.83005" lon="2.91779">
        <ele>11.4</ele>
        <time>1970-01-01T01:13:48Z</time>
      </trkpt>
      <trkpt lat="42.83009" lon="2.91781">
        <ele>11.2</ele>
        <time>1970-01-01T01:13:49Z</time>
      </trkpt>
      <trkpt lat="42.83012" lon="2.91785">
        <ele>11.2</ele>
        <time>1970-01-01T01:13:50Z</time>
      </trkpt>
      <trkpt lat="42.83014" lon="2.91789">
        <ele>11.2</ele>
        <time>1970-01-01T01:13:51Z</time>
      </trkpt>
      <trkpt lat="42.83015" lon="2.91794">
        <ele>11.2</ele>
        <time>1970-01-01T01:13:52Z</time>
      </trkpt>
      <trkpt lat="42.83015" lon="2.91798">
        <ele>11.2</ele>
        <time>1970-01-01T01:13:53Z</time>
      </trkpt>
      <trkpt lat="42.83014" lon="2.91802">
        <ele>11.2</ele>
        <time>1970-01-01T01:13:54Z</time>
      </trkpt>
      <trkpt lat="42.83013" lon="2.91806">
        <ele>11.2</ele>
        <time>1970-01-01T01:13:55Z</time>
      </trkpt>
      <trkpt lat="42.83011" lon="2.91809">
        <ele>11.2</ele>
        <time>1970-01-01T01:13:56Z</time>
      </trkpt>
      <trkpt lat="42.8301" lon="2.91813">
        <ele>11.2</ele>
        <time>1970-01-01T01:13:57Z</time>
      </trkpt>
      <trkpt lat="42.83008" lon="2.91816">
        <ele>11.2</ele>
        <time>1970-01-01T01:13:58Z</time>
      </trkpt>
      <trkpt lat="42.83007" lon="2.91821">
        <ele>11.2</ele>
        <time>1970-01-01T01:13:59Z</time>
      </trkpt>
      <trkpt lat="42.83005" lon="2.91825">
        <ele>11.2</ele>
        <time>1970-01-01T01:14:00Z</time>
      </trkpt>
      <trkpt lat="42.83003" lon="2.91829">
        <ele>11.2</ele>
        <time>1970-01-01T01:14:01Z</time>
      </trkpt>
      <trkpt lat="42.83001" lon="2.91833">
        <ele>11.2</ele>
        <time>1970-01-01T01:14:02Z</time>
      </trkpt>
      <trkpt lat="42.82999" lon="2.91838">
        <ele>11.4</ele>
        <time>1970-01-01T01:14:03Z</time>
      </trkpt>
      <trkpt lat="42.82997" lon="2.91843">
        <ele>11.4</ele>
        <time>1970-01-01T01:14:04Z</time>
      </trkpt>
      <trkpt lat="42.82996" lon="2.91847">
        <ele>11.4</ele>
        <time>1970-01-01T01:14:05Z</time>
      </trkpt>
      <trkpt lat="42.82994" lon="2.91852">
        <ele>11.4</ele>
        <time>1970-01-01T01:14:06Z</time>
      </trkpt>
      <trkpt lat="42.82992" lon="2.91856">
        <ele>11.4</ele>
        <time>1970-01-01T01:14:07Z</time>
      </trkpt>
      <trkpt lat="42.82991" lon="2.91859">
        <ele>11.4</ele>
        <time>1970-01-01T01:14:08Z</time>
      </trkpt>
      <trkpt lat="42.82989" lon="2.91863">
        <ele>11.4</ele>
        <time>1970-01-01T01:14:09Z</time>
      </trkpt>
      <trkpt lat="42.82989" lon="2.91864">
        <ele>11.4</ele>
        <time>1970-01-01T01:14:10Z</time>
      </trkpt>
      <trkpt lat="42.82986" lon="2.91867">
        <ele>11.4</ele>
        <time>1970-01-01T01:14:11Z</time>
      </trkpt>
      <trkpt lat="42.82985" lon="2.91867">
        <ele>11.4</ele>
        <time>1970-01-01T01:14:12Z</time>
      </trkpt>
      <trkpt lat="42.82981" lon="2.91866">
        <ele>11.4</ele>
        <time>1970-01-01T01:14:13Z</time>
      </trkpt>
      <trkpt lat="42.82979" lon="2.91866">
        <ele>11.4</ele>
        <time>1970-01-01T01:14:14Z</time>
      </trkpt>
      <trkpt lat="42.82976" lon="2.91865">
        <ele>11.4</ele>
        <time>1970-01-01T01:14:15Z</time>
      </trkpt>
      <trkpt lat="42.82972" lon="2.91864">
        <ele>11.4</ele>
        <time>1970-01-01T01:14:16Z</time>
      </trkpt>
      <trkpt lat="42.82968" lon="2.91864">
        <ele>11.4</ele>
        <time>1970-01-01T01:14:17Z</time>
      </trkpt>
      <trkpt lat="42.82965" lon="2.91863">
        <ele>11.4</ele>
        <time>1970-01-01T01:14:18Z</time>
      </trkpt>
      <trkpt lat="42.82961" lon="2.91863">
        <ele>11.6</ele>
        <time>1970-01-01T01:14:19Z</time>
      </trkpt>
      <trkpt lat="42.82957" lon="2.91862">
        <ele>11.6</ele>
        <time>1970-01-01T01:14:20Z</time>
      </trkpt>
      <trkpt lat="42.82953" lon="2.91862">
        <ele>11.6</ele>
        <time>1970-01-01T01:14:21Z</time>
      </trkpt>
      <trkpt lat="42.8295" lon="2.91861">
        <ele>11.6</ele>
        <time>1970-01-01T01:14:22Z</time>
      </trkpt>
      <trkpt lat="42.82946" lon="2.9186">
        <ele>11.6</ele>
        <time>1970-01-01T01:14:23Z</time>
      </trkpt>
      <trkpt lat="42.82942" lon="2.91859">
        <ele>11.6</ele>
        <time>1970-01-01T01:14:24Z</time>
      </trkpt>
      <trkpt lat="42.82937" lon="2.91857">
        <ele>11.6</ele>
        <time>1970-01-01T01:14:25Z</time>
      </trkpt>
      <trkpt lat="42.82933" lon="2.91856">
        <ele>11.6</ele>
        <time>1970-01-01T01:14:26Z</time>
      </trkpt>
      <trkpt lat="42.82929" lon="2.91855">
        <ele>11.6</ele>
        <time>1970-01-01T01:14:27Z</time>
      </trkpt>
      <trkpt lat="42.82925" lon="2.91854">
        <ele>11.6</ele>
        <time>1970-01-01T01:14:28Z</time>
      </trkpt>
      <trkpt lat="42.82921" lon="2.91852">
        <ele>11.6</ele>
        <time>1970-01-01T01:14:29Z</time>
      </trkpt>
      <trkpt lat="42.82917" lon="2.91851">
        <ele>11.6</ele>
        <time>1970-01-01T01:14:30Z</time>
      </trkpt>
      <trkpt lat="42.82912" lon="2.9185">
        <ele>11.6</ele>
        <time>1970-01-01T01:14:31Z</time>
      </trkpt>
      <trkpt lat="42.82908" lon="2.91849">
        <ele>11.6</ele>
        <time>1970-01-01T01:14:32Z</time>
      </trkpt>
      <trkpt lat="42.82904" lon="2.91847">
        <ele>11.6</ele>
        <time>1970-01-01T01:14:33Z</time>
      </trkpt>
      <trkpt lat="42.829" lon="2.91846">
        <ele>11.6</ele>
        <time>1970-01-01T01:14:34Z</time>
      </trkpt>
      <trkpt lat="42.82896" lon="2.91844">
        <ele>11.6</ele>
        <time>1970-01-01T01:14:35Z</time>
      </trkpt>
      <trkpt lat="42.82892" lon="2.91843">
        <ele>11.8</ele>
        <time>1970-01-01T01:14:36Z</time>
      </trkpt>
      <trkpt lat="42.82888" lon="2.91842">
        <ele>11.8</ele>
        <time>1970-01-01T01:14:37Z</time>
      </trkpt>
      <trkpt lat="42.82884" lon="2.91841">
        <ele>11.8</ele>
        <time>1970-01-01T01:14:38Z</time>
      </trkpt>
      <trkpt lat="42.82881" lon="2.91839">
        <ele>11.8</ele>
        <time>1970-01-01T01:14:39Z</time>
      </trkpt>
      <trkpt lat="42.82877" lon="2.91837">
        <ele>11.8</ele>
        <time>1970-01-01T01:14:40Z</time>
      </trkpt>
      <trkpt lat="42.82874" lon="2.91835">
        <ele>11.8</ele>
        <time>1970-01-01T01:14:41Z</time>
      </trkpt>
      <trkpt lat="42.8287" lon="2.91833">
        <ele>11.8</ele>
        <time>1970-01-01T01:14:42Z</time>
      </trkpt>
      <trkpt lat="42.82866" lon="2.91832">
        <ele>11.8</ele>
        <time>1970-01-01T01:14:43Z</time>
      </trkpt>
      <trkpt lat="42.82863" lon="2.9183">
        <ele>11.8</ele>
        <time>1970-01-01T01:14:44Z</time>
      </trkpt>
      <trkpt lat="42.82859" lon="2.91829">
        <ele>11.8</ele>
        <time>1970-01-01T01:14:45Z</time>
      </trkpt>
      <trkpt lat="42.82856" lon="2.91828">
        <ele>11.8</ele>
        <time>1970-01-01T01:14:46Z</time>
      </trkpt>
      <trkpt lat="42.82852" lon="2.91827">
        <ele>12</ele>
        <time>1970-01-01T01:14:47Z</time>
      </trkpt>
      <trkpt lat="42.82849" lon="2.91826">
        <ele>12</ele>
        <time>1970-01-01T01:14:48Z</time>
      </trkpt>
      <trkpt lat="42.82845" lon="2.91826">
        <ele>12</ele>
        <time>1970-01-01T01:14:49Z</time>
      </trkpt>
      <trkpt lat="42.82842" lon="2.91825">
        <ele>12</ele>
        <time>1970-01-01T01:14:50Z</time>
      </trkpt>
      <trkpt lat="42.82839" lon="2.91825">
        <ele>12</ele>
        <time>1970-01-01T01:14:51Z</time>
      </trkpt>
      <trkpt lat="42.82836" lon="2.91824">
        <ele>12</ele>
        <time>1970-01-01T01:14:52Z</time>
      </trkpt>
      <trkpt lat="42.82833" lon="2.91822">
        <ele>12</ele>
        <time>1970-01-01T01:14:53Z</time>
      </trkpt>
      <trkpt lat="42.8283" lon="2.91821">
        <ele>12</ele>
        <time>1970-01-01T01:14:54Z</time>
      </trkpt>
      <trkpt lat="42.82826" lon="2.9182">
        <ele>12.2</ele>
        <time>1970-01-01T01:14:55Z</time>
      </trkpt>
      <trkpt lat="42.82823" lon="2.91819">
        <ele>12.2</ele>
        <time>1970-01-01T01:14:56Z</time>
      </trkpt>
      <trkpt lat="42.82819" lon="2.91817">
        <ele>12.2</ele>
        <time>1970-01-01T01:14:57Z</time>
      </trkpt>
      <trkpt lat="42.82816" lon="2.91816">
        <ele>12.2</ele>
        <time>1970-01-01T01:14:58Z</time>
      </trkpt>
      <trkpt lat="42.82813" lon="2.91816">
        <ele>12.2</ele>
        <time>1970-01-01T01:14:59Z</time>
      </trkpt>
      <trkpt lat="42.8281" lon="2.91815">
        <ele>12.4</ele>
        <time>1970-01-01T01:15:00Z</time>
      </trkpt>
      <trkpt lat="42.82806" lon="2.91814">
        <ele>12.4</ele>
        <time>1970-01-01T01:15:01Z</time>
      </trkpt>
      <trkpt lat="42.82803" lon="2.91813">
        <ele>12.4</ele>
        <time>1970-01-01T01:15:02Z</time>
      </trkpt>
      <trkpt lat="42.828" lon="2.91812">
        <ele>12.4</ele>
        <time>1970-01-01T01:15:03Z</time>
      </trkpt>
      <trkpt lat="42.82796" lon="2.91811">
        <ele>12.4</ele>
        <time>1970-01-01T01:15:04Z</time>
      </trkpt>
      <trkpt lat="42.82793" lon="2.9181">
        <ele>12.6</ele>
        <time>1970-01-01T01:15:05Z</time>
      </trkpt>
      <trkpt lat="42.82789" lon="2.91809">
        <ele>12.6</ele>
        <time>1970-01-01T01:15:06Z</time>
      </trkpt>
      <trkpt lat="42.82786" lon="2.91808">
        <ele>12.6</ele>
        <time>1970-01-01T01:15:07Z</time>
      </trkpt>
      <trkpt lat="42.82782" lon="2.91807">
        <ele>12.6</ele>
        <time>1970-01-01T01:15:08Z</time>
      </trkpt>
      <trkpt lat="42.82779" lon="2.91806">
        <ele>12.8</ele>
        <time>1970-01-01T01:15:09Z</time>
      </trkpt>
      <trkpt lat="42.82775" lon="2.91805">
        <ele>12.8</ele>
        <time>1970-01-01T01:15:10Z</time>
      </trkpt>
      <trkpt lat="42.82772" lon="2.91804">
        <ele>12.8</ele>
        <time>1970-01-01T01:15:11Z</time>
      </trkpt>
      <trkpt lat="42.82768" lon="2.91803">
        <ele>12.8</ele>
        <time>1970-01-01T01:15:12Z</time>
      </trkpt>
      <trkpt lat="42.82765" lon="2.91801">
        <ele>12.8</ele>
        <time>1970-01-01T01:15:13Z</time>
      </trkpt>
      <trkpt lat="42.82761" lon="2.918">
        <ele>13</ele>
        <time>1970-01-01T01:15:14Z</time>
      </trkpt>
      <trkpt lat="42.82757" lon="2.918">
        <ele>13</ele>
        <time>1970-01-01T01:15:15Z</time>
      </trkpt>
      <trkpt lat="42.82754" lon="2.91798">
        <ele>13</ele>
        <time>1970-01-01T01:15:16Z</time>
      </trkpt>
      <trkpt lat="42.8275" lon="2.91797">
        <ele>13</ele>
        <time>1970-01-01T01:15:17Z</time>
      </trkpt>
      <trkpt lat="42.82747" lon="2.91796">
        <ele>13</ele>
        <time>1970-01-01T01:15:18Z</time>
      </trkpt>
      <trkpt lat="42.82743" lon="2.91795">
        <ele>13.2</ele>
        <time>1970-01-01T01:15:19Z</time>
      </trkpt>
      <trkpt lat="42.8274" lon="2.91795">
        <ele>13.2</ele>
        <time>1970-01-01T01:15:20Z</time>
      </trkpt>
      <trkpt lat="42.82737" lon="2.91794">
        <ele>13.2</ele>
        <time>1970-01-01T01:15:21Z</time>
      </trkpt>
      <trkpt lat="42.82734" lon="2.91793">
        <ele>13.2</ele>
        <time>1970-01-01T01:15:22Z</time>
      </trkpt>
      <trkpt lat="42.82731" lon="2.91791">
        <ele>13.2</ele>
        <time>1970-01-01T01:15:23Z</time>
      </trkpt>
      <trkpt lat="42.82728" lon="2.9179">
        <ele>13.2</ele>
        <time>1970-01-01T01:15:24Z</time>
      </trkpt>
      <trkpt lat="42.82724" lon="2.91789">
        <ele>13.2</ele>
        <time>1970-01-01T01:15:25Z</time>
      </trkpt>
      <trkpt lat="42.82721" lon="2.91788">
        <ele>13.4</ele>
        <time>1970-01-01T01:15:26Z</time>
      </trkpt>
      <trkpt lat="42.82718" lon="2.91787">
        <ele>13.4</ele>
        <time>1970-01-01T01:15:27Z</time>
      </trkpt>
      <trkpt lat="42.82714" lon="2.91786">
        <ele>13.4</ele>
        <time>1970-01-01T01:15:28Z</time>
      </trkpt>
      <trkpt lat="42.8271" lon="2.91785">
        <ele>13.4</ele>
        <time>1970-01-01T01:15:29Z</time>
      </trkpt>
      <trkpt lat="42.82707" lon="2.91784">
        <ele>13.4</ele>
        <time>1970-01-01T01:15:30Z</time>
      </trkpt>
      <trkpt lat="42.82703" lon="2.91783">
        <ele>13.4</ele>
        <time>1970-01-01T01:15:31Z</time>
      </trkpt>
      <trkpt lat="42.82699" lon="2.91782">
        <ele>13.4</ele>
        <time>1970-01-01T01:15:32Z</time>
      </trkpt>
      <trkpt lat="42.82696" lon="2.91781">
        <ele>13.4</ele>
        <time>1970-01-01T01:15:33Z</time>
      </trkpt>
      <trkpt lat="42.82693" lon="2.91781">
        <ele>13.4</ele>
        <time>1970-01-01T01:15:34Z</time>
      </trkpt>
      <trkpt lat="42.8269" lon="2.91781">
        <ele>13.6</ele>
        <time>1970-01-01T01:15:35Z</time>
      </trkpt>
      <trkpt lat="42.82686" lon="2.91781">
        <ele>13.6</ele>
        <time>1970-01-01T01:15:36Z</time>
      </trkpt>
      <trkpt lat="42.82684" lon="2.9178">
        <ele>13.6</ele>
        <time>1970-01-01T01:15:37Z</time>
      </trkpt>
      <trkpt lat="42.82681" lon="2.91779">
        <ele>13.6</ele>
        <time>1970-01-01T01:15:38Z</time>
      </trkpt>
      <trkpt lat="42.82678" lon="2.91778">
        <ele>13.6</ele>
        <time>1970-01-01T01:15:39Z</time>
      </trkpt>
      <trkpt lat="42.82674" lon="2.91778">
        <ele>13.6</ele>
        <time>1970-01-01T01:15:40Z</time>
      </trkpt>
      <trkpt lat="42.82671" lon="2.91777">
        <ele>13.6</ele>
        <time>1970-01-01T01:15:41Z</time>
      </trkpt>
      <trkpt lat="42.82668" lon="2.91777">
        <ele>13.6</ele>
        <time>1970-01-01T01:15:42Z</time>
      </trkpt>
      <trkpt lat="42.82665" lon="2.91775">
        <ele>13.6</ele>
        <time>1970-01-01T01:15:43Z</time>
      </trkpt>
      <trkpt lat="42.82662" lon="2.91774">
        <ele>13.6</ele>
        <time>1970-01-01T01:15:44Z</time>
      </trkpt>
      <trkpt lat="42.82658" lon="2.91773">
        <ele>13.8</ele>
        <time>1970-01-01T01:15:45Z</time>
      </trkpt>
      <trkpt lat="42.82655" lon="2.91772">
        <ele>13.8</ele>
        <time>1970-01-01T01:15:46Z</time>
      </trkpt>
      <trkpt lat="42.82652" lon="2.91771">
        <ele>13.8</ele>
        <time>1970-01-01T01:15:47Z</time>
      </trkpt>
      <trkpt lat="42.82649" lon="2.9177">
        <ele>13.8</ele>
        <time>1970-01-01T01:15:48Z</time>
      </trkpt>
      <trkpt lat="42.82647" lon="2.91769">
        <ele>13.8</ele>
        <time>1970-01-01T01:15:49Z</time>
      </trkpt>
      <trkpt lat="42.82644" lon="2.91769">
        <ele>13.8</ele>
        <time>1970-01-01T01:15:50Z</time>
      </trkpt>
      <trkpt lat="42.82641" lon="2.91768">
        <ele>13.8</ele>
        <time>1970-01-01T01:15:51Z</time>
      </trkpt>
      <trkpt lat="42.82638" lon="2.91767">
        <ele>13.8</ele>
        <time>1970-01-01T01:15:52Z</time>
      </trkpt>
      <trkpt lat="42.82635" lon="2.91764">
        <ele>13.8</ele>
        <time>1970-01-01T01:15:53Z</time>
      </trkpt>
      <trkpt lat="42.82631" lon="2.91762">
        <ele>13.8</ele>
        <time>1970-01-01T01:15:54Z</time>
      </trkpt>
      <trkpt lat="42.82628" lon="2.9176">
        <ele>13.8</ele>
        <time>1970-01-01T01:15:55Z</time>
      </trkpt>
      <trkpt lat="42.82626" lon="2.91759">
        <ele>13.8</ele>
        <time>1970-01-01T01:15:56Z</time>
      </trkpt>
      <trkpt lat="42.82623" lon="2.91758">
        <ele>13.8</ele>
        <time>1970-01-01T01:15:57Z</time>
      </trkpt>
      <trkpt lat="42.8262" lon="2.91757">
        <ele>13.8</ele>
        <time>1970-01-01T01:15:58Z</time>
      </trkpt>
      <trkpt lat="42.82616" lon="2.91756">
        <ele>14</ele>
        <time>1970-01-01T01:15:59Z</time>
      </trkpt>
      <trkpt lat="42.82612" lon="2.91755">
        <ele>14</ele>
        <time>1970-01-01T01:16:00Z</time>
      </trkpt>
      <trkpt lat="42.82608" lon="2.91754">
        <ele>14</ele>
        <time>1970-01-01T01:16:01Z</time>
      </trkpt>
      <trkpt lat="42.82605" lon="2.91753">
        <ele>14</ele>
        <time>1970-01-01T01:16:02Z</time>
      </trkpt>
      <trkpt lat="42.82601" lon="2.91752">
        <ele>14</ele>
        <time>1970-01-01T01:16:03Z</time>
      </trkpt>
      <trkpt lat="42.82597" lon="2.91751">
        <ele>14</ele>
        <time>1970-01-01T01:16:04Z</time>
      </trkpt>
      <trkpt lat="42.82594" lon="2.9175">
        <ele>14</ele>
        <time>1970-01-01T01:16:05Z</time>
      </trkpt>
      <trkpt lat="42.8259" lon="2.91749">
        <ele>14</ele>
        <time>1970-01-01T01:16:06Z</time>
      </trkpt>
      <trkpt lat="42.82588" lon="2.91749">
        <ele>14</ele>
        <time>1970-01-01T01:16:07Z</time>
      </trkpt>
      <trkpt lat="42.82584" lon="2.91748">
        <ele>14</ele>
        <time>1970-01-01T01:16:08Z</time>
      </trkpt>
      <trkpt lat="42.82581" lon="2.91747">
        <ele>14</ele>
        <time>1970-01-01T01:16:09Z</time>
      </trkpt>
      <trkpt lat="42.82578" lon="2.91745">
        <ele>14</ele>
        <time>1970-01-01T01:16:10Z</time>
      </trkpt>
      <trkpt lat="42.82577" lon="2.91745">
        <ele>14</ele>
        <time>1970-01-01T01:16:11Z</time>
      </trkpt>
      <trkpt lat="42.82573" lon="2.91744">
        <ele>14</ele>
        <time>1970-01-01T01:16:12Z</time>
      </trkpt>
      <trkpt lat="42.82571" lon="2.91743">
        <ele>14</ele>
        <time>1970-01-01T01:16:13Z</time>
      </trkpt>
      <trkpt lat="42.82568" lon="2.91742">
        <ele>14</ele>
        <time>1970-01-01T01:16:14Z</time>
      </trkpt>
      <trkpt lat="42.82565" lon="2.91741">
        <ele>14</ele>
        <time>1970-01-01T01:16:15Z</time>
      </trkpt>
      <trkpt lat="42.82562" lon="2.91741">
        <ele>14</ele>
        <time>1970-01-01T01:16:16Z</time>
      </trkpt>
      <trkpt lat="42.82561" lon="2.9174">
        <ele>14</ele>
        <time>1970-01-01T01:16:17Z</time>
      </trkpt>
      <trkpt lat="42.82558" lon="2.91739">
        <ele>14</ele>
        <time>1970-01-01T01:16:18Z</time>
      </trkpt>
      <trkpt lat="42.82556" lon="2.91739">
        <ele>14</ele>
        <time>1970-01-01T01:16:19Z</time>
      </trkpt>
      <trkpt lat="42.82552" lon="2.91737">
        <ele>14</ele>
        <time>1970-01-01T01:16:20Z</time>
      </trkpt>
      <trkpt lat="42.82551" lon="2.91737">
        <ele>14</ele>
        <time>1970-01-01T01:16:21Z</time>
      </trkpt>
      <trkpt lat="42.82548" lon="2.91736">
        <ele>14</ele>
        <time>1970-01-01T01:16:22Z</time>
      </trkpt>
      <trkpt lat="42.82544" lon="2.91735">
        <ele>14</ele>
        <time>1970-01-01T01:16:23Z</time>
      </trkpt>
      <trkpt lat="42.82541" lon="2.91734">
        <ele>14</ele>
        <time>1970-01-01T01:16:24Z</time>
      </trkpt>
      <trkpt lat="42.82538" lon="2.91733">
        <ele>14.2</ele>
        <time>1970-01-01T01:16:25Z</time>
      </trkpt>
      <trkpt lat="42.82535" lon="2.91732">
        <ele>14.2</ele>
        <time>1970-01-01T01:16:26Z</time>
      </trkpt>
      <trkpt lat="42.82531" lon="2.91731">
        <ele>14.2</ele>
        <time>1970-01-01T01:16:27Z</time>
      </trkpt>
      <trkpt lat="42.82528" lon="2.9173">
        <ele>14.2</ele>
        <time>1970-01-01T01:16:28Z</time>
      </trkpt>
      <trkpt lat="42.82525" lon="2.91729">
        <ele>14.2</ele>
        <time>1970-01-01T01:16:29Z</time>
      </trkpt>
      <trkpt lat="42.82522" lon="2.91729">
        <ele>14.2</ele>
        <time>1970-01-01T01:16:30Z</time>
      </trkpt>
      <trkpt lat="42.82518" lon="2.91729">
        <ele>14.2</ele>
        <time>1970-01-01T01:16:31Z</time>
      </trkpt>
      <trkpt lat="42.82517" lon="2.91729">
        <ele>14.2</ele>
        <time>1970-01-01T01:16:32Z</time>
      </trkpt>
      <trkpt lat="42.82514" lon="2.91728">
        <ele>14.2</ele>
        <time>1970-01-01T01:16:33Z</time>
      </trkpt>
      <trkpt lat="42.82512" lon="2.91728">
        <ele>14.2</ele>
        <time>1970-01-01T01:16:34Z</time>
      </trkpt>
      <trkpt lat="42.8251" lon="2.91727">
        <ele>14.2</ele>
        <time>1970-01-01T01:16:35Z</time>
      </trkpt>
      <trkpt lat="42.82508" lon="2.91727">
        <ele>14.2</ele>
        <time>1970-01-01T01:16:36Z</time>
      </trkpt>
      <trkpt lat="42.82507" lon="2.91727">
        <ele>14.2</ele>
        <time>1970-01-01T01:16:37Z</time>
      </trkpt>
      <trkpt lat="42.82505" lon="2.91727">
        <ele>14.2</ele>
        <time>1970-01-01T01:16:38Z</time>
      </trkpt>
      <trkpt lat="42.82503" lon="2.91727">
        <ele>14.2</ele>
        <time>1970-01-01T01:16:39Z</time>
      </trkpt>
      <trkpt lat="42.82502" lon="2.91727">
        <ele>14.2</ele>
        <time>1970-01-01T01:16:40Z</time>
      </trkpt>
      <trkpt lat="42.82498" lon="2.91726">
        <ele>14.2</ele>
        <time>1970-01-01T01:16:41Z</time>
      </trkpt>
      <trkpt lat="42.82497" lon="2.91726">
        <ele>14.2</ele>
        <time>1970-01-01T01:16:42Z</time>
      </trkpt>
      <trkpt lat="42.82494" lon="2.91726">
        <ele>14.2</ele>
        <time>1970-01-01T01:16:43Z</time>
      </trkpt>
      <trkpt lat="42.8249" lon="2.91726">
        <ele>14.2</ele>
        <time>1970-01-01T01:16:44Z</time>
      </trkpt>
      <trkpt lat="42.82487" lon="2.91726">
        <ele>14.2</ele>
        <time>1970-01-01T01:16:45Z</time>
      </trkpt>
      <trkpt lat="42.82483" lon="2.91726">
        <ele>14.2</ele>
        <time>1970-01-01T01:16:46Z</time>
      </trkpt>
      <trkpt lat="42.8248" lon="2.91727">
        <ele>14.2</ele>
        <time>1970-01-01T01:16:47Z</time>
      </trkpt>
      <trkpt lat="42.82476" lon="2.91727">
        <ele>14.2</ele>
        <time>1970-01-01T01:16:48Z</time>
      </trkpt>
      <trkpt lat="42.82473" lon="2.91729">
        <ele>14.2</ele>
        <time>1970-01-01T01:16:49Z</time>
      </trkpt>
      <trkpt lat="42.82471" lon="2.91729">
        <ele>14.2</ele>
        <time>1970-01-01T01:16:50Z</time>
      </trkpt>
      <trkpt lat="42.82468" lon="2.9173">
        <ele>14.2</ele>
        <time>1970-01-01T01:16:51Z</time>
      </trkpt>
      <trkpt lat="42.82467" lon="2.9173">
        <ele>14.2</ele>
        <time>1970-01-01T01:16:52Z</time>
      </trkpt>
      <trkpt lat="42.82463" lon="2.91729">
        <ele>14.2</ele>
        <time>1970-01-01T01:16:53Z</time>
      </trkpt>
      <trkpt lat="42.82462" lon="2.91729">
        <ele>14.2</ele>
        <time>1970-01-01T01:16:54Z</time>
      </trkpt>
      <trkpt lat="42.82459" lon="2.91728">
        <ele>14.2</ele>
        <time>1970-01-01T01:16:55Z</time>
      </trkpt>
      <trkpt lat="42.82455" lon="2.91726">
        <ele>14.2</ele>
        <time>1970-01-01T01:16:56Z</time>
      </trkpt>
      <trkpt lat="42.82454" lon="2.91725">
        <ele>14.2</ele>
        <time>1970-01-01T01:16:57Z</time>
      </trkpt>
      <trkpt lat="42.82451" lon="2.91724">
        <ele>14.2</ele>
        <time>1970-01-01T01:16:58Z</time>
      </trkpt>
      <trkpt lat="42.82448" lon="2.91723">
        <ele>14.2</ele>
        <time>1970-01-01T01:16:59Z</time>
      </trkpt>
      <trkpt lat="42.82445" lon="2.91723">
        <ele>14.2</ele>
        <time>1970-01-01T01:17:00Z</time>
      </trkpt>
      <trkpt lat="42.82442" lon="2.91723">
        <ele>14.2</ele>
        <time>1970-01-01T01:17:01Z</time>
      </trkpt>
      <trkpt lat="42.82441" lon="2.91723">
        <ele>14.2</ele>
        <time>1970-01-01T01:17:02Z</time>
      </trkpt>
      <trkpt lat="42.82437" lon="2.91725">
        <ele>14.2</ele>
        <time>1970-01-01T01:17:03Z</time>
      </trkpt>
      <trkpt lat="42.82436" lon="2.91725">
        <ele>14.2</ele>
        <time>1970-01-01T01:17:04Z</time>
      </trkpt>
      <trkpt lat="42.82433" lon="2.91726">
        <ele>14.2</ele>
        <time>1970-01-01T01:17:05Z</time>
      </trkpt>
      <trkpt lat="42.82429" lon="2.91725">
        <ele>14.2</ele>
        <time>1970-01-01T01:17:06Z</time>
      </trkpt>
      <trkpt lat="42.82428" lon="2.91725">
        <ele>14.2</ele>
        <time>1970-01-01T01:17:07Z</time>
      </trkpt>
      <trkpt lat="42.82425" lon="2.91723">
        <ele>14.2</ele>
        <time>1970-01-01T01:17:08Z</time>
      </trkpt>
      <trkpt lat="42.82422" lon="2.91722">
        <ele>14.2</ele>
        <time>1970-01-01T01:17:09Z</time>
      </trkpt>
      <trkpt lat="42.8242" lon="2.91722">
        <ele>14</ele>
        <time>1970-01-01T01:17:10Z</time>
      </trkpt>
      <trkpt lat="42.82416" lon="2.91723">
        <ele>14</ele>
        <time>1970-01-01T01:17:11Z</time>
      </trkpt>
      <trkpt lat="42.82412" lon="2.91724">
        <ele>13.8</ele>
        <time>1970-01-01T01:17:12Z</time>
      </trkpt>
      <trkpt lat="42.82408" lon="2.91726">
        <ele>13.8</ele>
        <time>1970-01-01T01:17:13Z</time>
      </trkpt>
      <trkpt lat="42.82404" lon="2.91727">
        <ele>13.6</ele>
        <time>1970-01-01T01:17:14Z</time>
      </trkpt>
      <trkpt lat="42.82399" lon="2.91727">
        <ele>13.4</ele>
        <time>1970-01-01T01:17:15Z</time>
      </trkpt>
      <trkpt lat="42.82394" lon="2.91727">
        <ele>13.2</ele>
        <time>1970-01-01T01:17:16Z</time>
      </trkpt>
      <trkpt lat="42.82389" lon="2.91728">
        <ele>13.2</ele>
        <time>1970-01-01T01:17:17Z</time>
      </trkpt>
      <trkpt lat="42.82385" lon="2.91732">
        <ele>13</ele>
        <time>1970-01-01T01:17:18Z</time>
      </trkpt>
      <trkpt lat="42.82381" lon="2.91736">
        <ele>13</ele>
        <time>1970-01-01T01:17:19Z</time>
      </trkpt>
      <trkpt lat="42.82377" lon="2.91741">
        <ele>13</ele>
        <time>1970-01-01T01:17:20Z</time>
      </trkpt>
      <trkpt lat="42.82374" lon="2.91746">
        <ele>13</ele>
        <time>1970-01-01T01:17:21Z</time>
      </trkpt>
      <trkpt lat="42.82371" lon="2.91751">
        <ele>12.8</ele>
        <time>1970-01-01T01:17:22Z</time>
      </trkpt>
      <trkpt lat="42.82367" lon="2.91755">
        <ele>12.8</ele>
        <time>1970-01-01T01:17:23Z</time>
      </trkpt>
      <trkpt lat="42.82364" lon="2.9176">
        <ele>12.8</ele>
        <time>1970-01-01T01:17:24Z</time>
      </trkpt>
      <trkpt lat="42.82361" lon="2.91764">
        <ele>12.8</ele>
        <time>1970-01-01T01:17:25Z</time>
      </trkpt>
      <trkpt lat="42.82358" lon="2.91768">
        <ele>12.8</ele>
        <time>1970-01-01T01:17:26Z</time>
      </trkpt>
      <trkpt lat="42.82355" lon="2.91773">
        <ele>12.8</ele>
        <time>1970-01-01T01:17:27Z</time>
      </trkpt>
      <trkpt lat="42.82352" lon="2.91778">
        <ele>12.8</ele>
        <time>1970-01-01T01:17:28Z</time>
      </trkpt>
      <trkpt lat="42.82348" lon="2.91782">
        <ele>12.8</ele>
        <time>1970-01-01T01:17:29Z</time>
      </trkpt>
      <trkpt lat="42.82345" lon="2.91787">
        <ele>12.8</ele>
        <time>1970-01-01T01:17:30Z</time>
      </trkpt>
      <trkpt lat="42.82342" lon="2.91791">
        <ele>12.8</ele>
        <time>1970-01-01T01:17:31Z</time>
      </trkpt>
      <trkpt lat="42.82339" lon="2.91795">
        <ele>12.8</ele>
        <time>1970-01-01T01:17:32Z</time>
      </trkpt>
      <trkpt lat="42.82337" lon="2.91799">
        <ele>12.8</ele>
        <time>1970-01-01T01:17:33Z</time>
      </trkpt>
      <trkpt lat="42.82334" lon="2.91803">
        <ele>12.8</ele>
        <time>1970-01-01T01:17:34Z</time>
      </trkpt>
      <trkpt lat="42.82331" lon="2.91807">
        <ele>12.8</ele>
        <time>1970-01-01T01:17:35Z</time>
      </trkpt>
      <trkpt lat="42.82329" lon="2.91811">
        <ele>12.8</ele>
        <time>1970-01-01T01:17:36Z</time>
      </trkpt>
      <trkpt lat="42.82327" lon="2.91815">
        <ele>12.8</ele>
        <time>1970-01-01T01:17:37Z</time>
      </trkpt>
      <trkpt lat="42.82325" lon="2.9182">
        <ele>12.8</ele>
        <time>1970-01-01T01:17:38Z</time>
      </trkpt>
      <trkpt lat="42.82322" lon="2.91823">
        <ele>12.8</ele>
        <time>1970-01-01T01:17:39Z</time>
      </trkpt>
      <trkpt lat="42.82319" lon="2.91825">
        <ele>12.8</ele>
        <time>1970-01-01T01:17:40Z</time>
      </trkpt>
      <trkpt lat="42.82316" lon="2.91826">
        <ele>12.8</ele>
        <time>1970-01-01T01:17:41Z</time>
      </trkpt>
      <trkpt lat="42.82313" lon="2.91826">
        <ele>13</ele>
        <time>1970-01-01T01:17:42Z</time>
      </trkpt>
      <trkpt lat="42.82312" lon="2.91826">
        <ele>13</ele>
        <time>1970-01-01T01:17:43Z</time>
      </trkpt>
      <trkpt lat="42.82308" lon="2.91827">
        <ele>13</ele>
        <time>1970-01-01T01:17:44Z</time>
      </trkpt>
      <trkpt lat="42.82307" lon="2.91827">
        <ele>12.8</ele>
        <time>1970-01-01T01:17:45Z</time>
      </trkpt>
      <trkpt lat="42.82305" lon="2.91831">
        <ele>12.8</ele>
        <time>1970-01-01T01:17:46Z</time>
      </trkpt>
      <trkpt lat="42.82303" lon="2.91834">
        <ele>12.8</ele>
        <time>1970-01-01T01:17:47Z</time>
      </trkpt>
      <trkpt lat="42.823" lon="2.91837">
        <ele>12.6</ele>
        <time>1970-01-01T01:17:48Z</time>
      </trkpt>
      <trkpt lat="42.82296" lon="2.91838">
        <ele>12.6</ele>
        <time>1970-01-01T01:17:49Z</time>
      </trkpt>
      <trkpt lat="42.82293" lon="2.91837">
        <ele>12.6</ele>
        <time>1970-01-01T01:17:50Z</time>
      </trkpt>
      <trkpt lat="42.82289" lon="2.91836">
        <ele>12.6</ele>
        <time>1970-01-01T01:17:51Z</time>
      </trkpt>
      <trkpt lat="42.82286" lon="2.91835">
        <ele>12.6</ele>
        <time>1970-01-01T01:17:52Z</time>
      </trkpt>
      <trkpt lat="42.82283" lon="2.91834">
        <ele>12.6</ele>
        <time>1970-01-01T01:17:53Z</time>
      </trkpt>
      <trkpt lat="42.82279" lon="2.91832">
        <ele>12.6</ele>
        <time>1970-01-01T01:17:54Z</time>
      </trkpt>
      <trkpt lat="42.82276" lon="2.91831">
        <ele>12.6</ele>
        <time>1970-01-01T01:17:55Z</time>
      </trkpt>
      <trkpt lat="42.82272" lon="2.91829">
        <ele>12.6</ele>
        <time>1970-01-01T01:17:56Z</time>
      </trkpt>
      <trkpt lat="42.82268" lon="2.91829">
        <ele>12.6</ele>
        <time>1970-01-01T01:17:57Z</time>
      </trkpt>
      <trkpt lat="42.82264" lon="2.91829">
        <ele>12.6</ele>
        <time>1970-01-01T01:17:58Z</time>
      </trkpt>
      <trkpt lat="42.8226" lon="2.91832">
        <ele>12.4</ele>
        <time>1970-01-01T01:17:59Z</time>
      </trkpt>
      <trkpt lat="42.82257" lon="2.91836">
        <ele>12.4</ele>
        <time>1970-01-01T01:18:00Z</time>
      </trkpt>
      <trkpt lat="42.82256" lon="2.91842">
        <ele>12.2</ele>
        <time>1970-01-01T01:18:01Z</time>
      </trkpt>
      <trkpt lat="42.82255" lon="2.91848">
        <ele>12.2</ele>
        <time>1970-01-01T01:18:02Z</time>
      </trkpt>
      <trkpt lat="42.82254" lon="2.91854">
        <ele>12</ele>
        <time>1970-01-01T01:18:03Z</time>
      </trkpt>
      <trkpt lat="42.82253" lon="2.91859">
        <ele>12</ele>
        <time>1970-01-01T01:18:04Z</time>
      </trkpt>
      <trkpt lat="42.82252" lon="2.91865">
        <ele>12</ele>
        <time>1970-01-01T01:18:05Z</time>
      </trkpt>
      <trkpt lat="42.82251" lon="2.91871">
        <ele>12</ele>
        <time>1970-01-01T01:18:06Z</time>
      </trkpt>
      <trkpt lat="42.8225" lon="2.91876">
        <ele>11.8</ele>
        <time>1970-01-01T01:18:07Z</time>
      </trkpt>
      <trkpt lat="42.82249" lon="2.91881">
        <ele>11.8</ele>
        <time>1970-01-01T01:18:08Z</time>
      </trkpt>
      <trkpt lat="42.82246" lon="2.91884">
        <ele>11.8</ele>
        <time>1970-01-01T01:18:09Z</time>
      </trkpt>
      <trkpt lat="42.82243" lon="2.91885">
        <ele>11.8</ele>
        <time>1970-01-01T01:18:10Z</time>
      </trkpt>
      <trkpt lat="42.82239" lon="2.91883">
        <ele>11.8</ele>
        <time>1970-01-01T01:18:11Z</time>
      </trkpt>
      <trkpt lat="42.82236" lon="2.91881">
        <ele>11.6</ele>
        <time>1970-01-01T01:18:12Z</time>
      </trkpt>
      <trkpt lat="42.82232" lon="2.91879">
        <ele>11.6</ele>
        <time>1970-01-01T01:18:13Z</time>
      </trkpt>
      <trkpt lat="42.82229" lon="2.91878">
        <ele>11.6</ele>
        <time>1970-01-01T01:18:14Z</time>
      </trkpt>
      <trkpt lat="42.82227" lon="2.91877">
        <ele>11.6</ele>
        <time>1970-01-01T01:18:15Z</time>
      </trkpt>
      <trkpt lat="42.82223" lon="2.91875">
        <ele>11.6</ele>
        <time>1970-01-01T01:18:16Z</time>
      </trkpt>
      <trkpt lat="42.82222" lon="2.91874">
        <ele>11.6</ele>
        <time>1970-01-01T01:18:17Z</time>
      </trkpt>
      <trkpt lat="42.82219" lon="2.91872">
        <ele>11.6</ele>
        <time>1970-01-01T01:18:18Z</time>
      </trkpt>
      <trkpt lat="42.82218" lon="2.91872">
        <ele>11.6</ele>
        <time>1970-01-01T01:18:19Z</time>
      </trkpt>
      <trkpt lat="42.82215" lon="2.91871">
        <ele>11.6</ele>
        <time>1970-01-01T01:18:20Z</time>
      </trkpt>
      <trkpt lat="42.82214" lon="2.91871">
        <ele>11.6</ele>
        <time>1970-01-01T01:18:21Z</time>
      </trkpt>
      <trkpt lat="42.82213" lon="2.91871">
        <ele>11.6</ele>
        <time>1970-01-01T01:18:22Z</time>
      </trkpt>
      <trkpt lat="42.82211" lon="2.9187">
        <ele>11.6</ele>
        <time>1970-01-01T01:18:23Z</time>
      </trkpt>
      <trkpt lat="42.82208" lon="2.91868">
        <ele>11.6</ele>
        <time>1970-01-01T01:18:24Z</time>
      </trkpt>
      <trkpt lat="42.82206" lon="2.91867">
        <ele>11.6</ele>
        <time>1970-01-01T01:18:25Z</time>
      </trkpt>
      <trkpt lat="42.82204" lon="2.91866">
        <ele>11.6</ele>
        <time>1970-01-01T01:18:26Z</time>
      </trkpt>
      <trkpt lat="42.82201" lon="2.91864">
        <ele>11.6</ele>
        <time>1970-01-01T01:18:27Z</time>
      </trkpt>
      <trkpt lat="42.82198" lon="2.91863">
        <ele>11.6</ele>
        <time>1970-01-01T01:18:28Z</time>
      </trkpt>
      <trkpt lat="42.82195" lon="2.91861">
        <ele>11.6</ele>
        <time>1970-01-01T01:18:29Z</time>
      </trkpt>
      <trkpt lat="42.82191" lon="2.9186">
        <ele>11.6</ele>
        <time>1970-01-01T01:18:30Z</time>
      </trkpt>
      <trkpt lat="42.82188" lon="2.91859">
        <ele>11.6</ele>
        <time>1970-01-01T01:18:31Z</time>
      </trkpt>
      <trkpt lat="42.82185" lon="2.91857">
        <ele>11.8</ele>
        <time>1970-01-01T01:18:32Z</time>
      </trkpt>
      <trkpt lat="42.82181" lon="2.91855">
        <ele>11.8</ele>
        <time>1970-01-01T01:18:33Z</time>
      </trkpt>
      <trkpt lat="42.82178" lon="2.91854">
        <ele>11.8</ele>
        <time>1970-01-01T01:18:34Z</time>
      </trkpt>
      <trkpt lat="42.82174" lon="2.91852">
        <ele>11.8</ele>
        <time>1970-01-01T01:18:35Z</time>
      </trkpt>
      <trkpt lat="42.8217" lon="2.91851">
        <ele>11.8</ele>
        <time>1970-01-01T01:18:36Z</time>
      </trkpt>
      <trkpt lat="42.82166" lon="2.91849">
        <ele>11.8</ele>
        <time>1970-01-01T01:18:37Z</time>
      </trkpt>
      <trkpt lat="42.82162" lon="2.91847">
        <ele>11.8</ele>
        <time>1970-01-01T01:18:38Z</time>
      </trkpt>
      <trkpt lat="42.82158" lon="2.91846">
        <ele>11.8</ele>
        <time>1970-01-01T01:18:39Z</time>
      </trkpt>
      <trkpt lat="42.82154" lon="2.91844">
        <ele>11.8</ele>
        <time>1970-01-01T01:18:40Z</time>
      </trkpt>
      <trkpt lat="42.8215" lon="2.91843">
        <ele>11.8</ele>
        <time>1970-01-01T01:18:41Z</time>
      </trkpt>
      <trkpt lat="42.82146" lon="2.91841">
        <ele>11.8</ele>
        <time>1970-01-01T01:18:42Z</time>
      </trkpt>
      <trkpt lat="42.82142" lon="2.9184">
        <ele>11.8</ele>
        <time>1970-01-01T01:18:43Z</time>
      </trkpt>
      <trkpt lat="42.82138" lon="2.91838">
        <ele>11.8</ele>
        <time>1970-01-01T01:18:44Z</time>
      </trkpt>
      <trkpt lat="42.82134" lon="2.91837">
        <ele>11.8</ele>
        <time>1970-01-01T01:18:45Z</time>
      </trkpt>
      <trkpt lat="42.82129" lon="2.91835">
        <ele>11.8</ele>
        <time>1970-01-01T01:18:46Z</time>
      </trkpt>
      <trkpt lat="42.82125" lon="2.91834">
        <ele>11.8</ele>
        <time>1970-01-01T01:18:47Z</time>
      </trkpt>
      <trkpt lat="42.82121" lon="2.91832">
        <ele>11.8</ele>
        <time>1970-01-01T01:18:48Z</time>
      </trkpt>
      <trkpt lat="42.82117" lon="2.91831">
        <ele>11.8</ele>
        <time>1970-01-01T01:18:49Z</time>
      </trkpt>
      <trkpt lat="42.82113" lon="2.91829">
        <ele>11.8</ele>
        <time>1970-01-01T01:18:50Z</time>
      </trkpt>
      <trkpt lat="42.82109" lon="2.91828">
        <ele>11.8</ele>
        <time>1970-01-01T01:18:51Z</time>
      </trkpt>
      <trkpt lat="42.82105" lon="2.91826">
        <ele>11.8</ele>
        <time>1970-01-01T01:18:52Z</time>
      </trkpt>
      <trkpt lat="42.821" lon="2.91825">
        <ele>11.8</ele>
        <time>1970-01-01T01:18:53Z</time>
      </trkpt>
      <trkpt lat="42.82096" lon="2.91823">
        <ele>11.8</ele>
        <time>1970-01-01T01:18:54Z</time>
      </trkpt>
      <trkpt lat="42.82092" lon="2.91822">
        <ele>12</ele>
        <time>1970-01-01T01:18:55Z</time>
      </trkpt>
      <trkpt lat="42.82087" lon="2.9182">
        <ele>12</ele>
        <time>1970-01-01T01:18:56Z</time>
      </trkpt>
      <trkpt lat="42.82083" lon="2.91819">
        <ele>12</ele>
        <time>1970-01-01T01:18:57Z</time>
      </trkpt>
      <trkpt lat="42.82078" lon="2.91818">
        <ele>12</ele>
        <time>1970-01-01T01:18:58Z</time>
      </trkpt>
      <trkpt lat="42.82073" lon="2.91817">
        <ele>12</ele>
        <time>1970-01-01T01:18:59Z</time>
      </trkpt>
      <trkpt lat="42.82069" lon="2.91816">
        <ele>12</ele>
        <time>1970-01-01T01:19:00Z</time>
      </trkpt>
      <trkpt lat="42.82065" lon="2.91815">
        <ele>12</ele>
        <time>1970-01-01T01:19:01Z</time>
      </trkpt>
      <trkpt lat="42.8206" lon="2.91814">
        <ele>12</ele>
        <time>1970-01-01T01:19:02Z</time>
      </trkpt>
      <trkpt lat="42.82056" lon="2.91814">
        <ele>12</ele>
        <time>1970-01-01T01:19:03Z</time>
      </trkpt>
      <trkpt lat="42.82052" lon="2.91813">
        <ele>12</ele>
        <time>1970-01-01T01:19:04Z</time>
      </trkpt>
      <trkpt lat="42.82047" lon="2.91813">
        <ele>12</ele>
        <time>1970-01-01T01:19:05Z</time>
      </trkpt>
      <trkpt lat="42.82043" lon="2.91813">
        <ele>12</ele>
        <time>1970-01-01T01:19:06Z</time>
      </trkpt>
      <trkpt lat="42.82038" lon="2.91812">
        <ele>12</ele>
        <time>1970-01-01T01:19:07Z</time>
      </trkpt>
      <trkpt lat="42.82034" lon="2.91812">
        <ele>12.2</ele>
        <time>1970-01-01T01:19:08Z</time>
      </trkpt>
      <trkpt lat="42.82029" lon="2.91812">
        <ele>12.2</ele>
        <time>1970-01-01T01:19:09Z</time>
      </trkpt>
      <trkpt lat="42.82025" lon="2.91811">
        <ele>12.2</ele>
        <time>1970-01-01T01:19:10Z</time>
      </trkpt>
      <trkpt lat="42.8202" lon="2.9181">
        <ele>12.2</ele>
        <time>1970-01-01T01:19:11Z</time>
      </trkpt>
      <trkpt lat="42.82015" lon="2.91809">
        <ele>12.2</ele>
        <time>1970-01-01T01:19:12Z</time>
      </trkpt>
      <trkpt lat="42.8201" lon="2.91808">
        <ele>12.2</ele>
        <time>1970-01-01T01:19:13Z</time>
      </trkpt>
      <trkpt lat="42.82005" lon="2.91807">
        <ele>12.2</ele>
        <time>1970-01-01T01:19:14Z</time>
      </trkpt>
      <trkpt lat="42.82" lon="2.91805">
        <ele>12.2</ele>
        <time>1970-01-01T01:19:15Z</time>
      </trkpt>
      <trkpt lat="42.81996" lon="2.91804">
        <ele>12.2</ele>
        <time>1970-01-01T01:19:16Z</time>
      </trkpt>
      <trkpt lat="42.81991" lon="2.91802">
        <ele>12.2</ele>
        <time>1970-01-01T01:19:17Z</time>
      </trkpt>
      <trkpt lat="42.81986" lon="2.91801">
        <ele>12.2</ele>
        <time>1970-01-01T01:19:18Z</time>
      </trkpt>
      <trkpt lat="42.81982" lon="2.91799">
        <ele>12.4</ele>
        <time>1970-01-01T01:19:19Z</time>
      </trkpt>
      <trkpt lat="42.81977" lon="2.91798">
        <ele>12.4</ele>
        <time>1970-01-01T01:19:20Z</time>
      </trkpt>
      <trkpt lat="42.81972" lon="2.91796">
        <ele>12.4</ele>
        <time>1970-01-01T01:19:21Z</time>
      </trkpt>
      <trkpt lat="42.81968" lon="2.91795">
        <ele>12.4</ele>
        <time>1970-01-01T01:19:22Z</time>
      </trkpt>
      <trkpt lat="42.81963" lon="2.91793">
        <ele>12.4</ele>
        <time>1970-01-01T01:19:23Z</time>
      </trkpt>
      <trkpt lat="42.81958" lon="2.91792">
        <ele>12.4</ele>
        <time>1970-01-01T01:19:24Z</time>
      </trkpt>
      <trkpt lat="42.81953" lon="2.91791">
        <ele>12.4</ele>
        <time>1970-01-01T01:19:25Z</time>
      </trkpt>
      <trkpt lat="42.81948" lon="2.91789">
        <ele>12.4</ele>
        <time>1970-01-01T01:19:26Z</time>
      </trkpt>
      <trkpt lat="42.81943" lon="2.91788">
        <ele>12.4</ele>
        <time>1970-01-01T01:19:27Z</time>
      </trkpt>
      <trkpt lat="42.81939" lon="2.91788">
        <ele>12.4</ele>
        <time>1970-01-01T01:19:28Z</time>
      </trkpt>
      <trkpt lat="42.81934" lon="2.91787">
        <ele>12.4</ele>
        <time>1970-01-01T01:19:29Z</time>
      </trkpt>
      <trkpt lat="42.81929" lon="2.91786">
        <ele>12.4</ele>
        <time>1970-01-01T01:19:30Z</time>
      </trkpt>
      <trkpt lat="42.81924" lon="2.91785">
        <ele>12.4</ele>
        <time>1970-01-01T01:19:31Z</time>
      </trkpt>
      <trkpt lat="42.81919" lon="2.91784">
        <ele>12.4</ele>
        <time>1970-01-01T01:19:32Z</time>
      </trkpt>
      <trkpt lat="42.81914" lon="2.91783">
        <ele>12.6</ele>
        <time>1970-01-01T01:19:33Z</time>
      </trkpt>
      <trkpt lat="42.81909" lon="2.91782">
        <ele>12.6</ele>
        <time>1970-01-01T01:19:34Z</time>
      </trkpt>
      <trkpt lat="42.81904" lon="2.91782">
        <ele>12.6</ele>
        <time>1970-01-01T01:19:35Z</time>
      </trkpt>
      <trkpt lat="42.819" lon="2.91781">
        <ele>12.6</ele>
        <time>1970-01-01T01:19:36Z</time>
      </trkpt>
      <trkpt lat="42.81894" lon="2.9178">
        <ele>12.6</ele>
        <time>1970-01-01T01:19:37Z</time>
      </trkpt>
      <trkpt lat="42.81889" lon="2.91779">
        <ele>12.6</ele>
        <time>1970-01-01T01:19:38Z</time>
      </trkpt>
      <trkpt lat="42.81884" lon="2.91778">
        <ele>12.6</ele>
        <time>1970-01-01T01:19:39Z</time>
      </trkpt>
      <trkpt lat="42.81878" lon="2.91777">
        <ele>12.6</ele>
        <time>1970-01-01T01:19:40Z</time>
      </trkpt>
      <trkpt lat="42.81873" lon="2.91776">
        <ele>12.6</ele>
        <time>1970-01-01T01:19:41Z</time>
      </trkpt>
      <trkpt lat="42.81869" lon="2.91776">
        <ele>12.8</ele>
        <time>1970-01-01T01:19:42Z</time>
      </trkpt>
      <trkpt lat="42.81863" lon="2.91775">
        <ele>12.8</ele>
        <time>1970-01-01T01:19:43Z</time>
      </trkpt>
      <trkpt lat="42.81858" lon="2.91774">
        <ele>12.8</ele>
        <time>1970-01-01T01:19:44Z</time>
      </trkpt>
      <trkpt lat="42.81853" lon="2.91773">
        <ele>12.8</ele>
        <time>1970-01-01T01:19:45Z</time>
      </trkpt>
      <trkpt lat="42.81848" lon="2.91772">
        <ele>12.8</ele>
        <time>1970-01-01T01:19:46Z</time>
      </trkpt>
      <trkpt lat="42.81843" lon="2.91771">
        <ele>12.8</ele>
        <time>1970-01-01T01:19:47Z</time>
      </trkpt>
      <trkpt lat="42.81838" lon="2.9177">
        <ele>12.8</ele>
        <time>1970-01-01T01:19:48Z</time>
      </trkpt>
      <trkpt lat="42.81833" lon="2.91769">
        <ele>12.8</ele>
        <time>1970-01-01T01:19:49Z</time>
      </trkpt>
      <trkpt lat="42.81828" lon="2.91768">
        <ele>12.8</ele>
        <time>1970-01-01T01:19:50Z</time>
      </trkpt>
      <trkpt lat="42.81823" lon="2.91767">
        <ele>12.8</ele>
        <time>1970-01-01T01:19:51Z</time>
      </trkpt>
      <trkpt lat="42.81819" lon="2.91766">
        <ele>12.8</ele>
        <time>1970-01-01T01:19:52Z</time>
      </trkpt>
      <trkpt lat="42.81814" lon="2.91764">
        <ele>12.8</ele>
        <time>1970-01-01T01:19:53Z</time>
      </trkpt>
      <trkpt lat="42.81809" lon="2.91763">
        <ele>12.8</ele>
        <time>1970-01-01T01:19:54Z</time>
      </trkpt>
      <trkpt lat="42.81804" lon="2.91762">
        <ele>12.8</ele>
        <time>1970-01-01T01:19:55Z</time>
      </trkpt>
      <trkpt lat="42.81799" lon="2.91761">
        <ele>12.8</ele>
        <time>1970-01-01T01:19:56Z</time>
      </trkpt>
      <trkpt lat="42.81794" lon="2.91759">
        <ele>12.8</ele>
        <time>1970-01-01T01:19:57Z</time>
      </trkpt>
      <trkpt lat="42.8179" lon="2.91758">
        <ele>12.8</ele>
        <time>1970-01-01T01:19:58Z</time>
      </trkpt>
      <trkpt lat="42.81785" lon="2.91757">
        <ele>13</ele>
        <time>1970-01-01T01:19:59Z</time>
      </trkpt>
      <trkpt lat="42.81781" lon="2.91756">
        <ele>13</ele>
        <time>1970-01-01T01:20:00Z</time>
      </trkpt>
      <trkpt lat="42.81776" lon="2.91754">
        <ele>13</ele>
        <time>1970-01-01T01:20:01Z</time>
      </trkpt>
      <trkpt lat="42.81771" lon="2.91753">
        <ele>13</ele>
        <time>1970-01-01T01:20:02Z</time>
      </trkpt>
      <trkpt lat="42.81766" lon="2.91752">
        <ele>13</ele>
        <time>1970-01-01T01:20:03Z</time>
      </trkpt>
      <trkpt lat="42.81762" lon="2.9175">
        <ele>13</ele>
        <time>1970-01-01T01:20:04Z</time>
      </trkpt>
      <trkpt lat="42.81757" lon="2.9175">
        <ele>13</ele>
        <time>1970-01-01T01:20:05Z</time>
      </trkpt>
      <trkpt lat="42.81752" lon="2.91749">
        <ele>13</ele>
        <time>1970-01-01T01:20:06Z</time>
      </trkpt>
      <trkpt lat="42.81747" lon="2.91748">
        <ele>13</ele>
        <time>1970-01-01T01:20:07Z</time>
      </trkpt>
      <trkpt lat="42.81742" lon="2.91746">
        <ele>13</ele>
        <time>1970-01-01T01:20:08Z</time>
      </trkpt>
      <trkpt lat="42.81737" lon="2.91745">
        <ele>13</ele>
        <time>1970-01-01T01:20:09Z</time>
      </trkpt>
      <trkpt lat="42.81732" lon="2.91745">
        <ele>13</ele>
        <time>1970-01-01T01:20:10Z</time>
      </trkpt>
      <trkpt lat="42.81727" lon="2.91744">
        <ele>13</ele>
        <time>1970-01-01T01:20:11Z</time>
      </trkpt>
      <trkpt lat="42.81722" lon="2.91744">
        <ele>13.2</ele>
        <time>1970-01-01T01:20:12Z</time>
      </trkpt>
      <trkpt lat="42.81717" lon="2.91743">
        <ele>13.2</ele>
        <time>1970-01-01T01:20:13Z</time>
      </trkpt>
      <trkpt lat="42.81712" lon="2.91742">
        <ele>13.2</ele>
        <time>1970-01-01T01:20:14Z</time>
      </trkpt>
      <trkpt lat="42.81707" lon="2.91741">
        <ele>13.2</ele>
        <time>1970-01-01T01:20:15Z</time>
      </trkpt>
      <trkpt lat="42.81701" lon="2.91741">
        <ele>13.2</ele>
        <time>1970-01-01T01:20:16Z</time>
      </trkpt>
      <trkpt lat="42.81696" lon="2.9174">
        <ele>13.2</ele>
        <time>1970-01-01T01:20:17Z</time>
      </trkpt>
      <trkpt lat="42.81691" lon="2.9174">
        <ele>13.2</ele>
        <time>1970-01-01T01:20:18Z</time>
      </trkpt>
      <trkpt lat="42.81686" lon="2.91739">
        <ele>13.2</ele>
        <time>1970-01-01T01:20:19Z</time>
      </trkpt>
      <trkpt lat="42.81681" lon="2.91739">
        <ele>13.2</ele>
        <time>1970-01-01T01:20:20Z</time>
      </trkpt>
      <trkpt lat="42.81676" lon="2.91739">
        <ele>13.2</ele>
        <time>1970-01-01T01:20:21Z</time>
      </trkpt>
      <trkpt lat="42.81671" lon="2.91739">
        <ele>13.2</ele>
        <time>1970-01-01T01:20:22Z</time>
      </trkpt>
      <trkpt lat="42.81666" lon="2.91739">
        <ele>13.2</ele>
        <time>1970-01-01T01:20:23Z</time>
      </trkpt>
      <trkpt lat="42.81661" lon="2.91738">
        <ele>13</ele>
        <time>1970-01-01T01:20:24Z</time>
      </trkpt>
      <trkpt lat="42.81656" lon="2.91738">
        <ele>13</ele>
        <time>1970-01-01T01:20:25Z</time>
      </trkpt>
      <trkpt lat="42.81652" lon="2.91738">
        <ele>13</ele>
        <time>1970-01-01T01:20:26Z</time>
      </trkpt>
      <trkpt lat="42.81647" lon="2.91738">
        <ele>13</ele>
        <time>1970-01-01T01:20:27Z</time>
      </trkpt>
      <trkpt lat="42.81642" lon="2.91737">
        <ele>13</ele>
        <time>1970-01-01T01:20:28Z</time>
      </trkpt>
      <trkpt lat="42.81637" lon="2.91737">
        <ele>13</ele>
        <time>1970-01-01T01:20:29Z</time>
      </trkpt>
      <trkpt lat="42.81632" lon="2.91737">
        <ele>13</ele>
        <time>1970-01-01T01:20:30Z</time>
      </trkpt>
      <trkpt lat="42.81628" lon="2.91737">
        <ele>13</ele>
        <time>1970-01-01T01:20:31Z</time>
      </trkpt>
      <trkpt lat="42.81623" lon="2.91736">
        <ele>13</ele>
        <time>1970-01-01T01:20:32Z</time>
      </trkpt>
      <trkpt lat="42.81619" lon="2.91736">
        <ele>13</ele>
        <time>1970-01-01T01:20:33Z</time>
      </trkpt>
      <trkpt lat="42.81614" lon="2.91736">
        <ele>13</ele>
        <time>1970-01-01T01:20:34Z</time>
      </trkpt>
      <trkpt lat="42.81609" lon="2.91736">
        <ele>13</ele>
        <time>1970-01-01T01:20:35Z</time>
      </trkpt>
      <trkpt lat="42.81605" lon="2.91735">
        <ele>13.2</ele>
        <time>1970-01-01T01:20:36Z</time>
      </trkpt>
      <trkpt lat="42.816" lon="2.91735">
        <ele>13.2</ele>
        <time>1970-01-01T01:20:37Z</time>
      </trkpt>
      <trkpt lat="42.81596" lon="2.91735">
        <ele>13.2</ele>
        <time>1970-01-01T01:20:38Z</time>
      </trkpt>
      <trkpt lat="42.81591" lon="2.91734">
        <ele>13.2</ele>
        <time>1970-01-01T01:20:39Z</time>
      </trkpt>
      <trkpt lat="42.81586" lon="2.91734">
        <ele>13</ele>
        <time>1970-01-01T01:20:40Z</time>
      </trkpt>
      <trkpt lat="42.81581" lon="2.91734">
        <ele>13</ele>
        <time>1970-01-01T01:20:41Z</time>
      </trkpt>
      <trkpt lat="42.81577" lon="2.91733">
        <ele>13</ele>
        <time>1970-01-01T01:20:42Z</time>
      </trkpt>
      <trkpt lat="42.81572" lon="2.91733">
        <ele>13</ele>
        <time>1970-01-01T01:20:43Z</time>
      </trkpt>
      <trkpt lat="42.81567" lon="2.91733">
        <ele>13</ele>
        <time>1970-01-01T01:20:44Z</time>
      </trkpt>
      <trkpt lat="42.81562" lon="2.91733">
        <ele>13</ele>
        <time>1970-01-01T01:20:45Z</time>
      </trkpt>
      <trkpt lat="42.81557" lon="2.91733">
        <ele>13</ele>
        <time>1970-01-01T01:20:46Z</time>
      </trkpt>
      <trkpt lat="42.81552" lon="2.91734">
        <ele>13</ele>
        <time>1970-01-01T01:20:47Z</time>
      </trkpt>
      <trkpt lat="42.81547" lon="2.91734">
        <ele>13</ele>
        <time>1970-01-01T01:20:48Z</time>
      </trkpt>
      <trkpt lat="42.81542" lon="2.91735">
        <ele>13</ele>
        <time>1970-01-01T01:20:49Z</time>
      </trkpt>
      <trkpt lat="42.81537" lon="2.91735">
        <ele>13</ele>
        <time>1970-01-01T01:20:50Z</time>
      </trkpt>
      <trkpt lat="42.81532" lon="2.91736">
        <ele>13</ele>
        <time>1970-01-01T01:20:51Z</time>
      </trkpt>
      <trkpt lat="42.81527" lon="2.91738">
        <ele>13</ele>
        <time>1970-01-01T01:20:52Z</time>
      </trkpt>
      <trkpt lat="42.81522" lon="2.91739">
        <ele>13</ele>
        <time>1970-01-01T01:20:53Z</time>
      </trkpt>
      <trkpt lat="42.81517" lon="2.9174">
        <ele>13</ele>
        <time>1970-01-01T01:20:54Z</time>
      </trkpt>
      <trkpt lat="42.81512" lon="2.91741">
        <ele>13</ele>
        <time>1970-01-01T01:20:55Z</time>
      </trkpt>
      <trkpt lat="42.81507" lon="2.91742">
        <ele>13</ele>
        <time>1970-01-01T01:20:56Z</time>
      </trkpt>
      <trkpt lat="42.81503" lon="2.91743">
        <ele>13</ele>
        <time>1970-01-01T01:20:57Z</time>
      </trkpt>
      <trkpt lat="42.81498" lon="2.91744">
        <ele>13</ele>
        <time>1970-01-01T01:20:58Z</time>
      </trkpt>
      <trkpt lat="42.81493" lon="2.91746">
        <ele>13</ele>
        <time>1970-01-01T01:20:59Z</time>
      </trkpt>
      <trkpt lat="42.81488" lon="2.91747">
        <ele>13</ele>
        <time>1970-01-01T01:21:00Z</time>
      </trkpt>
      <trkpt lat="42.81484" lon="2.91748">
        <ele>13</ele>
        <time>1970-01-01T01:21:01Z</time>
      </trkpt>
      <trkpt lat="42.81479" lon="2.91749">
        <ele>13</ele>
        <time>1970-01-01T01:21:02Z</time>
      </trkpt>
      <trkpt lat="42.81474" lon="2.9175">
        <ele>13</ele>
        <time>1970-01-01T01:21:03Z</time>
      </trkpt>
      <trkpt lat="42.8147" lon="2.91751">
        <ele>13</ele>
        <time>1970-01-01T01:21:04Z</time>
      </trkpt>
      <trkpt lat="42.81465" lon="2.91752">
        <ele>13</ele>
        <time>1970-01-01T01:21:05Z</time>
      </trkpt>
      <trkpt lat="42.81461" lon="2.91754">
        <ele>13</ele>
        <time>1970-01-01T01:21:06Z</time>
      </trkpt>
      <trkpt lat="42.81456" lon="2.91755">
        <ele>13</ele>
        <time>1970-01-01T01:21:07Z</time>
      </trkpt>
      <trkpt lat="42.81452" lon="2.91756">
        <ele>13</ele>
        <time>1970-01-01T01:21:08Z</time>
      </trkpt>
      <trkpt lat="42.81447" lon="2.91757">
        <ele>13</ele>
        <time>1970-01-01T01:21:09Z</time>
      </trkpt>
      <trkpt lat="42.81442" lon="2.91758">
        <ele>13</ele>
        <time>1970-01-01T01:21:10Z</time>
      </trkpt>
      <trkpt lat="42.81438" lon="2.91759">
        <ele>13</ele>
        <time>1970-01-01T01:21:11Z</time>
      </trkpt>
      <trkpt lat="42.81433" lon="2.91761">
        <ele>13</ele>
        <time>1970-01-01T01:21:12Z</time>
      </trkpt>
      <trkpt lat="42.81428" lon="2.91762">
        <ele>13</ele>
        <time>1970-01-01T01:21:13Z</time>
      </trkpt>
      <trkpt lat="42.81424" lon="2.91763">
        <ele>13</ele>
        <time>1970-01-01T01:21:14Z</time>
      </trkpt>
      <trkpt lat="42.81419" lon="2.91764">
        <ele>13</ele>
        <time>1970-01-01T01:21:15Z</time>
      </trkpt>
      <trkpt lat="42.81415" lon="2.91766">
        <ele>13</ele>
        <time>1970-01-01T01:21:16Z</time>
      </trkpt>
      <trkpt lat="42.8141" lon="2.91767">
        <ele>13</ele>
        <time>1970-01-01T01:21:17Z</time>
      </trkpt>
      <trkpt lat="42.81405" lon="2.91769">
        <ele>13</ele>
        <time>1970-01-01T01:21:18Z</time>
      </trkpt>
      <trkpt lat="42.81401" lon="2.9177">
        <ele>13</ele>
        <time>1970-01-01T01:21:19Z</time>
      </trkpt>
      <trkpt lat="42.81396" lon="2.91771">
        <ele>13</ele>
        <time>1970-01-01T01:21:20Z</time>
      </trkpt>
      <trkpt lat="42.81392" lon="2.91772">
        <ele>13</ele>
        <time>1970-01-01T01:21:21Z</time>
      </trkpt>
      <trkpt lat="42.81387" lon="2.91773">
        <ele>13</ele>
        <time>1970-01-01T01:21:22Z</time>
      </trkpt>
      <trkpt lat="42.81383" lon="2.91775">
        <ele>13</ele>
        <time>1970-01-01T01:21:23Z</time>
      </trkpt>
      <trkpt lat="42.81378" lon="2.91776">
        <ele>13</ele>
        <time>1970-01-01T01:21:24Z</time>
      </trkpt>
      <trkpt lat="42.81373" lon="2.91777">
        <ele>13</ele>
        <time>1970-01-01T01:21:25Z</time>
      </trkpt>
      <trkpt lat="42.81368" lon="2.91779">
        <ele>13</ele>
        <time>1970-01-01T01:21:26Z</time>
      </trkpt>
      <trkpt lat="42.81363" lon="2.9178">
        <ele>13</ele>
        <time>1970-01-01T01:21:27Z</time>
      </trkpt>
      <trkpt lat="42.81358" lon="2.91781">
        <ele>13</ele>
        <time>1970-01-01T01:21:28Z</time>
      </trkpt>
      <trkpt lat="42.81353" lon="2.91783">
        <ele>13</ele>
        <time>1970-01-01T01:21:29Z</time>
      </trkpt>
      <trkpt lat="42.81348" lon="2.91784">
        <ele>13</ele>
        <time>1970-01-01T01:21:30Z</time>
      </trkpt>
      <trkpt lat="42.81343" lon="2.91786">
        <ele>13</ele>
        <time>1970-01-01T01:21:31Z</time>
      </trkpt>
      <trkpt lat="42.81338" lon="2.91787">
        <ele>13</ele>
        <time>1970-01-01T01:21:32Z</time>
      </trkpt>
      <trkpt lat="42.81334" lon="2.91788">
        <ele>13</ele>
        <time>1970-01-01T01:21:33Z</time>
      </trkpt>
      <trkpt lat="42.81329" lon="2.91789">
        <ele>13</ele>
        <time>1970-01-01T01:21:34Z</time>
      </trkpt>
      <trkpt lat="42.81324" lon="2.91791">
        <ele>12.8</ele>
        <time>1970-01-01T01:21:35Z</time>
      </trkpt>
      <trkpt lat="42.81319" lon="2.91791">
        <ele>12.8</ele>
        <time>1970-01-01T01:21:36Z</time>
      </trkpt>
      <trkpt lat="42.81315" lon="2.91792">
        <ele>12.8</ele>
        <time>1970-01-01T01:21:37Z</time>
      </trkpt>
      <trkpt lat="42.8131" lon="2.91794">
        <ele>12.8</ele>
        <time>1970-01-01T01:21:38Z</time>
      </trkpt>
      <trkpt lat="42.81305" lon="2.91795">
        <ele>12.8</ele>
        <time>1970-01-01T01:21:39Z</time>
      </trkpt>
      <trkpt lat="42.813" lon="2.91795">
        <ele>12.8</ele>
        <time>1970-01-01T01:21:40Z</time>
      </trkpt>
      <trkpt lat="42.81296" lon="2.91796">
        <ele>12.8</ele>
        <time>1970-01-01T01:21:41Z</time>
      </trkpt>
      <trkpt lat="42.81291" lon="2.91797">
        <ele>12.8</ele>
        <time>1970-01-01T01:21:42Z</time>
      </trkpt>
      <trkpt lat="42.81286" lon="2.91798">
        <ele>12.8</ele>
        <time>1970-01-01T01:21:43Z</time>
      </trkpt>
      <trkpt lat="42.81281" lon="2.91799">
        <ele>12.8</ele>
        <time>1970-01-01T01:21:44Z</time>
      </trkpt>
      <trkpt lat="42.81277" lon="2.918">
        <ele>12.8</ele>
        <time>1970-01-01T01:21:45Z</time>
      </trkpt>
      <trkpt lat="42.81272" lon="2.91801">
        <ele>12.8</ele>
        <time>1970-01-01T01:21:46Z</time>
      </trkpt>
      <trkpt lat="42.81267" lon="2.91802">
        <ele>12.8</ele>
        <time>1970-01-01T01:21:47Z</time>
      </trkpt>
      <trkpt lat="42.81263" lon="2.91802">
        <ele>12.8</ele>
        <time>1970-01-01T01:21:48Z</time>
      </trkpt>
      <trkpt lat="42.81258" lon="2.91803">
        <ele>12.8</ele>
        <time>1970-01-01T01:21:49Z</time>
      </trkpt>
      <trkpt lat="42.81253" lon="2.91804">
        <ele>12.8</ele>
        <time>1970-01-01T01:21:50Z</time>
      </trkpt>
      <trkpt lat="42.81249" lon="2.91805">
        <ele>12.8</ele>
        <time>1970-01-01T01:21:51Z</time>
      </trkpt>
      <trkpt lat="42.81244" lon="2.91806">
        <ele>12.8</ele>
        <time>1970-01-01T01:21:52Z</time>
      </trkpt>
      <trkpt lat="42.8124" lon="2.91807">
        <ele>12.8</ele>
        <time>1970-01-01T01:21:53Z</time>
      </trkpt>
      <trkpt lat="42.81235" lon="2.91808">
        <ele>12.8</ele>
        <time>1970-01-01T01:21:54Z</time>
      </trkpt>
      <trkpt lat="42.8123" lon="2.91808">
        <ele>12.8</ele>
        <time>1970-01-01T01:21:55Z</time>
      </trkpt>
      <trkpt lat="42.81225" lon="2.91809">
        <ele>12.8</ele>
        <time>1970-01-01T01:21:56Z</time>
      </trkpt>
      <trkpt lat="42.81221" lon="2.9181">
        <ele>12.8</ele>
        <time>1970-01-01T01:21:57Z</time>
      </trkpt>
      <trkpt lat="42.81216" lon="2.9181">
        <ele>12.8</ele>
        <time>1970-01-01T01:21:58Z</time>
      </trkpt>
      <trkpt lat="42.81211" lon="2.9181">
        <ele>12.8</ele>
        <time>1970-01-01T01:21:59Z</time>
      </trkpt>
      <trkpt lat="42.81207" lon="2.9181">
        <ele>12.8</ele>
        <time>1970-01-01T01:22:00Z</time>
      </trkpt>
      <trkpt lat="42.81202" lon="2.91811">
        <ele>12.8</ele>
        <time>1970-01-01T01:22:01Z</time>
      </trkpt>
      <trkpt lat="42.81197" lon="2.91811">
        <ele>12.8</ele>
        <time>1970-01-01T01:22:02Z</time>
      </trkpt>
      <trkpt lat="42.81192" lon="2.91811">
        <ele>12.8</ele>
        <time>1970-01-01T01:22:03Z</time>
      </trkpt>
      <trkpt lat="42.81188" lon="2.91811">
        <ele>12.8</ele>
        <time>1970-01-01T01:22:04Z</time>
      </trkpt>
      <trkpt lat="42.81183" lon="2.91811">
        <ele>12.8</ele>
        <time>1970-01-01T01:22:05Z</time>
      </trkpt>
      <trkpt lat="42.81179" lon="2.91811">
        <ele>12.8</ele>
        <time>1970-01-01T01:22:06Z</time>
      </trkpt>
      <trkpt lat="42.81174" lon="2.91811">
        <ele>12.8</ele>
        <time>1970-01-01T01:22:07Z</time>
      </trkpt>
      <trkpt lat="42.8117" lon="2.91811">
        <ele>12.8</ele>
        <time>1970-01-01T01:22:08Z</time>
      </trkpt>
      <trkpt lat="42.81165" lon="2.91811">
        <ele>12.8</ele>
        <time>1970-01-01T01:22:09Z</time>
      </trkpt>
      <trkpt lat="42.8116" lon="2.91811">
        <ele>12.8</ele>
        <time>1970-01-01T01:22:10Z</time>
      </trkpt>
      <trkpt lat="42.81155" lon="2.9181">
        <ele>12.8</ele>
        <time>1970-01-01T01:22:11Z</time>
      </trkpt>
      <trkpt lat="42.81151" lon="2.9181">
        <ele>12.8</ele>
        <time>1970-01-01T01:22:12Z</time>
      </trkpt>
      <trkpt lat="42.81146" lon="2.91809">
        <ele>12.8</ele>
        <time>1970-01-01T01:22:13Z</time>
      </trkpt>
      <trkpt lat="42.81141" lon="2.91808">
        <ele>12.8</ele>
        <time>1970-01-01T01:22:14Z</time>
      </trkpt>
      <trkpt lat="42.81137" lon="2.91807">
        <ele>12.8</ele>
        <time>1970-01-01T01:22:15Z</time>
      </trkpt>
      <trkpt lat="42.81133" lon="2.91807">
        <ele>12.8</ele>
        <time>1970-01-01T01:22:16Z</time>
      </trkpt>
      <trkpt lat="42.81128" lon="2.91806">
        <ele>12.8</ele>
        <time>1970-01-01T01:22:17Z</time>
      </trkpt>
      <trkpt lat="42.81124" lon="2.91806">
        <ele>12.8</ele>
        <time>1970-01-01T01:22:18Z</time>
      </trkpt>
      <trkpt lat="42.81119" lon="2.91805">
        <ele>12.8</ele>
        <time>1970-01-01T01:22:19Z</time>
      </trkpt>
      <trkpt lat="42.81114" lon="2.91805">
        <ele>12.8</ele>
        <time>1970-01-01T01:22:20Z</time>
      </trkpt>
      <trkpt lat="42.81109" lon="2.91804">
        <ele>12.8</ele>
        <time>1970-01-01T01:22:21Z</time>
      </trkpt>
      <trkpt lat="42.81104" lon="2.91804">
        <ele>12.8</ele>
        <time>1970-01-01T01:22:22Z</time>
      </trkpt>
      <trkpt lat="42.811" lon="2.91803">
        <ele>12.8</ele>
        <time>1970-01-01T01:22:23Z</time>
      </trkpt>
      <trkpt lat="42.81095" lon="2.91803">
        <ele>12.8</ele>
        <time>1970-01-01T01:22:24Z</time>
      </trkpt>
      <trkpt lat="42.81091" lon="2.91802">
        <ele>12.8</ele>
        <time>1970-01-01T01:22:25Z</time>
      </trkpt>
      <trkpt lat="42.81086" lon="2.91801">
        <ele>12.8</ele>
        <time>1970-01-01T01:22:26Z</time>
      </trkpt>
      <trkpt lat="42.81082" lon="2.91801">
        <ele>12.8</ele>
        <time>1970-01-01T01:22:27Z</time>
      </trkpt>
      <trkpt lat="42.81077" lon="2.918">
        <ele>12.8</ele>
        <time>1970-01-01T01:22:28Z</time>
      </trkpt>
      <trkpt lat="42.81072" lon="2.91799">
        <ele>12.6</ele>
        <time>1970-01-01T01:22:29Z</time>
      </trkpt>
      <trkpt lat="42.81067" lon="2.91798">
        <ele>12.6</ele>
        <time>1970-01-01T01:22:30Z</time>
      </trkpt>
      <trkpt lat="42.81062" lon="2.91798">
        <ele>12.6</ele>
        <time>1970-01-01T01:22:31Z</time>
      </trkpt>
      <trkpt lat="42.81058" lon="2.91797">
        <ele>12.6</ele>
        <time>1970-01-01T01:22:32Z</time>
      </trkpt>
      <trkpt lat="42.81053" lon="2.91797">
        <ele>12.6</ele>
        <time>1970-01-01T01:22:33Z</time>
      </trkpt>
      <trkpt lat="42.81048" lon="2.91796">
        <ele>12.6</ele>
        <time>1970-01-01T01:22:34Z</time>
      </trkpt>
      <trkpt lat="42.81044" lon="2.91796">
        <ele>12.6</ele>
        <time>1970-01-01T01:22:35Z</time>
      </trkpt>
      <trkpt lat="42.81039" lon="2.91796">
        <ele>12.6</ele>
        <time>1970-01-01T01:22:36Z</time>
      </trkpt>
      <trkpt lat="42.81034" lon="2.91796">
        <ele>12.6</ele>
        <time>1970-01-01T01:22:37Z</time>
      </trkpt>
      <trkpt lat="42.81029" lon="2.91796">
        <ele>12.6</ele>
        <time>1970-01-01T01:22:38Z</time>
      </trkpt>
      <trkpt lat="42.81024" lon="2.91796">
        <ele>12.8</ele>
        <time>1970-01-01T01:22:39Z</time>
      </trkpt>
      <trkpt lat="42.81019" lon="2.91796">
        <ele>12.8</ele>
        <time>1970-01-01T01:22:40Z</time>
      </trkpt>
      <trkpt lat="42.81015" lon="2.91796">
        <ele>12.8</ele>
        <time>1970-01-01T01:22:41Z</time>
      </trkpt>
      <trkpt lat="42.8101" lon="2.91796">
        <ele>12.8</ele>
        <time>1970-01-01T01:22:42Z</time>
      </trkpt>
      <trkpt lat="42.81006" lon="2.91797">
        <ele>12.8</ele>
        <time>1970-01-01T01:22:43Z</time>
      </trkpt>
      <trkpt lat="42.81001" lon="2.91797">
        <ele>12.8</ele>
        <time>1970-01-01T01:22:44Z</time>
      </trkpt>
      <trkpt lat="42.80996" lon="2.91797">
        <ele>12.8</ele>
        <time>1970-01-01T01:22:45Z</time>
      </trkpt>
      <trkpt lat="42.80992" lon="2.91797">
        <ele>12.8</ele>
        <time>1970-01-01T01:22:46Z</time>
      </trkpt>
      <trkpt lat="42.80987" lon="2.91797">
        <ele>12.8</ele>
        <time>1970-01-01T01:22:47Z</time>
      </trkpt>
      <trkpt lat="42.80983" lon="2.91797">
        <ele>12.8</ele>
        <time>1970-01-01T01:22:48Z</time>
      </trkpt>
      <trkpt lat="42.80978" lon="2.91797">
        <ele>12.8</ele>
        <time>1970-01-01T01:22:49Z</time>
      </trkpt>
      <trkpt lat="42.80973" lon="2.91797">
        <ele>12.8</ele>
        <time>1970-01-01T01:22:50Z</time>
      </trkpt>
      <trkpt lat="42.80969" lon="2.91797">
        <ele>12.8</ele>
        <time>1970-01-01T01:22:51Z</time>
      </trkpt>
      <trkpt lat="42.80964" lon="2.91797">
        <ele>12.8</ele>
        <time>1970-01-01T01:22:52Z</time>
      </trkpt>
      <trkpt lat="42.80959" lon="2.91797">
        <ele>12.8</ele>
        <time>1970-01-01T01:22:53Z</time>
      </trkpt>
      <trkpt lat="42.80955" lon="2.91797">
        <ele>12.8</ele>
        <time>1970-01-01T01:22:54Z</time>
      </trkpt>
      <trkpt lat="42.8095" lon="2.91798">
        <ele>12.8</ele>
        <time>1970-01-01T01:22:55Z</time>
      </trkpt>
      <trkpt lat="42.80945" lon="2.91798">
        <ele>12.8</ele>
        <time>1970-01-01T01:22:56Z</time>
      </trkpt>
      <trkpt lat="42.8094" lon="2.91798">
        <ele>12.8</ele>
        <time>1970-01-01T01:22:57Z</time>
      </trkpt>
      <trkpt lat="42.80936" lon="2.91798">
        <ele>12.8</ele>
        <time>1970-01-01T01:22:58Z</time>
      </trkpt>
      <trkpt lat="42.80931" lon="2.91799">
        <ele>12.8</ele>
        <time>1970-01-01T01:22:59Z</time>
      </trkpt>
      <trkpt lat="42.80926" lon="2.91798">
        <ele>12.8</ele>
        <time>1970-01-01T01:23:00Z</time>
      </trkpt>
      <trkpt lat="42.80921" lon="2.91797">
        <ele>12.8</ele>
        <time>1970-01-01T01:23:01Z</time>
      </trkpt>
      <trkpt lat="42.80917" lon="2.91797">
        <ele>12.6</ele>
        <time>1970-01-01T01:23:02Z</time>
      </trkpt>
      <trkpt lat="42.80912" lon="2.91796">
        <ele>12.6</ele>
        <time>1970-01-01T01:23:03Z</time>
      </trkpt>
      <trkpt lat="42.80907" lon="2.91795">
        <ele>12.6</ele>
        <time>1970-01-01T01:23:04Z</time>
      </trkpt>
      <trkpt lat="42.80902" lon="2.91794">
        <ele>12.6</ele>
        <time>1970-01-01T01:23:05Z</time>
      </trkpt>
      <trkpt lat="42.80898" lon="2.91792">
        <ele>12.8</ele>
        <time>1970-01-01T01:23:06Z</time>
      </trkpt>
      <trkpt lat="42.80893" lon="2.91791">
        <ele>12.8</ele>
        <time>1970-01-01T01:23:07Z</time>
      </trkpt>
      <trkpt lat="42.80888" lon="2.9179">
        <ele>12.8</ele>
        <time>1970-01-01T01:23:08Z</time>
      </trkpt>
      <trkpt lat="42.80883" lon="2.91788">
        <ele>12.8</ele>
        <time>1970-01-01T01:23:09Z</time>
      </trkpt>
      <trkpt lat="42.80879" lon="2.91787">
        <ele>12.8</ele>
        <time>1970-01-01T01:23:10Z</time>
      </trkpt>
      <trkpt lat="42.80874" lon="2.91786">
        <ele>12.8</ele>
        <time>1970-01-01T01:23:11Z</time>
      </trkpt>
      <trkpt lat="42.8087" lon="2.91785">
        <ele>12.8</ele>
        <time>1970-01-01T01:23:12Z</time>
      </trkpt>
      <trkpt lat="42.80865" lon="2.91783">
        <ele>12.8</ele>
        <time>1970-01-01T01:23:13Z</time>
      </trkpt>
      <trkpt lat="42.8086" lon="2.91781">
        <ele>12.8</ele>
        <time>1970-01-01T01:23:14Z</time>
      </trkpt>
      <trkpt lat="42.80855" lon="2.9178">
        <ele>12.6</ele>
        <time>1970-01-01T01:23:15Z</time>
      </trkpt>
      <trkpt lat="42.8085" lon="2.91778">
        <ele>12.6</ele>
        <time>1970-01-01T01:23:16Z</time>
      </trkpt>
      <trkpt lat="42.80846" lon="2.91777">
        <ele>12.6</ele>
        <time>1970-01-01T01:23:17Z</time>
      </trkpt>
      <trkpt lat="42.80841" lon="2.91775">
        <ele>12.6</ele>
        <time>1970-01-01T01:23:18Z</time>
      </trkpt>
      <trkpt lat="42.80836" lon="2.91774">
        <ele>12.6</ele>
        <time>1970-01-01T01:23:19Z</time>
      </trkpt>
      <trkpt lat="42.80831" lon="2.91772">
        <ele>12.6</ele>
        <time>1970-01-01T01:23:20Z</time>
      </trkpt>
      <trkpt lat="42.80827" lon="2.91771">
        <ele>12.6</ele>
        <time>1970-01-01T01:23:21Z</time>
      </trkpt>
      <trkpt lat="42.80822" lon="2.91769">
        <ele>12.6</ele>
        <time>1970-01-01T01:23:22Z</time>
      </trkpt>
      <trkpt lat="42.80817" lon="2.91768">
        <ele>12.6</ele>
        <time>1970-01-01T01:23:23Z</time>
      </trkpt>
      <trkpt lat="42.80813" lon="2.91766">
        <ele>12.6</ele>
        <time>1970-01-01T01:23:24Z</time>
      </trkpt>
      <trkpt lat="42.80809" lon="2.91765">
        <ele>12.6</ele>
        <time>1970-01-01T01:23:25Z</time>
      </trkpt>
      <trkpt lat="42.80805" lon="2.91764">
        <ele>12.6</ele>
        <time>1970-01-01T01:23:26Z</time>
      </trkpt>
      <trkpt lat="42.80801" lon="2.91762">
        <ele>12.6</ele>
        <time>1970-01-01T01:23:27Z</time>
      </trkpt>
      <trkpt lat="42.80797" lon="2.91761">
        <ele>12.6</ele>
        <time>1970-01-01T01:23:28Z</time>
      </trkpt>
      <trkpt lat="42.80793" lon="2.91759">
        <ele>12.6</ele>
        <time>1970-01-01T01:23:29Z</time>
      </trkpt>
      <trkpt lat="42.80789" lon="2.91758">
        <ele>12.6</ele>
        <time>1970-01-01T01:23:30Z</time>
      </trkpt>
      <trkpt lat="42.80785" lon="2.91757">
        <ele>12.6</ele>
        <time>1970-01-01T01:23:31Z</time>
      </trkpt>
      <trkpt lat="42.80781" lon="2.91755">
        <ele>12.6</ele>
        <time>1970-01-01T01:23:32Z</time>
      </trkpt>
      <trkpt lat="42.80777" lon="2.91754">
        <ele>12.8</ele>
        <time>1970-01-01T01:23:33Z</time>
      </trkpt>
      <trkpt lat="42.80772" lon="2.91753">
        <ele>12.8</ele>
        <time>1970-01-01T01:23:34Z</time>
      </trkpt>
      <trkpt lat="42.80768" lon="2.91751">
        <ele>12.8</ele>
        <time>1970-01-01T01:23:35Z</time>
      </trkpt>
      <trkpt lat="42.80764" lon="2.9175">
        <ele>12.8</ele>
        <time>1970-01-01T01:23:36Z</time>
      </trkpt>
      <trkpt lat="42.80761" lon="2.91749">
        <ele>12.8</ele>
        <time>1970-01-01T01:23:37Z</time>
      </trkpt>
      <trkpt lat="42.80757" lon="2.91749">
        <ele>12.8</ele>
        <time>1970-01-01T01:23:38Z</time>
      </trkpt>
      <trkpt lat="42.80753" lon="2.91749">
        <ele>12.8</ele>
        <time>1970-01-01T01:23:39Z</time>
      </trkpt>
      <trkpt lat="42.80749" lon="2.91749">
        <ele>12.6</ele>
        <time>1970-01-01T01:23:40Z</time>
      </trkpt>
      <trkpt lat="42.80746" lon="2.91751">
        <ele>12.6</ele>
        <time>1970-01-01T01:23:41Z</time>
      </trkpt>
      <trkpt lat="42.80743" lon="2.91754">
        <ele>12.6</ele>
        <time>1970-01-01T01:23:42Z</time>
      </trkpt>
      <trkpt lat="42.80741" lon="2.91758">
        <ele>12.6</ele>
        <time>1970-01-01T01:23:43Z</time>
      </trkpt>
      <trkpt lat="42.80741" lon="2.91762">
        <ele>12.4</ele>
        <time>1970-01-01T01:23:44Z</time>
      </trkpt>
      <trkpt lat="42.80741" lon="2.91767">
        <ele>12.4</ele>
        <time>1970-01-01T01:23:45Z</time>
      </trkpt>
      <trkpt lat="42.80741" lon="2.91772">
        <ele>12.4</ele>
        <time>1970-01-01T01:23:46Z</time>
      </trkpt>
      <trkpt lat="42.8074" lon="2.91777">
        <ele>12.2</ele>
        <time>1970-01-01T01:23:47Z</time>
      </trkpt>
      <trkpt lat="42.8074" lon="2.91782">
        <ele>12.2</ele>
        <time>1970-01-01T01:23:48Z</time>
      </trkpt>
      <trkpt lat="42.80739" lon="2.91787">
        <ele>12.2</ele>
        <time>1970-01-01T01:23:49Z</time>
      </trkpt>
      <trkpt lat="42.80738" lon="2.91793">
        <ele>12.2</ele>
        <time>1970-01-01T01:23:50Z</time>
      </trkpt>
      <trkpt lat="42.80737" lon="2.91798">
        <ele>12.2</ele>
        <time>1970-01-01T01:23:51Z</time>
      </trkpt>
      <trkpt lat="42.80737" lon="2.91804">
        <ele>12.2</ele>
        <time>1970-01-01T01:23:52Z</time>
      </trkpt>
      <trkpt lat="42.80736" lon="2.9181">
        <ele>12.2</ele>
        <time>1970-01-01T01:23:53Z</time>
      </trkpt>
      <trkpt lat="42.80736" lon="2.91816">
        <ele>12</ele>
        <time>1970-01-01T01:23:54Z</time>
      </trkpt>
      <trkpt lat="42.80736" lon="2.91821">
        <ele>12</ele>
        <time>1970-01-01T01:23:55Z</time>
      </trkpt>
      <trkpt lat="42.80736" lon="2.91827">
        <ele>12</ele>
        <time>1970-01-01T01:23:56Z</time>
      </trkpt>
      <trkpt lat="42.80735" lon="2.91833">
        <ele>12</ele>
        <time>1970-01-01T01:23:57Z</time>
      </trkpt>
      <trkpt lat="42.80735" lon="2.91838">
        <ele>12</ele>
        <time>1970-01-01T01:23:58Z</time>
      </trkpt>
      <trkpt lat="42.80735" lon="2.91844">
        <ele>12</ele>
        <time>1970-01-01T01:23:59Z</time>
      </trkpt>
      <trkpt lat="42.80735" lon="2.9185">
        <ele>12</ele>
        <time>1970-01-01T01:24:00Z</time>
      </trkpt>
      <trkpt lat="42.80734" lon="2.91856">
        <ele>12</ele>
        <time>1970-01-01T01:24:01Z</time>
      </trkpt>
      <trkpt lat="42.80733" lon="2.91861">
        <ele>12</ele>
        <time>1970-01-01T01:24:02Z</time>
      </trkpt>
      <trkpt lat="42.80732" lon="2.91867">
        <ele>12</ele>
        <time>1970-01-01T01:24:03Z</time>
      </trkpt>
      <trkpt lat="42.8073" lon="2.91873">
        <ele>11.8</ele>
        <time>1970-01-01T01:24:04Z</time>
      </trkpt>
      <trkpt lat="42.80729" lon="2.91879">
        <ele>11.8</ele>
        <time>1970-01-01T01:24:05Z</time>
      </trkpt>
      <trkpt lat="42.80727" lon="2.91885">
        <ele>11.8</ele>
        <time>1970-01-01T01:24:06Z</time>
      </trkpt>
      <trkpt lat="42.80725" lon="2.9189">
        <ele>11.8</ele>
        <time>1970-01-01T01:24:07Z</time>
      </trkpt>
      <trkpt lat="42.80724" lon="2.91895">
        <ele>11.8</ele>
        <time>1970-01-01T01:24:08Z</time>
      </trkpt>
      <trkpt lat="42.80722" lon="2.91901">
        <ele>11.8</ele>
        <time>1970-01-01T01:24:09Z</time>
      </trkpt>
      <trkpt lat="42.8072" lon="2.91906">
        <ele>11.8</ele>
        <time>1970-01-01T01:24:10Z</time>
      </trkpt>
      <trkpt lat="42.80718" lon="2.91911">
        <ele>11.8</ele>
        <time>1970-01-01T01:24:11Z</time>
      </trkpt>
      <trkpt lat="42.80716" lon="2.91917">
        <ele>11.8</ele>
        <time>1970-01-01T01:24:12Z</time>
      </trkpt>
      <trkpt lat="42.80714" lon="2.91922">
        <ele>11.8</ele>
        <time>1970-01-01T01:24:13Z</time>
      </trkpt>
      <trkpt lat="42.80712" lon="2.91928">
        <ele>11.8</ele>
        <time>1970-01-01T01:24:14Z</time>
      </trkpt>
      <trkpt lat="42.8071" lon="2.91933">
        <ele>11.8</ele>
        <time>1970-01-01T01:24:15Z</time>
      </trkpt>
      <trkpt lat="42.80708" lon="2.91939">
        <ele>11.8</ele>
        <time>1970-01-01T01:24:16Z</time>
      </trkpt>
      <trkpt lat="42.80706" lon="2.91945">
        <ele>11.8</ele>
        <time>1970-01-01T01:24:17Z</time>
      </trkpt>
      <trkpt lat="42.80704" lon="2.9195">
        <ele>11.8</ele>
        <time>1970-01-01T01:24:18Z</time>
      </trkpt>
      <trkpt lat="42.80702" lon="2.91955">
        <ele>11.8</ele>
        <time>1970-01-01T01:24:19Z</time>
      </trkpt>
      <trkpt lat="42.807" lon="2.9196">
        <ele>11.6</ele>
        <time>1970-01-01T01:24:20Z</time>
      </trkpt>
      <trkpt lat="42.80698" lon="2.91965">
        <ele>11.6</ele>
        <time>1970-01-01T01:24:21Z</time>
      </trkpt>
      <trkpt lat="42.80695" lon="2.9197">
        <ele>11.6</ele>
        <time>1970-01-01T01:24:22Z</time>
      </trkpt>
      <trkpt lat="42.80693" lon="2.91976">
        <ele>11.6</ele>
        <time>1970-01-01T01:24:23Z</time>
      </trkpt>
      <trkpt lat="42.80691" lon="2.91981">
        <ele>11.6</ele>
        <time>1970-01-01T01:24:24Z</time>
      </trkpt>
      <trkpt lat="42.80689" lon="2.91986">
        <ele>11.6</ele>
        <time>1970-01-01T01:24:25Z</time>
      </trkpt>
      <trkpt lat="42.80687" lon="2.91991">
        <ele>11.6</ele>
        <time>1970-01-01T01:24:26Z</time>
      </trkpt>
      <trkpt lat="42.80685" lon="2.91996">
        <ele>11.6</ele>
        <time>1970-01-01T01:24:27Z</time>
      </trkpt>
      <trkpt lat="42.80683" lon="2.92001">
        <ele>11.6</ele>
        <time>1970-01-01T01:24:28Z</time>
      </trkpt>
      <trkpt lat="42.8068" lon="2.92006">
        <ele>11.6</ele>
        <time>1970-01-01T01:24:29Z</time>
      </trkpt>
      <trkpt lat="42.80678" lon="2.92012">
        <ele>11.6</ele>
        <time>1970-01-01T01:24:30Z</time>
      </trkpt>
      <trkpt lat="42.80676" lon="2.92017">
        <ele>11.4</ele>
        <time>1970-01-01T01:24:31Z</time>
      </trkpt>
      <trkpt lat="42.80674" lon="2.92022">
        <ele>11.4</ele>
        <time>1970-01-01T01:24:32Z</time>
      </trkpt>
      <trkpt lat="42.80671" lon="2.92027">
        <ele>11.4</ele>
        <time>1970-01-01T01:24:33Z</time>
      </trkpt>
      <trkpt lat="42.80669" lon="2.92032">
        <ele>11.4</ele>
        <time>1970-01-01T01:24:34Z</time>
      </trkpt>
      <trkpt lat="42.80666" lon="2.92037">
        <ele>11.4</ele>
        <time>1970-01-01T01:24:35Z</time>
      </trkpt>
      <trkpt lat="42.80664" lon="2.92042">
        <ele>11.4</ele>
        <time>1970-01-01T01:24:36Z</time>
      </trkpt>
      <trkpt lat="42.80661" lon="2.92047">
        <ele>11.4</ele>
        <time>1970-01-01T01:24:37Z</time>
      </trkpt>
      <trkpt lat="42.80658" lon="2.92051">
        <ele>11.4</ele>
        <time>1970-01-01T01:24:38Z</time>
      </trkpt>
      <trkpt lat="42.80655" lon="2.92056">
        <ele>11.4</ele>
        <time>1970-01-01T01:24:39Z</time>
      </trkpt>
      <trkpt lat="42.80652" lon="2.92061">
        <ele>11.4</ele>
        <time>1970-01-01T01:24:40Z</time>
      </trkpt>
      <trkpt lat="42.80649" lon="2.92066">
        <ele>11.4</ele>
        <time>1970-01-01T01:24:41Z</time>
      </trkpt>
      <trkpt lat="42.80646" lon="2.9207">
        <ele>11.4</ele>
        <time>1970-01-01T01:24:42Z</time>
      </trkpt>
      <trkpt lat="42.80643" lon="2.92075">
        <ele>11.4</ele>
        <time>1970-01-01T01:24:43Z</time>
      </trkpt>
      <trkpt lat="42.80639" lon="2.92079">
        <ele>11.4</ele>
        <time>1970-01-01T01:24:44Z</time>
      </trkpt>
      <trkpt lat="42.80636" lon="2.92084">
        <ele>11.4</ele>
        <time>1970-01-01T01:24:45Z</time>
      </trkpt>
      <trkpt lat="42.80633" lon="2.92089">
        <ele>11.4</ele>
        <time>1970-01-01T01:24:46Z</time>
      </trkpt>
      <trkpt lat="42.8063" lon="2.92094">
        <ele>11.4</ele>
        <time>1970-01-01T01:24:47Z</time>
      </trkpt>
      <trkpt lat="42.80628" lon="2.921">
        <ele>11.4</ele>
        <time>1970-01-01T01:24:48Z</time>
      </trkpt>
      <trkpt lat="42.80625" lon="2.92105">
        <ele>11.4</ele>
        <time>1970-01-01T01:24:49Z</time>
      </trkpt>
      <trkpt lat="42.80623" lon="2.9211">
        <ele>11.4</ele>
        <time>1970-01-01T01:24:50Z</time>
      </trkpt>
      <trkpt lat="42.80621" lon="2.92116">
        <ele>11.4</ele>
        <time>1970-01-01T01:24:51Z</time>
      </trkpt>
      <trkpt lat="42.80618" lon="2.92121">
        <ele>11.4</ele>
        <time>1970-01-01T01:24:52Z</time>
      </trkpt>
      <trkpt lat="42.80617" lon="2.92126">
        <ele>11.4</ele>
        <time>1970-01-01T01:24:53Z</time>
      </trkpt>
      <trkpt lat="42.80615" lon="2.92131">
        <ele>11.4</ele>
        <time>1970-01-01T01:24:54Z</time>
      </trkpt>
      <trkpt lat="42.80613" lon="2.92137">
        <ele>11.4</ele>
        <time>1970-01-01T01:24:55Z</time>
      </trkpt>
      <trkpt lat="42.80611" lon="2.92142">
        <ele>11.4</ele>
        <time>1970-01-01T01:24:56Z</time>
      </trkpt>
      <trkpt lat="42.80609" lon="2.92148">
        <ele>11.4</ele>
        <time>1970-01-01T01:24:57Z</time>
      </trkpt>
      <trkpt lat="42.80608" lon="2.92153">
        <ele>11.6</ele>
        <time>1970-01-01T01:24:58Z</time>
      </trkpt>
      <trkpt lat="42.80606" lon="2.92159">
        <ele>11.6</ele>
        <time>1970-01-01T01:24:59Z</time>
      </trkpt>
      <trkpt lat="42.80604" lon="2.92165">
        <ele>11.6</ele>
        <time>1970-01-01T01:25:00Z</time>
      </trkpt>
      <trkpt lat="42.80602" lon="2.92171">
        <ele>11.6</ele>
        <time>1970-01-01T01:25:01Z</time>
      </trkpt>
      <trkpt lat="42.806" lon="2.92177">
        <ele>11.6</ele>
        <time>1970-01-01T01:25:02Z</time>
      </trkpt>
      <trkpt lat="42.80598" lon="2.92183">
        <ele>11.6</ele>
        <time>1970-01-01T01:25:03Z</time>
      </trkpt>
      <trkpt lat="42.80597" lon="2.92188">
        <ele>11.6</ele>
        <time>1970-01-01T01:25:04Z</time>
      </trkpt>
      <trkpt lat="42.80594" lon="2.92194">
        <ele>11.6</ele>
        <time>1970-01-01T01:25:05Z</time>
      </trkpt>
      <trkpt lat="42.80592" lon="2.922">
        <ele>11.6</ele>
        <time>1970-01-01T01:25:06Z</time>
      </trkpt>
      <trkpt lat="42.8059" lon="2.92205">
        <ele>11.6</ele>
        <time>1970-01-01T01:25:07Z</time>
      </trkpt>
      <trkpt lat="42.80588" lon="2.92211">
        <ele>11.6</ele>
        <time>1970-01-01T01:25:08Z</time>
      </trkpt>
      <trkpt lat="42.80586" lon="2.92217">
        <ele>11.6</ele>
        <time>1970-01-01T01:25:09Z</time>
      </trkpt>
      <trkpt lat="42.80584" lon="2.92223">
        <ele>11.6</ele>
        <time>1970-01-01T01:25:10Z</time>
      </trkpt>
      <trkpt lat="42.80581" lon="2.92228">
        <ele>11.6</ele>
        <time>1970-01-01T01:25:11Z</time>
      </trkpt>
      <trkpt lat="42.80579" lon="2.92233">
        <ele>11.4</ele>
        <time>1970-01-01T01:25:12Z</time>
      </trkpt>
      <trkpt lat="42.80576" lon="2.92238">
        <ele>11.4</ele>
        <time>1970-01-01T01:25:13Z</time>
      </trkpt>
      <trkpt lat="42.80574" lon="2.92243">
        <ele>11.4</ele>
        <time>1970-01-01T01:25:14Z</time>
      </trkpt>
      <trkpt lat="42.80571" lon="2.92248">
        <ele>11.4</ele>
        <time>1970-01-01T01:25:15Z</time>
      </trkpt>
      <trkpt lat="42.80569" lon="2.92253">
        <ele>11.4</ele>
        <time>1970-01-01T01:25:16Z</time>
      </trkpt>
      <trkpt lat="42.80566" lon="2.92258">
        <ele>11.4</ele>
        <time>1970-01-01T01:25:17Z</time>
      </trkpt>
      <trkpt lat="42.80564" lon="2.92264">
        <ele>11.4</ele>
        <time>1970-01-01T01:25:18Z</time>
      </trkpt>
      <trkpt lat="42.80561" lon="2.92269">
        <ele>11.4</ele>
        <time>1970-01-01T01:25:19Z</time>
      </trkpt>
      <trkpt lat="42.80559" lon="2.92274">
        <ele>11.4</ele>
        <time>1970-01-01T01:25:20Z</time>
      </trkpt>
      <trkpt lat="42.80556" lon="2.92279">
        <ele>11.4</ele>
        <time>1970-01-01T01:25:21Z</time>
      </trkpt>
      <trkpt lat="42.80554" lon="2.92284">
        <ele>11.6</ele>
        <time>1970-01-01T01:25:22Z</time>
      </trkpt>
      <trkpt lat="42.80551" lon="2.92289">
        <ele>11.6</ele>
        <time>1970-01-01T01:25:23Z</time>
      </trkpt>
      <trkpt lat="42.80548" lon="2.92295">
        <ele>11.6</ele>
        <time>1970-01-01T01:25:24Z</time>
      </trkpt>
      <trkpt lat="42.80546" lon="2.923">
        <ele>11.6</ele>
        <time>1970-01-01T01:25:25Z</time>
      </trkpt>
      <trkpt lat="42.80544" lon="2.92305">
        <ele>11.6</ele>
        <time>1970-01-01T01:25:26Z</time>
      </trkpt>
      <trkpt lat="42.80542" lon="2.9231">
        <ele>11.6</ele>
        <time>1970-01-01T01:25:27Z</time>
      </trkpt>
      <trkpt lat="42.8054" lon="2.92315">
        <ele>11.6</ele>
        <time>1970-01-01T01:25:28Z</time>
      </trkpt>
      <trkpt lat="42.80538" lon="2.9232">
        <ele>11.6</ele>
        <time>1970-01-01T01:25:29Z</time>
      </trkpt>
      <trkpt lat="42.80536" lon="2.92325">
        <ele>11.6</ele>
        <time>1970-01-01T01:25:30Z</time>
      </trkpt>
      <trkpt lat="42.80534" lon="2.9233">
        <ele>11.6</ele>
        <time>1970-01-01T01:25:31Z</time>
      </trkpt>
      <trkpt lat="42.80531" lon="2.92335">
        <ele>11.6</ele>
        <time>1970-01-01T01:25:32Z</time>
      </trkpt>
      <trkpt lat="42.80529" lon="2.9234">
        <ele>11.6</ele>
        <time>1970-01-01T01:25:33Z</time>
      </trkpt>
      <trkpt lat="42.80527" lon="2.92345">
        <ele>11.6</ele>
        <time>1970-01-01T01:25:34Z</time>
      </trkpt>
      <trkpt lat="42.80525" lon="2.9235">
        <ele>11.6</ele>
        <time>1970-01-01T01:25:35Z</time>
      </trkpt>
      <trkpt lat="42.80522" lon="2.92355">
        <ele>11.6</ele>
        <time>1970-01-01T01:25:36Z</time>
      </trkpt>
      <trkpt lat="42.8052" lon="2.9236">
        <ele>11.6</ele>
        <time>1970-01-01T01:25:37Z</time>
      </trkpt>
      <trkpt lat="42.80518" lon="2.92365">
        <ele>11.6</ele>
        <time>1970-01-01T01:25:38Z</time>
      </trkpt>
      <trkpt lat="42.80515" lon="2.92371">
        <ele>11.6</ele>
        <time>1970-01-01T01:25:39Z</time>
      </trkpt>
      <trkpt lat="42.80513" lon="2.92376">
        <ele>11.6</ele>
        <time>1970-01-01T01:25:40Z</time>
      </trkpt>
      <trkpt lat="42.80511" lon="2.92382">
        <ele>11.6</ele>
        <time>1970-01-01T01:25:41Z</time>
      </trkpt>
      <trkpt lat="42.80508" lon="2.92388">
        <ele>11.6</ele>
        <time>1970-01-01T01:25:42Z</time>
      </trkpt>
      <trkpt lat="42.80506" lon="2.92393">
        <ele>11.6</ele>
        <time>1970-01-01T01:25:43Z</time>
      </trkpt>
      <trkpt lat="42.80504" lon="2.92399">
        <ele>11.6</ele>
        <time>1970-01-01T01:25:44Z</time>
      </trkpt>
      <trkpt lat="42.80502" lon="2.92404">
        <ele>11.6</ele>
        <time>1970-01-01T01:25:45Z</time>
      </trkpt>
      <trkpt lat="42.805" lon="2.92409">
        <ele>11.6</ele>
        <time>1970-01-01T01:25:46Z</time>
      </trkpt>
      <trkpt lat="42.80498" lon="2.92414">
        <ele>11.6</ele>
        <time>1970-01-01T01:25:47Z</time>
      </trkpt>
      <trkpt lat="42.80495" lon="2.9242">
        <ele>11.6</ele>
        <time>1970-01-01T01:25:48Z</time>
      </trkpt>
      <trkpt lat="42.80493" lon="2.92425">
        <ele>11.8</ele>
        <time>1970-01-01T01:25:49Z</time>
      </trkpt>
      <trkpt lat="42.80491" lon="2.92431">
        <ele>11.8</ele>
        <time>1970-01-01T01:25:50Z</time>
      </trkpt>
      <trkpt lat="42.80489" lon="2.92436">
        <ele>11.8</ele>
        <time>1970-01-01T01:25:51Z</time>
      </trkpt>
      <trkpt lat="42.80487" lon="2.92441">
        <ele>11.8</ele>
        <time>1970-01-01T01:25:52Z</time>
      </trkpt>
      <trkpt lat="42.80485" lon="2.92447">
        <ele>11.8</ele>
        <time>1970-01-01T01:25:53Z</time>
      </trkpt>
      <trkpt lat="42.80483" lon="2.92452">
        <ele>11.8</ele>
        <time>1970-01-01T01:25:54Z</time>
      </trkpt>
      <trkpt lat="42.8048" lon="2.92458">
        <ele>11.8</ele>
        <time>1970-01-01T01:25:55Z</time>
      </trkpt>
      <trkpt lat="42.80478" lon="2.92463">
        <ele>11.8</ele>
        <time>1970-01-01T01:25:56Z</time>
      </trkpt>
      <trkpt lat="42.80476" lon="2.92469">
        <ele>11.8</ele>
        <time>1970-01-01T01:25:57Z</time>
      </trkpt>
      <trkpt lat="42.80474" lon="2.92474">
        <ele>11.8</ele>
        <time>1970-01-01T01:25:58Z</time>
      </trkpt>
      <trkpt lat="42.80471" lon="2.92479">
        <ele>11.8</ele>
        <time>1970-01-01T01:25:59Z</time>
      </trkpt>
      <trkpt lat="42.80469" lon="2.92485">
        <ele>11.8</ele>
        <time>1970-01-01T01:26:00Z</time>
      </trkpt>
      <trkpt lat="42.80467" lon="2.9249">
        <ele>11.8</ele>
        <time>1970-01-01T01:26:01Z</time>
      </trkpt>
      <trkpt lat="42.80464" lon="2.92496">
        <ele>11.8</ele>
        <time>1970-01-01T01:26:02Z</time>
      </trkpt>
      <trkpt lat="42.80462" lon="2.92502">
        <ele>11.8</ele>
        <time>1970-01-01T01:26:03Z</time>
      </trkpt>
      <trkpt lat="42.8046" lon="2.92508">
        <ele>11.8</ele>
        <time>1970-01-01T01:26:04Z</time>
      </trkpt>
      <trkpt lat="42.80457" lon="2.92513">
        <ele>11.8</ele>
        <time>1970-01-01T01:26:05Z</time>
      </trkpt>
      <trkpt lat="42.80455" lon="2.92519">
        <ele>11.8</ele>
        <time>1970-01-01T01:26:06Z</time>
      </trkpt>
      <trkpt lat="42.80453" lon="2.92525">
        <ele>11.8</ele>
        <time>1970-01-01T01:26:07Z</time>
      </trkpt>
      <trkpt lat="42.80451" lon="2.92531">
        <ele>11.8</ele>
        <time>1970-01-01T01:26:08Z</time>
      </trkpt>
      <trkpt lat="42.80448" lon="2.92537">
        <ele>11.8</ele>
        <time>1970-01-01T01:26:09Z</time>
      </trkpt>
      <trkpt lat="42.80446" lon="2.92543">
        <ele>11.8</ele>
        <time>1970-01-01T01:26:10Z</time>
      </trkpt>
      <trkpt lat="42.80444" lon="2.9255">
        <ele>11.8</ele>
        <time>1970-01-01T01:26:11Z</time>
      </trkpt>
      <trkpt lat="42.80443" lon="2.92556">
        <ele>11.8</ele>
        <time>1970-01-01T01:26:12Z</time>
      </trkpt>
      <trkpt lat="42.80441" lon="2.92563">
        <ele>11.8</ele>
        <time>1970-01-01T01:26:13Z</time>
      </trkpt>
      <trkpt lat="42.80439" lon="2.92569">
        <ele>11.6</ele>
        <time>1970-01-01T01:26:14Z</time>
      </trkpt>
      <trkpt lat="42.80438" lon="2.92575">
        <ele>11.6</ele>
        <time>1970-01-01T01:26:15Z</time>
      </trkpt>
      <trkpt lat="42.80436" lon="2.92582">
        <ele>11.6</ele>
        <time>1970-01-01T01:26:16Z</time>
      </trkpt>
      <trkpt lat="42.80434" lon="2.92589">
        <ele>11.6</ele>
        <time>1970-01-01T01:26:17Z</time>
      </trkpt>
      <trkpt lat="42.80432" lon="2.92595">
        <ele>11.6</ele>
        <time>1970-01-01T01:26:18Z</time>
      </trkpt>
      <trkpt lat="42.80429" lon="2.92601">
        <ele>11.6</ele>
        <time>1970-01-01T01:26:19Z</time>
      </trkpt>
      <trkpt lat="42.80427" lon="2.92608">
        <ele>11.6</ele>
        <time>1970-01-01T01:26:20Z</time>
      </trkpt>
      <trkpt lat="42.80424" lon="2.92614">
        <ele>11.6</ele>
        <time>1970-01-01T01:26:21Z</time>
      </trkpt>
      <trkpt lat="42.80421" lon="2.9262">
        <ele>11.4</ele>
        <time>1970-01-01T01:26:22Z</time>
      </trkpt>
      <trkpt lat="42.80419" lon="2.92626">
        <ele>11.4</ele>
        <time>1970-01-01T01:26:23Z</time>
      </trkpt>
      <trkpt lat="42.80416" lon="2.92631">
        <ele>11.4</ele>
        <time>1970-01-01T01:26:24Z</time>
      </trkpt>
      <trkpt lat="42.80413" lon="2.92637">
        <ele>11.4</ele>
        <time>1970-01-01T01:26:25Z</time>
      </trkpt>
      <trkpt lat="42.8041" lon="2.92643">
        <ele>11.4</ele>
        <time>1970-01-01T01:26:26Z</time>
      </trkpt>
      <trkpt lat="42.80407" lon="2.92648">
        <ele>11.4</ele>
        <time>1970-01-01T01:26:27Z</time>
      </trkpt>
      <trkpt lat="42.80404" lon="2.92654">
        <ele>11.2</ele>
        <time>1970-01-01T01:26:28Z</time>
      </trkpt>
      <trkpt lat="42.80401" lon="2.92659">
        <ele>11.2</ele>
        <time>1970-01-01T01:26:29Z</time>
      </trkpt>
      <trkpt lat="42.80398" lon="2.92665">
        <ele>11.2</ele>
        <time>1970-01-01T01:26:30Z</time>
      </trkpt>
      <trkpt lat="42.80395" lon="2.9267">
        <ele>11.2</ele>
        <time>1970-01-01T01:26:31Z</time>
      </trkpt>
      <trkpt lat="42.80393" lon="2.92675">
        <ele>11.2</ele>
        <time>1970-01-01T01:26:32Z</time>
      </trkpt>
      <trkpt lat="42.8039" lon="2.9268">
        <ele>11.2</ele>
        <time>1970-01-01T01:26:33Z</time>
      </trkpt>
      <trkpt lat="42.80387" lon="2.92686">
        <ele>11</ele>
        <time>1970-01-01T01:26:34Z</time>
      </trkpt>
      <trkpt lat="42.80384" lon="2.92691">
        <ele>11</ele>
        <time>1970-01-01T01:26:35Z</time>
      </trkpt>
      <trkpt lat="42.80381" lon="2.92697">
        <ele>11</ele>
        <time>1970-01-01T01:26:36Z</time>
      </trkpt>
      <trkpt lat="42.80378" lon="2.92702">
        <ele>11.2</ele>
        <time>1970-01-01T01:26:37Z</time>
      </trkpt>
      <trkpt lat="42.80375" lon="2.92708">
        <ele>11.2</ele>
        <time>1970-01-01T01:26:38Z</time>
      </trkpt>
      <trkpt lat="42.80372" lon="2.92714">
        <ele>11.2</ele>
        <time>1970-01-01T01:26:39Z</time>
      </trkpt>
      <trkpt lat="42.80369" lon="2.92719">
        <ele>11.2</ele>
        <time>1970-01-01T01:26:40Z</time>
      </trkpt>
      <trkpt lat="42.80367" lon="2.92725">
        <ele>11.2</ele>
        <time>1970-01-01T01:26:41Z</time>
      </trkpt>
      <trkpt lat="42.80364" lon="2.92731">
        <ele>11.2</ele>
        <time>1970-01-01T01:26:42Z</time>
      </trkpt>
      <trkpt lat="42.80361" lon="2.92736">
        <ele>11.2</ele>
        <time>1970-01-01T01:26:43Z</time>
      </trkpt>
      <trkpt lat="42.80358" lon="2.92742">
        <ele>11.2</ele>
        <time>1970-01-01T01:26:44Z</time>
      </trkpt>
      <trkpt lat="42.80355" lon="2.92748">
        <ele>11.2</ele>
        <time>1970-01-01T01:26:45Z</time>
      </trkpt>
      <trkpt lat="42.80352" lon="2.92753">
        <ele>11.4</ele>
        <time>1970-01-01T01:26:46Z</time>
      </trkpt>
      <trkpt lat="42.80349" lon="2.92758">
        <ele>11.4</ele>
        <time>1970-01-01T01:26:47Z</time>
      </trkpt>
      <trkpt lat="42.80347" lon="2.92763">
        <ele>11.4</ele>
        <time>1970-01-01T01:26:48Z</time>
      </trkpt>
      <trkpt lat="42.80344" lon="2.92768">
        <ele>11.4</ele>
        <time>1970-01-01T01:26:49Z</time>
      </trkpt>
      <trkpt lat="42.80342" lon="2.92774">
        <ele>11.2</ele>
        <time>1970-01-01T01:26:50Z</time>
      </trkpt>
      <trkpt lat="42.80339" lon="2.92779">
        <ele>11.2</ele>
        <time>1970-01-01T01:26:51Z</time>
      </trkpt>
      <trkpt lat="42.80336" lon="2.92785">
        <ele>11.2</ele>
        <time>1970-01-01T01:26:52Z</time>
      </trkpt>
      <trkpt lat="42.80334" lon="2.9279">
        <ele>11.2</ele>
        <time>1970-01-01T01:26:53Z</time>
      </trkpt>
      <trkpt lat="42.80332" lon="2.92796">
        <ele>11.2</ele>
        <time>1970-01-01T01:26:54Z</time>
      </trkpt>
      <trkpt lat="42.80329" lon="2.92802">
        <ele>11</ele>
        <time>1970-01-01T01:26:55Z</time>
      </trkpt>
      <trkpt lat="42.80327" lon="2.92807">
        <ele>11</ele>
        <time>1970-01-01T01:26:56Z</time>
      </trkpt>
      <trkpt lat="42.80325" lon="2.92813">
        <ele>11</ele>
        <time>1970-01-01T01:26:57Z</time>
      </trkpt>
      <trkpt lat="42.80323" lon="2.9282">
        <ele>10.8</ele>
        <time>1970-01-01T01:26:58Z</time>
      </trkpt>
      <trkpt lat="42.80321" lon="2.92826">
        <ele>10.8</ele>
        <time>1970-01-01T01:26:59Z</time>
      </trkpt>
      <trkpt lat="42.80319" lon="2.92831">
        <ele>10.8</ele>
        <time>1970-01-01T01:27:00Z</time>
      </trkpt>
      <trkpt lat="42.80316" lon="2.92837">
        <ele>10.8</ele>
        <time>1970-01-01T01:27:01Z</time>
      </trkpt>
      <trkpt lat="42.80314" lon="2.92843">
        <ele>10.8</ele>
        <time>1970-01-01T01:27:02Z</time>
      </trkpt>
      <trkpt lat="42.80311" lon="2.92848">
        <ele>10.6</ele>
        <time>1970-01-01T01:27:03Z</time>
      </trkpt>
      <trkpt lat="42.80308" lon="2.92854">
        <ele>10.6</ele>
        <time>1970-01-01T01:27:04Z</time>
      </trkpt>
      <trkpt lat="42.80305" lon="2.92859">
        <ele>10.6</ele>
        <time>1970-01-01T01:27:05Z</time>
      </trkpt>
      <trkpt lat="42.80303" lon="2.92864">
        <ele>10.6</ele>
        <time>1970-01-01T01:27:06Z</time>
      </trkpt>
      <trkpt lat="42.803" lon="2.92869">
        <ele>10.8</ele>
        <time>1970-01-01T01:27:07Z</time>
      </trkpt>
      <trkpt lat="42.80297" lon="2.92874">
        <ele>10.8</ele>
        <time>1970-01-01T01:27:08Z</time>
      </trkpt>
      <trkpt lat="42.80294" lon="2.92879">
        <ele>10.8</ele>
        <time>1970-01-01T01:27:09Z</time>
      </trkpt>
      <trkpt lat="42.80292" lon="2.92884">
        <ele>10.8</ele>
        <time>1970-01-01T01:27:10Z</time>
      </trkpt>
      <trkpt lat="42.80289" lon="2.9289">
        <ele>10.8</ele>
        <time>1970-01-01T01:27:11Z</time>
      </trkpt>
      <trkpt lat="42.80286" lon="2.92895">
        <ele>10.8</ele>
        <time>1970-01-01T01:27:12Z</time>
      </trkpt>
      <trkpt lat="42.80284" lon="2.92901">
        <ele>10.8</ele>
        <time>1970-01-01T01:27:13Z</time>
      </trkpt>
      <trkpt lat="42.80281" lon="2.92906">
        <ele>10.8</ele>
        <time>1970-01-01T01:27:14Z</time>
      </trkpt>
      <trkpt lat="42.80279" lon="2.92911">
        <ele>10.8</ele>
        <time>1970-01-01T01:27:15Z</time>
      </trkpt>
      <trkpt lat="42.80276" lon="2.92917">
        <ele>10.8</ele>
        <time>1970-01-01T01:27:16Z</time>
      </trkpt>
      <trkpt lat="42.80274" lon="2.92922">
        <ele>10.8</ele>
        <time>1970-01-01T01:27:17Z</time>
      </trkpt>
      <trkpt lat="42.80272" lon="2.92927">
        <ele>10.8</ele>
        <time>1970-01-01T01:27:18Z</time>
      </trkpt>
      <trkpt lat="42.8027" lon="2.92933">
        <ele>10.8</ele>
        <time>1970-01-01T01:27:19Z</time>
      </trkpt>
      <trkpt lat="42.80267" lon="2.92938">
        <ele>10.8</ele>
        <time>1970-01-01T01:27:20Z</time>
      </trkpt>
      <trkpt lat="42.80265" lon="2.92943">
        <ele>10.8</ele>
        <time>1970-01-01T01:27:21Z</time>
      </trkpt>
      <trkpt lat="42.80263" lon="2.92949">
        <ele>10.8</ele>
        <time>1970-01-01T01:27:22Z</time>
      </trkpt>
      <trkpt lat="42.80261" lon="2.92955">
        <ele>10.8</ele>
        <time>1970-01-01T01:27:23Z</time>
      </trkpt>
      <trkpt lat="42.80259" lon="2.92962">
        <ele>10.8</ele>
        <time>1970-01-01T01:27:24Z</time>
      </trkpt>
      <trkpt lat="42.80257" lon="2.92968">
        <ele>10.6</ele>
        <time>1970-01-01T01:27:25Z</time>
      </trkpt>
      <trkpt lat="42.80256" lon="2.92974">
        <ele>10.6</ele>
        <time>1970-01-01T01:27:26Z</time>
      </trkpt>
      <trkpt lat="42.80254" lon="2.9298">
        <ele>10.6</ele>
        <time>1970-01-01T01:27:27Z</time>
      </trkpt>
      <trkpt lat="42.80253" lon="2.92986">
        <ele>10.6</ele>
        <time>1970-01-01T01:27:28Z</time>
      </trkpt>
      <trkpt lat="42.80251" lon="2.92992">
        <ele>10.6</ele>
        <time>1970-01-01T01:27:29Z</time>
      </trkpt>
      <trkpt lat="42.8025" lon="2.92998">
        <ele>10.6</ele>
        <time>1970-01-01T01:27:30Z</time>
      </trkpt>
      <trkpt lat="42.80248" lon="2.93004">
        <ele>10.6</ele>
        <time>1970-01-01T01:27:31Z</time>
      </trkpt>
      <trkpt lat="42.80247" lon="2.93011">
        <ele>10.6</ele>
        <time>1970-01-01T01:27:32Z</time>
      </trkpt>
      <trkpt lat="42.80246" lon="2.93017">
        <ele>10.6</ele>
        <time>1970-01-01T01:27:33Z</time>
      </trkpt>
      <trkpt lat="42.80245" lon="2.93023">
        <ele>10.6</ele>
        <time>1970-01-01T01:27:34Z</time>
      </trkpt>
      <trkpt lat="42.80243" lon="2.93029">
        <ele>10.6</ele>
        <time>1970-01-01T01:27:35Z</time>
      </trkpt>
      <trkpt lat="42.80243" lon="2.93035">
        <ele>10.6</ele>
        <time>1970-01-01T01:27:36Z</time>
      </trkpt>
      <trkpt lat="42.80242" lon="2.93041">
        <ele>10.6</ele>
        <time>1970-01-01T01:27:37Z</time>
      </trkpt>
      <trkpt lat="42.80241" lon="2.93047">
        <ele>10.6</ele>
        <time>1970-01-01T01:27:38Z</time>
      </trkpt>
      <trkpt lat="42.80241" lon="2.93052">
        <ele>10.6</ele>
        <time>1970-01-01T01:27:39Z</time>
      </trkpt>
      <trkpt lat="42.80239" lon="2.93057">
        <ele>10.6</ele>
        <time>1970-01-01T01:27:40Z</time>
      </trkpt>
      <trkpt lat="42.80238" lon="2.93062">
        <ele>10.6</ele>
        <time>1970-01-01T01:27:41Z</time>
      </trkpt>
      <trkpt lat="42.80235" lon="2.93065">
        <ele>10.6</ele>
        <time>1970-01-01T01:27:42Z</time>
      </trkpt>
      <trkpt lat="42.80232" lon="2.93067">
        <ele>10.4</ele>
        <time>1970-01-01T01:27:43Z</time>
      </trkpt>
      <trkpt lat="42.80228" lon="2.93068">
        <ele>10.4</ele>
        <time>1970-01-01T01:27:44Z</time>
      </trkpt>
      <trkpt lat="42.80224" lon="2.93069">
        <ele>10.4</ele>
        <time>1970-01-01T01:27:45Z</time>
      </trkpt>
      <trkpt lat="42.8022" lon="2.93069">
        <ele>10.2</ele>
        <time>1970-01-01T01:27:46Z</time>
      </trkpt>
      <trkpt lat="42.80216" lon="2.9307">
        <ele>10.2</ele>
        <time>1970-01-01T01:27:47Z</time>
      </trkpt>
      <trkpt lat="42.80212" lon="2.93071">
        <ele>10.2</ele>
        <time>1970-01-01T01:27:48Z</time>
      </trkpt>
      <trkpt lat="42.80207" lon="2.93073">
        <ele>10</ele>
        <time>1970-01-01T01:27:49Z</time>
      </trkpt>
      <trkpt lat="42.80202" lon="2.93074">
        <ele>10</ele>
        <time>1970-01-01T01:27:50Z</time>
      </trkpt>
      <trkpt lat="42.80197" lon="2.93076">
        <ele>10</ele>
        <time>1970-01-01T01:27:51Z</time>
      </trkpt>
      <trkpt lat="42.80193" lon="2.93077">
        <ele>9.8</ele>
        <time>1970-01-01T01:27:52Z</time>
      </trkpt>
      <trkpt lat="42.80188" lon="2.93078">
        <ele>9.8</ele>
        <time>1970-01-01T01:27:53Z</time>
      </trkpt>
      <trkpt lat="42.80183" lon="2.93079">
        <ele>9.8</ele>
        <time>1970-01-01T01:27:54Z</time>
      </trkpt>
      <trkpt lat="42.80178" lon="2.9308">
        <ele>9.8</ele>
        <time>1970-01-01T01:27:55Z</time>
      </trkpt>
      <trkpt lat="42.80172" lon="2.93082">
        <ele>9.8</ele>
        <time>1970-01-01T01:27:56Z</time>
      </trkpt>
      <trkpt lat="42.80167" lon="2.93083">
        <ele>9.8</ele>
        <time>1970-01-01T01:27:57Z</time>
      </trkpt>
      <trkpt lat="42.80162" lon="2.93084">
        <ele>10</ele>
        <time>1970-01-01T01:27:58Z</time>
      </trkpt>
      <trkpt lat="42.80157" lon="2.93086">
        <ele>10</ele>
        <time>1970-01-01T01:27:59Z</time>
      </trkpt>
      <trkpt lat="42.80152" lon="2.93087">
        <ele>10</ele>
        <time>1970-01-01T01:28:00Z</time>
      </trkpt>
      <trkpt lat="42.80147" lon="2.93089">
        <ele>10</ele>
        <time>1970-01-01T01:28:01Z</time>
      </trkpt>
      <trkpt lat="42.80142" lon="2.9309">
        <ele>10</ele>
        <time>1970-01-01T01:28:02Z</time>
      </trkpt>
      <trkpt lat="42.80137" lon="2.93091">
        <ele>10</ele>
        <time>1970-01-01T01:28:03Z</time>
      </trkpt>
      <trkpt lat="42.80132" lon="2.93092">
        <ele>10</ele>
        <time>1970-01-01T01:28:04Z</time>
      </trkpt>
      <trkpt lat="42.80128" lon="2.93093">
        <ele>10</ele>
        <time>1970-01-01T01:28:05Z</time>
      </trkpt>
      <trkpt lat="42.80123" lon="2.93094">
        <ele>10</ele>
        <time>1970-01-01T01:28:06Z</time>
      </trkpt>
      <trkpt lat="42.80118" lon="2.93096">
        <ele>10</ele>
        <time>1970-01-01T01:28:07Z</time>
      </trkpt>
      <trkpt lat="42.80113" lon="2.93097">
        <ele>10</ele>
        <time>1970-01-01T01:28:08Z</time>
      </trkpt>
      <trkpt lat="42.80107" lon="2.93099">
        <ele>10</ele>
        <time>1970-01-01T01:28:09Z</time>
      </trkpt>
      <trkpt lat="42.80102" lon="2.931">
        <ele>10.2</ele>
        <time>1970-01-01T01:28:10Z</time>
      </trkpt>
      <trkpt lat="42.80098" lon="2.93101">
        <ele>10.2</ele>
        <time>1970-01-01T01:28:11Z</time>
      </trkpt>
      <trkpt lat="42.80093" lon="2.93103">
        <ele>10.2</ele>
        <time>1970-01-01T01:28:12Z</time>
      </trkpt>
      <trkpt lat="42.80088" lon="2.93104">
        <ele>10.2</ele>
        <time>1970-01-01T01:28:13Z</time>
      </trkpt>
      <trkpt lat="42.80082" lon="2.93105">
        <ele>10.2</ele>
        <time>1970-01-01T01:28:14Z</time>
      </trkpt>
      <trkpt lat="42.80077" lon="2.93107">
        <ele>10.4</ele>
        <time>1970-01-01T01:28:15Z</time>
      </trkpt>
      <trkpt lat="42.80072" lon="2.93108">
        <ele>10.4</ele>
        <time>1970-01-01T01:28:16Z</time>
      </trkpt>
      <trkpt lat="42.80067" lon="2.93109">
        <ele>10.4</ele>
        <time>1970-01-01T01:28:17Z</time>
      </trkpt>
      <trkpt lat="42.80062" lon="2.93111">
        <ele>10.4</ele>
        <time>1970-01-01T01:28:18Z</time>
      </trkpt>
      <trkpt lat="42.80056" lon="2.93112">
        <ele>10.4</ele>
        <time>1970-01-01T01:28:19Z</time>
      </trkpt>
      <trkpt lat="42.80051" lon="2.93113">
        <ele>10.4</ele>
        <time>1970-01-01T01:28:20Z</time>
      </trkpt>
      <trkpt lat="42.80046" lon="2.93115">
        <ele>10.4</ele>
        <time>1970-01-01T01:28:21Z</time>
      </trkpt>
      <trkpt lat="42.80041" lon="2.93116">
        <ele>10.4</ele>
        <time>1970-01-01T01:28:22Z</time>
      </trkpt>
      <trkpt lat="42.80037" lon="2.93117">
        <ele>10.4</ele>
        <time>1970-01-01T01:28:23Z</time>
      </trkpt>
      <trkpt lat="42.80032" lon="2.93118">
        <ele>10.4</ele>
        <time>1970-01-01T01:28:24Z</time>
      </trkpt>
      <trkpt lat="42.80028" lon="2.9312">
        <ele>10.4</ele>
        <time>1970-01-01T01:28:25Z</time>
      </trkpt>
      <trkpt lat="42.80023" lon="2.93121">
        <ele>10.4</ele>
        <time>1970-01-01T01:28:26Z</time>
      </trkpt>
      <trkpt lat="42.80018" lon="2.93122">
        <ele>10.6</ele>
        <time>1970-01-01T01:28:27Z</time>
      </trkpt>
      <trkpt lat="42.80014" lon="2.93124">
        <ele>10.6</ele>
        <time>1970-01-01T01:28:28Z</time>
      </trkpt>
      <trkpt lat="42.80009" lon="2.93125">
        <ele>10.6</ele>
        <time>1970-01-01T01:28:29Z</time>
      </trkpt>
      <trkpt lat="42.80005" lon="2.93126">
        <ele>10.6</ele>
        <time>1970-01-01T01:28:30Z</time>
      </trkpt>
      <trkpt lat="42.80001" lon="2.93127">
        <ele>10.6</ele>
        <time>1970-01-01T01:28:31Z</time>
      </trkpt>
      <trkpt lat="42.79997" lon="2.93128">
        <ele>10.6</ele>
        <time>1970-01-01T01:28:32Z</time>
      </trkpt>
      <trkpt lat="42.79992" lon="2.9313">
        <ele>10.6</ele>
        <time>1970-01-01T01:28:33Z</time>
      </trkpt>
      <trkpt lat="42.79988" lon="2.93131">
        <ele>10.8</ele>
        <time>1970-01-01T01:28:34Z</time>
      </trkpt>
      <trkpt lat="42.79984" lon="2.93131">
        <ele>10.8</ele>
        <time>1970-01-01T01:28:35Z</time>
      </trkpt>
      <trkpt lat="42.79981" lon="2.93132">
        <ele>10.8</ele>
        <time>1970-01-01T01:28:36Z</time>
      </trkpt>
      <trkpt lat="42.79977" lon="2.93133">
        <ele>10.8</ele>
        <time>1970-01-01T01:28:37Z</time>
      </trkpt>
      <trkpt lat="42.79974" lon="2.93134">
        <ele>10.8</ele>
        <time>1970-01-01T01:28:38Z</time>
      </trkpt>
      <trkpt lat="42.79971" lon="2.93136">
        <ele>10.8</ele>
        <time>1970-01-01T01:28:39Z</time>
      </trkpt>
      <trkpt lat="42.79969" lon="2.9314">
        <ele>10.8</ele>
        <time>1970-01-01T01:28:40Z</time>
      </trkpt>
      <trkpt lat="42.79968" lon="2.93141">
        <ele>10.8</ele>
        <time>1970-01-01T01:28:41Z</time>
      </trkpt>
      <trkpt lat="42.79967" lon="2.93145">
        <ele>10.8</ele>
        <time>1970-01-01T01:28:42Z</time>
      </trkpt>
      <trkpt lat="42.79966" lon="2.93149">
        <ele>10.8</ele>
        <time>1970-01-01T01:28:43Z</time>
      </trkpt>
      <trkpt lat="42.79965" lon="2.93153">
        <ele>10.6</ele>
        <time>1970-01-01T01:28:44Z</time>
      </trkpt>
      <trkpt lat="42.79964" lon="2.93157">
        <ele>10.6</ele>
        <time>1970-01-01T01:28:45Z</time>
      </trkpt>
      <trkpt lat="42.79963" lon="2.93162">
        <ele>10.6</ele>
        <time>1970-01-01T01:28:46Z</time>
      </trkpt>
      <trkpt lat="42.79962" lon="2.93167">
        <ele>10.6</ele>
        <time>1970-01-01T01:28:47Z</time>
      </trkpt>
      <trkpt lat="42.79961" lon="2.93172">
        <ele>10.6</ele>
        <time>1970-01-01T01:28:48Z</time>
      </trkpt>
      <trkpt lat="42.7996" lon="2.93177">
        <ele>10.6</ele>
        <time>1970-01-01T01:28:49Z</time>
      </trkpt>
      <trkpt lat="42.79959" lon="2.93182">
        <ele>10.6</ele>
        <time>1970-01-01T01:28:50Z</time>
      </trkpt>
      <trkpt lat="42.79958" lon="2.93188">
        <ele>10.6</ele>
        <time>1970-01-01T01:28:51Z</time>
      </trkpt>
      <trkpt lat="42.79958" lon="2.93193">
        <ele>10.6</ele>
        <time>1970-01-01T01:28:52Z</time>
      </trkpt>
      <trkpt lat="42.79957" lon="2.93199">
        <ele>10.4</ele>
        <time>1970-01-01T01:28:53Z</time>
      </trkpt>
      <trkpt lat="42.79956" lon="2.93204">
        <ele>10.4</ele>
        <time>1970-01-01T01:28:54Z</time>
      </trkpt>
      <trkpt lat="42.79955" lon="2.9321">
        <ele>10.4</ele>
        <time>1970-01-01T01:28:55Z</time>
      </trkpt>
      <trkpt lat="42.79954" lon="2.93215">
        <ele>10.4</ele>
        <time>1970-01-01T01:28:56Z</time>
      </trkpt>
      <trkpt lat="42.79953" lon="2.93221">
        <ele>10.4</ele>
        <time>1970-01-01T01:28:57Z</time>
      </trkpt>
      <trkpt lat="42.79952" lon="2.93227">
        <ele>10.4</ele>
        <time>1970-01-01T01:28:58Z</time>
      </trkpt>
      <trkpt lat="42.79951" lon="2.93232">
        <ele>10.4</ele>
        <time>1970-01-01T01:28:59Z</time>
      </trkpt>
      <trkpt lat="42.7995" lon="2.93238">
        <ele>10.2</ele>
        <time>1970-01-01T01:29:00Z</time>
      </trkpt>
      <trkpt lat="42.79949" lon="2.93243">
        <ele>10.2</ele>
        <time>1970-01-01T01:29:01Z</time>
      </trkpt>
      <trkpt lat="42.79948" lon="2.93248">
        <ele>10.2</ele>
        <time>1970-01-01T01:29:02Z</time>
      </trkpt>
      <trkpt lat="42.79947" lon="2.93254">
        <ele>10.2</ele>
        <time>1970-01-01T01:29:03Z</time>
      </trkpt>
      <trkpt lat="42.79945" lon="2.93259">
        <ele>10.2</ele>
        <time>1970-01-01T01:29:04Z</time>
      </trkpt>
      <trkpt lat="42.79944" lon="2.93265">
        <ele>10.2</ele>
        <time>1970-01-01T01:29:05Z</time>
      </trkpt>
      <trkpt lat="42.79943" lon="2.9327">
        <ele>10.2</ele>
        <time>1970-01-01T01:29:06Z</time>
      </trkpt>
      <trkpt lat="42.79942" lon="2.93276">
        <ele>10.2</ele>
        <time>1970-01-01T01:29:07Z</time>
      </trkpt>
      <trkpt lat="42.79941" lon="2.93282">
        <ele>10</ele>
        <time>1970-01-01T01:29:08Z</time>
      </trkpt>
      <trkpt lat="42.7994" lon="2.93288">
        <ele>10</ele>
        <time>1970-01-01T01:29:09Z</time>
      </trkpt>
      <trkpt lat="42.79939" lon="2.93294">
        <ele>10</ele>
        <time>1970-01-01T01:29:10Z</time>
      </trkpt>
      <trkpt lat="42.79938" lon="2.933">
        <ele>10</ele>
        <time>1970-01-01T01:29:11Z</time>
      </trkpt>
      <trkpt lat="42.79937" lon="2.93306">
        <ele>10</ele>
        <time>1970-01-01T01:29:12Z</time>
      </trkpt>
      <trkpt lat="42.79936" lon="2.93312">
        <ele>10</ele>
        <time>1970-01-01T01:29:13Z</time>
      </trkpt>
      <trkpt lat="42.79935" lon="2.93318">
        <ele>10</ele>
        <time>1970-01-01T01:29:14Z</time>
      </trkpt>
      <trkpt lat="42.79934" lon="2.93324">
        <ele>9.8</ele>
        <time>1970-01-01T01:29:15Z</time>
      </trkpt>
      <trkpt lat="42.79933" lon="2.9333">
        <ele>9.8</ele>
        <time>1970-01-01T01:29:16Z</time>
      </trkpt>
      <trkpt lat="42.79932" lon="2.93337">
        <ele>9.8</ele>
        <time>1970-01-01T01:29:17Z</time>
      </trkpt>
      <trkpt lat="42.79931" lon="2.93343">
        <ele>9.8</ele>
        <time>1970-01-01T01:29:18Z</time>
      </trkpt>
      <trkpt lat="42.7993" lon="2.93349">
        <ele>9.8</ele>
        <time>1970-01-01T01:29:19Z</time>
      </trkpt>
      <trkpt lat="42.79929" lon="2.93355">
        <ele>9.8</ele>
        <time>1970-01-01T01:29:20Z</time>
      </trkpt>
      <trkpt lat="42.79928" lon="2.93361">
        <ele>9.8</ele>
        <time>1970-01-01T01:29:21Z</time>
      </trkpt>
      <trkpt lat="42.79927" lon="2.93367">
        <ele>9.6</ele>
        <time>1970-01-01T01:29:22Z</time>
      </trkpt>
      <trkpt lat="42.79927" lon="2.93373">
        <ele>9.6</ele>
        <time>1970-01-01T01:29:23Z</time>
      </trkpt>
      <trkpt lat="42.79926" lon="2.93379">
        <ele>9.6</ele>
        <time>1970-01-01T01:29:24Z</time>
      </trkpt>
      <trkpt lat="42.79925" lon="2.93386">
        <ele>9.6</ele>
        <time>1970-01-01T01:29:25Z</time>
      </trkpt>
      <trkpt lat="42.79924" lon="2.93392">
        <ele>9.6</ele>
        <time>1970-01-01T01:29:26Z</time>
      </trkpt>
      <trkpt lat="42.79923" lon="2.93398">
        <ele>9.6</ele>
        <time>1970-01-01T01:29:27Z</time>
      </trkpt>
      <trkpt lat="42.79922" lon="2.93405">
        <ele>9.6</ele>
        <time>1970-01-01T01:29:28Z</time>
      </trkpt>
      <trkpt lat="42.7992" lon="2.93411">
        <ele>9.4</ele>
        <time>1970-01-01T01:29:29Z</time>
      </trkpt>
      <trkpt lat="42.79919" lon="2.93417">
        <ele>9.4</ele>
        <time>1970-01-01T01:29:30Z</time>
      </trkpt>
      <trkpt lat="42.79918" lon="2.93424">
        <ele>9.4</ele>
        <time>1970-01-01T01:29:31Z</time>
      </trkpt>
      <trkpt lat="42.79917" lon="2.9343">
        <ele>9.4</ele>
        <time>1970-01-01T01:29:32Z</time>
      </trkpt>
      <trkpt lat="42.79916" lon="2.93437">
        <ele>9.4</ele>
        <time>1970-01-01T01:29:33Z</time>
      </trkpt>
      <trkpt lat="42.79915" lon="2.93443">
        <ele>9.4</ele>
        <time>1970-01-01T01:29:34Z</time>
      </trkpt>
      <trkpt lat="42.79914" lon="2.9345">
        <ele>9.4</ele>
        <time>1970-01-01T01:29:35Z</time>
      </trkpt>
      <trkpt lat="42.79913" lon="2.93456">
        <ele>9.2</ele>
        <time>1970-01-01T01:29:36Z</time>
      </trkpt>
      <trkpt lat="42.79912" lon="2.93463">
        <ele>9.2</ele>
        <time>1970-01-01T01:29:37Z</time>
      </trkpt>
      <trkpt lat="42.79911" lon="2.93469">
        <ele>9.2</ele>
        <time>1970-01-01T01:29:38Z</time>
      </trkpt>
      <trkpt lat="42.79909" lon="2.93476">
        <ele>9.2</ele>
        <time>1970-01-01T01:29:39Z</time>
      </trkpt>
      <trkpt lat="42.79908" lon="2.93483">
        <ele>9.2</ele>
        <time>1970-01-01T01:29:40Z</time>
      </trkpt>
      <trkpt lat="42.79907" lon="2.93489">
        <ele>9.2</ele>
        <time>1970-01-01T01:29:41Z</time>
      </trkpt>
      <trkpt lat="42.79906" lon="2.93496">
        <ele>9</ele>
        <time>1970-01-01T01:29:42Z</time>
      </trkpt>
      <trkpt lat="42.79905" lon="2.93503">
        <ele>9</ele>
        <time>1970-01-01T01:29:43Z</time>
      </trkpt>
      <trkpt lat="42.79903" lon="2.9351">
        <ele>9</ele>
        <time>1970-01-01T01:29:44Z</time>
      </trkpt>
      <trkpt lat="42.79902" lon="2.93516">
        <ele>9</ele>
        <time>1970-01-01T01:29:45Z</time>
      </trkpt>
      <trkpt lat="42.799" lon="2.93523">
        <ele>9</ele>
        <time>1970-01-01T01:29:46Z</time>
      </trkpt>
      <trkpt lat="42.79898" lon="2.93529">
        <ele>9</ele>
        <time>1970-01-01T01:29:47Z</time>
      </trkpt>
      <trkpt lat="42.79897" lon="2.93535">
        <ele>8.8</ele>
        <time>1970-01-01T01:29:48Z</time>
      </trkpt>
      <trkpt lat="42.79895" lon="2.93542">
        <ele>8.8</ele>
        <time>1970-01-01T01:29:49Z</time>
      </trkpt>
      <trkpt lat="42.79893" lon="2.93548">
        <ele>8.8</ele>
        <time>1970-01-01T01:29:50Z</time>
      </trkpt>
      <trkpt lat="42.79892" lon="2.93554">
        <ele>8.8</ele>
        <time>1970-01-01T01:29:51Z</time>
      </trkpt>
      <trkpt lat="42.7989" lon="2.9356">
        <ele>8.8</ele>
        <time>1970-01-01T01:29:52Z</time>
      </trkpt>
      <trkpt lat="42.79888" lon="2.93566">
        <ele>8.8</ele>
        <time>1970-01-01T01:29:53Z</time>
      </trkpt>
      <trkpt lat="42.79886" lon="2.93572">
        <ele>8.8</ele>
        <time>1970-01-01T01:29:54Z</time>
      </trkpt>
      <trkpt lat="42.79884" lon="2.93579">
        <ele>8.6</ele>
        <time>1970-01-01T01:29:55Z</time>
      </trkpt>
      <trkpt lat="42.79882" lon="2.93585">
        <ele>8.6</ele>
        <time>1970-01-01T01:29:56Z</time>
      </trkpt>
      <trkpt lat="42.7988" lon="2.93592">
        <ele>8.6</ele>
        <time>1970-01-01T01:29:57Z</time>
      </trkpt>
      <trkpt lat="42.79879" lon="2.93598">
        <ele>8.6</ele>
        <time>1970-01-01T01:29:58Z</time>
      </trkpt>
      <trkpt lat="42.79877" lon="2.93604">
        <ele>8.6</ele>
        <time>1970-01-01T01:29:59Z</time>
      </trkpt>
      <trkpt lat="42.79875" lon="2.9361">
        <ele>8.6</ele>
        <time>1970-01-01T01:30:00Z</time>
      </trkpt>
      <trkpt lat="42.79874" lon="2.93615">
        <ele>8.6</ele>
        <time>1970-01-01T01:30:01Z</time>
      </trkpt>
      <trkpt lat="42.79872" lon="2.93621">
        <ele>8.4</ele>
        <time>1970-01-01T01:30:02Z</time>
      </trkpt>
      <trkpt lat="42.7987" lon="2.93627">
        <ele>8.4</ele>
        <time>1970-01-01T01:30:03Z</time>
      </trkpt>
      <trkpt lat="42.79869" lon="2.93633">
        <ele>8.4</ele>
        <time>1970-01-01T01:30:04Z</time>
      </trkpt>
      <trkpt lat="42.79867" lon="2.93639">
        <ele>8.4</ele>
        <time>1970-01-01T01:30:05Z</time>
      </trkpt>
      <trkpt lat="42.79866" lon="2.93645">
        <ele>8.4</ele>
        <time>1970-01-01T01:30:06Z</time>
      </trkpt>
      <trkpt lat="42.79864" lon="2.93651">
        <ele>8.4</ele>
        <time>1970-01-01T01:30:07Z</time>
      </trkpt>
      <trkpt lat="42.79863" lon="2.93656">
        <ele>8.4</ele>
        <time>1970-01-01T01:30:08Z</time>
      </trkpt>
      <trkpt lat="42.79862" lon="2.93661">
        <ele>8.2</ele>
        <time>1970-01-01T01:30:09Z</time>
      </trkpt>
      <trkpt lat="42.7986" lon="2.93667">
        <ele>8.2</ele>
        <time>1970-01-01T01:30:10Z</time>
      </trkpt>
      <trkpt lat="42.79859" lon="2.93672">
        <ele>8.2</ele>
        <time>1970-01-01T01:30:11Z</time>
      </trkpt>
      <trkpt lat="42.79857" lon="2.93677">
        <ele>8.2</ele>
        <time>1970-01-01T01:30:12Z</time>
      </trkpt>
      <trkpt lat="42.79855" lon="2.93681">
        <ele>8.2</ele>
        <time>1970-01-01T01:30:13Z</time>
      </trkpt>
      <trkpt lat="42.79853" lon="2.93685">
        <ele>8.2</ele>
        <time>1970-01-01T01:30:14Z</time>
      </trkpt>
      <trkpt lat="42.79851" lon="2.93688">
        <ele>8.2</ele>
        <time>1970-01-01T01:30:15Z</time>
      </trkpt>
      <trkpt lat="42.79849" lon="2.93691">
        <ele>8.2</ele>
        <time>1970-01-01T01:30:16Z</time>
      </trkpt>
      <trkpt lat="42.79846" lon="2.93694">
        <ele>8.2</ele>
        <time>1970-01-01T01:30:17Z</time>
      </trkpt>
      <trkpt lat="42.79845" lon="2.93697">
        <ele>8.2</ele>
        <time>1970-01-01T01:30:18Z</time>
      </trkpt>
      <trkpt lat="42.79843" lon="2.93702">
        <ele>8.2</ele>
        <time>1970-01-01T01:30:19Z</time>
      </trkpt>
      <trkpt lat="42.79842" lon="2.93707">
        <ele>8.2</ele>
        <time>1970-01-01T01:30:20Z</time>
      </trkpt>
      <trkpt lat="42.79841" lon="2.93711">
        <ele>8.2</ele>
        <time>1970-01-01T01:30:21Z</time>
      </trkpt>
      <trkpt lat="42.79839" lon="2.93716">
        <ele>8.2</ele>
        <time>1970-01-01T01:30:22Z</time>
      </trkpt>
      <trkpt lat="42.79838" lon="2.93721">
        <ele>8.2</ele>
        <time>1970-01-01T01:30:23Z</time>
      </trkpt>
      <trkpt lat="42.79837" lon="2.93726">
        <ele>8.2</ele>
        <time>1970-01-01T01:30:24Z</time>
      </trkpt>
      <trkpt lat="42.79836" lon="2.93731">
        <ele>8.2</ele>
        <time>1970-01-01T01:30:25Z</time>
      </trkpt>
      <trkpt lat="42.79835" lon="2.93736">
        <ele>8.2</ele>
        <time>1970-01-01T01:30:26Z</time>
      </trkpt>
      <trkpt lat="42.79833" lon="2.93742">
        <ele>8.2</ele>
        <time>1970-01-01T01:30:27Z</time>
      </trkpt>
      <trkpt lat="42.79832" lon="2.93748">
        <ele>8.2</ele>
        <time>1970-01-01T01:30:28Z</time>
      </trkpt>
      <trkpt lat="42.7983" lon="2.93753">
        <ele>8.2</ele>
        <time>1970-01-01T01:30:29Z</time>
      </trkpt>
      <trkpt lat="42.79829" lon="2.93759">
        <ele>8.2</ele>
        <time>1970-01-01T01:30:30Z</time>
      </trkpt>
      <trkpt lat="42.79827" lon="2.93765">
        <ele>8.2</ele>
        <time>1970-01-01T01:30:31Z</time>
      </trkpt>
      <trkpt lat="42.79826" lon="2.93771">
        <ele>8.2</ele>
        <time>1970-01-01T01:30:32Z</time>
      </trkpt>
      <trkpt lat="42.79824" lon="2.93777">
        <ele>8.2</ele>
        <time>1970-01-01T01:30:33Z</time>
      </trkpt>
      <trkpt lat="42.79823" lon="2.93783">
        <ele>8.2</ele>
        <time>1970-01-01T01:30:34Z</time>
      </trkpt>
      <trkpt lat="42.79821" lon="2.93789">
        <ele>8.2</ele>
        <time>1970-01-01T01:30:35Z</time>
      </trkpt>
      <trkpt lat="42.7982" lon="2.93796">
        <ele>8.4</ele>
        <time>1970-01-01T01:30:36Z</time>
      </trkpt>
      <trkpt lat="42.79818" lon="2.93802">
        <ele>8.4</ele>
        <time>1970-01-01T01:30:37Z</time>
      </trkpt>
      <trkpt lat="42.79816" lon="2.93808">
        <ele>8.4</ele>
        <time>1970-01-01T01:30:38Z</time>
      </trkpt>
      <trkpt lat="42.79815" lon="2.93814">
        <ele>8.4</ele>
        <time>1970-01-01T01:30:39Z</time>
      </trkpt>
      <trkpt lat="42.79813" lon="2.9382">
        <ele>8.4</ele>
        <time>1970-01-01T01:30:40Z</time>
      </trkpt>
      <trkpt lat="42.79812" lon="2.93825">
        <ele>8.4</ele>
        <time>1970-01-01T01:30:41Z</time>
      </trkpt>
      <trkpt lat="42.79811" lon="2.93831">
        <ele>8.4</ele>
        <time>1970-01-01T01:30:42Z</time>
      </trkpt>
      <trkpt lat="42.79809" lon="2.93836">
        <ele>8.4</ele>
        <time>1970-01-01T01:30:43Z</time>
      </trkpt>
      <trkpt lat="42.79808" lon="2.93842">
        <ele>8.4</ele>
        <time>1970-01-01T01:30:44Z</time>
      </trkpt>
      <trkpt lat="42.79806" lon="2.93846">
        <ele>8.4</ele>
        <time>1970-01-01T01:30:45Z</time>
      </trkpt>
      <trkpt lat="42.79805" lon="2.9385">
        <ele>8.4</ele>
        <time>1970-01-01T01:30:46Z</time>
      </trkpt>
      <trkpt lat="42.79803" lon="2.93854">
        <ele>8.4</ele>
        <time>1970-01-01T01:30:47Z</time>
      </trkpt>
      <trkpt lat="42.79801" lon="2.93856">
        <ele>8.4</ele>
        <time>1970-01-01T01:30:48Z</time>
      </trkpt>
      <trkpt lat="42.79797" lon="2.93857">
        <ele>8.4</ele>
        <time>1970-01-01T01:30:49Z</time>
      </trkpt>
      <trkpt lat="42.79794" lon="2.93858">
        <ele>8.4</ele>
        <time>1970-01-01T01:30:50Z</time>
      </trkpt>
      <trkpt lat="42.7979" lon="2.93859">
        <ele>8.4</ele>
        <time>1970-01-01T01:30:51Z</time>
      </trkpt>
      <trkpt lat="42.79786" lon="2.9386">
        <ele>8.4</ele>
        <time>1970-01-01T01:30:52Z</time>
      </trkpt>
      <trkpt lat="42.79782" lon="2.93861">
        <ele>8.4</ele>
        <time>1970-01-01T01:30:53Z</time>
      </trkpt>
      <trkpt lat="42.79778" lon="2.93863">
        <ele>8.4</ele>
        <time>1970-01-01T01:30:54Z</time>
      </trkpt>
      <trkpt lat="42.79775" lon="2.93864">
        <ele>8.4</ele>
        <time>1970-01-01T01:30:55Z</time>
      </trkpt>
      <trkpt lat="42.7977" lon="2.93866">
        <ele>8.4</ele>
        <time>1970-01-01T01:30:56Z</time>
      </trkpt>
      <trkpt lat="42.79766" lon="2.93867">
        <ele>8.4</ele>
        <time>1970-01-01T01:30:57Z</time>
      </trkpt>
      <trkpt lat="42.79761" lon="2.93868">
        <ele>8.4</ele>
        <time>1970-01-01T01:30:58Z</time>
      </trkpt>
      <trkpt lat="42.79757" lon="2.9387">
        <ele>8.4</ele>
        <time>1970-01-01T01:30:59Z</time>
      </trkpt>
      <trkpt lat="42.79752" lon="2.93871">
        <ele>8.4</ele>
        <time>1970-01-01T01:31:00Z</time>
      </trkpt>
      <trkpt lat="42.79748" lon="2.93872">
        <ele>8.4</ele>
        <time>1970-01-01T01:31:01Z</time>
      </trkpt>
      <trkpt lat="42.79743" lon="2.93872">
        <ele>8.4</ele>
        <time>1970-01-01T01:31:02Z</time>
      </trkpt>
      <trkpt lat="42.79738" lon="2.93872">
        <ele>8.4</ele>
        <time>1970-01-01T01:31:03Z</time>
      </trkpt>
      <trkpt lat="42.79733" lon="2.93872">
        <ele>8.4</ele>
        <time>1970-01-01T01:31:04Z</time>
      </trkpt>
      <trkpt lat="42.79729" lon="2.93872">
        <ele>8.4</ele>
        <time>1970-01-01T01:31:05Z</time>
      </trkpt>
      <trkpt lat="42.79725" lon="2.93872">
        <ele>8.4</ele>
        <time>1970-01-01T01:31:06Z</time>
      </trkpt>
      <trkpt lat="42.79721" lon="2.93872">
        <ele>8.4</ele>
        <time>1970-01-01T01:31:07Z</time>
      </trkpt>
      <trkpt lat="42.79716" lon="2.93872">
        <ele>8.4</ele>
        <time>1970-01-01T01:31:08Z</time>
      </trkpt>
      <trkpt lat="42.79712" lon="2.93873">
        <ele>8.4</ele>
        <time>1970-01-01T01:31:09Z</time>
      </trkpt>
      <trkpt lat="42.79708" lon="2.93873">
        <ele>8.4</ele>
        <time>1970-01-01T01:31:10Z</time>
      </trkpt>
      <trkpt lat="42.79704" lon="2.93874">
        <ele>8.4</ele>
        <time>1970-01-01T01:31:11Z</time>
      </trkpt>
      <trkpt lat="42.797" lon="2.93874">
        <ele>8.4</ele>
        <time>1970-01-01T01:31:12Z</time>
      </trkpt>
      <trkpt lat="42.79696" lon="2.93875">
        <ele>8.4</ele>
        <time>1970-01-01T01:31:13Z</time>
      </trkpt>
      <trkpt lat="42.79692" lon="2.93875">
        <ele>8.4</ele>
        <time>1970-01-01T01:31:14Z</time>
      </trkpt>
      <trkpt lat="42.79688" lon="2.93875">
        <ele>8.6</ele>
        <time>1970-01-01T01:31:15Z</time>
      </trkpt>
      <trkpt lat="42.79683" lon="2.93875">
        <ele>8.6</ele>
        <time>1970-01-01T01:31:16Z</time>
      </trkpt>
      <trkpt lat="42.79679" lon="2.93874">
        <ele>8.6</ele>
        <time>1970-01-01T01:31:17Z</time>
      </trkpt>
      <trkpt lat="42.79674" lon="2.93874">
        <ele>8.6</ele>
        <time>1970-01-01T01:31:18Z</time>
      </trkpt>
      <trkpt lat="42.7967" lon="2.93874">
        <ele>8.6</ele>
        <time>1970-01-01T01:31:19Z</time>
      </trkpt>
      <trkpt lat="42.79665" lon="2.93873">
        <ele>8.6</ele>
        <time>1970-01-01T01:31:20Z</time>
      </trkpt>
      <trkpt lat="42.7966" lon="2.93873">
        <ele>8.6</ele>
        <time>1970-01-01T01:31:21Z</time>
      </trkpt>
      <trkpt lat="42.79656" lon="2.93873">
        <ele>8.6</ele>
        <time>1970-01-01T01:31:22Z</time>
      </trkpt>
      <trkpt lat="42.79651" lon="2.93873">
        <ele>8.6</ele>
        <time>1970-01-01T01:31:23Z</time>
      </trkpt>
      <trkpt lat="42.79646" lon="2.93873">
        <ele>8.6</ele>
        <time>1970-01-01T01:31:24Z</time>
      </trkpt>
      <trkpt lat="42.79642" lon="2.93873">
        <ele>8.6</ele>
        <time>1970-01-01T01:31:25Z</time>
      </trkpt>
      <trkpt lat="42.79637" lon="2.93873">
        <ele>8.6</ele>
        <time>1970-01-01T01:31:26Z</time>
      </trkpt>
      <trkpt lat="42.79632" lon="2.93873">
        <ele>8.6</ele>
        <time>1970-01-01T01:31:27Z</time>
      </trkpt>
      <trkpt lat="42.79627" lon="2.93872">
        <ele>8.6</ele>
        <time>1970-01-01T01:31:28Z</time>
      </trkpt>
      <trkpt lat="42.79622" lon="2.93871">
        <ele>8.6</ele>
        <time>1970-01-01T01:31:29Z</time>
      </trkpt>
      <trkpt lat="42.79617" lon="2.9387">
        <ele>8.6</ele>
        <time>1970-01-01T01:31:30Z</time>
      </trkpt>
      <trkpt lat="42.79612" lon="2.9387">
        <ele>8.6</ele>
        <time>1970-01-01T01:31:31Z</time>
      </trkpt>
      <trkpt lat="42.79607" lon="2.93869">
        <ele>8.6</ele>
        <time>1970-01-01T01:31:32Z</time>
      </trkpt>
      <trkpt lat="42.79602" lon="2.93869">
        <ele>8.6</ele>
        <time>1970-01-01T01:31:33Z</time>
      </trkpt>
      <trkpt lat="42.79598" lon="2.93868">
        <ele>8.6</ele>
        <time>1970-01-01T01:31:34Z</time>
      </trkpt>
      <trkpt lat="42.79593" lon="2.93867">
        <ele>8.8</ele>
        <time>1970-01-01T01:31:35Z</time>
      </trkpt>
      <trkpt lat="42.79589" lon="2.93867">
        <ele>8.8</ele>
        <time>1970-01-01T01:31:36Z</time>
      </trkpt>
      <trkpt lat="42.79584" lon="2.93867">
        <ele>8.8</ele>
        <time>1970-01-01T01:31:37Z</time>
      </trkpt>
      <trkpt lat="42.79579" lon="2.93867">
        <ele>8.8</ele>
        <time>1970-01-01T01:31:38Z</time>
      </trkpt>
      <trkpt lat="42.79574" lon="2.93867">
        <ele>8.8</ele>
        <time>1970-01-01T01:31:39Z</time>
      </trkpt>
      <trkpt lat="42.79569" lon="2.93867">
        <ele>8.8</ele>
        <time>1970-01-01T01:31:40Z</time>
      </trkpt>
      <trkpt lat="42.79565" lon="2.93867">
        <ele>8.8</ele>
        <time>1970-01-01T01:31:41Z</time>
      </trkpt>
      <trkpt lat="42.7956" lon="2.93867">
        <ele>8.8</ele>
        <time>1970-01-01T01:31:42Z</time>
      </trkpt>
      <trkpt lat="42.79556" lon="2.93868">
        <ele>8.8</ele>
        <time>1970-01-01T01:31:43Z</time>
      </trkpt>
      <trkpt lat="42.79551" lon="2.93868">
        <ele>8.8</ele>
        <time>1970-01-01T01:31:44Z</time>
      </trkpt>
      <trkpt lat="42.79546" lon="2.93868">
        <ele>8.8</ele>
        <time>1970-01-01T01:31:45Z</time>
      </trkpt>
      <trkpt lat="42.79541" lon="2.93868">
        <ele>8.8</ele>
        <time>1970-01-01T01:31:46Z</time>
      </trkpt>
      <trkpt lat="42.79536" lon="2.93868">
        <ele>8.8</ele>
        <time>1970-01-01T01:31:47Z</time>
      </trkpt>
      <trkpt lat="42.79531" lon="2.93868">
        <ele>8.8</ele>
        <time>1970-01-01T01:31:48Z</time>
      </trkpt>
      <trkpt lat="42.79527" lon="2.93869">
        <ele>8.8</ele>
        <time>1970-01-01T01:31:49Z</time>
      </trkpt>
      <trkpt lat="42.79522" lon="2.93869">
        <ele>8.8</ele>
        <time>1970-01-01T01:31:50Z</time>
      </trkpt>
      <trkpt lat="42.79517" lon="2.9387">
        <ele>8.8</ele>
        <time>1970-01-01T01:31:51Z</time>
      </trkpt>
      <trkpt lat="42.79513" lon="2.93871">
        <ele>8.8</ele>
        <time>1970-01-01T01:31:52Z</time>
      </trkpt>
      <trkpt lat="42.79508" lon="2.93872">
        <ele>8.8</ele>
        <time>1970-01-01T01:31:53Z</time>
      </trkpt>
      <trkpt lat="42.79503" lon="2.93874">
        <ele>8.8</ele>
        <time>1970-01-01T01:31:54Z</time>
      </trkpt>
      <trkpt lat="42.79498" lon="2.93876">
        <ele>8.8</ele>
        <time>1970-01-01T01:31:55Z</time>
      </trkpt>
      <trkpt lat="42.79494" lon="2.93877">
        <ele>8.8</ele>
        <time>1970-01-01T01:31:56Z</time>
      </trkpt>
      <trkpt lat="42.79489" lon="2.93879">
        <ele>8.8</ele>
        <time>1970-01-01T01:31:57Z</time>
      </trkpt>
      <trkpt lat="42.79484" lon="2.9388">
        <ele>8.8</ele>
        <time>1970-01-01T01:31:58Z</time>
      </trkpt>
      <trkpt lat="42.79479" lon="2.93882">
        <ele>8.8</ele>
        <time>1970-01-01T01:31:59Z</time>
      </trkpt>
      <trkpt lat="42.79474" lon="2.93884">
        <ele>8.8</ele>
        <time>1970-01-01T01:32:00Z</time>
      </trkpt>
      <trkpt lat="42.79469" lon="2.93886">
        <ele>8.8</ele>
        <time>1970-01-01T01:32:01Z</time>
      </trkpt>
      <trkpt lat="42.79464" lon="2.93888">
        <ele>8.8</ele>
        <time>1970-01-01T01:32:02Z</time>
      </trkpt>
      <trkpt lat="42.79459" lon="2.9389">
        <ele>8.8</ele>
        <time>1970-01-01T01:32:03Z</time>
      </trkpt>
      <trkpt lat="42.79454" lon="2.93892">
        <ele>8.8</ele>
        <time>1970-01-01T01:32:04Z</time>
      </trkpt>
      <trkpt lat="42.7945" lon="2.93896">
        <ele>8.6</ele>
        <time>1970-01-01T01:32:05Z</time>
      </trkpt>
      <trkpt lat="42.79446" lon="2.93901">
        <ele>8.6</ele>
        <time>1970-01-01T01:32:06Z</time>
      </trkpt>
      <trkpt lat="42.79442" lon="2.93905">
        <ele>8.6</ele>
        <time>1970-01-01T01:32:07Z</time>
      </trkpt>
      <trkpt lat="42.79437" lon="2.93909">
        <ele>8.6</ele>
        <time>1970-01-01T01:32:08Z</time>
      </trkpt>
      <trkpt lat="42.79433" lon="2.93912">
        <ele>8.6</ele>
        <time>1970-01-01T01:32:09Z</time>
      </trkpt>
      <trkpt lat="42.79429" lon="2.93913">
        <ele>8.6</ele>
        <time>1970-01-01T01:32:10Z</time>
      </trkpt>
      <trkpt lat="42.79424" lon="2.93915">
        <ele>8.6</ele>
        <time>1970-01-01T01:32:11Z</time>
      </trkpt>
      <trkpt lat="42.79419" lon="2.93915">
        <ele>8.6</ele>
        <time>1970-01-01T01:32:12Z</time>
      </trkpt>
      <trkpt lat="42.79414" lon="2.93914">
        <ele>8.6</ele>
        <time>1970-01-01T01:32:13Z</time>
      </trkpt>
      <trkpt lat="42.79409" lon="2.93913">
        <ele>8.6</ele>
        <time>1970-01-01T01:32:14Z</time>
      </trkpt>
      <trkpt lat="42.79404" lon="2.93912">
        <ele>8.8</ele>
        <time>1970-01-01T01:32:15Z</time>
      </trkpt>
      <trkpt lat="42.79399" lon="2.93912">
        <ele>8.8</ele>
        <time>1970-01-01T01:32:16Z</time>
      </trkpt>
      <trkpt lat="42.79395" lon="2.93913">
        <ele>8.8</ele>
        <time>1970-01-01T01:32:17Z</time>
      </trkpt>
      <trkpt lat="42.79391" lon="2.93917">
        <ele>8.8</ele>
        <time>1970-01-01T01:32:18Z</time>
      </trkpt>
      <trkpt lat="42.79388" lon="2.93921">
        <ele>8.6</ele>
        <time>1970-01-01T01:32:19Z</time>
      </trkpt>
      <trkpt lat="42.79385" lon="2.93927">
        <ele>8.6</ele>
        <time>1970-01-01T01:32:20Z</time>
      </trkpt>
      <trkpt lat="42.79382" lon="2.93933">
        <ele>8.6</ele>
        <time>1970-01-01T01:32:21Z</time>
      </trkpt>
      <trkpt lat="42.7938" lon="2.93938">
        <ele>8.6</ele>
        <time>1970-01-01T01:32:22Z</time>
      </trkpt>
      <trkpt lat="42.79377" lon="2.93943">
        <ele>8.6</ele>
        <time>1970-01-01T01:32:23Z</time>
      </trkpt>
      <trkpt lat="42.79373" lon="2.93947">
        <ele>8.6</ele>
        <time>1970-01-01T01:32:24Z</time>
      </trkpt>
      <trkpt lat="42.7937" lon="2.93951">
        <ele>8.6</ele>
        <time>1970-01-01T01:32:25Z</time>
      </trkpt>
      <trkpt lat="42.79366" lon="2.93955">
        <ele>8.6</ele>
        <time>1970-01-01T01:32:26Z</time>
      </trkpt>
      <trkpt lat="42.79361" lon="2.93957">
        <ele>8.6</ele>
        <time>1970-01-01T01:32:27Z</time>
      </trkpt>
      <trkpt lat="42.79356" lon="2.93959">
        <ele>8.6</ele>
        <time>1970-01-01T01:32:28Z</time>
      </trkpt>
      <trkpt lat="42.79352" lon="2.93962">
        <ele>8.8</ele>
        <time>1970-01-01T01:32:29Z</time>
      </trkpt>
      <trkpt lat="42.79347" lon="2.93964">
        <ele>8.8</ele>
        <time>1970-01-01T01:32:30Z</time>
      </trkpt>
      <trkpt lat="42.79343" lon="2.93967">
        <ele>8.8</ele>
        <time>1970-01-01T01:32:31Z</time>
      </trkpt>
      <trkpt lat="42.79339" lon="2.93969">
        <ele>8.8</ele>
        <time>1970-01-01T01:32:32Z</time>
      </trkpt>
      <trkpt lat="42.79335" lon="2.93972">
        <ele>8.8</ele>
        <time>1970-01-01T01:32:33Z</time>
      </trkpt>
      <trkpt lat="42.79331" lon="2.93976">
        <ele>8.8</ele>
        <time>1970-01-01T01:32:34Z</time>
      </trkpt>
      <trkpt lat="42.79327" lon="2.93979">
        <ele>8.8</ele>
        <time>1970-01-01T01:32:35Z</time>
      </trkpt>
      <trkpt lat="42.79324" lon="2.93982">
        <ele>8.8</ele>
        <time>1970-01-01T01:32:36Z</time>
      </trkpt>
      <trkpt lat="42.7932" lon="2.93984">
        <ele>8.8</ele>
        <time>1970-01-01T01:32:37Z</time>
      </trkpt>
      <trkpt lat="42.79316" lon="2.93985">
        <ele>8.8</ele>
        <time>1970-01-01T01:32:38Z</time>
      </trkpt>
      <trkpt lat="42.79312" lon="2.93984">
        <ele>8.8</ele>
        <time>1970-01-01T01:32:39Z</time>
      </trkpt>
      <trkpt lat="42.79308" lon="2.93984">
        <ele>8.8</ele>
        <time>1970-01-01T01:32:40Z</time>
      </trkpt>
      <trkpt lat="42.79304" lon="2.93984">
        <ele>8.8</ele>
        <time>1970-01-01T01:32:41Z</time>
      </trkpt>
      <trkpt lat="42.79299" lon="2.93984">
        <ele>8.8</ele>
        <time>1970-01-01T01:32:42Z</time>
      </trkpt>
      <trkpt lat="42.79295" lon="2.93985">
        <ele>8.8</ele>
        <time>1970-01-01T01:32:43Z</time>
      </trkpt>
      <trkpt lat="42.79291" lon="2.93987">
        <ele>8.8</ele>
        <time>1970-01-01T01:32:44Z</time>
      </trkpt>
      <trkpt lat="42.79288" lon="2.9399">
        <ele>9</ele>
        <time>1970-01-01T01:32:45Z</time>
      </trkpt>
      <trkpt lat="42.79284" lon="2.93992">
        <ele>9</ele>
        <time>1970-01-01T01:32:46Z</time>
      </trkpt>
      <trkpt lat="42.79281" lon="2.93994">
        <ele>9</ele>
        <time>1970-01-01T01:32:47Z</time>
      </trkpt>
      <trkpt lat="42.79278" lon="2.93997">
        <ele>9</ele>
        <time>1970-01-01T01:32:48Z</time>
      </trkpt>
      <trkpt lat="42.79274" lon="2.93999">
        <ele>9</ele>
        <time>1970-01-01T01:32:49Z</time>
      </trkpt>
      <trkpt lat="42.7927" lon="2.94001">
        <ele>9.2</ele>
        <time>1970-01-01T01:32:50Z</time>
      </trkpt>
      <trkpt lat="42.79266" lon="2.94004">
        <ele>9.2</ele>
        <time>1970-01-01T01:32:51Z</time>
      </trkpt>
      <trkpt lat="42.79262" lon="2.94006">
        <ele>9.2</ele>
        <time>1970-01-01T01:32:52Z</time>
      </trkpt>
      <trkpt lat="42.79257" lon="2.94008">
        <ele>9.2</ele>
        <time>1970-01-01T01:32:53Z</time>
      </trkpt>
      <trkpt lat="42.79253" lon="2.94009">
        <ele>9.2</ele>
        <time>1970-01-01T01:32:54Z</time>
      </trkpt>
      <trkpt lat="42.79248" lon="2.94011">
        <ele>9.2</ele>
        <time>1970-01-01T01:32:55Z</time>
      </trkpt>
      <trkpt lat="42.79243" lon="2.94012">
        <ele>9.2</ele>
        <time>1970-01-01T01:32:56Z</time>
      </trkpt>
      <trkpt lat="42.79237" lon="2.94014">
        <ele>9.2</ele>
        <time>1970-01-01T01:32:57Z</time>
      </trkpt>
      <trkpt lat="42.79232" lon="2.94016">
        <ele>9.4</ele>
        <time>1970-01-01T01:32:58Z</time>
      </trkpt>
      <trkpt lat="42.79227" lon="2.94018">
        <ele>9.4</ele>
        <time>1970-01-01T01:32:59Z</time>
      </trkpt>
      <trkpt lat="42.79222" lon="2.94021">
        <ele>9.4</ele>
        <time>1970-01-01T01:33:00Z</time>
      </trkpt>
      <trkpt lat="42.79217" lon="2.94023">
        <ele>9.4</ele>
        <time>1970-01-01T01:33:01Z</time>
      </trkpt>
      <trkpt lat="42.79212" lon="2.94024">
        <ele>9.4</ele>
        <time>1970-01-01T01:33:02Z</time>
      </trkpt>
      <trkpt lat="42.79207" lon="2.94026">
        <ele>9.4</ele>
        <time>1970-01-01T01:33:03Z</time>
      </trkpt>
      <trkpt lat="42.79202" lon="2.94027">
        <ele>9.4</ele>
        <time>1970-01-01T01:33:04Z</time>
      </trkpt>
      <trkpt lat="42.79198" lon="2.94029">
        <ele>9.6</ele>
        <time>1970-01-01T01:33:05Z</time>
      </trkpt>
      <trkpt lat="42.79193" lon="2.9403">
        <ele>9.6</ele>
        <time>1970-01-01T01:33:06Z</time>
      </trkpt>
      <trkpt lat="42.79188" lon="2.94032">
        <ele>9.6</ele>
        <time>1970-01-01T01:33:07Z</time>
      </trkpt>
      <trkpt lat="42.79183" lon="2.94034">
        <ele>9.6</ele>
        <time>1970-01-01T01:33:08Z</time>
      </trkpt>
      <trkpt lat="42.79178" lon="2.94036">
        <ele>9.6</ele>
        <time>1970-01-01T01:33:09Z</time>
      </trkpt>
      <trkpt lat="42.79173" lon="2.94037">
        <ele>9.6</ele>
        <time>1970-01-01T01:33:10Z</time>
      </trkpt>
      <trkpt lat="42.79168" lon="2.94039">
        <ele>9.6</ele>
        <time>1970-01-01T01:33:11Z</time>
      </trkpt>
      <trkpt lat="42.79163" lon="2.94041">
        <ele>9.6</ele>
        <time>1970-01-01T01:33:12Z</time>
      </trkpt>
      <trkpt lat="42.79157" lon="2.94043">
        <ele>9.8</ele>
        <time>1970-01-01T01:33:13Z</time>
      </trkpt>
      <trkpt lat="42.79152" lon="2.94045">
        <ele>9.8</ele>
        <time>1970-01-01T01:33:14Z</time>
      </trkpt>
      <trkpt lat="42.79147" lon="2.94046">
        <ele>9.8</ele>
        <time>1970-01-01T01:33:15Z</time>
      </trkpt>
      <trkpt lat="42.79141" lon="2.94047">
        <ele>9.8</ele>
        <time>1970-01-01T01:33:16Z</time>
      </trkpt>
      <trkpt lat="42.79136" lon="2.94047">
        <ele>9.8</ele>
        <time>1970-01-01T01:33:17Z</time>
      </trkpt>
      <trkpt lat="42.79131" lon="2.94048">
        <ele>9.8</ele>
        <time>1970-01-01T01:33:18Z</time>
      </trkpt>
      <trkpt lat="42.79125" lon="2.94048">
        <ele>9.8</ele>
        <time>1970-01-01T01:33:19Z</time>
      </trkpt>
      <trkpt lat="42.7912" lon="2.94048">
        <ele>9.8</ele>
        <time>1970-01-01T01:33:20Z</time>
      </trkpt>
      <trkpt lat="42.79114" lon="2.94048">
        <ele>10</ele>
        <time>1970-01-01T01:33:21Z</time>
      </trkpt>
      <trkpt lat="42.79109" lon="2.94047">
        <ele>10</ele>
        <time>1970-01-01T01:33:22Z</time>
      </trkpt>
      <trkpt lat="42.79104" lon="2.94047">
        <ele>10</ele>
        <time>1970-01-01T01:33:23Z</time>
      </trkpt>
      <trkpt lat="42.79099" lon="2.94047">
        <ele>10</ele>
        <time>1970-01-01T01:33:24Z</time>
      </trkpt>
      <trkpt lat="42.79094" lon="2.94048">
        <ele>10.2</ele>
        <time>1970-01-01T01:33:25Z</time>
      </trkpt>
      <trkpt lat="42.79089" lon="2.94048">
        <ele>10.2</ele>
        <time>1970-01-01T01:33:26Z</time>
      </trkpt>
      <trkpt lat="42.79085" lon="2.9405">
        <ele>10.2</ele>
        <time>1970-01-01T01:33:27Z</time>
      </trkpt>
      <trkpt lat="42.79081" lon="2.94052">
        <ele>10.2</ele>
        <time>1970-01-01T01:33:28Z</time>
      </trkpt>
      <trkpt lat="42.79078" lon="2.94057">
        <ele>10.2</ele>
        <time>1970-01-01T01:33:29Z</time>
      </trkpt>
      <trkpt lat="42.79075" lon="2.94061">
        <ele>10.2</ele>
        <time>1970-01-01T01:33:30Z</time>
      </trkpt>
      <trkpt lat="42.79072" lon="2.94067">
        <ele>10.2</ele>
        <time>1970-01-01T01:33:31Z</time>
      </trkpt>
      <trkpt lat="42.7907" lon="2.94073">
        <ele>10.4</ele>
        <time>1970-01-01T01:33:32Z</time>
      </trkpt>
      <trkpt lat="42.79068" lon="2.94079">
        <ele>10.4</ele>
        <time>1970-01-01T01:33:33Z</time>
      </trkpt>
      <trkpt lat="42.79065" lon="2.94085">
        <ele>10.4</ele>
        <time>1970-01-01T01:33:34Z</time>
      </trkpt>
      <trkpt lat="42.79063" lon="2.94091">
        <ele>10.4</ele>
        <time>1970-01-01T01:33:35Z</time>
      </trkpt>
      <trkpt lat="42.79061" lon="2.94097">
        <ele>10.4</ele>
        <time>1970-01-01T01:33:36Z</time>
      </trkpt>
      <trkpt lat="42.79059" lon="2.94102">
        <ele>10.4</ele>
        <time>1970-01-01T01:33:37Z</time>
      </trkpt>
      <trkpt lat="42.79057" lon="2.94108">
        <ele>10.4</ele>
        <time>1970-01-01T01:33:38Z</time>
      </trkpt>
      <trkpt lat="42.79054" lon="2.94114">
        <ele>10.4</ele>
        <time>1970-01-01T01:33:39Z</time>
      </trkpt>
      <trkpt lat="42.79052" lon="2.9412">
        <ele>10.4</ele>
        <time>1970-01-01T01:33:40Z</time>
      </trkpt>
      <trkpt lat="42.7905" lon="2.94126">
        <ele>10.4</ele>
        <time>1970-01-01T01:33:41Z</time>
      </trkpt>
      <trkpt lat="42.79048" lon="2.94132">
        <ele>10.4</ele>
        <time>1970-01-01T01:33:42Z</time>
      </trkpt>
      <trkpt lat="42.79045" lon="2.94139">
        <ele>10.4</ele>
        <time>1970-01-01T01:33:43Z</time>
      </trkpt>
      <trkpt lat="42.79044" lon="2.94145">
        <ele>10.4</ele>
        <time>1970-01-01T01:33:44Z</time>
      </trkpt>
      <trkpt lat="42.79041" lon="2.94151">
        <ele>10.4</ele>
        <time>1970-01-01T01:33:45Z</time>
      </trkpt>
      <trkpt lat="42.79039" lon="2.94157">
        <ele>10.4</ele>
        <time>1970-01-01T01:33:46Z</time>
      </trkpt>
      <trkpt lat="42.79037" lon="2.94162">
        <ele>10.4</ele>
        <time>1970-01-01T01:33:47Z</time>
      </trkpt>
      <trkpt lat="42.79035" lon="2.94169">
        <ele>10.4</ele>
        <time>1970-01-01T01:33:48Z</time>
      </trkpt>
      <trkpt lat="42.79033" lon="2.94175">
        <ele>10.4</ele>
        <time>1970-01-01T01:33:49Z</time>
      </trkpt>
      <trkpt lat="42.79031" lon="2.94181">
        <ele>10.4</ele>
        <time>1970-01-01T01:33:50Z</time>
      </trkpt>
      <trkpt lat="42.79028" lon="2.94187">
        <ele>10.4</ele>
        <time>1970-01-01T01:33:51Z</time>
      </trkpt>
      <trkpt lat="42.79026" lon="2.94192">
        <ele>10.4</ele>
        <time>1970-01-01T01:33:52Z</time>
      </trkpt>
      <trkpt lat="42.79024" lon="2.94198">
        <ele>10.4</ele>
        <time>1970-01-01T01:33:53Z</time>
      </trkpt>
      <trkpt lat="42.79022" lon="2.94203">
        <ele>10.4</ele>
        <time>1970-01-01T01:33:54Z</time>
      </trkpt>
      <trkpt lat="42.79021" lon="2.94208">
        <ele>10.4</ele>
        <time>1970-01-01T01:33:55Z</time>
      </trkpt>
      <trkpt lat="42.79019" lon="2.94214">
        <ele>10.4</ele>
        <time>1970-01-01T01:33:56Z</time>
      </trkpt>
      <trkpt lat="42.79017" lon="2.94219">
        <ele>10.4</ele>
        <time>1970-01-01T01:33:57Z</time>
      </trkpt>
      <trkpt lat="42.79015" lon="2.94225">
        <ele>10.4</ele>
        <time>1970-01-01T01:33:58Z</time>
      </trkpt>
      <trkpt lat="42.79013" lon="2.9423">
        <ele>10.4</ele>
        <time>1970-01-01T01:33:59Z</time>
      </trkpt>
      <trkpt lat="42.79011" lon="2.94236">
        <ele>10.4</ele>
        <time>1970-01-01T01:34:00Z</time>
      </trkpt>
      <trkpt lat="42.79008" lon="2.94242">
        <ele>10.4</ele>
        <time>1970-01-01T01:34:01Z</time>
      </trkpt>
      <trkpt lat="42.79006" lon="2.94247">
        <ele>10.4</ele>
        <time>1970-01-01T01:34:02Z</time>
      </trkpt>
      <trkpt lat="42.79005" lon="2.94253">
        <ele>10.4</ele>
        <time>1970-01-01T01:34:03Z</time>
      </trkpt>
      <trkpt lat="42.79003" lon="2.94259">
        <ele>10.4</ele>
        <time>1970-01-01T01:34:04Z</time>
      </trkpt>
      <trkpt lat="42.79003" lon="2.94265">
        <ele>10.4</ele>
        <time>1970-01-01T01:34:05Z</time>
      </trkpt>
      <trkpt lat="42.79003" lon="2.94271">
        <ele>10.6</ele>
        <time>1970-01-01T01:34:06Z</time>
      </trkpt>
      <trkpt lat="42.79004" lon="2.94277">
        <ele>10.6</ele>
        <time>1970-01-01T01:34:07Z</time>
      </trkpt>
      <trkpt lat="42.79006" lon="2.94282">
        <ele>10.6</ele>
        <time>1970-01-01T01:34:08Z</time>
      </trkpt>
      <trkpt lat="42.79009" lon="2.94287">
        <ele>10.6</ele>
        <time>1970-01-01T01:34:09Z</time>
      </trkpt>
      <trkpt lat="42.79012" lon="2.94291">
        <ele>10.6</ele>
        <time>1970-01-01T01:34:10Z</time>
      </trkpt>
      <trkpt lat="42.79015" lon="2.94296">
        <ele>10.6</ele>
        <time>1970-01-01T01:34:11Z</time>
      </trkpt>
      <trkpt lat="42.79018" lon="2.94301">
        <ele>10.8</ele>
        <time>1970-01-01T01:34:12Z</time>
      </trkpt>
      <trkpt lat="42.7902" lon="2.94307">
        <ele>10.8</ele>
        <time>1970-01-01T01:34:13Z</time>
      </trkpt>
      <trkpt lat="42.7902" lon="2.94314">
        <ele>10.6</ele>
        <time>1970-01-01T01:34:14Z</time>
      </trkpt>
      <trkpt lat="42.79019" lon="2.9432">
        <ele>10.6</ele>
        <time>1970-01-01T01:34:15Z</time>
      </trkpt>
      <trkpt lat="42.79017" lon="2.94326">
        <ele>10.6</ele>
        <time>1970-01-01T01:34:16Z</time>
      </trkpt>
      <trkpt lat="42.79015" lon="2.94332">
        <ele>10.6</ele>
        <time>1970-01-01T01:34:17Z</time>
      </trkpt>
      <trkpt lat="42.79012" lon="2.94338">
        <ele>10.4</ele>
        <time>1970-01-01T01:34:18Z</time>
      </trkpt>
      <trkpt lat="42.7901" lon="2.94344">
        <ele>10.4</ele>
        <time>1970-01-01T01:34:19Z</time>
      </trkpt>
      <trkpt lat="42.79007" lon="2.9435">
        <ele>10.2</ele>
        <time>1970-01-01T01:34:20Z</time>
      </trkpt>
      <trkpt lat="42.79005" lon="2.94356">
        <ele>10.2</ele>
        <time>1970-01-01T01:34:21Z</time>
      </trkpt>
      <trkpt lat="42.79003" lon="2.94362">
        <ele>10.2</ele>
        <time>1970-01-01T01:34:22Z</time>
      </trkpt>
      <trkpt lat="42.79001" lon="2.94368">
        <ele>10</ele>
        <time>1970-01-01T01:34:23Z</time>
      </trkpt>
      <trkpt lat="42.78998" lon="2.94374">
        <ele>10</ele>
        <time>1970-01-01T01:34:24Z</time>
      </trkpt>
      <trkpt lat="42.78996" lon="2.9438">
        <ele>9.8</ele>
        <time>1970-01-01T01:34:25Z</time>
      </trkpt>
      <trkpt lat="42.78994" lon="2.94387">
        <ele>9.8</ele>
        <time>1970-01-01T01:34:26Z</time>
      </trkpt>
      <trkpt lat="42.78991" lon="2.94393">
        <ele>9.8</ele>
        <time>1970-01-01T01:34:27Z</time>
      </trkpt>
      <trkpt lat="42.78989" lon="2.94399">
        <ele>9.6</ele>
        <time>1970-01-01T01:34:28Z</time>
      </trkpt>
      <trkpt lat="42.78986" lon="2.94405">
        <ele>9.6</ele>
        <time>1970-01-01T01:34:29Z</time>
      </trkpt>
      <trkpt lat="42.78984" lon="2.94412">
        <ele>9.6</ele>
        <time>1970-01-01T01:34:30Z</time>
      </trkpt>
      <trkpt lat="42.78982" lon="2.94418">
        <ele>9.4</ele>
        <time>1970-01-01T01:34:31Z</time>
      </trkpt>
      <trkpt lat="42.7898" lon="2.94423">
        <ele>9.4</ele>
        <time>1970-01-01T01:34:32Z</time>
      </trkpt>
      <trkpt lat="42.78978" lon="2.94429">
        <ele>9.4</ele>
        <time>1970-01-01T01:34:33Z</time>
      </trkpt>
      <trkpt lat="42.78976" lon="2.94435">
        <ele>9.4</ele>
        <time>1970-01-01T01:34:34Z</time>
      </trkpt>
      <trkpt lat="42.78974" lon="2.94441">
        <ele>9.2</ele>
        <time>1970-01-01T01:34:35Z</time>
      </trkpt>
      <trkpt lat="42.78972" lon="2.94448">
        <ele>9.2</ele>
        <time>1970-01-01T01:34:36Z</time>
      </trkpt>
      <trkpt lat="42.7897" lon="2.94454">
        <ele>9.2</ele>
        <time>1970-01-01T01:34:37Z</time>
      </trkpt>
      <trkpt lat="42.78968" lon="2.9446">
        <ele>9</ele>
        <time>1970-01-01T01:34:38Z</time>
      </trkpt>
      <trkpt lat="42.78966" lon="2.94467">
        <ele>9</ele>
        <time>1970-01-01T01:34:39Z</time>
      </trkpt>
      <trkpt lat="42.78965" lon="2.94473">
        <ele>9</ele>
        <time>1970-01-01T01:34:40Z</time>
      </trkpt>
      <trkpt lat="42.78964" lon="2.9448">
        <ele>9</ele>
        <time>1970-01-01T01:34:41Z</time>
      </trkpt>
      <trkpt lat="42.78962" lon="2.94486">
        <ele>8.8</ele>
        <time>1970-01-01T01:34:42Z</time>
      </trkpt>
      <trkpt lat="42.78961" lon="2.94493">
        <ele>8.8</ele>
        <time>1970-01-01T01:34:43Z</time>
      </trkpt>
      <trkpt lat="42.78959" lon="2.945">
        <ele>8.8</ele>
        <time>1970-01-01T01:34:44Z</time>
      </trkpt>
      <trkpt lat="42.78958" lon="2.94507">
        <ele>8.6</ele>
        <time>1970-01-01T01:34:45Z</time>
      </trkpt>
      <trkpt lat="42.78956" lon="2.94513">
        <ele>8.6</ele>
        <time>1970-01-01T01:34:46Z</time>
      </trkpt>
      <trkpt lat="42.78955" lon="2.9452">
        <ele>8.6</ele>
        <time>1970-01-01T01:34:47Z</time>
      </trkpt>
      <trkpt lat="42.78954" lon="2.94526">
        <ele>8.4</ele>
        <time>1970-01-01T01:34:48Z</time>
      </trkpt>
      <trkpt lat="42.78952" lon="2.94533">
        <ele>8.4</ele>
        <time>1970-01-01T01:34:49Z</time>
      </trkpt>
      <trkpt lat="42.78951" lon="2.9454">
        <ele>8.4</ele>
        <time>1970-01-01T01:34:50Z</time>
      </trkpt>
      <trkpt lat="42.78949" lon="2.94547">
        <ele>8.4</ele>
        <time>1970-01-01T01:34:51Z</time>
      </trkpt>
      <trkpt lat="42.78947" lon="2.94554">
        <ele>8.2</ele>
        <time>1970-01-01T01:34:52Z</time>
      </trkpt>
      <trkpt lat="42.78946" lon="2.9456">
        <ele>8.2</ele>
        <time>1970-01-01T01:34:53Z</time>
      </trkpt>
      <trkpt lat="42.78944" lon="2.94567">
        <ele>8</ele>
        <time>1970-01-01T01:34:54Z</time>
      </trkpt>
      <trkpt lat="42.78942" lon="2.94573">
        <ele>8</ele>
        <time>1970-01-01T01:34:55Z</time>
      </trkpt>
      <trkpt lat="42.7894" lon="2.9458">
        <ele>8</ele>
        <time>1970-01-01T01:34:56Z</time>
      </trkpt>
      <trkpt lat="42.78937" lon="2.94586">
        <ele>7.8</ele>
        <time>1970-01-01T01:34:57Z</time>
      </trkpt>
      <trkpt lat="42.78935" lon="2.94593">
        <ele>7.8</ele>
        <time>1970-01-01T01:34:58Z</time>
      </trkpt>
      <trkpt lat="42.78933" lon="2.94599">
        <ele>7.8</ele>
        <time>1970-01-01T01:34:59Z</time>
      </trkpt>
      <trkpt lat="42.7893" lon="2.94606">
        <ele>7.8</ele>
        <time>1970-01-01T01:35:00Z</time>
      </trkpt>
      <trkpt lat="42.78928" lon="2.94612">
        <ele>7.6</ele>
        <time>1970-01-01T01:35:01Z</time>
      </trkpt>
      <trkpt lat="42.78925" lon="2.94619">
        <ele>7.6</ele>
        <time>1970-01-01T01:35:02Z</time>
      </trkpt>
      <trkpt lat="42.78923" lon="2.94626">
        <ele>7.6</ele>
        <time>1970-01-01T01:35:03Z</time>
      </trkpt>
      <trkpt lat="42.7892" lon="2.94632">
        <ele>7.6</ele>
        <time>1970-01-01T01:35:04Z</time>
      </trkpt>
      <trkpt lat="42.78918" lon="2.94639">
        <ele>7.6</ele>
        <time>1970-01-01T01:35:05Z</time>
      </trkpt>
      <trkpt lat="42.78915" lon="2.94646">
        <ele>7.4</ele>
        <time>1970-01-01T01:35:06Z</time>
      </trkpt>
      <trkpt lat="42.78912" lon="2.94653">
        <ele>7.4</ele>
        <time>1970-01-01T01:35:07Z</time>
      </trkpt>
      <trkpt lat="42.78909" lon="2.9466">
        <ele>7.4</ele>
        <time>1970-01-01T01:35:08Z</time>
      </trkpt>
      <trkpt lat="42.78907" lon="2.94667">
        <ele>7.4</ele>
        <time>1970-01-01T01:35:09Z</time>
      </trkpt>
      <trkpt lat="42.78904" lon="2.94673">
        <ele>7.2</ele>
        <time>1970-01-01T01:35:10Z</time>
      </trkpt>
      <trkpt lat="42.789" lon="2.9468">
        <ele>7.2</ele>
        <time>1970-01-01T01:35:11Z</time>
      </trkpt>
      <trkpt lat="42.78897" lon="2.94686">
        <ele>7</ele>
        <time>1970-01-01T01:35:12Z</time>
      </trkpt>
      <trkpt lat="42.78894" lon="2.94692">
        <ele>7</ele>
        <time>1970-01-01T01:35:13Z</time>
      </trkpt>
      <trkpt lat="42.78891" lon="2.94698">
        <ele>7</ele>
        <time>1970-01-01T01:35:14Z</time>
      </trkpt>
      <trkpt lat="42.78888" lon="2.94703">
        <ele>7</ele>
        <time>1970-01-01T01:35:15Z</time>
      </trkpt>
      <trkpt lat="42.78885" lon="2.94709">
        <ele>6.8</ele>
        <time>1970-01-01T01:35:16Z</time>
      </trkpt>
      <trkpt lat="42.78881" lon="2.94715">
        <ele>6.8</ele>
        <time>1970-01-01T01:35:17Z</time>
      </trkpt>
      <trkpt lat="42.78878" lon="2.9472">
        <ele>6.8</ele>
        <time>1970-01-01T01:35:18Z</time>
      </trkpt>
      <trkpt lat="42.78874" lon="2.94726">
        <ele>6.8</ele>
        <time>1970-01-01T01:35:19Z</time>
      </trkpt>
      <trkpt lat="42.78871" lon="2.94731">
        <ele>6.6</ele>
        <time>1970-01-01T01:35:20Z</time>
      </trkpt>
      <trkpt lat="42.78867" lon="2.94737">
        <ele>6.6</ele>
        <time>1970-01-01T01:35:21Z</time>
      </trkpt>
      <trkpt lat="42.78864" lon="2.94742">
        <ele>6.6</ele>
        <time>1970-01-01T01:35:22Z</time>
      </trkpt>
      <trkpt lat="42.78861" lon="2.94748">
        <ele>6.6</ele>
        <time>1970-01-01T01:35:23Z</time>
      </trkpt>
      <trkpt lat="42.78858" lon="2.94755">
        <ele>6.6</ele>
        <time>1970-01-01T01:35:24Z</time>
      </trkpt>
      <trkpt lat="42.78855" lon="2.94762">
        <ele>6.6</ele>
        <time>1970-01-01T01:35:25Z</time>
      </trkpt>
      <trkpt lat="42.78852" lon="2.94769">
        <ele>6.6</ele>
        <time>1970-01-01T01:35:26Z</time>
      </trkpt>
      <trkpt lat="42.7885" lon="2.94776">
        <ele>6.6</ele>
        <time>1970-01-01T01:35:27Z</time>
      </trkpt>
      <trkpt lat="42.78847" lon="2.94783">
        <ele>6.6</ele>
        <time>1970-01-01T01:35:28Z</time>
      </trkpt>
      <trkpt lat="42.78845" lon="2.94791">
        <ele>6.6</ele>
        <time>1970-01-01T01:35:29Z</time>
      </trkpt>
      <trkpt lat="42.78842" lon="2.94798">
        <ele>6.4</ele>
        <time>1970-01-01T01:35:30Z</time>
      </trkpt>
      <trkpt lat="42.7884" lon="2.94805">
        <ele>6.4</ele>
        <time>1970-01-01T01:35:31Z</time>
      </trkpt>
      <trkpt lat="42.78838" lon="2.94812">
        <ele>6.4</ele>
        <time>1970-01-01T01:35:32Z</time>
      </trkpt>
      <trkpt lat="42.78836" lon="2.94819">
        <ele>6.4</ele>
        <time>1970-01-01T01:35:33Z</time>
      </trkpt>
      <trkpt lat="42.78834" lon="2.94827">
        <ele>6.4</ele>
        <time>1970-01-01T01:35:34Z</time>
      </trkpt>
      <trkpt lat="42.78832" lon="2.94834">
        <ele>6.2</ele>
        <time>1970-01-01T01:35:35Z</time>
      </trkpt>
      <trkpt lat="42.7883" lon="2.94841">
        <ele>6.2</ele>
        <time>1970-01-01T01:35:36Z</time>
      </trkpt>
      <trkpt lat="42.78828" lon="2.94849">
        <ele>6.2</ele>
        <time>1970-01-01T01:35:37Z</time>
      </trkpt>
      <trkpt lat="42.78826" lon="2.94857">
        <ele>6.2</ele>
        <time>1970-01-01T01:35:38Z</time>
      </trkpt>
      <trkpt lat="42.78824" lon="2.94864">
        <ele>6.2</ele>
        <time>1970-01-01T01:35:39Z</time>
      </trkpt>
      <trkpt lat="42.78823" lon="2.94871">
        <ele>6.2</ele>
        <time>1970-01-01T01:35:40Z</time>
      </trkpt>
      <trkpt lat="42.78821" lon="2.94878">
        <ele>6.2</ele>
        <time>1970-01-01T01:35:41Z</time>
      </trkpt>
      <trkpt lat="42.7882" lon="2.94884">
        <ele>6.2</ele>
        <time>1970-01-01T01:35:42Z</time>
      </trkpt>
      <trkpt lat="42.78818" lon="2.9489">
        <ele>6.2</ele>
        <time>1970-01-01T01:35:43Z</time>
      </trkpt>
      <trkpt lat="42.78817" lon="2.94897">
        <ele>6.2</ele>
        <time>1970-01-01T01:35:44Z</time>
      </trkpt>
      <trkpt lat="42.78815" lon="2.94903">
        <ele>6.2</ele>
        <time>1970-01-01T01:35:45Z</time>
      </trkpt>
      <trkpt lat="42.78814" lon="2.9491">
        <ele>6.2</ele>
        <time>1970-01-01T01:35:46Z</time>
      </trkpt>
      <trkpt lat="42.78813" lon="2.94917">
        <ele>6.2</ele>
        <time>1970-01-01T01:35:47Z</time>
      </trkpt>
      <trkpt lat="42.78812" lon="2.94924">
        <ele>6.2</ele>
        <time>1970-01-01T01:35:48Z</time>
      </trkpt>
      <trkpt lat="42.7881" lon="2.94931">
        <ele>6.2</ele>
        <time>1970-01-01T01:35:49Z</time>
      </trkpt>
      <trkpt lat="42.78808" lon="2.94938">
        <ele>6.2</ele>
        <time>1970-01-01T01:35:50Z</time>
      </trkpt>
      <trkpt lat="42.78806" lon="2.94944">
        <ele>6.2</ele>
        <time>1970-01-01T01:35:51Z</time>
      </trkpt>
      <trkpt lat="42.78804" lon="2.94952">
        <ele>6.2</ele>
        <time>1970-01-01T01:35:52Z</time>
      </trkpt>
      <trkpt lat="42.78803" lon="2.94959">
        <ele>6.2</ele>
        <time>1970-01-01T01:35:53Z</time>
      </trkpt>
      <trkpt lat="42.78801" lon="2.94966">
        <ele>6.2</ele>
        <time>1970-01-01T01:35:54Z</time>
      </trkpt>
      <trkpt lat="42.788" lon="2.94972">
        <ele>6.2</ele>
        <time>1970-01-01T01:35:55Z</time>
      </trkpt>
      <trkpt lat="42.78799" lon="2.94979">
        <ele>6.2</ele>
        <time>1970-01-01T01:35:56Z</time>
      </trkpt>
      <trkpt lat="42.78797" lon="2.94985">
        <ele>6.2</ele>
        <time>1970-01-01T01:35:57Z</time>
      </trkpt>
      <trkpt lat="42.78796" lon="2.94992">
        <ele>6.2</ele>
        <time>1970-01-01T01:35:58Z</time>
      </trkpt>
      <trkpt lat="42.78795" lon="2.94999">
        <ele>6.2</ele>
        <time>1970-01-01T01:35:59Z</time>
      </trkpt>
      <trkpt lat="42.78793" lon="2.95005">
        <ele>6.2</ele>
        <time>1970-01-01T01:36:00Z</time>
      </trkpt>
      <trkpt lat="42.78791" lon="2.95012">
        <ele>6.2</ele>
        <time>1970-01-01T01:36:01Z</time>
      </trkpt>
      <trkpt lat="42.78789" lon="2.95019">
        <ele>6.2</ele>
        <time>1970-01-01T01:36:02Z</time>
      </trkpt>
      <trkpt lat="42.78787" lon="2.95025">
        <ele>6.2</ele>
        <time>1970-01-01T01:36:03Z</time>
      </trkpt>
      <trkpt lat="42.78786" lon="2.95031">
        <ele>6</ele>
        <time>1970-01-01T01:36:04Z</time>
      </trkpt>
      <trkpt lat="42.78784" lon="2.95037">
        <ele>6</ele>
        <time>1970-01-01T01:36:05Z</time>
      </trkpt>
      <trkpt lat="42.78783" lon="2.95043">
        <ele>6</ele>
        <time>1970-01-01T01:36:06Z</time>
      </trkpt>
      <trkpt lat="42.78781" lon="2.95049">
        <ele>6</ele>
        <time>1970-01-01T01:36:07Z</time>
      </trkpt>
      <trkpt lat="42.7878" lon="2.95054">
        <ele>6</ele>
        <time>1970-01-01T01:36:08Z</time>
      </trkpt>
      <trkpt lat="42.78779" lon="2.9506">
        <ele>6</ele>
        <time>1970-01-01T01:36:09Z</time>
      </trkpt>
      <trkpt lat="42.78778" lon="2.95065">
        <ele>6</ele>
        <time>1970-01-01T01:36:10Z</time>
      </trkpt>
      <trkpt lat="42.78776" lon="2.95071">
        <ele>6</ele>
        <time>1970-01-01T01:36:11Z</time>
      </trkpt>
      <trkpt lat="42.78775" lon="2.95076">
        <ele>6</ele>
        <time>1970-01-01T01:36:12Z</time>
      </trkpt>
      <trkpt lat="42.78773" lon="2.95082">
        <ele>6</ele>
        <time>1970-01-01T01:36:13Z</time>
      </trkpt>
      <trkpt lat="42.78771" lon="2.95088">
        <ele>6</ele>
        <time>1970-01-01T01:36:14Z</time>
      </trkpt>
      <trkpt lat="42.7877" lon="2.95095">
        <ele>5.8</ele>
        <time>1970-01-01T01:36:15Z</time>
      </trkpt>
      <trkpt lat="42.78768" lon="2.95101">
        <ele>5.8</ele>
        <time>1970-01-01T01:36:16Z</time>
      </trkpt>
      <trkpt lat="42.78767" lon="2.95108">
        <ele>5.8</ele>
        <time>1970-01-01T01:36:17Z</time>
      </trkpt>
      <trkpt lat="42.78765" lon="2.95115">
        <ele>5.8</ele>
        <time>1970-01-01T01:36:18Z</time>
      </trkpt>
      <trkpt lat="42.78763" lon="2.95121">
        <ele>5.8</ele>
        <time>1970-01-01T01:36:19Z</time>
      </trkpt>
      <trkpt lat="42.78761" lon="2.95128">
        <ele>5.8</ele>
        <time>1970-01-01T01:36:20Z</time>
      </trkpt>
      <trkpt lat="42.78759" lon="2.95135">
        <ele>5.8</ele>
        <time>1970-01-01T01:36:21Z</time>
      </trkpt>
      <trkpt lat="42.78757" lon="2.95142">
        <ele>5.8</ele>
        <time>1970-01-01T01:36:22Z</time>
      </trkpt>
      <trkpt lat="42.78755" lon="2.95149">
        <ele>5.8</ele>
        <time>1970-01-01T01:36:23Z</time>
      </trkpt>
      <trkpt lat="42.78753" lon="2.95157">
        <ele>5.8</ele>
        <time>1970-01-01T01:36:24Z</time>
      </trkpt>
      <trkpt lat="42.78751" lon="2.95164">
        <ele>5.6</ele>
        <time>1970-01-01T01:36:25Z</time>
      </trkpt>
      <trkpt lat="42.78749" lon="2.95172">
        <ele>5.6</ele>
        <time>1970-01-01T01:36:26Z</time>
      </trkpt>
      <trkpt lat="42.78747" lon="2.95179">
        <ele>5.6</ele>
        <time>1970-01-01T01:36:27Z</time>
      </trkpt>
      <trkpt lat="42.78744" lon="2.95185">
        <ele>5.6</ele>
        <time>1970-01-01T01:36:28Z</time>
      </trkpt>
      <trkpt lat="42.78742" lon="2.95192">
        <ele>5.6</ele>
        <time>1970-01-01T01:36:29Z</time>
      </trkpt>
      <trkpt lat="42.7874" lon="2.95199">
        <ele>5.6</ele>
        <time>1970-01-01T01:36:30Z</time>
      </trkpt>
      <trkpt lat="42.78737" lon="2.95206">
        <ele>5.6</ele>
        <time>1970-01-01T01:36:31Z</time>
      </trkpt>
      <trkpt lat="42.78734" lon="2.95212">
        <ele>5.6</ele>
        <time>1970-01-01T01:36:32Z</time>
      </trkpt>
      <trkpt lat="42.78731" lon="2.95219">
        <ele>5.4</ele>
        <time>1970-01-01T01:36:33Z</time>
      </trkpt>
      <trkpt lat="42.78728" lon="2.95225">
        <ele>5.4</ele>
        <time>1970-01-01T01:36:34Z</time>
      </trkpt>
      <trkpt lat="42.78725" lon="2.95231">
        <ele>5.4</ele>
        <time>1970-01-01T01:36:35Z</time>
      </trkpt>
      <trkpt lat="42.78721" lon="2.95237">
        <ele>5.4</ele>
        <time>1970-01-01T01:36:36Z</time>
      </trkpt>
      <trkpt lat="42.78718" lon="2.95243">
        <ele>5.4</ele>
        <time>1970-01-01T01:36:37Z</time>
      </trkpt>
      <trkpt lat="42.78715" lon="2.95249">
        <ele>5.4</ele>
        <time>1970-01-01T01:36:38Z</time>
      </trkpt>
      <trkpt lat="42.78711" lon="2.95253">
        <ele>5.4</ele>
        <time>1970-01-01T01:36:39Z</time>
      </trkpt>
      <trkpt lat="42.78707" lon="2.95258">
        <ele>5.4</ele>
        <time>1970-01-01T01:36:40Z</time>
      </trkpt>
      <trkpt lat="42.78704" lon="2.95262">
        <ele>5.4</ele>
        <time>1970-01-01T01:36:41Z</time>
      </trkpt>
      <trkpt lat="42.787" lon="2.95267">
        <ele>5.4</ele>
        <time>1970-01-01T01:36:42Z</time>
      </trkpt>
      <trkpt lat="42.78697" lon="2.95272">
        <ele>5.4</ele>
        <time>1970-01-01T01:36:43Z</time>
      </trkpt>
      <trkpt lat="42.78693" lon="2.95277">
        <ele>5.4</ele>
        <time>1970-01-01T01:36:44Z</time>
      </trkpt>
      <trkpt lat="42.7869" lon="2.95283">
        <ele>5.4</ele>
        <time>1970-01-01T01:36:45Z</time>
      </trkpt>
      <trkpt lat="42.78687" lon="2.95288">
        <ele>5.4</ele>
        <time>1970-01-01T01:36:46Z</time>
      </trkpt>
      <trkpt lat="42.78684" lon="2.95293">
        <ele>5.2</ele>
        <time>1970-01-01T01:36:47Z</time>
      </trkpt>
      <trkpt lat="42.78682" lon="2.95298">
        <ele>5.2</ele>
        <time>1970-01-01T01:36:48Z</time>
      </trkpt>
      <trkpt lat="42.78679" lon="2.95303">
        <ele>5.2</ele>
        <time>1970-01-01T01:36:49Z</time>
      </trkpt>
      <trkpt lat="42.78676" lon="2.95308">
        <ele>5.2</ele>
        <time>1970-01-01T01:36:50Z</time>
      </trkpt>
      <trkpt lat="42.78674" lon="2.95313">
        <ele>5.2</ele>
        <time>1970-01-01T01:36:51Z</time>
      </trkpt>
      <trkpt lat="42.78671" lon="2.95319">
        <ele>5.2</ele>
        <time>1970-01-01T01:36:52Z</time>
      </trkpt>
      <trkpt lat="42.78668" lon="2.95325">
        <ele>5.2</ele>
        <time>1970-01-01T01:36:53Z</time>
      </trkpt>
      <trkpt lat="42.78665" lon="2.9533">
        <ele>5.2</ele>
        <time>1970-01-01T01:36:54Z</time>
      </trkpt>
      <trkpt lat="42.78662" lon="2.95335">
        <ele>5.2</ele>
        <time>1970-01-01T01:36:55Z</time>
      </trkpt>
      <trkpt lat="42.78659" lon="2.95341">
        <ele>5.2</ele>
        <time>1970-01-01T01:36:56Z</time>
      </trkpt>
      <trkpt lat="42.78657" lon="2.95346">
        <ele>5.2</ele>
        <time>1970-01-01T01:36:57Z</time>
      </trkpt>
      <trkpt lat="42.78654" lon="2.95351">
        <ele>5.2</ele>
        <time>1970-01-01T01:36:58Z</time>
      </trkpt>
      <trkpt lat="42.78651" lon="2.95355">
        <ele>5.2</ele>
        <time>1970-01-01T01:36:59Z</time>
      </trkpt>
      <trkpt lat="42.78648" lon="2.9536">
        <ele>5.2</ele>
        <time>1970-01-01T01:37:00Z</time>
      </trkpt>
      <trkpt lat="42.78645" lon="2.95365">
        <ele>5.2</ele>
        <time>1970-01-01T01:37:01Z</time>
      </trkpt>
      <trkpt lat="42.78642" lon="2.9537">
        <ele>5.2</ele>
        <time>1970-01-01T01:37:02Z</time>
      </trkpt>
      <trkpt lat="42.78639" lon="2.95375">
        <ele>5.2</ele>
        <time>1970-01-01T01:37:03Z</time>
      </trkpt>
      <trkpt lat="42.78636" lon="2.9538">
        <ele>5.2</ele>
        <time>1970-01-01T01:37:04Z</time>
      </trkpt>
      <trkpt lat="42.78633" lon="2.95385">
        <ele>5.2</ele>
        <time>1970-01-01T01:37:05Z</time>
      </trkpt>
      <trkpt lat="42.7863" lon="2.95391">
        <ele>5</ele>
        <time>1970-01-01T01:37:06Z</time>
      </trkpt>
      <trkpt lat="42.78626" lon="2.95396">
        <ele>5</ele>
        <time>1970-01-01T01:37:07Z</time>
      </trkpt>
      <trkpt lat="42.78623" lon="2.95402">
        <ele>5</ele>
        <time>1970-01-01T01:37:08Z</time>
      </trkpt>
      <trkpt lat="42.7862" lon="2.95408">
        <ele>5</ele>
        <time>1970-01-01T01:37:09Z</time>
      </trkpt>
      <trkpt lat="42.78617" lon="2.95414">
        <ele>5</ele>
        <time>1970-01-01T01:37:10Z</time>
      </trkpt>
      <trkpt lat="42.78614" lon="2.9542">
        <ele>5</ele>
        <time>1970-01-01T01:37:11Z</time>
      </trkpt>
      <trkpt lat="42.78611" lon="2.95425">
        <ele>5</ele>
        <time>1970-01-01T01:37:12Z</time>
      </trkpt>
      <trkpt lat="42.78609" lon="2.95431">
        <ele>5</ele>
        <time>1970-01-01T01:37:13Z</time>
      </trkpt>
      <trkpt lat="42.78606" lon="2.95437">
        <ele>5</ele>
        <time>1970-01-01T01:37:14Z</time>
      </trkpt>
      <trkpt lat="42.78604" lon="2.95442">
        <ele>5</ele>
        <time>1970-01-01T01:37:15Z</time>
      </trkpt>
      <trkpt lat="42.78601" lon="2.95448">
        <ele>5</ele>
        <time>1970-01-01T01:37:16Z</time>
      </trkpt>
      <trkpt lat="42.78598" lon="2.95454">
        <ele>5</ele>
        <time>1970-01-01T01:37:17Z</time>
      </trkpt>
      <trkpt lat="42.78596" lon="2.9546">
        <ele>5</ele>
        <time>1970-01-01T01:37:18Z</time>
      </trkpt>
      <trkpt lat="42.78593" lon="2.95466">
        <ele>5</ele>
        <time>1970-01-01T01:37:19Z</time>
      </trkpt>
      <trkpt lat="42.7859" lon="2.95471">
        <ele>5</ele>
        <time>1970-01-01T01:37:20Z</time>
      </trkpt>
      <trkpt lat="42.78587" lon="2.95476">
        <ele>5</ele>
        <time>1970-01-01T01:37:21Z</time>
      </trkpt>
      <trkpt lat="42.78584" lon="2.95482">
        <ele>5</ele>
        <time>1970-01-01T01:37:22Z</time>
      </trkpt>
      <trkpt lat="42.78582" lon="2.95487">
        <ele>5</ele>
        <time>1970-01-01T01:37:23Z</time>
      </trkpt>
      <trkpt lat="42.78579" lon="2.95493">
        <ele>5</ele>
        <time>1970-01-01T01:37:24Z</time>
      </trkpt>
      <trkpt lat="42.78577" lon="2.95499">
        <ele>5</ele>
        <time>1970-01-01T01:37:25Z</time>
      </trkpt>
      <trkpt lat="42.78575" lon="2.95505">
        <ele>5</ele>
        <time>1970-01-01T01:37:26Z</time>
      </trkpt>
      <trkpt lat="42.78572" lon="2.95511">
        <ele>5</ele>
        <time>1970-01-01T01:37:27Z</time>
      </trkpt>
      <trkpt lat="42.7857" lon="2.95517">
        <ele>5</ele>
        <time>1970-01-01T01:37:28Z</time>
      </trkpt>
      <trkpt lat="42.78568" lon="2.95523">
        <ele>4.8</ele>
        <time>1970-01-01T01:37:29Z</time>
      </trkpt>
      <trkpt lat="42.78566" lon="2.95529">
        <ele>4.8</ele>
        <time>1970-01-01T01:37:30Z</time>
      </trkpt>
      <trkpt lat="42.78563" lon="2.95535">
        <ele>4.8</ele>
        <time>1970-01-01T01:37:31Z</time>
      </trkpt>
      <trkpt lat="42.78561" lon="2.95541">
        <ele>4.8</ele>
        <time>1970-01-01T01:37:32Z</time>
      </trkpt>
      <trkpt lat="42.78558" lon="2.95547">
        <ele>4.8</ele>
        <time>1970-01-01T01:37:33Z</time>
      </trkpt>
      <trkpt lat="42.78556" lon="2.95552">
        <ele>4.8</ele>
        <time>1970-01-01T01:37:34Z</time>
      </trkpt>
      <trkpt lat="42.78554" lon="2.95558">
        <ele>4.8</ele>
        <time>1970-01-01T01:37:35Z</time>
      </trkpt>
      <trkpt lat="42.78552" lon="2.95563">
        <ele>4.8</ele>
        <time>1970-01-01T01:37:36Z</time>
      </trkpt>
      <trkpt lat="42.78549" lon="2.95569">
        <ele>4.8</ele>
        <time>1970-01-01T01:37:37Z</time>
      </trkpt>
      <trkpt lat="42.78546" lon="2.95574">
        <ele>4.8</ele>
        <time>1970-01-01T01:37:38Z</time>
      </trkpt>
      <trkpt lat="42.78543" lon="2.9558">
        <ele>4.8</ele>
        <time>1970-01-01T01:37:39Z</time>
      </trkpt>
      <trkpt lat="42.78541" lon="2.95585">
        <ele>4.8</ele>
        <time>1970-01-01T01:37:40Z</time>
      </trkpt>
      <trkpt lat="42.78539" lon="2.9559">
        <ele>4.8</ele>
        <time>1970-01-01T01:37:41Z</time>
      </trkpt>
      <trkpt lat="42.78536" lon="2.95596">
        <ele>4.8</ele>
        <time>1970-01-01T01:37:42Z</time>
      </trkpt>
      <trkpt lat="42.78533" lon="2.95602">
        <ele>4.8</ele>
        <time>1970-01-01T01:37:43Z</time>
      </trkpt>
      <trkpt lat="42.7853" lon="2.95608">
        <ele>4.8</ele>
        <time>1970-01-01T01:37:44Z</time>
      </trkpt>
      <trkpt lat="42.78527" lon="2.95613">
        <ele>4.6</ele>
        <time>1970-01-01T01:37:45Z</time>
      </trkpt>
      <trkpt lat="42.78524" lon="2.95618">
        <ele>4.6</ele>
        <time>1970-01-01T01:37:46Z</time>
      </trkpt>
      <trkpt lat="42.78521" lon="2.95623">
        <ele>4.6</ele>
        <time>1970-01-01T01:37:47Z</time>
      </trkpt>
      <trkpt lat="42.78517" lon="2.95627">
        <ele>4.6</ele>
        <time>1970-01-01T01:37:48Z</time>
      </trkpt>
      <trkpt lat="42.78514" lon="2.95631">
        <ele>4.6</ele>
        <time>1970-01-01T01:37:49Z</time>
      </trkpt>
      <trkpt lat="42.7851" lon="2.95634">
        <ele>4.6</ele>
        <time>1970-01-01T01:37:50Z</time>
      </trkpt>
      <trkpt lat="42.78506" lon="2.95637">
        <ele>4.6</ele>
        <time>1970-01-01T01:37:51Z</time>
      </trkpt>
      <trkpt lat="42.78502" lon="2.9564">
        <ele>4.8</ele>
        <time>1970-01-01T01:37:52Z</time>
      </trkpt>
      <trkpt lat="42.78498" lon="2.95644">
        <ele>4.8</ele>
        <time>1970-01-01T01:37:53Z</time>
      </trkpt>
      <trkpt lat="42.78494" lon="2.95647">
        <ele>4.8</ele>
        <time>1970-01-01T01:37:54Z</time>
      </trkpt>
      <trkpt lat="42.78491" lon="2.9565">
        <ele>4.8</ele>
        <time>1970-01-01T01:37:55Z</time>
      </trkpt>
      <trkpt lat="42.78487" lon="2.95653">
        <ele>4.8</ele>
        <time>1970-01-01T01:37:56Z</time>
      </trkpt>
      <trkpt lat="42.78483" lon="2.95656">
        <ele>4.8</ele>
        <time>1970-01-01T01:37:57Z</time>
      </trkpt>
      <trkpt lat="42.7848" lon="2.9566">
        <ele>4.8</ele>
        <time>1970-01-01T01:37:58Z</time>
      </trkpt>
      <trkpt lat="42.78475" lon="2.95663">
        <ele>4.8</ele>
        <time>1970-01-01T01:37:59Z</time>
      </trkpt>
      <trkpt lat="42.78471" lon="2.95666">
        <ele>5</ele>
        <time>1970-01-01T01:38:00Z</time>
      </trkpt>
      <trkpt lat="42.78467" lon="2.9567">
        <ele>5</ele>
        <time>1970-01-01T01:38:01Z</time>
      </trkpt>
      <trkpt lat="42.78463" lon="2.95673">
        <ele>5</ele>
        <time>1970-01-01T01:38:02Z</time>
      </trkpt>
      <trkpt lat="42.78458" lon="2.95677">
        <ele>5</ele>
        <time>1970-01-01T01:38:03Z</time>
      </trkpt>
      <trkpt lat="42.78454" lon="2.95681">
        <ele>5.2</ele>
        <time>1970-01-01T01:38:04Z</time>
      </trkpt>
      <trkpt lat="42.7845" lon="2.95686">
        <ele>5.2</ele>
        <time>1970-01-01T01:38:05Z</time>
      </trkpt>
      <trkpt lat="42.78446" lon="2.9569">
        <ele>5.2</ele>
        <time>1970-01-01T01:38:06Z</time>
      </trkpt>
      <trkpt lat="42.78442" lon="2.95694">
        <ele>5.2</ele>
        <time>1970-01-01T01:38:07Z</time>
      </trkpt>
      <trkpt lat="42.78438" lon="2.95698">
        <ele>5.4</ele>
        <time>1970-01-01T01:38:08Z</time>
      </trkpt>
      <trkpt lat="42.78434" lon="2.95702">
        <ele>5.4</ele>
        <time>1970-01-01T01:38:09Z</time>
      </trkpt>
      <trkpt lat="42.7843" lon="2.95706">
        <ele>5.4</ele>
        <time>1970-01-01T01:38:10Z</time>
      </trkpt>
      <trkpt lat="42.78427" lon="2.9571">
        <ele>5.4</ele>
        <time>1970-01-01T01:38:11Z</time>
      </trkpt>
      <trkpt lat="42.78423" lon="2.95714">
        <ele>5.4</ele>
        <time>1970-01-01T01:38:12Z</time>
      </trkpt>
      <trkpt lat="42.7842" lon="2.95718">
        <ele>5.4</ele>
        <time>1970-01-01T01:38:13Z</time>
      </trkpt>
      <trkpt lat="42.78416" lon="2.95722">
        <ele>5.4</ele>
        <time>1970-01-01T01:38:14Z</time>
      </trkpt>
      <trkpt lat="42.78412" lon="2.95726">
        <ele>5.4</ele>
        <time>1970-01-01T01:38:15Z</time>
      </trkpt>
      <trkpt lat="42.78409" lon="2.9573">
        <ele>5.4</ele>
        <time>1970-01-01T01:38:16Z</time>
      </trkpt>
      <trkpt lat="42.78405" lon="2.95733">
        <ele>5.4</ele>
        <time>1970-01-01T01:38:17Z</time>
      </trkpt>
      <trkpt lat="42.78401" lon="2.95737">
        <ele>5.6</ele>
        <time>1970-01-01T01:38:18Z</time>
      </trkpt>
      <trkpt lat="42.78398" lon="2.95741">
        <ele>5.6</ele>
        <time>1970-01-01T01:38:19Z</time>
      </trkpt>
      <trkpt lat="42.78394" lon="2.95745">
        <ele>5.6</ele>
        <time>1970-01-01T01:38:20Z</time>
      </trkpt>
      <trkpt lat="42.7839" lon="2.9575">
        <ele>5.6</ele>
        <time>1970-01-01T01:38:21Z</time>
      </trkpt>
      <trkpt lat="42.78386" lon="2.95754">
        <ele>5.6</ele>
        <time>1970-01-01T01:38:22Z</time>
      </trkpt>
      <trkpt lat="42.78383" lon="2.95758">
        <ele>5.6</ele>
        <time>1970-01-01T01:38:23Z</time>
      </trkpt>
      <trkpt lat="42.78379" lon="2.95762">
        <ele>5.6</ele>
        <time>1970-01-01T01:38:24Z</time>
      </trkpt>
      <trkpt lat="42.78375" lon="2.95766">
        <ele>5.6</ele>
        <time>1970-01-01T01:38:25Z</time>
      </trkpt>
      <trkpt lat="42.78372" lon="2.9577">
        <ele>5.6</ele>
        <time>1970-01-01T01:38:26Z</time>
      </trkpt>
      <trkpt lat="42.78369" lon="2.95774">
        <ele>5.6</ele>
        <time>1970-01-01T01:38:27Z</time>
      </trkpt>
      <trkpt lat="42.78365" lon="2.95779">
        <ele>5.6</ele>
        <time>1970-01-01T01:38:28Z</time>
      </trkpt>
      <trkpt lat="42.78362" lon="2.95783">
        <ele>5.6</ele>
        <time>1970-01-01T01:38:29Z</time>
      </trkpt>
      <trkpt lat="42.78359" lon="2.95787">
        <ele>5.6</ele>
        <time>1970-01-01T01:38:30Z</time>
      </trkpt>
      <trkpt lat="42.78356" lon="2.95791">
        <ele>5.6</ele>
        <time>1970-01-01T01:38:31Z</time>
      </trkpt>
      <trkpt lat="42.78353" lon="2.95795">
        <ele>5.6</ele>
        <time>1970-01-01T01:38:32Z</time>
      </trkpt>
      <trkpt lat="42.7835" lon="2.958">
        <ele>5.6</ele>
        <time>1970-01-01T01:38:33Z</time>
      </trkpt>
      <trkpt lat="42.78347" lon="2.95804">
        <ele>5.6</ele>
        <time>1970-01-01T01:38:34Z</time>
      </trkpt>
      <trkpt lat="42.78344" lon="2.95809">
        <ele>5.6</ele>
        <time>1970-01-01T01:38:35Z</time>
      </trkpt>
      <trkpt lat="42.78341" lon="2.95814">
        <ele>5.6</ele>
        <time>1970-01-01T01:38:36Z</time>
      </trkpt>
      <trkpt lat="42.78339" lon="2.95818">
        <ele>5.6</ele>
        <time>1970-01-01T01:38:37Z</time>
      </trkpt>
      <trkpt lat="42.78336" lon="2.95823">
        <ele>5.6</ele>
        <time>1970-01-01T01:38:38Z</time>
      </trkpt>
      <trkpt lat="42.78334" lon="2.95828">
        <ele>5.6</ele>
        <time>1970-01-01T01:38:39Z</time>
      </trkpt>
      <trkpt lat="42.78332" lon="2.95833">
        <ele>5.6</ele>
        <time>1970-01-01T01:38:40Z</time>
      </trkpt>
      <trkpt lat="42.7833" lon="2.95839">
        <ele>5.6</ele>
        <time>1970-01-01T01:38:41Z</time>
      </trkpt>
      <trkpt lat="42.78328" lon="2.95845">
        <ele>5.6</ele>
        <time>1970-01-01T01:38:42Z</time>
      </trkpt>
      <trkpt lat="42.78326" lon="2.95851">
        <ele>5.6</ele>
        <time>1970-01-01T01:38:43Z</time>
      </trkpt>
      <trkpt lat="42.78325" lon="2.95857">
        <ele>5.4</ele>
        <time>1970-01-01T01:38:44Z</time>
      </trkpt>
      <trkpt lat="42.78323" lon="2.95862">
        <ele>5.4</ele>
        <time>1970-01-01T01:38:45Z</time>
      </trkpt>
      <trkpt lat="42.78322" lon="2.95867">
        <ele>5.4</ele>
        <time>1970-01-01T01:38:46Z</time>
      </trkpt>
      <trkpt lat="42.78321" lon="2.95872">
        <ele>5.4</ele>
        <time>1970-01-01T01:38:47Z</time>
      </trkpt>
      <trkpt lat="42.78319" lon="2.95878">
        <ele>5.4</ele>
        <time>1970-01-01T01:38:48Z</time>
      </trkpt>
      <trkpt lat="42.78317" lon="2.95883">
        <ele>5.4</ele>
        <time>1970-01-01T01:38:49Z</time>
      </trkpt>
      <trkpt lat="42.78315" lon="2.95888">
        <ele>5.6</ele>
        <time>1970-01-01T01:38:50Z</time>
      </trkpt>
      <trkpt lat="42.78313" lon="2.95893">
        <ele>5.6</ele>
        <time>1970-01-01T01:38:51Z</time>
      </trkpt>
      <trkpt lat="42.78311" lon="2.95897">
        <ele>5.6</ele>
        <time>1970-01-01T01:38:52Z</time>
      </trkpt>
      <trkpt lat="42.78308" lon="2.95903">
        <ele>5.6</ele>
        <time>1970-01-01T01:38:53Z</time>
      </trkpt>
      <trkpt lat="42.78306" lon="2.95908">
        <ele>5.6</ele>
        <time>1970-01-01T01:38:54Z</time>
      </trkpt>
      <trkpt lat="42.78303" lon="2.95912">
        <ele>5.6</ele>
        <time>1970-01-01T01:38:55Z</time>
      </trkpt>
      <trkpt lat="42.783" lon="2.95917">
        <ele>5.4</ele>
        <time>1970-01-01T01:38:56Z</time>
      </trkpt>
      <trkpt lat="42.78298" lon="2.95923">
        <ele>5.4</ele>
        <time>1970-01-01T01:38:57Z</time>
      </trkpt>
      <trkpt lat="42.78295" lon="2.95928">
        <ele>5.4</ele>
        <time>1970-01-01T01:38:58Z</time>
      </trkpt>
      <trkpt lat="42.78293" lon="2.95934">
        <ele>5.4</ele>
        <time>1970-01-01T01:38:59Z</time>
      </trkpt>
      <trkpt lat="42.78291" lon="2.9594">
        <ele>5.4</ele>
        <time>1970-01-01T01:39:00Z</time>
      </trkpt>
      <trkpt lat="42.78289" lon="2.95946">
        <ele>5.4</ele>
        <time>1970-01-01T01:39:01Z</time>
      </trkpt>
      <trkpt lat="42.78288" lon="2.95953">
        <ele>5.2</ele>
        <time>1970-01-01T01:39:02Z</time>
      </trkpt>
      <trkpt lat="42.78287" lon="2.95959">
        <ele>5.2</ele>
        <time>1970-01-01T01:39:03Z</time>
      </trkpt>
      <trkpt lat="42.78286" lon="2.95966">
        <ele>5.2</ele>
        <time>1970-01-01T01:39:04Z</time>
      </trkpt>
      <trkpt lat="42.78285" lon="2.95972">
        <ele>5</ele>
        <time>1970-01-01T01:39:05Z</time>
      </trkpt>
      <trkpt lat="42.78284" lon="2.95979">
        <ele>5</ele>
        <time>1970-01-01T01:39:06Z</time>
      </trkpt>
      <trkpt lat="42.78284" lon="2.95985">
        <ele>5</ele>
        <time>1970-01-01T01:39:07Z</time>
      </trkpt>
      <trkpt lat="42.78283" lon="2.95991">
        <ele>5</ele>
        <time>1970-01-01T01:39:08Z</time>
      </trkpt>
      <trkpt lat="42.78283" lon="2.95997">
        <ele>4.8</ele>
        <time>1970-01-01T01:39:09Z</time>
      </trkpt>
      <trkpt lat="42.78282" lon="2.96003">
        <ele>4.8</ele>
        <time>1970-01-01T01:39:10Z</time>
      </trkpt>
      <trkpt lat="42.78282" lon="2.96009">
        <ele>4.8</ele>
        <time>1970-01-01T01:39:11Z</time>
      </trkpt>
      <trkpt lat="42.78282" lon="2.96015">
        <ele>4.8</ele>
        <time>1970-01-01T01:39:12Z</time>
      </trkpt>
      <trkpt lat="42.78282" lon="2.96022">
        <ele>4.6</ele>
        <time>1970-01-01T01:39:13Z</time>
      </trkpt>
      <trkpt lat="42.78282" lon="2.96028">
        <ele>4.6</ele>
        <time>1970-01-01T01:39:14Z</time>
      </trkpt>
      <trkpt lat="42.78282" lon="2.96035">
        <ele>4.4</ele>
        <time>1970-01-01T01:39:15Z</time>
      </trkpt>
      <trkpt lat="42.78283" lon="2.96041">
        <ele>4.4</ele>
        <time>1970-01-01T01:39:16Z</time>
      </trkpt>
      <trkpt lat="42.78283" lon="2.96048">
        <ele>4.4</ele>
        <time>1970-01-01T01:39:17Z</time>
      </trkpt>
      <trkpt lat="42.78283" lon="2.96055">
        <ele>4.4</ele>
        <time>1970-01-01T01:39:18Z</time>
      </trkpt>
      <trkpt lat="42.78283" lon="2.96061">
        <ele>4.2</ele>
        <time>1970-01-01T01:39:19Z</time>
      </trkpt>
      <trkpt lat="42.78284" lon="2.96067">
        <ele>4.2</ele>
        <time>1970-01-01T01:39:20Z</time>
      </trkpt>
      <trkpt lat="42.78285" lon="2.96073">
        <ele>4.2</ele>
        <time>1970-01-01T01:39:21Z</time>
      </trkpt>
      <trkpt lat="42.78286" lon="2.96078">
        <ele>4.2</ele>
        <time>1970-01-01T01:39:22Z</time>
      </trkpt>
      <trkpt lat="42.78287" lon="2.96084">
        <ele>4</ele>
        <time>1970-01-01T01:39:23Z</time>
      </trkpt>
      <trkpt lat="42.78287" lon="2.9609">
        <ele>4</ele>
        <time>1970-01-01T01:39:24Z</time>
      </trkpt>
      <trkpt lat="42.78287" lon="2.96097">
        <ele>4</ele>
        <time>1970-01-01T01:39:25Z</time>
      </trkpt>
      <trkpt lat="42.78287" lon="2.96104">
        <ele>4</ele>
        <time>1970-01-01T01:39:26Z</time>
      </trkpt>
      <trkpt lat="42.78287" lon="2.9611">
        <ele>4</ele>
        <time>1970-01-01T01:39:27Z</time>
      </trkpt>
      <trkpt lat="42.78287" lon="2.96117">
        <ele>4</ele>
        <time>1970-01-01T01:39:28Z</time>
      </trkpt>
      <trkpt lat="42.78288" lon="2.96123">
        <ele>4</ele>
        <time>1970-01-01T01:39:29Z</time>
      </trkpt>
      <trkpt lat="42.78288" lon="2.9613">
        <ele>4</ele>
        <time>1970-01-01T01:39:30Z</time>
      </trkpt>
      <trkpt lat="42.78288" lon="2.96136">
        <ele>4</ele>
        <time>1970-01-01T01:39:31Z</time>
      </trkpt>
      <trkpt lat="42.78288" lon="2.96143">
        <ele>4</ele>
        <time>1970-01-01T01:39:32Z</time>
      </trkpt>
      <trkpt lat="42.78289" lon="2.96149">
        <ele>4</ele>
        <time>1970-01-01T01:39:33Z</time>
      </trkpt>
      <trkpt lat="42.78289" lon="2.96155">
        <ele>4</ele>
        <time>1970-01-01T01:39:34Z</time>
      </trkpt>
      <trkpt lat="42.7829" lon="2.9616">
        <ele>4</ele>
        <time>1970-01-01T01:39:35Z</time>
      </trkpt>
      <trkpt lat="42.7829" lon="2.96166">
        <ele>4</ele>
        <time>1970-01-01T01:39:36Z</time>
      </trkpt>
      <trkpt lat="42.7829" lon="2.96171">
        <ele>4</ele>
        <time>1970-01-01T01:39:37Z</time>
      </trkpt>
      <trkpt lat="42.7829" lon="2.96177">
        <ele>4</ele>
        <time>1970-01-01T01:39:38Z</time>
      </trkpt>
      <trkpt lat="42.7829" lon="2.96183">
        <ele>4</ele>
        <time>1970-01-01T01:39:39Z</time>
      </trkpt>
      <trkpt lat="42.7829" lon="2.96189">
        <ele>4</ele>
        <time>1970-01-01T01:39:40Z</time>
      </trkpt>
      <trkpt lat="42.78289" lon="2.96196">
        <ele>4.2</ele>
        <time>1970-01-01T01:39:41Z</time>
      </trkpt>
      <trkpt lat="42.78289" lon="2.96202">
        <ele>4.2</ele>
        <time>1970-01-01T01:39:42Z</time>
      </trkpt>
      <trkpt lat="42.78289" lon="2.96208">
        <ele>4.2</ele>
        <time>1970-01-01T01:39:43Z</time>
      </trkpt>
      <trkpt lat="42.78289" lon="2.96214">
        <ele>4</ele>
        <time>1970-01-01T01:39:44Z</time>
      </trkpt>
      <trkpt lat="42.78288" lon="2.9622">
        <ele>4</ele>
        <time>1970-01-01T01:39:45Z</time>
      </trkpt>
      <trkpt lat="42.78288" lon="2.96227">
        <ele>4</ele>
        <time>1970-01-01T01:39:46Z</time>
      </trkpt>
      <trkpt lat="42.78288" lon="2.96233">
        <ele>4</ele>
        <time>1970-01-01T01:39:47Z</time>
      </trkpt>
      <trkpt lat="42.78287" lon="2.9624">
        <ele>4</ele>
        <time>1970-01-01T01:39:48Z</time>
      </trkpt>
      <trkpt lat="42.78287" lon="2.96247">
        <ele>4</ele>
        <time>1970-01-01T01:39:49Z</time>
      </trkpt>
      <trkpt lat="42.78287" lon="2.96254">
        <ele>4</ele>
        <time>1970-01-01T01:39:50Z</time>
      </trkpt>
      <trkpt lat="42.78286" lon="2.96259">
        <ele>4</ele>
        <time>1970-01-01T01:39:51Z</time>
      </trkpt>
      <trkpt lat="42.78286" lon="2.96266">
        <ele>4.2</ele>
        <time>1970-01-01T01:39:52Z</time>
      </trkpt>
      <trkpt lat="42.78285" lon="2.96272">
        <ele>4.2</ele>
        <time>1970-01-01T01:39:53Z</time>
      </trkpt>
      <trkpt lat="42.78285" lon="2.96278">
        <ele>4.2</ele>
        <time>1970-01-01T01:39:54Z</time>
      </trkpt>
      <trkpt lat="42.78284" lon="2.96283">
        <ele>4</ele>
        <time>1970-01-01T01:39:55Z</time>
      </trkpt>
      <trkpt lat="42.78284" lon="2.96289">
        <ele>4</ele>
        <time>1970-01-01T01:39:56Z</time>
      </trkpt>
      <trkpt lat="42.78283" lon="2.96294">
        <ele>4</ele>
        <time>1970-01-01T01:39:57Z</time>
      </trkpt>
      <trkpt lat="42.78283" lon="2.96299">
        <ele>4.2</ele>
        <time>1970-01-01T01:39:58Z</time>
      </trkpt>
      <trkpt lat="42.78282" lon="2.96304">
        <ele>4.2</ele>
        <time>1970-01-01T01:39:59Z</time>
      </trkpt>
      <trkpt lat="42.78282" lon="2.9631">
        <ele>4.2</ele>
        <time>1970-01-01T01:40:00Z</time>
      </trkpt>
      <trkpt lat="42.78281" lon="2.96314">
        <ele>4.2</ele>
        <time>1970-01-01T01:40:01Z</time>
      </trkpt>
      <trkpt lat="42.78281" lon="2.96319">
        <ele>4.2</ele>
        <time>1970-01-01T01:40:02Z</time>
      </trkpt>
      <trkpt lat="42.78281" lon="2.96323">
        <ele>4.2</ele>
        <time>1970-01-01T01:40:03Z</time>
      </trkpt>
      <trkpt lat="42.78281" lon="2.96327">
        <ele>4.2</ele>
        <time>1970-01-01T01:40:04Z</time>
      </trkpt>
      <trkpt lat="42.78282" lon="2.96332">
        <ele>4.2</ele>
        <time>1970-01-01T01:40:05Z</time>
      </trkpt>
      <trkpt lat="42.78282" lon="2.96334">
        <ele>4.2</ele>
        <time>1970-01-01T01:40:06Z</time>
      </trkpt>
      <trkpt lat="42.78282" lon="2.96336">
        <ele>4.2</ele>
        <time>1970-01-01T01:40:07Z</time>
      </trkpt>
      <trkpt lat="42.78282" lon="2.96338">
        <ele>4.2</ele>
        <time>1970-01-01T01:40:08Z</time>
      </trkpt>
      <trkpt lat="42.78282" lon="2.96337">
        <ele>4.2</ele>
        <time>1970-01-01T01:40:09Z</time>
      </trkpt>
      <trkpt lat="42.78282" lon="2.96338">
        <ele>4.2</ele>
        <time>1970-01-01T01:40:10Z</time>
      </trkpt>
      <trkpt lat="42.7828" lon="2.96342">
        <ele>4.2</ele>
        <time>1970-01-01T01:40:11Z</time>
      </trkpt>
      <trkpt lat="42.7828" lon="2.96344">
        <ele>4.2</ele>
        <time>1970-01-01T01:40:12Z</time>
      </trkpt>
      <trkpt lat="42.7828" lon="2.96345">
        <ele>4.2</ele>
        <time>1970-01-01T01:40:13Z</time>
      </trkpt>
      <trkpt lat="42.7828" lon="2.96347">
        <ele>4.2</ele>
        <time>1970-01-01T01:40:14Z</time>
      </trkpt>
      <trkpt lat="42.78279" lon="2.96348">
        <ele>4.2</ele>
        <time>1970-01-01T01:40:15Z</time>
      </trkpt>
      <trkpt lat="42.78278" lon="2.9635">
        <ele>4.2</ele>
        <time>1970-01-01T01:40:16Z</time>
      </trkpt>
      <trkpt lat="42.78277" lon="2.96354">
        <ele>4</ele>
        <time>1970-01-01T01:40:17Z</time>
      </trkpt>
      <trkpt lat="42.78277" lon="2.96356">
        <ele>4</ele>
        <time>1970-01-01T01:40:18Z</time>
      </trkpt>
      <trkpt lat="42.78275" lon="2.96361">
        <ele>4</ele>
        <time>1970-01-01T01:40:19Z</time>
      </trkpt>
      <trkpt lat="42.78275" lon="2.96362">
        <ele>4</ele>
        <time>1970-01-01T01:40:20Z</time>
      </trkpt>
      <trkpt lat="42.78274" lon="2.96366">
        <ele>4</ele>
        <time>1970-01-01T01:40:21Z</time>
      </trkpt>
      <trkpt lat="42.78273" lon="2.9637">
        <ele>4</ele>
        <time>1970-01-01T01:40:22Z</time>
      </trkpt>
      <trkpt lat="42.78272" lon="2.96375">
        <ele>4</ele>
        <time>1970-01-01T01:40:23Z</time>
      </trkpt>
      <trkpt lat="42.78272" lon="2.96378">
        <ele>4</ele>
        <time>1970-01-01T01:40:24Z</time>
      </trkpt>
      <trkpt lat="42.78271" lon="2.96383">
        <ele>4</ele>
        <time>1970-01-01T01:40:25Z</time>
      </trkpt>
      <trkpt lat="42.78271" lon="2.96387">
        <ele>4</ele>
        <time>1970-01-01T01:40:26Z</time>
      </trkpt>
      <trkpt lat="42.7827" lon="2.96391">
        <ele>4</ele>
        <time>1970-01-01T01:40:27Z</time>
      </trkpt>
      <trkpt lat="42.7827" lon="2.96396">
        <ele>4</ele>
        <time>1970-01-01T01:40:28Z</time>
      </trkpt>
      <trkpt lat="42.78269" lon="2.96401">
        <ele>4</ele>
        <time>1970-01-01T01:40:29Z</time>
      </trkpt>
      <trkpt lat="42.78268" lon="2.96405">
        <ele>4.2</ele>
        <time>1970-01-01T01:40:30Z</time>
      </trkpt>
      <trkpt lat="42.78267" lon="2.9641">
        <ele>4.2</ele>
        <time>1970-01-01T01:40:31Z</time>
      </trkpt>
      <trkpt lat="42.78267" lon="2.96415">
        <ele>4.2</ele>
        <time>1970-01-01T01:40:32Z</time>
      </trkpt>
      <trkpt lat="42.78266" lon="2.96419">
        <ele>4.2</ele>
        <time>1970-01-01T01:40:33Z</time>
      </trkpt>
      <trkpt lat="42.78265" lon="2.96424">
        <ele>4.2</ele>
        <time>1970-01-01T01:40:34Z</time>
      </trkpt>
      <trkpt lat="42.78264" lon="2.96428">
        <ele>4.4</ele>
        <time>1970-01-01T01:40:35Z</time>
      </trkpt>
      <trkpt lat="42.78263" lon="2.96433">
        <ele>4.4</ele>
        <time>1970-01-01T01:40:36Z</time>
      </trkpt>
      <trkpt lat="42.78262" lon="2.96437">
        <ele>4.4</ele>
        <time>1970-01-01T01:40:37Z</time>
      </trkpt>
      <trkpt lat="42.78261" lon="2.96442">
        <ele>4.4</ele>
        <time>1970-01-01T01:40:38Z</time>
      </trkpt>
      <trkpt lat="42.78261" lon="2.96446">
        <ele>4.4</ele>
        <time>1970-01-01T01:40:39Z</time>
      </trkpt>
      <trkpt lat="42.7826" lon="2.96451">
        <ele>4.6</ele>
        <time>1970-01-01T01:40:40Z</time>
      </trkpt>
      <trkpt lat="42.78259" lon="2.96454">
        <ele>4.6</ele>
        <time>1970-01-01T01:40:41Z</time>
      </trkpt>
      <trkpt lat="42.78258" lon="2.96459">
        <ele>4.6</ele>
        <time>1970-01-01T01:40:42Z</time>
      </trkpt>
      <trkpt lat="42.78258" lon="2.9646">
        <ele>4.6</ele>
        <time>1970-01-01T01:40:43Z</time>
      </trkpt>
      <trkpt lat="42.78259" lon="2.96464">
        <ele>4.8</ele>
        <time>1970-01-01T01:40:44Z</time>
      </trkpt>
      <trkpt lat="42.78259" lon="2.96466">
        <ele>4.8</ele>
        <time>1970-01-01T01:40:45Z</time>
      </trkpt>
      <trkpt lat="42.78261" lon="2.9647">
        <ele>4.8</ele>
        <time>1970-01-01T01:40:46Z</time>
      </trkpt>
      <trkpt lat="42.78262" lon="2.96471">
        <ele>4.8</ele>
        <time>1970-01-01T01:40:47Z</time>
      </trkpt>
      <trkpt lat="42.78264" lon="2.96474">
        <ele>4.8</ele>
        <time>1970-01-01T01:40:48Z</time>
      </trkpt>
      <trkpt lat="42.78267" lon="2.96476">
        <ele>4.8</ele>
        <time>1970-01-01T01:40:49Z</time>
      </trkpt>
      <trkpt lat="42.78269" lon="2.96478">
        <ele>4.8</ele>
        <time>1970-01-01T01:40:50Z</time>
      </trkpt>
      <trkpt lat="42.78271" lon="2.96481">
        <ele>5</ele>
        <time>1970-01-01T01:40:51Z</time>
      </trkpt>
      <trkpt lat="42.78274" lon="2.96483">
        <ele>5</ele>
        <time>1970-01-01T01:40:52Z</time>
      </trkpt>
      <trkpt lat="42.78275" lon="2.96484">
        <ele>5</ele>
        <time>1970-01-01T01:40:53Z</time>
      </trkpt>
      <trkpt lat="42.78279" lon="2.96486">
        <ele>5</ele>
        <time>1970-01-01T01:40:54Z</time>
      </trkpt>
      <trkpt lat="42.7828" lon="2.96487">
        <ele>5</ele>
        <time>1970-01-01T01:40:55Z</time>
      </trkpt>
      <trkpt lat="42.78284" lon="2.96489">
        <ele>5</ele>
        <time>1970-01-01T01:40:56Z</time>
      </trkpt>
      <trkpt lat="42.78285" lon="2.9649">
        <ele>5</ele>
        <time>1970-01-01T01:40:57Z</time>
      </trkpt>
      <trkpt lat="42.78288" lon="2.96492">
        <ele>5</ele>
        <time>1970-01-01T01:40:58Z</time>
      </trkpt>
      <trkpt lat="42.78289" lon="2.96493">
        <ele>5</ele>
        <time>1970-01-01T01:40:59Z</time>
      </trkpt>
      <trkpt lat="42.78292" lon="2.96495">
        <ele>5</ele>
        <time>1970-01-01T01:41:00Z</time>
      </trkpt>
      <trkpt lat="42.78293" lon="2.96496">
        <ele>5</ele>
        <time>1970-01-01T01:41:01Z</time>
      </trkpt>
      <trkpt lat="42.78295" lon="2.96497">
        <ele>5</ele>
        <time>1970-01-01T01:41:02Z</time>
      </trkpt>
      <trkpt lat="42.78296" lon="2.96498">
        <ele>5</ele>
        <time>1970-01-01T01:41:03Z</time>
      </trkpt>
      <trkpt lat="42.78299" lon="2.965">
        <ele>5</ele>
        <time>1970-01-01T01:41:04Z</time>
      </trkpt>
      <trkpt lat="42.783" lon="2.96501">
        <ele>5</ele>
        <time>1970-01-01T01:41:05Z</time>
      </trkpt>
      <trkpt lat="42.78301" lon="2.96505">
        <ele>5.2</ele>
        <time>1970-01-01T01:41:06Z</time>
      </trkpt>
      <trkpt lat="42.78301" lon="2.96507">
        <ele>5.2</ele>
        <time>1970-01-01T01:41:07Z</time>
      </trkpt>
      <trkpt lat="42.783" lon="2.96512">
        <ele>5.4</ele>
        <time>1970-01-01T01:41:08Z</time>
      </trkpt>
      <trkpt lat="42.783" lon="2.96515">
        <ele>5.4</ele>
        <time>1970-01-01T01:41:09Z</time>
      </trkpt>
      <trkpt lat="42.783" lon="2.96519">
        <ele>5.6</ele>
        <time>1970-01-01T01:41:10Z</time>
      </trkpt>
      <trkpt lat="42.78299" lon="2.96523">
        <ele>5.6</ele>
        <time>1970-01-01T01:41:11Z</time>
      </trkpt>
      <trkpt lat="42.78299" lon="2.96527">
        <ele>5.8</ele>
        <time>1970-01-01T01:41:12Z</time>
      </trkpt>
      <trkpt lat="42.78298" lon="2.96531">
        <ele>5.8</ele>
        <time>1970-01-01T01:41:13Z</time>
      </trkpt>
      <trkpt lat="42.78297" lon="2.96536">
        <ele>6</ele>
        <time>1970-01-01T01:41:14Z</time>
      </trkpt>
      <trkpt lat="42.78296" lon="2.9654">
        <ele>6.2</ele>
        <time>1970-01-01T01:41:15Z</time>
      </trkpt>
      <trkpt lat="42.78296" lon="2.96545">
        <ele>6.2</ele>
        <time>1970-01-01T01:41:16Z</time>
      </trkpt>
      <trkpt lat="42.78296" lon="2.96549">
        <ele>6.4</ele>
        <time>1970-01-01T01:41:17Z</time>
      </trkpt>
      <trkpt lat="42.78296" lon="2.96554">
        <ele>6.6</ele>
        <time>1970-01-01T01:41:18Z</time>
      </trkpt>
      <trkpt lat="42.78295" lon="2.96559">
        <ele>6.6</ele>
        <time>1970-01-01T01:41:19Z</time>
      </trkpt>
      <trkpt lat="42.78295" lon="2.96564">
        <ele>6.8</ele>
        <time>1970-01-01T01:41:20Z</time>
      </trkpt>
      <trkpt lat="42.78294" lon="2.9657">
        <ele>6.8</ele>
        <time>1970-01-01T01:41:21Z</time>
      </trkpt>
      <trkpt lat="42.78294" lon="2.96575">
        <ele>7</ele>
        <time>1970-01-01T01:41:22Z</time>
      </trkpt>
      <trkpt lat="42.78293" lon="2.9658">
        <ele>7.2</ele>
        <time>1970-01-01T01:41:23Z</time>
      </trkpt>
      <trkpt lat="42.78292" lon="2.96585">
        <ele>7.2</ele>
        <time>1970-01-01T01:41:24Z</time>
      </trkpt>
      <trkpt lat="42.78292" lon="2.96589">
        <ele>7.4</ele>
        <time>1970-01-01T01:41:25Z</time>
      </trkpt>
      <trkpt lat="42.78292" lon="2.96594">
        <ele>7.6</ele>
        <time>1970-01-01T01:41:26Z</time>
      </trkpt>
      <trkpt lat="42.78291" lon="2.96599">
        <ele>7.4</ele>
        <time>1970-01-01T01:41:27Z</time>
      </trkpt>
      <trkpt lat="42.78291" lon="2.96604">
        <ele>7.2</ele>
        <time>1970-01-01T01:41:28Z</time>
      </trkpt>
      <trkpt lat="42.7829" lon="2.96609">
        <ele>7</ele>
        <time>1970-01-01T01:41:29Z</time>
      </trkpt>
      <trkpt lat="42.7829" lon="2.96614">
        <ele>6.6</ele>
        <time>1970-01-01T01:41:30Z</time>
      </trkpt>
      <trkpt lat="42.78289" lon="2.96618">
        <ele>6.4</ele>
        <time>1970-01-01T01:41:31Z</time>
      </trkpt>
      <trkpt lat="42.78289" lon="2.96623">
        <ele>6.6</ele>
        <time>1970-01-01T01:41:32Z</time>
      </trkpt>
      <trkpt lat="42.78288" lon="2.96627">
        <ele>6.8</ele>
        <time>1970-01-01T01:41:33Z</time>
      </trkpt>
      <trkpt lat="42.78288" lon="2.96632">
        <ele>7</ele>
        <time>1970-01-01T01:41:34Z</time>
      </trkpt>
      <trkpt lat="42.78287" lon="2.96636">
        <ele>7.2</ele>
        <time>1970-01-01T01:41:35Z</time>
      </trkpt>
      <trkpt lat="42.78287" lon="2.96641">
        <ele>7.6</ele>
        <time>1970-01-01T01:41:36Z</time>
      </trkpt>
      <trkpt lat="42.78286" lon="2.96645">
        <ele>7.6</ele>
        <time>1970-01-01T01:41:37Z</time>
      </trkpt>
      <trkpt lat="42.78286" lon="2.9665">
        <ele>7.6</ele>
        <time>1970-01-01T01:41:38Z</time>
      </trkpt>
      <trkpt lat="42.78285" lon="2.96655">
        <ele>7.4</ele>
        <time>1970-01-01T01:41:39Z</time>
      </trkpt>
      <trkpt lat="42.78285" lon="2.96659">
        <ele>7.2</ele>
        <time>1970-01-01T01:41:40Z</time>
      </trkpt>
      <trkpt lat="42.78283" lon="2.96664">
        <ele>7</ele>
        <time>1970-01-01T01:41:41Z</time>
      </trkpt>
      <trkpt lat="42.78283" lon="2.96667">
        <ele>7</ele>
        <time>1970-01-01T01:41:42Z</time>
      </trkpt>
      <trkpt lat="42.78282" lon="2.96671">
        <ele>6.8</ele>
        <time>1970-01-01T01:41:43Z</time>
      </trkpt>
      <trkpt lat="42.78281" lon="2.96676">
        <ele>6.6</ele>
        <time>1970-01-01T01:41:44Z</time>
      </trkpt>
      <trkpt lat="42.7828" lon="2.96681">
        <ele>6.4</ele>
        <time>1970-01-01T01:41:45Z</time>
      </trkpt>
      <trkpt lat="42.7828" lon="2.96686">
        <ele>6.4</ele>
        <time>1970-01-01T01:41:46Z</time>
      </trkpt>
      <trkpt lat="42.78279" lon="2.96691">
        <ele>6.2</ele>
        <time>1970-01-01T01:41:47Z</time>
      </trkpt>
      <trkpt lat="42.78278" lon="2.96696">
        <ele>6</ele>
        <time>1970-01-01T01:41:48Z</time>
      </trkpt>
      <trkpt lat="42.78277" lon="2.967">
        <ele>5.8</ele>
        <time>1970-01-01T01:41:49Z</time>
      </trkpt>
      <trkpt lat="42.78276" lon="2.96704">
        <ele>5.6</ele>
        <time>1970-01-01T01:41:50Z</time>
      </trkpt>
      <trkpt lat="42.78275" lon="2.96709">
        <ele>5.6</ele>
        <time>1970-01-01T01:41:51Z</time>
      </trkpt>
      <trkpt lat="42.78274" lon="2.96713">
        <ele>5.4</ele>
        <time>1970-01-01T01:41:52Z</time>
      </trkpt>
      <trkpt lat="42.78273" lon="2.96717">
        <ele>5.4</ele>
        <time>1970-01-01T01:41:53Z</time>
      </trkpt>
      <trkpt lat="42.78271" lon="2.96721">
        <ele>5.6</ele>
        <time>1970-01-01T01:41:54Z</time>
      </trkpt>
      <trkpt lat="42.78269" lon="2.96726">
        <ele>6.2</ele>
        <time>1970-01-01T01:41:55Z</time>
      </trkpt>
      <trkpt lat="42.78267" lon="2.9673">
        <ele>6.8</ele>
        <time>1970-01-01T01:41:56Z</time>
      </trkpt>
      <trkpt lat="42.78265" lon="2.96735">
        <ele>6.8</ele>
        <time>1970-01-01T01:41:57Z</time>
      </trkpt>
      <trkpt lat="42.78264" lon="2.96739">
        <ele>6.8</ele>
        <time>1970-01-01T01:41:58Z</time>
      </trkpt>
      <trkpt lat="42.78262" lon="2.96743">
        <ele>6.6</ele>
        <time>1970-01-01T01:41:59Z</time>
      </trkpt>
      <trkpt lat="42.7826" lon="2.96748">
        <ele>6.4</ele>
        <time>1970-01-01T01:42:00Z</time>
      </trkpt>
      <trkpt lat="42.78259" lon="2.96752">
        <ele>6.4</ele>
        <time>1970-01-01T01:42:01Z</time>
      </trkpt>
      <trkpt lat="42.78257" lon="2.96757">
        <ele>6.2</ele>
        <time>1970-01-01T01:42:02Z</time>
      </trkpt>
      <trkpt lat="42.78255" lon="2.9676">
        <ele>6.2</ele>
        <time>1970-01-01T01:42:03Z</time>
      </trkpt>
      <trkpt lat="42.78254" lon="2.96764">
        <ele>6.2</ele>
        <time>1970-01-01T01:42:04Z</time>
      </trkpt>
      <trkpt lat="42.78253" lon="2.96767">
        <ele>6.2</ele>
        <time>1970-01-01T01:42:05Z</time>
      </trkpt>
      <trkpt lat="42.78251" lon="2.96771">
        <ele>6</ele>
        <time>1970-01-01T01:42:06Z</time>
      </trkpt>
      <trkpt lat="42.7825" lon="2.96774">
        <ele>6</ele>
        <time>1970-01-01T01:42:07Z</time>
      </trkpt>
      <trkpt lat="42.78248" lon="2.96779">
        <ele>6</ele>
        <time>1970-01-01T01:42:08Z</time>
      </trkpt>
      <trkpt lat="42.78248" lon="2.9678">
        <ele>6</ele>
        <time>1970-01-01T01:42:09Z</time>
      </trkpt>
      <trkpt lat="42.78248" lon="2.96785">
        <ele>6</ele>
        <time>1970-01-01T01:42:10Z</time>
      </trkpt>
      <trkpt lat="42.78248" lon="2.96787">
        <ele>6</ele>
        <time>1970-01-01T01:42:11Z</time>
      </trkpt>
      <trkpt lat="42.7825" lon="2.96791">
        <ele>6</ele>
        <time>1970-01-01T01:42:12Z</time>
      </trkpt>
      <trkpt lat="42.78251" lon="2.96794">
        <ele>6</ele>
        <time>1970-01-01T01:42:13Z</time>
      </trkpt>
      <trkpt lat="42.78254" lon="2.96798">
        <ele>6</ele>
        <time>1970-01-01T01:42:14Z</time>
      </trkpt>
      <trkpt lat="42.78257" lon="2.96801">
        <ele>6</ele>
        <time>1970-01-01T01:42:15Z</time>
      </trkpt>
      <trkpt lat="42.7826" lon="2.96805">
        <ele>6</ele>
        <time>1970-01-01T01:42:16Z</time>
      </trkpt>
      <trkpt lat="42.78262" lon="2.96808">
        <ele>6</ele>
        <time>1970-01-01T01:42:17Z</time>
      </trkpt>
      <trkpt lat="42.78265" lon="2.96811">
        <ele>6</ele>
        <time>1970-01-01T01:42:18Z</time>
      </trkpt>
      <trkpt lat="42.78269" lon="2.96814">
        <ele>6</ele>
        <time>1970-01-01T01:42:19Z</time>
      </trkpt>
      <trkpt lat="42.78272" lon="2.96818">
        <ele>6</ele>
        <time>1970-01-01T01:42:20Z</time>
      </trkpt>
      <trkpt lat="42.78276" lon="2.9682">
        <ele>6</ele>
        <time>1970-01-01T01:42:21Z</time>
      </trkpt>
      <trkpt lat="42.78279" lon="2.96823">
        <ele>6</ele>
        <time>1970-01-01T01:42:22Z</time>
      </trkpt>
      <trkpt lat="42.78283" lon="2.96826">
        <ele>6</ele>
        <time>1970-01-01T01:42:23Z</time>
      </trkpt>
      <trkpt lat="42.78287" lon="2.96828">
        <ele>6</ele>
        <time>1970-01-01T01:42:24Z</time>
      </trkpt>
      <trkpt lat="42.78291" lon="2.9683">
        <ele>6</ele>
        <time>1970-01-01T01:42:25Z</time>
      </trkpt>
      <trkpt lat="42.78295" lon="2.96832">
        <ele>6</ele>
        <time>1970-01-01T01:42:26Z</time>
      </trkpt>
      <trkpt lat="42.78298" lon="2.96833">
        <ele>6</ele>
        <time>1970-01-01T01:42:27Z</time>
      </trkpt>
      <trkpt lat="42.78302" lon="2.96835">
        <ele>6</ele>
        <time>1970-01-01T01:42:28Z</time>
      </trkpt>
      <trkpt lat="42.78305" lon="2.96837">
        <ele>6</ele>
        <time>1970-01-01T01:42:29Z</time>
      </trkpt>
      <trkpt lat="42.78308" lon="2.96838">
        <ele>6</ele>
        <time>1970-01-01T01:42:30Z</time>
      </trkpt>
      <trkpt lat="42.78312" lon="2.9684">
        <ele>6</ele>
        <time>1970-01-01T01:42:31Z</time>
      </trkpt>
      <trkpt lat="42.78316" lon="2.96842">
        <ele>6</ele>
        <time>1970-01-01T01:42:32Z</time>
      </trkpt>
      <trkpt lat="42.78319" lon="2.96844">
        <ele>6</ele>
        <time>1970-01-01T01:42:33Z</time>
      </trkpt>
      <trkpt lat="42.78322" lon="2.96846">
        <ele>6</ele>
        <time>1970-01-01T01:42:34Z</time>
      </trkpt>
      <trkpt lat="42.78325" lon="2.96848">
        <ele>6</ele>
        <time>1970-01-01T01:42:35Z</time>
      </trkpt>
      <trkpt lat="42.78328" lon="2.9685">
        <ele>6</ele>
        <time>1970-01-01T01:42:36Z</time>
      </trkpt>
      <trkpt lat="42.78331" lon="2.96851">
        <ele>6</ele>
        <time>1970-01-01T01:42:37Z</time>
      </trkpt>
      <trkpt lat="42.78334" lon="2.96852">
        <ele>6</ele>
        <time>1970-01-01T01:42:38Z</time>
      </trkpt>
      <trkpt lat="42.78337" lon="2.96854">
        <ele>6</ele>
        <time>1970-01-01T01:42:39Z</time>
      </trkpt>
      <trkpt lat="42.7834" lon="2.96856">
        <ele>6</ele>
        <time>1970-01-01T01:42:40Z</time>
      </trkpt>
      <trkpt lat="42.78343" lon="2.96858">
        <ele>6</ele>
        <time>1970-01-01T01:42:41Z</time>
      </trkpt>
      <trkpt lat="42.78346" lon="2.96861">
        <ele>6</ele>
        <time>1970-01-01T01:42:42Z</time>
      </trkpt>
      <trkpt lat="42.78348" lon="2.96865">
        <ele>6</ele>
        <time>1970-01-01T01:42:43Z</time>
      </trkpt>
      <trkpt lat="42.78351" lon="2.96869">
        <ele>6</ele>
        <time>1970-01-01T01:42:44Z</time>
      </trkpt>
      <trkpt lat="42.78354" lon="2.96873">
        <ele>6</ele>
        <time>1970-01-01T01:42:45Z</time>
      </trkpt>
      <trkpt lat="42.78356" lon="2.96877">
        <ele>6</ele>
        <time>1970-01-01T01:42:46Z</time>
      </trkpt>
      <trkpt lat="42.78358" lon="2.96881">
        <ele>6</ele>
        <time>1970-01-01T01:42:47Z</time>
      </trkpt>
      <trkpt lat="42.7836" lon="2.96885">
        <ele>6</ele>
        <time>1970-01-01T01:42:48Z</time>
      </trkpt>
      <trkpt lat="42.78362" lon="2.96889">
        <ele>6</ele>
        <time>1970-01-01T01:42:49Z</time>
      </trkpt>
      <trkpt lat="42.78364" lon="2.96893">
        <ele>6</ele>
        <time>1970-01-01T01:42:50Z</time>
      </trkpt>
      <trkpt lat="42.78365" lon="2.96897">
        <ele>6</ele>
        <time>1970-01-01T01:42:51Z</time>
      </trkpt>
      <trkpt lat="42.78367" lon="2.96902">
        <ele>6</ele>
        <time>1970-01-01T01:42:52Z</time>
      </trkpt>
      <trkpt lat="42.78368" lon="2.96906">
        <ele>6</ele>
        <time>1970-01-01T01:42:53Z</time>
      </trkpt>
      <trkpt lat="42.78369" lon="2.96911">
        <ele>6</ele>
        <time>1970-01-01T01:42:54Z</time>
      </trkpt>
      <trkpt lat="42.78371" lon="2.96915">
        <ele>6</ele>
        <time>1970-01-01T01:42:55Z</time>
      </trkpt>
      <trkpt lat="42.78372" lon="2.96919">
        <ele>6</ele>
        <time>1970-01-01T01:42:56Z</time>
      </trkpt>
      <trkpt lat="42.78374" lon="2.96924">
        <ele>6</ele>
        <time>1970-01-01T01:42:57Z</time>
      </trkpt>
      <trkpt lat="42.78376" lon="2.96928">
        <ele>6</ele>
        <time>1970-01-01T01:42:58Z</time>
      </trkpt>
      <trkpt lat="42.78378" lon="2.96932">
        <ele>5.8</ele>
        <time>1970-01-01T01:42:59Z</time>
      </trkpt>
      <trkpt lat="42.7838" lon="2.96936">
        <ele>5.8</ele>
        <time>1970-01-01T01:43:00Z</time>
      </trkpt>
      <trkpt lat="42.78382" lon="2.96941">
        <ele>5.8</ele>
        <time>1970-01-01T01:43:01Z</time>
      </trkpt>
      <trkpt lat="42.78384" lon="2.96945">
        <ele>5.8</ele>
        <time>1970-01-01T01:43:02Z</time>
      </trkpt>
      <trkpt lat="42.78387" lon="2.96949">
        <ele>5.8</ele>
        <time>1970-01-01T01:43:03Z</time>
      </trkpt>
      <trkpt lat="42.78389" lon="2.96952">
        <ele>5.8</ele>
        <time>1970-01-01T01:43:04Z</time>
      </trkpt>
      <trkpt lat="42.78391" lon="2.96955">
        <ele>5.8</ele>
        <time>1970-01-01T01:43:05Z</time>
      </trkpt>
      <trkpt lat="42.78393" lon="2.96959">
        <ele>5.8</ele>
        <time>1970-01-01T01:43:06Z</time>
      </trkpt>
      <trkpt lat="42.78396" lon="2.96963">
        <ele>5.8</ele>
        <time>1970-01-01T01:43:07Z</time>
      </trkpt>
      <trkpt lat="42.78398" lon="2.96967">
        <ele>5.8</ele>
        <time>1970-01-01T01:43:08Z</time>
      </trkpt>
      <trkpt lat="42.78401" lon="2.96971">
        <ele>5.8</ele>
        <time>1970-01-01T01:43:09Z</time>
      </trkpt>
      <trkpt lat="42.78403" lon="2.96975">
        <ele>5.8</ele>
        <time>1970-01-01T01:43:10Z</time>
      </trkpt>
      <trkpt lat="42.78405" lon="2.9698">
        <ele>5.8</ele>
        <time>1970-01-01T01:43:11Z</time>
      </trkpt>
      <trkpt lat="42.78408" lon="2.96985">
        <ele>5.8</ele>
        <time>1970-01-01T01:43:12Z</time>
      </trkpt>
      <trkpt lat="42.7841" lon="2.9699">
        <ele>5.8</ele>
        <time>1970-01-01T01:43:13Z</time>
      </trkpt>
      <trkpt lat="42.78411" lon="2.96996">
        <ele>5.8</ele>
        <time>1970-01-01T01:43:14Z</time>
      </trkpt>
      <trkpt lat="42.78412" lon="2.97001">
        <ele>5.6</ele>
        <time>1970-01-01T01:43:15Z</time>
      </trkpt>
      <trkpt lat="42.78414" lon="2.97007">
        <ele>5.8</ele>
        <time>1970-01-01T01:43:16Z</time>
      </trkpt>
      <trkpt lat="42.78417" lon="2.97011">
        <ele>5.6</ele>
        <time>1970-01-01T01:43:17Z</time>
      </trkpt>
      <trkpt lat="42.78421" lon="2.97013">
        <ele>5.6</ele>
        <time>1970-01-01T01:43:18Z</time>
      </trkpt>
      <trkpt lat="42.78425" lon="2.97014">
        <ele>5.6</ele>
        <time>1970-01-01T01:43:19Z</time>
      </trkpt>
      <trkpt lat="42.78429" lon="2.97014">
        <ele>5.6</ele>
        <time>1970-01-01T01:43:20Z</time>
      </trkpt>
      <trkpt lat="42.78433" lon="2.97016">
        <ele>5.6</ele>
        <time>1970-01-01T01:43:21Z</time>
      </trkpt>
      <trkpt lat="42.78435" lon="2.97019">
        <ele>5.4</ele>
        <time>1970-01-01T01:43:22Z</time>
      </trkpt>
      <trkpt lat="42.78437" lon="2.97022">
        <ele>5.4</ele>
        <time>1970-01-01T01:43:23Z</time>
      </trkpt>
      <trkpt lat="42.78436" lon="2.97026">
        <ele>5.4</ele>
        <time>1970-01-01T01:43:24Z</time>
      </trkpt>
      <trkpt lat="42.78435" lon="2.97031">
        <ele>5.2</ele>
        <time>1970-01-01T01:43:25Z</time>
      </trkpt>
      <trkpt lat="42.78433" lon="2.97037">
        <ele>5.2</ele>
        <time>1970-01-01T01:43:26Z</time>
      </trkpt>
      <trkpt lat="42.78431" lon="2.97042">
        <ele>5.2</ele>
        <time>1970-01-01T01:43:27Z</time>
      </trkpt>
      <trkpt lat="42.7843" lon="2.97048">
        <ele>5.2</ele>
        <time>1970-01-01T01:43:28Z</time>
      </trkpt>
      <trkpt lat="42.78428" lon="2.97054">
        <ele>5.2</ele>
        <time>1970-01-01T01:43:29Z</time>
      </trkpt>
      <trkpt lat="42.78427" lon="2.97059">
        <ele>5.2</ele>
        <time>1970-01-01T01:43:30Z</time>
      </trkpt>
      <trkpt lat="42.78425" lon="2.97065">
        <ele>5.2</ele>
        <time>1970-01-01T01:43:31Z</time>
      </trkpt>
      <trkpt lat="42.78423" lon="2.9707">
        <ele>5.2</ele>
        <time>1970-01-01T01:43:32Z</time>
      </trkpt>
      <trkpt lat="42.78422" lon="2.97075">
        <ele>5.4</ele>
        <time>1970-01-01T01:43:33Z</time>
      </trkpt>
      <trkpt lat="42.78421" lon="2.97081">
        <ele>5.4</ele>
        <time>1970-01-01T01:43:34Z</time>
      </trkpt>
      <trkpt lat="42.78419" lon="2.97086">
        <ele>5.4</ele>
        <time>1970-01-01T01:43:35Z</time>
      </trkpt>
      <trkpt lat="42.78418" lon="2.97092">
        <ele>5.4</ele>
        <time>1970-01-01T01:43:36Z</time>
      </trkpt>
      <trkpt lat="42.78416" lon="2.97097">
        <ele>5.4</ele>
        <time>1970-01-01T01:43:37Z</time>
      </trkpt>
      <trkpt lat="42.78415" lon="2.97103">
        <ele>5.6</ele>
        <time>1970-01-01T01:43:38Z</time>
      </trkpt>
      <trkpt lat="42.78414" lon="2.97108">
        <ele>5.6</ele>
        <time>1970-01-01T01:43:39Z</time>
      </trkpt>
      <trkpt lat="42.78412" lon="2.97114">
        <ele>5.6</ele>
        <time>1970-01-01T01:43:40Z</time>
      </trkpt>
      <trkpt lat="42.7841" lon="2.9712">
        <ele>5.6</ele>
        <time>1970-01-01T01:43:41Z</time>
      </trkpt>
      <trkpt lat="42.78409" lon="2.97126">
        <ele>5.6</ele>
        <time>1970-01-01T01:43:42Z</time>
      </trkpt>
      <trkpt lat="42.78407" lon="2.97132">
        <ele>5.4</ele>
        <time>1970-01-01T01:43:43Z</time>
      </trkpt>
      <trkpt lat="42.78405" lon="2.97138">
        <ele>5.4</ele>
        <time>1970-01-01T01:43:44Z</time>
      </trkpt>
      <trkpt lat="42.78403" lon="2.97144">
        <ele>5.4</ele>
        <time>1970-01-01T01:43:45Z</time>
      </trkpt>
      <trkpt lat="42.78402" lon="2.97151">
        <ele>5.4</ele>
        <time>1970-01-01T01:43:46Z</time>
      </trkpt>
      <trkpt lat="42.784" lon="2.97157">
        <ele>5.4</ele>
        <time>1970-01-01T01:43:47Z</time>
      </trkpt>
      <trkpt lat="42.78398" lon="2.97164">
        <ele>5.4</ele>
        <time>1970-01-01T01:43:48Z</time>
      </trkpt>
      <trkpt lat="42.78396" lon="2.9717">
        <ele>5.4</ele>
        <time>1970-01-01T01:43:49Z</time>
      </trkpt>
      <trkpt lat="42.78394" lon="2.97176">
        <ele>5.2</ele>
        <time>1970-01-01T01:43:50Z</time>
      </trkpt>
      <trkpt lat="42.78392" lon="2.97183">
        <ele>5.2</ele>
        <time>1970-01-01T01:43:51Z</time>
      </trkpt>
      <trkpt lat="42.7839" lon="2.9719">
        <ele>5.2</ele>
        <time>1970-01-01T01:43:52Z</time>
      </trkpt>
      <trkpt lat="42.78388" lon="2.97196">
        <ele>5.2</ele>
        <time>1970-01-01T01:43:53Z</time>
      </trkpt>
      <trkpt lat="42.78386" lon="2.97203">
        <ele>5.2</ele>
        <time>1970-01-01T01:43:54Z</time>
      </trkpt>
      <trkpt lat="42.78384" lon="2.97209">
        <ele>5.2</ele>
        <time>1970-01-01T01:43:55Z</time>
      </trkpt>
      <trkpt lat="42.78382" lon="2.97216">
        <ele>5.2</ele>
        <time>1970-01-01T01:43:56Z</time>
      </trkpt>
      <trkpt lat="42.7838" lon="2.97222">
        <ele>5.2</ele>
        <time>1970-01-01T01:43:57Z</time>
      </trkpt>
      <trkpt lat="42.78378" lon="2.97229">
        <ele>5.2</ele>
        <time>1970-01-01T01:43:58Z</time>
      </trkpt>
      <trkpt lat="42.78377" lon="2.97235">
        <ele>5.2</ele>
        <time>1970-01-01T01:43:59Z</time>
      </trkpt>
      <trkpt lat="42.78375" lon="2.9724">
        <ele>5.2</ele>
        <time>1970-01-01T01:44:00Z</time>
      </trkpt>
      <trkpt lat="42.78373" lon="2.97246">
        <ele>5</ele>
        <time>1970-01-01T01:44:01Z</time>
      </trkpt>
      <trkpt lat="42.7837" lon="2.97252">
        <ele>5</ele>
        <time>1970-01-01T01:44:02Z</time>
      </trkpt>
      <trkpt lat="42.78368" lon="2.97259">
        <ele>5</ele>
        <time>1970-01-01T01:44:03Z</time>
      </trkpt>
      <trkpt lat="42.78366" lon="2.97266">
        <ele>5</ele>
        <time>1970-01-01T01:44:04Z</time>
      </trkpt>
      <trkpt lat="42.78364" lon="2.97272">
        <ele>5</ele>
        <time>1970-01-01T01:44:05Z</time>
      </trkpt>
      <trkpt lat="42.78362" lon="2.97278">
        <ele>5</ele>
        <time>1970-01-01T01:44:06Z</time>
      </trkpt>
      <trkpt lat="42.7836" lon="2.97285">
        <ele>5</ele>
        <time>1970-01-01T01:44:07Z</time>
      </trkpt>
      <trkpt lat="42.78358" lon="2.97292">
        <ele>5</ele>
        <time>1970-01-01T01:44:08Z</time>
      </trkpt>
      <trkpt lat="42.78355" lon="2.97298">
        <ele>5</ele>
        <time>1970-01-01T01:44:09Z</time>
      </trkpt>
      <trkpt lat="42.78353" lon="2.97304">
        <ele>5</ele>
        <time>1970-01-01T01:44:10Z</time>
      </trkpt>
      <trkpt lat="42.7835" lon="2.97311">
        <ele>5</ele>
        <time>1970-01-01T01:44:11Z</time>
      </trkpt>
      <trkpt lat="42.78347" lon="2.97317">
        <ele>5</ele>
        <time>1970-01-01T01:44:12Z</time>
      </trkpt>
      <trkpt lat="42.78345" lon="2.97324">
        <ele>5</ele>
        <time>1970-01-01T01:44:13Z</time>
      </trkpt>
      <trkpt lat="42.78342" lon="2.9733">
        <ele>5</ele>
        <time>1970-01-01T01:44:14Z</time>
      </trkpt>
      <trkpt lat="42.78339" lon="2.97335">
        <ele>5</ele>
        <time>1970-01-01T01:44:15Z</time>
      </trkpt>
      <trkpt lat="42.78336" lon="2.97341">
        <ele>5</ele>
        <time>1970-01-01T01:44:16Z</time>
      </trkpt>
      <trkpt lat="42.78332" lon="2.97347">
        <ele>5</ele>
        <time>1970-01-01T01:44:17Z</time>
      </trkpt>
      <trkpt lat="42.7833" lon="2.97352">
        <ele>5</ele>
        <time>1970-01-01T01:44:18Z</time>
      </trkpt>
      <trkpt lat="42.78326" lon="2.97358">
        <ele>5</ele>
        <time>1970-01-01T01:44:19Z</time>
      </trkpt>
      <trkpt lat="42.78323" lon="2.97363">
        <ele>5</ele>
        <time>1970-01-01T01:44:20Z</time>
      </trkpt>
      <trkpt lat="42.78319" lon="2.97368">
        <ele>5</ele>
        <time>1970-01-01T01:44:21Z</time>
      </trkpt>
      <trkpt lat="42.78316" lon="2.97374">
        <ele>5</ele>
        <time>1970-01-01T01:44:22Z</time>
      </trkpt>
      <trkpt lat="42.78312" lon="2.97379">
        <ele>5</ele>
        <time>1970-01-01T01:44:23Z</time>
      </trkpt>
      <trkpt lat="42.78309" lon="2.97384">
        <ele>5</ele>
        <time>1970-01-01T01:44:24Z</time>
      </trkpt>
      <trkpt lat="42.78305" lon="2.9739">
        <ele>5</ele>
        <time>1970-01-01T01:44:25Z</time>
      </trkpt>
      <trkpt lat="42.78301" lon="2.97395">
        <ele>5</ele>
        <time>1970-01-01T01:44:26Z</time>
      </trkpt>
      <trkpt lat="42.78297" lon="2.974">
        <ele>5</ele>
        <time>1970-01-01T01:44:27Z</time>
      </trkpt>
      <trkpt lat="42.78293" lon="2.97405">
        <ele>5</ele>
        <time>1970-01-01T01:44:28Z</time>
      </trkpt>
      <trkpt lat="42.7829" lon="2.9741">
        <ele>5</ele>
        <time>1970-01-01T01:44:29Z</time>
      </trkpt>
      <trkpt lat="42.78286" lon="2.97416">
        <ele>5</ele>
        <time>1970-01-01T01:44:30Z</time>
      </trkpt>
      <trkpt lat="42.78283" lon="2.97422">
        <ele>5</ele>
        <time>1970-01-01T01:44:31Z</time>
      </trkpt>
      <trkpt lat="42.78279" lon="2.97427">
        <ele>5</ele>
        <time>1970-01-01T01:44:32Z</time>
      </trkpt>
      <trkpt lat="42.78275" lon="2.97433">
        <ele>5</ele>
        <time>1970-01-01T01:44:33Z</time>
      </trkpt>
      <trkpt lat="42.78272" lon="2.97438">
        <ele>5</ele>
        <time>1970-01-01T01:44:34Z</time>
      </trkpt>
      <trkpt lat="42.78268" lon="2.97444">
        <ele>5</ele>
        <time>1970-01-01T01:44:35Z</time>
      </trkpt>
      <trkpt lat="42.78264" lon="2.97449">
        <ele>5</ele>
        <time>1970-01-01T01:44:36Z</time>
      </trkpt>
      <trkpt lat="42.78261" lon="2.97455">
        <ele>5</ele>
        <time>1970-01-01T01:44:37Z</time>
      </trkpt>
      <trkpt lat="42.78257" lon="2.9746">
        <ele>5</ele>
        <time>1970-01-01T01:44:38Z</time>
      </trkpt>
      <trkpt lat="42.78253" lon="2.97465">
        <ele>5</ele>
        <time>1970-01-01T01:44:39Z</time>
      </trkpt>
      <trkpt lat="42.7825" lon="2.9747">
        <ele>5</ele>
        <time>1970-01-01T01:44:40Z</time>
      </trkpt>
      <trkpt lat="42.78246" lon="2.97476">
        <ele>5</ele>
        <time>1970-01-01T01:44:41Z</time>
      </trkpt>
      <trkpt lat="42.78242" lon="2.97481">
        <ele>5</ele>
        <time>1970-01-01T01:44:42Z</time>
      </trkpt>
      <trkpt lat="42.78239" lon="2.97487">
        <ele>5.2</ele>
        <time>1970-01-01T01:44:43Z</time>
      </trkpt>
      <trkpt lat="42.78235" lon="2.97493">
        <ele>5.2</ele>
        <time>1970-01-01T01:44:44Z</time>
      </trkpt>
      <trkpt lat="42.78232" lon="2.97499">
        <ele>5.2</ele>
        <time>1970-01-01T01:44:45Z</time>
      </trkpt>
      <trkpt lat="42.78228" lon="2.97503">
        <ele>5.2</ele>
        <time>1970-01-01T01:44:46Z</time>
      </trkpt>
      <trkpt lat="42.78225" lon="2.97508">
        <ele>5.2</ele>
        <time>1970-01-01T01:44:47Z</time>
      </trkpt>
      <trkpt lat="42.78222" lon="2.97513">
        <ele>5.2</ele>
        <time>1970-01-01T01:44:48Z</time>
      </trkpt>
      <trkpt lat="42.78219" lon="2.97518">
        <ele>5</ele>
        <time>1970-01-01T01:44:49Z</time>
      </trkpt>
      <trkpt lat="42.78216" lon="2.97524">
        <ele>5</ele>
        <time>1970-01-01T01:44:50Z</time>
      </trkpt>
      <trkpt lat="42.78212" lon="2.97529">
        <ele>5</ele>
        <time>1970-01-01T01:44:51Z</time>
      </trkpt>
      <trkpt lat="42.78209" lon="2.97535">
        <ele>5</ele>
        <time>1970-01-01T01:44:52Z</time>
      </trkpt>
      <trkpt lat="42.78206" lon="2.97541">
        <ele>5</ele>
        <time>1970-01-01T01:44:53Z</time>
      </trkpt>
      <trkpt lat="42.78204" lon="2.97548">
        <ele>5</ele>
        <time>1970-01-01T01:44:54Z</time>
      </trkpt>
      <trkpt lat="42.78202" lon="2.97555">
        <ele>5</ele>
        <time>1970-01-01T01:44:55Z</time>
      </trkpt>
      <trkpt lat="42.78201" lon="2.97562">
        <ele>5</ele>
        <time>1970-01-01T01:44:56Z</time>
      </trkpt>
      <trkpt lat="42.782" lon="2.97568">
        <ele>5</ele>
        <time>1970-01-01T01:44:57Z</time>
      </trkpt>
      <trkpt lat="42.782" lon="2.97575">
        <ele>5</ele>
        <time>1970-01-01T01:44:58Z</time>
      </trkpt>
      <trkpt lat="42.78199" lon="2.97581">
        <ele>5</ele>
        <time>1970-01-01T01:44:59Z</time>
      </trkpt>
      <trkpt lat="42.78201" lon="2.97588">
        <ele>5</ele>
        <time>1970-01-01T01:45:00Z</time>
      </trkpt>
      <trkpt lat="42.78202" lon="2.97594">
        <ele>5</ele>
        <time>1970-01-01T01:45:01Z</time>
      </trkpt>
      <trkpt lat="42.78205" lon="2.97599">
        <ele>5</ele>
        <time>1970-01-01T01:45:02Z</time>
      </trkpt>
      <trkpt lat="42.78208" lon="2.97605">
        <ele>5</ele>
        <time>1970-01-01T01:45:03Z</time>
      </trkpt>
      <trkpt lat="42.7821" lon="2.97612">
        <ele>5</ele>
        <time>1970-01-01T01:45:04Z</time>
      </trkpt>
      <trkpt lat="42.78213" lon="2.97617">
        <ele>5</ele>
        <time>1970-01-01T01:45:05Z</time>
      </trkpt>
      <trkpt lat="42.78215" lon="2.97623">
        <ele>5</ele>
        <time>1970-01-01T01:45:06Z</time>
      </trkpt>
      <trkpt lat="42.78216" lon="2.97628">
        <ele>5</ele>
        <time>1970-01-01T01:45:07Z</time>
      </trkpt>
      <trkpt lat="42.78217" lon="2.97633">
        <ele>5</ele>
        <time>1970-01-01T01:45:08Z</time>
      </trkpt>
      <trkpt lat="42.78218" lon="2.97639">
        <ele>5</ele>
        <time>1970-01-01T01:45:09Z</time>
      </trkpt>
      <trkpt lat="42.78218" lon="2.97646">
        <ele>5</ele>
        <time>1970-01-01T01:45:10Z</time>
      </trkpt>
      <trkpt lat="42.78217" lon="2.97652">
        <ele>5</ele>
        <time>1970-01-01T01:45:11Z</time>
      </trkpt>
      <trkpt lat="42.78215" lon="2.97657">
        <ele>5</ele>
        <time>1970-01-01T01:45:12Z</time>
      </trkpt>
      <trkpt lat="42.78213" lon="2.97663">
        <ele>4.8</ele>
        <time>1970-01-01T01:45:13Z</time>
      </trkpt>
      <trkpt lat="42.78209" lon="2.97668">
        <ele>4.8</ele>
        <time>1970-01-01T01:45:14Z</time>
      </trkpt>
      <trkpt lat="42.78206" lon="2.97673">
        <ele>4.8</ele>
        <time>1970-01-01T01:45:15Z</time>
      </trkpt>
      <trkpt lat="42.78203" lon="2.97678">
        <ele>4.8</ele>
        <time>1970-01-01T01:45:16Z</time>
      </trkpt>
      <trkpt lat="42.782" lon="2.97684">
        <ele>4.6</ele>
        <time>1970-01-01T01:45:17Z</time>
      </trkpt>
      <trkpt lat="42.78198" lon="2.97689">
        <ele>4.6</ele>
        <time>1970-01-01T01:45:18Z</time>
      </trkpt>
      <trkpt lat="42.78196" lon="2.97695">
        <ele>4.6</ele>
        <time>1970-01-01T01:45:19Z</time>
      </trkpt>
      <trkpt lat="42.78194" lon="2.97701">
        <ele>4.6</ele>
        <time>1970-01-01T01:45:20Z</time>
      </trkpt>
      <trkpt lat="42.78192" lon="2.97707">
        <ele>4.6</ele>
        <time>1970-01-01T01:45:21Z</time>
      </trkpt>
      <trkpt lat="42.78191" lon="2.97713">
        <ele>4.6</ele>
        <time>1970-01-01T01:45:22Z</time>
      </trkpt>
      <trkpt lat="42.78189" lon="2.9772">
        <ele>4.6</ele>
        <time>1970-01-01T01:45:23Z</time>
      </trkpt>
      <trkpt lat="42.78188" lon="2.97726">
        <ele>4.6</ele>
        <time>1970-01-01T01:45:24Z</time>
      </trkpt>
      <trkpt lat="42.78186" lon="2.97732">
        <ele>4.6</ele>
        <time>1970-01-01T01:45:25Z</time>
      </trkpt>
      <trkpt lat="42.78184" lon="2.97739">
        <ele>4.6</ele>
        <time>1970-01-01T01:45:26Z</time>
      </trkpt>
      <trkpt lat="42.78182" lon="2.97745">
        <ele>4.6</ele>
        <time>1970-01-01T01:45:27Z</time>
      </trkpt>
      <trkpt lat="42.7818" lon="2.97751">
        <ele>4.6</ele>
        <time>1970-01-01T01:45:28Z</time>
      </trkpt>
      <trkpt lat="42.78178" lon="2.97757">
        <ele>4.6</ele>
        <time>1970-01-01T01:45:29Z</time>
      </trkpt>
      <trkpt lat="42.78175" lon="2.97763">
        <ele>4.6</ele>
        <time>1970-01-01T01:45:30Z</time>
      </trkpt>
      <trkpt lat="42.78173" lon="2.97769">
        <ele>4.6</ele>
        <time>1970-01-01T01:45:31Z</time>
      </trkpt>
      <trkpt lat="42.7817" lon="2.97775">
        <ele>4.6</ele>
        <time>1970-01-01T01:45:32Z</time>
      </trkpt>
      <trkpt lat="42.78168" lon="2.97781">
        <ele>4.6</ele>
        <time>1970-01-01T01:45:33Z</time>
      </trkpt>
      <trkpt lat="42.78165" lon="2.97787">
        <ele>4.6</ele>
        <time>1970-01-01T01:45:34Z</time>
      </trkpt>
      <trkpt lat="42.78163" lon="2.97792">
        <ele>4.6</ele>
        <time>1970-01-01T01:45:35Z</time>
      </trkpt>
      <trkpt lat="42.7816" lon="2.97797">
        <ele>4.6</ele>
        <time>1970-01-01T01:45:36Z</time>
      </trkpt>
      <trkpt lat="42.78157" lon="2.97802">
        <ele>4.6</ele>
        <time>1970-01-01T01:45:37Z</time>
      </trkpt>
      <trkpt lat="42.78154" lon="2.97806">
        <ele>4.6</ele>
        <time>1970-01-01T01:45:38Z</time>
      </trkpt>
      <trkpt lat="42.7815" lon="2.97808">
        <ele>4.8</ele>
        <time>1970-01-01T01:45:39Z</time>
      </trkpt>
      <trkpt lat="42.78147" lon="2.9781">
        <ele>5</ele>
        <time>1970-01-01T01:45:40Z</time>
      </trkpt>
      <trkpt lat="42.78143" lon="2.97812">
        <ele>5.2</ele>
        <time>1970-01-01T01:45:41Z</time>
      </trkpt>
      <trkpt lat="42.78141" lon="2.97815">
        <ele>5.4</ele>
        <time>1970-01-01T01:45:42Z</time>
      </trkpt>
      <trkpt lat="42.78138" lon="2.97817">
        <ele>5.6</ele>
        <time>1970-01-01T01:45:43Z</time>
      </trkpt>
      <trkpt lat="42.78137" lon="2.97818">
        <ele>5.8</ele>
        <time>1970-01-01T01:45:44Z</time>
      </trkpt>
      <trkpt lat="42.78134" lon="2.9782">
        <ele>6</ele>
        <time>1970-01-01T01:45:45Z</time>
      </trkpt>
      <trkpt lat="42.78132" lon="2.97821">
        <ele>6.2</ele>
        <time>1970-01-01T01:45:46Z</time>
      </trkpt>
      <trkpt lat="42.7813" lon="2.97822">
        <ele>6.4</ele>
        <time>1970-01-01T01:45:47Z</time>
      </trkpt>
      <trkpt lat="42.78128" lon="2.97824">
        <ele>6.6</ele>
        <time>1970-01-01T01:45:48Z</time>
      </trkpt>
      <trkpt lat="42.78127" lon="2.97825">
        <ele>6.8</ele>
        <time>1970-01-01T01:45:49Z</time>
      </trkpt>
      <trkpt lat="42.78126" lon="2.97826">
        <ele>7</ele>
        <time>1970-01-01T01:45:50Z</time>
      </trkpt>
      <trkpt lat="42.78124" lon="2.97827">
        <ele>7</ele>
        <time>1970-01-01T01:45:51Z</time>
      </trkpt>
      <trkpt lat="42.78123" lon="2.97828">
        <ele>7.2</ele>
        <time>1970-01-01T01:45:52Z</time>
      </trkpt>
      <trkpt lat="42.78121" lon="2.97829">
        <ele>7.4</ele>
        <time>1970-01-01T01:45:53Z</time>
      </trkpt>
      <trkpt lat="42.7812" lon="2.97829">
        <ele>7.6</ele>
        <time>1970-01-01T01:45:54Z</time>
      </trkpt>
      <trkpt lat="42.78118" lon="2.9783">
        <ele>7.8</ele>
        <time>1970-01-01T01:45:55Z</time>
      </trkpt>
      <trkpt lat="42.78117" lon="2.97831">
        <ele>7.8</ele>
        <time>1970-01-01T01:45:56Z</time>
      </trkpt>
      <trkpt lat="42.78115" lon="2.97832">
        <ele>8</ele>
        <time>1970-01-01T01:45:57Z</time>
      </trkpt>
      <trkpt lat="42.78112" lon="2.97833">
        <ele>8.4</ele>
        <time>1970-01-01T01:45:58Z</time>
      </trkpt>
      <trkpt lat="42.78112" lon="2.97834">
        <ele>8.4</ele>
        <time>1970-01-01T01:45:59Z</time>
      </trkpt>
      <trkpt lat="42.7811" lon="2.97835">
        <ele>8.6</ele>
        <time>1970-01-01T01:46:00Z</time>
      </trkpt>
      <trkpt lat="42.78108" lon="2.97836">
        <ele>8.8</ele>
        <time>1970-01-01T01:46:01Z</time>
      </trkpt>
      <trkpt lat="42.78106" lon="2.97837">
        <ele>9</ele>
        <time>1970-01-01T01:46:02Z</time>
      </trkpt>
      <trkpt lat="42.78105" lon="2.97838">
        <ele>9</ele>
        <time>1970-01-01T01:46:03Z</time>
      </trkpt>
      <trkpt lat="42.78103" lon="2.97838">
        <ele>9.2</ele>
        <time>1970-01-01T01:46:04Z</time>
      </trkpt>
      <trkpt lat="42.78102" lon="2.9784">
        <ele>9.4</ele>
        <time>1970-01-01T01:46:05Z</time>
      </trkpt>
      <trkpt lat="42.781" lon="2.97841">
        <ele>9.6</ele>
        <time>1970-01-01T01:46:06Z</time>
      </trkpt>
      <trkpt lat="42.78099" lon="2.97841">
        <ele>9.6</ele>
        <time>1970-01-01T01:46:07Z</time>
      </trkpt>
      <trkpt lat="42.78098" lon="2.97842">
        <ele>9.8</ele>
        <time>1970-01-01T01:46:08Z</time>
      </trkpt>
      <trkpt lat="42.78098" lon="2.97841">
        <ele>9.8</ele>
        <time>1970-01-01T01:46:09Z</time>
      </trkpt>
      <trkpt lat="42.78098" lon="2.9784">
        <ele>9.8</ele>
        <time>1970-01-01T01:46:10Z</time>
      </trkpt>
      <trkpt lat="42.78097" lon="2.97839">
        <ele>9.8</ele>
        <time>1970-01-01T01:46:11Z</time>
      </trkpt>
      <trkpt lat="42.78096" lon="2.97839">
        <ele>10</ele>
        <time>1970-01-01T01:46:12Z</time>
      </trkpt>
      <trkpt lat="42.78095" lon="2.97839">
        <ele>10</ele>
        <time>1970-01-01T01:46:13Z</time>
      </trkpt>
      <trkpt lat="42.78094" lon="2.97839">
        <ele>10</ele>
        <time>1970-01-01T01:46:14Z</time>
      </trkpt>
      <trkpt lat="42.78093" lon="2.9784">
        <ele>10.2</ele>
        <time>1970-01-01T01:46:15Z</time>
      </trkpt>
      <trkpt lat="42.78093" lon="2.97841">
        <ele>10.2</ele>
        <time>1970-01-01T01:46:16Z</time>
      </trkpt>
      <trkpt lat="42.78092" lon="2.97841">
        <ele>10.2</ele>
        <time>1970-01-01T01:46:17Z</time>
      </trkpt>
      <trkpt lat="42.7809" lon="2.97842">
        <ele>10.2</ele>
        <time>1970-01-01T01:46:18Z</time>
      </trkpt>
      <trkpt lat="42.78088" lon="2.97843">
        <ele>10.4</ele>
        <time>1970-01-01T01:46:19Z</time>
      </trkpt>
      <trkpt lat="42.78087" lon="2.97844">
        <ele>10.4</ele>
        <time>1970-01-01T01:46:20Z</time>
      </trkpt>
      <trkpt lat="42.78084" lon="2.97846">
        <ele>10.4</ele>
        <time>1970-01-01T01:46:21Z</time>
      </trkpt>
      <trkpt lat="42.78083" lon="2.97847">
        <ele>10.4</ele>
        <time>1970-01-01T01:46:22Z</time>
      </trkpt>
      <trkpt lat="42.78081" lon="2.97848">
        <ele>10.4</ele>
        <time>1970-01-01T01:46:23Z</time>
      </trkpt>
      <trkpt lat="42.7808" lon="2.97848">
        <ele>10.4</ele>
        <time>1970-01-01T01:46:24Z</time>
      </trkpt>
      <trkpt lat="42.78077" lon="2.9785">
        <ele>10.2</ele>
        <time>1970-01-01T01:46:25Z</time>
      </trkpt>
      <trkpt lat="42.78076" lon="2.97851">
        <ele>10.2</ele>
        <time>1970-01-01T01:46:26Z</time>
      </trkpt>
      <trkpt lat="42.78073" lon="2.97853">
        <ele>10.2</ele>
        <time>1970-01-01T01:46:27Z</time>
      </trkpt>
      <trkpt lat="42.78071" lon="2.97854">
        <ele>10.2</ele>
        <time>1970-01-01T01:46:28Z</time>
      </trkpt>
      <trkpt lat="42.78068" lon="2.97857">
        <ele>10.2</ele>
        <time>1970-01-01T01:46:29Z</time>
      </trkpt>
      <trkpt lat="42.78067" lon="2.97857">
        <ele>10.2</ele>
        <time>1970-01-01T01:46:30Z</time>
      </trkpt>
      <trkpt lat="42.78064" lon="2.97859">
        <ele>10.2</ele>
        <time>1970-01-01T01:46:31Z</time>
      </trkpt>
      <trkpt lat="42.78061" lon="2.97861">
        <ele>10.2</ele>
        <time>1970-01-01T01:46:32Z</time>
      </trkpt>
      <trkpt lat="42.78059" lon="2.97863">
        <ele>10.2</ele>
        <time>1970-01-01T01:46:33Z</time>
      </trkpt>
      <trkpt lat="42.78056" lon="2.97865">
        <ele>10</ele>
        <time>1970-01-01T01:46:34Z</time>
      </trkpt>
      <trkpt lat="42.78053" lon="2.97868">
        <ele>10</ele>
        <time>1970-01-01T01:46:35Z</time>
      </trkpt>
      <trkpt lat="42.7805" lon="2.97871">
        <ele>9.8</ele>
        <time>1970-01-01T01:46:36Z</time>
      </trkpt>
      <trkpt lat="42.78047" lon="2.97875">
        <ele>9.6</ele>
        <time>1970-01-01T01:46:37Z</time>
      </trkpt>
      <trkpt lat="42.78044" lon="2.97878">
        <ele>9.2</ele>
        <time>1970-01-01T01:46:38Z</time>
      </trkpt>
      <trkpt lat="42.7804" lon="2.97883">
        <ele>9</ele>
        <time>1970-01-01T01:46:39Z</time>
      </trkpt>
      <trkpt lat="42.78036" lon="2.97888">
        <ele>8.6</ele>
        <time>1970-01-01T01:46:40Z</time>
      </trkpt>
      <trkpt lat="42.78033" lon="2.97895">
        <ele>8.4</ele>
        <time>1970-01-01T01:46:41Z</time>
      </trkpt>
      <trkpt lat="42.7803" lon="2.97901">
        <ele>8.2</ele>
        <time>1970-01-01T01:46:42Z</time>
      </trkpt>
      <trkpt lat="42.78028" lon="2.97907">
        <ele>8</ele>
        <time>1970-01-01T01:46:43Z</time>
      </trkpt>
      <trkpt lat="42.78026" lon="2.97911">
        <ele>7.8</ele>
        <time>1970-01-01T01:46:44Z</time>
      </trkpt>
      <trkpt lat="42.78025" lon="2.97915">
        <ele>7.8</ele>
        <time>1970-01-01T01:46:45Z</time>
      </trkpt>
      <trkpt lat="42.78024" lon="2.97919">
        <ele>7.6</ele>
        <time>1970-01-01T01:46:46Z</time>
      </trkpt>
      <trkpt lat="42.78024" lon="2.97921">
        <ele>7.6</ele>
        <time>1970-01-01T01:46:47Z</time>
      </trkpt>
      <trkpt lat="42.78025" lon="2.97924">
        <ele>7.6</ele>
        <time>1970-01-01T01:46:48Z</time>
      </trkpt>
      <trkpt lat="42.78025" lon="2.97925">
        <ele>7.4</ele>
        <time>1970-01-01T01:46:49Z</time>
      </trkpt>
      <trkpt lat="42.78025" lon="2.97927">
        <ele>7.4</ele>
        <time>1970-01-01T01:46:50Z</time>
      </trkpt>
      <trkpt lat="42.78024" lon="2.9793">
        <ele>7.2</ele>
        <time>1970-01-01T01:46:51Z</time>
      </trkpt>
      <trkpt lat="42.78023" lon="2.97934">
        <ele>7</ele>
        <time>1970-01-01T01:46:52Z</time>
      </trkpt>
      <trkpt lat="42.78022" lon="2.97938">
        <ele>6.8</ele>
        <time>1970-01-01T01:46:53Z</time>
      </trkpt>
      <trkpt lat="42.7802" lon="2.97942">
        <ele>6.6</ele>
        <time>1970-01-01T01:46:54Z</time>
      </trkpt>
      <trkpt lat="42.78018" lon="2.97946">
        <ele>6.4</ele>
        <time>1970-01-01T01:46:55Z</time>
      </trkpt>
      <trkpt lat="42.78016" lon="2.9795">
        <ele>6.2</ele>
        <time>1970-01-01T01:46:56Z</time>
      </trkpt>
      <trkpt lat="42.78014" lon="2.97955">
        <ele>5.8</ele>
        <time>1970-01-01T01:46:57Z</time>
      </trkpt>
      <trkpt lat="42.78011" lon="2.9796">
        <ele>5.6</ele>
        <time>1970-01-01T01:46:58Z</time>
      </trkpt>
      <trkpt lat="42.78007" lon="2.97964">
        <ele>5.2</ele>
        <time>1970-01-01T01:46:59Z</time>
      </trkpt>
      <trkpt lat="42.78001" lon="2.97967">
        <ele>5</ele>
        <time>1970-01-01T01:47:00Z</time>
      </trkpt>
      <trkpt lat="42.77996" lon="2.97971">
        <ele>4.6</ele>
        <time>1970-01-01T01:47:01Z</time>
      </trkpt>
      <trkpt lat="42.77991" lon="2.97976">
        <ele>4.6</ele>
        <time>1970-01-01T01:47:02Z</time>
      </trkpt>
      <trkpt lat="42.77987" lon="2.97982">
        <ele>4.4</ele>
        <time>1970-01-01T01:47:03Z</time>
      </trkpt>
      <trkpt lat="42.77983" lon="2.97987">
        <ele>4.4</ele>
        <time>1970-01-01T01:47:04Z</time>
      </trkpt>
      <trkpt lat="42.77979" lon="2.97993">
        <ele>4.4</ele>
        <time>1970-01-01T01:47:05Z</time>
      </trkpt>
      <trkpt lat="42.77975" lon="2.97999">
        <ele>4.4</ele>
        <time>1970-01-01T01:47:06Z</time>
      </trkpt>
      <trkpt lat="42.77971" lon="2.98004">
        <ele>4.4</ele>
        <time>1970-01-01T01:47:07Z</time>
      </trkpt>
      <trkpt lat="42.77968" lon="2.9801">
        <ele>4.4</ele>
        <time>1970-01-01T01:47:08Z</time>
      </trkpt>
      <trkpt lat="42.77964" lon="2.98015">
        <ele>4.4</ele>
        <time>1970-01-01T01:47:09Z</time>
      </trkpt>
      <trkpt lat="42.77961" lon="2.9802">
        <ele>4.4</ele>
        <time>1970-01-01T01:47:10Z</time>
      </trkpt>
      <trkpt lat="42.77958" lon="2.98024">
        <ele>4.4</ele>
        <time>1970-01-01T01:47:11Z</time>
      </trkpt>
      <trkpt lat="42.77955" lon="2.98029">
        <ele>4.6</ele>
        <time>1970-01-01T01:47:12Z</time>
      </trkpt>
      <trkpt lat="42.77952" lon="2.98034">
        <ele>4.6</ele>
        <time>1970-01-01T01:47:13Z</time>
      </trkpt>
      <trkpt lat="42.77949" lon="2.98038">
        <ele>4.6</ele>
        <time>1970-01-01T01:47:14Z</time>
      </trkpt>
      <trkpt lat="42.77947" lon="2.98042">
        <ele>4.6</ele>
        <time>1970-01-01T01:47:15Z</time>
      </trkpt>
      <trkpt lat="42.77944" lon="2.98046">
        <ele>4.6</ele>
        <time>1970-01-01T01:47:16Z</time>
      </trkpt>
      <trkpt lat="42.77942" lon="2.98051">
        <ele>4.6</ele>
        <time>1970-01-01T01:47:17Z</time>
      </trkpt>
      <trkpt lat="42.77939" lon="2.98055">
        <ele>4.6</ele>
        <time>1970-01-01T01:47:18Z</time>
      </trkpt>
      <trkpt lat="42.77937" lon="2.98059">
        <ele>4.6</ele>
        <time>1970-01-01T01:47:19Z</time>
      </trkpt>
      <trkpt lat="42.77935" lon="2.98063">
        <ele>4.6</ele>
        <time>1970-01-01T01:47:20Z</time>
      </trkpt>
      <trkpt lat="42.77932" lon="2.98067">
        <ele>4.6</ele>
        <time>1970-01-01T01:47:21Z</time>
      </trkpt>
      <trkpt lat="42.77929" lon="2.9807">
        <ele>4.6</ele>
        <time>1970-01-01T01:47:22Z</time>
      </trkpt>
      <trkpt lat="42.77927" lon="2.98074">
        <ele>4.6</ele>
        <time>1970-01-01T01:47:23Z</time>
      </trkpt>
      <trkpt lat="42.77924" lon="2.98078">
        <ele>4.6</ele>
        <time>1970-01-01T01:47:24Z</time>
      </trkpt>
      <trkpt lat="42.77922" lon="2.98082">
        <ele>4.6</ele>
        <time>1970-01-01T01:47:25Z</time>
      </trkpt>
      <trkpt lat="42.77919" lon="2.98086">
        <ele>4.6</ele>
        <time>1970-01-01T01:47:26Z</time>
      </trkpt>
      <trkpt lat="42.77917" lon="2.9809">
        <ele>4.6</ele>
        <time>1970-01-01T01:47:27Z</time>
      </trkpt>
      <trkpt lat="42.77914" lon="2.98094">
        <ele>4.6</ele>
        <time>1970-01-01T01:47:28Z</time>
      </trkpt>
      <trkpt lat="42.77911" lon="2.98098">
        <ele>4.6</ele>
        <time>1970-01-01T01:47:29Z</time>
      </trkpt>
      <trkpt lat="42.77909" lon="2.98102">
        <ele>4.6</ele>
        <time>1970-01-01T01:47:30Z</time>
      </trkpt>
      <trkpt lat="42.77907" lon="2.98106">
        <ele>4.6</ele>
        <time>1970-01-01T01:47:31Z</time>
      </trkpt>
      <trkpt lat="42.77904" lon="2.9811">
        <ele>4.6</ele>
        <time>1970-01-01T01:47:32Z</time>
      </trkpt>
      <trkpt lat="42.77901" lon="2.98115">
        <ele>4.6</ele>
        <time>1970-01-01T01:47:33Z</time>
      </trkpt>
      <trkpt lat="42.77899" lon="2.98119">
        <ele>4.6</ele>
        <time>1970-01-01T01:47:34Z</time>
      </trkpt>
      <trkpt lat="42.77896" lon="2.98123">
        <ele>4.6</ele>
        <time>1970-01-01T01:47:35Z</time>
      </trkpt>
      <trkpt lat="42.77893" lon="2.98127">
        <ele>4.6</ele>
        <time>1970-01-01T01:47:36Z</time>
      </trkpt>
      <trkpt lat="42.7789" lon="2.98132">
        <ele>4.6</ele>
        <time>1970-01-01T01:47:37Z</time>
      </trkpt>
      <trkpt lat="42.77887" lon="2.98136">
        <ele>4.6</ele>
        <time>1970-01-01T01:47:38Z</time>
      </trkpt>
      <trkpt lat="42.77885" lon="2.9814">
        <ele>4.6</ele>
        <time>1970-01-01T01:47:39Z</time>
      </trkpt>
      <trkpt lat="42.77883" lon="2.98144">
        <ele>4.6</ele>
        <time>1970-01-01T01:47:40Z</time>
      </trkpt>
      <trkpt lat="42.7788" lon="2.98147">
        <ele>4.6</ele>
        <time>1970-01-01T01:47:41Z</time>
      </trkpt>
      <trkpt lat="42.77878" lon="2.98151">
        <ele>4.6</ele>
        <time>1970-01-01T01:47:42Z</time>
      </trkpt>
      <trkpt lat="42.77875" lon="2.98155">
        <ele>4.6</ele>
        <time>1970-01-01T01:47:43Z</time>
      </trkpt>
      <trkpt lat="42.77873" lon="2.98159">
        <ele>4.8</ele>
        <time>1970-01-01T01:47:44Z</time>
      </trkpt>
      <trkpt lat="42.7787" lon="2.98163">
        <ele>4.8</ele>
        <time>1970-01-01T01:47:45Z</time>
      </trkpt>
      <trkpt lat="42.77868" lon="2.98167">
        <ele>4.8</ele>
        <time>1970-01-01T01:47:46Z</time>
      </trkpt>
      <trkpt lat="42.77865" lon="2.9817">
        <ele>4.8</ele>
        <time>1970-01-01T01:47:47Z</time>
      </trkpt>
      <trkpt lat="42.77862" lon="2.98172">
        <ele>4.8</ele>
        <time>1970-01-01T01:47:48Z</time>
      </trkpt>
      <trkpt lat="42.77859" lon="2.98174">
        <ele>4.8</ele>
        <time>1970-01-01T01:47:49Z</time>
      </trkpt>
      <trkpt lat="42.77856" lon="2.98176">
        <ele>4.8</ele>
        <time>1970-01-01T01:47:50Z</time>
      </trkpt>
      <trkpt lat="42.77853" lon="2.98178">
        <ele>4.8</ele>
        <time>1970-01-01T01:47:51Z</time>
      </trkpt>
      <trkpt lat="42.77849" lon="2.9818">
        <ele>4.8</ele>
        <time>1970-01-01T01:47:52Z</time>
      </trkpt>
      <trkpt lat="42.77845" lon="2.98181">
        <ele>5</ele>
        <time>1970-01-01T01:47:53Z</time>
      </trkpt>
      <trkpt lat="42.77842" lon="2.98183">
        <ele>5</ele>
        <time>1970-01-01T01:47:54Z</time>
      </trkpt>
      <trkpt lat="42.77838" lon="2.98183">
        <ele>5</ele>
        <time>1970-01-01T01:47:55Z</time>
      </trkpt>
      <trkpt lat="42.77834" lon="2.98184">
        <ele>5</ele>
        <time>1970-01-01T01:47:56Z</time>
      </trkpt>
      <trkpt lat="42.7783" lon="2.98184">
        <ele>5</ele>
        <time>1970-01-01T01:47:57Z</time>
      </trkpt>
      <trkpt lat="42.77826" lon="2.98184">
        <ele>5</ele>
        <time>1970-01-01T01:47:58Z</time>
      </trkpt>
      <trkpt lat="42.77822" lon="2.98183">
        <ele>5.2</ele>
        <time>1970-01-01T01:47:59Z</time>
      </trkpt>
      <trkpt lat="42.77818" lon="2.98183">
        <ele>5.2</ele>
        <time>1970-01-01T01:48:00Z</time>
      </trkpt>
      <trkpt lat="42.77813" lon="2.98183">
        <ele>5.2</ele>
        <time>1970-01-01T01:48:01Z</time>
      </trkpt>
      <trkpt lat="42.77809" lon="2.98184">
        <ele>5.2</ele>
        <time>1970-01-01T01:48:02Z</time>
      </trkpt>
      <trkpt lat="42.77805" lon="2.98185">
        <ele>5.4</ele>
        <time>1970-01-01T01:48:03Z</time>
      </trkpt>
      <trkpt lat="42.778" lon="2.98186">
        <ele>5.4</ele>
        <time>1970-01-01T01:48:04Z</time>
      </trkpt>
      <trkpt lat="42.77797" lon="2.98189">
        <ele>5.4</ele>
        <time>1970-01-01T01:48:05Z</time>
      </trkpt>
      <trkpt lat="42.77792" lon="2.98192">
        <ele>5.4</ele>
        <time>1970-01-01T01:48:06Z</time>
      </trkpt>
      <trkpt lat="42.77789" lon="2.98195">
        <ele>5.4</ele>
        <time>1970-01-01T01:48:07Z</time>
      </trkpt>
      <trkpt lat="42.77785" lon="2.98199">
        <ele>5.4</ele>
        <time>1970-01-01T01:48:08Z</time>
      </trkpt>
      <trkpt lat="42.77782" lon="2.98203">
        <ele>5.4</ele>
        <time>1970-01-01T01:48:09Z</time>
      </trkpt>
      <trkpt lat="42.77779" lon="2.98207">
        <ele>5.4</ele>
        <time>1970-01-01T01:48:10Z</time>
      </trkpt>
      <trkpt lat="42.77775" lon="2.98212">
        <ele>5.4</ele>
        <time>1970-01-01T01:48:11Z</time>
      </trkpt>
      <trkpt lat="42.77772" lon="2.98217">
        <ele>5.4</ele>
        <time>1970-01-01T01:48:12Z</time>
      </trkpt>
      <trkpt lat="42.77769" lon="2.98222">
        <ele>5.4</ele>
        <time>1970-01-01T01:48:13Z</time>
      </trkpt>
      <trkpt lat="42.77767" lon="2.98228">
        <ele>5.4</ele>
        <time>1970-01-01T01:48:14Z</time>
      </trkpt>
      <trkpt lat="42.77764" lon="2.98233">
        <ele>5.4</ele>
        <time>1970-01-01T01:48:15Z</time>
      </trkpt>
      <trkpt lat="42.77761" lon="2.98237">
        <ele>5.6</ele>
        <time>1970-01-01T01:48:16Z</time>
      </trkpt>
      <trkpt lat="42.77759" lon="2.98242">
        <ele>5.6</ele>
        <time>1970-01-01T01:48:17Z</time>
      </trkpt>
      <trkpt lat="42.77756" lon="2.98246">
        <ele>5.6</ele>
        <time>1970-01-01T01:48:18Z</time>
      </trkpt>
      <trkpt lat="42.77753" lon="2.9825">
        <ele>5.6</ele>
        <time>1970-01-01T01:48:19Z</time>
      </trkpt>
      <trkpt lat="42.7775" lon="2.98254">
        <ele>5.6</ele>
        <time>1970-01-01T01:48:20Z</time>
      </trkpt>
      <trkpt lat="42.77748" lon="2.98258">
        <ele>5.6</ele>
        <time>1970-01-01T01:48:21Z</time>
      </trkpt>
      <trkpt lat="42.77745" lon="2.98263">
        <ele>5.6</ele>
        <time>1970-01-01T01:48:22Z</time>
      </trkpt>
      <trkpt lat="42.77742" lon="2.98267">
        <ele>5.8</ele>
        <time>1970-01-01T01:48:23Z</time>
      </trkpt>
      <trkpt lat="42.77739" lon="2.98272">
        <ele>5.8</ele>
        <time>1970-01-01T01:48:24Z</time>
      </trkpt>
      <trkpt lat="42.77736" lon="2.98276">
        <ele>5.8</ele>
        <time>1970-01-01T01:48:25Z</time>
      </trkpt>
      <trkpt lat="42.77733" lon="2.98281">
        <ele>5.8</ele>
        <time>1970-01-01T01:48:26Z</time>
      </trkpt>
      <trkpt lat="42.7773" lon="2.98285">
        <ele>5.8</ele>
        <time>1970-01-01T01:48:27Z</time>
      </trkpt>
      <trkpt lat="42.77728" lon="2.9829">
        <ele>6</ele>
        <time>1970-01-01T01:48:28Z</time>
      </trkpt>
      <trkpt lat="42.77725" lon="2.98295">
        <ele>6</ele>
        <time>1970-01-01T01:48:29Z</time>
      </trkpt>
      <trkpt lat="42.77723" lon="2.983">
        <ele>6</ele>
        <time>1970-01-01T01:48:30Z</time>
      </trkpt>
      <trkpt lat="42.77722" lon="2.98305">
        <ele>6</ele>
        <time>1970-01-01T01:48:31Z</time>
      </trkpt>
      <trkpt lat="42.7772" lon="2.98311">
        <ele>6</ele>
        <time>1970-01-01T01:48:32Z</time>
      </trkpt>
      <trkpt lat="42.77719" lon="2.98316">
        <ele>6</ele>
        <time>1970-01-01T01:48:33Z</time>
      </trkpt>
      <trkpt lat="42.77718" lon="2.98322">
        <ele>6.2</ele>
        <time>1970-01-01T01:48:34Z</time>
      </trkpt>
      <trkpt lat="42.77717" lon="2.98327">
        <ele>6.2</ele>
        <time>1970-01-01T01:48:35Z</time>
      </trkpt>
      <trkpt lat="42.77716" lon="2.98332">
        <ele>6.2</ele>
        <time>1970-01-01T01:48:36Z</time>
      </trkpt>
      <trkpt lat="42.77715" lon="2.98338">
        <ele>6.2</ele>
        <time>1970-01-01T01:48:37Z</time>
      </trkpt>
      <trkpt lat="42.77715" lon="2.98343">
        <ele>6.2</ele>
        <time>1970-01-01T01:48:38Z</time>
      </trkpt>
      <trkpt lat="42.77714" lon="2.98348">
        <ele>6.4</ele>
        <time>1970-01-01T01:48:39Z</time>
      </trkpt>
      <trkpt lat="42.77713" lon="2.98352">
        <ele>6.4</ele>
        <time>1970-01-01T01:48:40Z</time>
      </trkpt>
      <trkpt lat="42.77713" lon="2.98357">
        <ele>6.4</ele>
        <time>1970-01-01T01:48:41Z</time>
      </trkpt>
      <trkpt lat="42.77712" lon="2.98361">
        <ele>6.4</ele>
        <time>1970-01-01T01:48:42Z</time>
      </trkpt>
      <trkpt lat="42.77711" lon="2.98366">
        <ele>6.4</ele>
        <time>1970-01-01T01:48:43Z</time>
      </trkpt>
      <trkpt lat="42.77711" lon="2.9837">
        <ele>6.4</ele>
        <time>1970-01-01T01:48:44Z</time>
      </trkpt>
      <trkpt lat="42.7771" lon="2.98375">
        <ele>6.4</ele>
        <time>1970-01-01T01:48:45Z</time>
      </trkpt>
      <trkpt lat="42.77709" lon="2.98379">
        <ele>6.4</ele>
        <time>1970-01-01T01:48:46Z</time>
      </trkpt>
      <trkpt lat="42.77707" lon="2.98381">
        <ele>6.4</ele>
        <time>1970-01-01T01:48:47Z</time>
      </trkpt>
      <trkpt lat="42.77706" lon="2.98382">
        <ele>6.6</ele>
        <time>1970-01-01T01:48:48Z</time>
      </trkpt>
      <trkpt lat="42.77702" lon="2.9838">
        <ele>6.6</ele>
        <time>1970-01-01T01:48:49Z</time>
      </trkpt>
      <trkpt lat="42.77701" lon="2.9838">
        <ele>6.6</ele>
        <time>1970-01-01T01:48:50Z</time>
      </trkpt>
      <trkpt lat="42.77698" lon="2.98378">
        <ele>6.6</ele>
        <time>1970-01-01T01:48:51Z</time>
      </trkpt>
      <trkpt lat="42.77695" lon="2.98376">
        <ele>6.6</ele>
        <time>1970-01-01T01:48:52Z</time>
      </trkpt>
      <trkpt lat="42.77691" lon="2.98374">
        <ele>6.6</ele>
        <time>1970-01-01T01:48:53Z</time>
      </trkpt>
      <trkpt lat="42.77688" lon="2.98372">
        <ele>6.6</ele>
        <time>1970-01-01T01:48:54Z</time>
      </trkpt>
      <trkpt lat="42.77685" lon="2.9837">
        <ele>6.6</ele>
        <time>1970-01-01T01:48:55Z</time>
      </trkpt>
      <trkpt lat="42.77682" lon="2.98369">
        <ele>6.6</ele>
        <time>1970-01-01T01:48:56Z</time>
      </trkpt>
      <trkpt lat="42.77679" lon="2.98369">
        <ele>6.6</ele>
        <time>1970-01-01T01:48:57Z</time>
      </trkpt>
      <trkpt lat="42.77676" lon="2.98368">
        <ele>6.6</ele>
        <time>1970-01-01T01:48:58Z</time>
      </trkpt>
      <trkpt lat="42.77674" lon="2.98368">
        <ele>6.6</ele>
        <time>1970-01-01T01:48:59Z</time>
      </trkpt>
      <trkpt lat="42.77673" lon="2.98367">
        <ele>6.6</ele>
        <time>1970-01-01T01:49:00Z</time>
      </trkpt>
      <trkpt lat="42.77671" lon="2.98366">
        <ele>6.6</ele>
        <time>1970-01-01T01:49:01Z</time>
      </trkpt>
      <trkpt lat="42.7767" lon="2.98366">
        <ele>6.6</ele>
        <time>1970-01-01T01:49:02Z</time>
      </trkpt>
      <trkpt lat="42.77668" lon="2.98365">
        <ele>6.6</ele>
        <time>1970-01-01T01:49:03Z</time>
      </trkpt>
      <trkpt lat="42.77667" lon="2.98364">
        <ele>6.6</ele>
        <time>1970-01-01T01:49:04Z</time>
      </trkpt>
      <trkpt lat="42.77665" lon="2.98364">
        <ele>6.6</ele>
        <time>1970-01-01T01:49:05Z</time>
      </trkpt>
      <trkpt lat="42.77663" lon="2.98364">
        <ele>6.6</ele>
        <time>1970-01-01T01:49:06Z</time>
      </trkpt>
      <trkpt lat="42.77661" lon="2.98365">
        <ele>6.6</ele>
        <time>1970-01-01T01:49:07Z</time>
      </trkpt>
      <trkpt lat="42.7766" lon="2.98365">
        <ele>6.6</ele>
        <time>1970-01-01T01:49:08Z</time>
      </trkpt>
      <trkpt lat="42.77658" lon="2.98364">
        <ele>6.6</ele>
        <time>1970-01-01T01:49:09Z</time>
      </trkpt>
      <trkpt lat="42.77655" lon="2.98361">
        <ele>6.6</ele>
        <time>1970-01-01T01:49:10Z</time>
      </trkpt>
      <trkpt lat="42.77654" lon="2.9836">
        <ele>6.6</ele>
        <time>1970-01-01T01:49:11Z</time>
      </trkpt>
      <trkpt lat="42.77652" lon="2.98356">
        <ele>6.6</ele>
        <time>1970-01-01T01:49:12Z</time>
      </trkpt>
      <trkpt lat="42.7765" lon="2.98353">
        <ele>6.6</ele>
        <time>1970-01-01T01:49:13Z</time>
      </trkpt>
      <trkpt lat="42.77647" lon="2.9835">
        <ele>6.4</ele>
        <time>1970-01-01T01:49:14Z</time>
      </trkpt>
      <trkpt lat="42.77643" lon="2.98348">
        <ele>6.4</ele>
        <time>1970-01-01T01:49:15Z</time>
      </trkpt>
      <trkpt lat="42.77639" lon="2.98345">
        <ele>6.4</ele>
        <time>1970-01-01T01:49:16Z</time>
      </trkpt>
      <trkpt lat="42.77635" lon="2.98343">
        <ele>6.4</ele>
        <time>1970-01-01T01:49:17Z</time>
      </trkpt>
      <trkpt lat="42.77631" lon="2.98342">
        <ele>6.4</ele>
        <time>1970-01-01T01:49:18Z</time>
      </trkpt>
      <trkpt lat="42.77627" lon="2.9834">
        <ele>6.2</ele>
        <time>1970-01-01T01:49:19Z</time>
      </trkpt>
      <trkpt lat="42.77623" lon="2.98339">
        <ele>6.2</ele>
        <time>1970-01-01T01:49:20Z</time>
      </trkpt>
      <trkpt lat="42.7762" lon="2.98337">
        <ele>6.2</ele>
        <time>1970-01-01T01:49:21Z</time>
      </trkpt>
      <trkpt lat="42.77616" lon="2.98335">
        <ele>6.2</ele>
        <time>1970-01-01T01:49:22Z</time>
      </trkpt>
      <trkpt lat="42.77612" lon="2.98332">
        <ele>6.2</ele>
        <time>1970-01-01T01:49:23Z</time>
      </trkpt>
      <trkpt lat="42.77608" lon="2.9833">
        <ele>6.2</ele>
        <time>1970-01-01T01:49:24Z</time>
      </trkpt>
      <trkpt lat="42.77604" lon="2.98328">
        <ele>6.2</ele>
        <time>1970-01-01T01:49:25Z</time>
      </trkpt>
      <trkpt lat="42.776" lon="2.98326">
        <ele>6.2</ele>
        <time>1970-01-01T01:49:26Z</time>
      </trkpt>
      <trkpt lat="42.77596" lon="2.98323">
        <ele>6.2</ele>
        <time>1970-01-01T01:49:27Z</time>
      </trkpt>
      <trkpt lat="42.77592" lon="2.98321">
        <ele>6.2</ele>
        <time>1970-01-01T01:49:28Z</time>
      </trkpt>
      <trkpt lat="42.77588" lon="2.98318">
        <ele>6.2</ele>
        <time>1970-01-01T01:49:29Z</time>
      </trkpt>
      <trkpt lat="42.77584" lon="2.98316">
        <ele>6.2</ele>
        <time>1970-01-01T01:49:30Z</time>
      </trkpt>
      <trkpt lat="42.7758" lon="2.98314">
        <ele>6.2</ele>
        <time>1970-01-01T01:49:31Z</time>
      </trkpt>
      <trkpt lat="42.77576" lon="2.98312">
        <ele>6.2</ele>
        <time>1970-01-01T01:49:32Z</time>
      </trkpt>
      <trkpt lat="42.77572" lon="2.98309">
        <ele>6.2</ele>
        <time>1970-01-01T01:49:33Z</time>
      </trkpt>
      <trkpt lat="42.77568" lon="2.98307">
        <ele>6.2</ele>
        <time>1970-01-01T01:49:34Z</time>
      </trkpt>
      <trkpt lat="42.77564" lon="2.98305">
        <ele>6.2</ele>
        <time>1970-01-01T01:49:35Z</time>
      </trkpt>
      <trkpt lat="42.77559" lon="2.98303">
        <ele>6.2</ele>
        <time>1970-01-01T01:49:36Z</time>
      </trkpt>
      <trkpt lat="42.77555" lon="2.983">
        <ele>6.2</ele>
        <time>1970-01-01T01:49:37Z</time>
      </trkpt>
      <trkpt lat="42.77551" lon="2.98298">
        <ele>6.2</ele>
        <time>1970-01-01T01:49:38Z</time>
      </trkpt>
      <trkpt lat="42.77546" lon="2.98296">
        <ele>6.2</ele>
        <time>1970-01-01T01:49:39Z</time>
      </trkpt>
      <trkpt lat="42.77542" lon="2.98293">
        <ele>6.2</ele>
        <time>1970-01-01T01:49:40Z</time>
      </trkpt>
      <trkpt lat="42.77539" lon="2.98291">
        <ele>6.2</ele>
        <time>1970-01-01T01:49:41Z</time>
      </trkpt>
      <trkpt lat="42.77534" lon="2.98288">
        <ele>6.2</ele>
        <time>1970-01-01T01:49:42Z</time>
      </trkpt>
      <trkpt lat="42.7753" lon="2.98286">
        <ele>6.2</ele>
        <time>1970-01-01T01:49:43Z</time>
      </trkpt>
      <trkpt lat="42.77525" lon="2.98284">
        <ele>6.2</ele>
        <time>1970-01-01T01:49:44Z</time>
      </trkpt>
      <trkpt lat="42.77521" lon="2.98282">
        <ele>6.2</ele>
        <time>1970-01-01T01:49:45Z</time>
      </trkpt>
      <trkpt lat="42.77516" lon="2.9828">
        <ele>6.2</ele>
        <time>1970-01-01T01:49:46Z</time>
      </trkpt>
      <trkpt lat="42.77512" lon="2.98277">
        <ele>6.2</ele>
        <time>1970-01-01T01:49:47Z</time>
      </trkpt>
      <trkpt lat="42.77507" lon="2.98274">
        <ele>6.2</ele>
        <time>1970-01-01T01:49:48Z</time>
      </trkpt>
      <trkpt lat="42.77503" lon="2.98272">
        <ele>6.2</ele>
        <time>1970-01-01T01:49:49Z</time>
      </trkpt>
      <trkpt lat="42.77498" lon="2.98269">
        <ele>6.2</ele>
        <time>1970-01-01T01:49:50Z</time>
      </trkpt>
      <trkpt lat="42.77494" lon="2.98266">
        <ele>6.4</ele>
        <time>1970-01-01T01:49:51Z</time>
      </trkpt>
      <trkpt lat="42.77489" lon="2.98262">
        <ele>6.4</ele>
        <time>1970-01-01T01:49:52Z</time>
      </trkpt>
      <trkpt lat="42.77485" lon="2.98259">
        <ele>6.4</ele>
        <time>1970-01-01T01:49:53Z</time>
      </trkpt>
      <trkpt lat="42.7748" lon="2.98257">
        <ele>6.4</ele>
        <time>1970-01-01T01:49:54Z</time>
      </trkpt>
      <trkpt lat="42.77475" lon="2.98253">
        <ele>6.4</ele>
        <time>1970-01-01T01:49:55Z</time>
      </trkpt>
      <trkpt lat="42.7747" lon="2.98251">
        <ele>6.4</ele>
        <time>1970-01-01T01:49:56Z</time>
      </trkpt>
      <trkpt lat="42.77465" lon="2.98248">
        <ele>6.4</ele>
        <time>1970-01-01T01:49:57Z</time>
      </trkpt>
      <trkpt lat="42.7746" lon="2.98245">
        <ele>6.4</ele>
        <time>1970-01-01T01:49:58Z</time>
      </trkpt>
      <trkpt lat="42.77455" lon="2.98243">
        <ele>6.4</ele>
        <time>1970-01-01T01:49:59Z</time>
      </trkpt>
      <trkpt lat="42.7745" lon="2.9824">
        <ele>6.4</ele>
        <time>1970-01-01T01:50:00Z</time>
      </trkpt>
      <trkpt lat="42.77446" lon="2.98237">
        <ele>6.4</ele>
        <time>1970-01-01T01:50:01Z</time>
      </trkpt>
      <trkpt lat="42.77441" lon="2.98233">
        <ele>6.4</ele>
        <time>1970-01-01T01:50:02Z</time>
      </trkpt>
      <trkpt lat="42.77436" lon="2.9823">
        <ele>6.4</ele>
        <time>1970-01-01T01:50:03Z</time>
      </trkpt>
      <trkpt lat="42.77431" lon="2.98228">
        <ele>6.4</ele>
        <time>1970-01-01T01:50:04Z</time>
      </trkpt>
      <trkpt lat="42.77426" lon="2.98225">
        <ele>6.4</ele>
        <time>1970-01-01T01:50:05Z</time>
      </trkpt>
      <trkpt lat="42.77421" lon="2.98222">
        <ele>6.4</ele>
        <time>1970-01-01T01:50:06Z</time>
      </trkpt>
      <trkpt lat="42.77416" lon="2.9822">
        <ele>6.4</ele>
        <time>1970-01-01T01:50:07Z</time>
      </trkpt>
      <trkpt lat="42.77411" lon="2.98217">
        <ele>6.4</ele>
        <time>1970-01-01T01:50:08Z</time>
      </trkpt>
      <trkpt lat="42.77404" lon="2.98213">
        <ele>6.4</ele>
        <time>1970-01-01T01:50:09Z</time>
      </trkpt>
      <trkpt lat="42.77398" lon="2.98209">
        <ele>6.4</ele>
        <time>1970-01-01T01:50:10Z</time>
      </trkpt>
      <trkpt lat="42.77392" lon="2.98206">
        <ele>6.4</ele>
        <time>1970-01-01T01:50:11Z</time>
      </trkpt>
      <trkpt lat="42.77387" lon="2.98203">
        <ele>6.4</ele>
        <time>1970-01-01T01:50:12Z</time>
      </trkpt>
      <trkpt lat="42.77381" lon="2.982">
        <ele>6.4</ele>
        <time>1970-01-01T01:50:13Z</time>
      </trkpt>
      <trkpt lat="42.77375" lon="2.98197">
        <ele>6.4</ele>
        <time>1970-01-01T01:50:14Z</time>
      </trkpt>
      <trkpt lat="42.7737" lon="2.98194">
        <ele>6.4</ele>
        <time>1970-01-01T01:50:15Z</time>
      </trkpt>
      <trkpt lat="42.77365" lon="2.98191">
        <ele>6.4</ele>
        <time>1970-01-01T01:50:16Z</time>
      </trkpt>
      <trkpt lat="42.7736" lon="2.98188">
        <ele>6.4</ele>
        <time>1970-01-01T01:50:17Z</time>
      </trkpt>
      <trkpt lat="42.77355" lon="2.98185">
        <ele>6.4</ele>
        <time>1970-01-01T01:50:18Z</time>
      </trkpt>
      <trkpt lat="42.7735" lon="2.98182">
        <ele>6.4</ele>
        <time>1970-01-01T01:50:19Z</time>
      </trkpt>
      <trkpt lat="42.77345" lon="2.9818">
        <ele>6.4</ele>
        <time>1970-01-01T01:50:20Z</time>
      </trkpt>
      <trkpt lat="42.7734" lon="2.98177">
        <ele>6.4</ele>
        <time>1970-01-01T01:50:21Z</time>
      </trkpt>
      <trkpt lat="42.77335" lon="2.98174">
        <ele>6.4</ele>
        <time>1970-01-01T01:50:22Z</time>
      </trkpt>
      <trkpt lat="42.7733" lon="2.98171">
        <ele>6.4</ele>
        <time>1970-01-01T01:50:23Z</time>
      </trkpt>
      <trkpt lat="42.77325" lon="2.98167">
        <ele>6.4</ele>
        <time>1970-01-01T01:50:24Z</time>
      </trkpt>
      <trkpt lat="42.77319" lon="2.98164">
        <ele>6.4</ele>
        <time>1970-01-01T01:50:25Z</time>
      </trkpt>
      <trkpt lat="42.77314" lon="2.98161">
        <ele>6.4</ele>
        <time>1970-01-01T01:50:26Z</time>
      </trkpt>
      <trkpt lat="42.77309" lon="2.98158">
        <ele>6.6</ele>
        <time>1970-01-01T01:50:27Z</time>
      </trkpt>
      <trkpt lat="42.77304" lon="2.98156">
        <ele>6.6</ele>
        <time>1970-01-01T01:50:28Z</time>
      </trkpt>
      <trkpt lat="42.773" lon="2.98153">
        <ele>6.4</ele>
        <time>1970-01-01T01:50:29Z</time>
      </trkpt>
      <trkpt lat="42.77294" lon="2.98151">
        <ele>6.4</ele>
        <time>1970-01-01T01:50:30Z</time>
      </trkpt>
      <trkpt lat="42.77289" lon="2.98149">
        <ele>6.4</ele>
        <time>1970-01-01T01:50:31Z</time>
      </trkpt>
      <trkpt lat="42.77284" lon="2.98146">
        <ele>6.4</ele>
        <time>1970-01-01T01:50:32Z</time>
      </trkpt>
      <trkpt lat="42.77279" lon="2.98143">
        <ele>6.4</ele>
        <time>1970-01-01T01:50:33Z</time>
      </trkpt>
      <trkpt lat="42.77274" lon="2.98139">
        <ele>6.4</ele>
        <time>1970-01-01T01:50:34Z</time>
      </trkpt>
      <trkpt lat="42.7727" lon="2.98135">
        <ele>6.4</ele>
        <time>1970-01-01T01:50:35Z</time>
      </trkpt>
      <trkpt lat="42.77266" lon="2.9813">
        <ele>6.4</ele>
        <time>1970-01-01T01:50:36Z</time>
      </trkpt>
      <trkpt lat="42.77262" lon="2.98126">
        <ele>6.4</ele>
        <time>1970-01-01T01:50:37Z</time>
      </trkpt>
      <trkpt lat="42.77258" lon="2.98121">
        <ele>6.4</ele>
        <time>1970-01-01T01:50:38Z</time>
      </trkpt>
      <trkpt lat="42.77254" lon="2.98117">
        <ele>6.4</ele>
        <time>1970-01-01T01:50:39Z</time>
      </trkpt>
      <trkpt lat="42.77249" lon="2.98112">
        <ele>6.4</ele>
        <time>1970-01-01T01:50:40Z</time>
      </trkpt>
      <trkpt lat="42.77245" lon="2.98107">
        <ele>6.4</ele>
        <time>1970-01-01T01:50:41Z</time>
      </trkpt>
      <trkpt lat="42.77241" lon="2.98102">
        <ele>6.4</ele>
        <time>1970-01-01T01:50:42Z</time>
      </trkpt>
      <trkpt lat="42.77238" lon="2.98097">
        <ele>6.4</ele>
        <time>1970-01-01T01:50:43Z</time>
      </trkpt>
      <trkpt lat="42.77235" lon="2.98091">
        <ele>6.2</ele>
        <time>1970-01-01T01:50:44Z</time>
      </trkpt>
      <trkpt lat="42.77232" lon="2.98085">
        <ele>6.2</ele>
        <time>1970-01-01T01:50:45Z</time>
      </trkpt>
      <trkpt lat="42.77229" lon="2.98077">
        <ele>6.2</ele>
        <time>1970-01-01T01:50:46Z</time>
      </trkpt>
      <trkpt lat="42.77226" lon="2.98069">
        <ele>6.2</ele>
        <time>1970-01-01T01:50:47Z</time>
      </trkpt>
      <trkpt lat="42.77222" lon="2.98062">
        <ele>6.2</ele>
        <time>1970-01-01T01:50:48Z</time>
      </trkpt>
      <trkpt lat="42.77219" lon="2.98055">
        <ele>6</ele>
        <time>1970-01-01T01:50:49Z</time>
      </trkpt>
      <trkpt lat="42.77216" lon="2.98049">
        <ele>6</ele>
        <time>1970-01-01T01:50:50Z</time>
      </trkpt>
      <trkpt lat="42.77213" lon="2.98042">
        <ele>6</ele>
        <time>1970-01-01T01:50:51Z</time>
      </trkpt>
      <trkpt lat="42.7721" lon="2.98035">
        <ele>6</ele>
        <time>1970-01-01T01:50:52Z</time>
      </trkpt>
      <trkpt lat="42.77208" lon="2.98029">
        <ele>6</ele>
        <time>1970-01-01T01:50:53Z</time>
      </trkpt>
      <trkpt lat="42.77205" lon="2.98022">
        <ele>6</ele>
        <time>1970-01-01T01:50:54Z</time>
      </trkpt>
      <trkpt lat="42.77202" lon="2.98016">
        <ele>6.2</ele>
        <time>1970-01-01T01:50:55Z</time>
      </trkpt>
      <trkpt lat="42.772" lon="2.9801">
        <ele>6.2</ele>
        <time>1970-01-01T01:50:56Z</time>
      </trkpt>
      <trkpt lat="42.77198" lon="2.98004">
        <ele>6.2</ele>
        <time>1970-01-01T01:50:57Z</time>
      </trkpt>
      <trkpt lat="42.77195" lon="2.97997">
        <ele>6.2</ele>
        <time>1970-01-01T01:50:58Z</time>
      </trkpt>
      <trkpt lat="42.77192" lon="2.97991">
        <ele>6.2</ele>
        <time>1970-01-01T01:50:59Z</time>
      </trkpt>
      <trkpt lat="42.7719" lon="2.97985">
        <ele>6.2</ele>
        <time>1970-01-01T01:51:00Z</time>
      </trkpt>
      <trkpt lat="42.77187" lon="2.97978">
        <ele>6.2</ele>
        <time>1970-01-01T01:51:01Z</time>
      </trkpt>
      <trkpt lat="42.77184" lon="2.97972">
        <ele>6.4</ele>
        <time>1970-01-01T01:51:02Z</time>
      </trkpt>
      <trkpt lat="42.77181" lon="2.97966">
        <ele>6.4</ele>
        <time>1970-01-01T01:51:03Z</time>
      </trkpt>
      <trkpt lat="42.77179" lon="2.97959">
        <ele>6.4</ele>
        <time>1970-01-01T01:51:04Z</time>
      </trkpt>
      <trkpt lat="42.77176" lon="2.97953">
        <ele>6.4</ele>
        <time>1970-01-01T01:51:05Z</time>
      </trkpt>
      <trkpt lat="42.77173" lon="2.97946">
        <ele>6.6</ele>
        <time>1970-01-01T01:51:06Z</time>
      </trkpt>
      <trkpt lat="42.77171" lon="2.97939">
        <ele>6.6</ele>
        <time>1970-01-01T01:51:07Z</time>
      </trkpt>
      <trkpt lat="42.77168" lon="2.97933">
        <ele>6.6</ele>
        <time>1970-01-01T01:51:08Z</time>
      </trkpt>
      <trkpt lat="42.77165" lon="2.97926">
        <ele>6.6</ele>
        <time>1970-01-01T01:51:09Z</time>
      </trkpt>
      <trkpt lat="42.77162" lon="2.97919">
        <ele>6.6</ele>
        <time>1970-01-01T01:51:10Z</time>
      </trkpt>
      <trkpt lat="42.77159" lon="2.97912">
        <ele>6.8</ele>
        <time>1970-01-01T01:51:11Z</time>
      </trkpt>
      <trkpt lat="42.77157" lon="2.97905">
        <ele>6.8</ele>
        <time>1970-01-01T01:51:12Z</time>
      </trkpt>
      <trkpt lat="42.77154" lon="2.97899">
        <ele>6.8</ele>
        <time>1970-01-01T01:51:13Z</time>
      </trkpt>
      <trkpt lat="42.77152" lon="2.97893">
        <ele>6.8</ele>
        <time>1970-01-01T01:51:14Z</time>
      </trkpt>
      <trkpt lat="42.77149" lon="2.97886">
        <ele>6.6</ele>
        <time>1970-01-01T01:51:15Z</time>
      </trkpt>
      <trkpt lat="42.77148" lon="2.9788">
        <ele>6.6</ele>
        <time>1970-01-01T01:51:16Z</time>
      </trkpt>
      <trkpt lat="42.77146" lon="2.97873">
        <ele>6.4</ele>
        <time>1970-01-01T01:51:17Z</time>
      </trkpt>
      <trkpt lat="42.77145" lon="2.97865">
        <ele>6.2</ele>
        <time>1970-01-01T01:51:18Z</time>
      </trkpt>
      <trkpt lat="42.77143" lon="2.97857">
        <ele>5.8</ele>
        <time>1970-01-01T01:51:19Z</time>
      </trkpt>
      <trkpt lat="42.77141" lon="2.97849">
        <ele>5.6</ele>
        <time>1970-01-01T01:51:20Z</time>
      </trkpt>
      <trkpt lat="42.77139" lon="2.97841">
        <ele>5.2</ele>
        <time>1970-01-01T01:51:21Z</time>
      </trkpt>
      <trkpt lat="42.77136" lon="2.97833">
        <ele>5</ele>
        <time>1970-01-01T01:51:22Z</time>
      </trkpt>
      <trkpt lat="42.77134" lon="2.97827">
        <ele>4.8</ele>
        <time>1970-01-01T01:51:23Z</time>
      </trkpt>
      <trkpt lat="42.77133" lon="2.97823">
        <ele>4.8</ele>
        <time>1970-01-01T01:51:24Z</time>
      </trkpt>
      <trkpt lat="42.7713" lon="2.97819">
        <ele>4.6</ele>
        <time>1970-01-01T01:51:25Z</time>
      </trkpt>
      <trkpt lat="42.77129" lon="2.97818">
        <ele>4.6</ele>
        <time>1970-01-01T01:51:26Z</time>
      </trkpt>
      <trkpt lat="42.77126" lon="2.97815">
        <ele>4.6</ele>
        <time>1970-01-01T01:51:27Z</time>
      </trkpt>
      <trkpt lat="42.77123" lon="2.97811">
        <ele>4.6</ele>
        <time>1970-01-01T01:51:28Z</time>
      </trkpt>
      <trkpt lat="42.77122" lon="2.9781">
        <ele>4.6</ele>
        <time>1970-01-01T01:51:29Z</time>
      </trkpt>
      <trkpt lat="42.7712" lon="2.97806">
        <ele>4.6</ele>
        <time>1970-01-01T01:51:30Z</time>
      </trkpt>
      <trkpt lat="42.77117" lon="2.97802">
        <ele>4.6</ele>
        <time>1970-01-01T01:51:31Z</time>
      </trkpt>
      <trkpt lat="42.77114" lon="2.97798">
        <ele>4.6</ele>
        <time>1970-01-01T01:51:32Z</time>
      </trkpt>
      <trkpt lat="42.7711" lon="2.97794">
        <ele>4.6</ele>
        <time>1970-01-01T01:51:33Z</time>
      </trkpt>
      <trkpt lat="42.77107" lon="2.9779">
        <ele>4.6</ele>
        <time>1970-01-01T01:51:34Z</time>
      </trkpt>
      <trkpt lat="42.77105" lon="2.97785">
        <ele>4.6</ele>
        <time>1970-01-01T01:51:35Z</time>
      </trkpt>
      <trkpt lat="42.77102" lon="2.97781">
        <ele>4.8</ele>
        <time>1970-01-01T01:51:36Z</time>
      </trkpt>
      <trkpt lat="42.77099" lon="2.97777">
        <ele>4.8</ele>
        <time>1970-01-01T01:51:37Z</time>
      </trkpt>
      <trkpt lat="42.77097" lon="2.97773">
        <ele>4.8</ele>
        <time>1970-01-01T01:51:38Z</time>
      </trkpt>
      <trkpt lat="42.77094" lon="2.97768">
        <ele>5</ele>
        <time>1970-01-01T01:51:39Z</time>
      </trkpt>
      <trkpt lat="42.77092" lon="2.97764">
        <ele>5</ele>
        <time>1970-01-01T01:51:40Z</time>
      </trkpt>
      <trkpt lat="42.77089" lon="2.97759">
        <ele>5</ele>
        <time>1970-01-01T01:51:41Z</time>
      </trkpt>
      <trkpt lat="42.77086" lon="2.97755">
        <ele>5.2</ele>
        <time>1970-01-01T01:51:42Z</time>
      </trkpt>
      <trkpt lat="42.77083" lon="2.97751">
        <ele>5.2</ele>
        <time>1970-01-01T01:51:43Z</time>
      </trkpt>
      <trkpt lat="42.77081" lon="2.97746">
        <ele>5.2</ele>
        <time>1970-01-01T01:51:44Z</time>
      </trkpt>
      <trkpt lat="42.77078" lon="2.97743">
        <ele>5.4</ele>
        <time>1970-01-01T01:51:45Z</time>
      </trkpt>
      <trkpt lat="42.77075" lon="2.9774">
        <ele>5.4</ele>
        <time>1970-01-01T01:51:46Z</time>
      </trkpt>
      <trkpt lat="42.77072" lon="2.9774">
        <ele>5.4</ele>
        <time>1970-01-01T01:51:47Z</time>
      </trkpt>
      <trkpt lat="42.77069" lon="2.9774">
        <ele>5.4</ele>
        <time>1970-01-01T01:51:48Z</time>
      </trkpt>
      <trkpt lat="42.77067" lon="2.97742">
        <ele>5.4</ele>
        <time>1970-01-01T01:51:49Z</time>
      </trkpt>
      <trkpt lat="42.77064" lon="2.97745">
        <ele>5.4</ele>
        <time>1970-01-01T01:51:50Z</time>
      </trkpt>
      <trkpt lat="42.77061" lon="2.97749">
        <ele>5.4</ele>
        <time>1970-01-01T01:51:51Z</time>
      </trkpt>
      <trkpt lat="42.77058" lon="2.97753">
        <ele>5.4</ele>
        <time>1970-01-01T01:51:52Z</time>
      </trkpt>
      <trkpt lat="42.77055" lon="2.97757">
        <ele>5.4</ele>
        <time>1970-01-01T01:51:53Z</time>
      </trkpt>
      <trkpt lat="42.77051" lon="2.97761">
        <ele>5.4</ele>
        <time>1970-01-01T01:51:54Z</time>
      </trkpt>
      <trkpt lat="42.77048" lon="2.97765">
        <ele>5.2</ele>
        <time>1970-01-01T01:51:55Z</time>
      </trkpt>
      <trkpt lat="42.77045" lon="2.97769">
        <ele>5.2</ele>
        <time>1970-01-01T01:51:56Z</time>
      </trkpt>
      <trkpt lat="42.77042" lon="2.97773">
        <ele>5.2</ele>
        <time>1970-01-01T01:51:57Z</time>
      </trkpt>
      <trkpt lat="42.77038" lon="2.97777">
        <ele>5.2</ele>
        <time>1970-01-01T01:51:58Z</time>
      </trkpt>
      <trkpt lat="42.77035" lon="2.97782">
        <ele>5.2</ele>
        <time>1970-01-01T01:51:59Z</time>
      </trkpt>
      <trkpt lat="42.77032" lon="2.97786">
        <ele>5.2</ele>
        <time>1970-01-01T01:52:00Z</time>
      </trkpt>
      <trkpt lat="42.77028" lon="2.9779">
        <ele>5.2</ele>
        <time>1970-01-01T01:52:01Z</time>
      </trkpt>
      <trkpt lat="42.77024" lon="2.97795">
        <ele>5.2</ele>
        <time>1970-01-01T01:52:02Z</time>
      </trkpt>
      <trkpt lat="42.77021" lon="2.97799">
        <ele>5.2</ele>
        <time>1970-01-01T01:52:03Z</time>
      </trkpt>
      <trkpt lat="42.77017" lon="2.97802">
        <ele>5.2</ele>
        <time>1970-01-01T01:52:04Z</time>
      </trkpt>
      <trkpt lat="42.77013" lon="2.97806">
        <ele>5.2</ele>
        <time>1970-01-01T01:52:05Z</time>
      </trkpt>
      <trkpt lat="42.7701" lon="2.97809">
        <ele>5.2</ele>
        <time>1970-01-01T01:52:06Z</time>
      </trkpt>
      <trkpt lat="42.77006" lon="2.97812">
        <ele>5.2</ele>
        <time>1970-01-01T01:52:07Z</time>
      </trkpt>
      <trkpt lat="42.77002" lon="2.97816">
        <ele>5.2</ele>
        <time>1970-01-01T01:52:08Z</time>
      </trkpt>
      <trkpt lat="42.76998" lon="2.97819">
        <ele>5.2</ele>
        <time>1970-01-01T01:52:09Z</time>
      </trkpt>
      <trkpt lat="42.76993" lon="2.97822">
        <ele>5.2</ele>
        <time>1970-01-01T01:52:10Z</time>
      </trkpt>
      <trkpt lat="42.76989" lon="2.97825">
        <ele>5.2</ele>
        <time>1970-01-01T01:52:11Z</time>
      </trkpt>
      <trkpt lat="42.76985" lon="2.97828">
        <ele>5.2</ele>
        <time>1970-01-01T01:52:12Z</time>
      </trkpt>
      <trkpt lat="42.76981" lon="2.97832">
        <ele>5.2</ele>
        <time>1970-01-01T01:52:13Z</time>
      </trkpt>
      <trkpt lat="42.76977" lon="2.97835">
        <ele>5.4</ele>
        <time>1970-01-01T01:52:14Z</time>
      </trkpt>
      <trkpt lat="42.76973" lon="2.97839">
        <ele>5.4</ele>
        <time>1970-01-01T01:52:15Z</time>
      </trkpt>
      <trkpt lat="42.76968" lon="2.97842">
        <ele>5.4</ele>
        <time>1970-01-01T01:52:16Z</time>
      </trkpt>
      <trkpt lat="42.76965" lon="2.97845">
        <ele>5.4</ele>
        <time>1970-01-01T01:52:17Z</time>
      </trkpt>
      <trkpt lat="42.76961" lon="2.97849">
        <ele>5.4</ele>
        <time>1970-01-01T01:52:18Z</time>
      </trkpt>
      <trkpt lat="42.76957" lon="2.97852">
        <ele>5.4</ele>
        <time>1970-01-01T01:52:19Z</time>
      </trkpt>
      <trkpt lat="42.76954" lon="2.97855">
        <ele>5.4</ele>
        <time>1970-01-01T01:52:20Z</time>
      </trkpt>
      <trkpt lat="42.7695" lon="2.97859">
        <ele>5.4</ele>
        <time>1970-01-01T01:52:21Z</time>
      </trkpt>
      <trkpt lat="42.76947" lon="2.97862">
        <ele>5.4</ele>
        <time>1970-01-01T01:52:22Z</time>
      </trkpt>
      <trkpt lat="42.76943" lon="2.97866">
        <ele>5.6</ele>
        <time>1970-01-01T01:52:23Z</time>
      </trkpt>
      <trkpt lat="42.76939" lon="2.97871">
        <ele>5.6</ele>
        <time>1970-01-01T01:52:24Z</time>
      </trkpt>
      <trkpt lat="42.76935" lon="2.97875">
        <ele>5.6</ele>
        <time>1970-01-01T01:52:25Z</time>
      </trkpt>
      <trkpt lat="42.76931" lon="2.97879">
        <ele>5.6</ele>
        <time>1970-01-01T01:52:26Z</time>
      </trkpt>
      <trkpt lat="42.76927" lon="2.97883">
        <ele>5.6</ele>
        <time>1970-01-01T01:52:27Z</time>
      </trkpt>
      <trkpt lat="42.76923" lon="2.97887">
        <ele>5.6</ele>
        <time>1970-01-01T01:52:28Z</time>
      </trkpt>
      <trkpt lat="42.76919" lon="2.97891">
        <ele>5.6</ele>
        <time>1970-01-01T01:52:29Z</time>
      </trkpt>
      <trkpt lat="42.76915" lon="2.97895">
        <ele>5.6</ele>
        <time>1970-01-01T01:52:30Z</time>
      </trkpt>
      <trkpt lat="42.76911" lon="2.97899">
        <ele>5.6</ele>
        <time>1970-01-01T01:52:31Z</time>
      </trkpt>
      <trkpt lat="42.76907" lon="2.97903">
        <ele>5.6</ele>
        <time>1970-01-01T01:52:32Z</time>
      </trkpt>
      <trkpt lat="42.76903" lon="2.97907">
        <ele>5.8</ele>
        <time>1970-01-01T01:52:33Z</time>
      </trkpt>
      <trkpt lat="42.76899" lon="2.9791">
        <ele>5.8</ele>
        <time>1970-01-01T01:52:34Z</time>
      </trkpt>
      <trkpt lat="42.76895" lon="2.97914">
        <ele>5.8</ele>
        <time>1970-01-01T01:52:35Z</time>
      </trkpt>
      <trkpt lat="42.76891" lon="2.97918">
        <ele>5.8</ele>
        <time>1970-01-01T01:52:36Z</time>
      </trkpt>
      <trkpt lat="42.76888" lon="2.97921">
        <ele>6</ele>
        <time>1970-01-01T01:52:37Z</time>
      </trkpt>
      <trkpt lat="42.76885" lon="2.97926">
        <ele>6</ele>
        <time>1970-01-01T01:52:38Z</time>
      </trkpt>
      <trkpt lat="42.76882" lon="2.97929">
        <ele>6</ele>
        <time>1970-01-01T01:52:39Z</time>
      </trkpt>
      <trkpt lat="42.76879" lon="2.97934">
        <ele>6</ele>
        <time>1970-01-01T01:52:40Z</time>
      </trkpt>
      <trkpt lat="42.76875" lon="2.97938">
        <ele>6</ele>
        <time>1970-01-01T01:52:41Z</time>
      </trkpt>
      <trkpt lat="42.76871" lon="2.97942">
        <ele>6</ele>
        <time>1970-01-01T01:52:42Z</time>
      </trkpt>
      <trkpt lat="42.76868" lon="2.97946">
        <ele>6</ele>
        <time>1970-01-01T01:52:43Z</time>
      </trkpt>
      <trkpt lat="42.76864" lon="2.9795">
        <ele>6</ele>
        <time>1970-01-01T01:52:44Z</time>
      </trkpt>
      <trkpt lat="42.7686" lon="2.97953">
        <ele>6</ele>
        <time>1970-01-01T01:52:45Z</time>
      </trkpt>
      <trkpt lat="42.76857" lon="2.97958">
        <ele>6</ele>
        <time>1970-01-01T01:52:46Z</time>
      </trkpt>
      <trkpt lat="42.76853" lon="2.97962">
        <ele>6</ele>
        <time>1970-01-01T01:52:47Z</time>
      </trkpt>
      <trkpt lat="42.76849" lon="2.97966">
        <ele>6</ele>
        <time>1970-01-01T01:52:48Z</time>
      </trkpt>
      <trkpt lat="42.76846" lon="2.9797">
        <ele>6</ele>
        <time>1970-01-01T01:52:49Z</time>
      </trkpt>
      <trkpt lat="42.76842" lon="2.97974">
        <ele>6</ele>
        <time>1970-01-01T01:52:50Z</time>
      </trkpt>
      <trkpt lat="42.76839" lon="2.97978">
        <ele>6</ele>
        <time>1970-01-01T01:52:51Z</time>
      </trkpt>
      <trkpt lat="42.76835" lon="2.97982">
        <ele>6.2</ele>
        <time>1970-01-01T01:52:52Z</time>
      </trkpt>
      <trkpt lat="42.76831" lon="2.97986">
        <ele>6.2</ele>
        <time>1970-01-01T01:52:53Z</time>
      </trkpt>
      <trkpt lat="42.76827" lon="2.97991">
        <ele>6.2</ele>
        <time>1970-01-01T01:52:54Z</time>
      </trkpt>
      <trkpt lat="42.76824" lon="2.97995">
        <ele>6.2</ele>
        <time>1970-01-01T01:52:55Z</time>
      </trkpt>
      <trkpt lat="42.7682" lon="2.97999">
        <ele>6.2</ele>
        <time>1970-01-01T01:52:56Z</time>
      </trkpt>
      <trkpt lat="42.76816" lon="2.98003">
        <ele>6.2</ele>
        <time>1970-01-01T01:52:57Z</time>
      </trkpt>
      <trkpt lat="42.76812" lon="2.98007">
        <ele>6.2</ele>
        <time>1970-01-01T01:52:58Z</time>
      </trkpt>
      <trkpt lat="42.76808" lon="2.98012">
        <ele>6.2</ele>
        <time>1970-01-01T01:52:59Z</time>
      </trkpt>
      <trkpt lat="42.76804" lon="2.98015">
        <ele>6.2</ele>
        <time>1970-01-01T01:53:00Z</time>
      </trkpt>
      <trkpt lat="42.768" lon="2.98019">
        <ele>6.2</ele>
        <time>1970-01-01T01:53:01Z</time>
      </trkpt>
      <trkpt lat="42.76796" lon="2.98023">
        <ele>6.2</ele>
        <time>1970-01-01T01:53:02Z</time>
      </trkpt>
      <trkpt lat="42.76792" lon="2.98027">
        <ele>6.2</ele>
        <time>1970-01-01T01:53:03Z</time>
      </trkpt>
      <trkpt lat="42.76789" lon="2.9803">
        <ele>6.2</ele>
        <time>1970-01-01T01:53:04Z</time>
      </trkpt>
      <trkpt lat="42.76785" lon="2.98033">
        <ele>6.2</ele>
        <time>1970-01-01T01:53:05Z</time>
      </trkpt>
      <trkpt lat="42.76781" lon="2.98036">
        <ele>6.2</ele>
        <time>1970-01-01T01:53:06Z</time>
      </trkpt>
      <trkpt lat="42.76777" lon="2.9804">
        <ele>6.2</ele>
        <time>1970-01-01T01:53:07Z</time>
      </trkpt>
      <trkpt lat="42.76773" lon="2.98044">
        <ele>6.2</ele>
        <time>1970-01-01T01:53:08Z</time>
      </trkpt>
      <trkpt lat="42.76769" lon="2.98047">
        <ele>6.2</ele>
        <time>1970-01-01T01:53:09Z</time>
      </trkpt>
      <trkpt lat="42.76765" lon="2.98051">
        <ele>6.2</ele>
        <time>1970-01-01T01:53:10Z</time>
      </trkpt>
      <trkpt lat="42.76761" lon="2.98055">
        <ele>6.2</ele>
        <time>1970-01-01T01:53:11Z</time>
      </trkpt>
      <trkpt lat="42.76758" lon="2.98059">
        <ele>6.2</ele>
        <time>1970-01-01T01:53:12Z</time>
      </trkpt>
      <trkpt lat="42.76755" lon="2.98063">
        <ele>6.2</ele>
        <time>1970-01-01T01:53:13Z</time>
      </trkpt>
      <trkpt lat="42.76751" lon="2.98066">
        <ele>6.2</ele>
        <time>1970-01-01T01:53:14Z</time>
      </trkpt>
      <trkpt lat="42.76748" lon="2.9807">
        <ele>6.2</ele>
        <time>1970-01-01T01:53:15Z</time>
      </trkpt>
      <trkpt lat="42.76745" lon="2.98073">
        <ele>6.2</ele>
        <time>1970-01-01T01:53:16Z</time>
      </trkpt>
      <trkpt lat="42.76742" lon="2.98077">
        <ele>6.2</ele>
        <time>1970-01-01T01:53:17Z</time>
      </trkpt>
      <trkpt lat="42.76739" lon="2.9808">
        <ele>6.2</ele>
        <time>1970-01-01T01:53:18Z</time>
      </trkpt>
      <trkpt lat="42.76737" lon="2.98083">
        <ele>6.4</ele>
        <time>1970-01-01T01:53:19Z</time>
      </trkpt>
      <trkpt lat="42.76734" lon="2.98086">
        <ele>6.4</ele>
        <time>1970-01-01T01:53:20Z</time>
      </trkpt>
      <trkpt lat="42.76732" lon="2.98089">
        <ele>6.4</ele>
        <time>1970-01-01T01:53:21Z</time>
      </trkpt>
      <trkpt lat="42.76729" lon="2.98092">
        <ele>6.4</ele>
        <time>1970-01-01T01:53:22Z</time>
      </trkpt>
      <trkpt lat="42.76726" lon="2.98095">
        <ele>6.4</ele>
        <time>1970-01-01T01:53:23Z</time>
      </trkpt>
      <trkpt lat="42.76722" lon="2.98098">
        <ele>6.4</ele>
        <time>1970-01-01T01:53:24Z</time>
      </trkpt>
      <trkpt lat="42.76719" lon="2.98102">
        <ele>6.4</ele>
        <time>1970-01-01T01:53:25Z</time>
      </trkpt>
      <trkpt lat="42.76716" lon="2.98104">
        <ele>6.4</ele>
        <time>1970-01-01T01:53:26Z</time>
      </trkpt>
      <trkpt lat="42.76713" lon="2.98107">
        <ele>6.4</ele>
        <time>1970-01-01T01:53:27Z</time>
      </trkpt>
      <trkpt lat="42.76711" lon="2.9811">
        <ele>6.4</ele>
        <time>1970-01-01T01:53:28Z</time>
      </trkpt>
      <trkpt lat="42.76708" lon="2.98113">
        <ele>6.4</ele>
        <time>1970-01-01T01:53:29Z</time>
      </trkpt>
      <trkpt lat="42.76705" lon="2.98115">
        <ele>6.4</ele>
        <time>1970-01-01T01:53:30Z</time>
      </trkpt>
      <trkpt lat="42.76702" lon="2.98118">
        <ele>6.4</ele>
        <time>1970-01-01T01:53:31Z</time>
      </trkpt>
      <trkpt lat="42.76699" lon="2.98121">
        <ele>6.4</ele>
        <time>1970-01-01T01:53:32Z</time>
      </trkpt>
      <trkpt lat="42.76696" lon="2.98125">
        <ele>6.4</ele>
        <time>1970-01-01T01:53:33Z</time>
      </trkpt>
      <trkpt lat="42.76693" lon="2.98129">
        <ele>6.4</ele>
        <time>1970-01-01T01:53:34Z</time>
      </trkpt>
      <trkpt lat="42.7669" lon="2.98133">
        <ele>6.4</ele>
        <time>1970-01-01T01:53:35Z</time>
      </trkpt>
      <trkpt lat="42.76687" lon="2.98137">
        <ele>6.4</ele>
        <time>1970-01-01T01:53:36Z</time>
      </trkpt>
      <trkpt lat="42.76684" lon="2.98141">
        <ele>6.4</ele>
        <time>1970-01-01T01:53:37Z</time>
      </trkpt>
      <trkpt lat="42.76681" lon="2.98144">
        <ele>6.4</ele>
        <time>1970-01-01T01:53:38Z</time>
      </trkpt>
      <trkpt lat="42.76678" lon="2.98148">
        <ele>6.4</ele>
        <time>1970-01-01T01:53:39Z</time>
      </trkpt>
      <trkpt lat="42.76674" lon="2.98152">
        <ele>6.4</ele>
        <time>1970-01-01T01:53:40Z</time>
      </trkpt>
      <trkpt lat="42.76671" lon="2.98156">
        <ele>6.4</ele>
        <time>1970-01-01T01:53:41Z</time>
      </trkpt>
      <trkpt lat="42.76668" lon="2.9816">
        <ele>6.4</ele>
        <time>1970-01-01T01:53:42Z</time>
      </trkpt>
      <trkpt lat="42.76664" lon="2.98164">
        <ele>6.4</ele>
        <time>1970-01-01T01:53:43Z</time>
      </trkpt>
      <trkpt lat="42.76661" lon="2.98168">
        <ele>6.4</ele>
        <time>1970-01-01T01:53:44Z</time>
      </trkpt>
      <trkpt lat="42.76657" lon="2.98172">
        <ele>6.4</ele>
        <time>1970-01-01T01:53:45Z</time>
      </trkpt>
      <trkpt lat="42.76654" lon="2.98176">
        <ele>6.4</ele>
        <time>1970-01-01T01:53:46Z</time>
      </trkpt>
      <trkpt lat="42.7665" lon="2.98181">
        <ele>6.4</ele>
        <time>1970-01-01T01:53:47Z</time>
      </trkpt>
      <trkpt lat="42.76646" lon="2.98185">
        <ele>6.4</ele>
        <time>1970-01-01T01:53:48Z</time>
      </trkpt>
      <trkpt lat="42.76643" lon="2.98189">
        <ele>6.4</ele>
        <time>1970-01-01T01:53:49Z</time>
      </trkpt>
      <trkpt lat="42.76639" lon="2.98194">
        <ele>6.4</ele>
        <time>1970-01-01T01:53:50Z</time>
      </trkpt>
      <trkpt lat="42.76635" lon="2.98197">
        <ele>6.6</ele>
        <time>1970-01-01T01:53:51Z</time>
      </trkpt>
      <trkpt lat="42.76631" lon="2.98201">
        <ele>6.6</ele>
        <time>1970-01-01T01:53:52Z</time>
      </trkpt>
      <trkpt lat="42.76628" lon="2.98204">
        <ele>6.6</ele>
        <time>1970-01-01T01:53:53Z</time>
      </trkpt>
      <trkpt lat="42.76624" lon="2.98208">
        <ele>6.6</ele>
        <time>1970-01-01T01:53:54Z</time>
      </trkpt>
      <trkpt lat="42.76621" lon="2.98211">
        <ele>6.6</ele>
        <time>1970-01-01T01:53:55Z</time>
      </trkpt>
      <trkpt lat="42.76618" lon="2.98215">
        <ele>6.6</ele>
        <time>1970-01-01T01:53:56Z</time>
      </trkpt>
      <trkpt lat="42.76615" lon="2.98218">
        <ele>6.6</ele>
        <time>1970-01-01T01:53:57Z</time>
      </trkpt>
      <trkpt lat="42.76612" lon="2.98221">
        <ele>6.6</ele>
        <time>1970-01-01T01:53:58Z</time>
      </trkpt>
      <trkpt lat="42.76609" lon="2.98224">
        <ele>6.6</ele>
        <time>1970-01-01T01:53:59Z</time>
      </trkpt>
      <trkpt lat="42.76606" lon="2.98228">
        <ele>6.6</ele>
        <time>1970-01-01T01:54:00Z</time>
      </trkpt>
      <trkpt lat="42.76603" lon="2.98231">
        <ele>6.6</ele>
        <time>1970-01-01T01:54:01Z</time>
      </trkpt>
      <trkpt lat="42.76599" lon="2.98234">
        <ele>6.6</ele>
        <time>1970-01-01T01:54:02Z</time>
      </trkpt>
      <trkpt lat="42.76596" lon="2.98237">
        <ele>6.6</ele>
        <time>1970-01-01T01:54:03Z</time>
      </trkpt>
      <trkpt lat="42.76592" lon="2.9824">
        <ele>6.6</ele>
        <time>1970-01-01T01:54:04Z</time>
      </trkpt>
      <trkpt lat="42.76589" lon="2.98243">
        <ele>6.6</ele>
        <time>1970-01-01T01:54:05Z</time>
      </trkpt>
      <trkpt lat="42.76585" lon="2.98245">
        <ele>6.6</ele>
        <time>1970-01-01T01:54:06Z</time>
      </trkpt>
      <trkpt lat="42.76582" lon="2.98246">
        <ele>6.8</ele>
        <time>1970-01-01T01:54:07Z</time>
      </trkpt>
      <trkpt lat="42.76578" lon="2.98247">
        <ele>6.8</ele>
        <time>1970-01-01T01:54:08Z</time>
      </trkpt>
      <trkpt lat="42.76574" lon="2.98248">
        <ele>6.8</ele>
        <time>1970-01-01T01:54:09Z</time>
      </trkpt>
      <trkpt lat="42.7657" lon="2.98249">
        <ele>6.8</ele>
        <time>1970-01-01T01:54:10Z</time>
      </trkpt>
      <trkpt lat="42.76565" lon="2.98251">
        <ele>6.8</ele>
        <time>1970-01-01T01:54:11Z</time>
      </trkpt>
      <trkpt lat="42.76561" lon="2.98252">
        <ele>6.6</ele>
        <time>1970-01-01T01:54:12Z</time>
      </trkpt>
      <trkpt lat="42.76557" lon="2.98254">
        <ele>6.6</ele>
        <time>1970-01-01T01:54:13Z</time>
      </trkpt>
      <trkpt lat="42.76552" lon="2.98255">
        <ele>6.6</ele>
        <time>1970-01-01T01:54:14Z</time>
      </trkpt>
      <trkpt lat="42.76548" lon="2.98256">
        <ele>6.6</ele>
        <time>1970-01-01T01:54:15Z</time>
      </trkpt>
      <trkpt lat="42.76544" lon="2.98257">
        <ele>6.6</ele>
        <time>1970-01-01T01:54:16Z</time>
      </trkpt>
      <trkpt lat="42.7654" lon="2.98258">
        <ele>6.6</ele>
        <time>1970-01-01T01:54:17Z</time>
      </trkpt>
      <trkpt lat="42.76535" lon="2.9826">
        <ele>6.6</ele>
        <time>1970-01-01T01:54:18Z</time>
      </trkpt>
      <trkpt lat="42.76531" lon="2.98261">
        <ele>6.6</ele>
        <time>1970-01-01T01:54:19Z</time>
      </trkpt>
      <trkpt lat="42.76526" lon="2.98263">
        <ele>6.6</ele>
        <time>1970-01-01T01:54:20Z</time>
      </trkpt>
      <trkpt lat="42.76522" lon="2.98264">
        <ele>6.6</ele>
        <time>1970-01-01T01:54:21Z</time>
      </trkpt>
      <trkpt lat="42.76517" lon="2.98266">
        <ele>6.8</ele>
        <time>1970-01-01T01:54:22Z</time>
      </trkpt>
      <trkpt lat="42.76513" lon="2.98268">
        <ele>6.8</ele>
        <time>1970-01-01T01:54:23Z</time>
      </trkpt>
      <trkpt lat="42.76508" lon="2.98269">
        <ele>6.8</ele>
        <time>1970-01-01T01:54:24Z</time>
      </trkpt>
      <trkpt lat="42.76504" lon="2.98271">
        <ele>6.8</ele>
        <time>1970-01-01T01:54:25Z</time>
      </trkpt>
      <trkpt lat="42.76499" lon="2.98273">
        <ele>6.8</ele>
        <time>1970-01-01T01:54:26Z</time>
      </trkpt>
      <trkpt lat="42.76495" lon="2.98274">
        <ele>6.8</ele>
        <time>1970-01-01T01:54:27Z</time>
      </trkpt>
      <trkpt lat="42.7649" lon="2.98275">
        <ele>6.8</ele>
        <time>1970-01-01T01:54:28Z</time>
      </trkpt>
      <trkpt lat="42.76486" lon="2.98277">
        <ele>6.6</ele>
        <time>1970-01-01T01:54:29Z</time>
      </trkpt>
      <trkpt lat="42.76482" lon="2.98279">
        <ele>6.6</ele>
        <time>1970-01-01T01:54:30Z</time>
      </trkpt>
      <trkpt lat="42.76479" lon="2.9828">
        <ele>6.6</ele>
        <time>1970-01-01T01:54:31Z</time>
      </trkpt>
      <trkpt lat="42.76474" lon="2.98282">
        <ele>6.6</ele>
        <time>1970-01-01T01:54:32Z</time>
      </trkpt>
      <trkpt lat="42.76471" lon="2.98284">
        <ele>6.6</ele>
        <time>1970-01-01T01:54:33Z</time>
      </trkpt>
      <trkpt lat="42.76467" lon="2.98286">
        <ele>6.6</ele>
        <time>1970-01-01T01:54:34Z</time>
      </trkpt>
      <trkpt lat="42.76462" lon="2.98287">
        <ele>6.6</ele>
        <time>1970-01-01T01:54:35Z</time>
      </trkpt>
      <trkpt lat="42.76458" lon="2.98289">
        <ele>6.6</ele>
        <time>1970-01-01T01:54:36Z</time>
      </trkpt>
      <trkpt lat="42.76454" lon="2.98292">
        <ele>6.6</ele>
        <time>1970-01-01T01:54:37Z</time>
      </trkpt>
      <trkpt lat="42.7645" lon="2.98294">
        <ele>6.6</ele>
        <time>1970-01-01T01:54:38Z</time>
      </trkpt>
      <trkpt lat="42.76446" lon="2.98296">
        <ele>6.6</ele>
        <time>1970-01-01T01:54:39Z</time>
      </trkpt>
      <trkpt lat="42.76443" lon="2.98299">
        <ele>6.6</ele>
        <time>1970-01-01T01:54:40Z</time>
      </trkpt>
      <trkpt lat="42.76439" lon="2.98301">
        <ele>6.6</ele>
        <time>1970-01-01T01:54:41Z</time>
      </trkpt>
      <trkpt lat="42.76436" lon="2.98304">
        <ele>6.6</ele>
        <time>1970-01-01T01:54:42Z</time>
      </trkpt>
      <trkpt lat="42.76433" lon="2.98306">
        <ele>6.6</ele>
        <time>1970-01-01T01:54:43Z</time>
      </trkpt>
      <trkpt lat="42.7643" lon="2.98309">
        <ele>6.6</ele>
        <time>1970-01-01T01:54:44Z</time>
      </trkpt>
      <trkpt lat="42.76427" lon="2.98311">
        <ele>6.6</ele>
        <time>1970-01-01T01:54:45Z</time>
      </trkpt>
      <trkpt lat="42.76425" lon="2.98313">
        <ele>6.6</ele>
        <time>1970-01-01T01:54:46Z</time>
      </trkpt>
      <trkpt lat="42.76422" lon="2.98316">
        <ele>6.6</ele>
        <time>1970-01-01T01:54:47Z</time>
      </trkpt>
      <trkpt lat="42.7642" lon="2.98318">
        <ele>6.6</ele>
        <time>1970-01-01T01:54:48Z</time>
      </trkpt>
      <trkpt lat="42.76417" lon="2.98321">
        <ele>6.6</ele>
        <time>1970-01-01T01:54:49Z</time>
      </trkpt>
      <trkpt lat="42.76415" lon="2.98323">
        <ele>6.6</ele>
        <time>1970-01-01T01:54:50Z</time>
      </trkpt>
      <trkpt lat="42.76412" lon="2.98326">
        <ele>6.6</ele>
        <time>1970-01-01T01:54:51Z</time>
      </trkpt>
      <trkpt lat="42.76409" lon="2.9833">
        <ele>6.6</ele>
        <time>1970-01-01T01:54:52Z</time>
      </trkpt>
      <trkpt lat="42.76408" lon="2.98331">
        <ele>6.6</ele>
        <time>1970-01-01T01:54:53Z</time>
      </trkpt>
      <trkpt lat="42.76406" lon="2.98333">
        <ele>6.6</ele>
        <time>1970-01-01T01:54:54Z</time>
      </trkpt>
      <trkpt lat="42.76403" lon="2.98337">
        <ele>6.6</ele>
        <time>1970-01-01T01:54:55Z</time>
      </trkpt>
      <trkpt lat="42.76402" lon="2.98338">
        <ele>6.6</ele>
        <time>1970-01-01T01:54:56Z</time>
      </trkpt>
      <trkpt lat="42.76399" lon="2.98342">
        <ele>6.6</ele>
        <time>1970-01-01T01:54:57Z</time>
      </trkpt>
      <trkpt lat="42.76398" lon="2.98343">
        <ele>6.6</ele>
        <time>1970-01-01T01:54:58Z</time>
      </trkpt>
      <trkpt lat="42.76396" lon="2.98347">
        <ele>6.6</ele>
        <time>1970-01-01T01:54:59Z</time>
      </trkpt>
      <trkpt lat="42.76395" lon="2.98348">
        <ele>6.6</ele>
        <time>1970-01-01T01:55:00Z</time>
      </trkpt>
      <trkpt lat="42.76393" lon="2.98351">
        <ele>6.6</ele>
        <time>1970-01-01T01:55:01Z</time>
      </trkpt>
      <trkpt lat="42.76392" lon="2.98352">
        <ele>6.6</ele>
        <time>1970-01-01T01:55:02Z</time>
      </trkpt>
      <trkpt lat="42.76389" lon="2.98355">
        <ele>6.8</ele>
        <time>1970-01-01T01:55:03Z</time>
      </trkpt>
      <trkpt lat="42.76388" lon="2.98356">
        <ele>6.8</ele>
        <time>1970-01-01T01:55:04Z</time>
      </trkpt>
      <trkpt lat="42.76386" lon="2.98359">
        <ele>6.8</ele>
        <time>1970-01-01T01:55:05Z</time>
      </trkpt>
      <trkpt lat="42.76384" lon="2.98361">
        <ele>6.8</ele>
        <time>1970-01-01T01:55:06Z</time>
      </trkpt>
      <trkpt lat="42.76382" lon="2.98364">
        <ele>6.8</ele>
        <time>1970-01-01T01:55:07Z</time>
      </trkpt>
      <trkpt lat="42.7638" lon="2.98367">
        <ele>6.8</ele>
        <time>1970-01-01T01:55:08Z</time>
      </trkpt>
      <trkpt lat="42.76378" lon="2.98369">
        <ele>6.8</ele>
        <time>1970-01-01T01:55:09Z</time>
      </trkpt>
      <trkpt lat="42.76375" lon="2.98373">
        <ele>6.8</ele>
        <time>1970-01-01T01:55:10Z</time>
      </trkpt>
      <trkpt lat="42.76375" lon="2.98375">
        <ele>6.8</ele>
        <time>1970-01-01T01:55:11Z</time>
      </trkpt>
      <trkpt lat="42.76374" lon="2.98379">
        <ele>6.8</ele>
        <time>1970-01-01T01:55:12Z</time>
      </trkpt>
      <trkpt lat="42.76374" lon="2.98381">
        <ele>6.8</ele>
        <time>1970-01-01T01:55:13Z</time>
      </trkpt>
      <trkpt lat="42.76374" lon="2.98386">
        <ele>6.8</ele>
        <time>1970-01-01T01:55:14Z</time>
      </trkpt>
      <trkpt lat="42.76375" lon="2.98387">
        <ele>6.8</ele>
        <time>1970-01-01T01:55:15Z</time>
      </trkpt>
      <trkpt lat="42.76376" lon="2.98391">
        <ele>6.8</ele>
        <time>1970-01-01T01:55:16Z</time>
      </trkpt>
      <trkpt lat="42.76377" lon="2.98395">
        <ele>6.8</ele>
        <time>1970-01-01T01:55:17Z</time>
      </trkpt>
      <trkpt lat="42.76378" lon="2.98398">
        <ele>6.8</ele>
        <time>1970-01-01T01:55:18Z</time>
      </trkpt>
      <trkpt lat="42.76379" lon="2.98402">
        <ele>6.8</ele>
        <time>1970-01-01T01:55:19Z</time>
      </trkpt>
      <trkpt lat="42.7638" lon="2.98407">
        <ele>6.8</ele>
        <time>1970-01-01T01:55:20Z</time>
      </trkpt>
      <trkpt lat="42.76381" lon="2.98409">
        <ele>6.8</ele>
        <time>1970-01-01T01:55:21Z</time>
      </trkpt>
      <trkpt lat="42.76382" lon="2.98412">
        <ele>6.8</ele>
        <time>1970-01-01T01:55:22Z</time>
      </trkpt>
      <trkpt lat="42.76383" lon="2.98416">
        <ele>6.8</ele>
        <time>1970-01-01T01:55:23Z</time>
      </trkpt>
      <trkpt lat="42.76385" lon="2.9842">
        <ele>6.8</ele>
        <time>1970-01-01T01:55:24Z</time>
      </trkpt>
      <trkpt lat="42.76386" lon="2.98423">
        <ele>6.8</ele>
        <time>1970-01-01T01:55:25Z</time>
      </trkpt>
      <trkpt lat="42.76387" lon="2.98428">
        <ele>6.8</ele>
        <time>1970-01-01T01:55:26Z</time>
      </trkpt>
      <trkpt lat="42.76388" lon="2.98429">
        <ele>6.8</ele>
        <time>1970-01-01T01:55:27Z</time>
      </trkpt>
      <trkpt lat="42.76389" lon="2.98434">
        <ele>6.8</ele>
        <time>1970-01-01T01:55:28Z</time>
      </trkpt>
      <trkpt lat="42.7639" lon="2.98436">
        <ele>6.8</ele>
        <time>1970-01-01T01:55:29Z</time>
      </trkpt>
      <trkpt lat="42.76392" lon="2.9844">
        <ele>6.8</ele>
        <time>1970-01-01T01:55:30Z</time>
      </trkpt>
      <trkpt lat="42.76392" lon="2.98442">
        <ele>6.8</ele>
        <time>1970-01-01T01:55:31Z</time>
      </trkpt>
      <trkpt lat="42.76393" lon="2.98446">
        <ele>7</ele>
        <time>1970-01-01T01:55:32Z</time>
      </trkpt>
      <trkpt lat="42.76393" lon="2.98447">
        <ele>7</ele>
        <time>1970-01-01T01:55:33Z</time>
      </trkpt>
      <trkpt lat="42.76395" lon="2.98451">
        <ele>7</ele>
        <time>1970-01-01T01:55:34Z</time>
      </trkpt>
      <trkpt lat="42.76395" lon="2.98452">
        <ele>7</ele>
        <time>1970-01-01T01:55:35Z</time>
      </trkpt>
      <trkpt lat="42.76397" lon="2.98456">
        <ele>7</ele>
        <time>1970-01-01T01:55:36Z</time>
      </trkpt>
      <trkpt lat="42.76397" lon="2.98458">
        <ele>7</ele>
        <time>1970-01-01T01:55:37Z</time>
      </trkpt>
      <trkpt lat="42.76399" lon="2.98463">
        <ele>7</ele>
        <time>1970-01-01T01:55:38Z</time>
      </trkpt>
      <trkpt lat="42.764" lon="2.98465">
        <ele>7</ele>
        <time>1970-01-01T01:55:39Z</time>
      </trkpt>
      <trkpt lat="42.76401" lon="2.98469">
        <ele>7</ele>
        <time>1970-01-01T01:55:40Z</time>
      </trkpt>
      <trkpt lat="42.76402" lon="2.98471">
        <ele>7</ele>
        <time>1970-01-01T01:55:41Z</time>
      </trkpt>
      <trkpt lat="42.76403" lon="2.98475">
        <ele>7</ele>
        <time>1970-01-01T01:55:42Z</time>
      </trkpt>
      <trkpt lat="42.76405" lon="2.98479">
        <ele>7</ele>
        <time>1970-01-01T01:55:43Z</time>
      </trkpt>
      <trkpt lat="42.76406" lon="2.98484">
        <ele>7</ele>
        <time>1970-01-01T01:55:44Z</time>
      </trkpt>
      <trkpt lat="42.76407" lon="2.98485">
        <ele>7</ele>
        <time>1970-01-01T01:55:45Z</time>
      </trkpt>
      <trkpt lat="42.76408" lon="2.98489">
        <ele>7</ele>
        <time>1970-01-01T01:55:46Z</time>
      </trkpt>
      <trkpt lat="42.76408" lon="2.98491">
        <ele>7</ele>
        <time>1970-01-01T01:55:47Z</time>
      </trkpt>
      <trkpt lat="42.7641" lon="2.98495">
        <ele>7</ele>
        <time>1970-01-01T01:55:48Z</time>
      </trkpt>
      <trkpt lat="42.7641" lon="2.98496">
        <ele>7.2</ele>
        <time>1970-01-01T01:55:49Z</time>
      </trkpt>
      <trkpt lat="42.76411" lon="2.98498">
        <ele>7.2</ele>
        <time>1970-01-01T01:55:50Z</time>
      </trkpt>
      <trkpt lat="42.76411" lon="2.985">
        <ele>7.2</ele>
        <time>1970-01-01T01:55:51Z</time>
      </trkpt>
      <trkpt lat="42.76413" lon="2.98503">
        <ele>7.2</ele>
        <time>1970-01-01T01:55:52Z</time>
      </trkpt>
      <trkpt lat="42.76413" lon="2.98504">
        <ele>7.2</ele>
        <time>1970-01-01T01:55:53Z</time>
      </trkpt>
      <trkpt lat="42.76414" lon="2.98507">
        <ele>7.2</ele>
        <time>1970-01-01T01:55:54Z</time>
      </trkpt>
      <trkpt lat="42.76415" lon="2.98508">
        <ele>7.2</ele>
        <time>1970-01-01T01:55:55Z</time>
      </trkpt>
      <trkpt lat="42.76415" lon="2.9851">
        <ele>7.2</ele>
        <time>1970-01-01T01:55:56Z</time>
      </trkpt>
      <trkpt lat="42.76414" lon="2.98511">
        <ele>7.2</ele>
        <time>1970-01-01T01:55:57Z</time>
      </trkpt>
      <trkpt lat="42.76414" lon="2.98513">
        <ele>7.4</ele>
        <time>1970-01-01T01:55:58Z</time>
      </trkpt>
      <trkpt lat="42.76411" lon="2.98515">
        <ele>7.4</ele>
        <time>1970-01-01T01:55:59Z</time>
      </trkpt>
      <trkpt lat="42.76411" lon="2.98516">
        <ele>7.4</ele>
        <time>1970-01-01T01:56:00Z</time>
      </trkpt>
      <trkpt lat="42.7641" lon="2.98517">
        <ele>7.4</ele>
        <time>1970-01-01T01:56:01Z</time>
      </trkpt>
      <trkpt lat="42.7641" lon="2.9852">
        <ele>7.6</ele>
        <time>1970-01-01T01:56:02Z</time>
      </trkpt>
      <trkpt lat="42.76411" lon="2.98523">
        <ele>7.6</ele>
        <time>1970-01-01T01:56:03Z</time>
      </trkpt>
      <trkpt lat="42.76411" lon="2.98525">
        <ele>7.6</ele>
        <time>1970-01-01T01:56:04Z</time>
      </trkpt>
      <trkpt lat="42.76412" lon="2.98528">
        <ele>7.8</ele>
        <time>1970-01-01T01:56:05Z</time>
      </trkpt>
      <trkpt lat="42.76412" lon="2.9853">
        <ele>7.8</ele>
        <time>1970-01-01T01:56:06Z</time>
      </trkpt>
      <trkpt lat="42.76413" lon="2.98533">
        <ele>8</ele>
        <time>1970-01-01T01:56:07Z</time>
      </trkpt>
      <trkpt lat="42.76413" lon="2.98535">
        <ele>8</ele>
        <time>1970-01-01T01:56:08Z</time>
      </trkpt>
      <trkpt lat="42.76414" lon="2.98538">
        <ele>8.2</ele>
        <time>1970-01-01T01:56:09Z</time>
      </trkpt>
      <trkpt lat="42.76414" lon="2.9854">
        <ele>8.2</ele>
        <time>1970-01-01T01:56:10Z</time>
      </trkpt>
      <trkpt lat="42.76414" lon="2.98542">
        <ele>8.2</ele>
        <time>1970-01-01T01:56:11Z</time>
      </trkpt>
      <trkpt lat="42.76414" lon="2.98544">
        <ele>8.4</ele>
        <time>1970-01-01T01:56:12Z</time>
      </trkpt>
      <trkpt lat="42.76414" lon="2.98545">
        <ele>8.4</ele>
        <time>1970-01-01T01:56:13Z</time>
      </trkpt>
      <trkpt lat="42.76413" lon="2.98545">
        <ele>8.4</ele>
        <time>1970-01-01T01:56:14Z</time>
      </trkpt>
      <trkpt lat="42.76413" lon="2.98546">
        <ele>8.4</ele>
        <time>1970-01-01T01:56:15Z</time>
      </trkpt>
      <trkpt lat="42.76412" lon="2.98547">
        <ele>8.4</ele>
        <time>1970-01-01T01:56:16Z</time>
      </trkpt>
      <trkpt lat="42.76412" lon="2.98548">
        <ele>8.6</ele>
        <time>1970-01-01T01:56:17Z</time>
      </trkpt>
      <trkpt lat="42.76411" lon="2.98549">
        <ele>8.6</ele>
        <time>1970-01-01T01:56:18Z</time>
      </trkpt>
      <trkpt lat="42.76411" lon="2.9855">
        <ele>8.6</ele>
        <time>1970-01-01T01:56:19Z</time>
      </trkpt>
      <trkpt lat="42.7641" lon="2.9855">
        <ele>8.6</ele>
        <time>1970-01-01T01:56:20Z</time>
      </trkpt>
      <trkpt lat="42.7641" lon="2.98551">
        <ele>8.6</ele>
        <time>1970-01-01T01:56:21Z</time>
      </trkpt>
      <trkpt lat="42.7641" lon="2.98552">
        <ele>8.6</ele>
        <time>1970-01-01T01:56:22Z</time>
      </trkpt>
      <trkpt lat="42.76409" lon="2.98553">
        <ele>8.6</ele>
        <time>1970-01-01T01:56:23Z</time>
      </trkpt>
      <trkpt lat="42.76409" lon="2.98554">
        <ele>8.6</ele>
        <time>1970-01-01T01:56:24Z</time>
      </trkpt>
      <trkpt lat="42.76409" lon="2.98555">
        <ele>8.6</ele>
        <time>1970-01-01T01:56:25Z</time>
      </trkpt>
      <trkpt lat="42.76409" lon="2.98556">
        <ele>8.6</ele>
        <time>1970-01-01T01:56:26Z</time>
      </trkpt>
      <trkpt lat="42.76409" lon="2.98557">
        <ele>8.6</ele>
        <time>1970-01-01T01:56:27Z</time>
      </trkpt>
      <trkpt lat="42.76408" lon="2.98557">
        <ele>8.6</ele>
        <time>1970-01-01T01:56:28Z</time>
      </trkpt>
      <trkpt lat="42.76408" lon="2.98558">
        <ele>8.6</ele>
        <time>1970-01-01T01:56:29Z</time>
      </trkpt>
      <trkpt lat="42.76408" lon="2.98561">
        <ele>8.6</ele>
        <time>1970-01-01T01:56:30Z</time>
      </trkpt>
      <trkpt lat="42.76408" lon="2.98563">
        <ele>8.6</ele>
        <time>1970-01-01T01:56:31Z</time>
      </trkpt>
      <trkpt lat="42.7641" lon="2.98567">
        <ele>8.6</ele>
        <time>1970-01-01T01:56:32Z</time>
      </trkpt>
      <trkpt lat="42.7641" lon="2.9857">
        <ele>8.6</ele>
        <time>1970-01-01T01:56:33Z</time>
      </trkpt>
      <trkpt lat="42.76411" lon="2.98575">
        <ele>8.6</ele>
        <time>1970-01-01T01:56:34Z</time>
      </trkpt>
      <trkpt lat="42.76411" lon="2.98577">
        <ele>8.6</ele>
        <time>1970-01-01T01:56:35Z</time>
      </trkpt>
      <trkpt lat="42.76411" lon="2.98582">
        <ele>8.4</ele>
        <time>1970-01-01T01:56:36Z</time>
      </trkpt>
      <trkpt lat="42.76411" lon="2.98583">
        <ele>8.4</ele>
        <time>1970-01-01T01:56:37Z</time>
      </trkpt>
      <trkpt lat="42.76411" lon="2.98586">
        <ele>8.4</ele>
        <time>1970-01-01T01:56:38Z</time>
      </trkpt>
      <trkpt lat="42.7641" lon="2.98587">
        <ele>8.4</ele>
        <time>1970-01-01T01:56:39Z</time>
      </trkpt>
      <trkpt lat="42.7641" lon="2.98593">
        <ele>8.2</ele>
        <time>1970-01-01T01:56:40Z</time>
      </trkpt>
      <trkpt lat="42.7641" lon="2.98595">
        <ele>8.2</ele>
        <time>1970-01-01T01:56:41Z</time>
      </trkpt>
      <trkpt lat="42.76411" lon="2.986">
        <ele>8</ele>
        <time>1970-01-01T01:56:42Z</time>
      </trkpt>
      <trkpt lat="42.76411" lon="2.98606">
        <ele>7.8</ele>
        <time>1970-01-01T01:56:43Z</time>
      </trkpt>
      <trkpt lat="42.76411" lon="2.98612">
        <ele>7.6</ele>
        <time>1970-01-01T01:56:44Z</time>
      </trkpt>
      <trkpt lat="42.76412" lon="2.98619">
        <ele>7.4</ele>
        <time>1970-01-01T01:56:45Z</time>
      </trkpt>
      <trkpt lat="42.76413" lon="2.98626">
        <ele>7.2</ele>
        <time>1970-01-01T01:56:46Z</time>
      </trkpt>
      <trkpt lat="42.76414" lon="2.98633">
        <ele>7</ele>
        <time>1970-01-01T01:56:47Z</time>
      </trkpt>
      <trkpt lat="42.76415" lon="2.98641">
        <ele>6.8</ele>
        <time>1970-01-01T01:56:48Z</time>
      </trkpt>
      <trkpt lat="42.76416" lon="2.98648">
        <ele>6.8</ele>
        <time>1970-01-01T01:56:49Z</time>
      </trkpt>
      <trkpt lat="42.76417" lon="2.98656">
        <ele>6.6</ele>
        <time>1970-01-01T01:56:50Z</time>
      </trkpt>
      <trkpt lat="42.76417" lon="2.98663">
        <ele>6.6</ele>
        <time>1970-01-01T01:56:51Z</time>
      </trkpt>
      <trkpt lat="42.76418" lon="2.9867">
        <ele>6.6</ele>
        <time>1970-01-01T01:56:52Z</time>
      </trkpt>
      <trkpt lat="42.7642" lon="2.98677">
        <ele>6.4</ele>
        <time>1970-01-01T01:56:53Z</time>
      </trkpt>
      <trkpt lat="42.76421" lon="2.98683">
        <ele>6.4</ele>
        <time>1970-01-01T01:56:54Z</time>
      </trkpt>
      <trkpt lat="42.76422" lon="2.98689">
        <ele>6.4</ele>
        <time>1970-01-01T01:56:55Z</time>
      </trkpt>
      <trkpt lat="42.76423" lon="2.98695">
        <ele>6.4</ele>
        <time>1970-01-01T01:56:56Z</time>
      </trkpt>
      <trkpt lat="42.76424" lon="2.98701">
        <ele>6.4</ele>
        <time>1970-01-01T01:56:57Z</time>
      </trkpt>
      <trkpt lat="42.76425" lon="2.98708">
        <ele>6.6</ele>
        <time>1970-01-01T01:56:58Z</time>
      </trkpt>
      <trkpt lat="42.76426" lon="2.98714">
        <ele>6.6</ele>
        <time>1970-01-01T01:56:59Z</time>
      </trkpt>
      <trkpt lat="42.76427" lon="2.98719">
        <ele>6.6</ele>
        <time>1970-01-01T01:57:00Z</time>
      </trkpt>
      <trkpt lat="42.76429" lon="2.98725">
        <ele>6.8</ele>
        <time>1970-01-01T01:57:01Z</time>
      </trkpt>
      <trkpt lat="42.7643" lon="2.98729">
        <ele>7</ele>
        <time>1970-01-01T01:57:02Z</time>
      </trkpt>
      <trkpt lat="42.76431" lon="2.98733">
        <ele>7</ele>
        <time>1970-01-01T01:57:03Z</time>
      </trkpt>
      <trkpt lat="42.76432" lon="2.98738">
        <ele>7.2</ele>
        <time>1970-01-01T01:57:04Z</time>
      </trkpt>
      <trkpt lat="42.76432" lon="2.9874">
        <ele>7.2</ele>
        <time>1970-01-01T01:57:05Z</time>
      </trkpt>
      <trkpt lat="42.76434" lon="2.98745">
        <ele>7.4</ele>
        <time>1970-01-01T01:57:06Z</time>
      </trkpt>
      <trkpt lat="42.76434" lon="2.98747">
        <ele>7.6</ele>
        <time>1970-01-01T01:57:07Z</time>
      </trkpt>
      <trkpt lat="42.76435" lon="2.9875">
        <ele>7.6</ele>
        <time>1970-01-01T01:57:08Z</time>
      </trkpt>
      <trkpt lat="42.76436" lon="2.98754">
        <ele>7.8</ele>
        <time>1970-01-01T01:57:09Z</time>
      </trkpt>
      <trkpt lat="42.76437" lon="2.98758">
        <ele>8</ele>
        <time>1970-01-01T01:57:10Z</time>
      </trkpt>
      <trkpt lat="42.76439" lon="2.98763">
        <ele>8.2</ele>
        <time>1970-01-01T01:57:11Z</time>
      </trkpt>
      <trkpt lat="42.76439" lon="2.98764">
        <ele>8.2</ele>
        <time>1970-01-01T01:57:12Z</time>
      </trkpt>
      <trkpt lat="42.7644" lon="2.98769">
        <ele>8.4</ele>
        <time>1970-01-01T01:57:13Z</time>
      </trkpt>
      <trkpt lat="42.76441" lon="2.98771">
        <ele>8.4</ele>
        <time>1970-01-01T01:57:14Z</time>
      </trkpt>
      <trkpt lat="42.76443" lon="2.98776">
        <ele>8.4</ele>
        <time>1970-01-01T01:57:15Z</time>
      </trkpt>
      <trkpt lat="42.76444" lon="2.98778">
        <ele>8.6</ele>
        <time>1970-01-01T01:57:16Z</time>
      </trkpt>
      <trkpt lat="42.76445" lon="2.98781">
        <ele>8.6</ele>
        <time>1970-01-01T01:57:17Z</time>
      </trkpt>
      <trkpt lat="42.76446" lon="2.98785">
        <ele>8.6</ele>
        <time>1970-01-01T01:57:18Z</time>
      </trkpt>
      <trkpt lat="42.76447" lon="2.98789">
        <ele>8.8</ele>
        <time>1970-01-01T01:57:19Z</time>
      </trkpt>
      <trkpt lat="42.76448" lon="2.98793">
        <ele>8.6</ele>
        <time>1970-01-01T01:57:20Z</time>
      </trkpt>
      <trkpt lat="42.76448" lon="2.98797">
        <ele>8.6</ele>
        <time>1970-01-01T01:57:21Z</time>
      </trkpt>
      <trkpt lat="42.76449" lon="2.98801">
        <ele>8.6</ele>
        <time>1970-01-01T01:57:22Z</time>
      </trkpt>
      <trkpt lat="42.76449" lon="2.98805">
        <ele>8.6</ele>
        <time>1970-01-01T01:57:23Z</time>
      </trkpt>
      <trkpt lat="42.7645" lon="2.9881">
        <ele>8.6</ele>
        <time>1970-01-01T01:57:24Z</time>
      </trkpt>
      <trkpt lat="42.76451" lon="2.98815">
        <ele>8.6</ele>
        <time>1970-01-01T01:57:25Z</time>
      </trkpt>
      <trkpt lat="42.76452" lon="2.98821">
        <ele>8.6</ele>
        <time>1970-01-01T01:57:26Z</time>
      </trkpt>
      <trkpt lat="42.76453" lon="2.98826">
        <ele>8.6</ele>
        <time>1970-01-01T01:57:27Z</time>
      </trkpt>
      <trkpt lat="42.76454" lon="2.98832">
        <ele>8.6</ele>
        <time>1970-01-01T01:57:28Z</time>
      </trkpt>
      <trkpt lat="42.76455" lon="2.98837">
        <ele>8.6</ele>
        <time>1970-01-01T01:57:29Z</time>
      </trkpt>
      <trkpt lat="42.76456" lon="2.98842">
        <ele>8.6</ele>
        <time>1970-01-01T01:57:30Z</time>
      </trkpt>
      <trkpt lat="42.76457" lon="2.98847">
        <ele>8.6</ele>
        <time>1970-01-01T01:57:31Z</time>
      </trkpt>
      <trkpt lat="42.76458" lon="2.98852">
        <ele>8.6</ele>
        <time>1970-01-01T01:57:32Z</time>
      </trkpt>
      <trkpt lat="42.76459" lon="2.98857">
        <ele>8.6</ele>
        <time>1970-01-01T01:57:33Z</time>
      </trkpt>
      <trkpt lat="42.7646" lon="2.98863">
        <ele>8.6</ele>
        <time>1970-01-01T01:57:34Z</time>
      </trkpt>
      <trkpt lat="42.7646" lon="2.98868">
        <ele>8.6</ele>
        <time>1970-01-01T01:57:35Z</time>
      </trkpt>
      <trkpt lat="42.76461" lon="2.98874">
        <ele>8.6</ele>
        <time>1970-01-01T01:57:36Z</time>
      </trkpt>
      <trkpt lat="42.76462" lon="2.98879">
        <ele>8.6</ele>
        <time>1970-01-01T01:57:37Z</time>
      </trkpt>
      <trkpt lat="42.76463" lon="2.98885">
        <ele>8.6</ele>
        <time>1970-01-01T01:57:38Z</time>
      </trkpt>
      <trkpt lat="42.76464" lon="2.98891">
        <ele>8.6</ele>
        <time>1970-01-01T01:57:39Z</time>
      </trkpt>
      <trkpt lat="42.76465" lon="2.98897">
        <ele>8.6</ele>
        <time>1970-01-01T01:57:40Z</time>
      </trkpt>
      <trkpt lat="42.76466" lon="2.98903">
        <ele>8.6</ele>
        <time>1970-01-01T01:57:41Z</time>
      </trkpt>
      <trkpt lat="42.76467" lon="2.98909">
        <ele>8.6</ele>
        <time>1970-01-01T01:57:42Z</time>
      </trkpt>
      <trkpt lat="42.76468" lon="2.98915">
        <ele>8.6</ele>
        <time>1970-01-01T01:57:43Z</time>
      </trkpt>
      <trkpt lat="42.76469" lon="2.98921">
        <ele>8.6</ele>
        <time>1970-01-01T01:57:44Z</time>
      </trkpt>
      <trkpt lat="42.7647" lon="2.98927">
        <ele>8.6</ele>
        <time>1970-01-01T01:57:45Z</time>
      </trkpt>
      <trkpt lat="42.76471" lon="2.98933">
        <ele>8.6</ele>
        <time>1970-01-01T01:57:46Z</time>
      </trkpt>
      <trkpt lat="42.76472" lon="2.9894">
        <ele>8.6</ele>
        <time>1970-01-01T01:57:47Z</time>
      </trkpt>
      <trkpt lat="42.76473" lon="2.98946">
        <ele>8.4</ele>
        <time>1970-01-01T01:57:48Z</time>
      </trkpt>
      <trkpt lat="42.76474" lon="2.98952">
        <ele>8.4</ele>
        <time>1970-01-01T01:57:49Z</time>
      </trkpt>
      <trkpt lat="42.76475" lon="2.98959">
        <ele>8.4</ele>
        <time>1970-01-01T01:57:50Z</time>
      </trkpt>
      <trkpt lat="42.76476" lon="2.98965">
        <ele>8.4</ele>
        <time>1970-01-01T01:57:51Z</time>
      </trkpt>
      <trkpt lat="42.76477" lon="2.98972">
        <ele>8.4</ele>
        <time>1970-01-01T01:57:52Z</time>
      </trkpt>
      <trkpt lat="42.76478" lon="2.98978">
        <ele>8.4</ele>
        <time>1970-01-01T01:57:53Z</time>
      </trkpt>
      <trkpt lat="42.76479" lon="2.98985">
        <ele>8.4</ele>
        <time>1970-01-01T01:57:54Z</time>
      </trkpt>
      <trkpt lat="42.7648" lon="2.98991">
        <ele>8.4</ele>
        <time>1970-01-01T01:57:55Z</time>
      </trkpt>
      <trkpt lat="42.76482" lon="2.98998">
        <ele>8.4</ele>
        <time>1970-01-01T01:57:56Z</time>
      </trkpt>
      <trkpt lat="42.76483" lon="2.99004">
        <ele>8.6</ele>
        <time>1970-01-01T01:57:57Z</time>
      </trkpt>
      <trkpt lat="42.76484" lon="2.99011">
        <ele>8.6</ele>
        <time>1970-01-01T01:57:58Z</time>
      </trkpt>
      <trkpt lat="42.76485" lon="2.99018">
        <ele>8.6</ele>
        <time>1970-01-01T01:57:59Z</time>
      </trkpt>
      <trkpt lat="42.76486" lon="2.99025">
        <ele>8.6</ele>
        <time>1970-01-01T01:58:00Z</time>
      </trkpt>
      <trkpt lat="42.76487" lon="2.99032">
        <ele>8.6</ele>
        <time>1970-01-01T01:58:01Z</time>
      </trkpt>
      <trkpt lat="42.76489" lon="2.99039">
        <ele>8.6</ele>
        <time>1970-01-01T01:58:02Z</time>
      </trkpt>
      <trkpt lat="42.7649" lon="2.99046">
        <ele>8.6</ele>
        <time>1970-01-01T01:58:03Z</time>
      </trkpt>
      <trkpt lat="42.76491" lon="2.99053">
        <ele>8.4</ele>
        <time>1970-01-01T01:58:04Z</time>
      </trkpt>
      <trkpt lat="42.76492" lon="2.9906">
        <ele>8.4</ele>
        <time>1970-01-01T01:58:05Z</time>
      </trkpt>
      <trkpt lat="42.76493" lon="2.99067">
        <ele>8.4</ele>
        <time>1970-01-01T01:58:06Z</time>
      </trkpt>
      <trkpt lat="42.76495" lon="2.99074">
        <ele>8.4</ele>
        <time>1970-01-01T01:58:07Z</time>
      </trkpt>
      <trkpt lat="42.76496" lon="2.99082">
        <ele>8.4</ele>
        <time>1970-01-01T01:58:08Z</time>
      </trkpt>
      <trkpt lat="42.76497" lon="2.99089">
        <ele>8.4</ele>
        <time>1970-01-01T01:58:09Z</time>
      </trkpt>
      <trkpt lat="42.76498" lon="2.99096">
        <ele>8.4</ele>
        <time>1970-01-01T01:58:10Z</time>
      </trkpt>
      <trkpt lat="42.76499" lon="2.99103">
        <ele>8.4</ele>
        <time>1970-01-01T01:58:11Z</time>
      </trkpt>
      <trkpt lat="42.765" lon="2.99111">
        <ele>8.4</ele>
        <time>1970-01-01T01:58:12Z</time>
      </trkpt>
      <trkpt lat="42.76502" lon="2.99118">
        <ele>8.4</ele>
        <time>1970-01-01T01:58:13Z</time>
      </trkpt>
      <trkpt lat="42.76503" lon="2.99126">
        <ele>8.2</ele>
        <time>1970-01-01T01:58:14Z</time>
      </trkpt>
      <trkpt lat="42.76504" lon="2.99133">
        <ele>8.2</ele>
        <time>1970-01-01T01:58:15Z</time>
      </trkpt>
      <trkpt lat="42.76505" lon="2.9914">
        <ele>8.2</ele>
        <time>1970-01-01T01:58:16Z</time>
      </trkpt>
      <trkpt lat="42.76506" lon="2.99148">
        <ele>8.2</ele>
        <time>1970-01-01T01:58:17Z</time>
      </trkpt>
      <trkpt lat="42.76508" lon="2.99155">
        <ele>8.2</ele>
        <time>1970-01-01T01:58:18Z</time>
      </trkpt>
      <trkpt lat="42.76509" lon="2.99162">
        <ele>8.2</ele>
        <time>1970-01-01T01:58:19Z</time>
      </trkpt>
      <trkpt lat="42.7651" lon="2.99169">
        <ele>8.2</ele>
        <time>1970-01-01T01:58:20Z</time>
      </trkpt>
      <trkpt lat="42.76511" lon="2.99177">
        <ele>8.2</ele>
        <time>1970-01-01T01:58:21Z</time>
      </trkpt>
      <trkpt lat="42.76513" lon="2.99184">
        <ele>8.2</ele>
        <time>1970-01-01T01:58:22Z</time>
      </trkpt>
      <trkpt lat="42.76514" lon="2.99191">
        <ele>8.2</ele>
        <time>1970-01-01T01:58:23Z</time>
      </trkpt>
      <trkpt lat="42.76515" lon="2.99199">
        <ele>8</ele>
        <time>1970-01-01T01:58:24Z</time>
      </trkpt>
      <trkpt lat="42.76516" lon="2.99206">
        <ele>8</ele>
        <time>1970-01-01T01:58:25Z</time>
      </trkpt>
      <trkpt lat="42.76518" lon="2.99213">
        <ele>8</ele>
        <time>1970-01-01T01:58:26Z</time>
      </trkpt>
      <trkpt lat="42.76519" lon="2.9922">
        <ele>8</ele>
        <time>1970-01-01T01:58:27Z</time>
      </trkpt>
      <trkpt lat="42.7652" lon="2.99228">
        <ele>8</ele>
        <time>1970-01-01T01:58:28Z</time>
      </trkpt>
      <trkpt lat="42.76521" lon="2.99235">
        <ele>8</ele>
        <time>1970-01-01T01:58:29Z</time>
      </trkpt>
      <trkpt lat="42.76522" lon="2.99243">
        <ele>8</ele>
        <time>1970-01-01T01:58:30Z</time>
      </trkpt>
      <trkpt lat="42.76524" lon="2.9925">
        <ele>8</ele>
        <time>1970-01-01T01:58:31Z</time>
      </trkpt>
      <trkpt lat="42.76525" lon="2.99257">
        <ele>8</ele>
        <time>1970-01-01T01:58:32Z</time>
      </trkpt>
      <trkpt lat="42.76526" lon="2.99264">
        <ele>8</ele>
        <time>1970-01-01T01:58:33Z</time>
      </trkpt>
      <trkpt lat="42.76527" lon="2.99271">
        <ele>8</ele>
        <time>1970-01-01T01:58:34Z</time>
      </trkpt>
      <trkpt lat="42.76528" lon="2.99279">
        <ele>8</ele>
        <time>1970-01-01T01:58:35Z</time>
      </trkpt>
      <trkpt lat="42.7653" lon="2.99286">
        <ele>8</ele>
        <time>1970-01-01T01:58:36Z</time>
      </trkpt>
      <trkpt lat="42.76531" lon="2.99294">
        <ele>8</ele>
        <time>1970-01-01T01:58:37Z</time>
      </trkpt>
      <trkpt lat="42.76532" lon="2.99301">
        <ele>8</ele>
        <time>1970-01-01T01:58:38Z</time>
      </trkpt>
      <trkpt lat="42.76533" lon="2.99308">
        <ele>8</ele>
        <time>1970-01-01T01:58:39Z</time>
      </trkpt>
      <trkpt lat="42.76534" lon="2.99316">
        <ele>8</ele>
        <time>1970-01-01T01:58:40Z</time>
      </trkpt>
      <trkpt lat="42.76536" lon="2.99323">
        <ele>8</ele>
        <time>1970-01-01T01:58:41Z</time>
      </trkpt>
      <trkpt lat="42.76537" lon="2.99331">
        <ele>8</ele>
        <time>1970-01-01T01:58:42Z</time>
      </trkpt>
      <trkpt lat="42.76538" lon="2.99339">
        <ele>8</ele>
        <time>1970-01-01T01:58:43Z</time>
      </trkpt>
      <trkpt lat="42.7654" lon="2.99346">
        <ele>8</ele>
        <time>1970-01-01T01:58:44Z</time>
      </trkpt>
      <trkpt lat="42.76541" lon="2.99353">
        <ele>8</ele>
        <time>1970-01-01T01:58:45Z</time>
      </trkpt>
      <trkpt lat="42.76542" lon="2.99361">
        <ele>8</ele>
        <time>1970-01-01T01:58:46Z</time>
      </trkpt>
      <trkpt lat="42.76543" lon="2.99368">
        <ele>8</ele>
        <time>1970-01-01T01:58:47Z</time>
      </trkpt>
      <trkpt lat="42.76545" lon="2.99376">
        <ele>8</ele>
        <time>1970-01-01T01:58:48Z</time>
      </trkpt>
      <trkpt lat="42.76546" lon="2.99383">
        <ele>8</ele>
        <time>1970-01-01T01:58:49Z</time>
      </trkpt>
      <trkpt lat="42.76547" lon="2.99391">
        <ele>7.8</ele>
        <time>1970-01-01T01:58:50Z</time>
      </trkpt>
      <trkpt lat="42.76548" lon="2.99399">
        <ele>7.8</ele>
        <time>1970-01-01T01:58:51Z</time>
      </trkpt>
      <trkpt lat="42.7655" lon="2.99406">
        <ele>7.8</ele>
        <time>1970-01-01T01:58:52Z</time>
      </trkpt>
      <trkpt lat="42.76551" lon="2.99413">
        <ele>7.8</ele>
        <time>1970-01-01T01:58:53Z</time>
      </trkpt>
      <trkpt lat="42.76552" lon="2.99421">
        <ele>7.8</ele>
        <time>1970-01-01T01:58:54Z</time>
      </trkpt>
      <trkpt lat="42.76553" lon="2.99429">
        <ele>8</ele>
        <time>1970-01-01T01:58:55Z</time>
      </trkpt>
      <trkpt lat="42.76555" lon="2.99436">
        <ele>8</ele>
        <time>1970-01-01T01:58:56Z</time>
      </trkpt>
      <trkpt lat="42.76556" lon="2.99444">
        <ele>8</ele>
        <time>1970-01-01T01:58:57Z</time>
      </trkpt>
      <trkpt lat="42.76557" lon="2.99451">
        <ele>8</ele>
        <time>1970-01-01T01:58:58Z</time>
      </trkpt>
      <trkpt lat="42.76559" lon="2.99459">
        <ele>8</ele>
        <time>1970-01-01T01:58:59Z</time>
      </trkpt>
      <trkpt lat="42.7656" lon="2.99466">
        <ele>8</ele>
        <time>1970-01-01T01:59:00Z</time>
      </trkpt>
      <trkpt lat="42.76562" lon="2.99474">
        <ele>8</ele>
        <time>1970-01-01T01:59:01Z</time>
      </trkpt>
      <trkpt lat="42.76563" lon="2.99481">
        <ele>8</ele>
        <time>1970-01-01T01:59:02Z</time>
      </trkpt>
      <trkpt lat="42.76565" lon="2.99489">
        <ele>8</ele>
        <time>1970-01-01T01:59:03Z</time>
      </trkpt>
      <trkpt lat="42.76566" lon="2.99496">
        <ele>8</ele>
        <time>1970-01-01T01:59:04Z</time>
      </trkpt>
      <trkpt lat="42.76567" lon="2.99504">
        <ele>8</ele>
        <time>1970-01-01T01:59:05Z</time>
      </trkpt>
      <trkpt lat="42.76569" lon="2.99511">
        <ele>8</ele>
        <time>1970-01-01T01:59:06Z</time>
      </trkpt>
      <trkpt lat="42.7657" lon="2.99518">
        <ele>8</ele>
        <time>1970-01-01T01:59:07Z</time>
      </trkpt>
      <trkpt lat="42.76572" lon="2.99526">
        <ele>8</ele>
        <time>1970-01-01T01:59:08Z</time>
      </trkpt>
      <trkpt lat="42.76574" lon="2.99534">
        <ele>8</ele>
        <time>1970-01-01T01:59:09Z</time>
      </trkpt>
      <trkpt lat="42.76575" lon="2.99541">
        <ele>8</ele>
        <time>1970-01-01T01:59:10Z</time>
      </trkpt>
      <trkpt lat="42.76577" lon="2.99549">
        <ele>8</ele>
        <time>1970-01-01T01:59:11Z</time>
      </trkpt>
      <trkpt lat="42.76579" lon="2.99556">
        <ele>8</ele>
        <time>1970-01-01T01:59:12Z</time>
      </trkpt>
      <trkpt lat="42.76581" lon="2.99563">
        <ele>8</ele>
        <time>1970-01-01T01:59:13Z</time>
      </trkpt>
      <trkpt lat="42.76582" lon="2.99571">
        <ele>8</ele>
        <time>1970-01-01T01:59:14Z</time>
      </trkpt>
      <trkpt lat="42.76584" lon="2.99579">
        <ele>7.8</ele>
        <time>1970-01-01T01:59:15Z</time>
      </trkpt>
      <trkpt lat="42.76586" lon="2.99586">
        <ele>7.8</ele>
        <time>1970-01-01T01:59:16Z</time>
      </trkpt>
      <trkpt lat="42.76588" lon="2.99594">
        <ele>7.8</ele>
        <time>1970-01-01T01:59:17Z</time>
      </trkpt>
      <trkpt lat="42.7659" lon="2.99601">
        <ele>7.8</ele>
        <time>1970-01-01T01:59:18Z</time>
      </trkpt>
      <trkpt lat="42.76591" lon="2.99609">
        <ele>7.8</ele>
        <time>1970-01-01T01:59:19Z</time>
      </trkpt>
      <trkpt lat="42.76593" lon="2.99617">
        <ele>7.8</ele>
        <time>1970-01-01T01:59:20Z</time>
      </trkpt>
      <trkpt lat="42.76595" lon="2.99625">
        <ele>7.8</ele>
        <time>1970-01-01T01:59:21Z</time>
      </trkpt>
      <trkpt lat="42.76596" lon="2.99632">
        <ele>7.6</ele>
        <time>1970-01-01T01:59:22Z</time>
      </trkpt>
      <trkpt lat="42.76598" lon="2.9964">
        <ele>7.6</ele>
        <time>1970-01-01T01:59:23Z</time>
      </trkpt>
      <trkpt lat="42.766" lon="2.99648">
        <ele>7.6</ele>
        <time>1970-01-01T01:59:24Z</time>
      </trkpt>
      <trkpt lat="42.76602" lon="2.99655">
        <ele>7.6</ele>
        <time>1970-01-01T01:59:25Z</time>
      </trkpt>
      <trkpt lat="42.76604" lon="2.99663">
        <ele>7.6</ele>
        <time>1970-01-01T01:59:26Z</time>
      </trkpt>
      <trkpt lat="42.76606" lon="2.9967">
        <ele>7.6</ele>
        <time>1970-01-01T01:59:27Z</time>
      </trkpt>
      <trkpt lat="42.76608" lon="2.99678">
        <ele>7.6</ele>
        <time>1970-01-01T01:59:28Z</time>
      </trkpt>
      <trkpt lat="42.7661" lon="2.99686">
        <ele>7.6</ele>
        <time>1970-01-01T01:59:29Z</time>
      </trkpt>
      <trkpt lat="42.76612" lon="2.99693">
        <ele>7.6</ele>
        <time>1970-01-01T01:59:30Z</time>
      </trkpt>
      <trkpt lat="42.76614" lon="2.99701">
        <ele>7.6</ele>
        <time>1970-01-01T01:59:31Z</time>
      </trkpt>
      <trkpt lat="42.76616" lon="2.99709">
        <ele>7.6</ele>
        <time>1970-01-01T01:59:32Z</time>
      </trkpt>
      <trkpt lat="42.76619" lon="2.99716">
        <ele>7.6</ele>
        <time>1970-01-01T01:59:33Z</time>
      </trkpt>
      <trkpt lat="42.76621" lon="2.99724">
        <ele>7.6</ele>
        <time>1970-01-01T01:59:34Z</time>
      </trkpt>
      <trkpt lat="42.76623" lon="2.99731">
        <ele>7.6</ele>
        <time>1970-01-01T01:59:35Z</time>
      </trkpt>
      <trkpt lat="42.76625" lon="2.99738">
        <ele>7.6</ele>
        <time>1970-01-01T01:59:36Z</time>
      </trkpt>
      <trkpt lat="42.76627" lon="2.99745">
        <ele>7.6</ele>
        <time>1970-01-01T01:59:37Z</time>
      </trkpt>
      <trkpt lat="42.76629" lon="2.99753">
        <ele>7.4</ele>
        <time>1970-01-01T01:59:38Z</time>
      </trkpt>
      <trkpt lat="42.76631" lon="2.9976">
        <ele>7.4</ele>
        <time>1970-01-01T01:59:39Z</time>
      </trkpt>
      <trkpt lat="42.76633" lon="2.99768">
        <ele>7.4</ele>
        <time>1970-01-01T01:59:40Z</time>
      </trkpt>
      <trkpt lat="42.76635" lon="2.99775">
        <ele>7.4</ele>
        <time>1970-01-01T01:59:41Z</time>
      </trkpt>
      <trkpt lat="42.76638" lon="2.99783">
        <ele>7.4</ele>
        <time>1970-01-01T01:59:42Z</time>
      </trkpt>
      <trkpt lat="42.7664" lon="2.99791">
        <ele>7.4</ele>
        <time>1970-01-01T01:59:43Z</time>
      </trkpt>
      <trkpt lat="42.76642" lon="2.99798">
        <ele>7.4</ele>
        <time>1970-01-01T01:59:44Z</time>
      </trkpt>
      <trkpt lat="42.76643" lon="2.99805">
        <ele>7.6</ele>
        <time>1970-01-01T01:59:45Z</time>
      </trkpt>
      <trkpt lat="42.76645" lon="2.99812">
        <ele>7.6</ele>
        <time>1970-01-01T01:59:46Z</time>
      </trkpt>
      <trkpt lat="42.76648" lon="2.9982">
        <ele>7.6</ele>
        <time>1970-01-01T01:59:47Z</time>
      </trkpt>
      <trkpt lat="42.7665" lon="2.99827">
        <ele>7.6</ele>
        <time>1970-01-01T01:59:48Z</time>
      </trkpt>
      <trkpt lat="42.76652" lon="2.99835">
        <ele>7.4</ele>
        <time>1970-01-01T01:59:49Z</time>
      </trkpt>
      <trkpt lat="42.76654" lon="2.99842">
        <ele>7.4</ele>
        <time>1970-01-01T01:59:50Z</time>
      </trkpt>
      <trkpt lat="42.76656" lon="2.9985">
        <ele>7.4</ele>
        <time>1970-01-01T01:59:51Z</time>
      </trkpt>
      <trkpt lat="42.76658" lon="2.99857">
        <ele>7.4</ele>
        <time>1970-01-01T01:59:52Z</time>
      </trkpt>
      <trkpt lat="42.7666" lon="2.99864">
        <ele>7.4</ele>
        <time>1970-01-01T01:59:53Z</time>
      </trkpt>
      <trkpt lat="42.76662" lon="2.99872">
        <ele>7.4</ele>
        <time>1970-01-01T01:59:54Z</time>
      </trkpt>
      <trkpt lat="42.76664" lon="2.99879">
        <ele>7.4</ele>
        <time>1970-01-01T01:59:55Z</time>
      </trkpt>
      <trkpt lat="42.76666" lon="2.99887">
        <ele>7.4</ele>
        <time>1970-01-01T01:59:56Z</time>
      </trkpt>
      <trkpt lat="42.76668" lon="2.99894">
        <ele>7.4</ele>
        <time>1970-01-01T01:59:57Z</time>
      </trkpt>
      <trkpt lat="42.7667" lon="2.99902">
        <ele>7.2</ele>
        <time>1970-01-01T01:59:58Z</time>
      </trkpt>
      <trkpt lat="42.76672" lon="2.99909">
        <ele>7.2</ele>
        <time>1970-01-01T01:59:59Z</time>
      </trkpt>
      <trkpt lat="42.76675" lon="2.99916">
        <ele>7.2</ele>
        <time>1970-01-01T02:00:00Z</time>
      </trkpt>
      <trkpt lat="42.76677" lon="2.99924">
        <ele>7.2</ele>
        <time>1970-01-01T02:00:01Z</time>
      </trkpt>
      <trkpt lat="42.76679" lon="2.99931">
        <ele>7.2</ele>
        <time>1970-01-01T02:00:02Z</time>
      </trkpt>
      <trkpt lat="42.76681" lon="2.99938">
        <ele>7.2</ele>
        <time>1970-01-01T02:00:03Z</time>
      </trkpt>
      <trkpt lat="42.76683" lon="2.99945">
        <ele>7.2</ele>
        <time>1970-01-01T02:00:04Z</time>
      </trkpt>
      <trkpt lat="42.76686" lon="2.99953">
        <ele>7.2</ele>
        <time>1970-01-01T02:00:05Z</time>
      </trkpt>
      <trkpt lat="42.76688" lon="2.9996">
        <ele>7.2</ele>
        <time>1970-01-01T02:00:06Z</time>
      </trkpt>
      <trkpt lat="42.7669" lon="2.99968">
        <ele>7.2</ele>
        <time>1970-01-01T02:00:07Z</time>
      </trkpt>
      <trkpt lat="42.76692" lon="2.99976">
        <ele>7.2</ele>
        <time>1970-01-01T02:00:08Z</time>
      </trkpt>
      <trkpt lat="42.76694" lon="2.99984">
        <ele>7.2</ele>
        <time>1970-01-01T02:00:09Z</time>
      </trkpt>
      <trkpt lat="42.76696" lon="2.99992">
        <ele>7.2</ele>
        <time>1970-01-01T02:00:10Z</time>
      </trkpt>
      <trkpt lat="42.76698" lon="3">
        <ele>7.2</ele>
        <time>1970-01-01T02:00:11Z</time>
      </trkpt>
      <trkpt lat="42.76701" lon="3.00007">
        <ele>7.2</ele>
        <time>1970-01-01T02:00:12Z</time>
      </trkpt>
      <trkpt lat="42.76703" lon="3.00015">
        <ele>7.2</ele>
        <time>1970-01-01T02:00:13Z</time>
      </trkpt>
      <trkpt lat="42.76704" lon="3.00023">
        <ele>7.2</ele>
        <time>1970-01-01T02:00:14Z</time>
      </trkpt>
      <trkpt lat="42.76707" lon="3.00031">
        <ele>7.2</ele>
        <time>1970-01-01T02:00:15Z</time>
      </trkpt>
      <trkpt lat="42.76709" lon="3.00039">
        <ele>7.2</ele>
        <time>1970-01-01T02:00:16Z</time>
      </trkpt>
      <trkpt lat="42.76711" lon="3.00046">
        <ele>7.2</ele>
        <time>1970-01-01T02:00:17Z</time>
      </trkpt>
      <trkpt lat="42.76713" lon="3.00054">
        <ele>7.2</ele>
        <time>1970-01-01T02:00:18Z</time>
      </trkpt>
      <trkpt lat="42.76715" lon="3.00062">
        <ele>7.2</ele>
        <time>1970-01-01T02:00:19Z</time>
      </trkpt>
      <trkpt lat="42.76717" lon="3.0007">
        <ele>7.2</ele>
        <time>1970-01-01T02:00:20Z</time>
      </trkpt>
      <trkpt lat="42.76719" lon="3.00077">
        <ele>7.2</ele>
        <time>1970-01-01T02:00:21Z</time>
      </trkpt>
      <trkpt lat="42.76721" lon="3.00085">
        <ele>7.2</ele>
        <time>1970-01-01T02:00:22Z</time>
      </trkpt>
      <trkpt lat="42.76723" lon="3.00093">
        <ele>7.2</ele>
        <time>1970-01-01T02:00:23Z</time>
      </trkpt>
      <trkpt lat="42.76726" lon="3.00101">
        <ele>7.2</ele>
        <time>1970-01-01T02:00:24Z</time>
      </trkpt>
      <trkpt lat="42.76728" lon="3.00108">
        <ele>7.2</ele>
        <time>1970-01-01T02:00:25Z</time>
      </trkpt>
      <trkpt lat="42.7673" lon="3.00116">
        <ele>7.2</ele>
        <time>1970-01-01T02:00:26Z</time>
      </trkpt>
      <trkpt lat="42.76732" lon="3.00124">
        <ele>7.2</ele>
        <time>1970-01-01T02:00:27Z</time>
      </trkpt>
      <trkpt lat="42.76734" lon="3.00132">
        <ele>7.2</ele>
        <time>1970-01-01T02:00:28Z</time>
      </trkpt>
      <trkpt lat="42.76737" lon="3.0014">
        <ele>7.2</ele>
        <time>1970-01-01T02:00:29Z</time>
      </trkpt>
      <trkpt lat="42.76739" lon="3.00148">
        <ele>7.2</ele>
        <time>1970-01-01T02:00:30Z</time>
      </trkpt>
      <trkpt lat="42.76741" lon="3.00155">
        <ele>7.2</ele>
        <time>1970-01-01T02:00:31Z</time>
      </trkpt>
      <trkpt lat="42.76743" lon="3.00163">
        <ele>7.2</ele>
        <time>1970-01-01T02:00:32Z</time>
      </trkpt>
      <trkpt lat="42.76745" lon="3.00171">
        <ele>7.2</ele>
        <time>1970-01-01T02:00:33Z</time>
      </trkpt>
      <trkpt lat="42.76747" lon="3.00179">
        <ele>7.2</ele>
        <time>1970-01-01T02:00:34Z</time>
      </trkpt>
      <trkpt lat="42.76749" lon="3.00186">
        <ele>7.4</ele>
        <time>1970-01-01T02:00:35Z</time>
      </trkpt>
      <trkpt lat="42.76751" lon="3.00194">
        <ele>7.4</ele>
        <time>1970-01-01T02:00:36Z</time>
      </trkpt>
      <trkpt lat="42.76753" lon="3.00202">
        <ele>7.4</ele>
        <time>1970-01-01T02:00:37Z</time>
      </trkpt>
      <trkpt lat="42.76755" lon="3.0021">
        <ele>7.4</ele>
        <time>1970-01-01T02:00:38Z</time>
      </trkpt>
      <trkpt lat="42.76757" lon="3.00217">
        <ele>7.4</ele>
        <time>1970-01-01T02:00:39Z</time>
      </trkpt>
      <trkpt lat="42.7676" lon="3.00225">
        <ele>7.2</ele>
        <time>1970-01-01T02:00:40Z</time>
      </trkpt>
      <trkpt lat="42.76762" lon="3.00233">
        <ele>7.2</ele>
        <time>1970-01-01T02:00:41Z</time>
      </trkpt>
      <trkpt lat="42.76764" lon="3.0024">
        <ele>7.2</ele>
        <time>1970-01-01T02:00:42Z</time>
      </trkpt>
      <trkpt lat="42.76766" lon="3.00248">
        <ele>7.2</ele>
        <time>1970-01-01T02:00:43Z</time>
      </trkpt>
      <trkpt lat="42.76768" lon="3.00255">
        <ele>7.2</ele>
        <time>1970-01-01T02:00:44Z</time>
      </trkpt>
      <trkpt lat="42.7677" lon="3.00263">
        <ele>7.2</ele>
        <time>1970-01-01T02:00:45Z</time>
      </trkpt>
      <trkpt lat="42.76773" lon="3.00271">
        <ele>7.2</ele>
        <time>1970-01-01T02:00:46Z</time>
      </trkpt>
      <trkpt lat="42.76774" lon="3.00279">
        <ele>7.2</ele>
        <time>1970-01-01T02:00:47Z</time>
      </trkpt>
      <trkpt lat="42.76776" lon="3.00287">
        <ele>7.2</ele>
        <time>1970-01-01T02:00:48Z</time>
      </trkpt>
      <trkpt lat="42.76778" lon="3.00294">
        <ele>7.2</ele>
        <time>1970-01-01T02:00:49Z</time>
      </trkpt>
      <trkpt lat="42.7678" lon="3.00302">
        <ele>7.2</ele>
        <time>1970-01-01T02:00:50Z</time>
      </trkpt>
      <trkpt lat="42.76782" lon="3.0031">
        <ele>7.2</ele>
        <time>1970-01-01T02:00:51Z</time>
      </trkpt>
      <trkpt lat="42.76784" lon="3.00318">
        <ele>7.2</ele>
        <time>1970-01-01T02:00:52Z</time>
      </trkpt>
      <trkpt lat="42.76786" lon="3.00326">
        <ele>7</ele>
        <time>1970-01-01T02:00:53Z</time>
      </trkpt>
      <trkpt lat="42.76788" lon="3.00333">
        <ele>7</ele>
        <time>1970-01-01T02:00:54Z</time>
      </trkpt>
      <trkpt lat="42.7679" lon="3.00341">
        <ele>7.2</ele>
        <time>1970-01-01T02:00:55Z</time>
      </trkpt>
      <trkpt lat="42.76792" lon="3.00348">
        <ele>7.2</ele>
        <time>1970-01-01T02:00:56Z</time>
      </trkpt>
      <trkpt lat="42.76794" lon="3.00355">
        <ele>7.2</ele>
        <time>1970-01-01T02:00:57Z</time>
      </trkpt>
      <trkpt lat="42.76796" lon="3.00363">
        <ele>7.2</ele>
        <time>1970-01-01T02:00:58Z</time>
      </trkpt>
      <trkpt lat="42.76797" lon="3.0037">
        <ele>7.2</ele>
        <time>1970-01-01T02:00:59Z</time>
      </trkpt>
      <trkpt lat="42.76799" lon="3.00378">
        <ele>7.2</ele>
        <time>1970-01-01T02:01:00Z</time>
      </trkpt>
      <trkpt lat="42.76801" lon="3.00386">
        <ele>7.2</ele>
        <time>1970-01-01T02:01:01Z</time>
      </trkpt>
      <trkpt lat="42.76804" lon="3.00394">
        <ele>7.2</ele>
        <time>1970-01-01T02:01:02Z</time>
      </trkpt>
      <trkpt lat="42.76806" lon="3.00401">
        <ele>7.2</ele>
        <time>1970-01-01T02:01:03Z</time>
      </trkpt>
      <trkpt lat="42.76809" lon="3.00409">
        <ele>7.2</ele>
        <time>1970-01-01T02:01:04Z</time>
      </trkpt>
      <trkpt lat="42.76811" lon="3.00416">
        <ele>7.2</ele>
        <time>1970-01-01T02:01:05Z</time>
      </trkpt>
      <trkpt lat="42.76814" lon="3.00424">
        <ele>7.2</ele>
        <time>1970-01-01T02:01:06Z</time>
      </trkpt>
      <trkpt lat="42.76816" lon="3.00432">
        <ele>7.2</ele>
        <time>1970-01-01T02:01:07Z</time>
      </trkpt>
      <trkpt lat="42.76818" lon="3.0044">
        <ele>7.2</ele>
        <time>1970-01-01T02:01:08Z</time>
      </trkpt>
      <trkpt lat="42.7682" lon="3.00447">
        <ele>7.2</ele>
        <time>1970-01-01T02:01:09Z</time>
      </trkpt>
      <trkpt lat="42.76822" lon="3.00455">
        <ele>7.2</ele>
        <time>1970-01-01T02:01:10Z</time>
      </trkpt>
      <trkpt lat="42.76824" lon="3.00463">
        <ele>7.2</ele>
        <time>1970-01-01T02:01:11Z</time>
      </trkpt>
      <trkpt lat="42.76826" lon="3.00471">
        <ele>7.2</ele>
        <time>1970-01-01T02:01:12Z</time>
      </trkpt>
      <trkpt lat="42.76828" lon="3.00479">
        <ele>7.2</ele>
        <time>1970-01-01T02:01:13Z</time>
      </trkpt>
      <trkpt lat="42.7683" lon="3.00487">
        <ele>7.2</ele>
        <time>1970-01-01T02:01:14Z</time>
      </trkpt>
      <trkpt lat="42.76833" lon="3.00494">
        <ele>7.2</ele>
        <time>1970-01-01T02:01:15Z</time>
      </trkpt>
      <trkpt lat="42.76835" lon="3.00502">
        <ele>7.2</ele>
        <time>1970-01-01T02:01:16Z</time>
      </trkpt>
      <trkpt lat="42.76837" lon="3.0051">
        <ele>7</ele>
        <time>1970-01-01T02:01:17Z</time>
      </trkpt>
      <trkpt lat="42.7684" lon="3.00517">
        <ele>7</ele>
        <time>1970-01-01T02:01:18Z</time>
      </trkpt>
      <trkpt lat="42.76842" lon="3.00525">
        <ele>7</ele>
        <time>1970-01-01T02:01:19Z</time>
      </trkpt>
      <trkpt lat="42.76844" lon="3.00533">
        <ele>7</ele>
        <time>1970-01-01T02:01:20Z</time>
      </trkpt>
      <trkpt lat="42.76847" lon="3.0054">
        <ele>7</ele>
        <time>1970-01-01T02:01:21Z</time>
      </trkpt>
      <trkpt lat="42.76849" lon="3.00548">
        <ele>7</ele>
        <time>1970-01-01T02:01:22Z</time>
      </trkpt>
      <trkpt lat="42.76851" lon="3.00555">
        <ele>7</ele>
        <time>1970-01-01T02:01:23Z</time>
      </trkpt>
      <trkpt lat="42.76853" lon="3.00563">
        <ele>6.8</ele>
        <time>1970-01-01T02:01:24Z</time>
      </trkpt>
      <trkpt lat="42.76855" lon="3.00571">
        <ele>6.8</ele>
        <time>1970-01-01T02:01:25Z</time>
      </trkpt>
      <trkpt lat="42.76857" lon="3.00579">
        <ele>6.8</ele>
        <time>1970-01-01T02:01:26Z</time>
      </trkpt>
      <trkpt lat="42.76859" lon="3.00587">
        <ele>6.8</ele>
        <time>1970-01-01T02:01:27Z</time>
      </trkpt>
      <trkpt lat="42.76861" lon="3.00595">
        <ele>6.8</ele>
        <time>1970-01-01T02:01:28Z</time>
      </trkpt>
      <trkpt lat="42.76864" lon="3.00602">
        <ele>6.8</ele>
        <time>1970-01-01T02:01:29Z</time>
      </trkpt>
      <trkpt lat="42.76866" lon="3.0061">
        <ele>6.8</ele>
        <time>1970-01-01T02:01:30Z</time>
      </trkpt>
      <trkpt lat="42.76868" lon="3.00618">
        <ele>6.8</ele>
        <time>1970-01-01T02:01:31Z</time>
      </trkpt>
      <trkpt lat="42.7687" lon="3.00626">
        <ele>6.8</ele>
        <time>1970-01-01T02:01:32Z</time>
      </trkpt>
      <trkpt lat="42.76872" lon="3.00634">
        <ele>6.8</ele>
        <time>1970-01-01T02:01:33Z</time>
      </trkpt>
      <trkpt lat="42.76874" lon="3.00642">
        <ele>6.8</ele>
        <time>1970-01-01T02:01:34Z</time>
      </trkpt>
      <trkpt lat="42.76876" lon="3.00649">
        <ele>6.8</ele>
        <time>1970-01-01T02:01:35Z</time>
      </trkpt>
      <trkpt lat="42.76878" lon="3.00657">
        <ele>6.8</ele>
        <time>1970-01-01T02:01:36Z</time>
      </trkpt>
      <trkpt lat="42.7688" lon="3.00665">
        <ele>6.8</ele>
        <time>1970-01-01T02:01:37Z</time>
      </trkpt>
      <trkpt lat="42.76882" lon="3.00673">
        <ele>6.8</ele>
        <time>1970-01-01T02:01:38Z</time>
      </trkpt>
      <trkpt lat="42.76884" lon="3.0068">
        <ele>6.8</ele>
        <time>1970-01-01T02:01:39Z</time>
      </trkpt>
      <trkpt lat="42.76886" lon="3.00688">
        <ele>6.8</ele>
        <time>1970-01-01T02:01:40Z</time>
      </trkpt>
      <trkpt lat="42.76888" lon="3.00696">
        <ele>6.8</ele>
        <time>1970-01-01T02:01:41Z</time>
      </trkpt>
      <trkpt lat="42.7689" lon="3.00703">
        <ele>6.8</ele>
        <time>1970-01-01T02:01:42Z</time>
      </trkpt>
      <trkpt lat="42.76892" lon="3.0071">
        <ele>6.8</ele>
        <time>1970-01-01T02:01:43Z</time>
      </trkpt>
      <trkpt lat="42.76894" lon="3.00718">
        <ele>6.8</ele>
        <time>1970-01-01T02:01:44Z</time>
      </trkpt>
      <trkpt lat="42.76896" lon="3.00725">
        <ele>6.8</ele>
        <time>1970-01-01T02:01:45Z</time>
      </trkpt>
      <trkpt lat="42.76898" lon="3.00733">
        <ele>6.8</ele>
        <time>1970-01-01T02:01:46Z</time>
      </trkpt>
      <trkpt lat="42.769" lon="3.0074">
        <ele>6.8</ele>
        <time>1970-01-01T02:01:47Z</time>
      </trkpt>
      <trkpt lat="42.76903" lon="3.00748">
        <ele>6.8</ele>
        <time>1970-01-01T02:01:48Z</time>
      </trkpt>
      <trkpt lat="42.76905" lon="3.00755">
        <ele>6.8</ele>
        <time>1970-01-01T02:01:49Z</time>
      </trkpt>
      <trkpt lat="42.76907" lon="3.00763">
        <ele>6.8</ele>
        <time>1970-01-01T02:01:50Z</time>
      </trkpt>
      <trkpt lat="42.76909" lon="3.00771">
        <ele>6.6</ele>
        <time>1970-01-01T02:01:51Z</time>
      </trkpt>
      <trkpt lat="42.76912" lon="3.00779">
        <ele>6.6</ele>
        <time>1970-01-01T02:01:52Z</time>
      </trkpt>
      <trkpt lat="42.76914" lon="3.00786">
        <ele>6.6</ele>
        <time>1970-01-01T02:01:53Z</time>
      </trkpt>
      <trkpt lat="42.76916" lon="3.00794">
        <ele>6.6</ele>
        <time>1970-01-01T02:01:54Z</time>
      </trkpt>
      <trkpt lat="42.76918" lon="3.00802">
        <ele>6.6</ele>
        <time>1970-01-01T02:01:55Z</time>
      </trkpt>
      <trkpt lat="42.7692" lon="3.0081">
        <ele>6.6</ele>
        <time>1970-01-01T02:01:56Z</time>
      </trkpt>
      <trkpt lat="42.76922" lon="3.00818">
        <ele>6.6</ele>
        <time>1970-01-01T02:01:57Z</time>
      </trkpt>
      <trkpt lat="42.76924" lon="3.00825">
        <ele>6.6</ele>
        <time>1970-01-01T02:01:58Z</time>
      </trkpt>
      <trkpt lat="42.76927" lon="3.00833">
        <ele>6.6</ele>
        <time>1970-01-01T02:01:59Z</time>
      </trkpt>
      <trkpt lat="42.76929" lon="3.00841">
        <ele>6.6</ele>
        <time>1970-01-01T02:02:00Z</time>
      </trkpt>
      <trkpt lat="42.76931" lon="3.00848">
        <ele>6.6</ele>
        <time>1970-01-01T02:02:01Z</time>
      </trkpt>
      <trkpt lat="42.76933" lon="3.00856">
        <ele>6.6</ele>
        <time>1970-01-01T02:02:02Z</time>
      </trkpt>
      <trkpt lat="42.76935" lon="3.00864">
        <ele>6.6</ele>
        <time>1970-01-01T02:02:03Z</time>
      </trkpt>
      <trkpt lat="42.76938" lon="3.00871">
        <ele>6.6</ele>
        <time>1970-01-01T02:02:04Z</time>
      </trkpt>
      <trkpt lat="42.7694" lon="3.00879">
        <ele>6.6</ele>
        <time>1970-01-01T02:02:05Z</time>
      </trkpt>
      <trkpt lat="42.76942" lon="3.00887">
        <ele>6.6</ele>
        <time>1970-01-01T02:02:06Z</time>
      </trkpt>
      <trkpt lat="42.76944" lon="3.00895">
        <ele>6.6</ele>
        <time>1970-01-01T02:02:07Z</time>
      </trkpt>
      <trkpt lat="42.76946" lon="3.00902">
        <ele>6.6</ele>
        <time>1970-01-01T02:02:08Z</time>
      </trkpt>
      <trkpt lat="42.76948" lon="3.0091">
        <ele>6.6</ele>
        <time>1970-01-01T02:02:09Z</time>
      </trkpt>
      <trkpt lat="42.7695" lon="3.00918">
        <ele>6.6</ele>
        <time>1970-01-01T02:02:10Z</time>
      </trkpt>
      <trkpt lat="42.76952" lon="3.00925">
        <ele>6.6</ele>
        <time>1970-01-01T02:02:11Z</time>
      </trkpt>
      <trkpt lat="42.76954" lon="3.00933">
        <ele>6.6</ele>
        <time>1970-01-01T02:02:12Z</time>
      </trkpt>
      <trkpt lat="42.76956" lon="3.00941">
        <ele>6.6</ele>
        <time>1970-01-01T02:02:13Z</time>
      </trkpt>
      <trkpt lat="42.76959" lon="3.00948">
        <ele>6.6</ele>
        <time>1970-01-01T02:02:14Z</time>
      </trkpt>
      <trkpt lat="42.76961" lon="3.00955">
        <ele>6.6</ele>
        <time>1970-01-01T02:02:15Z</time>
      </trkpt>
      <trkpt lat="42.76962" lon="3.00963">
        <ele>6.6</ele>
        <time>1970-01-01T02:02:16Z</time>
      </trkpt>
      <trkpt lat="42.76964" lon="3.0097">
        <ele>6.6</ele>
        <time>1970-01-01T02:02:17Z</time>
      </trkpt>
      <trkpt lat="42.76966" lon="3.00977">
        <ele>6.6</ele>
        <time>1970-01-01T02:02:18Z</time>
      </trkpt>
      <trkpt lat="42.76968" lon="3.00984">
        <ele>6.6</ele>
        <time>1970-01-01T02:02:19Z</time>
      </trkpt>
      <trkpt lat="42.7697" lon="3.00991">
        <ele>6.6</ele>
        <time>1970-01-01T02:02:20Z</time>
      </trkpt>
      <trkpt lat="42.76972" lon="3.00998">
        <ele>6.6</ele>
        <time>1970-01-01T02:02:21Z</time>
      </trkpt>
      <trkpt lat="42.76974" lon="3.01004">
        <ele>6.6</ele>
        <time>1970-01-01T02:02:22Z</time>
      </trkpt>
      <trkpt lat="42.76976" lon="3.0101">
        <ele>6.6</ele>
        <time>1970-01-01T02:02:23Z</time>
      </trkpt>
      <trkpt lat="42.76977" lon="3.01016">
        <ele>6.6</ele>
        <time>1970-01-01T02:02:24Z</time>
      </trkpt>
      <trkpt lat="42.76979" lon="3.01023">
        <ele>6.6</ele>
        <time>1970-01-01T02:02:25Z</time>
      </trkpt>
      <trkpt lat="42.76981" lon="3.01029">
        <ele>6.6</ele>
        <time>1970-01-01T02:02:26Z</time>
      </trkpt>
      <trkpt lat="42.76982" lon="3.01035">
        <ele>6.6</ele>
        <time>1970-01-01T02:02:27Z</time>
      </trkpt>
      <trkpt lat="42.76984" lon="3.01042">
        <ele>6.6</ele>
        <time>1970-01-01T02:02:28Z</time>
      </trkpt>
      <trkpt lat="42.76986" lon="3.01048">
        <ele>6.6</ele>
        <time>1970-01-01T02:02:29Z</time>
      </trkpt>
      <trkpt lat="42.76988" lon="3.01054">
        <ele>6.6</ele>
        <time>1970-01-01T02:02:30Z</time>
      </trkpt>
      <trkpt lat="42.76989" lon="3.01061">
        <ele>6.6</ele>
        <time>1970-01-01T02:02:31Z</time>
      </trkpt>
      <trkpt lat="42.76991" lon="3.01067">
        <ele>6.6</ele>
        <time>1970-01-01T02:02:32Z</time>
      </trkpt>
      <trkpt lat="42.76993" lon="3.01073">
        <ele>6.4</ele>
        <time>1970-01-01T02:02:33Z</time>
      </trkpt>
      <trkpt lat="42.76994" lon="3.0108">
        <ele>6.4</ele>
        <time>1970-01-01T02:02:34Z</time>
      </trkpt>
      <trkpt lat="42.76996" lon="3.01086">
        <ele>6.4</ele>
        <time>1970-01-01T02:02:35Z</time>
      </trkpt>
      <trkpt lat="42.76998" lon="3.01092">
        <ele>6.4</ele>
        <time>1970-01-01T02:02:36Z</time>
      </trkpt>
      <trkpt lat="42.76999" lon="3.01098">
        <ele>6.4</ele>
        <time>1970-01-01T02:02:37Z</time>
      </trkpt>
      <trkpt lat="42.77001" lon="3.01103">
        <ele>6.4</ele>
        <time>1970-01-01T02:02:38Z</time>
      </trkpt>
      <trkpt lat="42.77002" lon="3.01109">
        <ele>6.4</ele>
        <time>1970-01-01T02:02:39Z</time>
      </trkpt>
      <trkpt lat="42.77003" lon="3.01114">
        <ele>6.4</ele>
        <time>1970-01-01T02:02:40Z</time>
      </trkpt>
      <trkpt lat="42.77004" lon="3.0112">
        <ele>6.4</ele>
        <time>1970-01-01T02:02:41Z</time>
      </trkpt>
      <trkpt lat="42.77006" lon="3.01125">
        <ele>6.4</ele>
        <time>1970-01-01T02:02:42Z</time>
      </trkpt>
      <trkpt lat="42.77007" lon="3.01131">
        <ele>6.4</ele>
        <time>1970-01-01T02:02:43Z</time>
      </trkpt>
      <trkpt lat="42.77009" lon="3.01137">
        <ele>6.4</ele>
        <time>1970-01-01T02:02:44Z</time>
      </trkpt>
      <trkpt lat="42.77011" lon="3.01143">
        <ele>6.4</ele>
        <time>1970-01-01T02:02:45Z</time>
      </trkpt>
      <trkpt lat="42.77012" lon="3.01149">
        <ele>6.2</ele>
        <time>1970-01-01T02:02:46Z</time>
      </trkpt>
      <trkpt lat="42.77014" lon="3.01156">
        <ele>6.2</ele>
        <time>1970-01-01T02:02:47Z</time>
      </trkpt>
      <trkpt lat="42.77016" lon="3.01162">
        <ele>6.2</ele>
        <time>1970-01-01T02:02:48Z</time>
      </trkpt>
      <trkpt lat="42.77017" lon="3.01169">
        <ele>6.2</ele>
        <time>1970-01-01T02:02:49Z</time>
      </trkpt>
      <trkpt lat="42.77019" lon="3.01176">
        <ele>6.2</ele>
        <time>1970-01-01T02:02:50Z</time>
      </trkpt>
      <trkpt lat="42.77021" lon="3.01182">
        <ele>6.2</ele>
        <time>1970-01-01T02:02:51Z</time>
      </trkpt>
      <trkpt lat="42.77022" lon="3.01189">
        <ele>6.2</ele>
        <time>1970-01-01T02:02:52Z</time>
      </trkpt>
      <trkpt lat="42.77024" lon="3.01195">
        <ele>6</ele>
        <time>1970-01-01T02:02:53Z</time>
      </trkpt>
      <trkpt lat="42.77025" lon="3.01202">
        <ele>6</ele>
        <time>1970-01-01T02:02:54Z</time>
      </trkpt>
      <trkpt lat="42.77027" lon="3.01209">
        <ele>6</ele>
        <time>1970-01-01T02:02:55Z</time>
      </trkpt>
      <trkpt lat="42.77029" lon="3.01215">
        <ele>6</ele>
        <time>1970-01-01T02:02:56Z</time>
      </trkpt>
      <trkpt lat="42.7703" lon="3.01222">
        <ele>6</ele>
        <time>1970-01-01T02:02:57Z</time>
      </trkpt>
      <trkpt lat="42.77032" lon="3.01229">
        <ele>6</ele>
        <time>1970-01-01T02:02:58Z</time>
      </trkpt>
      <trkpt lat="42.77034" lon="3.01236">
        <ele>6</ele>
        <time>1970-01-01T02:02:59Z</time>
      </trkpt>
      <trkpt lat="42.77035" lon="3.01242">
        <ele>6</ele>
        <time>1970-01-01T02:03:00Z</time>
      </trkpt>
      <trkpt lat="42.77037" lon="3.01249">
        <ele>6</ele>
        <time>1970-01-01T02:03:01Z</time>
      </trkpt>
      <trkpt lat="42.77038" lon="3.01256">
        <ele>6</ele>
        <time>1970-01-01T02:03:02Z</time>
      </trkpt>
      <trkpt lat="42.7704" lon="3.01263">
        <ele>6</ele>
        <time>1970-01-01T02:03:03Z</time>
      </trkpt>
      <trkpt lat="42.77041" lon="3.0127">
        <ele>6</ele>
        <time>1970-01-01T02:03:04Z</time>
      </trkpt>
      <trkpt lat="42.77043" lon="3.01277">
        <ele>5.8</ele>
        <time>1970-01-01T02:03:05Z</time>
      </trkpt>
      <trkpt lat="42.77044" lon="3.01284">
        <ele>5.8</ele>
        <time>1970-01-01T02:03:06Z</time>
      </trkpt>
      <trkpt lat="42.77046" lon="3.01292">
        <ele>5.8</ele>
        <time>1970-01-01T02:03:07Z</time>
      </trkpt>
      <trkpt lat="42.77047" lon="3.01299">
        <ele>5.8</ele>
        <time>1970-01-01T02:03:08Z</time>
      </trkpt>
      <trkpt lat="42.77048" lon="3.01306">
        <ele>5.8</ele>
        <time>1970-01-01T02:03:09Z</time>
      </trkpt>
      <trkpt lat="42.7705" lon="3.01314">
        <ele>5.8</ele>
        <time>1970-01-01T02:03:10Z</time>
      </trkpt>
      <trkpt lat="42.77051" lon="3.01321">
        <ele>5.8</ele>
        <time>1970-01-01T02:03:11Z</time>
      </trkpt>
      <trkpt lat="42.77052" lon="3.01328">
        <ele>5.8</ele>
        <time>1970-01-01T02:03:12Z</time>
      </trkpt>
      <trkpt lat="42.77054" lon="3.01335">
        <ele>5.8</ele>
        <time>1970-01-01T02:03:13Z</time>
      </trkpt>
      <trkpt lat="42.77055" lon="3.01343">
        <ele>5.8</ele>
        <time>1970-01-01T02:03:14Z</time>
      </trkpt>
      <trkpt lat="42.77056" lon="3.0135">
        <ele>5.8</ele>
        <time>1970-01-01T02:03:15Z</time>
      </trkpt>
      <trkpt lat="42.77058" lon="3.01356">
        <ele>5.8</ele>
        <time>1970-01-01T02:03:16Z</time>
      </trkpt>
      <trkpt lat="42.77059" lon="3.01363">
        <ele>5.8</ele>
        <time>1970-01-01T02:03:17Z</time>
      </trkpt>
      <trkpt lat="42.7706" lon="3.01369">
        <ele>5.8</ele>
        <time>1970-01-01T02:03:18Z</time>
      </trkpt>
      <trkpt lat="42.77061" lon="3.01375">
        <ele>5.8</ele>
        <time>1970-01-01T02:03:19Z</time>
      </trkpt>
      <trkpt lat="42.77062" lon="3.01381">
        <ele>5.8</ele>
        <time>1970-01-01T02:03:20Z</time>
      </trkpt>
      <trkpt lat="42.77063" lon="3.01387">
        <ele>5.8</ele>
        <time>1970-01-01T02:03:21Z</time>
      </trkpt>
      <trkpt lat="42.77065" lon="3.01394">
        <ele>5.8</ele>
        <time>1970-01-01T02:03:22Z</time>
      </trkpt>
      <trkpt lat="42.77066" lon="3.01401">
        <ele>5.8</ele>
        <time>1970-01-01T02:03:23Z</time>
      </trkpt>
      <trkpt lat="42.77067" lon="3.01407">
        <ele>5.8</ele>
        <time>1970-01-01T02:03:24Z</time>
      </trkpt>
      <trkpt lat="42.77068" lon="3.01413">
        <ele>5.8</ele>
        <time>1970-01-01T02:03:25Z</time>
      </trkpt>
      <trkpt lat="42.77069" lon="3.01418">
        <ele>5.8</ele>
        <time>1970-01-01T02:03:26Z</time>
      </trkpt>
      <trkpt lat="42.7707" lon="3.01424">
        <ele>5.8</ele>
        <time>1970-01-01T02:03:27Z</time>
      </trkpt>
      <trkpt lat="42.77071" lon="3.0143">
        <ele>5.8</ele>
        <time>1970-01-01T02:03:28Z</time>
      </trkpt>
      <trkpt lat="42.77072" lon="3.01436">
        <ele>5.8</ele>
        <time>1970-01-01T02:03:29Z</time>
      </trkpt>
      <trkpt lat="42.77072" lon="3.01443">
        <ele>5.8</ele>
        <time>1970-01-01T02:03:30Z</time>
      </trkpt>
      <trkpt lat="42.77073" lon="3.01449">
        <ele>5.8</ele>
        <time>1970-01-01T02:03:31Z</time>
      </trkpt>
      <trkpt lat="42.77074" lon="3.01455">
        <ele>5.8</ele>
        <time>1970-01-01T02:03:32Z</time>
      </trkpt>
      <trkpt lat="42.77075" lon="3.01462">
        <ele>5.8</ele>
        <time>1970-01-01T02:03:33Z</time>
      </trkpt>
      <trkpt lat="42.77076" lon="3.01468">
        <ele>5.8</ele>
        <time>1970-01-01T02:03:34Z</time>
      </trkpt>
      <trkpt lat="42.77077" lon="3.01475">
        <ele>5.8</ele>
        <time>1970-01-01T02:03:35Z</time>
      </trkpt>
      <trkpt lat="42.77078" lon="3.01481">
        <ele>5.8</ele>
        <time>1970-01-01T02:03:36Z</time>
      </trkpt>
      <trkpt lat="42.77079" lon="3.01488">
        <ele>5.8</ele>
        <time>1970-01-01T02:03:37Z</time>
      </trkpt>
      <trkpt lat="42.7708" lon="3.01495">
        <ele>5.8</ele>
        <time>1970-01-01T02:03:38Z</time>
      </trkpt>
      <trkpt lat="42.77081" lon="3.01501">
        <ele>5.8</ele>
        <time>1970-01-01T02:03:39Z</time>
      </trkpt>
      <trkpt lat="42.77082" lon="3.01508">
        <ele>5.6</ele>
        <time>1970-01-01T02:03:40Z</time>
      </trkpt>
      <trkpt lat="42.77082" lon="3.01514">
        <ele>5.6</ele>
        <time>1970-01-01T02:03:41Z</time>
      </trkpt>
      <trkpt lat="42.77083" lon="3.0152">
        <ele>5.6</ele>
        <time>1970-01-01T02:03:42Z</time>
      </trkpt>
      <trkpt lat="42.77084" lon="3.01527">
        <ele>5.6</ele>
        <time>1970-01-01T02:03:43Z</time>
      </trkpt>
      <trkpt lat="42.77085" lon="3.01534">
        <ele>5.6</ele>
        <time>1970-01-01T02:03:44Z</time>
      </trkpt>
      <trkpt lat="42.77085" lon="3.01541">
        <ele>5.6</ele>
        <time>1970-01-01T02:03:45Z</time>
      </trkpt>
      <trkpt lat="42.77086" lon="3.01548">
        <ele>5.6</ele>
        <time>1970-01-01T02:03:46Z</time>
      </trkpt>
      <trkpt lat="42.77087" lon="3.01555">
        <ele>5.6</ele>
        <time>1970-01-01T02:03:47Z</time>
      </trkpt>
      <trkpt lat="42.77087" lon="3.01561">
        <ele>5.6</ele>
        <time>1970-01-01T02:03:48Z</time>
      </trkpt>
      <trkpt lat="42.77088" lon="3.01568">
        <ele>5.6</ele>
        <time>1970-01-01T02:03:49Z</time>
      </trkpt>
      <trkpt lat="42.77089" lon="3.01574">
        <ele>5.6</ele>
        <time>1970-01-01T02:03:50Z</time>
      </trkpt>
      <trkpt lat="42.7709" lon="3.0158">
        <ele>5.6</ele>
        <time>1970-01-01T02:03:51Z</time>
      </trkpt>
      <trkpt lat="42.7709" lon="3.01587">
        <ele>5.6</ele>
        <time>1970-01-01T02:03:52Z</time>
      </trkpt>
      <trkpt lat="42.77091" lon="3.01593">
        <ele>5.4</ele>
        <time>1970-01-01T02:03:53Z</time>
      </trkpt>
      <trkpt lat="42.77091" lon="3.016">
        <ele>5.4</ele>
        <time>1970-01-01T02:03:54Z</time>
      </trkpt>
      <trkpt lat="42.77092" lon="3.01606">
        <ele>5.4</ele>
        <time>1970-01-01T02:03:55Z</time>
      </trkpt>
      <trkpt lat="42.77093" lon="3.01613">
        <ele>5.4</ele>
        <time>1970-01-01T02:03:56Z</time>
      </trkpt>
      <trkpt lat="42.77093" lon="3.0162">
        <ele>5.4</ele>
        <time>1970-01-01T02:03:57Z</time>
      </trkpt>
      <trkpt lat="42.77094" lon="3.01627">
        <ele>5.4</ele>
        <time>1970-01-01T02:03:58Z</time>
      </trkpt>
      <trkpt lat="42.77095" lon="3.01634">
        <ele>5.4</ele>
        <time>1970-01-01T02:03:59Z</time>
      </trkpt>
      <trkpt lat="42.77095" lon="3.01641">
        <ele>5.4</ele>
        <time>1970-01-01T02:04:00Z</time>
      </trkpt>
      <trkpt lat="42.77096" lon="3.01647">
        <ele>5.2</ele>
        <time>1970-01-01T02:04:01Z</time>
      </trkpt>
      <trkpt lat="42.77096" lon="3.01654">
        <ele>5</ele>
        <time>1970-01-01T02:04:02Z</time>
      </trkpt>
      <trkpt lat="42.77096" lon="3.01661">
        <ele>4.8</ele>
        <time>1970-01-01T02:04:03Z</time>
      </trkpt>
      <trkpt lat="42.77096" lon="3.01668">
        <ele>4.6</ele>
        <time>1970-01-01T02:04:04Z</time>
      </trkpt>
      <trkpt lat="42.77096" lon="3.01676">
        <ele>4.2</ele>
        <time>1970-01-01T02:04:05Z</time>
      </trkpt>
      <trkpt lat="42.77096" lon="3.01684">
        <ele>4</ele>
        <time>1970-01-01T02:04:06Z</time>
      </trkpt>
      <trkpt lat="42.77096" lon="3.01693">
        <ele>3.6</ele>
        <time>1970-01-01T02:04:07Z</time>
      </trkpt>
      <trkpt lat="42.77096" lon="3.01703">
        <ele>3.4</ele>
        <time>1970-01-01T02:04:08Z</time>
      </trkpt>
      <trkpt lat="42.77096" lon="3.01712">
        <ele>3.2</ele>
        <time>1970-01-01T02:04:09Z</time>
      </trkpt>
      <trkpt lat="42.77096" lon="3.01721">
        <ele>3</ele>
        <time>1970-01-01T02:04:10Z</time>
      </trkpt>
      <trkpt lat="42.77096" lon="3.0173">
        <ele>3</ele>
        <time>1970-01-01T02:04:11Z</time>
      </trkpt>
      <trkpt lat="42.77097" lon="3.01739">
        <ele>3</ele>
        <time>1970-01-01T02:04:12Z</time>
      </trkpt>
      <trkpt lat="42.77098" lon="3.01747">
        <ele>3</ele>
        <time>1970-01-01T02:04:13Z</time>
      </trkpt>
      <trkpt lat="42.77099" lon="3.01756">
        <ele>3</ele>
        <time>1970-01-01T02:04:14Z</time>
      </trkpt>
      <trkpt lat="42.771" lon="3.01764">
        <ele>3.2</ele>
        <time>1970-01-01T02:04:15Z</time>
      </trkpt>
      <trkpt lat="42.77102" lon="3.01772">
        <ele>3.4</ele>
        <time>1970-01-01T02:04:16Z</time>
      </trkpt>
      <trkpt lat="42.77103" lon="3.01778">
        <ele>3.6</ele>
        <time>1970-01-01T02:04:17Z</time>
      </trkpt>
      <trkpt lat="42.77104" lon="3.01784">
        <ele>3.8</ele>
        <time>1970-01-01T02:04:18Z</time>
      </trkpt>
      <trkpt lat="42.77105" lon="3.01791">
        <ele>4</ele>
        <time>1970-01-01T02:04:19Z</time>
      </trkpt>
      <trkpt lat="42.77106" lon="3.01797">
        <ele>4.2</ele>
        <time>1970-01-01T02:04:20Z</time>
      </trkpt>
      <trkpt lat="42.77107" lon="3.01803">
        <ele>4.4</ele>
        <time>1970-01-01T02:04:21Z</time>
      </trkpt>
      <trkpt lat="42.77108" lon="3.01808">
        <ele>4.4</ele>
        <time>1970-01-01T02:04:22Z</time>
      </trkpt>
      <trkpt lat="42.77109" lon="3.01813">
        <ele>4.6</ele>
        <time>1970-01-01T02:04:23Z</time>
      </trkpt>
      <trkpt lat="42.77109" lon="3.01819">
        <ele>4.8</ele>
        <time>1970-01-01T02:04:24Z</time>
      </trkpt>
      <trkpt lat="42.7711" lon="3.01825">
        <ele>4.8</ele>
        <time>1970-01-01T02:04:25Z</time>
      </trkpt>
      <trkpt lat="42.7711" lon="3.0183">
        <ele>5</ele>
        <time>1970-01-01T02:04:26Z</time>
      </trkpt>
      <trkpt lat="42.7711" lon="3.01836">
        <ele>5</ele>
        <time>1970-01-01T02:04:27Z</time>
      </trkpt>
      <trkpt lat="42.7711" lon="3.01842">
        <ele>5</ele>
        <time>1970-01-01T02:04:28Z</time>
      </trkpt>
      <trkpt lat="42.7711" lon="3.01848">
        <ele>5</ele>
        <time>1970-01-01T02:04:29Z</time>
      </trkpt>
      <trkpt lat="42.7711" lon="3.01854">
        <ele>5</ele>
        <time>1970-01-01T02:04:30Z</time>
      </trkpt>
      <trkpt lat="42.77111" lon="3.01861">
        <ele>5</ele>
        <time>1970-01-01T02:04:31Z</time>
      </trkpt>
      <trkpt lat="42.77111" lon="3.01867">
        <ele>5.2</ele>
        <time>1970-01-01T02:04:32Z</time>
      </trkpt>
      <trkpt lat="42.77111" lon="3.01874">
        <ele>5.2</ele>
        <time>1970-01-01T02:04:33Z</time>
      </trkpt>
      <trkpt lat="42.77112" lon="3.01881">
        <ele>5.2</ele>
        <time>1970-01-01T02:04:34Z</time>
      </trkpt>
      <trkpt lat="42.77112" lon="3.01887">
        <ele>5.2</ele>
        <time>1970-01-01T02:04:35Z</time>
      </trkpt>
      <trkpt lat="42.77112" lon="3.01894">
        <ele>5.2</ele>
        <time>1970-01-01T02:04:36Z</time>
      </trkpt>
      <trkpt lat="42.77113" lon="3.019">
        <ele>5.2</ele>
        <time>1970-01-01T02:04:37Z</time>
      </trkpt>
      <trkpt lat="42.77113" lon="3.01906">
        <ele>5.2</ele>
        <time>1970-01-01T02:04:38Z</time>
      </trkpt>
      <trkpt lat="42.77113" lon="3.01912">
        <ele>5.2</ele>
        <time>1970-01-01T02:04:39Z</time>
      </trkpt>
      <trkpt lat="42.77113" lon="3.01919">
        <ele>5.2</ele>
        <time>1970-01-01T02:04:40Z</time>
      </trkpt>
      <trkpt lat="42.77113" lon="3.01925">
        <ele>5.2</ele>
        <time>1970-01-01T02:04:41Z</time>
      </trkpt>
      <trkpt lat="42.77113" lon="3.01931">
        <ele>5.2</ele>
        <time>1970-01-01T02:04:42Z</time>
      </trkpt>
      <trkpt lat="42.77114" lon="3.01938">
        <ele>5.2</ele>
        <time>1970-01-01T02:04:43Z</time>
      </trkpt>
      <trkpt lat="42.77114" lon="3.01944">
        <ele>5.2</ele>
        <time>1970-01-01T02:04:44Z</time>
      </trkpt>
      <trkpt lat="42.77114" lon="3.01951">
        <ele>5.4</ele>
        <time>1970-01-01T02:04:45Z</time>
      </trkpt>
      <trkpt lat="42.77114" lon="3.01958">
        <ele>5.4</ele>
        <time>1970-01-01T02:04:46Z</time>
      </trkpt>
      <trkpt lat="42.77114" lon="3.01964">
        <ele>5.4</ele>
        <time>1970-01-01T02:04:47Z</time>
      </trkpt>
      <trkpt lat="42.77114" lon="3.01971">
        <ele>5.4</ele>
        <time>1970-01-01T02:04:48Z</time>
      </trkpt>
      <trkpt lat="42.77115" lon="3.01978">
        <ele>5.4</ele>
        <time>1970-01-01T02:04:49Z</time>
      </trkpt>
      <trkpt lat="42.77115" lon="3.01985">
        <ele>5.2</ele>
        <time>1970-01-01T02:04:50Z</time>
      </trkpt>
      <trkpt lat="42.77115" lon="3.01992">
        <ele>5.2</ele>
        <time>1970-01-01T02:04:51Z</time>
      </trkpt>
      <trkpt lat="42.77115" lon="3.01999">
        <ele>5.2</ele>
        <time>1970-01-01T02:04:52Z</time>
      </trkpt>
      <trkpt lat="42.77115" lon="3.02006">
        <ele>5.2</ele>
        <time>1970-01-01T02:04:53Z</time>
      </trkpt>
      <trkpt lat="42.77115" lon="3.02013">
        <ele>5.2</ele>
        <time>1970-01-01T02:04:54Z</time>
      </trkpt>
      <trkpt lat="42.77116" lon="3.0202">
        <ele>5.2</ele>
        <time>1970-01-01T02:04:55Z</time>
      </trkpt>
      <trkpt lat="42.77116" lon="3.02027">
        <ele>5.2</ele>
        <time>1970-01-01T02:04:56Z</time>
      </trkpt>
      <trkpt lat="42.77116" lon="3.02035">
        <ele>5.2</ele>
        <time>1970-01-01T02:04:57Z</time>
      </trkpt>
      <trkpt lat="42.77116" lon="3.02042">
        <ele>5.2</ele>
        <time>1970-01-01T02:04:58Z</time>
      </trkpt>
      <trkpt lat="42.77117" lon="3.0205">
        <ele>5.2</ele>
        <time>1970-01-01T02:04:59Z</time>
      </trkpt>
      <trkpt lat="42.77117" lon="3.02057">
        <ele>5.2</ele>
        <time>1970-01-01T02:05:00Z</time>
      </trkpt>
      <trkpt lat="42.77117" lon="3.02065">
        <ele>5.2</ele>
        <time>1970-01-01T02:05:01Z</time>
      </trkpt>
      <trkpt lat="42.77118" lon="3.02072">
        <ele>5.2</ele>
        <time>1970-01-01T02:05:02Z</time>
      </trkpt>
      <trkpt lat="42.77118" lon="3.0208">
        <ele>5.2</ele>
        <time>1970-01-01T02:05:03Z</time>
      </trkpt>
      <trkpt lat="42.77118" lon="3.02087">
        <ele>5.2</ele>
        <time>1970-01-01T02:05:04Z</time>
      </trkpt>
      <trkpt lat="42.77118" lon="3.02095">
        <ele>5.2</ele>
        <time>1970-01-01T02:05:05Z</time>
      </trkpt>
      <trkpt lat="42.77118" lon="3.02103">
        <ele>5.2</ele>
        <time>1970-01-01T02:05:06Z</time>
      </trkpt>
      <trkpt lat="42.77118" lon="3.02111">
        <ele>5.2</ele>
        <time>1970-01-01T02:05:07Z</time>
      </trkpt>
      <trkpt lat="42.77118" lon="3.02119">
        <ele>5.2</ele>
        <time>1970-01-01T02:05:08Z</time>
      </trkpt>
      <trkpt lat="42.77118" lon="3.02127">
        <ele>5.2</ele>
        <time>1970-01-01T02:05:09Z</time>
      </trkpt>
      <trkpt lat="42.77118" lon="3.02135">
        <ele>5.2</ele>
        <time>1970-01-01T02:05:10Z</time>
      </trkpt>
      <trkpt lat="42.77119" lon="3.02143">
        <ele>5.2</ele>
        <time>1970-01-01T02:05:11Z</time>
      </trkpt>
      <trkpt lat="42.77119" lon="3.02151">
        <ele>5.2</ele>
        <time>1970-01-01T02:05:12Z</time>
      </trkpt>
      <trkpt lat="42.77119" lon="3.02159">
        <ele>5.2</ele>
        <time>1970-01-01T02:05:13Z</time>
      </trkpt>
      <trkpt lat="42.77119" lon="3.02167">
        <ele>5.2</ele>
        <time>1970-01-01T02:05:14Z</time>
      </trkpt>
      <trkpt lat="42.77119" lon="3.02174">
        <ele>5.2</ele>
        <time>1970-01-01T02:05:15Z</time>
      </trkpt>
      <trkpt lat="42.7712" lon="3.02182">
        <ele>5.2</ele>
        <time>1970-01-01T02:05:16Z</time>
      </trkpt>
      <trkpt lat="42.7712" lon="3.0219">
        <ele>5.2</ele>
        <time>1970-01-01T02:05:17Z</time>
      </trkpt>
      <trkpt lat="42.7712" lon="3.02198">
        <ele>5.2</ele>
        <time>1970-01-01T02:05:18Z</time>
      </trkpt>
      <trkpt lat="42.7712" lon="3.02206">
        <ele>5.2</ele>
        <time>1970-01-01T02:05:19Z</time>
      </trkpt>
      <trkpt lat="42.77121" lon="3.02214">
        <ele>5.2</ele>
        <time>1970-01-01T02:05:20Z</time>
      </trkpt>
      <trkpt lat="42.77121" lon="3.02222">
        <ele>5.2</ele>
        <time>1970-01-01T02:05:21Z</time>
      </trkpt>
      <trkpt lat="42.77122" lon="3.0223">
        <ele>5.2</ele>
        <time>1970-01-01T02:05:22Z</time>
      </trkpt>
      <trkpt lat="42.77122" lon="3.02238">
        <ele>5.2</ele>
        <time>1970-01-01T02:05:23Z</time>
      </trkpt>
      <trkpt lat="42.77122" lon="3.02246">
        <ele>5.2</ele>
        <time>1970-01-01T02:05:24Z</time>
      </trkpt>
      <trkpt lat="42.77122" lon="3.02254">
        <ele>5.2</ele>
        <time>1970-01-01T02:05:25Z</time>
      </trkpt>
      <trkpt lat="42.77122" lon="3.02262">
        <ele>5.2</ele>
        <time>1970-01-01T02:05:26Z</time>
      </trkpt>
      <trkpt lat="42.77122" lon="3.02269">
        <ele>5.2</ele>
        <time>1970-01-01T02:05:27Z</time>
      </trkpt>
      <trkpt lat="42.77122" lon="3.02277">
        <ele>5.2</ele>
        <time>1970-01-01T02:05:28Z</time>
      </trkpt>
      <trkpt lat="42.77122" lon="3.02285">
        <ele>5.2</ele>
        <time>1970-01-01T02:05:29Z</time>
      </trkpt>
      <trkpt lat="42.77122" lon="3.02293">
        <ele>5.2</ele>
        <time>1970-01-01T02:05:30Z</time>
      </trkpt>
      <trkpt lat="42.77122" lon="3.02301">
        <ele>5.2</ele>
        <time>1970-01-01T02:05:31Z</time>
      </trkpt>
      <trkpt lat="42.77122" lon="3.02309">
        <ele>5.2</ele>
        <time>1970-01-01T02:05:32Z</time>
      </trkpt>
      <trkpt lat="42.77122" lon="3.02317">
        <ele>5.2</ele>
        <time>1970-01-01T02:05:33Z</time>
      </trkpt>
      <trkpt lat="42.77122" lon="3.02325">
        <ele>5.4</ele>
        <time>1970-01-01T02:05:34Z</time>
      </trkpt>
      <trkpt lat="42.77122" lon="3.02333">
        <ele>5.4</ele>
        <time>1970-01-01T02:05:35Z</time>
      </trkpt>
      <trkpt lat="42.77123" lon="3.02341">
        <ele>5.4</ele>
        <time>1970-01-01T02:05:36Z</time>
      </trkpt>
      <trkpt lat="42.77123" lon="3.02349">
        <ele>5.4</ele>
        <time>1970-01-01T02:05:37Z</time>
      </trkpt>
      <trkpt lat="42.77124" lon="3.02357">
        <ele>5.4</ele>
        <time>1970-01-01T02:05:38Z</time>
      </trkpt>
      <trkpt lat="42.77125" lon="3.02365">
        <ele>5.4</ele>
        <time>1970-01-01T02:05:39Z</time>
      </trkpt>
      <trkpt lat="42.77126" lon="3.02373">
        <ele>5.4</ele>
        <time>1970-01-01T02:05:40Z</time>
      </trkpt>
      <trkpt lat="42.77128" lon="3.02381">
        <ele>5.4</ele>
        <time>1970-01-01T02:05:41Z</time>
      </trkpt>
      <trkpt lat="42.77129" lon="3.02389">
        <ele>5.2</ele>
        <time>1970-01-01T02:05:42Z</time>
      </trkpt>
      <trkpt lat="42.77132" lon="3.02397">
        <ele>5.2</ele>
        <time>1970-01-01T02:05:43Z</time>
      </trkpt>
      <trkpt lat="42.77134" lon="3.02405">
        <ele>5.2</ele>
        <time>1970-01-01T02:05:44Z</time>
      </trkpt>
      <trkpt lat="42.77137" lon="3.02413">
        <ele>5.2</ele>
        <time>1970-01-01T02:05:45Z</time>
      </trkpt>
      <trkpt lat="42.77139" lon="3.02421">
        <ele>5.2</ele>
        <time>1970-01-01T02:05:46Z</time>
      </trkpt>
      <trkpt lat="42.77142" lon="3.02428">
        <ele>5.2</ele>
        <time>1970-01-01T02:05:47Z</time>
      </trkpt>
      <trkpt lat="42.77145" lon="3.02436">
        <ele>5.2</ele>
        <time>1970-01-01T02:05:48Z</time>
      </trkpt>
      <trkpt lat="42.77147" lon="3.02444">
        <ele>5.2</ele>
        <time>1970-01-01T02:05:49Z</time>
      </trkpt>
      <trkpt lat="42.7715" lon="3.02452">
        <ele>5.2</ele>
        <time>1970-01-01T02:05:50Z</time>
      </trkpt>
      <trkpt lat="42.77153" lon="3.0246">
        <ele>5</ele>
        <time>1970-01-01T02:05:51Z</time>
      </trkpt>
      <trkpt lat="42.77155" lon="3.02468">
        <ele>5</ele>
        <time>1970-01-01T02:05:52Z</time>
      </trkpt>
      <trkpt lat="42.77158" lon="3.02476">
        <ele>5</ele>
        <time>1970-01-01T02:05:53Z</time>
      </trkpt>
      <trkpt lat="42.7716" lon="3.02484">
        <ele>5</ele>
        <time>1970-01-01T02:05:54Z</time>
      </trkpt>
      <trkpt lat="42.77163" lon="3.02492">
        <ele>5</ele>
        <time>1970-01-01T02:05:55Z</time>
      </trkpt>
      <trkpt lat="42.77166" lon="3.025">
        <ele>5</ele>
        <time>1970-01-01T02:05:56Z</time>
      </trkpt>
      <trkpt lat="42.77169" lon="3.02508">
        <ele>5</ele>
        <time>1970-01-01T02:05:57Z</time>
      </trkpt>
      <trkpt lat="42.77172" lon="3.02515">
        <ele>5</ele>
        <time>1970-01-01T02:05:58Z</time>
      </trkpt>
      <trkpt lat="42.77176" lon="3.02523">
        <ele>5</ele>
        <time>1970-01-01T02:05:59Z</time>
      </trkpt>
      <trkpt lat="42.7718" lon="3.02531">
        <ele>5</ele>
        <time>1970-01-01T02:06:00Z</time>
      </trkpt>
      <trkpt lat="42.77183" lon="3.02539">
        <ele>4.8</ele>
        <time>1970-01-01T02:06:01Z</time>
      </trkpt>
      <trkpt lat="42.77188" lon="3.02546">
        <ele>4.8</ele>
        <time>1970-01-01T02:06:02Z</time>
      </trkpt>
      <trkpt lat="42.77192" lon="3.02553">
        <ele>4.8</ele>
        <time>1970-01-01T02:06:03Z</time>
      </trkpt>
      <trkpt lat="42.77197" lon="3.0256">
        <ele>4.8</ele>
        <time>1970-01-01T02:06:04Z</time>
      </trkpt>
      <trkpt lat="42.77202" lon="3.02565">
        <ele>4.6</ele>
        <time>1970-01-01T02:06:05Z</time>
      </trkpt>
      <trkpt lat="42.77207" lon="3.02571">
        <ele>4.6</ele>
        <time>1970-01-01T02:06:06Z</time>
      </trkpt>
      <trkpt lat="42.77212" lon="3.02577">
        <ele>4.6</ele>
        <time>1970-01-01T02:06:07Z</time>
      </trkpt>
      <trkpt lat="42.77217" lon="3.02583">
        <ele>4.6</ele>
        <time>1970-01-01T02:06:08Z</time>
      </trkpt>
      <trkpt lat="42.77222" lon="3.02589">
        <ele>4.6</ele>
        <time>1970-01-01T02:06:09Z</time>
      </trkpt>
      <trkpt lat="42.77227" lon="3.02596">
        <ele>4.6</ele>
        <time>1970-01-01T02:06:10Z</time>
      </trkpt>
      <trkpt lat="42.77231" lon="3.02603">
        <ele>4.6</ele>
        <time>1970-01-01T02:06:11Z</time>
      </trkpt>
      <trkpt lat="42.77236" lon="3.02609">
        <ele>4.6</ele>
        <time>1970-01-01T02:06:12Z</time>
      </trkpt>
      <trkpt lat="42.77241" lon="3.02615">
        <ele>4.6</ele>
        <time>1970-01-01T02:06:13Z</time>
      </trkpt>
      <trkpt lat="42.77246" lon="3.02621">
        <ele>4.6</ele>
        <time>1970-01-01T02:06:14Z</time>
      </trkpt>
      <trkpt lat="42.77251" lon="3.02626">
        <ele>4.6</ele>
        <time>1970-01-01T02:06:15Z</time>
      </trkpt>
      <trkpt lat="42.77256" lon="3.02632">
        <ele>4.6</ele>
        <time>1970-01-01T02:06:16Z</time>
      </trkpt>
      <trkpt lat="42.77261" lon="3.02638">
        <ele>4.6</ele>
        <time>1970-01-01T02:06:17Z</time>
      </trkpt>
      <trkpt lat="42.77267" lon="3.02643">
        <ele>4.6</ele>
        <time>1970-01-01T02:06:18Z</time>
      </trkpt>
      <trkpt lat="42.77272" lon="3.02649">
        <ele>4.6</ele>
        <time>1970-01-01T02:06:19Z</time>
      </trkpt>
      <trkpt lat="42.77277" lon="3.02654">
        <ele>4.6</ele>
        <time>1970-01-01T02:06:20Z</time>
      </trkpt>
      <trkpt lat="42.77282" lon="3.02659">
        <ele>4.6</ele>
        <time>1970-01-01T02:06:21Z</time>
      </trkpt>
      <trkpt lat="42.77287" lon="3.02665">
        <ele>4.6</ele>
        <time>1970-01-01T02:06:22Z</time>
      </trkpt>
      <trkpt lat="42.77292" lon="3.0267">
        <ele>4.6</ele>
        <time>1970-01-01T02:06:23Z</time>
      </trkpt>
      <trkpt lat="42.77297" lon="3.02675">
        <ele>4.6</ele>
        <time>1970-01-01T02:06:24Z</time>
      </trkpt>
      <trkpt lat="42.77302" lon="3.0268">
        <ele>4.6</ele>
        <time>1970-01-01T02:06:25Z</time>
      </trkpt>
      <trkpt lat="42.77307" lon="3.02685">
        <ele>4.4</ele>
        <time>1970-01-01T02:06:26Z</time>
      </trkpt>
      <trkpt lat="42.77313" lon="3.0269">
        <ele>4.4</ele>
        <time>1970-01-01T02:06:27Z</time>
      </trkpt>
      <trkpt lat="42.77318" lon="3.02695">
        <ele>4.4</ele>
        <time>1970-01-01T02:06:28Z</time>
      </trkpt>
      <trkpt lat="42.77323" lon="3.027">
        <ele>4.4</ele>
        <time>1970-01-01T02:06:29Z</time>
      </trkpt>
      <trkpt lat="42.77329" lon="3.02705">
        <ele>4.4</ele>
        <time>1970-01-01T02:06:30Z</time>
      </trkpt>
      <trkpt lat="42.77334" lon="3.0271">
        <ele>4.4</ele>
        <time>1970-01-01T02:06:31Z</time>
      </trkpt>
      <trkpt lat="42.77339" lon="3.02715">
        <ele>4.4</ele>
        <time>1970-01-01T02:06:32Z</time>
      </trkpt>
      <trkpt lat="42.77345" lon="3.0272">
        <ele>4.4</ele>
        <time>1970-01-01T02:06:33Z</time>
      </trkpt>
      <trkpt lat="42.7735" lon="3.02726">
        <ele>4.4</ele>
        <time>1970-01-01T02:06:34Z</time>
      </trkpt>
      <trkpt lat="42.77356" lon="3.02731">
        <ele>4.4</ele>
        <time>1970-01-01T02:06:35Z</time>
      </trkpt>
      <trkpt lat="42.77361" lon="3.02736">
        <ele>4.4</ele>
        <time>1970-01-01T02:06:36Z</time>
      </trkpt>
      <trkpt lat="42.77366" lon="3.02741">
        <ele>4.4</ele>
        <time>1970-01-01T02:06:37Z</time>
      </trkpt>
      <trkpt lat="42.77371" lon="3.02746">
        <ele>4.4</ele>
        <time>1970-01-01T02:06:38Z</time>
      </trkpt>
      <trkpt lat="42.77377" lon="3.02751">
        <ele>4.4</ele>
        <time>1970-01-01T02:06:39Z</time>
      </trkpt>
      <trkpt lat="42.77381" lon="3.02755">
        <ele>4.4</ele>
        <time>1970-01-01T02:06:40Z</time>
      </trkpt>
      <trkpt lat="42.77386" lon="3.02759">
        <ele>4.4</ele>
        <time>1970-01-01T02:06:41Z</time>
      </trkpt>
      <trkpt lat="42.77391" lon="3.02764">
        <ele>4.4</ele>
        <time>1970-01-01T02:06:42Z</time>
      </trkpt>
      <trkpt lat="42.77395" lon="3.02768">
        <ele>4.4</ele>
        <time>1970-01-01T02:06:43Z</time>
      </trkpt>
      <trkpt lat="42.774" lon="3.02773">
        <ele>4.4</ele>
        <time>1970-01-01T02:06:44Z</time>
      </trkpt>
      <trkpt lat="42.77404" lon="3.02778">
        <ele>4.4</ele>
        <time>1970-01-01T02:06:45Z</time>
      </trkpt>
      <trkpt lat="42.77409" lon="3.02783">
        <ele>4.4</ele>
        <time>1970-01-01T02:06:46Z</time>
      </trkpt>
      <trkpt lat="42.77414" lon="3.02788">
        <ele>4.4</ele>
        <time>1970-01-01T02:06:47Z</time>
      </trkpt>
      <trkpt lat="42.77419" lon="3.02792">
        <ele>4.4</ele>
        <time>1970-01-01T02:06:48Z</time>
      </trkpt>
      <trkpt lat="42.77425" lon="3.02797">
        <ele>4.4</ele>
        <time>1970-01-01T02:06:49Z</time>
      </trkpt>
      <trkpt lat="42.7743" lon="3.02801">
        <ele>4.4</ele>
        <time>1970-01-01T02:06:50Z</time>
      </trkpt>
      <trkpt lat="42.77434" lon="3.02806">
        <ele>4.4</ele>
        <time>1970-01-01T02:06:51Z</time>
      </trkpt>
      <trkpt lat="42.77439" lon="3.02811">
        <ele>4.4</ele>
        <time>1970-01-01T02:06:52Z</time>
      </trkpt>
      <trkpt lat="42.77444" lon="3.02815">
        <ele>4.4</ele>
        <time>1970-01-01T02:06:53Z</time>
      </trkpt>
      <trkpt lat="42.77449" lon="3.0282">
        <ele>4.4</ele>
        <time>1970-01-01T02:06:54Z</time>
      </trkpt>
      <trkpt lat="42.77454" lon="3.02825">
        <ele>4.4</ele>
        <time>1970-01-01T02:06:55Z</time>
      </trkpt>
      <trkpt lat="42.77459" lon="3.0283">
        <ele>4.4</ele>
        <time>1970-01-01T02:06:56Z</time>
      </trkpt>
      <trkpt lat="42.77464" lon="3.02834">
        <ele>4.4</ele>
        <time>1970-01-01T02:06:57Z</time>
      </trkpt>
      <trkpt lat="42.77469" lon="3.02839">
        <ele>4.2</ele>
        <time>1970-01-01T02:06:58Z</time>
      </trkpt>
      <trkpt lat="42.77474" lon="3.02843">
        <ele>4.2</ele>
        <time>1970-01-01T02:06:59Z</time>
      </trkpt>
      <trkpt lat="42.77478" lon="3.02848">
        <ele>4.2</ele>
        <time>1970-01-01T02:07:00Z</time>
      </trkpt>
      <trkpt lat="42.77483" lon="3.02853">
        <ele>4.2</ele>
        <time>1970-01-01T02:07:01Z</time>
      </trkpt>
      <trkpt lat="42.77488" lon="3.02858">
        <ele>4.2</ele>
        <time>1970-01-01T02:07:02Z</time>
      </trkpt>
      <trkpt lat="42.77493" lon="3.02862">
        <ele>4.2</ele>
        <time>1970-01-01T02:07:03Z</time>
      </trkpt>
      <trkpt lat="42.77498" lon="3.02867">
        <ele>4.2</ele>
        <time>1970-01-01T02:07:04Z</time>
      </trkpt>
      <trkpt lat="42.77503" lon="3.02871">
        <ele>4.2</ele>
        <time>1970-01-01T02:07:05Z</time>
      </trkpt>
      <trkpt lat="42.77508" lon="3.02876">
        <ele>4.2</ele>
        <time>1970-01-01T02:07:06Z</time>
      </trkpt>
      <trkpt lat="42.77513" lon="3.0288">
        <ele>4.2</ele>
        <time>1970-01-01T02:07:07Z</time>
      </trkpt>
      <trkpt lat="42.77518" lon="3.02885">
        <ele>4.2</ele>
        <time>1970-01-01T02:07:08Z</time>
      </trkpt>
      <trkpt lat="42.77523" lon="3.02889">
        <ele>4.2</ele>
        <time>1970-01-01T02:07:09Z</time>
      </trkpt>
      <trkpt lat="42.77527" lon="3.02894">
        <ele>4.4</ele>
        <time>1970-01-01T02:07:10Z</time>
      </trkpt>
      <trkpt lat="42.77532" lon="3.02898">
        <ele>4.4</ele>
        <time>1970-01-01T02:07:11Z</time>
      </trkpt>
      <trkpt lat="42.77536" lon="3.02903">
        <ele>4.4</ele>
        <time>1970-01-01T02:07:12Z</time>
      </trkpt>
      <trkpt lat="42.77541" lon="3.02907">
        <ele>4.4</ele>
        <time>1970-01-01T02:07:13Z</time>
      </trkpt>
      <trkpt lat="42.77545" lon="3.02911">
        <ele>4.4</ele>
        <time>1970-01-01T02:07:14Z</time>
      </trkpt>
      <trkpt lat="42.77549" lon="3.02915">
        <ele>4.4</ele>
        <time>1970-01-01T02:07:15Z</time>
      </trkpt>
      <trkpt lat="42.77553" lon="3.02919">
        <ele>4.4</ele>
        <time>1970-01-01T02:07:16Z</time>
      </trkpt>
      <trkpt lat="42.77558" lon="3.02923">
        <ele>4.4</ele>
        <time>1970-01-01T02:07:17Z</time>
      </trkpt>
      <trkpt lat="42.77562" lon="3.02927">
        <ele>4.4</ele>
        <time>1970-01-01T02:07:18Z</time>
      </trkpt>
      <trkpt lat="42.77566" lon="3.02931">
        <ele>4.4</ele>
        <time>1970-01-01T02:07:19Z</time>
      </trkpt>
      <trkpt lat="42.77571" lon="3.02936">
        <ele>4.2</ele>
        <time>1970-01-01T02:07:20Z</time>
      </trkpt>
      <trkpt lat="42.77575" lon="3.02941">
        <ele>4.2</ele>
        <time>1970-01-01T02:07:21Z</time>
      </trkpt>
      <trkpt lat="42.7758" lon="3.02945">
        <ele>4.2</ele>
        <time>1970-01-01T02:07:22Z</time>
      </trkpt>
      <trkpt lat="42.77585" lon="3.0295">
        <ele>4.2</ele>
        <time>1970-01-01T02:07:23Z</time>
      </trkpt>
      <trkpt lat="42.7759" lon="3.02954">
        <ele>4.2</ele>
        <time>1970-01-01T02:07:24Z</time>
      </trkpt>
      <trkpt lat="42.77596" lon="3.02959">
        <ele>4.2</ele>
        <time>1970-01-01T02:07:25Z</time>
      </trkpt>
      <trkpt lat="42.77601" lon="3.02964">
        <ele>4</ele>
        <time>1970-01-01T02:07:26Z</time>
      </trkpt>
      <trkpt lat="42.77606" lon="3.02969">
        <ele>4</ele>
        <time>1970-01-01T02:07:27Z</time>
      </trkpt>
      <trkpt lat="42.77611" lon="3.02974">
        <ele>4</ele>
        <time>1970-01-01T02:07:28Z</time>
      </trkpt>
      <trkpt lat="42.77616" lon="3.02979">
        <ele>4</ele>
        <time>1970-01-01T02:07:29Z</time>
      </trkpt>
      <trkpt lat="42.77621" lon="3.02984">
        <ele>4</ele>
        <time>1970-01-01T02:07:30Z</time>
      </trkpt>
      <trkpt lat="42.77626" lon="3.02989">
        <ele>4</ele>
        <time>1970-01-01T02:07:31Z</time>
      </trkpt>
      <trkpt lat="42.77631" lon="3.02994">
        <ele>4</ele>
        <time>1970-01-01T02:07:32Z</time>
      </trkpt>
      <trkpt lat="42.77636" lon="3.02999">
        <ele>4</ele>
        <time>1970-01-01T02:07:33Z</time>
      </trkpt>
      <trkpt lat="42.77641" lon="3.03003">
        <ele>4</ele>
        <time>1970-01-01T02:07:34Z</time>
      </trkpt>
      <trkpt lat="42.77646" lon="3.03008">
        <ele>4</ele>
        <time>1970-01-01T02:07:35Z</time>
      </trkpt>
      <trkpt lat="42.77651" lon="3.03014">
        <ele>4</ele>
        <time>1970-01-01T02:07:36Z</time>
      </trkpt>
      <trkpt lat="42.77657" lon="3.03019">
        <ele>4</ele>
        <time>1970-01-01T02:07:37Z</time>
      </trkpt>
      <trkpt lat="42.77662" lon="3.03024">
        <ele>4</ele>
        <time>1970-01-01T02:07:38Z</time>
      </trkpt>
      <trkpt lat="42.77668" lon="3.03029">
        <ele>4</ele>
        <time>1970-01-01T02:07:39Z</time>
      </trkpt>
      <trkpt lat="42.77673" lon="3.03034">
        <ele>4</ele>
        <time>1970-01-01T02:07:40Z</time>
      </trkpt>
      <trkpt lat="42.77678" lon="3.03039">
        <ele>4</ele>
        <time>1970-01-01T02:07:41Z</time>
      </trkpt>
      <trkpt lat="42.77684" lon="3.03044">
        <ele>4</ele>
        <time>1970-01-01T02:07:42Z</time>
      </trkpt>
      <trkpt lat="42.77689" lon="3.03049">
        <ele>4</ele>
        <time>1970-01-01T02:07:43Z</time>
      </trkpt>
      <trkpt lat="42.77694" lon="3.03054">
        <ele>4</ele>
        <time>1970-01-01T02:07:44Z</time>
      </trkpt>
      <trkpt lat="42.77699" lon="3.0306">
        <ele>4</ele>
        <time>1970-01-01T02:07:45Z</time>
      </trkpt>
      <trkpt lat="42.77704" lon="3.03065">
        <ele>4</ele>
        <time>1970-01-01T02:07:46Z</time>
      </trkpt>
      <trkpt lat="42.77709" lon="3.0307">
        <ele>4</ele>
        <time>1970-01-01T02:07:47Z</time>
      </trkpt>
      <trkpt lat="42.77714" lon="3.03075">
        <ele>4</ele>
        <time>1970-01-01T02:07:48Z</time>
      </trkpt>
      <trkpt lat="42.77719" lon="3.0308">
        <ele>4</ele>
        <time>1970-01-01T02:07:49Z</time>
      </trkpt>
      <trkpt lat="42.77724" lon="3.03085">
        <ele>4</ele>
        <time>1970-01-01T02:07:50Z</time>
      </trkpt>
      <trkpt lat="42.77728" lon="3.0309">
        <ele>4</ele>
        <time>1970-01-01T02:07:51Z</time>
      </trkpt>
      <trkpt lat="42.77732" lon="3.03095">
        <ele>4</ele>
        <time>1970-01-01T02:07:52Z</time>
      </trkpt>
      <trkpt lat="42.77737" lon="3.03099">
        <ele>4</ele>
        <time>1970-01-01T02:07:53Z</time>
      </trkpt>
      <trkpt lat="42.77741" lon="3.03104">
        <ele>4</ele>
        <time>1970-01-01T02:07:54Z</time>
      </trkpt>
      <trkpt lat="42.77745" lon="3.03109">
        <ele>3.8</ele>
        <time>1970-01-01T02:07:55Z</time>
      </trkpt>
      <trkpt lat="42.7775" lon="3.03114">
        <ele>3.8</ele>
        <time>1970-01-01T02:07:56Z</time>
      </trkpt>
      <trkpt lat="42.77755" lon="3.03119">
        <ele>3.8</ele>
        <time>1970-01-01T02:07:57Z</time>
      </trkpt>
      <trkpt lat="42.77759" lon="3.03125">
        <ele>3.8</ele>
        <time>1970-01-01T02:07:58Z</time>
      </trkpt>
      <trkpt lat="42.77763" lon="3.03129">
        <ele>3.8</ele>
        <time>1970-01-01T02:07:59Z</time>
      </trkpt>
      <trkpt lat="42.77767" lon="3.03134">
        <ele>3.8</ele>
        <time>1970-01-01T02:08:00Z</time>
      </trkpt>
      <trkpt lat="42.77771" lon="3.03139">
        <ele>3.8</ele>
        <time>1970-01-01T02:08:01Z</time>
      </trkpt>
      <trkpt lat="42.77775" lon="3.03143">
        <ele>3.8</ele>
        <time>1970-01-01T02:08:02Z</time>
      </trkpt>
      <trkpt lat="42.77779" lon="3.03148">
        <ele>3.8</ele>
        <time>1970-01-01T02:08:03Z</time>
      </trkpt>
      <trkpt lat="42.77783" lon="3.03153">
        <ele>3.8</ele>
        <time>1970-01-01T02:08:04Z</time>
      </trkpt>
      <trkpt lat="42.77787" lon="3.03158">
        <ele>3.6</ele>
        <time>1970-01-01T02:08:05Z</time>
      </trkpt>
      <trkpt lat="42.77791" lon="3.03162">
        <ele>3.6</ele>
        <time>1970-01-01T02:08:06Z</time>
      </trkpt>
      <trkpt lat="42.77796" lon="3.03167">
        <ele>3.6</ele>
        <time>1970-01-01T02:08:07Z</time>
      </trkpt>
      <trkpt lat="42.778" lon="3.03173">
        <ele>3.6</ele>
        <time>1970-01-01T02:08:08Z</time>
      </trkpt>
      <trkpt lat="42.77803" lon="3.03179">
        <ele>3.6</ele>
        <time>1970-01-01T02:08:09Z</time>
      </trkpt>
      <trkpt lat="42.77806" lon="3.03186">
        <ele>3.6</ele>
        <time>1970-01-01T02:08:10Z</time>
      </trkpt>
      <trkpt lat="42.7781" lon="3.03192">
        <ele>3.6</ele>
        <time>1970-01-01T02:08:11Z</time>
      </trkpt>
      <trkpt lat="42.77813" lon="3.03198">
        <ele>3.6</ele>
        <time>1970-01-01T02:08:12Z</time>
      </trkpt>
      <trkpt lat="42.77817" lon="3.03204">
        <ele>3.6</ele>
        <time>1970-01-01T02:08:13Z</time>
      </trkpt>
      <trkpt lat="42.77821" lon="3.0321">
        <ele>3.6</ele>
        <time>1970-01-01T02:08:14Z</time>
      </trkpt>
      <trkpt lat="42.77825" lon="3.03216">
        <ele>3.6</ele>
        <time>1970-01-01T02:08:15Z</time>
      </trkpt>
      <trkpt lat="42.77828" lon="3.03222">
        <ele>3.6</ele>
        <time>1970-01-01T02:08:16Z</time>
      </trkpt>
      <trkpt lat="42.77832" lon="3.03228">
        <ele>3.6</ele>
        <time>1970-01-01T02:08:17Z</time>
      </trkpt>
      <trkpt lat="42.77835" lon="3.03234">
        <ele>3.6</ele>
        <time>1970-01-01T02:08:18Z</time>
      </trkpt>
      <trkpt lat="42.77839" lon="3.0324">
        <ele>3.6</ele>
        <time>1970-01-01T02:08:19Z</time>
      </trkpt>
      <trkpt lat="42.77842" lon="3.03245">
        <ele>3.6</ele>
        <time>1970-01-01T02:08:20Z</time>
      </trkpt>
      <trkpt lat="42.77844" lon="3.03251">
        <ele>3.6</ele>
        <time>1970-01-01T02:08:21Z</time>
      </trkpt>
      <trkpt lat="42.77847" lon="3.03257">
        <ele>3.6</ele>
        <time>1970-01-01T02:08:22Z</time>
      </trkpt>
      <trkpt lat="42.7785" lon="3.03262">
        <ele>3.6</ele>
        <time>1970-01-01T02:08:23Z</time>
      </trkpt>
      <trkpt lat="42.77853" lon="3.03268">
        <ele>3.8</ele>
        <time>1970-01-01T02:08:24Z</time>
      </trkpt>
      <trkpt lat="42.77855" lon="3.03273">
        <ele>3.8</ele>
        <time>1970-01-01T02:08:25Z</time>
      </trkpt>
      <trkpt lat="42.77858" lon="3.03278">
        <ele>3.8</ele>
        <time>1970-01-01T02:08:26Z</time>
      </trkpt>
      <trkpt lat="42.7786" lon="3.03283">
        <ele>3.8</ele>
        <time>1970-01-01T02:08:27Z</time>
      </trkpt>
      <trkpt lat="42.77863" lon="3.03289">
        <ele>3.8</ele>
        <time>1970-01-01T02:08:28Z</time>
      </trkpt>
      <trkpt lat="42.77865" lon="3.03294">
        <ele>3.8</ele>
        <time>1970-01-01T02:08:29Z</time>
      </trkpt>
      <trkpt lat="42.77868" lon="3.033">
        <ele>3.8</ele>
        <time>1970-01-01T02:08:30Z</time>
      </trkpt>
      <trkpt lat="42.77871" lon="3.03307">
        <ele>3.8</ele>
        <time>1970-01-01T02:08:31Z</time>
      </trkpt>
      <trkpt lat="42.77873" lon="3.03312">
        <ele>3.8</ele>
        <time>1970-01-01T02:08:32Z</time>
      </trkpt>
      <trkpt lat="42.77876" lon="3.03318">
        <ele>3.8</ele>
        <time>1970-01-01T02:08:33Z</time>
      </trkpt>
      <trkpt lat="42.77878" lon="3.03323">
        <ele>3.8</ele>
        <time>1970-01-01T02:08:34Z</time>
      </trkpt>
      <trkpt lat="42.7788" lon="3.03328">
        <ele>3.8</ele>
        <time>1970-01-01T02:08:35Z</time>
      </trkpt>
      <trkpt lat="42.77882" lon="3.03333">
        <ele>3.8</ele>
        <time>1970-01-01T02:08:36Z</time>
      </trkpt>
      <trkpt lat="42.77884" lon="3.03339">
        <ele>3.8</ele>
        <time>1970-01-01T02:08:37Z</time>
      </trkpt>
      <trkpt lat="42.77887" lon="3.03344">
        <ele>3.8</ele>
        <time>1970-01-01T02:08:38Z</time>
      </trkpt>
      <trkpt lat="42.77889" lon="3.0335">
        <ele>3.8</ele>
        <time>1970-01-01T02:08:39Z</time>
      </trkpt>
      <trkpt lat="42.77892" lon="3.03356">
        <ele>3.8</ele>
        <time>1970-01-01T02:08:40Z</time>
      </trkpt>
      <trkpt lat="42.77894" lon="3.03362">
        <ele>3.8</ele>
        <time>1970-01-01T02:08:41Z</time>
      </trkpt>
      <trkpt lat="42.77897" lon="3.03369">
        <ele>3.8</ele>
        <time>1970-01-01T02:08:42Z</time>
      </trkpt>
      <trkpt lat="42.77899" lon="3.03375">
        <ele>3.8</ele>
        <time>1970-01-01T02:08:43Z</time>
      </trkpt>
      <trkpt lat="42.77901" lon="3.03382">
        <ele>3.8</ele>
        <time>1970-01-01T02:08:44Z</time>
      </trkpt>
      <trkpt lat="42.77903" lon="3.03388">
        <ele>3.8</ele>
        <time>1970-01-01T02:08:45Z</time>
      </trkpt>
      <trkpt lat="42.77906" lon="3.03395">
        <ele>3.8</ele>
        <time>1970-01-01T02:08:46Z</time>
      </trkpt>
      <trkpt lat="42.77908" lon="3.03401">
        <ele>3.8</ele>
        <time>1970-01-01T02:08:47Z</time>
      </trkpt>
      <trkpt lat="42.7791" lon="3.03407">
        <ele>3.8</ele>
        <time>1970-01-01T02:08:48Z</time>
      </trkpt>
      <trkpt lat="42.77912" lon="3.03413">
        <ele>3.8</ele>
        <time>1970-01-01T02:08:49Z</time>
      </trkpt>
      <trkpt lat="42.77914" lon="3.03419">
        <ele>3.8</ele>
        <time>1970-01-01T02:08:50Z</time>
      </trkpt>
      <trkpt lat="42.77916" lon="3.03425">
        <ele>3.8</ele>
        <time>1970-01-01T02:08:51Z</time>
      </trkpt>
      <trkpt lat="42.77918" lon="3.03431">
        <ele>3.8</ele>
        <time>1970-01-01T02:08:52Z</time>
      </trkpt>
      <trkpt lat="42.77919" lon="3.03438">
        <ele>3.8</ele>
        <time>1970-01-01T02:08:53Z</time>
      </trkpt>
      <trkpt lat="42.77921" lon="3.03444">
        <ele>3.8</ele>
        <time>1970-01-01T02:08:54Z</time>
      </trkpt>
      <trkpt lat="42.77923" lon="3.03451">
        <ele>3.8</ele>
        <time>1970-01-01T02:08:55Z</time>
      </trkpt>
      <trkpt lat="42.77924" lon="3.03457">
        <ele>3.8</ele>
        <time>1970-01-01T02:08:56Z</time>
      </trkpt>
      <trkpt lat="42.77926" lon="3.03464">
        <ele>3.8</ele>
        <time>1970-01-01T02:08:57Z</time>
      </trkpt>
      <trkpt lat="42.77928" lon="3.0347">
        <ele>3.8</ele>
        <time>1970-01-01T02:08:58Z</time>
      </trkpt>
      <trkpt lat="42.7793" lon="3.03477">
        <ele>3.8</ele>
        <time>1970-01-01T02:08:59Z</time>
      </trkpt>
      <trkpt lat="42.77932" lon="3.03483">
        <ele>3.8</ele>
        <time>1970-01-01T02:09:00Z</time>
      </trkpt>
      <trkpt lat="42.77934" lon="3.0349">
        <ele>4</ele>
        <time>1970-01-01T02:09:01Z</time>
      </trkpt>
      <trkpt lat="42.77936" lon="3.03496">
        <ele>4</ele>
        <time>1970-01-01T02:09:02Z</time>
      </trkpt>
      <trkpt lat="42.77938" lon="3.03503">
        <ele>4</ele>
        <time>1970-01-01T02:09:03Z</time>
      </trkpt>
      <trkpt lat="42.7794" lon="3.0351">
        <ele>4</ele>
        <time>1970-01-01T02:09:04Z</time>
      </trkpt>
      <trkpt lat="42.77942" lon="3.03516">
        <ele>4</ele>
        <time>1970-01-01T02:09:05Z</time>
      </trkpt>
      <trkpt lat="42.77944" lon="3.03523">
        <ele>4</ele>
        <time>1970-01-01T02:09:06Z</time>
      </trkpt>
      <trkpt lat="42.77945" lon="3.03529">
        <ele>4</ele>
        <time>1970-01-01T02:09:07Z</time>
      </trkpt>
      <trkpt lat="42.77947" lon="3.03535">
        <ele>4</ele>
        <time>1970-01-01T02:09:08Z</time>
      </trkpt>
      <trkpt lat="42.77949" lon="3.03541">
        <ele>4</ele>
        <time>1970-01-01T02:09:09Z</time>
      </trkpt>
      <trkpt lat="42.77951" lon="3.03546">
        <ele>4</ele>
        <time>1970-01-01T02:09:10Z</time>
      </trkpt>
      <trkpt lat="42.77953" lon="3.03551">
        <ele>4</ele>
        <time>1970-01-01T02:09:11Z</time>
      </trkpt>
      <trkpt lat="42.77955" lon="3.03557">
        <ele>4</ele>
        <time>1970-01-01T02:09:12Z</time>
      </trkpt>
      <trkpt lat="42.77956" lon="3.03562">
        <ele>4</ele>
        <time>1970-01-01T02:09:13Z</time>
      </trkpt>
      <trkpt lat="42.77958" lon="3.03568">
        <ele>4</ele>
        <time>1970-01-01T02:09:14Z</time>
      </trkpt>
      <trkpt lat="42.7796" lon="3.03573">
        <ele>4</ele>
        <time>1970-01-01T02:09:15Z</time>
      </trkpt>
      <trkpt lat="42.77962" lon="3.03579">
        <ele>4</ele>
        <time>1970-01-01T02:09:16Z</time>
      </trkpt>
      <trkpt lat="42.77964" lon="3.03585">
        <ele>4</ele>
        <time>1970-01-01T02:09:17Z</time>
      </trkpt>
      <trkpt lat="42.77966" lon="3.03592">
        <ele>4</ele>
        <time>1970-01-01T02:09:18Z</time>
      </trkpt>
      <trkpt lat="42.77968" lon="3.03598">
        <ele>4</ele>
        <time>1970-01-01T02:09:19Z</time>
      </trkpt>
      <trkpt lat="42.7797" lon="3.03604">
        <ele>4</ele>
        <time>1970-01-01T02:09:20Z</time>
      </trkpt>
      <trkpt lat="42.77972" lon="3.0361">
        <ele>4</ele>
        <time>1970-01-01T02:09:21Z</time>
      </trkpt>
      <trkpt lat="42.77974" lon="3.03616">
        <ele>4</ele>
        <time>1970-01-01T02:09:22Z</time>
      </trkpt>
      <trkpt lat="42.77976" lon="3.03622">
        <ele>4</ele>
        <time>1970-01-01T02:09:23Z</time>
      </trkpt>
      <trkpt lat="42.77978" lon="3.03627">
        <ele>4</ele>
        <time>1970-01-01T02:09:24Z</time>
      </trkpt>
      <trkpt lat="42.7798" lon="3.03633">
        <ele>4</ele>
        <time>1970-01-01T02:09:25Z</time>
      </trkpt>
      <trkpt lat="42.77981" lon="3.03639">
        <ele>4</ele>
        <time>1970-01-01T02:09:26Z</time>
      </trkpt>
      <trkpt lat="42.77983" lon="3.03644">
        <ele>4</ele>
        <time>1970-01-01T02:09:27Z</time>
      </trkpt>
      <trkpt lat="42.77985" lon="3.0365">
        <ele>4</ele>
        <time>1970-01-01T02:09:28Z</time>
      </trkpt>
      <trkpt lat="42.77986" lon="3.03656">
        <ele>4</ele>
        <time>1970-01-01T02:09:29Z</time>
      </trkpt>
      <trkpt lat="42.77988" lon="3.03662">
        <ele>4</ele>
        <time>1970-01-01T02:09:30Z</time>
      </trkpt>
      <trkpt lat="42.77989" lon="3.03667">
        <ele>4</ele>
        <time>1970-01-01T02:09:31Z</time>
      </trkpt>
      <trkpt lat="42.77991" lon="3.03672">
        <ele>4</ele>
        <time>1970-01-01T02:09:32Z</time>
      </trkpt>
      <trkpt lat="42.77992" lon="3.03676">
        <ele>4</ele>
        <time>1970-01-01T02:09:33Z</time>
      </trkpt>
      <trkpt lat="42.77994" lon="3.03681">
        <ele>4</ele>
        <time>1970-01-01T02:09:34Z</time>
      </trkpt>
      <trkpt lat="42.77996" lon="3.03686">
        <ele>4</ele>
        <time>1970-01-01T02:09:35Z</time>
      </trkpt>
      <trkpt lat="42.77998" lon="3.03692">
        <ele>4</ele>
        <time>1970-01-01T02:09:36Z</time>
      </trkpt>
      <trkpt lat="42.78" lon="3.03697">
        <ele>4</ele>
        <time>1970-01-01T02:09:37Z</time>
      </trkpt>
      <trkpt lat="42.78002" lon="3.03703">
        <ele>4</ele>
        <time>1970-01-01T02:09:38Z</time>
      </trkpt>
      <trkpt lat="42.78004" lon="3.03709">
        <ele>4</ele>
        <time>1970-01-01T02:09:39Z</time>
      </trkpt>
      <trkpt lat="42.78006" lon="3.03715">
        <ele>4</ele>
        <time>1970-01-01T02:09:40Z</time>
      </trkpt>
      <trkpt lat="42.78008" lon="3.0372">
        <ele>4</ele>
        <time>1970-01-01T02:09:41Z</time>
      </trkpt>
      <trkpt lat="42.7801" lon="3.03726">
        <ele>4</ele>
        <time>1970-01-01T02:09:42Z</time>
      </trkpt>
      <trkpt lat="42.78012" lon="3.03731">
        <ele>4</ele>
        <time>1970-01-01T02:09:43Z</time>
      </trkpt>
      <trkpt lat="42.78014" lon="3.03735">
        <ele>4</ele>
        <time>1970-01-01T02:09:44Z</time>
      </trkpt>
      <trkpt lat="42.78016" lon="3.0374">
        <ele>4</ele>
        <time>1970-01-01T02:09:45Z</time>
      </trkpt>
      <trkpt lat="42.78018" lon="3.03745">
        <ele>4</ele>
        <time>1970-01-01T02:09:46Z</time>
      </trkpt>
      <trkpt lat="42.7802" lon="3.0375">
        <ele>4</ele>
        <time>1970-01-01T02:09:47Z</time>
      </trkpt>
      <trkpt lat="42.78022" lon="3.03754">
        <ele>4</ele>
        <time>1970-01-01T02:09:48Z</time>
      </trkpt>
      <trkpt lat="42.78024" lon="3.03759">
        <ele>4</ele>
        <time>1970-01-01T02:09:49Z</time>
      </trkpt>
      <trkpt lat="42.78026" lon="3.03764">
        <ele>4</ele>
        <time>1970-01-01T02:09:50Z</time>
      </trkpt>
      <trkpt lat="42.78029" lon="3.03769">
        <ele>4</ele>
        <time>1970-01-01T02:09:51Z</time>
      </trkpt>
      <trkpt lat="42.78031" lon="3.03774">
        <ele>4</ele>
        <time>1970-01-01T02:09:52Z</time>
      </trkpt>
      <trkpt lat="42.78034" lon="3.03777">
        <ele>4</ele>
        <time>1970-01-01T02:09:53Z</time>
      </trkpt>
      <trkpt lat="42.78037" lon="3.0378">
        <ele>4</ele>
        <time>1970-01-01T02:09:54Z</time>
      </trkpt>
      <trkpt lat="42.78041" lon="3.03781">
        <ele>4</ele>
        <time>1970-01-01T02:09:55Z</time>
      </trkpt>
      <trkpt lat="42.78045" lon="3.03783">
        <ele>3.8</ele>
        <time>1970-01-01T02:09:56Z</time>
      </trkpt>
      <trkpt lat="42.78049" lon="3.03784">
        <ele>3.8</ele>
        <time>1970-01-01T02:09:57Z</time>
      </trkpt>
      <trkpt lat="42.78053" lon="3.03786">
        <ele>3.8</ele>
        <time>1970-01-01T02:09:58Z</time>
      </trkpt>
      <trkpt lat="42.78057" lon="3.03787">
        <ele>3.8</ele>
        <time>1970-01-01T02:09:59Z</time>
      </trkpt>
      <trkpt lat="42.78061" lon="3.03788">
        <ele>3.8</ele>
        <time>1970-01-01T02:10:00Z</time>
      </trkpt>
      <trkpt lat="42.78065" lon="3.03788">
        <ele>3.6</ele>
        <time>1970-01-01T02:10:01Z</time>
      </trkpt>
      <trkpt lat="42.78069" lon="3.03788">
        <ele>3.6</ele>
        <time>1970-01-01T02:10:02Z</time>
      </trkpt>
      <trkpt lat="42.78073" lon="3.03789">
        <ele>3.6</ele>
        <time>1970-01-01T02:10:03Z</time>
      </trkpt>
      <trkpt lat="42.78077" lon="3.03789">
        <ele>3.6</ele>
        <time>1970-01-01T02:10:04Z</time>
      </trkpt>
      <trkpt lat="42.78081" lon="3.0379">
        <ele>3.6</ele>
        <time>1970-01-01T02:10:05Z</time>
      </trkpt>
      <trkpt lat="42.78086" lon="3.0379">
        <ele>3.4</ele>
        <time>1970-01-01T02:10:06Z</time>
      </trkpt>
      <trkpt lat="42.7809" lon="3.03791">
        <ele>3.4</ele>
        <time>1970-01-01T02:10:07Z</time>
      </trkpt>
      <trkpt lat="42.78094" lon="3.03791">
        <ele>3.4</ele>
        <time>1970-01-01T02:10:08Z</time>
      </trkpt>
      <trkpt lat="42.78098" lon="3.03791">
        <ele>3.4</ele>
        <time>1970-01-01T02:10:09Z</time>
      </trkpt>
      <trkpt lat="42.78102" lon="3.03791">
        <ele>3.2</ele>
        <time>1970-01-01T02:10:10Z</time>
      </trkpt>
      <trkpt lat="42.78106" lon="3.03792">
        <ele>3.2</ele>
        <time>1970-01-01T02:10:11Z</time>
      </trkpt>
      <trkpt lat="42.7811" lon="3.03792">
        <ele>3.2</ele>
        <time>1970-01-01T02:10:12Z</time>
      </trkpt>
      <trkpt lat="42.78114" lon="3.03793">
        <ele>3.2</ele>
        <time>1970-01-01T02:10:13Z</time>
      </trkpt>
      <trkpt lat="42.78119" lon="3.03793">
        <ele>3.2</ele>
        <time>1970-01-01T02:10:14Z</time>
      </trkpt>
      <trkpt lat="42.78123" lon="3.03793">
        <ele>3.2</ele>
        <time>1970-01-01T02:10:15Z</time>
      </trkpt>
      <trkpt lat="42.78128" lon="3.03794">
        <ele>3.2</ele>
        <time>1970-01-01T02:10:16Z</time>
      </trkpt>
      <trkpt lat="42.78132" lon="3.03794">
        <ele>3.2</ele>
        <time>1970-01-01T02:10:17Z</time>
      </trkpt>
      <trkpt lat="42.78137" lon="3.03795">
        <ele>3.2</ele>
        <time>1970-01-01T02:10:18Z</time>
      </trkpt>
      <trkpt lat="42.78141" lon="3.03795">
        <ele>3.2</ele>
        <time>1970-01-01T02:10:19Z</time>
      </trkpt>
      <trkpt lat="42.78145" lon="3.03795">
        <ele>3.2</ele>
        <time>1970-01-01T02:10:20Z</time>
      </trkpt>
      <trkpt lat="42.78149" lon="3.03796">
        <ele>3.2</ele>
        <time>1970-01-01T02:10:21Z</time>
      </trkpt>
      <trkpt lat="42.78153" lon="3.03796">
        <ele>3.2</ele>
        <time>1970-01-01T02:10:22Z</time>
      </trkpt>
      <trkpt lat="42.78158" lon="3.03796">
        <ele>3.2</ele>
        <time>1970-01-01T02:10:23Z</time>
      </trkpt>
      <trkpt lat="42.78162" lon="3.03797">
        <ele>3.2</ele>
        <time>1970-01-01T02:10:24Z</time>
      </trkpt>
      <trkpt lat="42.78167" lon="3.03797">
        <ele>3.2</ele>
        <time>1970-01-01T02:10:25Z</time>
      </trkpt>
      <trkpt lat="42.78172" lon="3.03798">
        <ele>3.2</ele>
        <time>1970-01-01T02:10:26Z</time>
      </trkpt>
      <trkpt lat="42.78176" lon="3.03798">
        <ele>3.2</ele>
        <time>1970-01-01T02:10:27Z</time>
      </trkpt>
      <trkpt lat="42.78181" lon="3.03799">
        <ele>3.2</ele>
        <time>1970-01-01T02:10:28Z</time>
      </trkpt>
      <trkpt lat="42.78185" lon="3.03799">
        <ele>3.2</ele>
        <time>1970-01-01T02:10:29Z</time>
      </trkpt>
      <trkpt lat="42.7819" lon="3.03799">
        <ele>3.2</ele>
        <time>1970-01-01T02:10:30Z</time>
      </trkpt>
      <trkpt lat="42.78195" lon="3.038">
        <ele>3.2</ele>
        <time>1970-01-01T02:10:31Z</time>
      </trkpt>
      <trkpt lat="42.782" lon="3.038">
        <ele>3.2</ele>
        <time>1970-01-01T02:10:32Z</time>
      </trkpt>
      <trkpt lat="42.78205" lon="3.038">
        <ele>3.2</ele>
        <time>1970-01-01T02:10:33Z</time>
      </trkpt>
      <trkpt lat="42.7821" lon="3.038">
        <ele>3.2</ele>
        <time>1970-01-01T02:10:34Z</time>
      </trkpt>
      <trkpt lat="42.78214" lon="3.03801">
        <ele>3.2</ele>
        <time>1970-01-01T02:10:35Z</time>
      </trkpt>
      <trkpt lat="42.78219" lon="3.03801">
        <ele>3.2</ele>
        <time>1970-01-01T02:10:36Z</time>
      </trkpt>
      <trkpt lat="42.78223" lon="3.03801">
        <ele>3.4</ele>
        <time>1970-01-01T02:10:37Z</time>
      </trkpt>
      <trkpt lat="42.78228" lon="3.03801">
        <ele>3.4</ele>
        <time>1970-01-01T02:10:38Z</time>
      </trkpt>
      <trkpt lat="42.78232" lon="3.03802">
        <ele>3.4</ele>
        <time>1970-01-01T02:10:39Z</time>
      </trkpt>
      <trkpt lat="42.78237" lon="3.03803">
        <ele>3.4</ele>
        <time>1970-01-01T02:10:40Z</time>
      </trkpt>
      <trkpt lat="42.78241" lon="3.03804">
        <ele>3.4</ele>
        <time>1970-01-01T02:10:41Z</time>
      </trkpt>
      <trkpt lat="42.78246" lon="3.03805">
        <ele>3.4</ele>
        <time>1970-01-01T02:10:42Z</time>
      </trkpt>
      <trkpt lat="42.7825" lon="3.03804">
        <ele>3.2</ele>
        <time>1970-01-01T02:10:43Z</time>
      </trkpt>
      <trkpt lat="42.78254" lon="3.03804">
        <ele>3.2</ele>
        <time>1970-01-01T02:10:44Z</time>
      </trkpt>
      <trkpt lat="42.78258" lon="3.03804">
        <ele>3.2</ele>
        <time>1970-01-01T02:10:45Z</time>
      </trkpt>
      <trkpt lat="42.78262" lon="3.03805">
        <ele>3.2</ele>
        <time>1970-01-01T02:10:46Z</time>
      </trkpt>
      <trkpt lat="42.78265" lon="3.03806">
        <ele>3.2</ele>
        <time>1970-01-01T02:10:47Z</time>
      </trkpt>
      <trkpt lat="42.7827" lon="3.03806">
        <ele>3.2</ele>
        <time>1970-01-01T02:10:48Z</time>
      </trkpt>
      <trkpt lat="42.78274" lon="3.03807">
        <ele>3.2</ele>
        <time>1970-01-01T02:10:49Z</time>
      </trkpt>
      <trkpt lat="42.78278" lon="3.03807">
        <ele>3.2</ele>
        <time>1970-01-01T02:10:50Z</time>
      </trkpt>
      <trkpt lat="42.78283" lon="3.03807">
        <ele>3.2</ele>
        <time>1970-01-01T02:10:51Z</time>
      </trkpt>
      <trkpt lat="42.78287" lon="3.03807">
        <ele>3.2</ele>
        <time>1970-01-01T02:10:52Z</time>
      </trkpt>
      <trkpt lat="42.78291" lon="3.03808">
        <ele>3.2</ele>
        <time>1970-01-01T02:10:53Z</time>
      </trkpt>
      <trkpt lat="42.78295" lon="3.03808">
        <ele>3.2</ele>
        <time>1970-01-01T02:10:54Z</time>
      </trkpt>
      <trkpt lat="42.78299" lon="3.03808">
        <ele>3.2</ele>
        <time>1970-01-01T02:10:55Z</time>
      </trkpt>
      <trkpt lat="42.78302" lon="3.03809">
        <ele>3.2</ele>
        <time>1970-01-01T02:10:56Z</time>
      </trkpt>
      <trkpt lat="42.78306" lon="3.03809">
        <ele>3.2</ele>
        <time>1970-01-01T02:10:57Z</time>
      </trkpt>
      <trkpt lat="42.78309" lon="3.03809">
        <ele>3.2</ele>
        <time>1970-01-01T02:10:58Z</time>
      </trkpt>
      <trkpt lat="42.78312" lon="3.03808">
        <ele>3.2</ele>
        <time>1970-01-01T02:10:59Z</time>
      </trkpt>
      <trkpt lat="42.78315" lon="3.03809">
        <ele>3.2</ele>
        <time>1970-01-01T02:11:00Z</time>
      </trkpt>
      <trkpt lat="42.78318" lon="3.0381">
        <ele>3.2</ele>
        <time>1970-01-01T02:11:01Z</time>
      </trkpt>
      <trkpt lat="42.7832" lon="3.0381">
        <ele>3.2</ele>
        <time>1970-01-01T02:11:02Z</time>
      </trkpt>
      <trkpt lat="42.78323" lon="3.0381">
        <ele>3.4</ele>
        <time>1970-01-01T02:11:03Z</time>
      </trkpt>
      <trkpt lat="42.78326" lon="3.0381">
        <ele>3.4</ele>
        <time>1970-01-01T02:11:04Z</time>
      </trkpt>
      <trkpt lat="42.7833" lon="3.03811">
        <ele>3.4</ele>
        <time>1970-01-01T02:11:05Z</time>
      </trkpt>
      <trkpt lat="42.78334" lon="3.03811">
        <ele>3.4</ele>
        <time>1970-01-01T02:11:06Z</time>
      </trkpt>
      <trkpt lat="42.78338" lon="3.03812">
        <ele>3.4</ele>
        <time>1970-01-01T02:11:07Z</time>
      </trkpt>
      <trkpt lat="42.78342" lon="3.03812">
        <ele>3.4</ele>
        <time>1970-01-01T02:11:08Z</time>
      </trkpt>
      <trkpt lat="42.78346" lon="3.03813">
        <ele>3.4</ele>
        <time>1970-01-01T02:11:09Z</time>
      </trkpt>
      <trkpt lat="42.7835" lon="3.03813">
        <ele>3.4</ele>
        <time>1970-01-01T02:11:10Z</time>
      </trkpt>
      <trkpt lat="42.78355" lon="3.03814">
        <ele>3.4</ele>
        <time>1970-01-01T02:11:11Z</time>
      </trkpt>
      <trkpt lat="42.78359" lon="3.03814">
        <ele>3.4</ele>
        <time>1970-01-01T02:11:12Z</time>
      </trkpt>
      <trkpt lat="42.78363" lon="3.03814">
        <ele>3.4</ele>
        <time>1970-01-01T02:11:13Z</time>
      </trkpt>
      <trkpt lat="42.78366" lon="3.03815">
        <ele>3.4</ele>
        <time>1970-01-01T02:11:14Z</time>
      </trkpt>
      <trkpt lat="42.7837" lon="3.03815">
        <ele>3.4</ele>
        <time>1970-01-01T02:11:15Z</time>
      </trkpt>
      <trkpt lat="42.78375" lon="3.03816">
        <ele>3.4</ele>
        <time>1970-01-01T02:11:16Z</time>
      </trkpt>
      <trkpt lat="42.78379" lon="3.03816">
        <ele>3.4</ele>
        <time>1970-01-01T02:11:17Z</time>
      </trkpt>
      <trkpt lat="42.78383" lon="3.03817">
        <ele>3.4</ele>
        <time>1970-01-01T02:11:18Z</time>
      </trkpt>
      <trkpt lat="42.78386" lon="3.03817">
        <ele>3.4</ele>
        <time>1970-01-01T02:11:19Z</time>
      </trkpt>
      <trkpt lat="42.7839" lon="3.03818">
        <ele>3.4</ele>
        <time>1970-01-01T02:11:20Z</time>
      </trkpt>
      <trkpt lat="42.78394" lon="3.03818">
        <ele>3.4</ele>
        <time>1970-01-01T02:11:21Z</time>
      </trkpt>
      <trkpt lat="42.78398" lon="3.03819">
        <ele>3.4</ele>
        <time>1970-01-01T02:11:22Z</time>
      </trkpt>
      <trkpt lat="42.78402" lon="3.03819">
        <ele>3.4</ele>
        <time>1970-01-01T02:11:23Z</time>
      </trkpt>
      <trkpt lat="42.78406" lon="3.03819">
        <ele>3.4</ele>
        <time>1970-01-01T02:11:24Z</time>
      </trkpt>
      <trkpt lat="42.78409" lon="3.03819">
        <ele>3.4</ele>
        <time>1970-01-01T02:11:25Z</time>
      </trkpt>
      <trkpt lat="42.78413" lon="3.03819">
        <ele>3.6</ele>
        <time>1970-01-01T02:11:26Z</time>
      </trkpt>
      <trkpt lat="42.78416" lon="3.03819">
        <ele>3.6</ele>
        <time>1970-01-01T02:11:27Z</time>
      </trkpt>
      <trkpt lat="42.78419" lon="3.03819">
        <ele>3.6</ele>
        <time>1970-01-01T02:11:28Z</time>
      </trkpt>
      <trkpt lat="42.78422" lon="3.03819">
        <ele>3.6</ele>
        <time>1970-01-01T02:11:29Z</time>
      </trkpt>
      <trkpt lat="42.78425" lon="3.03818">
        <ele>3.6</ele>
        <time>1970-01-01T02:11:30Z</time>
      </trkpt>
      <trkpt lat="42.78428" lon="3.03817">
        <ele>3.8</ele>
        <time>1970-01-01T02:11:31Z</time>
      </trkpt>
      <trkpt lat="42.78432" lon="3.03816">
        <ele>3.8</ele>
        <time>1970-01-01T02:11:32Z</time>
      </trkpt>
      <trkpt lat="42.78435" lon="3.03816">
        <ele>3.8</ele>
        <time>1970-01-01T02:11:33Z</time>
      </trkpt>
      <trkpt lat="42.78438" lon="3.03816">
        <ele>3.8</ele>
        <time>1970-01-01T02:11:34Z</time>
      </trkpt>
      <trkpt lat="42.78441" lon="3.03817">
        <ele>3.8</ele>
        <time>1970-01-01T02:11:35Z</time>
      </trkpt>
      <trkpt lat="42.78442" lon="3.03817">
        <ele>3.8</ele>
        <time>1970-01-01T02:11:36Z</time>
      </trkpt>
      <trkpt lat="42.78443" lon="3.03821">
        <ele>3.8</ele>
        <time>1970-01-01T02:11:37Z</time>
      </trkpt>
      <trkpt lat="42.78444" lon="3.03823">
        <ele>3.8</ele>
        <time>1970-01-01T02:11:38Z</time>
      </trkpt>
      <trkpt lat="42.78444" lon="3.03827">
        <ele>3.8</ele>
        <time>1970-01-01T02:11:39Z</time>
      </trkpt>
      <trkpt lat="42.78444" lon="3.03828">
        <ele>3.8</ele>
        <time>1970-01-01T02:11:40Z</time>
      </trkpt>
      <trkpt lat="42.78443" lon="3.03834">
        <ele>3.8</ele>
        <time>1970-01-01T02:11:41Z</time>
      </trkpt>
      <trkpt lat="42.78443" lon="3.03836">
        <ele>3.8</ele>
        <time>1970-01-01T02:11:42Z</time>
      </trkpt>
      <trkpt lat="42.78443" lon="3.03841">
        <ele>3.8</ele>
        <time>1970-01-01T02:11:43Z</time>
      </trkpt>
      <trkpt lat="42.78443" lon="3.03843">
        <ele>3.8</ele>
        <time>1970-01-01T02:11:44Z</time>
      </trkpt>
      <trkpt lat="42.78443" lon="3.03847">
        <ele>4</ele>
        <time>1970-01-01T02:11:45Z</time>
      </trkpt>
      <trkpt lat="42.78443" lon="3.03848">
        <ele>4</ele>
        <time>1970-01-01T02:11:46Z</time>
      </trkpt>
      <trkpt lat="42.78444" lon="3.0385">
        <ele>4</ele>
        <time>1970-01-01T02:11:47Z</time>
      </trkpt>
      <trkpt lat="42.78446" lon="3.0385">
        <ele>4</ele>
        <time>1970-01-01T02:11:48Z</time>
      </trkpt>
      <trkpt lat="42.7845" lon="3.0385">
        <ele>4</ele>
        <time>1970-01-01T02:11:49Z</time>
      </trkpt>
      <trkpt lat="42.78451" lon="3.0385">
        <ele>4</ele>
        <time>1970-01-01T02:11:50Z</time>
      </trkpt>
      <trkpt lat="42.78454" lon="3.03851">
        <ele>4</ele>
        <time>1970-01-01T02:11:51Z</time>
      </trkpt>
      <trkpt lat="42.78457" lon="3.03851">
        <ele>4</ele>
        <time>1970-01-01T02:11:52Z</time>
      </trkpt>
      <trkpt lat="42.7846" lon="3.03852">
        <ele>4</ele>
        <time>1970-01-01T02:11:53Z</time>
      </trkpt>
      <trkpt lat="42.78464" lon="3.03852">
        <ele>4</ele>
        <time>1970-01-01T02:11:54Z</time>
      </trkpt>
      <trkpt lat="42.78467" lon="3.03852">
        <ele>4</ele>
        <time>1970-01-01T02:11:55Z</time>
      </trkpt>
      <trkpt lat="42.78471" lon="3.03851">
        <ele>4</ele>
        <time>1970-01-01T02:11:56Z</time>
      </trkpt>
      <trkpt lat="42.78474" lon="3.03851">
        <ele>4</ele>
        <time>1970-01-01T02:11:57Z</time>
      </trkpt>
      <trkpt lat="42.78477" lon="3.03851">
        <ele>4</ele>
        <time>1970-01-01T02:11:58Z</time>
      </trkpt>
      <trkpt lat="42.7848" lon="3.0385">
        <ele>4</ele>
        <time>1970-01-01T02:11:59Z</time>
      </trkpt>
      <trkpt lat="42.78483" lon="3.03851">
        <ele>4</ele>
        <time>1970-01-01T02:12:00Z</time>
      </trkpt>
      <trkpt lat="42.78486" lon="3.03851">
        <ele>4</ele>
        <time>1970-01-01T02:12:01Z</time>
      </trkpt>
      <trkpt lat="42.7849" lon="3.0385">
        <ele>4</ele>
        <time>1970-01-01T02:12:02Z</time>
      </trkpt>
      <trkpt lat="42.78493" lon="3.0385">
        <ele>4</ele>
        <time>1970-01-01T02:12:03Z</time>
      </trkpt>
      <trkpt lat="42.78497" lon="3.0385">
        <ele>4</ele>
        <time>1970-01-01T02:12:04Z</time>
      </trkpt>
      <trkpt lat="42.78501" lon="3.03849">
        <ele>4</ele>
        <time>1970-01-01T02:12:05Z</time>
      </trkpt>
      <trkpt lat="42.78504" lon="3.03849">
        <ele>4</ele>
        <time>1970-01-01T02:12:06Z</time>
      </trkpt>
      <trkpt lat="42.78508" lon="3.03849">
        <ele>4</ele>
        <time>1970-01-01T02:12:07Z</time>
      </trkpt>
      <trkpt lat="42.78511" lon="3.03848">
        <ele>4</ele>
        <time>1970-01-01T02:12:08Z</time>
      </trkpt>
      <trkpt lat="42.78514" lon="3.03848">
        <ele>4</ele>
        <time>1970-01-01T02:12:09Z</time>
      </trkpt>
      <trkpt lat="42.78517" lon="3.03848">
        <ele>4</ele>
        <time>1970-01-01T02:12:10Z</time>
      </trkpt>
      <trkpt lat="42.7852" lon="3.03848">
        <ele>4</ele>
        <time>1970-01-01T02:12:11Z</time>
      </trkpt>
      <trkpt lat="42.78523" lon="3.03848">
        <ele>4</ele>
        <time>1970-01-01T02:12:12Z</time>
      </trkpt>
      <trkpt lat="42.78527" lon="3.03847">
        <ele>4</ele>
        <time>1970-01-01T02:12:13Z</time>
      </trkpt>
      <trkpt lat="42.7853" lon="3.03846">
        <ele>4</ele>
        <time>1970-01-01T02:12:14Z</time>
      </trkpt>
      <trkpt lat="42.78534" lon="3.03846">
        <ele>4</ele>
        <time>1970-01-01T02:12:15Z</time>
      </trkpt>
      <trkpt lat="42.78537" lon="3.03846">
        <ele>4</ele>
        <time>1970-01-01T02:12:16Z</time>
      </trkpt>
      <trkpt lat="42.7854" lon="3.03846">
        <ele>4</ele>
        <time>1970-01-01T02:12:17Z</time>
      </trkpt>
      <trkpt lat="42.78544" lon="3.03846">
        <ele>4</ele>
        <time>1970-01-01T02:12:18Z</time>
      </trkpt>
      <trkpt lat="42.78547" lon="3.03845">
        <ele>4</ele>
        <time>1970-01-01T02:12:19Z</time>
      </trkpt>
      <trkpt lat="42.7855" lon="3.03845">
        <ele>4</ele>
        <time>1970-01-01T02:12:20Z</time>
      </trkpt>
      <trkpt lat="42.78554" lon="3.03845">
        <ele>4</ele>
        <time>1970-01-01T02:12:21Z</time>
      </trkpt>
      <trkpt lat="42.78557" lon="3.03844">
        <ele>4</ele>
        <time>1970-01-01T02:12:22Z</time>
      </trkpt>
      <trkpt lat="42.78561" lon="3.03844">
        <ele>4</ele>
        <time>1970-01-01T02:12:23Z</time>
      </trkpt>
      <trkpt lat="42.78565" lon="3.03844">
        <ele>4</ele>
        <time>1970-01-01T02:12:24Z</time>
      </trkpt>
      <trkpt lat="42.78569" lon="3.03843">
        <ele>4</ele>
        <time>1970-01-01T02:12:25Z</time>
      </trkpt>
      <trkpt lat="42.78572" lon="3.03842">
        <ele>4</ele>
        <time>1970-01-01T02:12:26Z</time>
      </trkpt>
      <trkpt lat="42.78576" lon="3.03842">
        <ele>4</ele>
        <time>1970-01-01T02:12:27Z</time>
      </trkpt>
      <trkpt lat="42.78579" lon="3.03841">
        <ele>4</ele>
        <time>1970-01-01T02:12:28Z</time>
      </trkpt>
      <trkpt lat="42.78583" lon="3.03841">
        <ele>4</ele>
        <time>1970-01-01T02:12:29Z</time>
      </trkpt>
      <trkpt lat="42.78586" lon="3.03841">
        <ele>4</ele>
        <time>1970-01-01T02:12:30Z</time>
      </trkpt>
      <trkpt lat="42.7859" lon="3.03841">
        <ele>4</ele>
        <time>1970-01-01T02:12:31Z</time>
      </trkpt>
      <trkpt lat="42.78594" lon="3.03841">
        <ele>4</ele>
        <time>1970-01-01T02:12:32Z</time>
      </trkpt>
      <trkpt lat="42.78598" lon="3.03841">
        <ele>4</ele>
        <time>1970-01-01T02:12:33Z</time>
      </trkpt>
      <trkpt lat="42.78602" lon="3.03841">
        <ele>4</ele>
        <time>1970-01-01T02:12:34Z</time>
      </trkpt>
      <trkpt lat="42.78607" lon="3.0384">
        <ele>3.8</ele>
        <time>1970-01-01T02:12:35Z</time>
      </trkpt>
      <trkpt lat="42.78611" lon="3.0384">
        <ele>3.8</ele>
        <time>1970-01-01T02:12:36Z</time>
      </trkpt>
      <trkpt lat="42.78615" lon="3.0384">
        <ele>3.8</ele>
        <time>1970-01-01T02:12:37Z</time>
      </trkpt>
      <trkpt lat="42.78618" lon="3.03839">
        <ele>3.8</ele>
        <time>1970-01-01T02:12:38Z</time>
      </trkpt>
      <trkpt lat="42.78622" lon="3.03838">
        <ele>3.8</ele>
        <time>1970-01-01T02:12:39Z</time>
      </trkpt>
      <trkpt lat="42.78626" lon="3.03838">
        <ele>4</ele>
        <time>1970-01-01T02:12:40Z</time>
      </trkpt>
      <trkpt lat="42.7863" lon="3.03837">
        <ele>4</ele>
        <time>1970-01-01T02:12:41Z</time>
      </trkpt>
      <trkpt lat="42.78633" lon="3.03837">
        <ele>4</ele>
        <time>1970-01-01T02:12:42Z</time>
      </trkpt>
      <trkpt lat="42.78637" lon="3.03836">
        <ele>4</ele>
        <time>1970-01-01T02:12:43Z</time>
      </trkpt>
      <trkpt lat="42.78642" lon="3.03836">
        <ele>4</ele>
        <time>1970-01-01T02:12:44Z</time>
      </trkpt>
      <trkpt lat="42.78646" lon="3.03836">
        <ele>4</ele>
        <time>1970-01-01T02:12:45Z</time>
      </trkpt>
      <trkpt lat="42.78651" lon="3.03835">
        <ele>4</ele>
        <time>1970-01-01T02:12:46Z</time>
      </trkpt>
      <trkpt lat="42.78655" lon="3.03835">
        <ele>4</ele>
        <time>1970-01-01T02:12:47Z</time>
      </trkpt>
      <trkpt lat="42.7866" lon="3.03835">
        <ele>4</ele>
        <time>1970-01-01T02:12:48Z</time>
      </trkpt>
      <trkpt lat="42.78664" lon="3.03834">
        <ele>4</ele>
        <time>1970-01-01T02:12:49Z</time>
      </trkpt>
      <trkpt lat="42.78669" lon="3.03834">
        <ele>4</ele>
        <time>1970-01-01T02:12:50Z</time>
      </trkpt>
      <trkpt lat="42.78674" lon="3.03833">
        <ele>4</ele>
        <time>1970-01-01T02:12:51Z</time>
      </trkpt>
      <trkpt lat="42.78678" lon="3.03833">
        <ele>4</ele>
        <time>1970-01-01T02:12:52Z</time>
      </trkpt>
      <trkpt lat="42.78683" lon="3.03832">
        <ele>4</ele>
        <time>1970-01-01T02:12:53Z</time>
      </trkpt>
      <trkpt lat="42.78687" lon="3.03832">
        <ele>4</ele>
        <time>1970-01-01T02:12:54Z</time>
      </trkpt>
      <trkpt lat="42.78691" lon="3.03832">
        <ele>4</ele>
        <time>1970-01-01T02:12:55Z</time>
      </trkpt>
      <trkpt lat="42.78695" lon="3.03832">
        <ele>4</ele>
        <time>1970-01-01T02:12:56Z</time>
      </trkpt>
      <trkpt lat="42.78699" lon="3.03832">
        <ele>4</ele>
        <time>1970-01-01T02:12:57Z</time>
      </trkpt>
      <trkpt lat="42.78703" lon="3.03832">
        <ele>4</ele>
        <time>1970-01-01T02:12:58Z</time>
      </trkpt>
      <trkpt lat="42.78707" lon="3.03831">
        <ele>4</ele>
        <time>1970-01-01T02:12:59Z</time>
      </trkpt>
      <trkpt lat="42.7871" lon="3.03831">
        <ele>4</ele>
        <time>1970-01-01T02:13:00Z</time>
      </trkpt>
      <trkpt lat="42.78714" lon="3.03831">
        <ele>4</ele>
        <time>1970-01-01T02:13:01Z</time>
      </trkpt>
      <trkpt lat="42.78718" lon="3.0383">
        <ele>4</ele>
        <time>1970-01-01T02:13:02Z</time>
      </trkpt>
      <trkpt lat="42.78721" lon="3.0383">
        <ele>4</ele>
        <time>1970-01-01T02:13:03Z</time>
      </trkpt>
      <trkpt lat="42.78725" lon="3.0383">
        <ele>4</ele>
        <time>1970-01-01T02:13:04Z</time>
      </trkpt>
      <trkpt lat="42.78728" lon="3.03829">
        <ele>4</ele>
        <time>1970-01-01T02:13:05Z</time>
      </trkpt>
      <trkpt lat="42.78732" lon="3.03828">
        <ele>4</ele>
        <time>1970-01-01T02:13:06Z</time>
      </trkpt>
      <trkpt lat="42.78736" lon="3.03828">
        <ele>4</ele>
        <time>1970-01-01T02:13:07Z</time>
      </trkpt>
      <trkpt lat="42.78741" lon="3.03828">
        <ele>4</ele>
        <time>1970-01-01T02:13:08Z</time>
      </trkpt>
      <trkpt lat="42.78745" lon="3.03827">
        <ele>4</ele>
        <time>1970-01-01T02:13:09Z</time>
      </trkpt>
      <trkpt lat="42.78749" lon="3.03827">
        <ele>4</ele>
        <time>1970-01-01T02:13:10Z</time>
      </trkpt>
      <trkpt lat="42.78752" lon="3.03826">
        <ele>4</ele>
        <time>1970-01-01T02:13:11Z</time>
      </trkpt>
      <trkpt lat="42.78756" lon="3.03826">
        <ele>4</ele>
        <time>1970-01-01T02:13:12Z</time>
      </trkpt>
      <trkpt lat="42.7876" lon="3.03826">
        <ele>4</ele>
        <time>1970-01-01T02:13:13Z</time>
      </trkpt>
      <trkpt lat="42.78763" lon="3.03826">
        <ele>4</ele>
        <time>1970-01-01T02:13:14Z</time>
      </trkpt>
      <trkpt lat="42.78767" lon="3.03826">
        <ele>4</ele>
        <time>1970-01-01T02:13:15Z</time>
      </trkpt>
      <trkpt lat="42.78771" lon="3.03825">
        <ele>4</ele>
        <time>1970-01-01T02:13:16Z</time>
      </trkpt>
      <trkpt lat="42.78775" lon="3.03825">
        <ele>4</ele>
        <time>1970-01-01T02:13:17Z</time>
      </trkpt>
      <trkpt lat="42.78779" lon="3.03825">
        <ele>4</ele>
        <time>1970-01-01T02:13:18Z</time>
      </trkpt>
      <trkpt lat="42.78783" lon="3.03824">
        <ele>4</ele>
        <time>1970-01-01T02:13:19Z</time>
      </trkpt>
      <trkpt lat="42.78786" lon="3.03824">
        <ele>4</ele>
        <time>1970-01-01T02:13:20Z</time>
      </trkpt>
      <trkpt lat="42.7879" lon="3.03823">
        <ele>4</ele>
        <time>1970-01-01T02:13:21Z</time>
      </trkpt>
      <trkpt lat="42.78794" lon="3.03823">
        <ele>4</ele>
        <time>1970-01-01T02:13:22Z</time>
      </trkpt>
      <trkpt lat="42.78798" lon="3.03822">
        <ele>4</ele>
        <time>1970-01-01T02:13:23Z</time>
      </trkpt>
      <trkpt lat="42.78802" lon="3.03822">
        <ele>4</ele>
        <time>1970-01-01T02:13:24Z</time>
      </trkpt>
      <trkpt lat="42.78806" lon="3.03821">
        <ele>4</ele>
        <time>1970-01-01T02:13:25Z</time>
      </trkpt>
      <trkpt lat="42.7881" lon="3.0382">
        <ele>4</ele>
        <time>1970-01-01T02:13:26Z</time>
      </trkpt>
      <trkpt lat="42.78814" lon="3.03819">
        <ele>4</ele>
        <time>1970-01-01T02:13:27Z</time>
      </trkpt>
      <trkpt lat="42.78818" lon="3.03818">
        <ele>4</ele>
        <time>1970-01-01T02:13:28Z</time>
      </trkpt>
      <trkpt lat="42.78822" lon="3.03818">
        <ele>4</ele>
        <time>1970-01-01T02:13:29Z</time>
      </trkpt>
      <trkpt lat="42.78826" lon="3.03818">
        <ele>3.8</ele>
        <time>1970-01-01T02:13:30Z</time>
      </trkpt>
      <trkpt lat="42.7883" lon="3.03818">
        <ele>3.8</ele>
        <time>1970-01-01T02:13:31Z</time>
      </trkpt>
      <trkpt lat="42.78834" lon="3.03817">
        <ele>3.8</ele>
        <time>1970-01-01T02:13:32Z</time>
      </trkpt>
      <trkpt lat="42.78838" lon="3.03816">
        <ele>3.8</ele>
        <time>1970-01-01T02:13:33Z</time>
      </trkpt>
      <trkpt lat="42.78843" lon="3.03815">
        <ele>3.8</ele>
        <time>1970-01-01T02:13:34Z</time>
      </trkpt>
      <trkpt lat="42.78847" lon="3.03814">
        <ele>3.8</ele>
        <time>1970-01-01T02:13:35Z</time>
      </trkpt>
      <trkpt lat="42.78852" lon="3.03813">
        <ele>3.8</ele>
        <time>1970-01-01T02:13:36Z</time>
      </trkpt>
      <trkpt lat="42.78856" lon="3.03812">
        <ele>3.8</ele>
        <time>1970-01-01T02:13:37Z</time>
      </trkpt>
      <trkpt lat="42.78861" lon="3.03812">
        <ele>3.8</ele>
        <time>1970-01-01T02:13:38Z</time>
      </trkpt>
      <trkpt lat="42.78866" lon="3.03811">
        <ele>3.8</ele>
        <time>1970-01-01T02:13:39Z</time>
      </trkpt>
      <trkpt lat="42.78871" lon="3.03811">
        <ele>3.8</ele>
        <time>1970-01-01T02:13:40Z</time>
      </trkpt>
      <trkpt lat="42.78876" lon="3.03811">
        <ele>3.8</ele>
        <time>1970-01-01T02:13:41Z</time>
      </trkpt>
      <trkpt lat="42.7888" lon="3.0381">
        <ele>3.8</ele>
        <time>1970-01-01T02:13:42Z</time>
      </trkpt>
      <trkpt lat="42.78885" lon="3.0381">
        <ele>3.8</ele>
        <time>1970-01-01T02:13:43Z</time>
      </trkpt>
      <trkpt lat="42.7889" lon="3.03809">
        <ele>3.8</ele>
        <time>1970-01-01T02:13:44Z</time>
      </trkpt>
      <trkpt lat="42.78895" lon="3.03809">
        <ele>3.8</ele>
        <time>1970-01-01T02:13:45Z</time>
      </trkpt>
      <trkpt lat="42.789" lon="3.03808">
        <ele>3.8</ele>
        <time>1970-01-01T02:13:46Z</time>
      </trkpt>
      <trkpt lat="42.78905" lon="3.03808">
        <ele>3.8</ele>
        <time>1970-01-01T02:13:47Z</time>
      </trkpt>
      <trkpt lat="42.7891" lon="3.03808">
        <ele>3.8</ele>
        <time>1970-01-01T02:13:48Z</time>
      </trkpt>
      <trkpt lat="42.78915" lon="3.03808">
        <ele>3.8</ele>
        <time>1970-01-01T02:13:49Z</time>
      </trkpt>
      <trkpt lat="42.7892" lon="3.03808">
        <ele>3.8</ele>
        <time>1970-01-01T02:13:50Z</time>
      </trkpt>
      <trkpt lat="42.78925" lon="3.03807">
        <ele>3.8</ele>
        <time>1970-01-01T02:13:51Z</time>
      </trkpt>
      <trkpt lat="42.7893" lon="3.03807">
        <ele>3.8</ele>
        <time>1970-01-01T02:13:52Z</time>
      </trkpt>
      <trkpt lat="42.78935" lon="3.03806">
        <ele>3.8</ele>
        <time>1970-01-01T02:13:53Z</time>
      </trkpt>
      <trkpt lat="42.78941" lon="3.03806">
        <ele>3.8</ele>
        <time>1970-01-01T02:13:54Z</time>
      </trkpt>
      <trkpt lat="42.78946" lon="3.03805">
        <ele>3.8</ele>
        <time>1970-01-01T02:13:55Z</time>
      </trkpt>
      <trkpt lat="42.78951" lon="3.03803">
        <ele>3.8</ele>
        <time>1970-01-01T02:13:56Z</time>
      </trkpt>
      <trkpt lat="42.78956" lon="3.03801">
        <ele>3.8</ele>
        <time>1970-01-01T02:13:57Z</time>
      </trkpt>
      <trkpt lat="42.78961" lon="3.03801">
        <ele>3.8</ele>
        <time>1970-01-01T02:13:58Z</time>
      </trkpt>
      <trkpt lat="42.78966" lon="3.038">
        <ele>3.8</ele>
        <time>1970-01-01T02:13:59Z</time>
      </trkpt>
      <trkpt lat="42.7897" lon="3.038">
        <ele>3.8</ele>
        <time>1970-01-01T02:14:00Z</time>
      </trkpt>
      <trkpt lat="42.78975" lon="3.038">
        <ele>3.8</ele>
        <time>1970-01-01T02:14:01Z</time>
      </trkpt>
      <trkpt lat="42.78979" lon="3.038">
        <ele>3.8</ele>
        <time>1970-01-01T02:14:02Z</time>
      </trkpt>
      <trkpt lat="42.78983" lon="3.03799">
        <ele>3.8</ele>
        <time>1970-01-01T02:14:03Z</time>
      </trkpt>
      <trkpt lat="42.78988" lon="3.03798">
        <ele>3.8</ele>
        <time>1970-01-01T02:14:04Z</time>
      </trkpt>
      <trkpt lat="42.78992" lon="3.03798">
        <ele>3.8</ele>
        <time>1970-01-01T02:14:05Z</time>
      </trkpt>
      <trkpt lat="42.78996" lon="3.03798">
        <ele>3.8</ele>
        <time>1970-01-01T02:14:06Z</time>
      </trkpt>
      <trkpt lat="42.79001" lon="3.03797">
        <ele>3.8</ele>
        <time>1970-01-01T02:14:07Z</time>
      </trkpt>
      <trkpt lat="42.79006" lon="3.03797">
        <ele>3.8</ele>
        <time>1970-01-01T02:14:08Z</time>
      </trkpt>
      <trkpt lat="42.79011" lon="3.03797">
        <ele>3.8</ele>
        <time>1970-01-01T02:14:09Z</time>
      </trkpt>
      <trkpt lat="42.79015" lon="3.03798">
        <ele>3.8</ele>
        <time>1970-01-01T02:14:10Z</time>
      </trkpt>
      <trkpt lat="42.79019" lon="3.038">
        <ele>3.8</ele>
        <time>1970-01-01T02:14:11Z</time>
      </trkpt>
      <trkpt lat="42.79022" lon="3.03804">
        <ele>3.8</ele>
        <time>1970-01-01T02:14:12Z</time>
      </trkpt>
      <trkpt lat="42.79026" lon="3.03807">
        <ele>3.8</ele>
        <time>1970-01-01T02:14:13Z</time>
      </trkpt>
      <trkpt lat="42.79029" lon="3.03811">
        <ele>3.8</ele>
        <time>1970-01-01T02:14:14Z</time>
      </trkpt>
      <trkpt lat="42.79033" lon="3.03815">
        <ele>3.8</ele>
        <time>1970-01-01T02:14:15Z</time>
      </trkpt>
      <trkpt lat="42.79036" lon="3.03819">
        <ele>3.8</ele>
        <time>1970-01-01T02:14:16Z</time>
      </trkpt>
      <trkpt lat="42.79039" lon="3.03823">
        <ele>3.8</ele>
        <time>1970-01-01T02:14:17Z</time>
      </trkpt>
      <trkpt lat="42.79042" lon="3.03826">
        <ele>3.8</ele>
        <time>1970-01-01T02:14:18Z</time>
      </trkpt>
      <trkpt lat="42.79045" lon="3.0383">
        <ele>3.8</ele>
        <time>1970-01-01T02:14:19Z</time>
      </trkpt>
      <trkpt lat="42.79048" lon="3.03833">
        <ele>3.8</ele>
        <time>1970-01-01T02:14:20Z</time>
      </trkpt>
      <trkpt lat="42.79051" lon="3.03837">
        <ele>3.8</ele>
        <time>1970-01-01T02:14:21Z</time>
      </trkpt>
      <trkpt lat="42.79055" lon="3.0384">
        <ele>4</ele>
        <time>1970-01-01T02:14:22Z</time>
      </trkpt>
      <trkpt lat="42.79058" lon="3.03844">
        <ele>4</ele>
        <time>1970-01-01T02:14:23Z</time>
      </trkpt>
      <trkpt lat="42.7906" lon="3.03847">
        <ele>4</ele>
        <time>1970-01-01T02:14:24Z</time>
      </trkpt>
      <trkpt lat="42.79063" lon="3.0385">
        <ele>4</ele>
        <time>1970-01-01T02:14:25Z</time>
      </trkpt>
      <trkpt lat="42.79066" lon="3.03853">
        <ele>4</ele>
        <time>1970-01-01T02:14:26Z</time>
      </trkpt>
      <trkpt lat="42.79068" lon="3.03856">
        <ele>4</ele>
        <time>1970-01-01T02:14:27Z</time>
      </trkpt>
      <trkpt lat="42.79071" lon="3.03858">
        <ele>4</ele>
        <time>1970-01-01T02:14:28Z</time>
      </trkpt>
      <trkpt lat="42.79074" lon="3.0386">
        <ele>4</ele>
        <time>1970-01-01T02:14:29Z</time>
      </trkpt>
      <trkpt lat="42.79078" lon="3.03862">
        <ele>4</ele>
        <time>1970-01-01T02:14:30Z</time>
      </trkpt>
      <trkpt lat="42.79081" lon="3.03863">
        <ele>4</ele>
        <time>1970-01-01T02:14:31Z</time>
      </trkpt>
      <trkpt lat="42.79084" lon="3.03864">
        <ele>4</ele>
        <time>1970-01-01T02:14:32Z</time>
      </trkpt>
      <trkpt lat="42.79088" lon="3.03865">
        <ele>4</ele>
        <time>1970-01-01T02:14:33Z</time>
      </trkpt>
      <trkpt lat="42.79091" lon="3.03866">
        <ele>4</ele>
        <time>1970-01-01T02:14:34Z</time>
      </trkpt>
      <trkpt lat="42.79094" lon="3.03866">
        <ele>4</ele>
        <time>1970-01-01T02:14:35Z</time>
      </trkpt>
      <trkpt lat="42.79097" lon="3.03865">
        <ele>4</ele>
        <time>1970-01-01T02:14:36Z</time>
      </trkpt>
      <trkpt lat="42.79098" lon="3.03865">
        <ele>4</ele>
        <time>1970-01-01T02:14:37Z</time>
      </trkpt>
      <trkpt lat="42.79099" lon="3.03865">
        <ele>4</ele>
        <time>1970-01-01T02:14:38Z</time>
      </trkpt>
      <trkpt lat="42.791" lon="3.03865">
        <ele>4</ele>
        <time>1970-01-01T02:14:39Z</time>
      </trkpt>
      <trkpt lat="42.791" lon="3.03864">
        <ele>4</ele>
        <time>1970-01-01T02:14:40Z</time>
      </trkpt>
      <trkpt lat="42.791" lon="3.03862">
        <ele>4</ele>
        <time>1970-01-01T02:14:41Z</time>
      </trkpt>
      <trkpt lat="42.791" lon="3.03861">
        <ele>4</ele>
        <time>1970-01-01T02:14:42Z</time>
      </trkpt>
      <trkpt lat="42.791" lon="3.03859">
        <ele>4</ele>
        <time>1970-01-01T02:14:43Z</time>
      </trkpt>
      <trkpt lat="42.79101" lon="3.03858">
        <ele>4</ele>
        <time>1970-01-01T02:14:44Z</time>
      </trkpt>
      <trkpt lat="42.79102" lon="3.03857">
        <ele>4</ele>
        <time>1970-01-01T02:14:45Z</time>
      </trkpt>
      <trkpt lat="42.79104" lon="3.03857">
        <ele>4</ele>
        <time>1970-01-01T02:14:46Z</time>
      </trkpt>
      <trkpt lat="42.79105" lon="3.03857">
        <ele>4</ele>
        <time>1970-01-01T02:14:47Z</time>
      </trkpt>
      <trkpt lat="42.79109" lon="3.03858">
        <ele>4</ele>
        <time>1970-01-01T02:14:48Z</time>
      </trkpt>
      <trkpt lat="42.7911" lon="3.03858">
        <ele>4</ele>
        <time>1970-01-01T02:14:49Z</time>
      </trkpt>
      <trkpt lat="42.79112" lon="3.03858">
        <ele>4</ele>
        <time>1970-01-01T02:14:50Z</time>
      </trkpt>
      <trkpt lat="42.79115" lon="3.03858">
        <ele>4</ele>
        <time>1970-01-01T02:14:51Z</time>
      </trkpt>
      <trkpt lat="42.79118" lon="3.03858">
        <ele>4</ele>
        <time>1970-01-01T02:14:52Z</time>
      </trkpt>
      <trkpt lat="42.79121" lon="3.03858">
        <ele>4</ele>
        <time>1970-01-01T02:14:53Z</time>
      </trkpt>
      <trkpt lat="42.79124" lon="3.03858">
        <ele>4</ele>
        <time>1970-01-01T02:14:54Z</time>
      </trkpt>
      <trkpt lat="42.79128" lon="3.03857">
        <ele>4</ele>
        <time>1970-01-01T02:14:55Z</time>
      </trkpt>
      <trkpt lat="42.79131" lon="3.03856">
        <ele>4</ele>
        <time>1970-01-01T02:14:56Z</time>
      </trkpt>
      <trkpt lat="42.79133" lon="3.03856">
        <ele>4</ele>
        <time>1970-01-01T02:14:57Z</time>
      </trkpt>
      <trkpt lat="42.79136" lon="3.03856">
        <ele>4</ele>
        <time>1970-01-01T02:14:58Z</time>
      </trkpt>
      <trkpt lat="42.79139" lon="3.03856">
        <ele>4</ele>
        <time>1970-01-01T02:14:59Z</time>
      </trkpt>
      <trkpt lat="42.79143" lon="3.03856">
        <ele>4</ele>
        <time>1970-01-01T02:15:00Z</time>
      </trkpt>
      <trkpt lat="42.79146" lon="3.03855">
        <ele>4</ele>
        <time>1970-01-01T02:15:01Z</time>
      </trkpt>
      <trkpt lat="42.7915" lon="3.03855">
        <ele>4</ele>
        <time>1970-01-01T02:15:02Z</time>
      </trkpt>
      <trkpt lat="42.79153" lon="3.03855">
        <ele>4</ele>
        <time>1970-01-01T02:15:03Z</time>
      </trkpt>
      <trkpt lat="42.79156" lon="3.03855">
        <ele>4</ele>
        <time>1970-01-01T02:15:04Z</time>
      </trkpt>
      <trkpt lat="42.79159" lon="3.03855">
        <ele>4</ele>
        <time>1970-01-01T02:15:05Z</time>
      </trkpt>
      <trkpt lat="42.79162" lon="3.03855">
        <ele>4</ele>
        <time>1970-01-01T02:15:06Z</time>
      </trkpt>
      <trkpt lat="42.79166" lon="3.03855">
        <ele>4</ele>
        <time>1970-01-01T02:15:07Z</time>
      </trkpt>
      <trkpt lat="42.79169" lon="3.03855">
        <ele>4</ele>
        <time>1970-01-01T02:15:08Z</time>
      </trkpt>
      <trkpt lat="42.79172" lon="3.03855">
        <ele>4</ele>
        <time>1970-01-01T02:15:09Z</time>
      </trkpt>
      <trkpt lat="42.79176" lon="3.03855">
        <ele>4</ele>
        <time>1970-01-01T02:15:10Z</time>
      </trkpt>
      <trkpt lat="42.79179" lon="3.03855">
        <ele>4</ele>
        <time>1970-01-01T02:15:11Z</time>
      </trkpt>
      <trkpt lat="42.79183" lon="3.03855">
        <ele>4</ele>
        <time>1970-01-01T02:15:12Z</time>
      </trkpt>
      <trkpt lat="42.79187" lon="3.03856">
        <ele>4</ele>
        <time>1970-01-01T02:15:13Z</time>
      </trkpt>
      <trkpt lat="42.7919" lon="3.03856">
        <ele>4</ele>
        <time>1970-01-01T02:15:14Z</time>
      </trkpt>
      <trkpt lat="42.79194" lon="3.03857">
        <ele>4</ele>
        <time>1970-01-01T02:15:15Z</time>
      </trkpt>
      <trkpt lat="42.79198" lon="3.03857">
        <ele>4</ele>
        <time>1970-01-01T02:15:16Z</time>
      </trkpt>
      <trkpt lat="42.79201" lon="3.03857">
        <ele>4</ele>
        <time>1970-01-01T02:15:17Z</time>
      </trkpt>
      <trkpt lat="42.79205" lon="3.03856">
        <ele>4</ele>
        <time>1970-01-01T02:15:18Z</time>
      </trkpt>
      <trkpt lat="42.79208" lon="3.03856">
        <ele>4.2</ele>
        <time>1970-01-01T02:15:19Z</time>
      </trkpt>
      <trkpt lat="42.79212" lon="3.03855">
        <ele>4.2</ele>
        <time>1970-01-01T02:15:20Z</time>
      </trkpt>
      <trkpt lat="42.79215" lon="3.03852">
        <ele>4.2</ele>
        <time>1970-01-01T02:15:21Z</time>
      </trkpt>
      <trkpt lat="42.79216" lon="3.03851">
        <ele>4.2</ele>
        <time>1970-01-01T02:15:22Z</time>
      </trkpt>
      <trkpt lat="42.79217" lon="3.03846">
        <ele>4.2</ele>
        <time>1970-01-01T02:15:23Z</time>
      </trkpt>
      <trkpt lat="42.79217" lon="3.03844">
        <ele>4.2</ele>
        <time>1970-01-01T02:15:24Z</time>
      </trkpt>
      <trkpt lat="42.79218" lon="3.03839">
        <ele>4.2</ele>
        <time>1970-01-01T02:15:25Z</time>
      </trkpt>
      <trkpt lat="42.79218" lon="3.03837">
        <ele>4.2</ele>
        <time>1970-01-01T02:15:26Z</time>
      </trkpt>
      <trkpt lat="42.79219" lon="3.03832">
        <ele>4.2</ele>
        <time>1970-01-01T02:15:27Z</time>
      </trkpt>
      <trkpt lat="42.7922" lon="3.03831">
        <ele>4.2</ele>
        <time>1970-01-01T02:15:28Z</time>
      </trkpt>
      <trkpt lat="42.79222" lon="3.03828">
        <ele>4.2</ele>
        <time>1970-01-01T02:15:29Z</time>
      </trkpt>
      <trkpt lat="42.79225" lon="3.03826">
        <ele>4.2</ele>
        <time>1970-01-01T02:15:30Z</time>
      </trkpt>
      <trkpt lat="42.79229" lon="3.03824">
        <ele>4.2</ele>
        <time>1970-01-01T02:15:31Z</time>
      </trkpt>
      <trkpt lat="42.79234" lon="3.03824">
        <ele>4</ele>
        <time>1970-01-01T02:15:32Z</time>
      </trkpt>
      <trkpt lat="42.79238" lon="3.03825">
        <ele>4</ele>
        <time>1970-01-01T02:15:33Z</time>
      </trkpt>
      <trkpt lat="42.79243" lon="3.03824">
        <ele>4</ele>
        <time>1970-01-01T02:15:34Z</time>
      </trkpt>
      <trkpt lat="42.79247" lon="3.03824">
        <ele>4</ele>
        <time>1970-01-01T02:15:35Z</time>
      </trkpt>
      <trkpt lat="42.79252" lon="3.03823">
        <ele>4</ele>
        <time>1970-01-01T02:15:36Z</time>
      </trkpt>
      <trkpt lat="42.79256" lon="3.03823">
        <ele>4</ele>
        <time>1970-01-01T02:15:37Z</time>
      </trkpt>
      <trkpt lat="42.7926" lon="3.03823">
        <ele>4</ele>
        <time>1970-01-01T02:15:38Z</time>
      </trkpt>
      <trkpt lat="42.79264" lon="3.03824">
        <ele>4</ele>
        <time>1970-01-01T02:15:39Z</time>
      </trkpt>
      <trkpt lat="42.79267" lon="3.03824">
        <ele>4</ele>
        <time>1970-01-01T02:15:40Z</time>
      </trkpt>
      <trkpt lat="42.79271" lon="3.03824">
        <ele>4</ele>
        <time>1970-01-01T02:15:41Z</time>
      </trkpt>
      <trkpt lat="42.79274" lon="3.03824">
        <ele>4</ele>
        <time>1970-01-01T02:15:42Z</time>
      </trkpt>
      <trkpt lat="42.79277" lon="3.03824">
        <ele>4</ele>
        <time>1970-01-01T02:15:43Z</time>
      </trkpt>
      <trkpt lat="42.7928" lon="3.03824">
        <ele>4</ele>
        <time>1970-01-01T02:15:44Z</time>
      </trkpt>
      <trkpt lat="42.79283" lon="3.03823">
        <ele>4</ele>
        <time>1970-01-01T02:15:45Z</time>
      </trkpt>
      <trkpt lat="42.79286" lon="3.03823">
        <ele>4</ele>
        <time>1970-01-01T02:15:46Z</time>
      </trkpt>
      <trkpt lat="42.79289" lon="3.03823">
        <ele>4</ele>
        <time>1970-01-01T02:15:47Z</time>
      </trkpt>
      <trkpt lat="42.79293" lon="3.03824">
        <ele>4</ele>
        <time>1970-01-01T02:15:48Z</time>
      </trkpt>
      <trkpt lat="42.79296" lon="3.03824">
        <ele>4</ele>
        <time>1970-01-01T02:15:49Z</time>
      </trkpt>
      <trkpt lat="42.79299" lon="3.03824">
        <ele>4</ele>
        <time>1970-01-01T02:15:50Z</time>
      </trkpt>
      <trkpt lat="42.79303" lon="3.03824">
        <ele>4</ele>
        <time>1970-01-01T02:15:51Z</time>
      </trkpt>
      <trkpt lat="42.79306" lon="3.03824">
        <ele>4</ele>
        <time>1970-01-01T02:15:52Z</time>
      </trkpt>
      <trkpt lat="42.79309" lon="3.03824">
        <ele>4</ele>
        <time>1970-01-01T02:15:53Z</time>
      </trkpt>
      <trkpt lat="42.79312" lon="3.03823">
        <ele>4</ele>
        <time>1970-01-01T02:15:54Z</time>
      </trkpt>
      <trkpt lat="42.79315" lon="3.03823">
        <ele>4</ele>
        <time>1970-01-01T02:15:55Z</time>
      </trkpt>
      <trkpt lat="42.79318" lon="3.03823">
        <ele>4</ele>
        <time>1970-01-01T02:15:56Z</time>
      </trkpt>
      <trkpt lat="42.79321" lon="3.03823">
        <ele>4</ele>
        <time>1970-01-01T02:15:57Z</time>
      </trkpt>
      <trkpt lat="42.79324" lon="3.03823">
        <ele>4</ele>
        <time>1970-01-01T02:15:58Z</time>
      </trkpt>
      <trkpt lat="42.79324" lon="3.03824">
        <ele>4</ele>
        <time>1970-01-01T02:15:59Z</time>
      </trkpt>
      <trkpt lat="42.79325" lon="3.03824">
        <ele>4</ele>
        <time>1970-01-01T02:16:00Z</time>
      </trkpt>
      <trkpt lat="42.79326" lon="3.03824">
        <ele>4</ele>
        <time>1970-01-01T02:16:01Z</time>
      </trkpt>
      <trkpt lat="42.79326" lon="3.03825">
        <ele>4</ele>
        <time>1970-01-01T02:16:02Z</time>
      </trkpt>
      <trkpt lat="42.79327" lon="3.03825">
        <ele>4</ele>
        <time>1970-01-01T02:16:03Z</time>
      </trkpt>
      <trkpt lat="42.79327" lon="3.03826">
        <ele>4</ele>
        <time>1970-01-01T02:16:04Z</time>
      </trkpt>
      <trkpt lat="42.79328" lon="3.03826">
        <ele>4</ele>
        <time>1970-01-01T02:16:05Z</time>
      </trkpt>
      <trkpt lat="42.79331" lon="3.03828">
        <ele>4</ele>
        <time>1970-01-01T02:16:06Z</time>
      </trkpt>
      <trkpt lat="42.79334" lon="3.03829">
        <ele>4</ele>
        <time>1970-01-01T02:16:07Z</time>
      </trkpt>
      <trkpt lat="42.79338" lon="3.0383">
        <ele>4</ele>
        <time>1970-01-01T02:16:08Z</time>
      </trkpt>
      <trkpt lat="42.79342" lon="3.03832">
        <ele>3.8</ele>
        <time>1970-01-01T02:16:09Z</time>
      </trkpt>
      <trkpt lat="42.79346" lon="3.03832">
        <ele>3.8</ele>
        <time>1970-01-01T02:16:10Z</time>
      </trkpt>
      <trkpt lat="42.79351" lon="3.03832">
        <ele>3.8</ele>
        <time>1970-01-01T02:16:11Z</time>
      </trkpt>
      <trkpt lat="42.79355" lon="3.03832">
        <ele>3.8</ele>
        <time>1970-01-01T02:16:12Z</time>
      </trkpt>
      <trkpt lat="42.7936" lon="3.03832">
        <ele>3.6</ele>
        <time>1970-01-01T02:16:13Z</time>
      </trkpt>
      <trkpt lat="42.79364" lon="3.03832">
        <ele>3.6</ele>
        <time>1970-01-01T02:16:14Z</time>
      </trkpt>
      <trkpt lat="42.79369" lon="3.0383">
        <ele>3.6</ele>
        <time>1970-01-01T02:16:15Z</time>
      </trkpt>
      <trkpt lat="42.79373" lon="3.03826">
        <ele>3.6</ele>
        <time>1970-01-01T02:16:16Z</time>
      </trkpt>
      <trkpt lat="42.79377" lon="3.03823">
        <ele>3.6</ele>
        <time>1970-01-01T02:16:17Z</time>
      </trkpt>
      <trkpt lat="42.7938" lon="3.03818">
        <ele>3.6</ele>
        <time>1970-01-01T02:16:18Z</time>
      </trkpt>
      <trkpt lat="42.79384" lon="3.03815">
        <ele>3.6</ele>
        <time>1970-01-01T02:16:19Z</time>
      </trkpt>
      <trkpt lat="42.79388" lon="3.03813">
        <ele>3.6</ele>
        <time>1970-01-01T02:16:20Z</time>
      </trkpt>
      <trkpt lat="42.79393" lon="3.03813">
        <ele>3.6</ele>
        <time>1970-01-01T02:16:21Z</time>
      </trkpt>
      <trkpt lat="42.79397" lon="3.03813">
        <ele>3.6</ele>
        <time>1970-01-01T02:16:22Z</time>
      </trkpt>
      <trkpt lat="42.79401" lon="3.03814">
        <ele>3.6</ele>
        <time>1970-01-01T02:16:23Z</time>
      </trkpt>
      <trkpt lat="42.79405" lon="3.03815">
        <ele>3.6</ele>
        <time>1970-01-01T02:16:24Z</time>
      </trkpt>
      <trkpt lat="42.79409" lon="3.03817">
        <ele>3.6</ele>
        <time>1970-01-01T02:16:25Z</time>
      </trkpt>
      <trkpt lat="42.79413" lon="3.03819">
        <ele>3.6</ele>
        <time>1970-01-01T02:16:26Z</time>
      </trkpt>
      <trkpt lat="42.79417" lon="3.03821">
        <ele>3.6</ele>
        <time>1970-01-01T02:16:27Z</time>
      </trkpt>
      <trkpt lat="42.79422" lon="3.03824">
        <ele>3.6</ele>
        <time>1970-01-01T02:16:28Z</time>
      </trkpt>
      <trkpt lat="42.79426" lon="3.03825">
        <ele>3.8</ele>
        <time>1970-01-01T02:16:29Z</time>
      </trkpt>
      <trkpt lat="42.79431" lon="3.03826">
        <ele>3.8</ele>
        <time>1970-01-01T02:16:30Z</time>
      </trkpt>
      <trkpt lat="42.79435" lon="3.03826">
        <ele>3.8</ele>
        <time>1970-01-01T02:16:31Z</time>
      </trkpt>
      <trkpt lat="42.7944" lon="3.03827">
        <ele>3.8</ele>
        <time>1970-01-01T02:16:32Z</time>
      </trkpt>
      <trkpt lat="42.79444" lon="3.03828">
        <ele>3.8</ele>
        <time>1970-01-01T02:16:33Z</time>
      </trkpt>
      <trkpt lat="42.79448" lon="3.03828">
        <ele>3.8</ele>
        <time>1970-01-01T02:16:34Z</time>
      </trkpt>
      <trkpt lat="42.79453" lon="3.03829">
        <ele>3.8</ele>
        <time>1970-01-01T02:16:35Z</time>
      </trkpt>
      <trkpt lat="42.79457" lon="3.0383">
        <ele>4</ele>
        <time>1970-01-01T02:16:36Z</time>
      </trkpt>
      <trkpt lat="42.79461" lon="3.0383">
        <ele>4</ele>
        <time>1970-01-01T02:16:37Z</time>
      </trkpt>
      <trkpt lat="42.79465" lon="3.0383">
        <ele>4</ele>
        <time>1970-01-01T02:16:38Z</time>
      </trkpt>
      <trkpt lat="42.79469" lon="3.03831">
        <ele>4</ele>
        <time>1970-01-01T02:16:39Z</time>
      </trkpt>
      <trkpt lat="42.79473" lon="3.03831">
        <ele>4</ele>
        <time>1970-01-01T02:16:40Z</time>
      </trkpt>
      <trkpt lat="42.79477" lon="3.03831">
        <ele>4</ele>
        <time>1970-01-01T02:16:41Z</time>
      </trkpt>
      <trkpt lat="42.79481" lon="3.03831">
        <ele>4</ele>
        <time>1970-01-01T02:16:42Z</time>
      </trkpt>
      <trkpt lat="42.79484" lon="3.03831">
        <ele>4</ele>
        <time>1970-01-01T02:16:43Z</time>
      </trkpt>
      <trkpt lat="42.79489" lon="3.03831">
        <ele>4</ele>
        <time>1970-01-01T02:16:44Z</time>
      </trkpt>
      <trkpt lat="42.79493" lon="3.03831">
        <ele>4</ele>
        <time>1970-01-01T02:16:45Z</time>
      </trkpt>
      <trkpt lat="42.79497" lon="3.03832">
        <ele>4.2</ele>
        <time>1970-01-01T02:16:46Z</time>
      </trkpt>
      <trkpt lat="42.79502" lon="3.03832">
        <ele>4.2</ele>
        <time>1970-01-01T02:16:47Z</time>
      </trkpt>
      <trkpt lat="42.79506" lon="3.03832">
        <ele>4.2</ele>
        <time>1970-01-01T02:16:48Z</time>
      </trkpt>
      <trkpt lat="42.7951" lon="3.03833">
        <ele>4.2</ele>
        <time>1970-01-01T02:16:49Z</time>
      </trkpt>
      <trkpt lat="42.79513" lon="3.03833">
        <ele>4.2</ele>
        <time>1970-01-01T02:16:50Z</time>
      </trkpt>
      <trkpt lat="42.79516" lon="3.03833">
        <ele>4.2</ele>
        <time>1970-01-01T02:16:51Z</time>
      </trkpt>
      <trkpt lat="42.7952" lon="3.03833">
        <ele>4.2</ele>
        <time>1970-01-01T02:16:52Z</time>
      </trkpt>
      <trkpt lat="42.79523" lon="3.03833">
        <ele>4.2</ele>
        <time>1970-01-01T02:16:53Z</time>
      </trkpt>
      <trkpt lat="42.79527" lon="3.03833">
        <ele>4.2</ele>
        <time>1970-01-01T02:16:54Z</time>
      </trkpt>
      <trkpt lat="42.79531" lon="3.03833">
        <ele>4.2</ele>
        <time>1970-01-01T02:16:55Z</time>
      </trkpt>
      <trkpt lat="42.79535" lon="3.03832">
        <ele>4.2</ele>
        <time>1970-01-01T02:16:56Z</time>
      </trkpt>
      <trkpt lat="42.7954" lon="3.03832">
        <ele>4.2</ele>
        <time>1970-01-01T02:16:57Z</time>
      </trkpt>
      <trkpt lat="42.79544" lon="3.03832">
        <ele>4.2</ele>
        <time>1970-01-01T02:16:58Z</time>
      </trkpt>
      <trkpt lat="42.79548" lon="3.03832">
        <ele>4.2</ele>
        <time>1970-01-01T02:16:59Z</time>
      </trkpt>
      <trkpt lat="42.79552" lon="3.03832">
        <ele>4.2</ele>
        <time>1970-01-01T02:17:00Z</time>
      </trkpt>
      <trkpt lat="42.79557" lon="3.03833">
        <ele>4</ele>
        <time>1970-01-01T02:17:01Z</time>
      </trkpt>
      <trkpt lat="42.79561" lon="3.03834">
        <ele>4</ele>
        <time>1970-01-01T02:17:02Z</time>
      </trkpt>
      <trkpt lat="42.79564" lon="3.03834">
        <ele>4</ele>
        <time>1970-01-01T02:17:03Z</time>
      </trkpt>
      <trkpt lat="42.79568" lon="3.03835">
        <ele>4</ele>
        <time>1970-01-01T02:17:04Z</time>
      </trkpt>
      <trkpt lat="42.79572" lon="3.03835">
        <ele>4</ele>
        <time>1970-01-01T02:17:05Z</time>
      </trkpt>
      <trkpt lat="42.79576" lon="3.03834">
        <ele>4</ele>
        <time>1970-01-01T02:17:06Z</time>
      </trkpt>
      <trkpt lat="42.7958" lon="3.03833">
        <ele>4</ele>
        <time>1970-01-01T02:17:07Z</time>
      </trkpt>
      <trkpt lat="42.79582" lon="3.03831">
        <ele>4</ele>
        <time>1970-01-01T02:17:08Z</time>
      </trkpt>
      <trkpt lat="42.79585" lon="3.03827">
        <ele>4</ele>
        <time>1970-01-01T02:17:09Z</time>
      </trkpt>
      <trkpt lat="42.79587" lon="3.03823">
        <ele>3.8</ele>
        <time>1970-01-01T02:17:10Z</time>
      </trkpt>
      <trkpt lat="42.79589" lon="3.03818">
        <ele>3.8</ele>
        <time>1970-01-01T02:17:11Z</time>
      </trkpt>
      <trkpt lat="42.79591" lon="3.03813">
        <ele>3.8</ele>
        <time>1970-01-01T02:17:12Z</time>
      </trkpt>
      <trkpt lat="42.79592" lon="3.03808">
        <ele>3.8</ele>
        <time>1970-01-01T02:17:13Z</time>
      </trkpt>
      <trkpt lat="42.79594" lon="3.03803">
        <ele>3.8</ele>
        <time>1970-01-01T02:17:14Z</time>
      </trkpt>
      <trkpt lat="42.79596" lon="3.03798">
        <ele>3.6</ele>
        <time>1970-01-01T02:17:15Z</time>
      </trkpt>
      <trkpt lat="42.79597" lon="3.03792">
        <ele>3.6</ele>
        <time>1970-01-01T02:17:16Z</time>
      </trkpt>
      <trkpt lat="42.79599" lon="3.03787">
        <ele>3.6</ele>
        <time>1970-01-01T02:17:17Z</time>
      </trkpt>
      <trkpt lat="42.796" lon="3.03782">
        <ele>3.6</ele>
        <time>1970-01-01T02:17:18Z</time>
      </trkpt>
      <trkpt lat="42.79602" lon="3.03777">
        <ele>3.6</ele>
        <time>1970-01-01T02:17:19Z</time>
      </trkpt>
      <trkpt lat="42.79603" lon="3.03772">
        <ele>3.6</ele>
        <time>1970-01-01T02:17:20Z</time>
      </trkpt>
      <trkpt lat="42.79605" lon="3.03767">
        <ele>3.6</ele>
        <time>1970-01-01T02:17:21Z</time>
      </trkpt>
      <trkpt lat="42.79607" lon="3.03762">
        <ele>3.6</ele>
        <time>1970-01-01T02:17:22Z</time>
      </trkpt>
      <trkpt lat="42.79608" lon="3.03757">
        <ele>3.6</ele>
        <time>1970-01-01T02:17:23Z</time>
      </trkpt>
      <trkpt lat="42.7961" lon="3.03752">
        <ele>3.6</ele>
        <time>1970-01-01T02:17:24Z</time>
      </trkpt>
      <trkpt lat="42.79611" lon="3.03747">
        <ele>3.6</ele>
        <time>1970-01-01T02:17:25Z</time>
      </trkpt>
      <trkpt lat="42.79612" lon="3.03742">
        <ele>3.4</ele>
        <time>1970-01-01T02:17:26Z</time>
      </trkpt>
      <trkpt lat="42.79614" lon="3.03737">
        <ele>3.4</ele>
        <time>1970-01-01T02:17:27Z</time>
      </trkpt>
      <trkpt lat="42.79615" lon="3.03732">
        <ele>3.4</ele>
        <time>1970-01-01T02:17:28Z</time>
      </trkpt>
      <trkpt lat="42.79617" lon="3.03727">
        <ele>3.4</ele>
        <time>1970-01-01T02:17:29Z</time>
      </trkpt>
      <trkpt lat="42.79618" lon="3.03722">
        <ele>3.4</ele>
        <time>1970-01-01T02:17:30Z</time>
      </trkpt>
      <trkpt lat="42.7962" lon="3.03716">
        <ele>3.4</ele>
        <time>1970-01-01T02:17:31Z</time>
      </trkpt>
      <trkpt lat="42.79621" lon="3.0371">
        <ele>3.4</ele>
        <time>1970-01-01T02:17:32Z</time>
      </trkpt>
      <trkpt lat="42.79622" lon="3.03704">
        <ele>3.2</ele>
        <time>1970-01-01T02:17:33Z</time>
      </trkpt>
      <trkpt lat="42.79623" lon="3.03698">
        <ele>3.2</ele>
        <time>1970-01-01T02:17:34Z</time>
      </trkpt>
      <trkpt lat="42.79624" lon="3.03693">
        <ele>3.2</ele>
        <time>1970-01-01T02:17:35Z</time>
      </trkpt>
      <trkpt lat="42.79626" lon="3.03687">
        <ele>3.2</ele>
        <time>1970-01-01T02:17:36Z</time>
      </trkpt>
      <trkpt lat="42.79629" lon="3.03684">
        <ele>3.2</ele>
        <time>1970-01-01T02:17:37Z</time>
      </trkpt>
      <trkpt lat="42.79634" lon="3.03683">
        <ele>3.2</ele>
        <time>1970-01-01T02:17:38Z</time>
      </trkpt>
      <trkpt lat="42.79639" lon="3.03681">
        <ele>3.2</ele>
        <time>1970-01-01T02:17:39Z</time>
      </trkpt>
      <trkpt lat="42.79644" lon="3.03678">
        <ele>3.2</ele>
        <time>1970-01-01T02:17:40Z</time>
      </trkpt>
      <trkpt lat="42.79648" lon="3.03674">
        <ele>3.2</ele>
        <time>1970-01-01T02:17:41Z</time>
      </trkpt>
      <trkpt lat="42.79653" lon="3.0367">
        <ele>3.2</ele>
        <time>1970-01-01T02:17:42Z</time>
      </trkpt>
      <trkpt lat="42.79658" lon="3.03668">
        <ele>3.2</ele>
        <time>1970-01-01T02:17:43Z</time>
      </trkpt>
      <trkpt lat="42.79663" lon="3.03667">
        <ele>3.2</ele>
        <time>1970-01-01T02:17:44Z</time>
      </trkpt>
      <trkpt lat="42.79668" lon="3.03666">
        <ele>3.2</ele>
        <time>1970-01-01T02:17:45Z</time>
      </trkpt>
      <trkpt lat="42.79674" lon="3.03666">
        <ele>3.4</ele>
        <time>1970-01-01T02:17:46Z</time>
      </trkpt>
      <trkpt lat="42.79679" lon="3.03667">
        <ele>3.4</ele>
        <time>1970-01-01T02:17:47Z</time>
      </trkpt>
      <trkpt lat="42.79685" lon="3.03667">
        <ele>3.6</ele>
        <time>1970-01-01T02:17:48Z</time>
      </trkpt>
      <trkpt lat="42.7969" lon="3.03667">
        <ele>3.6</ele>
        <time>1970-01-01T02:17:49Z</time>
      </trkpt>
      <trkpt lat="42.79696" lon="3.03668">
        <ele>3.8</ele>
        <time>1970-01-01T02:17:50Z</time>
      </trkpt>
      <trkpt lat="42.79701" lon="3.03668">
        <ele>3.8</ele>
        <time>1970-01-01T02:17:51Z</time>
      </trkpt>
      <trkpt lat="42.79707" lon="3.03669">
        <ele>4</ele>
        <time>1970-01-01T02:17:52Z</time>
      </trkpt>
      <trkpt lat="42.79712" lon="3.0367">
        <ele>4.2</ele>
        <time>1970-01-01T02:17:53Z</time>
      </trkpt>
      <trkpt lat="42.79718" lon="3.03671">
        <ele>4.4</ele>
        <time>1970-01-01T02:17:54Z</time>
      </trkpt>
      <trkpt lat="42.79723" lon="3.03671">
        <ele>4.4</ele>
        <time>1970-01-01T02:17:55Z</time>
      </trkpt>
      <trkpt lat="42.79729" lon="3.03672">
        <ele>4.6</ele>
        <time>1970-01-01T02:17:56Z</time>
      </trkpt>
      <trkpt lat="42.79734" lon="3.03673">
        <ele>4.8</ele>
        <time>1970-01-01T02:17:57Z</time>
      </trkpt>
      <trkpt lat="42.7974" lon="3.03673">
        <ele>5</ele>
        <time>1970-01-01T02:17:58Z</time>
      </trkpt>
      <trkpt lat="42.79745" lon="3.03673">
        <ele>5</ele>
        <time>1970-01-01T02:17:59Z</time>
      </trkpt>
      <trkpt lat="42.79751" lon="3.03674">
        <ele>5.2</ele>
        <time>1970-01-01T02:18:00Z</time>
      </trkpt>
      <trkpt lat="42.79756" lon="3.03674">
        <ele>5.4</ele>
        <time>1970-01-01T02:18:01Z</time>
      </trkpt>
      <trkpt lat="42.79761" lon="3.03674">
        <ele>5.4</ele>
        <time>1970-01-01T02:18:02Z</time>
      </trkpt>
      <trkpt lat="42.79767" lon="3.03674">
        <ele>5.6</ele>
        <time>1970-01-01T02:18:03Z</time>
      </trkpt>
      <trkpt lat="42.79772" lon="3.03674">
        <ele>5.6</ele>
        <time>1970-01-01T02:18:04Z</time>
      </trkpt>
      <trkpt lat="42.79777" lon="3.03675">
        <ele>5.6</ele>
        <time>1970-01-01T02:18:05Z</time>
      </trkpt>
      <trkpt lat="42.79782" lon="3.03675">
        <ele>5.8</ele>
        <time>1970-01-01T02:18:06Z</time>
      </trkpt>
      <trkpt lat="42.79787" lon="3.03676">
        <ele>5.8</ele>
        <time>1970-01-01T02:18:07Z</time>
      </trkpt>
      <trkpt lat="42.79792" lon="3.03676">
        <ele>5.8</ele>
        <time>1970-01-01T02:18:08Z</time>
      </trkpt>
      <trkpt lat="42.79797" lon="3.03676">
        <ele>5.8</ele>
        <time>1970-01-01T02:18:09Z</time>
      </trkpt>
      <trkpt lat="42.79802" lon="3.03677">
        <ele>5.8</ele>
        <time>1970-01-01T02:18:10Z</time>
      </trkpt>
      <trkpt lat="42.79808" lon="3.03677">
        <ele>5.8</ele>
        <time>1970-01-01T02:18:11Z</time>
      </trkpt>
      <trkpt lat="42.79813" lon="3.03677">
        <ele>5.8</ele>
        <time>1970-01-01T02:18:12Z</time>
      </trkpt>
      <trkpt lat="42.79818" lon="3.03678">
        <ele>5.8</ele>
        <time>1970-01-01T02:18:13Z</time>
      </trkpt>
      <trkpt lat="42.79823" lon="3.03678">
        <ele>5.8</ele>
        <time>1970-01-01T02:18:14Z</time>
      </trkpt>
      <trkpt lat="42.79829" lon="3.03679">
        <ele>5.8</ele>
        <time>1970-01-01T02:18:15Z</time>
      </trkpt>
      <trkpt lat="42.79834" lon="3.03679">
        <ele>5.8</ele>
        <time>1970-01-01T02:18:16Z</time>
      </trkpt>
      <trkpt lat="42.79839" lon="3.0368">
        <ele>5.8</ele>
        <time>1970-01-01T02:18:17Z</time>
      </trkpt>
      <trkpt lat="42.79845" lon="3.0368">
        <ele>5.8</ele>
        <time>1970-01-01T02:18:18Z</time>
      </trkpt>
      <trkpt lat="42.7985" lon="3.03681">
        <ele>5.6</ele>
        <time>1970-01-01T02:18:19Z</time>
      </trkpt>
      <trkpt lat="42.79855" lon="3.03681">
        <ele>5.6</ele>
        <time>1970-01-01T02:18:20Z</time>
      </trkpt>
      <trkpt lat="42.79861" lon="3.03682">
        <ele>5.6</ele>
        <time>1970-01-01T02:18:21Z</time>
      </trkpt>
      <trkpt lat="42.79866" lon="3.03683">
        <ele>5.4</ele>
        <time>1970-01-01T02:18:22Z</time>
      </trkpt>
      <trkpt lat="42.79872" lon="3.03683">
        <ele>5.4</ele>
        <time>1970-01-01T02:18:23Z</time>
      </trkpt>
      <trkpt lat="42.79878" lon="3.03684">
        <ele>5.2</ele>
        <time>1970-01-01T02:18:24Z</time>
      </trkpt>
      <trkpt lat="42.79883" lon="3.03684">
        <ele>5.2</ele>
        <time>1970-01-01T02:18:25Z</time>
      </trkpt>
      <trkpt lat="42.79889" lon="3.03684">
        <ele>5</ele>
        <time>1970-01-01T02:18:26Z</time>
      </trkpt>
      <trkpt lat="42.79895" lon="3.03685">
        <ele>4.8</ele>
        <time>1970-01-01T02:18:27Z</time>
      </trkpt>
      <trkpt lat="42.79901" lon="3.03685">
        <ele>4.8</ele>
        <time>1970-01-01T02:18:28Z</time>
      </trkpt>
      <trkpt lat="42.79907" lon="3.03685">
        <ele>4.6</ele>
        <time>1970-01-01T02:18:29Z</time>
      </trkpt>
      <trkpt lat="42.79913" lon="3.03686">
        <ele>4.6</ele>
        <time>1970-01-01T02:18:30Z</time>
      </trkpt>
      <trkpt lat="42.79918" lon="3.03686">
        <ele>4.4</ele>
        <time>1970-01-01T02:18:31Z</time>
      </trkpt>
      <trkpt lat="42.79924" lon="3.03686">
        <ele>4.4</ele>
        <time>1970-01-01T02:18:32Z</time>
      </trkpt>
      <trkpt lat="42.7993" lon="3.03687">
        <ele>4.2</ele>
        <time>1970-01-01T02:18:33Z</time>
      </trkpt>
      <trkpt lat="42.79935" lon="3.03688">
        <ele>4.2</ele>
        <time>1970-01-01T02:18:34Z</time>
      </trkpt>
      <trkpt lat="42.79941" lon="3.03688">
        <ele>4</ele>
        <time>1970-01-01T02:18:35Z</time>
      </trkpt>
      <trkpt lat="42.79947" lon="3.03689">
        <ele>4</ele>
        <time>1970-01-01T02:18:36Z</time>
      </trkpt>
      <trkpt lat="42.79952" lon="3.03689">
        <ele>3.8</ele>
        <time>1970-01-01T02:18:37Z</time>
      </trkpt>
      <trkpt lat="42.79958" lon="3.03689">
        <ele>3.8</ele>
        <time>1970-01-01T02:18:38Z</time>
      </trkpt>
      <trkpt lat="42.79964" lon="3.03689">
        <ele>3.8</ele>
        <time>1970-01-01T02:18:39Z</time>
      </trkpt>
      <trkpt lat="42.79969" lon="3.03689">
        <ele>3.8</ele>
        <time>1970-01-01T02:18:40Z</time>
      </trkpt>
      <trkpt lat="42.79974" lon="3.03689">
        <ele>3.6</ele>
        <time>1970-01-01T02:18:41Z</time>
      </trkpt>
      <trkpt lat="42.7998" lon="3.03688">
        <ele>3.6</ele>
        <time>1970-01-01T02:18:42Z</time>
      </trkpt>
      <trkpt lat="42.79985" lon="3.03689">
        <ele>3.6</ele>
        <time>1970-01-01T02:18:43Z</time>
      </trkpt>
      <trkpt lat="42.7999" lon="3.03691">
        <ele>3.6</ele>
        <time>1970-01-01T02:18:44Z</time>
      </trkpt>
      <trkpt lat="42.79996" lon="3.03693">
        <ele>3.4</ele>
        <time>1970-01-01T02:18:45Z</time>
      </trkpt>
      <trkpt lat="42.80001" lon="3.03695">
        <ele>3.4</ele>
        <time>1970-01-01T02:18:46Z</time>
      </trkpt>
      <trkpt lat="42.80006" lon="3.03695">
        <ele>3.4</ele>
        <time>1970-01-01T02:18:47Z</time>
      </trkpt>
      <trkpt lat="42.80011" lon="3.03693">
        <ele>3.4</ele>
        <time>1970-01-01T02:18:48Z</time>
      </trkpt>
      <trkpt lat="42.80016" lon="3.03689">
        <ele>3.4</ele>
        <time>1970-01-01T02:18:49Z</time>
      </trkpt>
      <trkpt lat="42.80019" lon="3.03684">
        <ele>3.4</ele>
        <time>1970-01-01T02:18:50Z</time>
      </trkpt>
      <trkpt lat="42.80021" lon="3.03677">
        <ele>3.4</ele>
        <time>1970-01-01T02:18:51Z</time>
      </trkpt>
      <trkpt lat="42.80021" lon="3.0367">
        <ele>3.4</ele>
        <time>1970-01-01T02:18:52Z</time>
      </trkpt>
      <trkpt lat="42.8002" lon="3.03664">
        <ele>3.4</ele>
        <time>1970-01-01T02:18:53Z</time>
      </trkpt>
      <trkpt lat="42.80017" lon="3.03658">
        <ele>3.4</ele>
        <time>1970-01-01T02:18:54Z</time>
      </trkpt>
      <trkpt lat="42.80014" lon="3.03654">
        <ele>3.2</ele>
        <time>1970-01-01T02:18:55Z</time>
      </trkpt>
      <trkpt lat="42.80009" lon="3.0365">
        <ele>3.2</ele>
        <time>1970-01-01T02:18:56Z</time>
      </trkpt>
      <trkpt lat="42.80003" lon="3.03648">
        <ele>3.2</ele>
        <time>1970-01-01T02:18:57Z</time>
      </trkpt>
      <trkpt lat="42.79998" lon="3.03646">
        <ele>3.2</ele>
        <time>1970-01-01T02:18:58Z</time>
      </trkpt>
      <trkpt lat="42.79994" lon="3.03642">
        <ele>3.2</ele>
        <time>1970-01-01T02:18:59Z</time>
      </trkpt>
      <trkpt lat="42.7999" lon="3.03636">
        <ele>3</ele>
        <time>1970-01-01T02:19:00Z</time>
      </trkpt>
      <trkpt lat="42.79988" lon="3.03628">
        <ele>2.6</ele>
        <time>1970-01-01T02:19:01Z</time>
      </trkpt>
      <trkpt lat="42.79988" lon="3.03619">
        <ele>2.4</ele>
        <time>1970-01-01T02:19:02Z</time>
      </trkpt>
      <trkpt lat="42.79991" lon="3.0361">
        <ele>2.4</ele>
        <time>1970-01-01T02:19:03Z</time>
      </trkpt>
      <trkpt lat="42.79994" lon="3.03603">
        <ele>2.2</ele>
        <time>1970-01-01T02:19:04Z</time>
      </trkpt>
      <trkpt lat="42.79998" lon="3.03596">
        <ele>2.2</ele>
        <time>1970-01-01T02:19:05Z</time>
      </trkpt>
      <trkpt lat="42.80001" lon="3.0359">
        <ele>2.2</ele>
        <time>1970-01-01T02:19:06Z</time>
      </trkpt>
      <trkpt lat="42.80004" lon="3.03583">
        <ele>2.2</ele>
        <time>1970-01-01T02:19:07Z</time>
      </trkpt>
      <trkpt lat="42.80007" lon="3.03577">
        <ele>2.2</ele>
        <time>1970-01-01T02:19:08Z</time>
      </trkpt>
      <trkpt lat="42.8001" lon="3.03571">
        <ele>2</ele>
        <time>1970-01-01T02:19:09Z</time>
      </trkpt>
      <trkpt lat="42.80013" lon="3.03565">
        <ele>2</ele>
        <time>1970-01-01T02:19:10Z</time>
      </trkpt>
      <trkpt lat="42.80016" lon="3.03559">
        <ele>2</ele>
        <time>1970-01-01T02:19:11Z</time>
      </trkpt>
      <trkpt lat="42.80019" lon="3.03554">
        <ele>2.2</ele>
        <time>1970-01-01T02:19:12Z</time>
      </trkpt>
      <trkpt lat="42.80021" lon="3.03548">
        <ele>2.2</ele>
        <time>1970-01-01T02:19:13Z</time>
      </trkpt>
      <trkpt lat="42.80024" lon="3.03543">
        <ele>2.2</ele>
        <time>1970-01-01T02:19:14Z</time>
      </trkpt>
      <trkpt lat="42.80027" lon="3.03538">
        <ele>2.2</ele>
        <time>1970-01-01T02:19:15Z</time>
      </trkpt>
      <trkpt lat="42.8003" lon="3.03535">
        <ele>2.2</ele>
        <time>1970-01-01T02:19:16Z</time>
      </trkpt>
      <trkpt lat="42.80033" lon="3.03534">
        <ele>2.2</ele>
        <time>1970-01-01T02:19:17Z</time>
      </trkpt>
      <trkpt lat="42.80037" lon="3.03533">
        <ele>2.2</ele>
        <time>1970-01-01T02:19:18Z</time>
      </trkpt>
      <trkpt lat="42.8004" lon="3.03535">
        <ele>2.2</ele>
        <time>1970-01-01T02:19:19Z</time>
      </trkpt>
      <trkpt lat="42.80044" lon="3.03537">
        <ele>2.2</ele>
        <time>1970-01-01T02:19:20Z</time>
      </trkpt>
      <trkpt lat="42.80048" lon="3.0354">
        <ele>2.4</ele>
        <time>1970-01-01T02:19:21Z</time>
      </trkpt>
      <trkpt lat="42.80051" lon="3.03543">
        <ele>2.4</ele>
        <time>1970-01-01T02:19:22Z</time>
      </trkpt>
      <trkpt lat="42.80055" lon="3.03546">
        <ele>2.6</ele>
        <time>1970-01-01T02:19:23Z</time>
      </trkpt>
      <trkpt lat="42.80059" lon="3.03548">
        <ele>2.6</ele>
        <time>1970-01-01T02:19:24Z</time>
      </trkpt>
      <trkpt lat="42.80062" lon="3.03551">
        <ele>2.8</ele>
        <time>1970-01-01T02:19:25Z</time>
      </trkpt>
      <trkpt lat="42.80065" lon="3.03553">
        <ele>2.8</ele>
        <time>1970-01-01T02:19:26Z</time>
      </trkpt>
      <trkpt lat="42.80069" lon="3.03554">
        <ele>3</ele>
        <time>1970-01-01T02:19:27Z</time>
      </trkpt>
      <trkpt lat="42.80072" lon="3.03554">
        <ele>3</ele>
        <time>1970-01-01T02:19:28Z</time>
      </trkpt>
      <trkpt lat="42.80075" lon="3.03554">
        <ele>3</ele>
        <time>1970-01-01T02:19:29Z</time>
      </trkpt>
      <trkpt lat="42.80078" lon="3.03553">
        <ele>3</ele>
        <time>1970-01-01T02:19:30Z</time>
      </trkpt>
      <trkpt lat="42.80081" lon="3.03551">
        <ele>3</ele>
        <time>1970-01-01T02:19:31Z</time>
      </trkpt>
      <trkpt lat="42.80085" lon="3.0355">
        <ele>3</ele>
        <time>1970-01-01T02:19:32Z</time>
      </trkpt>
      <trkpt lat="42.80088" lon="3.03549">
        <ele>3</ele>
        <time>1970-01-01T02:19:33Z</time>
      </trkpt>
      <trkpt lat="42.80091" lon="3.03547">
        <ele>3</ele>
        <time>1970-01-01T02:19:34Z</time>
      </trkpt>
      <trkpt lat="42.80093" lon="3.03543">
        <ele>3</ele>
        <time>1970-01-01T02:19:35Z</time>
      </trkpt>
      <trkpt lat="42.80094" lon="3.03539">
        <ele>3</ele>
        <time>1970-01-01T02:19:36Z</time>
      </trkpt>
      <trkpt lat="42.80093" lon="3.03535">
        <ele>3.2</ele>
        <time>1970-01-01T02:19:37Z</time>
      </trkpt>
      <trkpt lat="42.80092" lon="3.03532">
        <ele>3.2</ele>
        <time>1970-01-01T02:19:38Z</time>
      </trkpt>
      <trkpt lat="42.80089" lon="3.0353">
        <ele>3.2</ele>
        <time>1970-01-01T02:19:39Z</time>
      </trkpt>
      <trkpt lat="42.80085" lon="3.03529">
        <ele>3.2</ele>
        <time>1970-01-01T02:19:40Z</time>
      </trkpt>
    </trkseg>
  </trk>
</gpx>